<?xml version="1.0" encoding="UTF-8" standalone="no" ?>
<gpx xmlns="http://www.topografix.com/GPX/1/1" xmlns:xsi="http://www.w3.org/2001/XMLSchema-instance" xsi:schemaLocation="http://www.topografix.com/GPX/1/1 http://www.topografix.com/GPX/1/1/gpx.xsd" version="1.1" creator="VisuGPX - https://www.visugpx.com">
  <metadata>
    <name>Nord Toulousain 07 2023</name>
  </metadata>
  <trk>
    <name><![CDATA[Nord Toulousain 07 2023]]></name>
    <extensions>
      <line xmlns="http://www.topografix.com/GPX/gpx_style/0/2">
        <color>0000FF</color>
        <width>4</width>
      </line>
    </extensions>
    <trkseg>
      <trkpt lat="43.65563" lon="1.44602">
        <ele>136.178042</ele>
        <time>2023-07-30T13:09:26.000Z</time>
      </trkpt>
      <trkpt lat="43.65562" lon="1.44602">
        <ele>136.178042</ele>
        <time>2023-07-30T13:09:30.000Z</time>
      </trkpt>
      <trkpt lat="43.65562" lon="1.44602">
        <ele>136.178042</ele>
        <time>2023-07-30T13:09:33.000Z</time>
      </trkpt>
      <trkpt lat="43.65561" lon="1.44602">
        <ele>136.178042</ele>
        <time>2023-07-30T13:09:43.000Z</time>
      </trkpt>
      <trkpt lat="43.65561" lon="1.44602">
        <ele>136.178042</ele>
        <time>2023-07-30T13:09:43.000Z</time>
      </trkpt>
      <trkpt lat="43.65561" lon="1.44606">
        <ele>136.178042</ele>
        <time>2023-07-30T13:09:54.000Z</time>
      </trkpt>
      <trkpt lat="43.65561" lon="1.44606">
        <ele>136.178042</ele>
        <time>2023-07-30T13:09:54.000Z</time>
      </trkpt>
      <trkpt lat="43.65563" lon="1.44609">
        <ele>136.178042</ele>
        <time>2023-07-30T13:09:57.000Z</time>
      </trkpt>
      <trkpt lat="43.65567" lon="1.44612">
        <ele>136.178042</ele>
        <time>2023-07-30T13:10:01.000Z</time>
      </trkpt>
      <trkpt lat="43.65566" lon="1.44612">
        <ele>136.178042</ele>
        <time>2023-07-30T13:10:02.000Z</time>
      </trkpt>
      <trkpt lat="43.65567" lon="1.44613">
        <ele>136.178042</ele>
        <time>2023-07-30T13:10:03.000Z</time>
      </trkpt>
      <trkpt lat="43.65569" lon="1.44614">
        <ele>136.178042</ele>
        <time>2023-07-30T13:10:04.000Z</time>
      </trkpt>
      <trkpt lat="43.65571" lon="1.44615">
        <ele>136.178042</ele>
        <time>2023-07-30T13:10:06.000Z</time>
      </trkpt>
      <trkpt lat="43.65571" lon="1.44615">
        <ele>136.178042</ele>
        <time>2023-07-30T13:10:06.000Z</time>
      </trkpt>
      <trkpt lat="43.65572" lon="1.44614">
        <ele>136.178042</ele>
        <time>2023-07-30T13:10:06.000Z</time>
      </trkpt>
      <trkpt lat="43.65575" lon="1.44612">
        <ele>136.178042</ele>
        <time>2023-07-30T13:10:08.000Z</time>
      </trkpt>
      <trkpt lat="43.6558" lon="1.44612">
        <ele>136.178042</ele>
        <time>2023-07-30T13:10:10.000Z</time>
      </trkpt>
      <trkpt lat="43.65581" lon="1.44614">
        <ele>136.178042</ele>
        <time>2023-07-30T13:10:12.000Z</time>
      </trkpt>
      <trkpt lat="43.65582" lon="1.44616">
        <ele>136.178042</ele>
        <time>2023-07-30T13:10:13.000Z</time>
      </trkpt>
      <trkpt lat="43.65586" lon="1.44618">
        <ele>136.178042</ele>
        <time>2023-07-30T13:10:14.000Z</time>
      </trkpt>
      <trkpt lat="43.65588" lon="1.44619">
        <ele>136.178042</ele>
        <time>2023-07-30T13:10:43.000Z</time>
      </trkpt>
      <trkpt lat="43.65588" lon="1.44619">
        <ele>136.178042</ele>
        <time>2023-07-30T13:10:43.000Z</time>
      </trkpt>
      <trkpt lat="43.65591" lon="1.44619">
        <ele>136.178042</ele>
        <time>2023-07-30T13:10:52.000Z</time>
      </trkpt>
      <trkpt lat="43.65591" lon="1.44619">
        <ele>136.178042</ele>
        <time>2023-07-30T13:10:52.000Z</time>
      </trkpt>
      <trkpt lat="43.65596" lon="1.44616">
        <ele>136.178042</ele>
        <time>2023-07-30T13:10:56.000Z</time>
      </trkpt>
      <trkpt lat="43.65597" lon="1.44617">
        <ele>136.178042</ele>
        <time>2023-07-30T13:10:56.000Z</time>
      </trkpt>
      <trkpt lat="43.65598" lon="1.4462">
        <ele>136.178042</ele>
        <time>2023-07-30T13:10:58.000Z</time>
      </trkpt>
      <trkpt lat="43.65603" lon="1.44625">
        <ele>136.178042</ele>
        <time>2023-07-30T13:11:00.000Z</time>
      </trkpt>
      <trkpt lat="43.65604" lon="1.44625">
        <ele>136.178042</ele>
        <time>2023-07-30T13:11:01.000Z</time>
      </trkpt>
      <trkpt lat="43.65604" lon="1.44625">
        <ele>136.178042</ele>
        <time>2023-07-30T13:11:01.000Z</time>
      </trkpt>
      <trkpt lat="43.65608" lon="1.44627">
        <ele>136.178042</ele>
        <time>2023-07-30T13:11:03.000Z</time>
      </trkpt>
      <trkpt lat="43.65609" lon="1.4463">
        <ele>136.178042</ele>
        <time>2023-07-30T13:11:04.000Z</time>
      </trkpt>
      <trkpt lat="43.65609" lon="1.44633">
        <ele>136.178042</ele>
        <time>2023-07-30T13:11:05.000Z</time>
      </trkpt>
      <trkpt lat="43.65609" lon="1.44636">
        <ele>136.178042</ele>
        <time>2023-07-30T13:11:06.000Z</time>
      </trkpt>
      <trkpt lat="43.65608" lon="1.44645">
        <ele>136.178042</ele>
        <time>2023-07-30T13:11:08.000Z</time>
      </trkpt>
      <trkpt lat="43.65608" lon="1.4465">
        <ele>136.178042</ele>
        <time>2023-07-30T13:11:09.000Z</time>
      </trkpt>
      <trkpt lat="43.65608" lon="1.44656">
        <ele>136.178042</ele>
        <time>2023-07-30T13:11:10.000Z</time>
      </trkpt>
      <trkpt lat="43.65607" lon="1.4466">
        <ele>136.178042</ele>
        <time>2023-07-30T13:11:11.000Z</time>
      </trkpt>
      <trkpt lat="43.65603" lon="1.44669">
        <ele>136.173905</ele>
        <time>2023-07-30T13:11:13.000Z</time>
      </trkpt>
      <trkpt lat="43.656" lon="1.44673">
        <ele>136.163691</ele>
        <time>2023-07-30T13:11:15.000Z</time>
      </trkpt>
      <trkpt lat="43.65598" lon="1.44677">
        <ele>136.156245</ele>
        <time>2023-07-30T13:11:16.000Z</time>
      </trkpt>
      <trkpt lat="43.65596" lon="1.44681">
        <ele>136.148243</ele>
        <time>2023-07-30T13:11:17.000Z</time>
      </trkpt>
      <trkpt lat="43.65594" lon="1.44686">
        <ele>136.138587</ele>
        <time>2023-07-30T13:11:18.000Z</time>
      </trkpt>
      <trkpt lat="43.65594" lon="1.44686">
        <ele>136.138587</ele>
        <time>2023-07-30T13:11:18.000Z</time>
      </trkpt>
      <trkpt lat="43.65592" lon="1.4469">
        <ele>136.12893</ele>
        <time>2023-07-30T13:11:19.000Z</time>
      </trkpt>
      <trkpt lat="43.6559" lon="1.44695">
        <ele>136.119274</ele>
        <time>2023-07-30T13:11:20.000Z</time>
      </trkpt>
      <trkpt lat="43.65587" lon="1.447">
        <ele>136.109476</ele>
        <time>2023-07-30T13:11:21.000Z</time>
      </trkpt>
      <trkpt lat="43.65584" lon="1.44706">
        <ele>136.097064</ele>
        <time>2023-07-30T13:11:22.000Z</time>
      </trkpt>
      <trkpt lat="43.65582" lon="1.4471">
        <ele>136.087548</ele>
        <time>2023-07-30T13:11:23.000Z</time>
      </trkpt>
      <trkpt lat="43.65577" lon="1.4472">
        <ele>136.068235</ele>
        <time>2023-07-30T13:11:25.000Z</time>
      </trkpt>
      <trkpt lat="43.65577" lon="1.4472">
        <ele>136.068235</ele>
        <time>2023-07-30T13:11:25.000Z</time>
      </trkpt>
      <trkpt lat="43.65574" lon="1.44726">
        <ele>136.054722</ele>
        <time>2023-07-30T13:11:26.000Z</time>
      </trkpt>
      <trkpt lat="43.65572" lon="1.4473">
        <ele>136.04672</ele>
        <time>2023-07-30T13:11:28.000Z</time>
      </trkpt>
      <trkpt lat="43.6557" lon="1.44734">
        <ele>136.038859</ele>
        <time>2023-07-30T13:11:29.000Z</time>
      </trkpt>
      <trkpt lat="43.65564" lon="1.44746">
        <ele>136.013481</ele>
        <time>2023-07-30T13:11:30.000Z</time>
      </trkpt>
      <trkpt lat="43.65561" lon="1.44752">
        <ele>136.00231</ele>
        <time>2023-07-30T13:11:32.000Z</time>
      </trkpt>
      <trkpt lat="43.65559" lon="1.44755">
        <ele>135.994308</ele>
        <time>2023-07-30T13:11:33.000Z</time>
      </trkpt>
      <trkpt lat="43.65556" lon="1.44761">
        <ele>135.982173</ele>
        <time>2023-07-30T13:11:34.000Z</time>
      </trkpt>
      <trkpt lat="43.65554" lon="1.44767">
        <ele>135.971134</ele>
        <time>2023-07-30T13:11:35.000Z</time>
      </trkpt>
      <trkpt lat="43.65552" lon="1.44771">
        <ele>135.961985</ele>
        <time>2023-07-30T13:11:36.000Z</time>
      </trkpt>
      <trkpt lat="43.65549" lon="1.44777">
        <ele>135.949673</ele>
        <time>2023-07-30T13:11:37.000Z</time>
      </trkpt>
      <trkpt lat="43.65546" lon="1.44783">
        <ele>135.937401</ele>
        <time>2023-07-30T13:11:38.000Z</time>
      </trkpt>
      <trkpt lat="43.65543" lon="1.44789">
        <ele>135.924434</ele>
        <time>2023-07-30T13:11:39.000Z</time>
      </trkpt>
      <trkpt lat="43.6554" lon="1.44795">
        <ele>135.912301</ele>
        <time>2023-07-30T13:11:40.000Z</time>
      </trkpt>
      <trkpt lat="43.65536" lon="1.448">
        <ele>135.899962</ele>
        <time>2023-07-30T13:11:42.000Z</time>
      </trkpt>
      <trkpt lat="43.65533" lon="1.44805">
        <ele>135.8904</ele>
        <time>2023-07-30T13:11:43.000Z</time>
      </trkpt>
      <trkpt lat="43.65525" lon="1.44815">
        <ele>135.864914</ele>
        <time>2023-07-30T13:11:45.000Z</time>
      </trkpt>
      <trkpt lat="43.65521" lon="1.44822">
        <ele>135.848092</ele>
        <time>2023-07-30T13:11:46.000Z</time>
      </trkpt>
      <trkpt lat="43.65517" lon="1.44828">
        <ele>135.835956</ele>
        <time>2023-07-30T13:11:48.000Z</time>
      </trkpt>
      <trkpt lat="43.65515" lon="1.44832">
        <ele>135.826158</ele>
        <time>2023-07-30T13:11:49.000Z</time>
      </trkpt>
      <trkpt lat="43.65514" lon="1.44838">
        <ele>135.816631</ele>
        <time>2023-07-30T13:11:50.000Z</time>
      </trkpt>
      <trkpt lat="43.65511" lon="1.44844">
        <ele>135.804622</ele>
        <time>2023-07-30T13:11:51.000Z</time>
      </trkpt>
      <trkpt lat="43.65509" lon="1.44852">
        <ele>135.790287</ele>
        <time>2023-07-30T13:11:52.000Z</time>
      </trkpt>
      <trkpt lat="43.65507" lon="1.44858">
        <ele>135.777973</ele>
        <time>2023-07-30T13:11:53.000Z</time>
      </trkpt>
      <trkpt lat="43.65507" lon="1.44858">
        <ele>135.777973</ele>
        <time>2023-07-30T13:11:53.000Z</time>
      </trkpt>
      <trkpt lat="43.65505" lon="1.44864">
        <ele>135.767137</ele>
        <time>2023-07-30T13:11:54.000Z</time>
      </trkpt>
      <trkpt lat="43.65502" lon="1.4487">
        <ele>135.754902</ele>
        <time>2023-07-30T13:11:55.000Z</time>
      </trkpt>
      <trkpt lat="43.65499" lon="1.44875">
        <ele>135.748031</ele>
        <time>2023-07-30T13:11:56.000Z</time>
      </trkpt>
      <trkpt lat="43.65496" lon="1.44881">
        <ele>135.7409</ele>
        <time>2023-07-30T13:11:57.000Z</time>
      </trkpt>
      <trkpt lat="43.65494" lon="1.44887">
        <ele>135.734022</ele>
        <time>2023-07-30T13:11:58.000Z</time>
      </trkpt>
      <trkpt lat="43.65491" lon="1.44892">
        <ele>135.727405</ele>
        <time>2023-07-30T13:11:59.000Z</time>
      </trkpt>
      <trkpt lat="43.65491" lon="1.44892">
        <ele>135.727405</ele>
        <time>2023-07-30T13:11:59.000Z</time>
      </trkpt>
      <trkpt lat="43.65488" lon="1.44897">
        <ele>135.720788</ele>
        <time>2023-07-30T13:12:00.000Z</time>
      </trkpt>
      <trkpt lat="43.65486" lon="1.44902">
        <ele>135.714662</ele>
        <time>2023-07-30T13:12:01.000Z</time>
      </trkpt>
      <trkpt lat="43.65484" lon="1.44907">
        <ele>135.709133</ele>
        <time>2023-07-30T13:12:02.000Z</time>
      </trkpt>
      <trkpt lat="43.65482" lon="1.44912">
        <ele>135.703136</ele>
        <time>2023-07-30T13:12:03.000Z</time>
      </trkpt>
      <trkpt lat="43.65481" lon="1.44917">
        <ele>135.697634</ele>
        <time>2023-07-30T13:12:04.000Z</time>
      </trkpt>
      <trkpt lat="43.65479" lon="1.44923">
        <ele>135.690706</ele>
        <time>2023-07-30T13:12:05.000Z</time>
      </trkpt>
      <trkpt lat="43.65477" lon="1.44929">
        <ele>135.684106</ele>
        <time>2023-07-30T13:12:06.000Z</time>
      </trkpt>
      <trkpt lat="43.65477" lon="1.44929">
        <ele>135.684106</ele>
        <time>2023-07-30T13:12:06.000Z</time>
      </trkpt>
      <trkpt lat="43.65478" lon="1.44935">
        <ele>135.677259</ele>
        <time>2023-07-30T13:12:07.000Z</time>
      </trkpt>
      <trkpt lat="43.65479" lon="1.44941">
        <ele>135.671791</ele>
        <time>2023-07-30T13:12:08.000Z</time>
      </trkpt>
      <trkpt lat="43.6548" lon="1.44944">
        <ele>135.667762</ele>
        <time>2023-07-30T13:12:09.000Z</time>
      </trkpt>
      <trkpt lat="43.6548" lon="1.44944">
        <ele>135.667762</ele>
        <time>2023-07-30T13:12:09.000Z</time>
      </trkpt>
      <trkpt lat="43.65484" lon="1.44952">
        <ele>135.657627</ele>
        <time>2023-07-30T13:12:11.000Z</time>
      </trkpt>
      <trkpt lat="43.65487" lon="1.44957">
        <ele>135.65082</ele>
        <time>2023-07-30T13:12:12.000Z</time>
      </trkpt>
      <trkpt lat="43.65493" lon="1.44966">
        <ele>135.637981</ele>
        <time>2023-07-30T13:12:13.000Z</time>
      </trkpt>
      <trkpt lat="43.65496" lon="1.44971">
        <ele>135.632249</ele>
        <time>2023-07-30T13:12:15.000Z</time>
      </trkpt>
      <trkpt lat="43.65499" lon="1.44975">
        <ele>135.625378</ele>
        <time>2023-07-30T13:12:16.000Z</time>
      </trkpt>
      <trkpt lat="43.65503" lon="1.4498">
        <ele>135.618434</ele>
        <time>2023-07-30T13:12:17.000Z</time>
      </trkpt>
      <trkpt lat="43.65509" lon="1.44988">
        <ele>135.606134</ele>
        <time>2023-07-30T13:12:19.000Z</time>
      </trkpt>
      <trkpt lat="43.65512" lon="1.44991">
        <ele>135.600845</ele>
        <time>2023-07-30T13:12:20.000Z</time>
      </trkpt>
      <trkpt lat="43.65515" lon="1.44996">
        <ele>135.59426</ele>
        <time>2023-07-30T13:12:21.000Z</time>
      </trkpt>
      <trkpt lat="43.65519" lon="1.45001">
        <ele>135.586133</ele>
        <time>2023-07-30T13:12:22.000Z</time>
      </trkpt>
      <trkpt lat="43.65519" lon="1.45001">
        <ele>135.586133</ele>
        <time>2023-07-30T13:12:22.000Z</time>
      </trkpt>
      <trkpt lat="43.65524" lon="1.45007">
        <ele>135.577096</ele>
        <time>2023-07-30T13:12:23.000Z</time>
      </trkpt>
      <trkpt lat="43.65527" lon="1.45013">
        <ele>135.570139</ele>
        <time>2023-07-30T13:12:24.000Z</time>
      </trkpt>
      <trkpt lat="43.65529" lon="1.45018">
        <ele>135.563522</ele>
        <time>2023-07-30T13:12:25.000Z</time>
      </trkpt>
      <trkpt lat="43.65533" lon="1.45023">
        <ele>135.556428</ele>
        <time>2023-07-30T13:12:26.000Z</time>
      </trkpt>
      <trkpt lat="43.65533" lon="1.45023">
        <ele>135.556428</ele>
        <time>2023-07-30T13:12:26.000Z</time>
      </trkpt>
      <trkpt lat="43.65536" lon="1.45028">
        <ele>135.549484</ele>
        <time>2023-07-30T13:12:27.000Z</time>
      </trkpt>
      <trkpt lat="43.6554" lon="1.45033">
        <ele>135.541987</ele>
        <time>2023-07-30T13:12:28.000Z</time>
      </trkpt>
      <trkpt lat="43.6554" lon="1.45033">
        <ele>135.541987</ele>
        <time>2023-07-30T13:12:28.000Z</time>
      </trkpt>
      <trkpt lat="43.65544" lon="1.45038">
        <ele>135.53449</ele>
        <time>2023-07-30T13:12:29.000Z</time>
      </trkpt>
      <trkpt lat="43.65548" lon="1.45043">
        <ele>135.526294</ele>
        <time>2023-07-30T13:12:30.000Z</time>
      </trkpt>
      <trkpt lat="43.65548" lon="1.45043">
        <ele>135.526294</ele>
        <time>2023-07-30T13:12:30.000Z</time>
      </trkpt>
      <trkpt lat="43.65551" lon="1.45048">
        <ele>135.518951</ele>
        <time>2023-07-30T13:12:31.000Z</time>
      </trkpt>
      <trkpt lat="43.65556" lon="1.45054">
        <ele>135.510613</ele>
        <time>2023-07-30T13:12:32.000Z</time>
      </trkpt>
      <trkpt lat="43.65559" lon="1.45059">
        <ele>135.503443</ele>
        <time>2023-07-30T13:12:33.000Z</time>
      </trkpt>
      <trkpt lat="43.65562" lon="1.45064">
        <ele>135.496728</ele>
        <time>2023-07-30T13:12:34.000Z</time>
      </trkpt>
      <trkpt lat="43.65564" lon="1.45069">
        <ele>135.488683</ele>
        <time>2023-07-30T13:12:35.000Z</time>
      </trkpt>
      <trkpt lat="43.65566" lon="1.45072">
        <ele>135.483426</ele>
        <time>2023-07-30T13:12:36.000Z</time>
      </trkpt>
      <trkpt lat="43.65568" lon="1.45075">
        <ele>135.477423</ele>
        <time>2023-07-30T13:12:37.000Z</time>
      </trkpt>
      <trkpt lat="43.65573" lon="1.45078">
        <ele>135.468575</ele>
        <time>2023-07-30T13:12:38.000Z</time>
      </trkpt>
      <trkpt lat="43.65573" lon="1.45078">
        <ele>135.468575</ele>
        <time>2023-07-30T13:12:38.000Z</time>
      </trkpt>
      <trkpt lat="43.65576" lon="1.45082">
        <ele>135.459672</ele>
        <time>2023-07-30T13:12:39.000Z</time>
      </trkpt>
      <trkpt lat="43.6558" lon="1.45087">
        <ele>135.449729</ele>
        <time>2023-07-30T13:12:40.000Z</time>
      </trkpt>
      <trkpt lat="43.65584" lon="1.45092">
        <ele>135.440158</ele>
        <time>2023-07-30T13:12:41.000Z</time>
      </trkpt>
      <trkpt lat="43.65588" lon="1.45097">
        <ele>135.431291</ele>
        <time>2023-07-30T13:12:42.000Z</time>
      </trkpt>
      <trkpt lat="43.65591" lon="1.45102">
        <ele>135.421157</ele>
        <time>2023-07-30T13:12:42.000Z</time>
      </trkpt>
      <trkpt lat="43.65595" lon="1.45107">
        <ele>135.411676</ele>
        <time>2023-07-30T13:12:44.000Z</time>
      </trkpt>
      <trkpt lat="43.65598" lon="1.45112">
        <ele>135.404076</ele>
        <time>2023-07-30T13:12:45.000Z</time>
      </trkpt>
      <trkpt lat="43.65598" lon="1.45116">
        <ele>135.398746</ele>
        <time>2023-07-30T13:12:46.000Z</time>
      </trkpt>
      <trkpt lat="43.65597" lon="1.45121">
        <ele>135.3928</ele>
        <time>2023-07-30T13:12:47.000Z</time>
      </trkpt>
      <trkpt lat="43.65595" lon="1.45122">
        <ele>135.388584</ele>
        <time>2023-07-30T13:12:48.000Z</time>
      </trkpt>
      <trkpt lat="43.65595" lon="1.45122">
        <ele>135.388584</ele>
        <time>2023-07-30T13:12:48.000Z</time>
      </trkpt>
      <trkpt lat="43.65592" lon="1.45123">
        <ele>135.38301</ele>
        <time>2023-07-30T13:12:49.000Z</time>
      </trkpt>
      <trkpt lat="43.65588" lon="1.45125">
        <ele>135.375723</ele>
        <time>2023-07-30T13:12:50.000Z</time>
      </trkpt>
      <trkpt lat="43.65584" lon="1.45127">
        <ele>135.366843</ele>
        <time>2023-07-30T13:12:52.000Z</time>
      </trkpt>
      <trkpt lat="43.65584" lon="1.45127">
        <ele>135.366843</ele>
        <time>2023-07-30T13:12:52.000Z</time>
      </trkpt>
      <trkpt lat="43.65579" lon="1.4513">
        <ele>135.356617</ele>
        <time>2023-07-30T13:12:53.000Z</time>
      </trkpt>
      <trkpt lat="43.65575" lon="1.45134">
        <ele>135.348499</ele>
        <time>2023-07-30T13:12:54.000Z</time>
      </trkpt>
      <trkpt lat="43.65571" lon="1.45137">
        <ele>135.340168</ele>
        <time>2023-07-30T13:12:55.000Z</time>
      </trkpt>
      <trkpt lat="43.65566" lon="1.45141">
        <ele>135.330044</ele>
        <time>2023-07-30T13:12:56.000Z</time>
      </trkpt>
      <trkpt lat="43.65561" lon="1.45145">
        <ele>135.318867</ele>
        <time>2023-07-30T13:12:57.000Z</time>
      </trkpt>
      <trkpt lat="43.65556" lon="1.45148">
        <ele>135.307974</ele>
        <time>2023-07-30T13:12:58.000Z</time>
      </trkpt>
      <trkpt lat="43.65551" lon="1.45152">
        <ele>135.298816</ele>
        <time>2023-07-30T13:12:59.000Z</time>
      </trkpt>
      <trkpt lat="43.65547" lon="1.45156">
        <ele>135.289299</ele>
        <time>2023-07-30T13:13:00.000Z</time>
      </trkpt>
      <trkpt lat="43.65542" lon="1.45159">
        <ele>135.279247</ele>
        <time>2023-07-30T13:13:01.000Z</time>
      </trkpt>
      <trkpt lat="43.65537" lon="1.45161">
        <ele>135.270349</ele>
        <time>2023-07-30T13:13:02.000Z</time>
      </trkpt>
      <trkpt lat="43.65537" lon="1.45161">
        <ele>135.270349</ele>
        <time>2023-07-30T13:13:02.000Z</time>
      </trkpt>
      <trkpt lat="43.65533" lon="1.45164">
        <ele>135.261723</ele>
        <time>2023-07-30T13:13:03.000Z</time>
      </trkpt>
      <trkpt lat="43.65529" lon="1.45167">
        <ele>135.253739</ele>
        <time>2023-07-30T13:13:04.000Z</time>
      </trkpt>
      <trkpt lat="43.65525" lon="1.45171">
        <ele>135.244095</ele>
        <time>2023-07-30T13:13:05.000Z</time>
      </trkpt>
      <trkpt lat="43.65519" lon="1.45175">
        <ele>135.232918</ele>
        <time>2023-07-30T13:13:06.000Z</time>
      </trkpt>
      <trkpt lat="43.65515" lon="1.45178">
        <ele>135.223562</ele>
        <time>2023-07-30T13:13:07.000Z</time>
      </trkpt>
      <trkpt lat="43.6551" lon="1.45181">
        <ele>135.213617</ele>
        <time>2023-07-30T13:13:08.000Z</time>
      </trkpt>
      <trkpt lat="43.65505" lon="1.45184">
        <ele>135.204338</ele>
        <time>2023-07-30T13:13:09.000Z</time>
      </trkpt>
      <trkpt lat="43.655" lon="1.45188">
        <ele>135.194393</ele>
        <time>2023-07-30T13:13:10.000Z</time>
      </trkpt>
      <trkpt lat="43.65496" lon="1.45191">
        <ele>135.185169</ele>
        <time>2023-07-30T13:13:11.000Z</time>
      </trkpt>
      <trkpt lat="43.65491" lon="1.45194">
        <ele>135.175172</ele>
        <time>2023-07-30T13:13:12.000Z</time>
      </trkpt>
      <trkpt lat="43.65487" lon="1.45196">
        <ele>135.176322</ele>
        <time>2023-07-30T13:13:13.000Z</time>
      </trkpt>
      <trkpt lat="43.65482" lon="1.452">
        <ele>135.197384</ele>
        <time>2023-07-30T13:13:14.000Z</time>
      </trkpt>
      <trkpt lat="43.65478" lon="1.45203">
        <ele>135.215739</ele>
        <time>2023-07-30T13:13:15.000Z</time>
      </trkpt>
      <trkpt lat="43.65474" lon="1.45207">
        <ele>135.234426</ele>
        <time>2023-07-30T13:13:16.000Z</time>
      </trkpt>
      <trkpt lat="43.65474" lon="1.45207">
        <ele>135.234426</ele>
        <time>2023-07-30T13:13:16.000Z</time>
      </trkpt>
      <trkpt lat="43.65469" lon="1.45211">
        <ele>135.257099</ele>
        <time>2023-07-30T13:13:17.000Z</time>
      </trkpt>
      <trkpt lat="43.65465" lon="1.45214">
        <ele>135.277617</ele>
        <time>2023-07-30T13:13:18.000Z</time>
      </trkpt>
      <trkpt lat="43.6546" lon="1.45218">
        <ele>135.298007</ele>
        <time>2023-07-30T13:13:19.000Z</time>
      </trkpt>
      <trkpt lat="43.65454" lon="1.45222">
        <ele>135.325159</ele>
        <time>2023-07-30T13:13:20.000Z</time>
      </trkpt>
      <trkpt lat="43.65451" lon="1.45224">
        <ele>135.34037</ele>
        <time>2023-07-30T13:13:22.000Z</time>
      </trkpt>
      <trkpt lat="43.65446" lon="1.45227">
        <ele>135.360514</ele>
        <time>2023-07-30T13:13:22.000Z</time>
      </trkpt>
      <trkpt lat="43.65436" lon="1.45232">
        <ele>135.40222</ele>
        <time>2023-07-30T13:13:24.000Z</time>
      </trkpt>
      <trkpt lat="43.65432" lon="1.45234">
        <ele>135.418988</ele>
        <time>2023-07-30T13:13:25.000Z</time>
      </trkpt>
      <trkpt lat="43.65432" lon="1.45234">
        <ele>135.418988</ele>
        <time>2023-07-30T13:13:25.000Z</time>
      </trkpt>
      <trkpt lat="43.65422" lon="1.45238">
        <ele>135.461247</ele>
        <time>2023-07-30T13:13:27.000Z</time>
      </trkpt>
      <trkpt lat="43.65422" lon="1.45238">
        <ele>135.461247</ele>
        <time>2023-07-30T13:13:27.000Z</time>
      </trkpt>
      <trkpt lat="43.65412" lon="1.45243">
        <ele>135.505241</ele>
        <time>2023-07-30T13:13:29.000Z</time>
      </trkpt>
      <trkpt lat="43.65407" lon="1.45247">
        <ele>135.527837</ele>
        <time>2023-07-30T13:13:30.000Z</time>
      </trkpt>
      <trkpt lat="43.65397" lon="1.45257">
        <ele>135.577381</ele>
        <time>2023-07-30T13:13:32.000Z</time>
      </trkpt>
      <trkpt lat="43.65392" lon="1.45263">
        <ele>135.602581</ele>
        <time>2023-07-30T13:13:33.000Z</time>
      </trkpt>
      <trkpt lat="43.65383" lon="1.45276">
        <ele>135.654184</ele>
        <time>2023-07-30T13:13:35.000Z</time>
      </trkpt>
      <trkpt lat="43.65375" lon="1.45287">
        <ele>135.699552</ele>
        <time>2023-07-30T13:13:37.000Z</time>
      </trkpt>
      <trkpt lat="43.65374" lon="1.45291">
        <ele>135.712796</ele>
        <time>2023-07-30T13:13:38.000Z</time>
      </trkpt>
      <trkpt lat="43.65374" lon="1.45291">
        <ele>135.712796</ele>
        <time>2023-07-30T13:13:38.000Z</time>
      </trkpt>
      <trkpt lat="43.65374" lon="1.45294">
        <ele>135.722021</ele>
        <time>2023-07-30T13:13:39.000Z</time>
      </trkpt>
      <trkpt lat="43.65375" lon="1.45298">
        <ele>135.732926</ele>
        <time>2023-07-30T13:13:40.000Z</time>
      </trkpt>
      <trkpt lat="43.65375" lon="1.45298">
        <ele>135.732926</ele>
        <time>2023-07-30T13:13:40.000Z</time>
      </trkpt>
      <trkpt lat="43.65377" lon="1.45301">
        <ele>135.74651</ele>
        <time>2023-07-30T13:13:41.000Z</time>
      </trkpt>
      <trkpt lat="43.65379" lon="1.45305">
        <ele>135.759719</ele>
        <time>2023-07-30T13:13:42.000Z</time>
      </trkpt>
      <trkpt lat="43.65383" lon="1.4531">
        <ele>135.78127</ele>
        <time>2023-07-30T13:13:44.000Z</time>
      </trkpt>
      <trkpt lat="43.65392" lon="1.45322">
        <ele>135.828836</ele>
        <time>2023-07-30T13:13:45.000Z</time>
      </trkpt>
      <trkpt lat="43.65394" lon="1.45325">
        <ele>135.842045</ele>
        <time>2023-07-30T13:13:46.000Z</time>
      </trkpt>
      <trkpt lat="43.65397" lon="1.45329">
        <ele>135.857398</ele>
        <time>2023-07-30T13:13:47.000Z</time>
      </trkpt>
      <trkpt lat="43.65397" lon="1.45329">
        <ele>135.857398</ele>
        <time>2023-07-30T13:13:47.000Z</time>
      </trkpt>
      <trkpt lat="43.65401" lon="1.45335">
        <ele>135.882092</ele>
        <time>2023-07-30T13:13:48.000Z</time>
      </trkpt>
      <trkpt lat="43.65401" lon="1.45335">
        <ele>135.882092</ele>
        <time>2023-07-30T13:13:48.000Z</time>
      </trkpt>
      <trkpt lat="43.65404" lon="1.45341">
        <ele>135.873534</ele>
        <time>2023-07-30T13:13:49.000Z</time>
      </trkpt>
      <trkpt lat="43.65411" lon="1.4535">
        <ele>135.843472</ele>
        <time>2023-07-30T13:13:51.000Z</time>
      </trkpt>
      <trkpt lat="43.65411" lon="1.4535">
        <ele>135.843472</ele>
        <time>2023-07-30T13:13:51.000Z</time>
      </trkpt>
      <trkpt lat="43.65414" lon="1.45352">
        <ele>135.831825</ele>
        <time>2023-07-30T13:13:52.000Z</time>
      </trkpt>
      <trkpt lat="43.65417" lon="1.45352">
        <ele>135.82435</ele>
        <time>2023-07-30T13:13:54.000Z</time>
      </trkpt>
      <trkpt lat="43.65417" lon="1.45352">
        <ele>135.82435</ele>
        <time>2023-07-30T13:13:54.000Z</time>
      </trkpt>
      <trkpt lat="43.65425" lon="1.45352">
        <ele>135.797825</ele>
        <time>2023-07-30T13:13:55.000Z</time>
      </trkpt>
      <trkpt lat="43.65431" lon="1.45352">
        <ele>135.779846</ele>
        <time>2023-07-30T13:13:57.000Z</time>
      </trkpt>
      <trkpt lat="43.65433" lon="1.45354">
        <ele>135.770762</ele>
        <time>2023-07-30T13:13:58.000Z</time>
      </trkpt>
      <trkpt lat="43.65436" lon="1.45357">
        <ele>135.760644</ele>
        <time>2023-07-30T13:14:00.000Z</time>
      </trkpt>
      <trkpt lat="43.65436" lon="1.45357">
        <ele>135.760644</ele>
        <time>2023-07-30T13:14:00.000Z</time>
      </trkpt>
      <trkpt lat="43.65439" lon="1.45359">
        <ele>135.749718</ele>
        <time>2023-07-30T13:14:01.000Z</time>
      </trkpt>
      <trkpt lat="43.65442" lon="1.45362">
        <ele>135.739214</ele>
        <time>2023-07-30T13:14:02.000Z</time>
      </trkpt>
      <trkpt lat="43.65445" lon="1.45364">
        <ele>135.726552</ele>
        <time>2023-07-30T13:14:03.000Z</time>
      </trkpt>
      <trkpt lat="43.65449" lon="1.45366">
        <ele>135.713815</ele>
        <time>2023-07-30T13:14:04.000Z</time>
      </trkpt>
      <trkpt lat="43.65458" lon="1.4537">
        <ele>135.684544</ele>
        <time>2023-07-30T13:14:06.000Z</time>
      </trkpt>
      <trkpt lat="43.65458" lon="1.4537">
        <ele>135.684544</ele>
        <time>2023-07-30T13:14:06.000Z</time>
      </trkpt>
      <trkpt lat="43.65462" lon="1.45372">
        <ele>135.670684</ele>
        <time>2023-07-30T13:14:07.000Z</time>
      </trkpt>
      <trkpt lat="43.65467" lon="1.45374">
        <ele>135.654213</ele>
        <time>2023-07-30T13:14:08.000Z</time>
      </trkpt>
      <trkpt lat="43.65467" lon="1.45374">
        <ele>135.654213</ele>
        <time>2023-07-30T13:14:08.000Z</time>
      </trkpt>
      <trkpt lat="43.65473" lon="1.45376">
        <ele>135.635496</ele>
        <time>2023-07-30T13:14:09.000Z</time>
      </trkpt>
      <trkpt lat="43.65479" lon="1.45378">
        <ele>135.615625</ele>
        <time>2023-07-30T13:14:10.000Z</time>
      </trkpt>
      <trkpt lat="43.65484" lon="1.4538">
        <ele>135.600557</ele>
        <time>2023-07-30T13:14:11.000Z</time>
      </trkpt>
      <trkpt lat="43.65484" lon="1.4538">
        <ele>135.600557</ele>
        <time>2023-07-30T13:14:11.000Z</time>
      </trkpt>
      <trkpt lat="43.65489" lon="1.45382">
        <ele>135.583354</ele>
        <time>2023-07-30T13:14:12.000Z</time>
      </trkpt>
      <trkpt lat="43.65494" lon="1.45383">
        <ele>135.567124</ele>
        <time>2023-07-30T13:14:13.000Z</time>
      </trkpt>
      <trkpt lat="43.65498" lon="1.45385">
        <ele>135.55242</ele>
        <time>2023-07-30T13:14:14.000Z</time>
      </trkpt>
      <trkpt lat="43.65498" lon="1.45385">
        <ele>135.55242</ele>
        <time>2023-07-30T13:14:14.000Z</time>
      </trkpt>
      <trkpt lat="43.65504" lon="1.45387">
        <ele>135.534799</ele>
        <time>2023-07-30T13:14:15.000Z</time>
      </trkpt>
      <trkpt lat="43.65509" lon="1.45389">
        <ele>135.518622</ele>
        <time>2023-07-30T13:14:16.000Z</time>
      </trkpt>
      <trkpt lat="43.65514" lon="1.45391">
        <ele>135.501364</ele>
        <time>2023-07-30T13:14:17.000Z</time>
      </trkpt>
      <trkpt lat="43.65514" lon="1.45391">
        <ele>135.501364</ele>
        <time>2023-07-30T13:14:17.000Z</time>
      </trkpt>
      <trkpt lat="43.65519" lon="1.45392">
        <ele>135.485134</ele>
        <time>2023-07-30T13:14:18.000Z</time>
      </trkpt>
      <trkpt lat="43.65524" lon="1.45394">
        <ele>135.469153</ele>
        <time>2023-07-30T13:14:19.000Z</time>
      </trkpt>
      <trkpt lat="43.65524" lon="1.45394">
        <ele>135.469153</ele>
        <time>2023-07-30T13:14:19.000Z</time>
      </trkpt>
      <trkpt lat="43.65529" lon="1.45396">
        <ele>135.454145</ele>
        <time>2023-07-30T13:14:20.000Z</time>
      </trkpt>
      <trkpt lat="43.65529" lon="1.45396">
        <ele>135.454145</ele>
        <time>2023-07-30T13:14:20.000Z</time>
      </trkpt>
      <trkpt lat="43.65534" lon="1.45398">
        <ele>135.436887</ele>
        <time>2023-07-30T13:14:21.000Z</time>
      </trkpt>
      <trkpt lat="43.65539" lon="1.45399">
        <ele>135.420657</ele>
        <time>2023-07-30T13:14:22.000Z</time>
      </trkpt>
      <trkpt lat="43.65544" lon="1.45401">
        <ele>135.40334</ele>
        <time>2023-07-30T13:14:23.000Z</time>
      </trkpt>
      <trkpt lat="43.65549" lon="1.45403">
        <ele>135.388389</ele>
        <time>2023-07-30T13:14:24.000Z</time>
      </trkpt>
      <trkpt lat="43.65554" lon="1.45405">
        <ele>135.36996</ele>
        <time>2023-07-30T13:14:25.000Z</time>
      </trkpt>
      <trkpt lat="43.65559" lon="1.45406">
        <ele>135.355062</ele>
        <time>2023-07-30T13:14:26.000Z</time>
      </trkpt>
      <trkpt lat="43.65564" lon="1.45408">
        <ele>135.33786</ele>
        <time>2023-07-30T13:14:27.000Z</time>
      </trkpt>
      <trkpt lat="43.65569" lon="1.4541">
        <ele>135.321683</ele>
        <time>2023-07-30T13:14:28.000Z</time>
      </trkpt>
      <trkpt lat="43.65575" lon="1.45412">
        <ele>135.356189</ele>
        <time>2023-07-30T13:14:28.000Z</time>
      </trkpt>
      <trkpt lat="43.65579" lon="1.45413">
        <ele>135.392717</ele>
        <time>2023-07-30T13:14:30.000Z</time>
      </trkpt>
      <trkpt lat="43.65584" lon="1.45415">
        <ele>135.429393</ele>
        <time>2023-07-30T13:14:31.000Z</time>
      </trkpt>
      <trkpt lat="43.65589" lon="1.45417">
        <ele>135.471539</ele>
        <time>2023-07-30T13:14:32.000Z</time>
      </trkpt>
      <trkpt lat="43.65594" lon="1.45419">
        <ele>135.507797</ele>
        <time>2023-07-30T13:14:33.000Z</time>
      </trkpt>
      <trkpt lat="43.65599" lon="1.4542">
        <ele>135.547433</ele>
        <time>2023-07-30T13:14:34.000Z</time>
      </trkpt>
      <trkpt lat="43.65604" lon="1.45422">
        <ele>135.586058</ele>
        <time>2023-07-30T13:14:35.000Z</time>
      </trkpt>
      <trkpt lat="43.65609" lon="1.45424">
        <ele>135.625695</ele>
        <time>2023-07-30T13:14:36.000Z</time>
      </trkpt>
      <trkpt lat="43.65614" lon="1.45426">
        <ele>135.665626</ele>
        <time>2023-07-30T13:14:37.000Z</time>
      </trkpt>
      <trkpt lat="43.65619" lon="1.45428">
        <ele>135.708241</ele>
        <time>2023-07-30T13:14:38.000Z</time>
      </trkpt>
      <trkpt lat="43.65619" lon="1.45428">
        <ele>135.708241</ele>
        <time>2023-07-30T13:14:38.000Z</time>
      </trkpt>
      <trkpt lat="43.65624" lon="1.45431">
        <ele>135.749031</ele>
        <time>2023-07-30T13:14:39.000Z</time>
      </trkpt>
      <trkpt lat="43.65624" lon="1.45431">
        <ele>135.749031</ele>
        <time>2023-07-30T13:14:39.000Z</time>
      </trkpt>
      <trkpt lat="43.65629" lon="1.45433">
        <ele>135.791992</ele>
        <time>2023-07-30T13:14:40.000Z</time>
      </trkpt>
      <trkpt lat="43.65629" lon="1.45433">
        <ele>135.791992</ele>
        <time>2023-07-30T13:14:40.000Z</time>
      </trkpt>
      <trkpt lat="43.65634" lon="1.45435">
        <ele>135.832417</ele>
        <time>2023-07-30T13:14:41.000Z</time>
      </trkpt>
      <trkpt lat="43.65634" lon="1.45435">
        <ele>135.832417</ele>
        <time>2023-07-30T13:14:41.000Z</time>
      </trkpt>
      <trkpt lat="43.65639" lon="1.45438">
        <ele>135.869034</ele>
        <time>2023-07-30T13:14:42.000Z</time>
      </trkpt>
      <trkpt lat="43.65643" lon="1.4544">
        <ele>135.905865</ele>
        <time>2023-07-30T13:14:43.000Z</time>
      </trkpt>
      <trkpt lat="43.65649" lon="1.45442">
        <ele>135.951265</ele>
        <time>2023-07-30T13:14:44.000Z</time>
      </trkpt>
      <trkpt lat="43.65649" lon="1.45442">
        <ele>135.951265</ele>
        <time>2023-07-30T13:14:44.000Z</time>
      </trkpt>
      <trkpt lat="43.65654" lon="1.45443">
        <ele>135.987793</ele>
        <time>2023-07-30T13:14:45.000Z</time>
      </trkpt>
      <trkpt lat="43.65659" lon="1.45446">
        <ele>136.030827</ele>
        <time>2023-07-30T13:14:46.000Z</time>
      </trkpt>
      <trkpt lat="43.65664" lon="1.45448">
        <ele>136.073123</ele>
        <time>2023-07-30T13:14:47.000Z</time>
      </trkpt>
      <trkpt lat="43.65669" lon="1.4545">
        <ele>136.110116</ele>
        <time>2023-07-30T13:14:48.000Z</time>
      </trkpt>
      <trkpt lat="43.65674" lon="1.45452">
        <ele>136.152569</ele>
        <time>2023-07-30T13:14:49.000Z</time>
      </trkpt>
      <trkpt lat="43.65679" lon="1.45454">
        <ele>136.1925</ele>
        <time>2023-07-30T13:14:50.000Z</time>
      </trkpt>
      <trkpt lat="43.65684" lon="1.45456">
        <ele>136.232023</ele>
        <time>2023-07-30T13:14:51.000Z</time>
      </trkpt>
      <trkpt lat="43.65689" lon="1.45458">
        <ele>136.272112</ele>
        <time>2023-07-30T13:14:52.000Z</time>
      </trkpt>
      <trkpt lat="43.65689" lon="1.45458">
        <ele>136.272112</ele>
        <time>2023-07-30T13:14:52.000Z</time>
      </trkpt>
      <trkpt lat="43.65694" lon="1.4546">
        <ele>136.311467</ele>
        <time>2023-07-30T13:14:53.000Z</time>
      </trkpt>
      <trkpt lat="43.65699" lon="1.45463">
        <ele>136.354815</ele>
        <time>2023-07-30T13:14:54.000Z</time>
      </trkpt>
      <trkpt lat="43.65704" lon="1.45464">
        <ele>136.391645</ele>
        <time>2023-07-30T13:14:55.000Z</time>
      </trkpt>
      <trkpt lat="43.65709" lon="1.45467">
        <ele>136.434098</ele>
        <time>2023-07-30T13:14:56.000Z</time>
      </trkpt>
      <trkpt lat="43.65709" lon="1.45467">
        <ele>136.434098</ele>
        <time>2023-07-30T13:14:56.000Z</time>
      </trkpt>
      <trkpt lat="43.65714" lon="1.45469">
        <ele>136.474029</ele>
        <time>2023-07-30T13:14:57.000Z</time>
      </trkpt>
      <trkpt lat="43.65719" lon="1.45471">
        <ele>136.513384</ele>
        <time>2023-07-30T13:14:58.000Z</time>
      </trkpt>
      <trkpt lat="43.65724" lon="1.45473">
        <ele>136.55006</ele>
        <time>2023-07-30T13:14:59.000Z</time>
      </trkpt>
      <trkpt lat="43.65729" lon="1.45474">
        <ele>136.58956</ele>
        <time>2023-07-30T13:15:00.000Z</time>
      </trkpt>
      <trkpt lat="43.65729" lon="1.45474">
        <ele>136.58956</ele>
        <time>2023-07-30T13:15:00.000Z</time>
      </trkpt>
      <trkpt lat="43.65733" lon="1.45475">
        <ele>136.621856</ele>
        <time>2023-07-30T13:15:01.000Z</time>
      </trkpt>
      <trkpt lat="43.65738" lon="1.45475">
        <ele>136.65945</ele>
        <time>2023-07-30T13:15:02.000Z</time>
      </trkpt>
      <trkpt lat="43.65738" lon="1.45475">
        <ele>136.65945</ele>
        <time>2023-07-30T13:15:02.000Z</time>
      </trkpt>
      <trkpt lat="43.65743" lon="1.45475">
        <ele>136.697823</ele>
        <time>2023-07-30T13:15:03.000Z</time>
      </trkpt>
      <trkpt lat="43.65748" lon="1.45476">
        <ele>136.703755</ele>
        <time>2023-07-30T13:15:04.000Z</time>
      </trkpt>
      <trkpt lat="43.65748" lon="1.45476">
        <ele>136.703755</ele>
        <time>2023-07-30T13:15:04.000Z</time>
      </trkpt>
      <trkpt lat="43.65753" lon="1.45477">
        <ele>136.709154</ele>
        <time>2023-07-30T13:15:05.000Z</time>
      </trkpt>
      <trkpt lat="43.65758" lon="1.45479">
        <ele>136.714232</ele>
        <time>2023-07-30T13:15:06.000Z</time>
      </trkpt>
      <trkpt lat="43.65758" lon="1.45479">
        <ele>136.714232</ele>
        <time>2023-07-30T13:15:06.000Z</time>
      </trkpt>
      <trkpt lat="43.65763" lon="1.4548">
        <ele>136.719617</ele>
        <time>2023-07-30T13:15:07.000Z</time>
      </trkpt>
      <trkpt lat="43.65763" lon="1.4548">
        <ele>136.719617</ele>
        <time>2023-07-30T13:15:07.000Z</time>
      </trkpt>
      <trkpt lat="43.65768" lon="1.45481">
        <ele>136.724276</ele>
        <time>2023-07-30T13:15:08.000Z</time>
      </trkpt>
      <trkpt lat="43.65773" lon="1.45483">
        <ele>136.729243</ele>
        <time>2023-07-30T13:15:09.000Z</time>
      </trkpt>
      <trkpt lat="43.65778" lon="1.45484">
        <ele>136.734294</ele>
        <time>2023-07-30T13:15:10.000Z</time>
      </trkpt>
      <trkpt lat="43.65778" lon="1.45484">
        <ele>136.734294</ele>
        <time>2023-07-30T13:15:10.000Z</time>
      </trkpt>
      <trkpt lat="43.65783" lon="1.45485">
        <ele>136.739274</ele>
        <time>2023-07-30T13:15:11.000Z</time>
      </trkpt>
      <trkpt lat="43.65787" lon="1.45487">
        <ele>136.743979</ele>
        <time>2023-07-30T13:15:12.000Z</time>
      </trkpt>
      <trkpt lat="43.65792" lon="1.45489">
        <ele>136.74918</ele>
        <time>2023-07-30T13:15:13.000Z</time>
      </trkpt>
      <trkpt lat="43.65797" lon="1.45491">
        <ele>136.754025</ele>
        <time>2023-07-30T13:15:14.000Z</time>
      </trkpt>
      <trkpt lat="43.65797" lon="1.45491">
        <ele>136.754025</ele>
        <time>2023-07-30T13:15:14.000Z</time>
      </trkpt>
      <trkpt lat="43.65802" lon="1.45493">
        <ele>136.759441</ele>
        <time>2023-07-30T13:15:15.000Z</time>
      </trkpt>
      <trkpt lat="43.65807" lon="1.45493">
        <ele>136.764022</ele>
        <time>2023-07-30T13:15:16.000Z</time>
      </trkpt>
      <trkpt lat="43.65812" lon="1.45492">
        <ele>136.769337</ele>
        <time>2023-07-30T13:15:17.000Z</time>
      </trkpt>
      <trkpt lat="43.65812" lon="1.45492">
        <ele>136.769337</ele>
        <time>2023-07-30T13:15:17.000Z</time>
      </trkpt>
      <trkpt lat="43.65817" lon="1.45491">
        <ele>136.774388</ele>
        <time>2023-07-30T13:15:18.000Z</time>
      </trkpt>
      <trkpt lat="43.65823" lon="1.45489">
        <ele>136.780192</ele>
        <time>2023-07-30T13:15:19.000Z</time>
      </trkpt>
      <trkpt lat="43.65828" lon="1.45487">
        <ele>136.785317</ele>
        <time>2023-07-30T13:15:20.000Z</time>
      </trkpt>
      <trkpt lat="43.65833" lon="1.45486">
        <ele>136.790717</ele>
        <time>2023-07-30T13:15:21.000Z</time>
      </trkpt>
      <trkpt lat="43.65833" lon="1.45486">
        <ele>136.790717</ele>
        <time>2023-07-30T13:15:21.000Z</time>
      </trkpt>
      <trkpt lat="43.65839" lon="1.45484">
        <ele>136.796925</ele>
        <time>2023-07-30T13:15:22.000Z</time>
      </trkpt>
      <trkpt lat="43.65844" lon="1.45482">
        <ele>136.802341</ele>
        <time>2023-07-30T13:15:23.000Z</time>
      </trkpt>
      <trkpt lat="43.6585" lon="1.4548">
        <ele>136.80855</ele>
        <time>2023-07-30T13:15:24.000Z</time>
      </trkpt>
      <trkpt lat="43.65857" lon="1.45478">
        <ele>136.815148</ele>
        <time>2023-07-30T13:15:25.000Z</time>
      </trkpt>
      <trkpt lat="43.65857" lon="1.45478">
        <ele>136.815148</ele>
        <time>2023-07-30T13:15:25.000Z</time>
      </trkpt>
      <trkpt lat="43.65862" lon="1.45477">
        <ele>136.82063</ele>
        <time>2023-07-30T13:15:26.000Z</time>
      </trkpt>
      <trkpt lat="43.65868" lon="1.45476">
        <ele>136.825976</ele>
        <time>2023-07-30T13:15:27.000Z</time>
      </trkpt>
      <trkpt lat="43.65873" lon="1.45475">
        <ele>136.831672</ele>
        <time>2023-07-30T13:15:28.000Z</time>
      </trkpt>
      <trkpt lat="43.65879" lon="1.45474">
        <ele>136.837064</ele>
        <time>2023-07-30T13:15:29.000Z</time>
      </trkpt>
      <trkpt lat="43.65884" lon="1.45474">
        <ele>136.842347</ele>
        <time>2023-07-30T13:15:30.000Z</time>
      </trkpt>
      <trkpt lat="43.65884" lon="1.45474">
        <ele>136.842347</ele>
        <time>2023-07-30T13:15:30.000Z</time>
      </trkpt>
      <trkpt lat="43.6589" lon="1.45474">
        <ele>136.84843</ele>
        <time>2023-07-30T13:15:31.000Z</time>
      </trkpt>
      <trkpt lat="43.6589" lon="1.45474">
        <ele>136.84843</ele>
        <time>2023-07-30T13:15:31.000Z</time>
      </trkpt>
      <trkpt lat="43.65895" lon="1.45473">
        <ele>136.853411</ele>
        <time>2023-07-30T13:15:32.000Z</time>
      </trkpt>
      <trkpt lat="43.659" lon="1.45473">
        <ele>136.858699</ele>
        <time>2023-07-30T13:15:33.000Z</time>
      </trkpt>
      <trkpt lat="43.659" lon="1.45473">
        <ele>136.858699</ele>
        <time>2023-07-30T13:15:33.000Z</time>
      </trkpt>
      <trkpt lat="43.65906" lon="1.45472">
        <ele>136.864082</ele>
        <time>2023-07-30T13:15:34.000Z</time>
      </trkpt>
      <trkpt lat="43.65911" lon="1.45472">
        <ele>136.868972</ele>
        <time>2023-07-30T13:15:35.000Z</time>
      </trkpt>
      <trkpt lat="43.65916" lon="1.45471">
        <ele>136.873974</ele>
        <time>2023-07-30T13:15:36.000Z</time>
      </trkpt>
      <trkpt lat="43.65919" lon="1.45472">
        <ele>136.876982</ele>
        <time>2023-07-30T13:15:37.000Z</time>
      </trkpt>
      <trkpt lat="43.65919" lon="1.45472">
        <ele>136.876982</ele>
        <time>2023-07-30T13:15:37.000Z</time>
      </trkpt>
      <trkpt lat="43.65921" lon="1.45474">
        <ele>136.859709</ele>
        <time>2023-07-30T13:15:38.000Z</time>
      </trkpt>
      <trkpt lat="43.65923" lon="1.45477">
        <ele>136.828029</ele>
        <time>2023-07-30T13:15:39.000Z</time>
      </trkpt>
      <trkpt lat="43.65924" lon="1.45483">
        <ele>136.784951</ele>
        <time>2023-07-30T13:15:40.000Z</time>
      </trkpt>
      <trkpt lat="43.65927" lon="1.45489">
        <ele>136.727643</ele>
        <time>2023-07-30T13:15:41.000Z</time>
      </trkpt>
      <trkpt lat="43.65927" lon="1.45489">
        <ele>136.727643</ele>
        <time>2023-07-30T13:15:41.000Z</time>
      </trkpt>
      <trkpt lat="43.6593" lon="1.45495">
        <ele>136.67063</ele>
        <time>2023-07-30T13:15:42.000Z</time>
      </trkpt>
      <trkpt lat="43.65934" lon="1.45501">
        <ele>136.606964</ele>
        <time>2023-07-30T13:15:43.000Z</time>
      </trkpt>
      <trkpt lat="43.65934" lon="1.45501">
        <ele>136.606964</ele>
        <time>2023-07-30T13:15:43.000Z</time>
      </trkpt>
      <trkpt lat="43.65939" lon="1.45507">
        <ele>136.536942</ele>
        <time>2023-07-30T13:15:44.000Z</time>
      </trkpt>
      <trkpt lat="43.65939" lon="1.45507">
        <ele>136.536942</ele>
        <time>2023-07-30T13:15:44.000Z</time>
      </trkpt>
      <trkpt lat="43.65945" lon="1.45513">
        <ele>136.467132</ele>
        <time>2023-07-30T13:15:45.000Z</time>
      </trkpt>
      <trkpt lat="43.65951" lon="1.45516">
        <ele>136.398359</ele>
        <time>2023-07-30T13:15:47.000Z</time>
      </trkpt>
      <trkpt lat="43.65951" lon="1.45516">
        <ele>136.398359</ele>
        <time>2023-07-30T13:15:47.000Z</time>
      </trkpt>
      <trkpt lat="43.65957" lon="1.45516">
        <ele>136.329806</ele>
        <time>2023-07-30T13:15:47.000Z</time>
      </trkpt>
      <trkpt lat="43.65963" lon="1.45514">
        <ele>136.268341</ele>
        <time>2023-07-30T13:15:48.000Z</time>
      </trkpt>
      <trkpt lat="43.65969" lon="1.45511">
        <ele>136.202597</ele>
        <time>2023-07-30T13:15:49.000Z</time>
      </trkpt>
      <trkpt lat="43.65973" lon="1.45505">
        <ele>136.141087</ele>
        <time>2023-07-30T13:15:50.000Z</time>
      </trkpt>
      <trkpt lat="43.65976" lon="1.45498">
        <ele>136.076792</ele>
        <time>2023-07-30T13:15:51.000Z</time>
      </trkpt>
      <trkpt lat="43.65978" lon="1.45491">
        <ele>136.019064</ele>
        <time>2023-07-30T13:15:52.000Z</time>
      </trkpt>
      <trkpt lat="43.65978" lon="1.45491">
        <ele>136.019064</ele>
        <time>2023-07-30T13:15:52.000Z</time>
      </trkpt>
      <trkpt lat="43.6598" lon="1.45485">
        <ele>135.969584</ele>
        <time>2023-07-30T13:15:53.000Z</time>
      </trkpt>
      <trkpt lat="43.65982" lon="1.45481">
        <ele>135.933729</ele>
        <time>2023-07-30T13:15:54.000Z</time>
      </trkpt>
      <trkpt lat="43.65982" lon="1.45481">
        <ele>135.933729</ele>
        <time>2023-07-30T13:15:54.000Z</time>
      </trkpt>
      <trkpt lat="43.65985" lon="1.45479">
        <ele>135.896805</ele>
        <time>2023-07-30T13:15:55.000Z</time>
      </trkpt>
      <trkpt lat="43.65991" lon="1.45478">
        <ele>135.835498</ele>
        <time>2023-07-30T13:15:56.000Z</time>
      </trkpt>
      <trkpt lat="43.65996" lon="1.4548">
        <ele>135.773867</ele>
        <time>2023-07-30T13:15:57.000Z</time>
      </trkpt>
      <trkpt lat="43.66003" lon="1.45483">
        <ele>135.700877</ele>
        <time>2023-07-30T13:15:58.000Z</time>
      </trkpt>
      <trkpt lat="43.66003" lon="1.45483">
        <ele>135.700877</ele>
        <time>2023-07-30T13:15:58.000Z</time>
      </trkpt>
      <trkpt lat="43.66009" lon="1.45488">
        <ele>135.624487</ele>
        <time>2023-07-30T13:15:59.000Z</time>
      </trkpt>
      <trkpt lat="43.66009" lon="1.45488">
        <ele>135.624487</ele>
        <time>2023-07-30T13:15:59.000Z</time>
      </trkpt>
      <trkpt lat="43.66016" lon="1.45493">
        <ele>135.54494</ele>
        <time>2023-07-30T13:16:00.000Z</time>
      </trkpt>
      <trkpt lat="43.66016" lon="1.45493">
        <ele>135.54494</ele>
        <time>2023-07-30T13:16:00.000Z</time>
      </trkpt>
      <trkpt lat="43.66022" lon="1.45499">
        <ele>135.466024</ele>
        <time>2023-07-30T13:16:01.000Z</time>
      </trkpt>
      <trkpt lat="43.66022" lon="1.45499">
        <ele>135.466024</ele>
        <time>2023-07-30T13:16:01.000Z</time>
      </trkpt>
      <trkpt lat="43.66027" lon="1.45505">
        <ele>135.38957</ele>
        <time>2023-07-30T13:16:02.000Z</time>
      </trkpt>
      <trkpt lat="43.66027" lon="1.45505">
        <ele>135.38957</ele>
        <time>2023-07-30T13:16:02.000Z</time>
      </trkpt>
      <trkpt lat="43.66034" lon="1.45511">
        <ele>135.310658</ele>
        <time>2023-07-30T13:16:03.000Z</time>
      </trkpt>
      <trkpt lat="43.66034" lon="1.45511">
        <ele>135.310658</ele>
        <time>2023-07-30T13:16:03.000Z</time>
      </trkpt>
      <trkpt lat="43.66039" lon="1.45516">
        <ele>135.240304</ele>
        <time>2023-07-30T13:16:04.000Z</time>
      </trkpt>
      <trkpt lat="43.66039" lon="1.45516">
        <ele>135.240304</ele>
        <time>2023-07-30T13:16:04.000Z</time>
      </trkpt>
      <trkpt lat="43.66045" lon="1.4552">
        <ele>135.168127</ele>
        <time>2023-07-30T13:16:05.000Z</time>
      </trkpt>
      <trkpt lat="43.66045" lon="1.4552">
        <ele>135.168127</ele>
        <time>2023-07-30T13:16:05.000Z</time>
      </trkpt>
      <trkpt lat="43.66051" lon="1.45524">
        <ele>135.105881</ele>
        <time>2023-07-30T13:16:06.000Z</time>
      </trkpt>
      <trkpt lat="43.66051" lon="1.45524">
        <ele>135.105881</ele>
        <time>2023-07-30T13:16:06.000Z</time>
      </trkpt>
      <trkpt lat="43.66056" lon="1.45528">
        <ele>135.039824</ele>
        <time>2023-07-30T13:16:07.000Z</time>
      </trkpt>
      <trkpt lat="43.66056" lon="1.45528">
        <ele>135.039824</ele>
        <time>2023-07-30T13:16:07.000Z</time>
      </trkpt>
      <trkpt lat="43.66061" lon="1.45531">
        <ele>134.986211</ele>
        <time>2023-07-30T13:16:08.000Z</time>
      </trkpt>
      <trkpt lat="43.66065" lon="1.45532">
        <ele>134.965532</ele>
        <time>2023-07-30T13:16:10.000Z</time>
      </trkpt>
      <trkpt lat="43.66067" lon="1.45533">
        <ele>134.954023</ele>
        <time>2023-07-30T13:16:10.000Z</time>
      </trkpt>
      <trkpt lat="43.66067" lon="1.45533">
        <ele>134.954023</ele>
        <time>2023-07-30T13:16:10.000Z</time>
      </trkpt>
      <trkpt lat="43.66069" lon="1.45534">
        <ele>134.940528</ele>
        <time>2023-07-30T13:16:11.000Z</time>
      </trkpt>
      <trkpt lat="43.66069" lon="1.45534">
        <ele>134.940528</ele>
        <time>2023-07-30T13:16:11.000Z</time>
      </trkpt>
      <trkpt lat="43.66073" lon="1.45533">
        <ele>134.923495</ele>
        <time>2023-07-30T13:16:12.000Z</time>
      </trkpt>
      <trkpt lat="43.66073" lon="1.45533">
        <ele>134.923495</ele>
        <time>2023-07-30T13:16:12.000Z</time>
      </trkpt>
      <trkpt lat="43.66076" lon="1.45532">
        <ele>134.905574</ele>
        <time>2023-07-30T13:16:13.000Z</time>
      </trkpt>
      <trkpt lat="43.66076" lon="1.45532">
        <ele>134.905574</ele>
        <time>2023-07-30T13:16:13.000Z</time>
      </trkpt>
      <trkpt lat="43.66081" lon="1.45531">
        <ele>134.882311</ele>
        <time>2023-07-30T13:16:14.000Z</time>
      </trkpt>
      <trkpt lat="43.66083" lon="1.4553">
        <ele>134.871092</ele>
        <time>2023-07-30T13:16:15.000Z</time>
      </trkpt>
      <trkpt lat="43.66088" lon="1.4553">
        <ele>134.848221</ele>
        <time>2023-07-30T13:16:17.000Z</time>
      </trkpt>
      <trkpt lat="43.66093" lon="1.45532">
        <ele>134.822545</ele>
        <time>2023-07-30T13:16:18.000Z</time>
      </trkpt>
      <trkpt lat="43.66098" lon="1.45535">
        <ele>134.796331</ele>
        <time>2023-07-30T13:16:19.000Z</time>
      </trkpt>
      <trkpt lat="43.66098" lon="1.45535">
        <ele>134.796331</ele>
        <time>2023-07-30T13:16:19.000Z</time>
      </trkpt>
      <trkpt lat="43.66102" lon="1.45537">
        <ele>134.77388</ele>
        <time>2023-07-30T13:16:20.000Z</time>
      </trkpt>
      <trkpt lat="43.66106" lon="1.4554">
        <ele>134.750549</ele>
        <time>2023-07-30T13:16:21.000Z</time>
      </trkpt>
      <trkpt lat="43.66111" lon="1.45543">
        <ele>134.723603</ele>
        <time>2023-07-30T13:16:22.000Z</time>
      </trkpt>
      <trkpt lat="43.66119" lon="1.4555">
        <ele>134.677119</ele>
        <time>2023-07-30T13:16:24.000Z</time>
      </trkpt>
      <trkpt lat="43.66122" lon="1.45552">
        <ele>134.659635</ele>
        <time>2023-07-30T13:16:25.000Z</time>
      </trkpt>
      <trkpt lat="43.66126" lon="1.45554">
        <ele>134.638721</ele>
        <time>2023-07-30T13:16:26.000Z</time>
      </trkpt>
      <trkpt lat="43.6613" lon="1.45558">
        <ele>134.616419</ele>
        <time>2023-07-30T13:16:28.000Z</time>
      </trkpt>
      <trkpt lat="43.66134" lon="1.45561">
        <ele>134.592587</ele>
        <time>2023-07-30T13:16:28.000Z</time>
      </trkpt>
      <trkpt lat="43.66138" lon="1.45565">
        <ele>134.568631</ele>
        <time>2023-07-30T13:16:29.000Z</time>
      </trkpt>
      <trkpt lat="43.66142" lon="1.45569">
        <ele>134.541624</ele>
        <time>2023-07-30T13:16:31.000Z</time>
      </trkpt>
      <trkpt lat="43.66147" lon="1.45573">
        <ele>134.515435</ele>
        <time>2023-07-30T13:16:32.000Z</time>
      </trkpt>
      <trkpt lat="43.66151" lon="1.45577">
        <ele>134.489415</ele>
        <time>2023-07-30T13:16:34.000Z</time>
      </trkpt>
      <trkpt lat="43.66155" lon="1.45581">
        <ele>134.465495</ele>
        <time>2023-07-30T13:16:35.000Z</time>
      </trkpt>
      <trkpt lat="43.66158" lon="1.45583">
        <ele>134.450345</ele>
        <time>2023-07-30T13:16:35.000Z</time>
      </trkpt>
      <trkpt lat="43.66161" lon="1.45587">
        <ele>134.42785</ele>
        <time>2023-07-30T13:16:36.000Z</time>
      </trkpt>
      <trkpt lat="43.66165" lon="1.45591">
        <ele>134.405051</ele>
        <time>2023-07-30T13:16:38.000Z</time>
      </trkpt>
      <trkpt lat="43.66168" lon="1.45595">
        <ele>134.383575</ele>
        <time>2023-07-30T13:16:39.000Z</time>
      </trkpt>
      <trkpt lat="43.66172" lon="1.456">
        <ele>134.357994</ele>
        <time>2023-07-30T13:16:39.000Z</time>
      </trkpt>
      <trkpt lat="43.66176" lon="1.45606">
        <ele>134.329526</ele>
        <time>2023-07-30T13:16:41.000Z</time>
      </trkpt>
      <trkpt lat="43.66176" lon="1.45606">
        <ele>134.329526</ele>
        <time>2023-07-30T13:16:41.000Z</time>
      </trkpt>
      <trkpt lat="43.66179" lon="1.45611">
        <ele>134.303701</ele>
        <time>2023-07-30T13:16:41.000Z</time>
      </trkpt>
      <trkpt lat="43.66179" lon="1.45611">
        <ele>134.303701</ele>
        <time>2023-07-30T13:16:41.000Z</time>
      </trkpt>
      <trkpt lat="43.66184" lon="1.45616">
        <ele>134.272516</ele>
        <time>2023-07-30T13:16:42.000Z</time>
      </trkpt>
      <trkpt lat="43.6619" lon="1.45623">
        <ele>134.235334</ele>
        <time>2023-07-30T13:16:43.000Z</time>
      </trkpt>
      <trkpt lat="43.66194" lon="1.45627">
        <ele>134.207937</ele>
        <time>2023-07-30T13:16:44.000Z</time>
      </trkpt>
      <trkpt lat="43.66199" lon="1.4563">
        <ele>134.183264</ele>
        <time>2023-07-30T13:16:45.000Z</time>
      </trkpt>
      <trkpt lat="43.66204" lon="1.45631">
        <ele>134.15631</ele>
        <time>2023-07-30T13:16:46.000Z</time>
      </trkpt>
      <trkpt lat="43.66208" lon="1.45627">
        <ele>134.131752</ele>
        <time>2023-07-30T13:16:47.000Z</time>
      </trkpt>
      <trkpt lat="43.66212" lon="1.45621">
        <ele>134.104067</ele>
        <time>2023-07-30T13:16:48.000Z</time>
      </trkpt>
      <trkpt lat="43.66214" lon="1.45614">
        <ele>134.082415</ele>
        <time>2023-07-30T13:16:49.000Z</time>
      </trkpt>
      <trkpt lat="43.66216" lon="1.45606">
        <ele>134.07031</ele>
        <time>2023-07-30T13:16:50.000Z</time>
      </trkpt>
      <trkpt lat="43.66218" lon="1.45597">
        <ele>134.057374</ele>
        <time>2023-07-30T13:16:51.000Z</time>
      </trkpt>
      <trkpt lat="43.6622" lon="1.45591">
        <ele>134.048005</ele>
        <time>2023-07-30T13:16:52.000Z</time>
      </trkpt>
      <trkpt lat="43.66222" lon="1.45581">
        <ele>134.032212</ele>
        <time>2023-07-30T13:16:53.000Z</time>
      </trkpt>
      <trkpt lat="43.66224" lon="1.45573">
        <ele>134.020657</ele>
        <time>2023-07-30T13:16:54.000Z</time>
      </trkpt>
      <trkpt lat="43.66227" lon="1.45566">
        <ele>134.008084</ele>
        <time>2023-07-30T13:16:55.000Z</time>
      </trkpt>
      <trkpt lat="43.66229" lon="1.45558">
        <ele>133.995702</ele>
        <time>2023-07-30T13:16:56.000Z</time>
      </trkpt>
      <trkpt lat="43.66232" lon="1.4555">
        <ele>133.984068</ele>
        <time>2023-07-30T13:16:57.000Z</time>
      </trkpt>
      <trkpt lat="43.66233" lon="1.45543">
        <ele>133.972787</ele>
        <time>2023-07-30T13:16:59.000Z</time>
      </trkpt>
      <trkpt lat="43.66236" lon="1.45535">
        <ele>133.960674</ele>
        <time>2023-07-30T13:17:00.000Z</time>
      </trkpt>
      <trkpt lat="43.66238" lon="1.45527">
        <ele>133.948292</ele>
        <time>2023-07-30T13:17:00.000Z</time>
      </trkpt>
      <trkpt lat="43.6624" lon="1.4552">
        <ele>133.936874</ele>
        <time>2023-07-30T13:17:02.000Z</time>
      </trkpt>
      <trkpt lat="43.66242" lon="1.45512">
        <ele>133.924761</ele>
        <time>2023-07-30T13:17:02.000Z</time>
      </trkpt>
      <trkpt lat="43.66242" lon="1.45512">
        <ele>133.924761</ele>
        <time>2023-07-30T13:17:02.000Z</time>
      </trkpt>
      <trkpt lat="43.66244" lon="1.45504">
        <ele>133.912379</ele>
        <time>2023-07-30T13:17:04.000Z</time>
      </trkpt>
      <trkpt lat="43.66246" lon="1.45496">
        <ele>133.900132</ele>
        <time>2023-07-30T13:17:04.000Z</time>
      </trkpt>
      <trkpt lat="43.66246" lon="1.45496">
        <ele>133.900132</ele>
        <time>2023-07-30T13:17:04.000Z</time>
      </trkpt>
      <trkpt lat="43.66249" lon="1.45489">
        <ele>133.888421</ele>
        <time>2023-07-30T13:17:05.000Z</time>
      </trkpt>
      <trkpt lat="43.66251" lon="1.45481">
        <ele>133.875847</ele>
        <time>2023-07-30T13:17:07.000Z</time>
      </trkpt>
      <trkpt lat="43.66254" lon="1.45473">
        <ele>133.8636</ele>
        <time>2023-07-30T13:17:07.000Z</time>
      </trkpt>
      <trkpt lat="43.66254" lon="1.45473">
        <ele>133.8636</ele>
        <time>2023-07-30T13:17:07.000Z</time>
      </trkpt>
      <trkpt lat="43.66256" lon="1.45465">
        <ele>133.850847</ele>
        <time>2023-07-30T13:17:08.000Z</time>
      </trkpt>
      <trkpt lat="43.66259" lon="1.45457">
        <ele>133.837651</ele>
        <time>2023-07-30T13:17:09.000Z</time>
      </trkpt>
      <trkpt lat="43.66261" lon="1.45449">
        <ele>133.825132</ele>
        <time>2023-07-30T13:17:10.000Z</time>
      </trkpt>
      <trkpt lat="43.66261" lon="1.45449">
        <ele>133.825132</ele>
        <time>2023-07-30T13:17:10.000Z</time>
      </trkpt>
      <trkpt lat="43.66263" lon="1.4544">
        <ele>133.812072</ele>
        <time>2023-07-30T13:17:12.000Z</time>
      </trkpt>
      <trkpt lat="43.66265" lon="1.45432">
        <ele>133.799552</ele>
        <time>2023-07-30T13:17:12.000Z</time>
      </trkpt>
      <trkpt lat="43.66267" lon="1.45423">
        <ele>133.785947</ele>
        <time>2023-07-30T13:17:13.000Z</time>
      </trkpt>
      <trkpt lat="43.66269" lon="1.45415">
        <ele>133.773288</ele>
        <time>2023-07-30T13:17:15.000Z</time>
      </trkpt>
      <trkpt lat="43.66271" lon="1.45407">
        <ele>133.760636</ele>
        <time>2023-07-30T13:17:16.000Z</time>
      </trkpt>
      <trkpt lat="43.66274" lon="1.45399">
        <ele>133.747712</ele>
        <time>2023-07-30T13:17:17.000Z</time>
      </trkpt>
      <trkpt lat="43.66276" lon="1.4539">
        <ele>133.734788</ele>
        <time>2023-07-30T13:17:18.000Z</time>
      </trkpt>
      <trkpt lat="43.66279" lon="1.45383">
        <ele>133.718171</ele>
        <time>2023-07-30T13:17:18.000Z</time>
      </trkpt>
      <trkpt lat="43.66282" lon="1.45375">
        <ele>133.695194</ele>
        <time>2023-07-30T13:17:20.000Z</time>
      </trkpt>
      <trkpt lat="43.66284" lon="1.45368">
        <ele>133.672267</ele>
        <time>2023-07-30T13:17:21.000Z</time>
      </trkpt>
      <trkpt lat="43.66284" lon="1.45368">
        <ele>133.672267</ele>
        <time>2023-07-30T13:17:21.000Z</time>
      </trkpt>
      <trkpt lat="43.66287" lon="1.4536">
        <ele>133.649051</ele>
        <time>2023-07-30T13:17:21.000Z</time>
      </trkpt>
      <trkpt lat="43.66291" lon="1.45353">
        <ele>133.624163</ele>
        <time>2023-07-30T13:17:23.000Z</time>
      </trkpt>
      <trkpt lat="43.66294" lon="1.45345">
        <ele>133.599475</ele>
        <time>2023-07-30T13:17:24.000Z</time>
      </trkpt>
      <trkpt lat="43.66294" lon="1.45345">
        <ele>133.599475</ele>
        <time>2023-07-30T13:17:24.000Z</time>
      </trkpt>
      <trkpt lat="43.66297" lon="1.45338">
        <ele>133.577012</ele>
        <time>2023-07-30T13:17:25.000Z</time>
      </trkpt>
      <trkpt lat="43.663" lon="1.45331">
        <ele>133.555448</ele>
        <time>2023-07-30T13:17:26.000Z</time>
      </trkpt>
      <trkpt lat="43.663" lon="1.45331">
        <ele>133.555448</ele>
        <time>2023-07-30T13:17:26.000Z</time>
      </trkpt>
      <trkpt lat="43.66304" lon="1.45324">
        <ele>133.531916</ele>
        <time>2023-07-30T13:17:26.000Z</time>
      </trkpt>
      <trkpt lat="43.66306" lon="1.45317">
        <ele>133.511165</ele>
        <time>2023-07-30T13:17:28.000Z</time>
      </trkpt>
      <trkpt lat="43.66309" lon="1.4531">
        <ele>133.488703</ele>
        <time>2023-07-30T13:17:29.000Z</time>
      </trkpt>
      <trkpt lat="43.66312" lon="1.45304">
        <ele>133.467138</ele>
        <time>2023-07-30T13:17:30.000Z</time>
      </trkpt>
      <trkpt lat="43.66316" lon="1.45297">
        <ele>133.443607</ele>
        <time>2023-07-30T13:17:31.000Z</time>
      </trkpt>
      <trkpt lat="43.66319" lon="1.4529">
        <ele>133.420319</ele>
        <time>2023-07-30T13:17:32.000Z</time>
      </trkpt>
      <trkpt lat="43.66319" lon="1.4529">
        <ele>133.420319</ele>
        <time>2023-07-30T13:17:32.000Z</time>
      </trkpt>
      <trkpt lat="43.66323" lon="1.45282">
        <ele>133.396787</ele>
        <time>2023-07-30T13:17:33.000Z</time>
      </trkpt>
      <trkpt lat="43.66326" lon="1.45275">
        <ele>133.373712</ele>
        <time>2023-07-30T13:17:34.000Z</time>
      </trkpt>
      <trkpt lat="43.66326" lon="1.45275">
        <ele>133.373712</ele>
        <time>2023-07-30T13:17:34.000Z</time>
      </trkpt>
      <trkpt lat="43.6633" lon="1.45268">
        <ele>133.349056</ele>
        <time>2023-07-30T13:17:35.000Z</time>
      </trkpt>
      <trkpt lat="43.66333" lon="1.45262">
        <ele>133.328642</ele>
        <time>2023-07-30T13:17:36.000Z</time>
      </trkpt>
      <trkpt lat="43.66336" lon="1.45255">
        <ele>133.305579</ele>
        <time>2023-07-30T13:17:37.000Z</time>
      </trkpt>
      <trkpt lat="43.66336" lon="1.45255">
        <ele>133.305579</ele>
        <time>2023-07-30T13:17:37.000Z</time>
      </trkpt>
      <trkpt lat="43.6634" lon="1.45248">
        <ele>133.282279</ele>
        <time>2023-07-30T13:17:38.000Z</time>
      </trkpt>
      <trkpt lat="43.6634" lon="1.45248">
        <ele>133.282279</ele>
        <time>2023-07-30T13:17:38.000Z</time>
      </trkpt>
      <trkpt lat="43.66344" lon="1.45239">
        <ele>133.253654</ele>
        <time>2023-07-30T13:17:39.000Z</time>
      </trkpt>
      <trkpt lat="43.66344" lon="1.45239">
        <ele>133.253654</ele>
        <time>2023-07-30T13:17:39.000Z</time>
      </trkpt>
      <trkpt lat="43.66348" lon="1.4523">
        <ele>133.224342</ele>
        <time>2023-07-30T13:17:40.000Z</time>
      </trkpt>
      <trkpt lat="43.66348" lon="1.4523">
        <ele>133.224342</ele>
        <time>2023-07-30T13:17:40.000Z</time>
      </trkpt>
      <trkpt lat="43.66351" lon="1.45221">
        <ele>133.197471</ele>
        <time>2023-07-30T13:17:41.000Z</time>
      </trkpt>
      <trkpt lat="43.66351" lon="1.45221">
        <ele>133.197471</ele>
        <time>2023-07-30T13:17:41.000Z</time>
      </trkpt>
      <trkpt lat="43.66353" lon="1.45213">
        <ele>133.174058</ele>
        <time>2023-07-30T13:17:42.000Z</time>
      </trkpt>
      <trkpt lat="43.66355" lon="1.45206">
        <ele>133.15346</ele>
        <time>2023-07-30T13:17:43.000Z</time>
      </trkpt>
      <trkpt lat="43.66357" lon="1.45199">
        <ele>133.130699</ele>
        <time>2023-07-30T13:17:44.000Z</time>
      </trkpt>
      <trkpt lat="43.6636" lon="1.45191">
        <ele>133.107647</ele>
        <time>2023-07-30T13:17:45.000Z</time>
      </trkpt>
      <trkpt lat="43.6636" lon="1.45191">
        <ele>133.107647</ele>
        <time>2023-07-30T13:17:45.000Z</time>
      </trkpt>
      <trkpt lat="43.66362" lon="1.45183">
        <ele>133.083833</ele>
        <time>2023-07-30T13:17:46.000Z</time>
      </trkpt>
      <trkpt lat="43.66362" lon="1.45175">
        <ele>133.062433</ele>
        <time>2023-07-30T13:17:47.000Z</time>
      </trkpt>
      <trkpt lat="43.66361" lon="1.4517">
        <ele>133.047871</ele>
        <time>2023-07-30T13:17:48.000Z</time>
      </trkpt>
      <trkpt lat="43.66361" lon="1.4517">
        <ele>133.047871</ele>
        <time>2023-07-30T13:17:48.000Z</time>
      </trkpt>
      <trkpt lat="43.66361" lon="1.45167">
        <ele>133.048065</ele>
        <time>2023-07-30T13:17:49.000Z</time>
      </trkpt>
      <trkpt lat="43.66361" lon="1.45167">
        <ele>133.048065</ele>
        <time>2023-07-30T13:17:49.000Z</time>
      </trkpt>
      <trkpt lat="43.66361" lon="1.45163">
        <ele>133.04961</ele>
        <time>2023-07-30T13:17:50.000Z</time>
      </trkpt>
      <trkpt lat="43.66361" lon="1.45163">
        <ele>133.04961</ele>
        <time>2023-07-30T13:17:50.000Z</time>
      </trkpt>
      <trkpt lat="43.66361" lon="1.4516">
        <ele>133.051463</ele>
        <time>2023-07-30T13:17:51.000Z</time>
      </trkpt>
      <trkpt lat="43.66361" lon="1.4516">
        <ele>133.051463</ele>
        <time>2023-07-30T13:17:51.000Z</time>
      </trkpt>
      <trkpt lat="43.66362" lon="1.45156">
        <ele>133.053553</ele>
        <time>2023-07-30T13:17:51.000Z</time>
      </trkpt>
      <trkpt lat="43.66362" lon="1.45156">
        <ele>133.053553</ele>
        <time>2023-07-30T13:17:51.000Z</time>
      </trkpt>
      <trkpt lat="43.66365" lon="1.4515">
        <ele>133.05662</ele>
        <time>2023-07-30T13:17:53.000Z</time>
      </trkpt>
      <trkpt lat="43.66365" lon="1.4515">
        <ele>133.05662</ele>
        <time>2023-07-30T13:17:53.000Z</time>
      </trkpt>
      <trkpt lat="43.66367" lon="1.45145">
        <ele>133.059521</ele>
        <time>2023-07-30T13:17:54.000Z</time>
      </trkpt>
      <trkpt lat="43.66367" lon="1.45145">
        <ele>133.059521</ele>
        <time>2023-07-30T13:17:54.000Z</time>
      </trkpt>
      <trkpt lat="43.66371" lon="1.45136">
        <ele>133.064594</ele>
        <time>2023-07-30T13:17:55.000Z</time>
      </trkpt>
      <trkpt lat="43.66371" lon="1.45136">
        <ele>133.064594</ele>
        <time>2023-07-30T13:17:55.000Z</time>
      </trkpt>
      <trkpt lat="43.66374" lon="1.45128">
        <ele>133.068816</ele>
        <time>2023-07-30T13:17:56.000Z</time>
      </trkpt>
      <trkpt lat="43.66377" lon="1.4512">
        <ele>133.073371</ele>
        <time>2023-07-30T13:17:57.000Z</time>
      </trkpt>
      <trkpt lat="43.66377" lon="1.4512">
        <ele>133.073371</ele>
        <time>2023-07-30T13:17:57.000Z</time>
      </trkpt>
      <trkpt lat="43.66382" lon="1.4511">
        <ele>133.079163</ele>
        <time>2023-07-30T13:17:58.000Z</time>
      </trkpt>
      <trkpt lat="43.66385" lon="1.45102">
        <ele>133.083355</ele>
        <time>2023-07-30T13:17:59.000Z</time>
      </trkpt>
      <trkpt lat="43.66388" lon="1.45096">
        <ele>133.087385</ele>
        <time>2023-07-30T13:18:00.000Z</time>
      </trkpt>
      <trkpt lat="43.66391" lon="1.45088">
        <ele>133.091647</ele>
        <time>2023-07-30T13:18:01.000Z</time>
      </trkpt>
      <trkpt lat="43.66393" lon="1.4508">
        <ele>133.095637</ele>
        <time>2023-07-30T13:18:02.000Z</time>
      </trkpt>
      <trkpt lat="43.66393" lon="1.4508">
        <ele>133.095637</ele>
        <time>2023-07-30T13:18:02.000Z</time>
      </trkpt>
      <trkpt lat="43.66394" lon="1.45071">
        <ele>133.10007</ele>
        <time>2023-07-30T13:18:03.000Z</time>
      </trkpt>
      <trkpt lat="43.66397" lon="1.45062">
        <ele>133.104596</ele>
        <time>2023-07-30T13:18:04.000Z</time>
      </trkpt>
      <trkpt lat="43.664" lon="1.45054">
        <ele>133.10877</ele>
        <time>2023-07-30T13:18:05.000Z</time>
      </trkpt>
      <trkpt lat="43.664" lon="1.45054">
        <ele>133.10877</ele>
        <time>2023-07-30T13:18:05.000Z</time>
      </trkpt>
      <trkpt lat="43.66403" lon="1.45046">
        <ele>133.113078</ele>
        <time>2023-07-30T13:18:06.000Z</time>
      </trkpt>
      <trkpt lat="43.66406" lon="1.45038">
        <ele>133.117383</ele>
        <time>2023-07-30T13:18:06.000Z</time>
      </trkpt>
      <trkpt lat="43.66406" lon="1.45038">
        <ele>133.117383</ele>
        <time>2023-07-30T13:18:06.000Z</time>
      </trkpt>
      <trkpt lat="43.66408" lon="1.4503">
        <ele>133.121777</ele>
        <time>2023-07-30T13:18:08.000Z</time>
      </trkpt>
      <trkpt lat="43.6641" lon="1.45022">
        <ele>133.126044</ele>
        <time>2023-07-30T13:18:09.000Z</time>
      </trkpt>
      <trkpt lat="43.6641" lon="1.45022">
        <ele>133.126044</ele>
        <time>2023-07-30T13:18:09.000Z</time>
      </trkpt>
      <trkpt lat="43.66412" lon="1.45014">
        <ele>133.130098</ele>
        <time>2023-07-30T13:18:10.000Z</time>
      </trkpt>
      <trkpt lat="43.66412" lon="1.45014">
        <ele>133.130098</ele>
        <time>2023-07-30T13:18:10.000Z</time>
      </trkpt>
      <trkpt lat="43.66414" lon="1.45006">
        <ele>133.134087</ele>
        <time>2023-07-30T13:18:11.000Z</time>
      </trkpt>
      <trkpt lat="43.66414" lon="1.45006">
        <ele>133.134087</ele>
        <time>2023-07-30T13:18:11.000Z</time>
      </trkpt>
      <trkpt lat="43.66415" lon="1.44997">
        <ele>133.138382</ele>
        <time>2023-07-30T13:18:12.000Z</time>
      </trkpt>
      <trkpt lat="43.66418" lon="1.44989">
        <ele>133.14282</ele>
        <time>2023-07-30T13:18:13.000Z</time>
      </trkpt>
      <trkpt lat="43.6642" lon="1.44981">
        <ele>133.146886</ele>
        <time>2023-07-30T13:18:13.000Z</time>
      </trkpt>
      <trkpt lat="43.66423" lon="1.44972">
        <ele>133.15143</ele>
        <time>2023-07-30T13:18:15.000Z</time>
      </trkpt>
      <trkpt lat="43.66425" lon="1.44965">
        <ele>133.15523</ele>
        <time>2023-07-30T13:18:16.000Z</time>
      </trkpt>
      <trkpt lat="43.66428" lon="1.44957">
        <ele>133.159526</ele>
        <time>2023-07-30T13:18:17.000Z</time>
      </trkpt>
      <trkpt lat="43.66431" lon="1.44949">
        <ele>133.163937</ele>
        <time>2023-07-30T13:18:18.000Z</time>
      </trkpt>
      <trkpt lat="43.66433" lon="1.44941">
        <ele>133.154583</ele>
        <time>2023-07-30T13:18:18.000Z</time>
      </trkpt>
      <trkpt lat="43.66435" lon="1.44932">
        <ele>133.122342</ele>
        <time>2023-07-30T13:18:20.000Z</time>
      </trkpt>
      <trkpt lat="43.66438" lon="1.44924">
        <ele>133.089771</ele>
        <time>2023-07-30T13:18:21.000Z</time>
      </trkpt>
      <trkpt lat="43.66438" lon="1.44924">
        <ele>133.089771</ele>
        <time>2023-07-30T13:18:21.000Z</time>
      </trkpt>
      <trkpt lat="43.6644" lon="1.44916">
        <ele>133.056162</ele>
        <time>2023-07-30T13:18:22.000Z</time>
      </trkpt>
      <trkpt lat="43.66443" lon="1.44908">
        <ele>133.023203</ele>
        <time>2023-07-30T13:18:23.000Z</time>
      </trkpt>
      <trkpt lat="43.66446" lon="1.449">
        <ele>132.991733</ele>
        <time>2023-07-30T13:18:24.000Z</time>
      </trkpt>
      <trkpt lat="43.66446" lon="1.449">
        <ele>132.991733</ele>
        <time>2023-07-30T13:18:24.000Z</time>
      </trkpt>
      <trkpt lat="43.66449" lon="1.44893">
        <ele>132.9593</ele>
        <time>2023-07-30T13:18:25.000Z</time>
      </trkpt>
      <trkpt lat="43.66452" lon="1.44886">
        <ele>132.927766</ele>
        <time>2023-07-30T13:18:26.000Z</time>
      </trkpt>
      <trkpt lat="43.66456" lon="1.44878">
        <ele>132.894673</ele>
        <time>2023-07-30T13:18:27.000Z</time>
      </trkpt>
      <trkpt lat="43.66459" lon="1.44871">
        <ele>132.863004</ele>
        <time>2023-07-30T13:18:28.000Z</time>
      </trkpt>
      <trkpt lat="43.66462" lon="1.44863">
        <ele>132.828961</ele>
        <time>2023-07-30T13:18:29.000Z</time>
      </trkpt>
      <trkpt lat="43.66462" lon="1.44863">
        <ele>132.828961</ele>
        <time>2023-07-30T13:18:29.000Z</time>
      </trkpt>
      <trkpt lat="43.66465" lon="1.44855">
        <ele>132.796002</ele>
        <time>2023-07-30T13:18:30.000Z</time>
      </trkpt>
      <trkpt lat="43.66468" lon="1.44848">
        <ele>132.765308</ele>
        <time>2023-07-30T13:18:31.000Z</time>
      </trkpt>
      <trkpt lat="43.66471" lon="1.4484">
        <ele>132.733839</ele>
        <time>2023-07-30T13:18:32.000Z</time>
      </trkpt>
      <trkpt lat="43.66473" lon="1.44832">
        <ele>132.701146</ele>
        <time>2023-07-30T13:18:32.000Z</time>
      </trkpt>
      <trkpt lat="43.66473" lon="1.44832">
        <ele>132.701146</ele>
        <time>2023-07-30T13:18:32.000Z</time>
      </trkpt>
      <trkpt lat="43.66476" lon="1.44824">
        <ele>132.668453</ele>
        <time>2023-07-30T13:18:34.000Z</time>
      </trkpt>
      <trkpt lat="43.66476" lon="1.44824">
        <ele>132.668453</ele>
        <time>2023-07-30T13:18:34.000Z</time>
      </trkpt>
      <trkpt lat="43.66478" lon="1.44816">
        <ele>132.638481</ele>
        <time>2023-07-30T13:18:34.000Z</time>
      </trkpt>
      <trkpt lat="43.66481" lon="1.44809">
        <ele>132.606791</ele>
        <time>2023-07-30T13:18:36.000Z</time>
      </trkpt>
      <trkpt lat="43.66484" lon="1.44801">
        <ele>132.574768</ele>
        <time>2023-07-30T13:18:36.000Z</time>
      </trkpt>
      <trkpt lat="43.66486" lon="1.44793">
        <ele>132.543412</ele>
        <time>2023-07-30T13:18:38.000Z</time>
      </trkpt>
      <trkpt lat="43.66489" lon="1.44785">
        <ele>132.509234</ele>
        <time>2023-07-30T13:18:38.000Z</time>
      </trkpt>
      <trkpt lat="43.66492" lon="1.44777">
        <ele>132.477211</ele>
        <time>2023-07-30T13:18:39.000Z</time>
      </trkpt>
      <trkpt lat="43.66492" lon="1.44777">
        <ele>132.477211</ele>
        <time>2023-07-30T13:18:39.000Z</time>
      </trkpt>
      <trkpt lat="43.66494" lon="1.44769">
        <ele>132.444182</ele>
        <time>2023-07-30T13:18:40.000Z</time>
      </trkpt>
      <trkpt lat="43.66494" lon="1.44769">
        <ele>132.444182</ele>
        <time>2023-07-30T13:18:40.000Z</time>
      </trkpt>
      <trkpt lat="43.66497" lon="1.44761">
        <ele>132.412645</ele>
        <time>2023-07-30T13:18:41.000Z</time>
      </trkpt>
      <trkpt lat="43.66499" lon="1.44753">
        <ele>132.379149</ele>
        <time>2023-07-30T13:18:42.000Z</time>
      </trkpt>
      <trkpt lat="43.66499" lon="1.44753">
        <ele>132.379149</ele>
        <time>2023-07-30T13:18:42.000Z</time>
      </trkpt>
      <trkpt lat="43.66502" lon="1.44745">
        <ele>132.347612</ele>
        <time>2023-07-30T13:18:43.000Z</time>
      </trkpt>
      <trkpt lat="43.66504" lon="1.44737">
        <ele>132.316075</ele>
        <time>2023-07-30T13:18:44.000Z</time>
      </trkpt>
      <trkpt lat="43.66506" lon="1.44729">
        <ele>132.285946</ele>
        <time>2023-07-30T13:18:45.000Z</time>
      </trkpt>
      <trkpt lat="43.66507" lon="1.44722">
        <ele>132.258198</ele>
        <time>2023-07-30T13:18:46.000Z</time>
      </trkpt>
      <trkpt lat="43.66507" lon="1.44722">
        <ele>132.258198</ele>
        <time>2023-07-30T13:18:46.000Z</time>
      </trkpt>
      <trkpt lat="43.6651" lon="1.44716">
        <ele>132.215862</ele>
        <time>2023-07-30T13:18:48.000Z</time>
      </trkpt>
      <trkpt lat="43.66512" lon="1.44711">
        <ele>132.17285</ele>
        <time>2023-07-30T13:18:48.000Z</time>
      </trkpt>
      <trkpt lat="43.66512" lon="1.44711">
        <ele>132.17285</ele>
        <time>2023-07-30T13:18:48.000Z</time>
      </trkpt>
      <trkpt lat="43.66513" lon="1.4471">
        <ele>132.152078</ele>
        <time>2023-07-30T13:18:49.000Z</time>
      </trkpt>
      <trkpt lat="43.66513" lon="1.4471">
        <ele>132.152078</ele>
        <time>2023-07-30T13:18:49.000Z</time>
      </trkpt>
      <trkpt lat="43.66515" lon="1.4471">
        <ele>132.125819</ele>
        <time>2023-07-30T13:18:50.000Z</time>
      </trkpt>
      <trkpt lat="43.66515" lon="1.4471">
        <ele>132.125819</ele>
        <time>2023-07-30T13:18:50.000Z</time>
      </trkpt>
      <trkpt lat="43.66515" lon="1.4471">
        <ele>132.125819</ele>
        <time>2023-07-30T13:18:53.000Z</time>
      </trkpt>
      <trkpt lat="43.66517" lon="1.4471">
        <ele>132.103748</ele>
        <time>2023-07-30T13:18:58.000Z</time>
      </trkpt>
      <trkpt lat="43.66517" lon="1.4471">
        <ele>132.103748</ele>
        <time>2023-07-30T13:18:58.000Z</time>
      </trkpt>
      <trkpt lat="43.66517" lon="1.44712">
        <ele>132.089714</ele>
        <time>2023-07-30T13:19:02.000Z</time>
      </trkpt>
      <trkpt lat="43.66517" lon="1.44713">
        <ele>132.083936</ele>
        <time>2023-07-30T13:19:03.000Z</time>
      </trkpt>
      <trkpt lat="43.6652" lon="1.44715">
        <ele>132.04628</ele>
        <time>2023-07-30T13:19:04.000Z</time>
      </trkpt>
      <trkpt lat="43.66524" lon="1.44716">
        <ele>132.001183</ele>
        <time>2023-07-30T13:19:06.000Z</time>
      </trkpt>
      <trkpt lat="43.66529" lon="1.44719">
        <ele>131.940785</ele>
        <time>2023-07-30T13:19:07.000Z</time>
      </trkpt>
      <trkpt lat="43.66533" lon="1.44721">
        <ele>131.894085</ele>
        <time>2023-07-30T13:19:08.000Z</time>
      </trkpt>
      <trkpt lat="43.66538" lon="1.44724">
        <ele>131.836729</ele>
        <time>2023-07-30T13:19:09.000Z</time>
      </trkpt>
      <trkpt lat="43.66542" lon="1.44726">
        <ele>131.779701</ele>
        <time>2023-07-30T13:19:10.000Z</time>
      </trkpt>
      <trkpt lat="43.66542" lon="1.44726">
        <ele>131.779701</ele>
        <time>2023-07-30T13:19:10.000Z</time>
      </trkpt>
      <trkpt lat="43.66546" lon="1.4473">
        <ele>131.725562</ele>
        <time>2023-07-30T13:19:11.000Z</time>
      </trkpt>
      <trkpt lat="43.66552" lon="1.44734">
        <ele>131.65318</ele>
        <time>2023-07-30T13:19:12.000Z</time>
      </trkpt>
      <trkpt lat="43.66552" lon="1.44734">
        <ele>131.65318</ele>
        <time>2023-07-30T13:19:12.000Z</time>
      </trkpt>
      <trkpt lat="43.66557" lon="1.4474">
        <ele>131.575007</ele>
        <time>2023-07-30T13:19:13.000Z</time>
      </trkpt>
      <trkpt lat="43.66557" lon="1.4474">
        <ele>131.575007</ele>
        <time>2023-07-30T13:19:13.000Z</time>
      </trkpt>
      <trkpt lat="43.66563" lon="1.44747">
        <ele>131.486339</ele>
        <time>2023-07-30T13:19:14.000Z</time>
      </trkpt>
      <trkpt lat="43.66568" lon="1.44754">
        <ele>131.409137</ele>
        <time>2023-07-30T13:19:15.000Z</time>
      </trkpt>
      <trkpt lat="43.66568" lon="1.44754">
        <ele>131.409137</ele>
        <time>2023-07-30T13:19:15.000Z</time>
      </trkpt>
      <trkpt lat="43.66572" lon="1.4476">
        <ele>131.335246</ele>
        <time>2023-07-30T13:19:16.000Z</time>
      </trkpt>
      <trkpt lat="43.66572" lon="1.4476">
        <ele>131.335246</ele>
        <time>2023-07-30T13:19:16.000Z</time>
      </trkpt>
      <trkpt lat="43.66577" lon="1.44766">
        <ele>131.261354</ele>
        <time>2023-07-30T13:19:17.000Z</time>
      </trkpt>
      <trkpt lat="43.66577" lon="1.44766">
        <ele>131.261354</ele>
        <time>2023-07-30T13:19:17.000Z</time>
      </trkpt>
      <trkpt lat="43.66581" lon="1.44773">
        <ele>131.190632</ele>
        <time>2023-07-30T13:19:18.000Z</time>
      </trkpt>
      <trkpt lat="43.66581" lon="1.44773">
        <ele>131.190632</ele>
        <time>2023-07-30T13:19:18.000Z</time>
      </trkpt>
      <trkpt lat="43.66585" lon="1.44779">
        <ele>131.121115</ele>
        <time>2023-07-30T13:19:19.000Z</time>
      </trkpt>
      <trkpt lat="43.66585" lon="1.44779">
        <ele>131.121115</ele>
        <time>2023-07-30T13:19:19.000Z</time>
      </trkpt>
      <trkpt lat="43.66589" lon="1.44786">
        <ele>131.047305</ele>
        <time>2023-07-30T13:19:20.000Z</time>
      </trkpt>
      <trkpt lat="43.66589" lon="1.44786">
        <ele>131.047305</ele>
        <time>2023-07-30T13:19:20.000Z</time>
      </trkpt>
      <trkpt lat="43.66594" lon="1.44793">
        <ele>130.963267</ele>
        <time>2023-07-30T13:19:21.000Z</time>
      </trkpt>
      <trkpt lat="43.66594" lon="1.44793">
        <ele>130.963267</ele>
        <time>2023-07-30T13:19:21.000Z</time>
      </trkpt>
      <trkpt lat="43.66599" lon="1.448">
        <ele>130.889457</ele>
        <time>2023-07-30T13:19:22.000Z</time>
      </trkpt>
      <trkpt lat="43.66599" lon="1.448">
        <ele>130.889457</ele>
        <time>2023-07-30T13:19:22.000Z</time>
      </trkpt>
      <trkpt lat="43.66602" lon="1.44807">
        <ele>130.819825</ele>
        <time>2023-07-30T13:19:23.000Z</time>
      </trkpt>
      <trkpt lat="43.66602" lon="1.44807">
        <ele>130.819825</ele>
        <time>2023-07-30T13:19:23.000Z</time>
      </trkpt>
      <trkpt lat="43.66607" lon="1.44814">
        <ele>130.739284</ele>
        <time>2023-07-30T13:19:24.000Z</time>
      </trkpt>
      <trkpt lat="43.66612" lon="1.44821">
        <ele>130.657489</ele>
        <time>2023-07-30T13:19:25.000Z</time>
      </trkpt>
      <trkpt lat="43.66616" lon="1.44828">
        <ele>130.577687</ele>
        <time>2023-07-30T13:19:26.000Z</time>
      </trkpt>
      <trkpt lat="43.66616" lon="1.44828">
        <ele>130.577687</ele>
        <time>2023-07-30T13:19:26.000Z</time>
      </trkpt>
      <trkpt lat="43.66621" lon="1.44835">
        <ele>130.505125</ele>
        <time>2023-07-30T13:19:27.000Z</time>
      </trkpt>
      <trkpt lat="43.66624" lon="1.44841">
        <ele>130.438045</ele>
        <time>2023-07-30T13:19:28.000Z</time>
      </trkpt>
      <trkpt lat="43.66624" lon="1.44841">
        <ele>130.438045</ele>
        <time>2023-07-30T13:19:28.000Z</time>
      </trkpt>
      <trkpt lat="43.66629" lon="1.44848">
        <ele>130.36357</ele>
        <time>2023-07-30T13:19:29.000Z</time>
      </trkpt>
      <trkpt lat="43.66635" lon="1.44852">
        <ele>130.286431</ele>
        <time>2023-07-30T13:19:30.000Z</time>
      </trkpt>
      <trkpt lat="43.66641" lon="1.44856">
        <ele>130.215912</ele>
        <time>2023-07-30T13:19:31.000Z</time>
      </trkpt>
      <trkpt lat="43.66646" lon="1.44858">
        <ele>130.183861</ele>
        <time>2023-07-30T13:19:32.000Z</time>
      </trkpt>
      <trkpt lat="43.66652" lon="1.44859">
        <ele>130.169818</ele>
        <time>2023-07-30T13:19:33.000Z</time>
      </trkpt>
      <trkpt lat="43.66652" lon="1.44859">
        <ele>130.169818</ele>
        <time>2023-07-30T13:19:33.000Z</time>
      </trkpt>
      <trkpt lat="43.66659" lon="1.44859">
        <ele>130.151992</ele>
        <time>2023-07-30T13:19:34.000Z</time>
      </trkpt>
      <trkpt lat="43.66665" lon="1.44859">
        <ele>130.137104</ele>
        <time>2023-07-30T13:19:35.000Z</time>
      </trkpt>
      <trkpt lat="43.66672" lon="1.44858">
        <ele>130.121196</ele>
        <time>2023-07-30T13:19:36.000Z</time>
      </trkpt>
      <trkpt lat="43.66678" lon="1.44857">
        <ele>130.10546</ele>
        <time>2023-07-30T13:19:37.000Z</time>
      </trkpt>
      <trkpt lat="43.66685" lon="1.44855">
        <ele>130.089249</ele>
        <time>2023-07-30T13:19:38.000Z</time>
      </trkpt>
      <trkpt lat="43.66691" lon="1.44853">
        <ele>130.073674</ele>
        <time>2023-07-30T13:19:39.000Z</time>
      </trkpt>
      <trkpt lat="43.66691" lon="1.44853">
        <ele>130.073674</ele>
        <time>2023-07-30T13:19:39.000Z</time>
      </trkpt>
      <trkpt lat="43.66696" lon="1.44849">
        <ele>130.059196</ele>
        <time>2023-07-30T13:19:40.000Z</time>
      </trkpt>
      <trkpt lat="43.66702" lon="1.44845">
        <ele>130.042646</ele>
        <time>2023-07-30T13:19:41.000Z</time>
      </trkpt>
      <trkpt lat="43.66702" lon="1.44845">
        <ele>130.042646</ele>
        <time>2023-07-30T13:19:41.000Z</time>
      </trkpt>
      <trkpt lat="43.66708" lon="1.44841">
        <ele>130.027376</ele>
        <time>2023-07-30T13:19:42.000Z</time>
      </trkpt>
      <trkpt lat="43.66708" lon="1.44841">
        <ele>130.027376</ele>
        <time>2023-07-30T13:19:42.000Z</time>
      </trkpt>
      <trkpt lat="43.66713" lon="1.44836">
        <ele>130.012171</ele>
        <time>2023-07-30T13:19:43.000Z</time>
      </trkpt>
      <trkpt lat="43.66718" lon="1.44832">
        <ele>129.997817</ele>
        <time>2023-07-30T13:19:44.000Z</time>
      </trkpt>
      <trkpt lat="43.66718" lon="1.44832">
        <ele>129.997817</ele>
        <time>2023-07-30T13:19:44.000Z</time>
      </trkpt>
      <trkpt lat="43.66723" lon="1.44827">
        <ele>129.982247</ele>
        <time>2023-07-30T13:19:45.000Z</time>
      </trkpt>
      <trkpt lat="43.66728" lon="1.44823">
        <ele>129.968624</ele>
        <time>2023-07-30T13:19:46.000Z</time>
      </trkpt>
      <trkpt lat="43.66728" lon="1.44823">
        <ele>129.968624</ele>
        <time>2023-07-30T13:19:46.000Z</time>
      </trkpt>
      <trkpt lat="43.66734" lon="1.44821">
        <ele>129.954085</ele>
        <time>2023-07-30T13:19:47.000Z</time>
      </trkpt>
      <trkpt lat="43.6674" lon="1.44819">
        <ele>129.938968</ele>
        <time>2023-07-30T13:19:48.000Z</time>
      </trkpt>
      <trkpt lat="43.66745" lon="1.44822">
        <ele>129.925231</ele>
        <time>2023-07-30T13:19:49.000Z</time>
      </trkpt>
      <trkpt lat="43.66751" lon="1.44825">
        <ele>129.910823</ele>
        <time>2023-07-30T13:19:50.000Z</time>
      </trkpt>
      <trkpt lat="43.66755" lon="1.44832">
        <ele>129.896345</ele>
        <time>2023-07-30T13:19:51.000Z</time>
      </trkpt>
      <trkpt lat="43.66756" lon="1.4484">
        <ele>129.880979</ele>
        <time>2023-07-30T13:19:52.000Z</time>
      </trkpt>
      <trkpt lat="43.66756" lon="1.4484">
        <ele>129.880979</ele>
        <time>2023-07-30T13:19:52.000Z</time>
      </trkpt>
      <trkpt lat="43.66758" lon="1.44848">
        <ele>129.865867</ele>
        <time>2023-07-30T13:19:53.000Z</time>
      </trkpt>
      <trkpt lat="43.66759" lon="1.44857">
        <ele>129.849757</ele>
        <time>2023-07-30T13:19:54.000Z</time>
      </trkpt>
      <trkpt lat="43.66761" lon="1.44865">
        <ele>129.835053</ele>
        <time>2023-07-30T13:19:55.000Z</time>
      </trkpt>
      <trkpt lat="43.66764" lon="1.44872">
        <ele>129.820113</ele>
        <time>2023-07-30T13:19:56.000Z</time>
      </trkpt>
      <trkpt lat="43.66768" lon="1.44879">
        <ele>129.805362</ele>
        <time>2023-07-30T13:19:57.000Z</time>
      </trkpt>
      <trkpt lat="43.66773" lon="1.44884">
        <ele>129.790406</ele>
        <time>2023-07-30T13:19:58.000Z</time>
      </trkpt>
      <trkpt lat="43.66773" lon="1.44884">
        <ele>129.790406</ele>
        <time>2023-07-30T13:19:58.000Z</time>
      </trkpt>
      <trkpt lat="43.66777" lon="1.44889">
        <ele>129.775441</ele>
        <time>2023-07-30T13:19:59.000Z</time>
      </trkpt>
      <trkpt lat="43.66783" lon="1.44894">
        <ele>129.75968</ele>
        <time>2023-07-30T13:20:00.000Z</time>
      </trkpt>
      <trkpt lat="43.66788" lon="1.44899">
        <ele>129.7469</ele>
        <time>2023-07-30T13:20:01.000Z</time>
      </trkpt>
      <trkpt lat="43.66793" lon="1.44902">
        <ele>129.736128</ele>
        <time>2023-07-30T13:20:02.000Z</time>
      </trkpt>
      <trkpt lat="43.66793" lon="1.44902">
        <ele>129.736128</ele>
        <time>2023-07-30T13:20:02.000Z</time>
      </trkpt>
      <trkpt lat="43.66799" lon="1.44906">
        <ele>129.724462</ele>
        <time>2023-07-30T13:20:03.000Z</time>
      </trkpt>
      <trkpt lat="43.66804" lon="1.44908">
        <ele>129.713845</ele>
        <time>2023-07-30T13:20:04.000Z</time>
      </trkpt>
      <trkpt lat="43.6681" lon="1.44911">
        <ele>129.702555</ele>
        <time>2023-07-30T13:20:05.000Z</time>
      </trkpt>
      <trkpt lat="43.66816" lon="1.44913">
        <ele>129.691085</ele>
        <time>2023-07-30T13:20:06.000Z</time>
      </trkpt>
      <trkpt lat="43.66816" lon="1.44913">
        <ele>129.691085</ele>
        <time>2023-07-30T13:20:06.000Z</time>
      </trkpt>
      <trkpt lat="43.66821" lon="1.44916">
        <ele>129.679836</ele>
        <time>2023-07-30T13:20:07.000Z</time>
      </trkpt>
      <trkpt lat="43.66827" lon="1.44918">
        <ele>129.669464</ele>
        <time>2023-07-30T13:20:08.000Z</time>
      </trkpt>
      <trkpt lat="43.66833" lon="1.4492">
        <ele>129.657629</ele>
        <time>2023-07-30T13:20:09.000Z</time>
      </trkpt>
      <trkpt lat="43.66839" lon="1.44922">
        <ele>129.645853</ele>
        <time>2023-07-30T13:20:10.000Z</time>
      </trkpt>
      <trkpt lat="43.66844" lon="1.44923">
        <ele>129.635455</ele>
        <time>2023-07-30T13:20:11.000Z</time>
      </trkpt>
      <trkpt lat="43.66844" lon="1.44923">
        <ele>129.635455</ele>
        <time>2023-07-30T13:20:11.000Z</time>
      </trkpt>
      <trkpt lat="43.6685" lon="1.44925">
        <ele>129.623733</ele>
        <time>2023-07-30T13:20:12.000Z</time>
      </trkpt>
      <trkpt lat="43.66856" lon="1.44926">
        <ele>129.612036</ele>
        <time>2023-07-30T13:20:13.000Z</time>
      </trkpt>
      <trkpt lat="43.66863" lon="1.44928">
        <ele>129.600315</ele>
        <time>2023-07-30T13:20:14.000Z</time>
      </trkpt>
      <trkpt lat="43.66869" lon="1.44929">
        <ele>129.588593</ele>
        <time>2023-07-30T13:20:15.000Z</time>
      </trkpt>
      <trkpt lat="43.66876" lon="1.44931">
        <ele>129.575311</ele>
        <time>2023-07-30T13:20:16.000Z</time>
      </trkpt>
      <trkpt lat="43.66882" lon="1.44933">
        <ele>129.563589</ele>
        <time>2023-07-30T13:20:17.000Z</time>
      </trkpt>
      <trkpt lat="43.66888" lon="1.44934">
        <ele>129.551311</ele>
        <time>2023-07-30T13:20:18.000Z</time>
      </trkpt>
      <trkpt lat="43.66895" lon="1.44936">
        <ele>129.538822</ele>
        <time>2023-07-30T13:20:19.000Z</time>
      </trkpt>
      <trkpt lat="43.66901" lon="1.44938">
        <ele>129.525613</ele>
        <time>2023-07-30T13:20:20.000Z</time>
      </trkpt>
      <trkpt lat="43.66908" lon="1.4494">
        <ele>129.513071</ele>
        <time>2023-07-30T13:20:21.000Z</time>
      </trkpt>
      <trkpt lat="43.66908" lon="1.4494">
        <ele>129.513071</ele>
        <time>2023-07-30T13:20:21.000Z</time>
      </trkpt>
      <trkpt lat="43.66914" lon="1.44942">
        <ele>129.501739</ele>
        <time>2023-07-30T13:20:22.000Z</time>
      </trkpt>
      <trkpt lat="43.66919" lon="1.44946">
        <ele>129.490468</ele>
        <time>2023-07-30T13:20:23.000Z</time>
      </trkpt>
      <trkpt lat="43.66925" lon="1.44952">
        <ele>129.476792</ele>
        <time>2023-07-30T13:20:24.000Z</time>
      </trkpt>
      <trkpt lat="43.66929" lon="1.44959">
        <ele>129.464306</ele>
        <time>2023-07-30T13:20:25.000Z</time>
      </trkpt>
      <trkpt lat="43.66929" lon="1.44959">
        <ele>129.464306</ele>
        <time>2023-07-30T13:20:25.000Z</time>
      </trkpt>
      <trkpt lat="43.66933" lon="1.44966">
        <ele>129.452003</ele>
        <time>2023-07-30T13:20:26.000Z</time>
      </trkpt>
      <trkpt lat="43.66936" lon="1.44975">
        <ele>129.439096</ele>
        <time>2023-07-30T13:20:27.000Z</time>
      </trkpt>
      <trkpt lat="43.66936" lon="1.44975">
        <ele>129.439096</ele>
        <time>2023-07-30T13:20:27.000Z</time>
      </trkpt>
      <trkpt lat="43.66939" lon="1.44983">
        <ele>129.426917</ele>
        <time>2023-07-30T13:20:28.000Z</time>
      </trkpt>
      <trkpt lat="43.66939" lon="1.44983">
        <ele>129.426917</ele>
        <time>2023-07-30T13:20:28.000Z</time>
      </trkpt>
      <trkpt lat="43.66942" lon="1.44991">
        <ele>129.416143</ele>
        <time>2023-07-30T13:20:29.000Z</time>
      </trkpt>
      <trkpt lat="43.66945" lon="1.45">
        <ele>129.429789</ele>
        <time>2023-07-30T13:20:30.000Z</time>
      </trkpt>
      <trkpt lat="43.66945" lon="1.45">
        <ele>129.429789</ele>
        <time>2023-07-30T13:20:30.000Z</time>
      </trkpt>
      <trkpt lat="43.66948" lon="1.45008">
        <ele>129.442953</ele>
        <time>2023-07-30T13:20:31.000Z</time>
      </trkpt>
      <trkpt lat="43.66951" lon="1.45017">
        <ele>129.457911</ele>
        <time>2023-07-30T13:20:32.000Z</time>
      </trkpt>
      <trkpt lat="43.66951" lon="1.45017">
        <ele>129.457911</ele>
        <time>2023-07-30T13:20:32.000Z</time>
      </trkpt>
      <trkpt lat="43.66954" lon="1.45025">
        <ele>129.471205</ele>
        <time>2023-07-30T13:20:33.000Z</time>
      </trkpt>
      <trkpt lat="43.66954" lon="1.45025">
        <ele>129.471205</ele>
        <time>2023-07-30T13:20:33.000Z</time>
      </trkpt>
      <trkpt lat="43.66958" lon="1.45033">
        <ele>129.484863</ele>
        <time>2023-07-30T13:20:34.000Z</time>
      </trkpt>
      <trkpt lat="43.66961" lon="1.45041">
        <ele>129.498544</ele>
        <time>2023-07-30T13:20:35.000Z</time>
      </trkpt>
      <trkpt lat="43.66965" lon="1.45049">
        <ele>129.512516</ele>
        <time>2023-07-30T13:20:36.000Z</time>
      </trkpt>
      <trkpt lat="43.66969" lon="1.45056">
        <ele>129.525773</ele>
        <time>2023-07-30T13:20:37.000Z</time>
      </trkpt>
      <trkpt lat="43.66972" lon="1.45063">
        <ele>129.538334</ele>
        <time>2023-07-30T13:20:38.000Z</time>
      </trkpt>
      <trkpt lat="43.66977" lon="1.45071">
        <ele>129.552923</ele>
        <time>2023-07-30T13:20:39.000Z</time>
      </trkpt>
      <trkpt lat="43.66977" lon="1.45071">
        <ele>129.552923</ele>
        <time>2023-07-30T13:20:39.000Z</time>
      </trkpt>
      <trkpt lat="43.66981" lon="1.45078">
        <ele>129.566061</ele>
        <time>2023-07-30T13:20:40.000Z</time>
      </trkpt>
      <trkpt lat="43.66985" lon="1.45086">
        <ele>129.579202</ele>
        <time>2023-07-30T13:20:41.000Z</time>
      </trkpt>
      <trkpt lat="43.66988" lon="1.45093">
        <ele>129.591763</ele>
        <time>2023-07-30T13:20:42.000Z</time>
      </trkpt>
      <trkpt lat="43.66992" lon="1.451">
        <ele>129.605734</ele>
        <time>2023-07-30T13:20:43.000Z</time>
      </trkpt>
      <trkpt lat="43.66996" lon="1.45108">
        <ele>129.618418</ele>
        <time>2023-07-30T13:20:44.000Z</time>
      </trkpt>
      <trkpt lat="43.66996" lon="1.45108">
        <ele>129.618418</ele>
        <time>2023-07-30T13:20:44.000Z</time>
      </trkpt>
      <trkpt lat="43.66999" lon="1.45115">
        <ele>129.630729</ele>
        <time>2023-07-30T13:20:45.000Z</time>
      </trkpt>
      <trkpt lat="43.67003" lon="1.45121">
        <ele>129.642925</ele>
        <time>2023-07-30T13:20:46.000Z</time>
      </trkpt>
      <trkpt lat="43.67006" lon="1.45128">
        <ele>129.654189</ele>
        <time>2023-07-30T13:20:47.000Z</time>
      </trkpt>
      <trkpt lat="43.67009" lon="1.45134">
        <ele>129.66532</ele>
        <time>2023-07-30T13:20:48.000Z</time>
      </trkpt>
      <trkpt lat="43.67011" lon="1.45141">
        <ele>129.67627</ele>
        <time>2023-07-30T13:20:49.000Z</time>
      </trkpt>
      <trkpt lat="43.67014" lon="1.45148">
        <ele>129.687152</ele>
        <time>2023-07-30T13:20:50.000Z</time>
      </trkpt>
      <trkpt lat="43.67017" lon="1.45154">
        <ele>129.698872</ele>
        <time>2023-07-30T13:20:50.000Z</time>
      </trkpt>
      <trkpt lat="43.67022" lon="1.45158">
        <ele>129.70962</ele>
        <time>2023-07-30T13:20:52.000Z</time>
      </trkpt>
      <trkpt lat="43.67022" lon="1.45158">
        <ele>129.70962</ele>
        <time>2023-07-30T13:20:52.000Z</time>
      </trkpt>
      <trkpt lat="43.67026" lon="1.45158">
        <ele>129.718727</ele>
        <time>2023-07-30T13:20:53.000Z</time>
      </trkpt>
      <trkpt lat="43.67031" lon="1.45156">
        <ele>129.728307</ele>
        <time>2023-07-30T13:20:54.000Z</time>
      </trkpt>
      <trkpt lat="43.67035" lon="1.45154">
        <ele>129.738186</ele>
        <time>2023-07-30T13:20:55.000Z</time>
      </trkpt>
      <trkpt lat="43.67041" lon="1.45151">
        <ele>129.75061</ele>
        <time>2023-07-30T13:20:56.000Z</time>
      </trkpt>
      <trkpt lat="43.67046" lon="1.45148">
        <ele>129.76101</ele>
        <time>2023-07-30T13:20:57.000Z</time>
      </trkpt>
      <trkpt lat="43.67051" lon="1.45144">
        <ele>129.773666</ele>
        <time>2023-07-30T13:20:58.000Z</time>
      </trkpt>
      <trkpt lat="43.67056" lon="1.45142">
        <ele>129.79962</ele>
        <time>2023-07-30T13:20:59.000Z</time>
      </trkpt>
      <trkpt lat="43.67061" lon="1.4514">
        <ele>129.852139</ele>
        <time>2023-07-30T13:21:00.000Z</time>
      </trkpt>
      <trkpt lat="43.67067" lon="1.4514">
        <ele>129.900903</ele>
        <time>2023-07-30T13:21:01.000Z</time>
      </trkpt>
      <trkpt lat="43.67071" lon="1.45143">
        <ele>129.942728</ele>
        <time>2023-07-30T13:21:02.000Z</time>
      </trkpt>
      <trkpt lat="43.67074" lon="1.45148">
        <ele>129.987076</ele>
        <time>2023-07-30T13:21:03.000Z</time>
      </trkpt>
      <trkpt lat="43.67078" lon="1.45155">
        <ele>130.04269</ele>
        <time>2023-07-30T13:21:04.000Z</time>
      </trkpt>
      <trkpt lat="43.67078" lon="1.45155">
        <ele>130.04269</ele>
        <time>2023-07-30T13:21:04.000Z</time>
      </trkpt>
      <trkpt lat="43.67081" lon="1.45161">
        <ele>130.096669</ele>
        <time>2023-07-30T13:21:05.000Z</time>
      </trkpt>
      <trkpt lat="43.67084" lon="1.45168">
        <ele>130.14648</ele>
        <time>2023-07-30T13:21:06.000Z</time>
      </trkpt>
      <trkpt lat="43.67084" lon="1.45168">
        <ele>130.14648</ele>
        <time>2023-07-30T13:21:06.000Z</time>
      </trkpt>
      <trkpt lat="43.67088" lon="1.45175">
        <ele>130.202059</ele>
        <time>2023-07-30T13:21:07.000Z</time>
      </trkpt>
      <trkpt lat="43.67088" lon="1.45175">
        <ele>130.202059</ele>
        <time>2023-07-30T13:21:07.000Z</time>
      </trkpt>
      <trkpt lat="43.67091" lon="1.45181">
        <ele>130.254981</ele>
        <time>2023-07-30T13:21:08.000Z</time>
      </trkpt>
      <trkpt lat="43.67095" lon="1.45188">
        <ele>130.311623</ele>
        <time>2023-07-30T13:21:09.000Z</time>
      </trkpt>
      <trkpt lat="43.67095" lon="1.45188">
        <ele>130.311623</ele>
        <time>2023-07-30T13:21:09.000Z</time>
      </trkpt>
      <trkpt lat="43.67099" lon="1.45195">
        <ele>130.3647</ele>
        <time>2023-07-30T13:21:10.000Z</time>
      </trkpt>
      <trkpt lat="43.67102" lon="1.452">
        <ele>130.414851</ele>
        <time>2023-07-30T13:21:11.000Z</time>
      </trkpt>
      <trkpt lat="43.67102" lon="1.452">
        <ele>130.414851</ele>
        <time>2023-07-30T13:21:11.000Z</time>
      </trkpt>
      <trkpt lat="43.67106" lon="1.45206">
        <ele>130.466938</ele>
        <time>2023-07-30T13:21:12.000Z</time>
      </trkpt>
      <trkpt lat="43.6711" lon="1.45211">
        <ele>130.512383</ele>
        <time>2023-07-30T13:21:13.000Z</time>
      </trkpt>
      <trkpt lat="43.67113" lon="1.45216">
        <ele>130.552836</ele>
        <time>2023-07-30T13:21:14.000Z</time>
      </trkpt>
      <trkpt lat="43.67113" lon="1.45216">
        <ele>130.552836</ele>
        <time>2023-07-30T13:21:14.000Z</time>
      </trkpt>
      <trkpt lat="43.67114" lon="1.45218">
        <ele>130.573678</ele>
        <time>2023-07-30T13:21:15.000Z</time>
      </trkpt>
      <trkpt lat="43.67115" lon="1.4522">
        <ele>130.590612</ele>
        <time>2023-07-30T13:21:16.000Z</time>
      </trkpt>
      <trkpt lat="43.67115" lon="1.4522">
        <ele>130.590612</ele>
        <time>2023-07-30T13:21:16.000Z</time>
      </trkpt>
      <trkpt lat="43.67118" lon="1.45224">
        <ele>130.625542</ele>
        <time>2023-07-30T13:21:17.000Z</time>
      </trkpt>
      <trkpt lat="43.6712" lon="1.4523">
        <ele>130.667881</ele>
        <time>2023-07-30T13:21:18.000Z</time>
      </trkpt>
      <trkpt lat="43.67123" lon="1.45234">
        <ele>130.700747</ele>
        <time>2023-07-30T13:21:19.000Z</time>
      </trkpt>
      <trkpt lat="43.67126" lon="1.4524">
        <ele>130.750529</ele>
        <time>2023-07-30T13:21:20.000Z</time>
      </trkpt>
      <trkpt lat="43.67129" lon="1.45246">
        <ele>130.798168</ele>
        <time>2023-07-30T13:21:21.000Z</time>
      </trkpt>
      <trkpt lat="43.67129" lon="1.45246">
        <ele>130.798168</ele>
        <time>2023-07-30T13:21:21.000Z</time>
      </trkpt>
      <trkpt lat="43.67132" lon="1.45252">
        <ele>130.845435</ele>
        <time>2023-07-30T13:21:22.000Z</time>
      </trkpt>
      <trkpt lat="43.67135" lon="1.45258">
        <ele>130.893063</ele>
        <time>2023-07-30T13:21:23.000Z</time>
      </trkpt>
      <trkpt lat="43.67138" lon="1.45264">
        <ele>130.941005</ele>
        <time>2023-07-30T13:21:24.000Z</time>
      </trkpt>
      <trkpt lat="43.6714" lon="1.4527">
        <ele>130.984961</ele>
        <time>2023-07-30T13:21:25.000Z</time>
      </trkpt>
      <trkpt lat="43.67143" lon="1.45276">
        <ele>131.032064</ele>
        <time>2023-07-30T13:21:26.000Z</time>
      </trkpt>
      <trkpt lat="43.67146" lon="1.45282">
        <ele>131.078772</ele>
        <time>2023-07-30T13:21:27.000Z</time>
      </trkpt>
      <trkpt lat="43.67149" lon="1.45288">
        <ele>131.125874</ele>
        <time>2023-07-30T13:21:28.000Z</time>
      </trkpt>
      <trkpt lat="43.67149" lon="1.45288">
        <ele>131.125874</ele>
        <time>2023-07-30T13:21:28.000Z</time>
      </trkpt>
      <trkpt lat="43.67152" lon="1.45294">
        <ele>131.173513</ele>
        <time>2023-07-30T13:21:29.000Z</time>
      </trkpt>
      <trkpt lat="43.67155" lon="1.45299">
        <ele>131.219053</ele>
        <time>2023-07-30T13:21:30.000Z</time>
      </trkpt>
      <trkpt lat="43.67158" lon="1.45305">
        <ele>131.262515</ele>
        <time>2023-07-30T13:21:31.000Z</time>
      </trkpt>
      <trkpt lat="43.6716" lon="1.45309">
        <ele>131.297569</ele>
        <time>2023-07-30T13:21:32.000Z</time>
      </trkpt>
      <trkpt lat="43.6716" lon="1.45309">
        <ele>131.297569</ele>
        <time>2023-07-30T13:21:32.000Z</time>
      </trkpt>
      <trkpt lat="43.67161" lon="1.45314">
        <ele>131.329338</ele>
        <time>2023-07-30T13:21:33.000Z</time>
      </trkpt>
      <trkpt lat="43.67163" lon="1.45317">
        <ele>131.352623</ele>
        <time>2023-07-30T13:21:34.000Z</time>
      </trkpt>
      <trkpt lat="43.67164" lon="1.4532">
        <ele>131.379758</ele>
        <time>2023-07-30T13:21:35.000Z</time>
      </trkpt>
      <trkpt lat="43.67164" lon="1.4532">
        <ele>131.379758</ele>
        <time>2023-07-30T13:21:35.000Z</time>
      </trkpt>
      <trkpt lat="43.67166" lon="1.45323">
        <ele>131.407855</ele>
        <time>2023-07-30T13:21:36.000Z</time>
      </trkpt>
      <trkpt lat="43.67168" lon="1.45328">
        <ele>131.462302</ele>
        <time>2023-07-30T13:21:37.000Z</time>
      </trkpt>
      <trkpt lat="43.67169" lon="1.45331">
        <ele>131.498474</ele>
        <time>2023-07-30T13:21:38.000Z</time>
      </trkpt>
      <trkpt lat="43.67169" lon="1.45331">
        <ele>131.498474</ele>
        <time>2023-07-30T13:21:38.000Z</time>
      </trkpt>
      <trkpt lat="43.67172" lon="1.45341">
        <ele>131.613499</ele>
        <time>2023-07-30T13:21:40.000Z</time>
      </trkpt>
      <trkpt lat="43.67172" lon="1.45341">
        <ele>131.613499</ele>
        <time>2023-07-30T13:21:40.000Z</time>
      </trkpt>
      <trkpt lat="43.67175" lon="1.45346">
        <ele>131.683248</ele>
        <time>2023-07-30T13:21:41.000Z</time>
      </trkpt>
      <trkpt lat="43.67177" lon="1.45351">
        <ele>131.745146</ele>
        <time>2023-07-30T13:21:42.000Z</time>
      </trkpt>
      <trkpt lat="43.67177" lon="1.45351">
        <ele>131.745146</ele>
        <time>2023-07-30T13:21:42.000Z</time>
      </trkpt>
      <trkpt lat="43.67179" lon="1.45356">
        <ele>131.809003</ele>
        <time>2023-07-30T13:21:43.000Z</time>
      </trkpt>
      <trkpt lat="43.67182" lon="1.45361">
        <ele>131.872774</ele>
        <time>2023-07-30T13:21:44.000Z</time>
      </trkpt>
      <trkpt lat="43.67182" lon="1.45361">
        <ele>131.872774</ele>
        <time>2023-07-30T13:21:44.000Z</time>
      </trkpt>
      <trkpt lat="43.67188" lon="1.45372">
        <ele>132.017527</ele>
        <time>2023-07-30T13:21:46.000Z</time>
      </trkpt>
      <trkpt lat="43.67191" lon="1.45376">
        <ele>132.079648</ele>
        <time>2023-07-30T13:21:47.000Z</time>
      </trkpt>
      <trkpt lat="43.67193" lon="1.45379">
        <ele>132.122819</ele>
        <time>2023-07-30T13:21:48.000Z</time>
      </trkpt>
      <trkpt lat="43.67193" lon="1.45379">
        <ele>132.122819</ele>
        <time>2023-07-30T13:21:48.000Z</time>
      </trkpt>
      <trkpt lat="43.67195" lon="1.45381">
        <ele>132.160371</ele>
        <time>2023-07-30T13:21:49.000Z</time>
      </trkpt>
      <trkpt lat="43.67195" lon="1.45381">
        <ele>132.160371</ele>
        <time>2023-07-30T13:21:49.000Z</time>
      </trkpt>
      <trkpt lat="43.67196" lon="1.45381">
        <ele>132.183898</ele>
        <time>2023-07-30T13:21:50.000Z</time>
      </trkpt>
      <trkpt lat="43.67196" lon="1.45381">
        <ele>132.183898</ele>
        <time>2023-07-30T13:21:50.000Z</time>
      </trkpt>
      <trkpt lat="43.67199" lon="1.45381">
        <ele>132.218279</ele>
        <time>2023-07-30T13:21:52.000Z</time>
      </trkpt>
      <trkpt lat="43.67199" lon="1.45381">
        <ele>132.218279</ele>
        <time>2023-07-30T13:21:52.000Z</time>
      </trkpt>
      <trkpt lat="43.67201" lon="1.45379">
        <ele>132.249905</ele>
        <time>2023-07-30T13:21:52.000Z</time>
      </trkpt>
      <trkpt lat="43.67201" lon="1.45379">
        <ele>132.249905</ele>
        <time>2023-07-30T13:21:52.000Z</time>
      </trkpt>
      <trkpt lat="43.67202" lon="1.45378">
        <ele>132.268681</ele>
        <time>2023-07-30T13:21:54.000Z</time>
      </trkpt>
      <trkpt lat="43.67202" lon="1.45378">
        <ele>132.268681</ele>
        <time>2023-07-30T13:21:54.000Z</time>
      </trkpt>
      <trkpt lat="43.67203" lon="1.45378">
        <ele>132.287426</ele>
        <time>2023-07-30T13:21:55.000Z</time>
      </trkpt>
      <trkpt lat="43.67204" lon="1.45377">
        <ele>132.306764</ele>
        <time>2023-07-30T13:21:56.000Z</time>
      </trkpt>
      <trkpt lat="43.67205" lon="1.45376">
        <ele>132.31966</ele>
        <time>2023-07-30T13:21:57.000Z</time>
      </trkpt>
      <trkpt lat="43.67208" lon="1.45373">
        <ele>132.377257</ele>
        <time>2023-07-30T13:21:59.000Z</time>
      </trkpt>
      <trkpt lat="43.67212" lon="1.4537">
        <ele>132.437675</ele>
        <time>2023-07-30T13:22:00.000Z</time>
      </trkpt>
      <trkpt lat="43.67217" lon="1.45366">
        <ele>132.525896</ele>
        <time>2023-07-30T13:22:01.000Z</time>
      </trkpt>
      <trkpt lat="43.67222" lon="1.4536">
        <ele>132.626211</ele>
        <time>2023-07-30T13:22:02.000Z</time>
      </trkpt>
      <trkpt lat="43.67222" lon="1.4536">
        <ele>132.626211</ele>
        <time>2023-07-30T13:22:02.000Z</time>
      </trkpt>
      <trkpt lat="43.67227" lon="1.45356">
        <ele>132.713273</ele>
        <time>2023-07-30T13:22:03.000Z</time>
      </trkpt>
      <trkpt lat="43.67232" lon="1.45352">
        <ele>132.7991</ele>
        <time>2023-07-30T13:22:04.000Z</time>
      </trkpt>
      <trkpt lat="43.67232" lon="1.45352">
        <ele>132.7991</ele>
        <time>2023-07-30T13:22:04.000Z</time>
      </trkpt>
      <trkpt lat="43.67238" lon="1.45347">
        <ele>132.891717</ele>
        <time>2023-07-30T13:22:05.000Z</time>
      </trkpt>
      <trkpt lat="43.67242" lon="1.45344">
        <ele>132.96321</ele>
        <time>2023-07-30T13:22:07.000Z</time>
      </trkpt>
      <trkpt lat="43.67246" lon="1.45341">
        <ele>133.032171</ele>
        <time>2023-07-30T13:22:08.000Z</time>
      </trkpt>
      <trkpt lat="43.67246" lon="1.45341">
        <ele>133.032171</ele>
        <time>2023-07-30T13:22:08.000Z</time>
      </trkpt>
      <trkpt lat="43.6725" lon="1.45339">
        <ele>133.09853</ele>
        <time>2023-07-30T13:22:09.000Z</time>
      </trkpt>
      <trkpt lat="43.6725" lon="1.45339">
        <ele>133.09853</ele>
        <time>2023-07-30T13:22:09.000Z</time>
      </trkpt>
      <trkpt lat="43.67254" lon="1.45337">
        <ele>133.163444</ele>
        <time>2023-07-30T13:22:10.000Z</time>
      </trkpt>
      <trkpt lat="43.67254" lon="1.45337">
        <ele>133.163444</ele>
        <time>2023-07-30T13:22:10.000Z</time>
      </trkpt>
      <trkpt lat="43.67259" lon="1.45335">
        <ele>133.228035</ele>
        <time>2023-07-30T13:22:11.000Z</time>
      </trkpt>
      <trkpt lat="43.67259" lon="1.45335">
        <ele>133.228035</ele>
        <time>2023-07-30T13:22:11.000Z</time>
      </trkpt>
      <trkpt lat="43.67263" lon="1.45332">
        <ele>133.299274</ele>
        <time>2023-07-30T13:22:13.000Z</time>
      </trkpt>
      <trkpt lat="43.67269" lon="1.45327">
        <ele>133.406833</ele>
        <time>2023-07-30T13:22:14.000Z</time>
      </trkpt>
      <trkpt lat="43.67273" lon="1.45323">
        <ele>133.480565</ele>
        <time>2023-07-30T13:22:15.000Z</time>
      </trkpt>
      <trkpt lat="43.67273" lon="1.45323">
        <ele>133.480565</ele>
        <time>2023-07-30T13:22:15.000Z</time>
      </trkpt>
      <trkpt lat="43.67278" lon="1.45319">
        <ele>133.562131</ele>
        <time>2023-07-30T13:22:16.000Z</time>
      </trkpt>
      <trkpt lat="43.67284" lon="1.45314">
        <ele>133.670378</ele>
        <time>2023-07-30T13:22:17.000Z</time>
      </trkpt>
      <trkpt lat="43.67284" lon="1.45314">
        <ele>133.670378</ele>
        <time>2023-07-30T13:22:17.000Z</time>
      </trkpt>
      <trkpt lat="43.6729" lon="1.45311">
        <ele>133.754503</ele>
        <time>2023-07-30T13:22:18.000Z</time>
      </trkpt>
      <trkpt lat="43.67295" lon="1.45308">
        <ele>133.833353</ele>
        <time>2023-07-30T13:22:19.000Z</time>
      </trkpt>
      <trkpt lat="43.673" lon="1.45306">
        <ele>133.911823</ele>
        <time>2023-07-30T13:22:20.000Z</time>
      </trkpt>
      <trkpt lat="43.673" lon="1.45306">
        <ele>133.911823</ele>
        <time>2023-07-30T13:22:20.000Z</time>
      </trkpt>
      <trkpt lat="43.67305" lon="1.45303">
        <ele>134.001041</ele>
        <time>2023-07-30T13:22:21.000Z</time>
      </trkpt>
      <trkpt lat="43.67305" lon="1.45303">
        <ele>134.001041</ele>
        <time>2023-07-30T13:22:21.000Z</time>
      </trkpt>
      <trkpt lat="43.67312" lon="1.453">
        <ele>134.039677</ele>
        <time>2023-07-30T13:22:22.000Z</time>
      </trkpt>
      <trkpt lat="43.67317" lon="1.45298">
        <ele>134.03179</ele>
        <time>2023-07-30T13:22:23.000Z</time>
      </trkpt>
      <trkpt lat="43.67323" lon="1.45297">
        <ele>134.024092</ele>
        <time>2023-07-30T13:22:24.000Z</time>
      </trkpt>
      <trkpt lat="43.67329" lon="1.45297">
        <ele>134.016422</ele>
        <time>2023-07-30T13:22:25.000Z</time>
      </trkpt>
      <trkpt lat="43.67335" lon="1.45299">
        <ele>134.007587</ele>
        <time>2023-07-30T13:22:26.000Z</time>
      </trkpt>
      <trkpt lat="43.67342" lon="1.45301">
        <ele>133.998608</ele>
        <time>2023-07-30T13:22:27.000Z</time>
      </trkpt>
      <trkpt lat="43.67348" lon="1.45303">
        <ele>133.990197</ele>
        <time>2023-07-30T13:22:28.000Z</time>
      </trkpt>
      <trkpt lat="43.67348" lon="1.45303">
        <ele>133.990197</ele>
        <time>2023-07-30T13:22:28.000Z</time>
      </trkpt>
      <trkpt lat="43.67354" lon="1.45305">
        <ele>133.981806</ele>
        <time>2023-07-30T13:22:29.000Z</time>
      </trkpt>
      <trkpt lat="43.6736" lon="1.45306">
        <ele>133.973488</ele>
        <time>2023-07-30T13:22:30.000Z</time>
      </trkpt>
      <trkpt lat="43.6736" lon="1.45306">
        <ele>133.973488</ele>
        <time>2023-07-30T13:22:30.000Z</time>
      </trkpt>
      <trkpt lat="43.67366" lon="1.45307">
        <ele>133.965255</ele>
        <time>2023-07-30T13:22:31.000Z</time>
      </trkpt>
      <trkpt lat="43.67372" lon="1.45307">
        <ele>133.957586</ele>
        <time>2023-07-30T13:22:32.000Z</time>
      </trkpt>
      <trkpt lat="43.67378" lon="1.45305">
        <ele>133.948737</ele>
        <time>2023-07-30T13:22:33.000Z</time>
      </trkpt>
      <trkpt lat="43.67384" lon="1.45303">
        <ele>133.940647</ele>
        <time>2023-07-30T13:22:34.000Z</time>
      </trkpt>
      <trkpt lat="43.6739" lon="1.45301">
        <ele>133.932686</ele>
        <time>2023-07-30T13:22:35.000Z</time>
      </trkpt>
      <trkpt lat="43.6739" lon="1.45301">
        <ele>133.932686</ele>
        <time>2023-07-30T13:22:35.000Z</time>
      </trkpt>
      <trkpt lat="43.67396" lon="1.45298">
        <ele>133.92407</ele>
        <time>2023-07-30T13:22:36.000Z</time>
      </trkpt>
      <trkpt lat="43.67402" lon="1.45295">
        <ele>133.915757</ele>
        <time>2023-07-30T13:22:37.000Z</time>
      </trkpt>
      <trkpt lat="43.67407" lon="1.45291">
        <ele>133.907445</ele>
        <time>2023-07-30T13:22:38.000Z</time>
      </trkpt>
      <trkpt lat="43.67413" lon="1.45288">
        <ele>133.898932</ele>
        <time>2023-07-30T13:22:39.000Z</time>
      </trkpt>
      <trkpt lat="43.67419" lon="1.45285">
        <ele>133.890656</ele>
        <time>2023-07-30T13:22:40.000Z</time>
      </trkpt>
      <trkpt lat="43.67419" lon="1.45285">
        <ele>133.890656</ele>
        <time>2023-07-30T13:22:40.000Z</time>
      </trkpt>
      <trkpt lat="43.67424" lon="1.45284">
        <ele>133.882949</ele>
        <time>2023-07-30T13:22:40.000Z</time>
      </trkpt>
      <trkpt lat="43.6743" lon="1.45285">
        <ele>133.875232</ele>
        <time>2023-07-30T13:22:42.000Z</time>
      </trkpt>
      <trkpt lat="43.67435" lon="1.4529">
        <ele>133.8673</ele>
        <time>2023-07-30T13:22:43.000Z</time>
      </trkpt>
      <trkpt lat="43.67439" lon="1.45296">
        <ele>133.859315</ele>
        <time>2023-07-30T13:22:44.000Z</time>
      </trkpt>
      <trkpt lat="43.67442" lon="1.45302">
        <ele>133.851431</ele>
        <time>2023-07-30T13:22:45.000Z</time>
      </trkpt>
      <trkpt lat="43.67445" lon="1.4531">
        <ele>133.842857</ele>
        <time>2023-07-30T13:22:46.000Z</time>
      </trkpt>
      <trkpt lat="43.67448" lon="1.45317">
        <ele>133.83494</ele>
        <time>2023-07-30T13:22:47.000Z</time>
      </trkpt>
      <trkpt lat="43.67452" lon="1.45324">
        <ele>133.82646</ele>
        <time>2023-07-30T13:22:48.000Z</time>
      </trkpt>
      <trkpt lat="43.67456" lon="1.45331">
        <ele>133.817863</ele>
        <time>2023-07-30T13:22:49.000Z</time>
      </trkpt>
      <trkpt lat="43.67456" lon="1.45331">
        <ele>133.817863</ele>
        <time>2023-07-30T13:22:49.000Z</time>
      </trkpt>
      <trkpt lat="43.67459" lon="1.45337">
        <ele>133.810636</ele>
        <time>2023-07-30T13:22:50.000Z</time>
      </trkpt>
      <trkpt lat="43.67462" lon="1.45345">
        <ele>133.803038</ele>
        <time>2023-07-30T13:22:51.000Z</time>
      </trkpt>
      <trkpt lat="43.67462" lon="1.45345">
        <ele>133.803038</ele>
        <time>2023-07-30T13:22:51.000Z</time>
      </trkpt>
      <trkpt lat="43.67464" lon="1.45352">
        <ele>133.821826</ele>
        <time>2023-07-30T13:22:52.000Z</time>
      </trkpt>
      <trkpt lat="43.67467" lon="1.45359">
        <ele>133.841248</ele>
        <time>2023-07-30T13:22:53.000Z</time>
      </trkpt>
      <trkpt lat="43.67471" lon="1.45366">
        <ele>133.860401</ele>
        <time>2023-07-30T13:22:54.000Z</time>
      </trkpt>
      <trkpt lat="43.67475" lon="1.45371">
        <ele>133.878763</ele>
        <time>2023-07-30T13:22:55.000Z</time>
      </trkpt>
      <trkpt lat="43.6748" lon="1.45375">
        <ele>133.898717</ele>
        <time>2023-07-30T13:22:56.000Z</time>
      </trkpt>
      <trkpt lat="43.67484" lon="1.4538">
        <ele>133.917043</ele>
        <time>2023-07-30T13:22:57.000Z</time>
      </trkpt>
      <trkpt lat="43.67489" lon="1.45383">
        <ele>133.934606</ele>
        <time>2023-07-30T13:22:58.000Z</time>
      </trkpt>
      <trkpt lat="43.67489" lon="1.45383">
        <ele>133.934606</ele>
        <time>2023-07-30T13:22:58.000Z</time>
      </trkpt>
      <trkpt lat="43.67494" lon="1.45385">
        <ele>133.952618</ele>
        <time>2023-07-30T13:22:59.000Z</time>
      </trkpt>
      <trkpt lat="43.675" lon="1.45386">
        <ele>133.97015</ele>
        <time>2023-07-30T13:23:00.000Z</time>
      </trkpt>
      <trkpt lat="43.67504" lon="1.45383">
        <ele>133.986936</ele>
        <time>2023-07-30T13:23:01.000Z</time>
      </trkpt>
      <trkpt lat="43.67509" lon="1.45378">
        <ele>134.006496</ele>
        <time>2023-07-30T13:23:02.000Z</time>
      </trkpt>
      <trkpt lat="43.67513" lon="1.45373">
        <ele>134.024945</ele>
        <time>2023-07-30T13:23:03.000Z</time>
      </trkpt>
      <trkpt lat="43.67518" lon="1.45367">
        <ele>134.045048</ele>
        <time>2023-07-30T13:23:04.000Z</time>
      </trkpt>
      <trkpt lat="43.67518" lon="1.45367">
        <ele>134.045048</ele>
        <time>2023-07-30T13:23:04.000Z</time>
      </trkpt>
      <trkpt lat="43.67522" lon="1.45362">
        <ele>134.06414</ele>
        <time>2023-07-30T13:23:05.000Z</time>
      </trkpt>
      <trkpt lat="43.67526" lon="1.45357">
        <ele>134.082431</ele>
        <time>2023-07-30T13:23:06.000Z</time>
      </trkpt>
      <trkpt lat="43.67531" lon="1.45352">
        <ele>134.101585</ele>
        <time>2023-07-30T13:23:07.000Z</time>
      </trkpt>
      <trkpt lat="43.67536" lon="1.45349">
        <ele>134.120302</ele>
        <time>2023-07-30T13:23:08.000Z</time>
      </trkpt>
      <trkpt lat="43.67541" lon="1.45345">
        <ele>134.138504</ele>
        <time>2023-07-30T13:23:09.000Z</time>
      </trkpt>
      <trkpt lat="43.67545" lon="1.45344">
        <ele>134.154049</ele>
        <time>2023-07-30T13:23:10.000Z</time>
      </trkpt>
      <trkpt lat="43.67545" lon="1.45344">
        <ele>134.154049</ele>
        <time>2023-07-30T13:23:10.000Z</time>
      </trkpt>
      <trkpt lat="43.6755" lon="1.45342">
        <ele>134.170934</ele>
        <time>2023-07-30T13:23:11.000Z</time>
      </trkpt>
      <trkpt lat="43.6755" lon="1.45342">
        <ele>134.170934</ele>
        <time>2023-07-30T13:23:11.000Z</time>
      </trkpt>
      <trkpt lat="43.67555" lon="1.45343">
        <ele>134.184896</ele>
        <time>2023-07-30T13:23:12.000Z</time>
      </trkpt>
      <trkpt lat="43.67558" lon="1.45342">
        <ele>134.194979</ele>
        <time>2023-07-30T13:23:13.000Z</time>
      </trkpt>
      <trkpt lat="43.67558" lon="1.45342">
        <ele>134.194979</ele>
        <time>2023-07-30T13:23:13.000Z</time>
      </trkpt>
      <trkpt lat="43.67561" lon="1.4534">
        <ele>134.208315</ele>
        <time>2023-07-30T13:23:14.000Z</time>
      </trkpt>
      <trkpt lat="43.67565" lon="1.45339">
        <ele>134.220482</ele>
        <time>2023-07-30T13:23:15.000Z</time>
      </trkpt>
      <trkpt lat="43.67565" lon="1.45339">
        <ele>134.220482</ele>
        <time>2023-07-30T13:23:15.000Z</time>
      </trkpt>
      <trkpt lat="43.6757" lon="1.45335">
        <ele>134.239866</ele>
        <time>2023-07-30T13:23:16.000Z</time>
      </trkpt>
      <trkpt lat="43.67576" lon="1.45332">
        <ele>134.259651</ele>
        <time>2023-07-30T13:23:17.000Z</time>
      </trkpt>
      <trkpt lat="43.6758" lon="1.45328">
        <ele>134.276244</ele>
        <time>2023-07-30T13:23:18.000Z</time>
      </trkpt>
      <trkpt lat="43.67585" lon="1.45325">
        <ele>134.295634</ele>
        <time>2023-07-30T13:23:19.000Z</time>
      </trkpt>
      <trkpt lat="43.6759" lon="1.45323">
        <ele>134.311777</ele>
        <time>2023-07-30T13:23:20.000Z</time>
      </trkpt>
      <trkpt lat="43.67595" lon="1.4532">
        <ele>134.329015</ele>
        <time>2023-07-30T13:23:21.000Z</time>
      </trkpt>
      <trkpt lat="43.67595" lon="1.4532">
        <ele>134.329015</ele>
        <time>2023-07-30T13:23:21.000Z</time>
      </trkpt>
      <trkpt lat="43.676" lon="1.45318">
        <ele>134.346193</ele>
        <time>2023-07-30T13:23:22.000Z</time>
      </trkpt>
      <trkpt lat="43.67605" lon="1.45317">
        <ele>134.364001</ele>
        <time>2023-07-30T13:23:23.000Z</time>
      </trkpt>
      <trkpt lat="43.67611" lon="1.45316">
        <ele>134.382995</ele>
        <time>2023-07-30T13:23:24.000Z</time>
      </trkpt>
      <trkpt lat="43.67616" lon="1.45315">
        <ele>134.397958</ele>
        <time>2023-07-30T13:23:25.000Z</time>
      </trkpt>
      <trkpt lat="43.67621" lon="1.45314">
        <ele>134.403811</ele>
        <time>2023-07-30T13:23:26.000Z</time>
      </trkpt>
      <trkpt lat="43.67627" lon="1.45314">
        <ele>134.411845</ele>
        <time>2023-07-30T13:23:27.000Z</time>
      </trkpt>
      <trkpt lat="43.67632" lon="1.45313">
        <ele>134.41771</ele>
        <time>2023-07-30T13:23:28.000Z</time>
      </trkpt>
      <trkpt lat="43.67637" lon="1.45311">
        <ele>134.424304</ele>
        <time>2023-07-30T13:23:29.000Z</time>
      </trkpt>
      <trkpt lat="43.67641" lon="1.4531">
        <ele>134.429988</ele>
        <time>2023-07-30T13:23:30.000Z</time>
      </trkpt>
      <trkpt lat="43.67643" lon="1.45309">
        <ele>134.433557</ele>
        <time>2023-07-30T13:23:31.000Z</time>
      </trkpt>
      <trkpt lat="43.67647" lon="1.45309">
        <ele>134.438469</ele>
        <time>2023-07-30T13:23:32.000Z</time>
      </trkpt>
      <trkpt lat="43.67651" lon="1.4531">
        <ele>134.444054</ele>
        <time>2023-07-30T13:23:33.000Z</time>
      </trkpt>
      <trkpt lat="43.67656" lon="1.45313">
        <ele>134.450907</ele>
        <time>2023-07-30T13:23:34.000Z</time>
      </trkpt>
      <trkpt lat="43.67662" lon="1.45315">
        <ele>134.458184</ele>
        <time>2023-07-30T13:23:35.000Z</time>
      </trkpt>
      <trkpt lat="43.67667" lon="1.45317">
        <ele>134.464652</ele>
        <time>2023-07-30T13:23:36.000Z</time>
      </trkpt>
      <trkpt lat="43.67667" lon="1.45317">
        <ele>134.464652</ele>
        <time>2023-07-30T13:23:36.000Z</time>
      </trkpt>
      <trkpt lat="43.67672" lon="1.45318">
        <ele>134.471753</ele>
        <time>2023-07-30T13:23:37.000Z</time>
      </trkpt>
      <trkpt lat="43.67677" lon="1.45319">
        <ele>134.478186</ele>
        <time>2023-07-30T13:23:38.000Z</time>
      </trkpt>
      <trkpt lat="43.67683" lon="1.4532">
        <ele>134.485639</ele>
        <time>2023-07-30T13:23:39.000Z</time>
      </trkpt>
      <trkpt lat="43.67688" lon="1.45321">
        <ele>134.492126</ele>
        <time>2023-07-30T13:23:40.000Z</time>
      </trkpt>
      <trkpt lat="43.67693" lon="1.45322">
        <ele>134.498632</ele>
        <time>2023-07-30T13:23:41.000Z</time>
      </trkpt>
      <trkpt lat="43.67693" lon="1.45322">
        <ele>134.498632</ele>
        <time>2023-07-30T13:23:41.000Z</time>
      </trkpt>
      <trkpt lat="43.67698" lon="1.45323">
        <ele>134.505065</ele>
        <time>2023-07-30T13:23:42.000Z</time>
      </trkpt>
      <trkpt lat="43.67698" lon="1.45322">
        <ele>134.506523</ele>
        <time>2023-07-30T13:23:43.000Z</time>
      </trkpt>
      <trkpt lat="43.67698" lon="1.45322">
        <ele>134.506523</ele>
        <time>2023-07-30T13:23:43.000Z</time>
      </trkpt>
      <trkpt lat="43.67706" lon="1.45324">
        <ele>134.51649</ele>
        <time>2023-07-30T13:23:45.000Z</time>
      </trkpt>
      <trkpt lat="43.67708" lon="1.45322">
        <ele>134.519467</ele>
        <time>2023-07-30T13:23:46.000Z</time>
      </trkpt>
      <trkpt lat="43.67712" lon="1.45323">
        <ele>134.524936</ele>
        <time>2023-07-30T13:23:47.000Z</time>
      </trkpt>
      <trkpt lat="43.67712" lon="1.45323">
        <ele>134.524936</ele>
        <time>2023-07-30T13:23:47.000Z</time>
      </trkpt>
      <trkpt lat="43.67717" lon="1.45324">
        <ele>134.53109</ele>
        <time>2023-07-30T13:23:48.000Z</time>
      </trkpt>
      <trkpt lat="43.67719" lon="1.45328">
        <ele>134.535443</ele>
        <time>2023-07-30T13:23:49.000Z</time>
      </trkpt>
      <trkpt lat="43.6772" lon="1.45333">
        <ele>134.54085</ele>
        <time>2023-07-30T13:23:50.000Z</time>
      </trkpt>
      <trkpt lat="43.67723" lon="1.45337">
        <ele>134.545628</ele>
        <time>2023-07-30T13:23:52.000Z</time>
      </trkpt>
      <trkpt lat="43.67723" lon="1.45337">
        <ele>134.545628</ele>
        <time>2023-07-30T13:23:52.000Z</time>
      </trkpt>
      <trkpt lat="43.67725" lon="1.45339">
        <ele>134.549191</ele>
        <time>2023-07-30T13:23:53.000Z</time>
      </trkpt>
      <trkpt lat="43.67729" lon="1.45344">
        <ele>134.556175</ele>
        <time>2023-07-30T13:23:54.000Z</time>
      </trkpt>
      <trkpt lat="43.67729" lon="1.45344">
        <ele>134.556175</ele>
        <time>2023-07-30T13:23:54.000Z</time>
      </trkpt>
      <trkpt lat="43.67738" lon="1.45351">
        <ele>134.568901</ele>
        <time>2023-07-30T13:23:56.000Z</time>
      </trkpt>
      <trkpt lat="43.67741" lon="1.45353">
        <ele>134.573794</ele>
        <time>2023-07-30T13:23:57.000Z</time>
      </trkpt>
      <trkpt lat="43.67745" lon="1.45356">
        <ele>134.579742</ele>
        <time>2023-07-30T13:23:58.000Z</time>
      </trkpt>
      <trkpt lat="43.6775" lon="1.45359">
        <ele>134.586166</ele>
        <time>2023-07-30T13:23:59.000Z</time>
      </trkpt>
      <trkpt lat="43.67756" lon="1.45363">
        <ele>134.59544</ele>
        <time>2023-07-30T13:24:00.000Z</time>
      </trkpt>
      <trkpt lat="43.67767" lon="1.45371">
        <ele>134.611638</ele>
        <time>2023-07-30T13:24:02.000Z</time>
      </trkpt>
      <trkpt lat="43.6777" lon="1.45373">
        <ele>134.616186</ele>
        <time>2023-07-30T13:24:03.000Z</time>
      </trkpt>
      <trkpt lat="43.67775" lon="1.45377">
        <ele>134.622928</ele>
        <time>2023-07-30T13:24:04.000Z</time>
      </trkpt>
      <trkpt lat="43.67779" lon="1.4538">
        <ele>134.630176</ele>
        <time>2023-07-30T13:24:05.000Z</time>
      </trkpt>
      <trkpt lat="43.67784" lon="1.45383">
        <ele>134.649754</ele>
        <time>2023-07-30T13:24:06.000Z</time>
      </trkpt>
      <trkpt lat="43.67788" lon="1.45388">
        <ele>134.669115</ele>
        <time>2023-07-30T13:24:07.000Z</time>
      </trkpt>
      <trkpt lat="43.67793" lon="1.45392">
        <ele>134.691581</ele>
        <time>2023-07-30T13:24:08.000Z</time>
      </trkpt>
      <trkpt lat="43.67797" lon="1.45396">
        <ele>134.710942</ele>
        <time>2023-07-30T13:24:09.000Z</time>
      </trkpt>
      <trkpt lat="43.67802" lon="1.45401">
        <ele>134.73437</ele>
        <time>2023-07-30T13:24:10.000Z</time>
      </trkpt>
      <trkpt lat="43.67806" lon="1.45406">
        <ele>134.754032</ele>
        <time>2023-07-30T13:24:11.000Z</time>
      </trkpt>
      <trkpt lat="43.67811" lon="1.45411">
        <ele>134.777128</ele>
        <time>2023-07-30T13:24:12.000Z</time>
      </trkpt>
      <trkpt lat="43.67816" lon="1.45416">
        <ele>134.800207</ele>
        <time>2023-07-30T13:24:13.000Z</time>
      </trkpt>
      <trkpt lat="43.67821" lon="1.45421">
        <ele>134.823487</ele>
        <time>2023-07-30T13:24:14.000Z</time>
      </trkpt>
      <trkpt lat="43.67826" lon="1.45425">
        <ele>134.84524</ele>
        <time>2023-07-30T13:24:15.000Z</time>
      </trkpt>
      <trkpt lat="43.67831" lon="1.45429">
        <ele>134.86811</ele>
        <time>2023-07-30T13:24:16.000Z</time>
      </trkpt>
      <trkpt lat="43.67836" lon="1.45433">
        <ele>134.888119</ele>
        <time>2023-07-30T13:24:17.000Z</time>
      </trkpt>
      <trkpt lat="43.67836" lon="1.45433">
        <ele>134.888119</ele>
        <time>2023-07-30T13:24:17.000Z</time>
      </trkpt>
      <trkpt lat="43.67839" lon="1.45439">
        <ele>134.906684</ele>
        <time>2023-07-30T13:24:18.000Z</time>
      </trkpt>
      <trkpt lat="43.67841" lon="1.45445">
        <ele>134.926439</ele>
        <time>2023-07-30T13:24:18.000Z</time>
      </trkpt>
      <trkpt lat="43.67841" lon="1.45445">
        <ele>134.926439</ele>
        <time>2023-07-30T13:24:18.000Z</time>
      </trkpt>
      <trkpt lat="43.67845" lon="1.4545">
        <ele>134.945196</ele>
        <time>2023-07-30T13:24:20.000Z</time>
      </trkpt>
      <trkpt lat="43.67845" lon="1.4545">
        <ele>134.945196</ele>
        <time>2023-07-30T13:24:20.000Z</time>
      </trkpt>
      <trkpt lat="43.67849" lon="1.45453">
        <ele>134.96224</ele>
        <time>2023-07-30T13:24:21.000Z</time>
      </trkpt>
      <trkpt lat="43.67849" lon="1.45453">
        <ele>134.96224</ele>
        <time>2023-07-30T13:24:21.000Z</time>
      </trkpt>
      <trkpt lat="43.67852" lon="1.45452">
        <ele>134.976919</ele>
        <time>2023-07-30T13:24:22.000Z</time>
      </trkpt>
      <trkpt lat="43.67858" lon="1.4545">
        <ele>134.997921</ele>
        <time>2023-07-30T13:24:23.000Z</time>
      </trkpt>
      <trkpt lat="43.67858" lon="1.4545">
        <ele>134.997921</ele>
        <time>2023-07-30T13:24:23.000Z</time>
      </trkpt>
      <trkpt lat="43.67863" lon="1.45446">
        <ele>135.02099</ele>
        <time>2023-07-30T13:24:24.000Z</time>
      </trkpt>
      <trkpt lat="43.67869" lon="1.45441">
        <ele>135.045708</ele>
        <time>2023-07-30T13:24:25.000Z</time>
      </trkpt>
      <trkpt lat="43.67874" lon="1.45437">
        <ele>135.067739</ele>
        <time>2023-07-30T13:24:26.000Z</time>
      </trkpt>
      <trkpt lat="43.67879" lon="1.45433">
        <ele>135.089594</ele>
        <time>2023-07-30T13:24:27.000Z</time>
      </trkpt>
      <trkpt lat="43.67879" lon="1.45433">
        <ele>135.089594</ele>
        <time>2023-07-30T13:24:27.000Z</time>
      </trkpt>
      <trkpt lat="43.67884" lon="1.45428">
        <ele>135.111913</ele>
        <time>2023-07-30T13:24:28.000Z</time>
      </trkpt>
      <trkpt lat="43.67884" lon="1.45428">
        <ele>135.111913</ele>
        <time>2023-07-30T13:24:28.000Z</time>
      </trkpt>
      <trkpt lat="43.67888" lon="1.45424">
        <ele>135.132976</ele>
        <time>2023-07-30T13:24:29.000Z</time>
      </trkpt>
      <trkpt lat="43.67893" lon="1.45419">
        <ele>135.15282</ele>
        <time>2023-07-30T13:24:30.000Z</time>
      </trkpt>
      <trkpt lat="43.67893" lon="1.45419">
        <ele>135.15282</ele>
        <time>2023-07-30T13:24:30.000Z</time>
      </trkpt>
      <trkpt lat="43.67897" lon="1.45415">
        <ele>135.1725</ele>
        <time>2023-07-30T13:24:31.000Z</time>
      </trkpt>
      <trkpt lat="43.67902" lon="1.45411">
        <ele>135.19421</ele>
        <time>2023-07-30T13:24:32.000Z</time>
      </trkpt>
      <trkpt lat="43.67906" lon="1.45407">
        <ele>135.213852</ele>
        <time>2023-07-30T13:24:33.000Z</time>
      </trkpt>
      <trkpt lat="43.67906" lon="1.45407">
        <ele>135.213852</ele>
        <time>2023-07-30T13:24:33.000Z</time>
      </trkpt>
      <trkpt lat="43.6791" lon="1.45404">
        <ele>135.232319</ele>
        <time>2023-07-30T13:24:34.000Z</time>
      </trkpt>
      <trkpt lat="43.67915" lon="1.454">
        <ele>135.253344</ele>
        <time>2023-07-30T13:24:35.000Z</time>
      </trkpt>
      <trkpt lat="43.67919" lon="1.45397">
        <ele>135.271155</ele>
        <time>2023-07-30T13:24:36.000Z</time>
      </trkpt>
      <trkpt lat="43.67924" lon="1.45393">
        <ele>135.292446</ele>
        <time>2023-07-30T13:24:37.000Z</time>
      </trkpt>
      <trkpt lat="43.67929" lon="1.45389">
        <ele>135.313145</ele>
        <time>2023-07-30T13:24:38.000Z</time>
      </trkpt>
      <trkpt lat="43.67934" lon="1.45386">
        <ele>135.338418</ele>
        <time>2023-07-30T13:24:39.000Z</time>
      </trkpt>
      <trkpt lat="43.67938" lon="1.45383">
        <ele>135.361631</ele>
        <time>2023-07-30T13:24:40.000Z</time>
      </trkpt>
      <trkpt lat="43.67938" lon="1.45383">
        <ele>135.361631</ele>
        <time>2023-07-30T13:24:40.000Z</time>
      </trkpt>
      <trkpt lat="43.67943" lon="1.4538">
        <ele>135.385252</ele>
        <time>2023-07-30T13:24:41.000Z</time>
      </trkpt>
      <trkpt lat="43.67948" lon="1.45377">
        <ele>135.412072</ele>
        <time>2023-07-30T13:24:42.000Z</time>
      </trkpt>
      <trkpt lat="43.67953" lon="1.45374">
        <ele>135.435918</ele>
        <time>2023-07-30T13:24:43.000Z</time>
      </trkpt>
      <trkpt lat="43.67953" lon="1.45374">
        <ele>135.435918</ele>
        <time>2023-07-30T13:24:43.000Z</time>
      </trkpt>
      <trkpt lat="43.67958" lon="1.45372">
        <ele>135.460422</ele>
        <time>2023-07-30T13:24:44.000Z</time>
      </trkpt>
      <trkpt lat="43.67958" lon="1.45372">
        <ele>135.460422</ele>
        <time>2023-07-30T13:24:44.000Z</time>
      </trkpt>
      <trkpt lat="43.67963" lon="1.45369">
        <ele>135.484618</ele>
        <time>2023-07-30T13:24:45.000Z</time>
      </trkpt>
      <trkpt lat="43.67968" lon="1.45366">
        <ele>135.50962</ele>
        <time>2023-07-30T13:24:46.000Z</time>
      </trkpt>
      <trkpt lat="43.67973" lon="1.45363">
        <ele>135.536563</ele>
        <time>2023-07-30T13:24:47.000Z</time>
      </trkpt>
      <trkpt lat="43.67978" lon="1.45358">
        <ele>135.560146</ele>
        <time>2023-07-30T13:24:48.000Z</time>
      </trkpt>
      <trkpt lat="43.67982" lon="1.45354">
        <ele>135.584724</ele>
        <time>2023-07-30T13:24:49.000Z</time>
      </trkpt>
      <trkpt lat="43.67987" lon="1.4535">
        <ele>135.612825</ele>
        <time>2023-07-30T13:24:50.000Z</time>
      </trkpt>
      <trkpt lat="43.67987" lon="1.4535">
        <ele>135.612825</ele>
        <time>2023-07-30T13:24:50.000Z</time>
      </trkpt>
      <trkpt lat="43.67992" lon="1.45346">
        <ele>135.638278</ele>
        <time>2023-07-30T13:24:51.000Z</time>
      </trkpt>
      <trkpt lat="43.67992" lon="1.45346">
        <ele>135.638278</ele>
        <time>2023-07-30T13:24:51.000Z</time>
      </trkpt>
      <trkpt lat="43.68003" lon="1.45338">
        <ele>135.693764</ele>
        <time>2023-07-30T13:24:53.000Z</time>
      </trkpt>
      <trkpt lat="43.68006" lon="1.45337">
        <ele>135.710586</ele>
        <time>2023-07-30T13:24:54.000Z</time>
      </trkpt>
      <trkpt lat="43.68006" lon="1.45337">
        <ele>135.710586</ele>
        <time>2023-07-30T13:24:54.000Z</time>
      </trkpt>
      <trkpt lat="43.6801" lon="1.45334">
        <ele>135.732271</ele>
        <time>2023-07-30T13:24:55.000Z</time>
      </trkpt>
      <trkpt lat="43.68015" lon="1.45331">
        <ele>135.753956</ele>
        <time>2023-07-30T13:24:56.000Z</time>
      </trkpt>
      <trkpt lat="43.68015" lon="1.45331">
        <ele>135.753956</ele>
        <time>2023-07-30T13:24:56.000Z</time>
      </trkpt>
      <trkpt lat="43.68019" lon="1.45327">
        <ele>135.77804</ele>
        <time>2023-07-30T13:24:57.000Z</time>
      </trkpt>
      <trkpt lat="43.68024" lon="1.45323">
        <ele>135.802792</ele>
        <time>2023-07-30T13:24:57.000Z</time>
      </trkpt>
      <trkpt lat="43.68024" lon="1.45323">
        <ele>135.802792</ele>
        <time>2023-07-30T13:24:57.000Z</time>
      </trkpt>
      <trkpt lat="43.68029" lon="1.45319">
        <ele>135.828563</ele>
        <time>2023-07-30T13:24:58.000Z</time>
      </trkpt>
      <trkpt lat="43.68033" lon="1.45316">
        <ele>135.853143</ele>
        <time>2023-07-30T13:24:59.000Z</time>
      </trkpt>
      <trkpt lat="43.68033" lon="1.45316">
        <ele>135.853143</ele>
        <time>2023-07-30T13:24:59.000Z</time>
      </trkpt>
      <trkpt lat="43.68037" lon="1.45312">
        <ele>135.875302</ele>
        <time>2023-07-30T13:25:00.000Z</time>
      </trkpt>
      <trkpt lat="43.68042" lon="1.45308">
        <ele>135.901636</ele>
        <time>2023-07-30T13:25:01.000Z</time>
      </trkpt>
      <trkpt lat="43.68047" lon="1.45304">
        <ele>135.926562</ele>
        <time>2023-07-30T13:25:02.000Z</time>
      </trkpt>
      <trkpt lat="43.68052" lon="1.45301">
        <ele>135.950578</ele>
        <time>2023-07-30T13:25:03.000Z</time>
      </trkpt>
      <trkpt lat="43.68052" lon="1.45301">
        <ele>135.950578</ele>
        <time>2023-07-30T13:25:03.000Z</time>
      </trkpt>
      <trkpt lat="43.68056" lon="1.45297">
        <ele>135.973972</ele>
        <time>2023-07-30T13:25:04.000Z</time>
      </trkpt>
      <trkpt lat="43.68056" lon="1.45297">
        <ele>135.973972</ele>
        <time>2023-07-30T13:25:04.000Z</time>
      </trkpt>
      <trkpt lat="43.68061" lon="1.45293">
        <ele>136.000305</ele>
        <time>2023-07-30T13:25:05.000Z</time>
      </trkpt>
      <trkpt lat="43.68065" lon="1.45289">
        <ele>136.023329</ele>
        <time>2023-07-30T13:25:06.000Z</time>
      </trkpt>
      <trkpt lat="43.68065" lon="1.45289">
        <ele>136.023329</ele>
        <time>2023-07-30T13:25:06.000Z</time>
      </trkpt>
      <trkpt lat="43.6807" lon="1.45285">
        <ele>136.048081</ele>
        <time>2023-07-30T13:25:07.000Z</time>
      </trkpt>
      <trkpt lat="43.68074" lon="1.45282">
        <ele>136.070575</ele>
        <time>2023-07-30T13:25:08.000Z</time>
      </trkpt>
      <trkpt lat="43.68078" lon="1.45277">
        <ele>136.093786</ele>
        <time>2023-07-30T13:25:09.000Z</time>
      </trkpt>
      <trkpt lat="43.68082" lon="1.45273">
        <ele>136.118712</ele>
        <time>2023-07-30T13:25:10.000Z</time>
      </trkpt>
      <trkpt lat="43.68087" lon="1.4527">
        <ele>136.141862</ele>
        <time>2023-07-30T13:25:11.000Z</time>
      </trkpt>
      <trkpt lat="43.68087" lon="1.4527">
        <ele>136.141862</ele>
        <time>2023-07-30T13:25:11.000Z</time>
      </trkpt>
      <trkpt lat="43.68092" lon="1.45266">
        <ele>136.168222</ele>
        <time>2023-07-30T13:25:12.000Z</time>
      </trkpt>
      <trkpt lat="43.68096" lon="1.45262">
        <ele>136.190948</ele>
        <time>2023-07-30T13:25:13.000Z</time>
      </trkpt>
      <trkpt lat="43.681" lon="1.45258">
        <ele>136.216102</ele>
        <time>2023-07-30T13:25:14.000Z</time>
      </trkpt>
      <trkpt lat="43.68105" lon="1.45254">
        <ele>136.238652</ele>
        <time>2023-07-30T13:25:15.000Z</time>
      </trkpt>
      <trkpt lat="43.68109" lon="1.4525">
        <ele>136.263244</ele>
        <time>2023-07-30T13:25:16.000Z</time>
      </trkpt>
      <trkpt lat="43.68113" lon="1.45246">
        <ele>136.284453</ele>
        <time>2023-07-30T13:25:17.000Z</time>
      </trkpt>
      <trkpt lat="43.68118" lon="1.45242">
        <ele>136.309607</ele>
        <time>2023-07-30T13:25:18.000Z</time>
      </trkpt>
      <trkpt lat="43.68121" lon="1.45238">
        <ele>136.330628</ele>
        <time>2023-07-30T13:25:19.000Z</time>
      </trkpt>
      <trkpt lat="43.68126" lon="1.45234">
        <ele>136.355425</ele>
        <time>2023-07-30T13:25:21.000Z</time>
      </trkpt>
      <trkpt lat="43.68126" lon="1.45234">
        <ele>136.355425</ele>
        <time>2023-07-30T13:25:21.000Z</time>
      </trkpt>
      <trkpt lat="43.6813" lon="1.45231">
        <ele>136.37815</ele>
        <time>2023-07-30T13:25:21.000Z</time>
      </trkpt>
      <trkpt lat="43.68134" lon="1.45227">
        <ele>136.401054</ele>
        <time>2023-07-30T13:25:22.000Z</time>
      </trkpt>
      <trkpt lat="43.68139" lon="1.45223">
        <ele>136.426029</ele>
        <time>2023-07-30T13:25:23.000Z</time>
      </trkpt>
      <trkpt lat="43.68143" lon="1.45219">
        <ele>136.447237</ele>
        <time>2023-07-30T13:25:24.000Z</time>
      </trkpt>
      <trkpt lat="43.68143" lon="1.45219">
        <ele>136.447237</ele>
        <time>2023-07-30T13:25:24.000Z</time>
      </trkpt>
      <trkpt lat="43.68147" lon="1.45215">
        <ele>136.472034</ele>
        <time>2023-07-30T13:25:25.000Z</time>
      </trkpt>
      <trkpt lat="43.68151" lon="1.45211">
        <ele>136.493434</ele>
        <time>2023-07-30T13:25:26.000Z</time>
      </trkpt>
      <trkpt lat="43.68155" lon="1.45208">
        <ele>136.514089</ele>
        <time>2023-07-30T13:25:27.000Z</time>
      </trkpt>
      <trkpt lat="43.68155" lon="1.45208">
        <ele>136.514089</ele>
        <time>2023-07-30T13:25:27.000Z</time>
      </trkpt>
      <trkpt lat="43.68159" lon="1.45206">
        <ele>136.534469</ele>
        <time>2023-07-30T13:25:28.000Z</time>
      </trkpt>
      <trkpt lat="43.68162" lon="1.45206">
        <ele>136.548631</ele>
        <time>2023-07-30T13:25:29.000Z</time>
      </trkpt>
      <trkpt lat="43.68165" lon="1.45209">
        <ele>136.564615</ele>
        <time>2023-07-30T13:25:30.000Z</time>
      </trkpt>
      <trkpt lat="43.68168" lon="1.45214">
        <ele>136.584731</ele>
        <time>2023-07-30T13:25:32.000Z</time>
      </trkpt>
      <trkpt lat="43.68169" lon="1.45219">
        <ele>136.603207</ele>
        <time>2023-07-30T13:25:33.000Z</time>
      </trkpt>
      <trkpt lat="43.68169" lon="1.45219">
        <ele>136.603207</ele>
        <time>2023-07-30T13:25:33.000Z</time>
      </trkpt>
      <trkpt lat="43.6817" lon="1.45224">
        <ele>136.620592</ele>
        <time>2023-07-30T13:25:34.000Z</time>
      </trkpt>
      <trkpt lat="43.68172" lon="1.45234">
        <ele>136.654943</ele>
        <time>2023-07-30T13:25:35.000Z</time>
      </trkpt>
      <trkpt lat="43.68173" lon="1.45241">
        <ele>136.677774</ele>
        <time>2023-07-30T13:25:35.000Z</time>
      </trkpt>
      <trkpt lat="43.68173" lon="1.45241">
        <ele>136.677774</ele>
        <time>2023-07-30T13:25:35.000Z</time>
      </trkpt>
      <trkpt lat="43.68175" lon="1.45247">
        <ele>136.70092</ele>
        <time>2023-07-30T13:25:37.000Z</time>
      </trkpt>
      <trkpt lat="43.68176" lon="1.45254">
        <ele>136.722956</ele>
        <time>2023-07-30T13:25:38.000Z</time>
      </trkpt>
      <trkpt lat="43.68178" lon="1.4526">
        <ele>136.744572</ele>
        <time>2023-07-30T13:25:38.000Z</time>
      </trkpt>
      <trkpt lat="43.68178" lon="1.4526">
        <ele>136.744572</ele>
        <time>2023-07-30T13:25:38.000Z</time>
      </trkpt>
      <trkpt lat="43.6818" lon="1.45265">
        <ele>136.762742</ele>
        <time>2023-07-30T13:25:40.000Z</time>
      </trkpt>
      <trkpt lat="43.68181" lon="1.45271">
        <ele>136.784004</ele>
        <time>2023-07-30T13:25:41.000Z</time>
      </trkpt>
      <trkpt lat="43.68183" lon="1.45277">
        <ele>136.806352</ele>
        <time>2023-07-30T13:25:41.000Z</time>
      </trkpt>
      <trkpt lat="43.68185" lon="1.45284">
        <ele>136.830718</ele>
        <time>2023-07-30T13:25:42.000Z</time>
      </trkpt>
      <trkpt lat="43.68185" lon="1.45284">
        <ele>136.830718</ele>
        <time>2023-07-30T13:25:42.000Z</time>
      </trkpt>
      <trkpt lat="43.68186" lon="1.45291">
        <ele>136.854495</ele>
        <time>2023-07-30T13:25:43.000Z</time>
      </trkpt>
      <trkpt lat="43.68189" lon="1.45297">
        <ele>136.877491</ele>
        <time>2023-07-30T13:25:44.000Z</time>
      </trkpt>
      <trkpt lat="43.6819" lon="1.45304">
        <ele>136.901241</ele>
        <time>2023-07-30T13:25:45.000Z</time>
      </trkpt>
      <trkpt lat="43.68192" lon="1.45311">
        <ele>136.924684</ele>
        <time>2023-07-30T13:25:46.000Z</time>
      </trkpt>
      <trkpt lat="43.68194" lon="1.45317">
        <ele>136.947516</ele>
        <time>2023-07-30T13:25:47.000Z</time>
      </trkpt>
      <trkpt lat="43.68196" lon="1.45324">
        <ele>137.007767</ele>
        <time>2023-07-30T13:25:48.000Z</time>
      </trkpt>
      <trkpt lat="43.68197" lon="1.4533">
        <ele>137.0634</ele>
        <time>2023-07-30T13:25:50.000Z</time>
      </trkpt>
      <trkpt lat="43.68199" lon="1.45337">
        <ele>137.126066</ele>
        <time>2023-07-30T13:25:51.000Z</time>
      </trkpt>
      <trkpt lat="43.68199" lon="1.45337">
        <ele>137.126066</ele>
        <time>2023-07-30T13:25:51.000Z</time>
      </trkpt>
      <trkpt lat="43.68201" lon="1.45344">
        <ele>137.187505</ele>
        <time>2023-07-30T13:25:51.000Z</time>
      </trkpt>
      <trkpt lat="43.68203" lon="1.45351">
        <ele>137.253027</ele>
        <time>2023-07-30T13:25:52.000Z</time>
      </trkpt>
      <trkpt lat="43.68203" lon="1.45351">
        <ele>137.253027</ele>
        <time>2023-07-30T13:25:52.000Z</time>
      </trkpt>
      <trkpt lat="43.68205" lon="1.45357">
        <ele>137.313654</ele>
        <time>2023-07-30T13:25:53.000Z</time>
      </trkpt>
      <trkpt lat="43.68206" lon="1.45364">
        <ele>137.375906</ele>
        <time>2023-07-30T13:25:54.000Z</time>
      </trkpt>
      <trkpt lat="43.68206" lon="1.45364">
        <ele>137.375906</ele>
        <time>2023-07-30T13:25:54.000Z</time>
      </trkpt>
      <trkpt lat="43.68208" lon="1.4537">
        <ele>137.438158</ele>
        <time>2023-07-30T13:25:56.000Z</time>
      </trkpt>
      <trkpt lat="43.6821" lon="1.45377">
        <ele>137.495451</ele>
        <time>2023-07-30T13:25:57.000Z</time>
      </trkpt>
      <trkpt lat="43.68212" lon="1.45383">
        <ele>137.559335</ele>
        <time>2023-07-30T13:25:58.000Z</time>
      </trkpt>
      <trkpt lat="43.68212" lon="1.45383">
        <ele>137.559335</ele>
        <time>2023-07-30T13:25:58.000Z</time>
      </trkpt>
      <trkpt lat="43.68213" lon="1.4539">
        <ele>137.619506</ele>
        <time>2023-07-30T13:25:59.000Z</time>
      </trkpt>
      <trkpt lat="43.68215" lon="1.45397">
        <ele>137.682573</ele>
        <time>2023-07-30T13:25:59.000Z</time>
      </trkpt>
      <trkpt lat="43.68215" lon="1.45397">
        <ele>137.682573</ele>
        <time>2023-07-30T13:25:59.000Z</time>
      </trkpt>
      <trkpt lat="43.68217" lon="1.45403">
        <ele>137.747275</ele>
        <time>2023-07-30T13:26:01.000Z</time>
      </trkpt>
      <trkpt lat="43.68219" lon="1.4541">
        <ele>137.807066</ele>
        <time>2023-07-30T13:26:02.000Z</time>
      </trkpt>
      <trkpt lat="43.6822" lon="1.45417">
        <ele>137.871046</ele>
        <time>2023-07-30T13:26:03.000Z</time>
      </trkpt>
      <trkpt lat="43.6822" lon="1.45417">
        <ele>137.871046</ele>
        <time>2023-07-30T13:26:03.000Z</time>
      </trkpt>
      <trkpt lat="43.68222" lon="1.45424">
        <ele>137.934113</ele>
        <time>2023-07-30T13:26:04.000Z</time>
      </trkpt>
      <trkpt lat="43.68222" lon="1.45424">
        <ele>137.934113</ele>
        <time>2023-07-30T13:26:04.000Z</time>
      </trkpt>
      <trkpt lat="43.68224" lon="1.4543">
        <ele>137.995114</ele>
        <time>2023-07-30T13:26:05.000Z</time>
      </trkpt>
      <trkpt lat="43.68226" lon="1.45437">
        <ele>138.060107</ele>
        <time>2023-07-30T13:26:06.000Z</time>
      </trkpt>
      <trkpt lat="43.68226" lon="1.45437">
        <ele>138.060107</ele>
        <time>2023-07-30T13:26:06.000Z</time>
      </trkpt>
      <trkpt lat="43.68228" lon="1.45444">
        <ele>138.1251</ele>
        <time>2023-07-30T13:26:07.000Z</time>
      </trkpt>
      <trkpt lat="43.6823" lon="1.45451">
        <ele>138.191986</ele>
        <time>2023-07-30T13:26:08.000Z</time>
      </trkpt>
      <trkpt lat="43.68232" lon="1.45457">
        <ele>138.255053</ele>
        <time>2023-07-30T13:26:09.000Z</time>
      </trkpt>
      <trkpt lat="43.68232" lon="1.45457">
        <ele>138.255053</ele>
        <time>2023-07-30T13:26:09.000Z</time>
      </trkpt>
      <trkpt lat="43.68235" lon="1.45464">
        <ele>138.321634</ele>
        <time>2023-07-30T13:26:10.000Z</time>
      </trkpt>
      <trkpt lat="43.68237" lon="1.45471">
        <ele>138.381451</ele>
        <time>2023-07-30T13:26:11.000Z</time>
      </trkpt>
      <trkpt lat="43.68239" lon="1.45477">
        <ele>138.445654</ele>
        <time>2023-07-30T13:26:12.000Z</time>
      </trkpt>
      <trkpt lat="43.68241" lon="1.45484">
        <ele>138.512235</ele>
        <time>2023-07-30T13:26:13.000Z</time>
      </trkpt>
      <trkpt lat="43.68241" lon="1.45484">
        <ele>138.512235</ele>
        <time>2023-07-30T13:26:13.000Z</time>
      </trkpt>
      <trkpt lat="43.68243" lon="1.45491">
        <ele>138.573673</ele>
        <time>2023-07-30T13:26:14.000Z</time>
      </trkpt>
      <trkpt lat="43.68245" lon="1.45497">
        <ele>138.638375</ele>
        <time>2023-07-30T13:26:15.000Z</time>
      </trkpt>
      <trkpt lat="43.68247" lon="1.45504">
        <ele>138.699813</ele>
        <time>2023-07-30T13:26:16.000Z</time>
      </trkpt>
      <trkpt lat="43.68248" lon="1.45511">
        <ele>138.762478</ele>
        <time>2023-07-30T13:26:17.000Z</time>
      </trkpt>
      <trkpt lat="43.6825" lon="1.45517">
        <ele>138.821488</ele>
        <time>2023-07-30T13:26:18.000Z</time>
      </trkpt>
      <trkpt lat="43.6825" lon="1.45517">
        <ele>138.821488</ele>
        <time>2023-07-30T13:26:18.000Z</time>
      </trkpt>
      <trkpt lat="43.68252" lon="1.45524">
        <ele>138.887009</ele>
        <time>2023-07-30T13:26:19.000Z</time>
      </trkpt>
      <trkpt lat="43.68254" lon="1.4553">
        <ele>138.945966</ele>
        <time>2023-07-30T13:26:20.000Z</time>
      </trkpt>
      <trkpt lat="43.68256" lon="1.45537">
        <ele>139.009849</ele>
        <time>2023-07-30T13:26:21.000Z</time>
      </trkpt>
      <trkpt lat="43.68256" lon="1.45537">
        <ele>139.009849</ele>
        <time>2023-07-30T13:26:21.000Z</time>
      </trkpt>
      <trkpt lat="43.68257" lon="1.45544">
        <ele>139.07215</ele>
        <time>2023-07-30T13:26:22.000Z</time>
      </trkpt>
      <trkpt lat="43.68259" lon="1.45551">
        <ele>139.134515</ele>
        <time>2023-07-30T13:26:23.000Z</time>
      </trkpt>
      <trkpt lat="43.6826" lon="1.45557">
        <ele>139.190062</ele>
        <time>2023-07-30T13:26:24.000Z</time>
      </trkpt>
      <trkpt lat="43.68262" lon="1.45564">
        <ele>139.247143</ele>
        <time>2023-07-30T13:26:25.000Z</time>
      </trkpt>
      <trkpt lat="43.68264" lon="1.45571">
        <ele>139.307174</ele>
        <time>2023-07-30T13:26:26.000Z</time>
      </trkpt>
      <trkpt lat="43.68265" lon="1.45578">
        <ele>139.363373</ele>
        <time>2023-07-30T13:26:27.000Z</time>
      </trkpt>
      <trkpt lat="43.68266" lon="1.45585">
        <ele>139.420453</ele>
        <time>2023-07-30T13:26:28.000Z</time>
      </trkpt>
      <trkpt lat="43.68268" lon="1.45592">
        <ele>139.478302</ele>
        <time>2023-07-30T13:26:29.000Z</time>
      </trkpt>
      <trkpt lat="43.6827" lon="1.45599">
        <ele>139.539086</ele>
        <time>2023-07-30T13:26:30.000Z</time>
      </trkpt>
      <trkpt lat="43.68271" lon="1.45606">
        <ele>139.596846</ele>
        <time>2023-07-30T13:26:31.000Z</time>
      </trkpt>
      <trkpt lat="43.68271" lon="1.45606">
        <ele>139.596846</ele>
        <time>2023-07-30T13:26:31.000Z</time>
      </trkpt>
      <trkpt lat="43.68272" lon="1.45613">
        <ele>139.656234</ele>
        <time>2023-07-30T13:26:32.000Z</time>
      </trkpt>
      <trkpt lat="43.68272" lon="1.45613">
        <ele>139.656234</ele>
        <time>2023-07-30T13:26:32.000Z</time>
      </trkpt>
      <trkpt lat="43.68274" lon="1.4562">
        <ele>139.711397</ele>
        <time>2023-07-30T13:26:33.000Z</time>
      </trkpt>
      <trkpt lat="43.68275" lon="1.45627">
        <ele>139.769158</ele>
        <time>2023-07-30T13:26:34.000Z</time>
      </trkpt>
      <trkpt lat="43.68276" lon="1.45634">
        <ele>139.827457</ele>
        <time>2023-07-30T13:26:35.000Z</time>
      </trkpt>
      <trkpt lat="43.68276" lon="1.45634">
        <ele>139.827457</ele>
        <time>2023-07-30T13:26:35.000Z</time>
      </trkpt>
      <trkpt lat="43.68277" lon="1.45641">
        <ele>139.885998</ele>
        <time>2023-07-30T13:26:36.000Z</time>
      </trkpt>
      <trkpt lat="43.68278" lon="1.45648">
        <ele>139.949016</ele>
        <time>2023-07-30T13:26:37.000Z</time>
      </trkpt>
      <trkpt lat="43.68278" lon="1.45648">
        <ele>139.949016</ele>
        <time>2023-07-30T13:26:37.000Z</time>
      </trkpt>
      <trkpt lat="43.68279" lon="1.45655">
        <ele>140.000372</ele>
        <time>2023-07-30T13:26:38.000Z</time>
      </trkpt>
      <trkpt lat="43.6828" lon="1.45662">
        <ele>140.059497</ele>
        <time>2023-07-30T13:26:39.000Z</time>
      </trkpt>
      <trkpt lat="43.6828" lon="1.45662">
        <ele>140.059497</ele>
        <time>2023-07-30T13:26:39.000Z</time>
      </trkpt>
      <trkpt lat="43.6828" lon="1.4567">
        <ele>140.120678</ele>
        <time>2023-07-30T13:26:40.000Z</time>
      </trkpt>
      <trkpt lat="43.6828" lon="1.45676">
        <ele>140.175456</ele>
        <time>2023-07-30T13:26:41.000Z</time>
      </trkpt>
      <trkpt lat="43.6828" lon="1.45676">
        <ele>140.175456</ele>
        <time>2023-07-30T13:26:41.000Z</time>
      </trkpt>
      <trkpt lat="43.68281" lon="1.45683">
        <ele>140.231833</ele>
        <time>2023-07-30T13:26:42.000Z</time>
      </trkpt>
      <trkpt lat="43.68281" lon="1.45683">
        <ele>140.231833</ele>
        <time>2023-07-30T13:26:42.000Z</time>
      </trkpt>
      <trkpt lat="43.68281" lon="1.4569">
        <ele>140.284022</ele>
        <time>2023-07-30T13:26:43.000Z</time>
      </trkpt>
      <trkpt lat="43.6828" lon="1.45697">
        <ele>140.3404</ele>
        <time>2023-07-30T13:26:44.000Z</time>
      </trkpt>
      <trkpt lat="43.6828" lon="1.45703">
        <ele>140.391785</ele>
        <time>2023-07-30T13:26:45.000Z</time>
      </trkpt>
      <trkpt lat="43.6828" lon="1.4571">
        <ele>140.448963</ele>
        <time>2023-07-30T13:26:46.000Z</time>
      </trkpt>
      <trkpt lat="43.68279" lon="1.45717">
        <ele>140.502521</ele>
        <time>2023-07-30T13:26:47.000Z</time>
      </trkpt>
      <trkpt lat="43.68279" lon="1.45724">
        <ele>140.5605</ele>
        <time>2023-07-30T13:26:48.000Z</time>
      </trkpt>
      <trkpt lat="43.68279" lon="1.45724">
        <ele>140.5605</ele>
        <time>2023-07-30T13:26:48.000Z</time>
      </trkpt>
      <trkpt lat="43.68279" lon="1.45731">
        <ele>140.612877</ele>
        <time>2023-07-30T13:26:49.000Z</time>
      </trkpt>
      <trkpt lat="43.68278" lon="1.45738">
        <ele>140.670055</ele>
        <time>2023-07-30T13:26:50.000Z</time>
      </trkpt>
      <trkpt lat="43.68278" lon="1.45738">
        <ele>140.670055</ele>
        <time>2023-07-30T13:26:50.000Z</time>
      </trkpt>
      <trkpt lat="43.68278" lon="1.45745">
        <ele>140.724032</ele>
        <time>2023-07-30T13:26:51.000Z</time>
      </trkpt>
      <trkpt lat="43.68277" lon="1.45751">
        <ele>140.776002</ele>
        <time>2023-07-30T13:26:52.000Z</time>
      </trkpt>
      <trkpt lat="43.68277" lon="1.45757">
        <ele>140.825979</ele>
        <time>2023-07-30T13:26:53.000Z</time>
      </trkpt>
      <trkpt lat="43.68276" lon="1.45763">
        <ele>140.874357</ele>
        <time>2023-07-30T13:26:54.000Z</time>
      </trkpt>
      <trkpt lat="43.68276" lon="1.4577">
        <ele>140.925934</ele>
        <time>2023-07-30T13:26:55.000Z</time>
      </trkpt>
      <trkpt lat="43.68275" lon="1.45776">
        <ele>140.979111</ele>
        <time>2023-07-30T13:26:56.000Z</time>
      </trkpt>
      <trkpt lat="43.68275" lon="1.45776">
        <ele>140.979111</ele>
        <time>2023-07-30T13:26:56.000Z</time>
      </trkpt>
      <trkpt lat="43.68275" lon="1.45783">
        <ele>141.03381</ele>
        <time>2023-07-30T13:26:57.000Z</time>
      </trkpt>
      <trkpt lat="43.68275" lon="1.4579">
        <ele>141.09419</ele>
        <time>2023-07-30T13:26:57.000Z</time>
      </trkpt>
      <trkpt lat="43.68274" lon="1.45798">
        <ele>141.207024</ele>
        <time>2023-07-30T13:26:59.000Z</time>
      </trkpt>
      <trkpt lat="43.68274" lon="1.45798">
        <ele>141.207024</ele>
        <time>2023-07-30T13:26:59.000Z</time>
      </trkpt>
      <trkpt lat="43.68274" lon="1.45805">
        <ele>141.385569</ele>
        <time>2023-07-30T13:26:59.000Z</time>
      </trkpt>
      <trkpt lat="43.68274" lon="1.45812">
        <ele>141.558645</ele>
        <time>2023-07-30T13:27:01.000Z</time>
      </trkpt>
      <trkpt lat="43.68274" lon="1.4582">
        <ele>141.747053</ele>
        <time>2023-07-30T13:27:02.000Z</time>
      </trkpt>
      <trkpt lat="43.68274" lon="1.45826">
        <ele>141.915183</ele>
        <time>2023-07-30T13:27:03.000Z</time>
      </trkpt>
      <trkpt lat="43.68273" lon="1.45834">
        <ele>142.098436</ele>
        <time>2023-07-30T13:27:04.000Z</time>
      </trkpt>
      <trkpt lat="43.68273" lon="1.45834">
        <ele>142.098436</ele>
        <time>2023-07-30T13:27:04.000Z</time>
      </trkpt>
      <trkpt lat="43.68273" lon="1.4584">
        <ele>142.254804</ele>
        <time>2023-07-30T13:27:05.000Z</time>
      </trkpt>
      <trkpt lat="43.68272" lon="1.45847">
        <ele>142.425954</ele>
        <time>2023-07-30T13:27:06.000Z</time>
      </trkpt>
      <trkpt lat="43.68272" lon="1.45854">
        <ele>142.596295</ele>
        <time>2023-07-30T13:27:07.000Z</time>
      </trkpt>
      <trkpt lat="43.68272" lon="1.45854">
        <ele>142.596295</ele>
        <time>2023-07-30T13:27:07.000Z</time>
      </trkpt>
      <trkpt lat="43.68271" lon="1.4586">
        <ele>142.749934</ele>
        <time>2023-07-30T13:27:08.000Z</time>
      </trkpt>
      <trkpt lat="43.68271" lon="1.45866">
        <ele>142.906301</ele>
        <time>2023-07-30T13:27:09.000Z</time>
      </trkpt>
      <trkpt lat="43.68271" lon="1.45866">
        <ele>142.906301</ele>
        <time>2023-07-30T13:27:09.000Z</time>
      </trkpt>
      <trkpt lat="43.68271" lon="1.45872">
        <ele>143.057743</ele>
        <time>2023-07-30T13:27:10.000Z</time>
      </trkpt>
      <trkpt lat="43.6827" lon="1.45877">
        <ele>143.160034</ele>
        <time>2023-07-30T13:27:11.000Z</time>
      </trkpt>
      <trkpt lat="43.6827" lon="1.45877">
        <ele>143.160034</ele>
        <time>2023-07-30T13:27:11.000Z</time>
      </trkpt>
      <trkpt lat="43.68269" lon="1.45881">
        <ele>143.272211</ele>
        <time>2023-07-30T13:27:12.000Z</time>
      </trkpt>
      <trkpt lat="43.68269" lon="1.45886">
        <ele>143.38887</ele>
        <time>2023-07-30T13:27:13.000Z</time>
      </trkpt>
      <trkpt lat="43.68269" lon="1.45886">
        <ele>143.38887</ele>
        <time>2023-07-30T13:27:13.000Z</time>
      </trkpt>
      <trkpt lat="43.68269" lon="1.4589">
        <ele>143.486263</ele>
        <time>2023-07-30T13:27:14.000Z</time>
      </trkpt>
      <trkpt lat="43.68269" lon="1.4589">
        <ele>143.486263</ele>
        <time>2023-07-30T13:27:14.000Z</time>
      </trkpt>
      <trkpt lat="43.68268" lon="1.45893">
        <ele>143.571434</ele>
        <time>2023-07-30T13:27:15.000Z</time>
      </trkpt>
      <trkpt lat="43.68268" lon="1.45893">
        <ele>143.571434</ele>
        <time>2023-07-30T13:27:15.000Z</time>
      </trkpt>
      <trkpt lat="43.68268" lon="1.45897">
        <ele>143.667862</ele>
        <time>2023-07-30T13:27:16.000Z</time>
      </trkpt>
      <trkpt lat="43.68268" lon="1.459">
        <ele>143.750593</ele>
        <time>2023-07-30T13:27:17.000Z</time>
      </trkpt>
      <trkpt lat="43.68268" lon="1.45905">
        <ele>143.871746</ele>
        <time>2023-07-30T13:27:18.000Z</time>
      </trkpt>
      <trkpt lat="43.68268" lon="1.45905">
        <ele>143.871746</ele>
        <time>2023-07-30T13:27:18.000Z</time>
      </trkpt>
      <trkpt lat="43.68268" lon="1.45911">
        <ele>144.017624</ele>
        <time>2023-07-30T13:27:19.000Z</time>
      </trkpt>
      <trkpt lat="43.68268" lon="1.45911">
        <ele>144.017624</ele>
        <time>2023-07-30T13:27:19.000Z</time>
      </trkpt>
      <trkpt lat="43.68267" lon="1.45916">
        <ele>144.14692</ele>
        <time>2023-07-30T13:27:20.000Z</time>
      </trkpt>
      <trkpt lat="43.68267" lon="1.45916">
        <ele>144.14692</ele>
        <time>2023-07-30T13:27:20.000Z</time>
      </trkpt>
      <trkpt lat="43.68267" lon="1.45922">
        <ele>144.298092</ele>
        <time>2023-07-30T13:27:21.000Z</time>
      </trkpt>
      <trkpt lat="43.68266" lon="1.45928">
        <ele>144.453809</ele>
        <time>2023-07-30T13:27:23.000Z</time>
      </trkpt>
      <trkpt lat="43.68266" lon="1.45935">
        <ele>144.614396</ele>
        <time>2023-07-30T13:27:24.000Z</time>
      </trkpt>
      <trkpt lat="43.68266" lon="1.45935">
        <ele>144.614396</ele>
        <time>2023-07-30T13:27:24.000Z</time>
      </trkpt>
      <trkpt lat="43.68265" lon="1.45942">
        <ele>144.794019</ele>
        <time>2023-07-30T13:27:25.000Z</time>
      </trkpt>
      <trkpt lat="43.68264" lon="1.45949">
        <ele>144.965169</ele>
        <time>2023-07-30T13:27:26.000Z</time>
      </trkpt>
      <trkpt lat="43.68264" lon="1.45949">
        <ele>144.965169</ele>
        <time>2023-07-30T13:27:26.000Z</time>
      </trkpt>
      <trkpt lat="43.68264" lon="1.45956">
        <ele>145.138785</ele>
        <time>2023-07-30T13:27:27.000Z</time>
      </trkpt>
      <trkpt lat="43.68264" lon="1.45956">
        <ele>145.138785</ele>
        <time>2023-07-30T13:27:27.000Z</time>
      </trkpt>
      <trkpt lat="43.68263" lon="1.45963">
        <ele>145.314009</ele>
        <time>2023-07-30T13:27:28.000Z</time>
      </trkpt>
      <trkpt lat="43.68263" lon="1.45969">
        <ele>145.454942</ele>
        <time>2023-07-30T13:27:29.000Z</time>
      </trkpt>
      <trkpt lat="43.68263" lon="1.45969">
        <ele>145.454942</ele>
        <time>2023-07-30T13:27:29.000Z</time>
      </trkpt>
      <trkpt lat="43.68263" lon="1.45976">
        <ele>145.625546</ele>
        <time>2023-07-30T13:27:31.000Z</time>
      </trkpt>
      <trkpt lat="43.68263" lon="1.45976">
        <ele>145.625546</ele>
        <time>2023-07-30T13:27:31.000Z</time>
      </trkpt>
      <trkpt lat="43.68264" lon="1.45983">
        <ele>145.813954</ele>
        <time>2023-07-30T13:27:32.000Z</time>
      </trkpt>
      <trkpt lat="43.68264" lon="1.45983">
        <ele>145.813954</ele>
        <time>2023-07-30T13:27:32.000Z</time>
      </trkpt>
      <trkpt lat="43.68264" lon="1.45991">
        <ele>146.00874</ele>
        <time>2023-07-30T13:27:33.000Z</time>
      </trkpt>
      <trkpt lat="43.68264" lon="1.45991">
        <ele>146.00874</ele>
        <time>2023-07-30T13:27:33.000Z</time>
      </trkpt>
      <trkpt lat="43.68266" lon="1.45997">
        <ele>146.156995</ele>
        <time>2023-07-30T13:27:34.000Z</time>
      </trkpt>
      <trkpt lat="43.68266" lon="1.45997">
        <ele>146.156995</ele>
        <time>2023-07-30T13:27:34.000Z</time>
      </trkpt>
      <trkpt lat="43.68267" lon="1.46003">
        <ele>146.315686</ele>
        <time>2023-07-30T13:27:35.000Z</time>
      </trkpt>
      <trkpt lat="43.68267" lon="1.46003">
        <ele>146.315686</ele>
        <time>2023-07-30T13:27:35.000Z</time>
      </trkpt>
      <trkpt lat="43.68269" lon="1.46015">
        <ele>146.634904</ele>
        <time>2023-07-30T13:27:37.000Z</time>
      </trkpt>
      <trkpt lat="43.68269" lon="1.46015">
        <ele>146.634904</ele>
        <time>2023-07-30T13:27:37.000Z</time>
      </trkpt>
      <trkpt lat="43.68271" lon="1.46021">
        <ele>146.790702</ele>
        <time>2023-07-30T13:27:38.000Z</time>
      </trkpt>
      <trkpt lat="43.68271" lon="1.46021">
        <ele>146.790702</ele>
        <time>2023-07-30T13:27:38.000Z</time>
      </trkpt>
      <trkpt lat="43.68272" lon="1.46027">
        <ele>146.950006</ele>
        <time>2023-07-30T13:27:40.000Z</time>
      </trkpt>
      <trkpt lat="43.68272" lon="1.46027">
        <ele>146.950006</ele>
        <time>2023-07-30T13:27:40.000Z</time>
      </trkpt>
      <trkpt lat="43.68275" lon="1.46038">
        <ele>147.218566</ele>
        <time>2023-07-30T13:27:41.000Z</time>
      </trkpt>
      <trkpt lat="43.68275" lon="1.46038">
        <ele>147.218566</ele>
        <time>2023-07-30T13:27:41.000Z</time>
      </trkpt>
      <trkpt lat="43.68276" lon="1.46043">
        <ele>147.348904</ele>
        <time>2023-07-30T13:27:42.000Z</time>
      </trkpt>
      <trkpt lat="43.68276" lon="1.46043">
        <ele>147.348904</ele>
        <time>2023-07-30T13:27:42.000Z</time>
      </trkpt>
      <trkpt lat="43.68278" lon="1.46051">
        <ele>147.561509</ele>
        <time>2023-07-30T13:27:44.000Z</time>
      </trkpt>
      <trkpt lat="43.68278" lon="1.46051">
        <ele>147.561509</ele>
        <time>2023-07-30T13:27:44.000Z</time>
      </trkpt>
      <trkpt lat="43.68279" lon="1.46056">
        <ele>147.683572</ele>
        <time>2023-07-30T13:27:45.000Z</time>
      </trkpt>
      <trkpt lat="43.68279" lon="1.46056">
        <ele>147.683572</ele>
        <time>2023-07-30T13:27:45.000Z</time>
      </trkpt>
      <trkpt lat="43.68279" lon="1.46066">
        <ele>147.919658</ele>
        <time>2023-07-30T13:27:47.000Z</time>
      </trkpt>
      <trkpt lat="43.68279" lon="1.46066">
        <ele>147.919658</ele>
        <time>2023-07-30T13:27:47.000Z</time>
      </trkpt>
      <trkpt lat="43.68279" lon="1.46071">
        <ele>148.044311</ele>
        <time>2023-07-30T13:27:48.000Z</time>
      </trkpt>
      <trkpt lat="43.68279" lon="1.46071">
        <ele>148.044311</ele>
        <time>2023-07-30T13:27:48.000Z</time>
      </trkpt>
      <trkpt lat="43.6828" lon="1.4608">
        <ele>148.258383</ele>
        <time>2023-07-30T13:27:50.000Z</time>
      </trkpt>
      <trkpt lat="43.6828" lon="1.4608">
        <ele>148.258383</ele>
        <time>2023-07-30T13:27:50.000Z</time>
      </trkpt>
      <trkpt lat="43.6828" lon="1.46085">
        <ele>148.378205</ele>
        <time>2023-07-30T13:27:51.000Z</time>
      </trkpt>
      <trkpt lat="43.6828" lon="1.46085">
        <ele>148.378205</ele>
        <time>2023-07-30T13:27:51.000Z</time>
      </trkpt>
      <trkpt lat="43.6828" lon="1.4609">
        <ele>148.511851</ele>
        <time>2023-07-30T13:27:52.000Z</time>
      </trkpt>
      <trkpt lat="43.6828" lon="1.4609">
        <ele>148.511851</ele>
        <time>2023-07-30T13:27:52.000Z</time>
      </trkpt>
      <trkpt lat="43.6828" lon="1.46095">
        <ele>148.641337</ele>
        <time>2023-07-30T13:27:54.000Z</time>
      </trkpt>
      <trkpt lat="43.6828" lon="1.46095">
        <ele>148.641337</ele>
        <time>2023-07-30T13:27:54.000Z</time>
      </trkpt>
      <trkpt lat="43.68281" lon="1.46106">
        <ele>148.893059</ele>
        <time>2023-07-30T13:27:55.000Z</time>
      </trkpt>
      <trkpt lat="43.68281" lon="1.46106">
        <ele>148.893059</ele>
        <time>2023-07-30T13:27:55.000Z</time>
      </trkpt>
      <trkpt lat="43.68283" lon="1.46116">
        <ele>149.160288</ele>
        <time>2023-07-30T13:27:56.000Z</time>
      </trkpt>
      <trkpt lat="43.68283" lon="1.46116">
        <ele>149.160288</ele>
        <time>2023-07-30T13:27:56.000Z</time>
      </trkpt>
      <trkpt lat="43.68284" lon="1.4612">
        <ele>149.257496</ele>
        <time>2023-07-30T13:27:58.000Z</time>
      </trkpt>
      <trkpt lat="43.68284" lon="1.4612">
        <ele>149.257496</ele>
        <time>2023-07-30T13:27:58.000Z</time>
      </trkpt>
      <trkpt lat="43.68285" lon="1.46125">
        <ele>149.38193</ele>
        <time>2023-07-30T13:27:58.000Z</time>
      </trkpt>
      <trkpt lat="43.68285" lon="1.46125">
        <ele>149.38193</ele>
        <time>2023-07-30T13:27:58.000Z</time>
      </trkpt>
      <trkpt lat="43.68285" lon="1.46131">
        <ele>149.51625</ele>
        <time>2023-07-30T13:28:00.000Z</time>
      </trkpt>
      <trkpt lat="43.68285" lon="1.46131">
        <ele>149.51625</ele>
        <time>2023-07-30T13:28:00.000Z</time>
      </trkpt>
      <trkpt lat="43.68285" lon="1.46136">
        <ele>149.647466</ele>
        <time>2023-07-30T13:28:02.000Z</time>
      </trkpt>
      <trkpt lat="43.68285" lon="1.46136">
        <ele>149.647466</ele>
        <time>2023-07-30T13:28:02.000Z</time>
      </trkpt>
      <trkpt lat="43.68285" lon="1.46142">
        <ele>149.801141</ele>
        <time>2023-07-30T13:28:03.000Z</time>
      </trkpt>
      <trkpt lat="43.68285" lon="1.46142">
        <ele>149.801141</ele>
        <time>2023-07-30T13:28:03.000Z</time>
      </trkpt>
      <trkpt lat="43.68284" lon="1.46147">
        <ele>149.925794</ele>
        <time>2023-07-30T13:28:04.000Z</time>
      </trkpt>
      <trkpt lat="43.68284" lon="1.46147">
        <ele>149.925794</ele>
        <time>2023-07-30T13:28:04.000Z</time>
      </trkpt>
      <trkpt lat="43.68284" lon="1.46154">
        <ele>150.087885</ele>
        <time>2023-07-30T13:28:04.000Z</time>
      </trkpt>
      <trkpt lat="43.68283" lon="1.4616">
        <ele>150.236138</ele>
        <time>2023-07-30T13:28:05.000Z</time>
      </trkpt>
      <trkpt lat="43.68281" lon="1.46167">
        <ele>150.413543</ele>
        <time>2023-07-30T13:28:07.000Z</time>
      </trkpt>
      <trkpt lat="43.68281" lon="1.46167">
        <ele>150.413543</ele>
        <time>2023-07-30T13:28:07.000Z</time>
      </trkpt>
      <trkpt lat="43.68279" lon="1.46173">
        <ele>150.581652</ele>
        <time>2023-07-30T13:28:08.000Z</time>
      </trkpt>
      <trkpt lat="43.68277" lon="1.46181">
        <ele>150.779606</ele>
        <time>2023-07-30T13:28:10.000Z</time>
      </trkpt>
      <trkpt lat="43.68275" lon="1.46188">
        <ele>150.968649</ele>
        <time>2023-07-30T13:28:10.000Z</time>
      </trkpt>
      <trkpt lat="43.68275" lon="1.46188">
        <ele>150.968649</ele>
        <time>2023-07-30T13:28:10.000Z</time>
      </trkpt>
      <trkpt lat="43.68272" lon="1.46197">
        <ele>151.208691</ele>
        <time>2023-07-30T13:28:12.000Z</time>
      </trkpt>
      <trkpt lat="43.68269" lon="1.46203">
        <ele>151.367299</ele>
        <time>2023-07-30T13:28:13.000Z</time>
      </trkpt>
      <trkpt lat="43.68267" lon="1.46208">
        <ele>151.522021</ele>
        <time>2023-07-30T13:28:14.000Z</time>
      </trkpt>
      <trkpt lat="43.68266" lon="1.46215">
        <ele>151.685645</ele>
        <time>2023-07-30T13:28:15.000Z</time>
      </trkpt>
      <trkpt lat="43.68263" lon="1.46222">
        <ele>151.892141</ele>
        <time>2023-07-30T13:28:16.000Z</time>
      </trkpt>
      <trkpt lat="43.68263" lon="1.46222">
        <ele>151.892141</ele>
        <time>2023-07-30T13:28:16.000Z</time>
      </trkpt>
      <trkpt lat="43.68261" lon="1.46227">
        <ele>152.020572</ele>
        <time>2023-07-30T13:28:16.000Z</time>
      </trkpt>
      <trkpt lat="43.68259" lon="1.46235">
        <ele>152.216291</ele>
        <time>2023-07-30T13:28:18.000Z</time>
      </trkpt>
      <trkpt lat="43.68258" lon="1.4624">
        <ele>152.361402</ele>
        <time>2023-07-30T13:28:19.000Z</time>
      </trkpt>
      <trkpt lat="43.68256" lon="1.46246">
        <ele>152.513369</ele>
        <time>2023-07-30T13:28:19.000Z</time>
      </trkpt>
      <trkpt lat="43.68254" lon="1.46252">
        <ele>152.676994</ele>
        <time>2023-07-30T13:28:21.000Z</time>
      </trkpt>
      <trkpt lat="43.68252" lon="1.46258">
        <ele>152.827303</ele>
        <time>2023-07-30T13:28:22.000Z</time>
      </trkpt>
      <trkpt lat="43.68251" lon="1.46262">
        <ele>152.945504</ele>
        <time>2023-07-30T13:28:22.000Z</time>
      </trkpt>
      <trkpt lat="43.68248" lon="1.46269">
        <ele>153.130124</ele>
        <time>2023-07-30T13:28:24.000Z</time>
      </trkpt>
      <trkpt lat="43.68246" lon="1.46275">
        <ele>153.282408</ele>
        <time>2023-07-30T13:28:25.000Z</time>
      </trkpt>
      <trkpt lat="43.68244" lon="1.46279">
        <ele>153.356165</ele>
        <time>2023-07-30T13:28:26.000Z</time>
      </trkpt>
      <trkpt lat="43.68242" lon="1.46284">
        <ele>153.402087</ele>
        <time>2023-07-30T13:28:27.000Z</time>
      </trkpt>
      <trkpt lat="43.6824" lon="1.46289">
        <ele>153.456376</ele>
        <time>2023-07-30T13:28:28.000Z</time>
      </trkpt>
      <trkpt lat="43.68238" lon="1.46293">
        <ele>153.497818</ele>
        <time>2023-07-30T13:28:29.000Z</time>
      </trkpt>
      <trkpt lat="43.68238" lon="1.46293">
        <ele>153.497818</ele>
        <time>2023-07-30T13:28:29.000Z</time>
      </trkpt>
      <trkpt lat="43.68234" lon="1.46301">
        <ele>153.578079</ele>
        <time>2023-07-30T13:28:30.000Z</time>
      </trkpt>
      <trkpt lat="43.68231" lon="1.46306">
        <ele>153.636792</ele>
        <time>2023-07-30T13:28:31.000Z</time>
      </trkpt>
      <trkpt lat="43.68228" lon="1.4631">
        <ele>153.692038</ele>
        <time>2023-07-30T13:28:31.000Z</time>
      </trkpt>
      <trkpt lat="43.68226" lon="1.46315">
        <ele>153.745629</ele>
        <time>2023-07-30T13:28:33.000Z</time>
      </trkpt>
      <trkpt lat="43.68223" lon="1.46318">
        <ele>153.786019</ele>
        <time>2023-07-30T13:28:34.000Z</time>
      </trkpt>
      <trkpt lat="43.6822" lon="1.46322">
        <ele>153.83264</ele>
        <time>2023-07-30T13:28:36.000Z</time>
      </trkpt>
      <trkpt lat="43.6822" lon="1.46322">
        <ele>153.83264</ele>
        <time>2023-07-30T13:28:36.000Z</time>
      </trkpt>
      <trkpt lat="43.68213" lon="1.46332">
        <ele>153.956855</ele>
        <time>2023-07-30T13:28:37.000Z</time>
      </trkpt>
      <trkpt lat="43.68211" lon="1.46336">
        <ele>154.001205</ele>
        <time>2023-07-30T13:28:39.000Z</time>
      </trkpt>
      <trkpt lat="43.68205" lon="1.46345">
        <ele>154.105317</ele>
        <time>2023-07-30T13:28:40.000Z</time>
      </trkpt>
      <trkpt lat="43.68205" lon="1.46345">
        <ele>154.105317</ele>
        <time>2023-07-30T13:28:40.000Z</time>
      </trkpt>
      <trkpt lat="43.68203" lon="1.46348">
        <ele>154.15164</ele>
        <time>2023-07-30T13:28:41.000Z</time>
      </trkpt>
      <trkpt lat="43.68203" lon="1.46348">
        <ele>154.15164</ele>
        <time>2023-07-30T13:28:41.000Z</time>
      </trkpt>
      <trkpt lat="43.682" lon="1.46353">
        <ele>154.205776</ele>
        <time>2023-07-30T13:28:43.000Z</time>
      </trkpt>
      <trkpt lat="43.68194" lon="1.46361">
        <ele>154.307934</ele>
        <time>2023-07-30T13:28:44.000Z</time>
      </trkpt>
      <trkpt lat="43.68194" lon="1.46361">
        <ele>154.307934</ele>
        <time>2023-07-30T13:28:44.000Z</time>
      </trkpt>
      <trkpt lat="43.68191" lon="1.46365">
        <ele>154.353034</ele>
        <time>2023-07-30T13:28:45.000Z</time>
      </trkpt>
      <trkpt lat="43.68189" lon="1.4637">
        <ele>154.402033</ele>
        <time>2023-07-30T13:28:46.000Z</time>
      </trkpt>
      <trkpt lat="43.68189" lon="1.46375">
        <ele>154.446249</ele>
        <time>2023-07-30T13:28:48.000Z</time>
      </trkpt>
      <trkpt lat="43.68189" lon="1.46375">
        <ele>154.446249</ele>
        <time>2023-07-30T13:28:48.000Z</time>
      </trkpt>
      <trkpt lat="43.6819" lon="1.4638">
        <ele>154.494843</ele>
        <time>2023-07-30T13:28:49.000Z</time>
      </trkpt>
      <trkpt lat="43.6819" lon="1.4638">
        <ele>154.494843</ele>
        <time>2023-07-30T13:28:49.000Z</time>
      </trkpt>
      <trkpt lat="43.68197" lon="1.46389">
        <ele>154.610785</ele>
        <time>2023-07-30T13:28:50.000Z</time>
      </trkpt>
      <trkpt lat="43.68197" lon="1.46389">
        <ele>154.610785</ele>
        <time>2023-07-30T13:28:50.000Z</time>
      </trkpt>
      <trkpt lat="43.68201" lon="1.46392">
        <ele>154.662408</ele>
        <time>2023-07-30T13:28:51.000Z</time>
      </trkpt>
      <trkpt lat="43.68201" lon="1.46392">
        <ele>154.662408</ele>
        <time>2023-07-30T13:28:51.000Z</time>
      </trkpt>
      <trkpt lat="43.68205" lon="1.46395">
        <ele>154.721276</ele>
        <time>2023-07-30T13:28:52.000Z</time>
      </trkpt>
      <trkpt lat="43.68205" lon="1.46395">
        <ele>154.721276</ele>
        <time>2023-07-30T13:28:52.000Z</time>
      </trkpt>
      <trkpt lat="43.68211" lon="1.46399">
        <ele>154.803172</ele>
        <time>2023-07-30T13:28:53.000Z</time>
      </trkpt>
      <trkpt lat="43.68211" lon="1.46399">
        <ele>154.803172</ele>
        <time>2023-07-30T13:28:53.000Z</time>
      </trkpt>
      <trkpt lat="43.68218" lon="1.46403">
        <ele>154.898747</ele>
        <time>2023-07-30T13:28:54.000Z</time>
      </trkpt>
      <trkpt lat="43.68218" lon="1.46403">
        <ele>154.898747</ele>
        <time>2023-07-30T13:28:54.000Z</time>
      </trkpt>
      <trkpt lat="43.6823" lon="1.4641">
        <ele>155.055996</ele>
        <time>2023-07-30T13:28:56.000Z</time>
      </trkpt>
      <trkpt lat="43.6823" lon="1.4641">
        <ele>155.055996</ele>
        <time>2023-07-30T13:28:56.000Z</time>
      </trkpt>
      <trkpt lat="43.68237" lon="1.46414">
        <ele>155.141225</ele>
        <time>2023-07-30T13:28:57.000Z</time>
      </trkpt>
      <trkpt lat="43.68237" lon="1.46414">
        <ele>155.141225</ele>
        <time>2023-07-30T13:28:57.000Z</time>
      </trkpt>
      <trkpt lat="43.68242" lon="1.46417">
        <ele>155.211819</ele>
        <time>2023-07-30T13:28:58.000Z</time>
      </trkpt>
      <trkpt lat="43.68242" lon="1.46417">
        <ele>155.211819</ele>
        <time>2023-07-30T13:28:58.000Z</time>
      </trkpt>
      <trkpt lat="43.68248" lon="1.4642">
        <ele>155.285533</ele>
        <time>2023-07-30T13:28:59.000Z</time>
      </trkpt>
      <trkpt lat="43.68253" lon="1.46422">
        <ele>155.349747</ele>
        <time>2023-07-30T13:29:00.000Z</time>
      </trkpt>
      <trkpt lat="43.68253" lon="1.46422">
        <ele>155.349747</ele>
        <time>2023-07-30T13:29:00.000Z</time>
      </trkpt>
      <trkpt lat="43.68258" lon="1.46424">
        <ele>155.412261</ele>
        <time>2023-07-30T13:29:01.000Z</time>
      </trkpt>
      <trkpt lat="43.68263" lon="1.46426">
        <ele>155.475451</ele>
        <time>2023-07-30T13:29:02.000Z</time>
      </trkpt>
      <trkpt lat="43.68263" lon="1.46426">
        <ele>155.475451</ele>
        <time>2023-07-30T13:29:02.000Z</time>
      </trkpt>
      <trkpt lat="43.68267" lon="1.46428">
        <ele>155.716984</ele>
        <time>2023-07-30T13:29:03.000Z</time>
      </trkpt>
      <trkpt lat="43.68267" lon="1.46428">
        <ele>155.716984</ele>
        <time>2023-07-30T13:29:03.000Z</time>
      </trkpt>
      <trkpt lat="43.68272" lon="1.4643">
        <ele>156.206788</ele>
        <time>2023-07-30T13:29:04.000Z</time>
      </trkpt>
      <trkpt lat="43.68272" lon="1.4643">
        <ele>156.206788</ele>
        <time>2023-07-30T13:29:04.000Z</time>
      </trkpt>
      <trkpt lat="43.68276" lon="1.46432">
        <ele>156.60997</ele>
        <time>2023-07-30T13:29:05.000Z</time>
      </trkpt>
      <trkpt lat="43.68276" lon="1.46432">
        <ele>156.60997</ele>
        <time>2023-07-30T13:29:05.000Z</time>
      </trkpt>
      <trkpt lat="43.68279" lon="1.46433">
        <ele>156.938406</ele>
        <time>2023-07-30T13:29:06.000Z</time>
      </trkpt>
      <trkpt lat="43.68279" lon="1.46433">
        <ele>156.938406</ele>
        <time>2023-07-30T13:29:06.000Z</time>
      </trkpt>
      <trkpt lat="43.68282" lon="1.46434">
        <ele>157.269184</ele>
        <time>2023-07-30T13:29:07.000Z</time>
      </trkpt>
      <trkpt lat="43.68282" lon="1.46434">
        <ele>157.269184</ele>
        <time>2023-07-30T13:29:07.000Z</time>
      </trkpt>
      <trkpt lat="43.68285" lon="1.46436">
        <ele>157.655559</ele>
        <time>2023-07-30T13:29:08.000Z</time>
      </trkpt>
      <trkpt lat="43.68285" lon="1.46436">
        <ele>157.655559</ele>
        <time>2023-07-30T13:29:08.000Z</time>
      </trkpt>
      <trkpt lat="43.68288" lon="1.46438">
        <ele>157.986337</ele>
        <time>2023-07-30T13:29:09.000Z</time>
      </trkpt>
      <trkpt lat="43.68288" lon="1.46438">
        <ele>157.986337</ele>
        <time>2023-07-30T13:29:09.000Z</time>
      </trkpt>
      <trkpt lat="43.68292" lon="1.4644">
        <ele>158.326578</ele>
        <time>2023-07-30T13:29:10.000Z</time>
      </trkpt>
      <trkpt lat="43.68292" lon="1.4644">
        <ele>158.326578</ele>
        <time>2023-07-30T13:29:10.000Z</time>
      </trkpt>
      <trkpt lat="43.68294" lon="1.46442">
        <ele>158.623231</ele>
        <time>2023-07-30T13:29:11.000Z</time>
      </trkpt>
      <trkpt lat="43.68294" lon="1.46442">
        <ele>158.623231</ele>
        <time>2023-07-30T13:29:11.000Z</time>
      </trkpt>
      <trkpt lat="43.68298" lon="1.46444">
        <ele>159.045101</ele>
        <time>2023-07-30T13:29:13.000Z</time>
      </trkpt>
      <trkpt lat="43.68298" lon="1.46444">
        <ele>159.045101</ele>
        <time>2023-07-30T13:29:13.000Z</time>
      </trkpt>
      <trkpt lat="43.68301" lon="1.46446">
        <ele>159.441495</ele>
        <time>2023-07-30T13:29:14.000Z</time>
      </trkpt>
      <trkpt lat="43.68301" lon="1.46446">
        <ele>159.441495</ele>
        <time>2023-07-30T13:29:14.000Z</time>
      </trkpt>
      <trkpt lat="43.68305" lon="1.46448">
        <ele>159.815635</ele>
        <time>2023-07-30T13:29:15.000Z</time>
      </trkpt>
      <trkpt lat="43.68305" lon="1.46448">
        <ele>159.815635</ele>
        <time>2023-07-30T13:29:15.000Z</time>
      </trkpt>
      <trkpt lat="43.68308" lon="1.4645">
        <ele>160.155875</ele>
        <time>2023-07-30T13:29:16.000Z</time>
      </trkpt>
      <trkpt lat="43.68308" lon="1.4645">
        <ele>160.155875</ele>
        <time>2023-07-30T13:29:16.000Z</time>
      </trkpt>
      <trkpt lat="43.68311" lon="1.46452">
        <ele>160.532842</ele>
        <time>2023-07-30T13:29:17.000Z</time>
      </trkpt>
      <trkpt lat="43.68311" lon="1.46452">
        <ele>160.532842</ele>
        <time>2023-07-30T13:29:17.000Z</time>
      </trkpt>
      <trkpt lat="43.68315" lon="1.46454">
        <ele>160.915826</ele>
        <time>2023-07-30T13:29:19.000Z</time>
      </trkpt>
      <trkpt lat="43.68315" lon="1.46454">
        <ele>160.915826</ele>
        <time>2023-07-30T13:29:19.000Z</time>
      </trkpt>
      <trkpt lat="43.68319" lon="1.46456">
        <ele>161.348398</ele>
        <time>2023-07-30T13:29:20.000Z</time>
      </trkpt>
      <trkpt lat="43.68319" lon="1.46456">
        <ele>161.348398</ele>
        <time>2023-07-30T13:29:20.000Z</time>
      </trkpt>
      <trkpt lat="43.68322" lon="1.46459">
        <ele>161.7877</ele>
        <time>2023-07-30T13:29:21.000Z</time>
      </trkpt>
      <trkpt lat="43.68322" lon="1.46459">
        <ele>161.7877</ele>
        <time>2023-07-30T13:29:21.000Z</time>
      </trkpt>
      <trkpt lat="43.68325" lon="1.46461">
        <ele>162.137669</ele>
        <time>2023-07-30T13:29:22.000Z</time>
      </trkpt>
      <trkpt lat="43.68325" lon="1.46461">
        <ele>162.137669</ele>
        <time>2023-07-30T13:29:22.000Z</time>
      </trkpt>
      <trkpt lat="43.68328" lon="1.46463">
        <ele>162.407301</ele>
        <time>2023-07-30T13:29:23.000Z</time>
      </trkpt>
      <trkpt lat="43.68328" lon="1.46463">
        <ele>162.407301</ele>
        <time>2023-07-30T13:29:23.000Z</time>
      </trkpt>
      <trkpt lat="43.68331" lon="1.46466">
        <ele>162.796768</ele>
        <time>2023-07-30T13:29:24.000Z</time>
      </trkpt>
      <trkpt lat="43.68331" lon="1.46466">
        <ele>162.796768</ele>
        <time>2023-07-30T13:29:24.000Z</time>
      </trkpt>
      <trkpt lat="43.68334" lon="1.46468">
        <ele>163.109269</ele>
        <time>2023-07-30T13:29:25.000Z</time>
      </trkpt>
      <trkpt lat="43.68334" lon="1.46468">
        <ele>163.109269</ele>
        <time>2023-07-30T13:29:25.000Z</time>
      </trkpt>
      <trkpt lat="43.68337" lon="1.46469">
        <ele>163.415079</ele>
        <time>2023-07-30T13:29:26.000Z</time>
      </trkpt>
      <trkpt lat="43.68337" lon="1.46469">
        <ele>163.415079</ele>
        <time>2023-07-30T13:29:26.000Z</time>
      </trkpt>
      <trkpt lat="43.6834" lon="1.46472">
        <ele>163.804546</ele>
        <time>2023-07-30T13:29:28.000Z</time>
      </trkpt>
      <trkpt lat="43.6834" lon="1.46472">
        <ele>163.804546</ele>
        <time>2023-07-30T13:29:28.000Z</time>
      </trkpt>
      <trkpt lat="43.68344" lon="1.46474">
        <ele>164.233882</ele>
        <time>2023-07-30T13:29:29.000Z</time>
      </trkpt>
      <trkpt lat="43.68344" lon="1.46474">
        <ele>164.233882</ele>
        <time>2023-07-30T13:29:29.000Z</time>
      </trkpt>
      <trkpt lat="43.68347" lon="1.46477">
        <ele>164.654006</ele>
        <time>2023-07-30T13:29:30.000Z</time>
      </trkpt>
      <trkpt lat="43.68347" lon="1.46477">
        <ele>164.654006</ele>
        <time>2023-07-30T13:29:30.000Z</time>
      </trkpt>
      <trkpt lat="43.6835" lon="1.4648">
        <ele>164.971567</ele>
        <time>2023-07-30T13:29:31.000Z</time>
      </trkpt>
      <trkpt lat="43.6835" lon="1.4648">
        <ele>164.971567</ele>
        <time>2023-07-30T13:29:31.000Z</time>
      </trkpt>
      <trkpt lat="43.68352" lon="1.46484">
        <ele>165.354197</ele>
        <time>2023-07-30T13:29:32.000Z</time>
      </trkpt>
      <trkpt lat="43.68352" lon="1.46484">
        <ele>165.354197</ele>
        <time>2023-07-30T13:29:32.000Z</time>
      </trkpt>
      <trkpt lat="43.68353" lon="1.46489">
        <ele>165.714996</ele>
        <time>2023-07-30T13:29:33.000Z</time>
      </trkpt>
      <trkpt lat="43.68353" lon="1.46489">
        <ele>165.714996</ele>
        <time>2023-07-30T13:29:33.000Z</time>
      </trkpt>
      <trkpt lat="43.68353" lon="1.46494">
        <ele>166.108158</ele>
        <time>2023-07-30T13:29:35.000Z</time>
      </trkpt>
      <trkpt lat="43.68353" lon="1.46494">
        <ele>166.108158</ele>
        <time>2023-07-30T13:29:35.000Z</time>
      </trkpt>
      <trkpt lat="43.68351" lon="1.46499">
        <ele>166.479664</ele>
        <time>2023-07-30T13:29:36.000Z</time>
      </trkpt>
      <trkpt lat="43.68351" lon="1.46499">
        <ele>166.479664</ele>
        <time>2023-07-30T13:29:36.000Z</time>
      </trkpt>
      <trkpt lat="43.6835" lon="1.46504">
        <ele>166.876937</ele>
        <time>2023-07-30T13:29:37.000Z</time>
      </trkpt>
      <trkpt lat="43.6835" lon="1.46504">
        <ele>166.876937</ele>
        <time>2023-07-30T13:29:37.000Z</time>
      </trkpt>
      <trkpt lat="43.68347" lon="1.46508">
        <ele>167.314052</ele>
        <time>2023-07-30T13:29:38.000Z</time>
      </trkpt>
      <trkpt lat="43.68347" lon="1.46508">
        <ele>167.314052</ele>
        <time>2023-07-30T13:29:38.000Z</time>
      </trkpt>
      <trkpt lat="43.68345" lon="1.46512">
        <ele>167.595412</ele>
        <time>2023-07-30T13:29:39.000Z</time>
      </trkpt>
      <trkpt lat="43.68345" lon="1.46512">
        <ele>167.595412</ele>
        <time>2023-07-30T13:29:39.000Z</time>
      </trkpt>
      <trkpt lat="43.68343" lon="1.46515">
        <ele>167.961021</ele>
        <time>2023-07-30T13:29:40.000Z</time>
      </trkpt>
      <trkpt lat="43.68343" lon="1.46515">
        <ele>167.961021</ele>
        <time>2023-07-30T13:29:40.000Z</time>
      </trkpt>
      <trkpt lat="43.68341" lon="1.46519">
        <ele>168.283916</ele>
        <time>2023-07-30T13:29:42.000Z</time>
      </trkpt>
      <trkpt lat="43.68341" lon="1.46519">
        <ele>168.283916</ele>
        <time>2023-07-30T13:29:42.000Z</time>
      </trkpt>
      <trkpt lat="43.68337" lon="1.46527">
        <ele>168.995513</ele>
        <time>2023-07-30T13:29:43.000Z</time>
      </trkpt>
      <trkpt lat="43.68337" lon="1.46527">
        <ele>168.995513</ele>
        <time>2023-07-30T13:29:43.000Z</time>
      </trkpt>
      <trkpt lat="43.68336" lon="1.46529">
        <ele>169.223083</ele>
        <time>2023-07-30T13:29:44.000Z</time>
      </trkpt>
      <trkpt lat="43.68336" lon="1.46529">
        <ele>169.223083</ele>
        <time>2023-07-30T13:29:44.000Z</time>
      </trkpt>
      <trkpt lat="43.68333" lon="1.46533">
        <ele>169.600128</ele>
        <time>2023-07-30T13:29:46.000Z</time>
      </trkpt>
      <trkpt lat="43.68333" lon="1.46533">
        <ele>169.600128</ele>
        <time>2023-07-30T13:29:46.000Z</time>
      </trkpt>
      <trkpt lat="43.68332" lon="1.46537">
        <ele>169.917154</ele>
        <time>2023-07-30T13:29:47.000Z</time>
      </trkpt>
      <trkpt lat="43.68332" lon="1.46537">
        <ele>169.917154</ele>
        <time>2023-07-30T13:29:47.000Z</time>
      </trkpt>
      <trkpt lat="43.68329" lon="1.46541">
        <ele>170.311764</ele>
        <time>2023-07-30T13:29:48.000Z</time>
      </trkpt>
      <trkpt lat="43.68329" lon="1.46541">
        <ele>170.311764</ele>
        <time>2023-07-30T13:29:48.000Z</time>
      </trkpt>
      <trkpt lat="43.68327" lon="1.46544">
        <ele>170.63466</ele>
        <time>2023-07-30T13:29:49.000Z</time>
      </trkpt>
      <trkpt lat="43.68327" lon="1.46544">
        <ele>170.63466</ele>
        <time>2023-07-30T13:29:49.000Z</time>
      </trkpt>
      <trkpt lat="43.68325" lon="1.46548">
        <ele>171.017507</ele>
        <time>2023-07-30T13:29:50.000Z</time>
      </trkpt>
      <trkpt lat="43.68325" lon="1.46548">
        <ele>171.017507</ele>
        <time>2023-07-30T13:29:50.000Z</time>
      </trkpt>
      <trkpt lat="43.68323" lon="1.46553">
        <ele>171.412184</ele>
        <time>2023-07-30T13:29:51.000Z</time>
      </trkpt>
      <trkpt lat="43.68323" lon="1.46553">
        <ele>171.412184</ele>
        <time>2023-07-30T13:29:51.000Z</time>
      </trkpt>
      <trkpt lat="43.68321" lon="1.46558">
        <ele>171.837021</ele>
        <time>2023-07-30T13:29:53.000Z</time>
      </trkpt>
      <trkpt lat="43.68321" lon="1.46558">
        <ele>171.837021</ele>
        <time>2023-07-30T13:29:53.000Z</time>
      </trkpt>
      <trkpt lat="43.68319" lon="1.46561">
        <ele>172.177878</ele>
        <time>2023-07-30T13:29:54.000Z</time>
      </trkpt>
      <trkpt lat="43.68319" lon="1.46561">
        <ele>172.177878</ele>
        <time>2023-07-30T13:29:54.000Z</time>
      </trkpt>
      <trkpt lat="43.68317" lon="1.46566">
        <ele>172.561317</ele>
        <time>2023-07-30T13:29:55.000Z</time>
      </trkpt>
      <trkpt lat="43.68317" lon="1.46566">
        <ele>172.561317</ele>
        <time>2023-07-30T13:29:55.000Z</time>
      </trkpt>
      <trkpt lat="43.68315" lon="1.4657">
        <ele>172.906929</ele>
        <time>2023-07-30T13:29:56.000Z</time>
      </trkpt>
      <trkpt lat="43.68315" lon="1.4657">
        <ele>172.906929</ele>
        <time>2023-07-30T13:29:56.000Z</time>
      </trkpt>
      <trkpt lat="43.68313" lon="1.46574">
        <ele>173.285038</ele>
        <time>2023-07-30T13:29:57.000Z</time>
      </trkpt>
      <trkpt lat="43.68313" lon="1.46574">
        <ele>173.285038</ele>
        <time>2023-07-30T13:29:57.000Z</time>
      </trkpt>
      <trkpt lat="43.68312" lon="1.46579">
        <ele>173.650627</ele>
        <time>2023-07-30T13:29:58.000Z</time>
      </trkpt>
      <trkpt lat="43.68312" lon="1.46579">
        <ele>173.650627</ele>
        <time>2023-07-30T13:29:58.000Z</time>
      </trkpt>
      <trkpt lat="43.68311" lon="1.46583">
        <ele>173.916096</ele>
        <time>2023-07-30T13:29:59.000Z</time>
      </trkpt>
      <trkpt lat="43.68311" lon="1.46583">
        <ele>173.916096</ele>
        <time>2023-07-30T13:29:59.000Z</time>
      </trkpt>
      <trkpt lat="43.68309" lon="1.46588">
        <ele>174.165591</ele>
        <time>2023-07-30T13:30:01.000Z</time>
      </trkpt>
      <trkpt lat="43.68309" lon="1.46588">
        <ele>174.165591</ele>
        <time>2023-07-30T13:30:01.000Z</time>
      </trkpt>
      <trkpt lat="43.68307" lon="1.46592">
        <ele>174.396123</ele>
        <time>2023-07-30T13:30:02.000Z</time>
      </trkpt>
      <trkpt lat="43.68307" lon="1.46592">
        <ele>174.396123</ele>
        <time>2023-07-30T13:30:02.000Z</time>
      </trkpt>
      <trkpt lat="43.68306" lon="1.46597">
        <ele>174.610357</ele>
        <time>2023-07-30T13:30:03.000Z</time>
      </trkpt>
      <trkpt lat="43.68304" lon="1.46601">
        <ele>174.849127</ele>
        <time>2023-07-30T13:30:04.000Z</time>
      </trkpt>
      <trkpt lat="43.68304" lon="1.46601">
        <ele>174.849127</ele>
        <time>2023-07-30T13:30:04.000Z</time>
      </trkpt>
      <trkpt lat="43.68303" lon="1.46607">
        <ele>175.102715</ele>
        <time>2023-07-30T13:30:05.000Z</time>
      </trkpt>
      <trkpt lat="43.68303" lon="1.46607">
        <ele>175.102715</ele>
        <time>2023-07-30T13:30:05.000Z</time>
      </trkpt>
      <trkpt lat="43.68302" lon="1.46611">
        <ele>175.291755</ele>
        <time>2023-07-30T13:30:06.000Z</time>
      </trkpt>
      <trkpt lat="43.68302" lon="1.46611">
        <ele>175.291755</ele>
        <time>2023-07-30T13:30:06.000Z</time>
      </trkpt>
      <trkpt lat="43.683" lon="1.46617">
        <ele>175.582935</ele>
        <time>2023-07-30T13:30:07.000Z</time>
      </trkpt>
      <trkpt lat="43.683" lon="1.46617">
        <ele>175.582935</ele>
        <time>2023-07-30T13:30:07.000Z</time>
      </trkpt>
      <trkpt lat="43.68299" lon="1.46622">
        <ele>175.829995</ele>
        <time>2023-07-30T13:30:09.000Z</time>
      </trkpt>
      <trkpt lat="43.68299" lon="1.46622">
        <ele>175.829995</ele>
        <time>2023-07-30T13:30:09.000Z</time>
      </trkpt>
      <trkpt lat="43.68298" lon="1.46627">
        <ele>176.055946</ele>
        <time>2023-07-30T13:30:10.000Z</time>
      </trkpt>
      <trkpt lat="43.68298" lon="1.46627">
        <ele>176.055946</ele>
        <time>2023-07-30T13:30:10.000Z</time>
      </trkpt>
      <trkpt lat="43.68296" lon="1.46632">
        <ele>176.303007</ele>
        <time>2023-07-30T13:30:11.000Z</time>
      </trkpt>
      <trkpt lat="43.68296" lon="1.46632">
        <ele>176.303007</ele>
        <time>2023-07-30T13:30:11.000Z</time>
      </trkpt>
      <trkpt lat="43.68295" lon="1.46636">
        <ele>176.510952</ele>
        <time>2023-07-30T13:30:12.000Z</time>
      </trkpt>
      <trkpt lat="43.68295" lon="1.46636">
        <ele>176.510952</ele>
        <time>2023-07-30T13:30:12.000Z</time>
      </trkpt>
      <trkpt lat="43.68294" lon="1.46641">
        <ele>176.726176</ele>
        <time>2023-07-30T13:30:13.000Z</time>
      </trkpt>
      <trkpt lat="43.68294" lon="1.46641">
        <ele>176.726176</ele>
        <time>2023-07-30T13:30:13.000Z</time>
      </trkpt>
      <trkpt lat="43.68293" lon="1.46646">
        <ele>176.973608</ele>
        <time>2023-07-30T13:30:14.000Z</time>
      </trkpt>
      <trkpt lat="43.68292" lon="1.46651">
        <ele>177.195286</ele>
        <time>2023-07-30T13:30:16.000Z</time>
      </trkpt>
      <trkpt lat="43.68292" lon="1.46651">
        <ele>177.195286</ele>
        <time>2023-07-30T13:30:16.000Z</time>
      </trkpt>
      <trkpt lat="43.68291" lon="1.46656">
        <ele>177.418952</ele>
        <time>2023-07-30T13:30:17.000Z</time>
      </trkpt>
      <trkpt lat="43.68291" lon="1.46656">
        <ele>177.418952</ele>
        <time>2023-07-30T13:30:17.000Z</time>
      </trkpt>
      <trkpt lat="43.6829" lon="1.4666">
        <ele>177.629893</ele>
        <time>2023-07-30T13:30:18.000Z</time>
      </trkpt>
      <trkpt lat="43.6829" lon="1.4666">
        <ele>177.629893</ele>
        <time>2023-07-30T13:30:18.000Z</time>
      </trkpt>
      <trkpt lat="43.68289" lon="1.46665">
        <ele>177.853559</ele>
        <time>2023-07-30T13:30:19.000Z</time>
      </trkpt>
      <trkpt lat="43.68289" lon="1.46665">
        <ele>177.853559</ele>
        <time>2023-07-30T13:30:19.000Z</time>
      </trkpt>
      <trkpt lat="43.68288" lon="1.46669">
        <ele>178.065865</ele>
        <time>2023-07-30T13:30:20.000Z</time>
      </trkpt>
      <trkpt lat="43.68288" lon="1.46669">
        <ele>178.065865</ele>
        <time>2023-07-30T13:30:20.000Z</time>
      </trkpt>
      <trkpt lat="43.68287" lon="1.46674">
        <ele>178.254906</ele>
        <time>2023-07-30T13:30:21.000Z</time>
      </trkpt>
      <trkpt lat="43.68287" lon="1.46674">
        <ele>178.254906</ele>
        <time>2023-07-30T13:30:21.000Z</time>
      </trkpt>
      <trkpt lat="43.68288" lon="1.46678">
        <ele>178.443947</ele>
        <time>2023-07-30T13:30:23.000Z</time>
      </trkpt>
      <trkpt lat="43.68288" lon="1.46678">
        <ele>178.443947</ele>
        <time>2023-07-30T13:30:23.000Z</time>
      </trkpt>
      <trkpt lat="43.68289" lon="1.46681">
        <ele>178.612948</ele>
        <time>2023-07-30T13:30:24.000Z</time>
      </trkpt>
      <trkpt lat="43.68289" lon="1.46681">
        <ele>178.612948</ele>
        <time>2023-07-30T13:30:24.000Z</time>
      </trkpt>
      <trkpt lat="43.68294" lon="1.46689">
        <ele>179.083508</ele>
        <time>2023-07-30T13:30:26.000Z</time>
      </trkpt>
      <trkpt lat="43.68294" lon="1.46689">
        <ele>179.083508</ele>
        <time>2023-07-30T13:30:26.000Z</time>
      </trkpt>
      <trkpt lat="43.68296" lon="1.46691">
        <ele>179.24492</ele>
        <time>2023-07-30T13:30:26.000Z</time>
      </trkpt>
      <trkpt lat="43.68296" lon="1.46691">
        <ele>179.24492</ele>
        <time>2023-07-30T13:30:26.000Z</time>
      </trkpt>
      <trkpt lat="43.68299" lon="1.46694">
        <ele>179.452197</ele>
        <time>2023-07-30T13:30:27.000Z</time>
      </trkpt>
      <trkpt lat="43.68299" lon="1.46694">
        <ele>179.452197</ele>
        <time>2023-07-30T13:30:27.000Z</time>
      </trkpt>
      <trkpt lat="43.68301" lon="1.46697">
        <ele>179.672853</ele>
        <time>2023-07-30T13:30:30.000Z</time>
      </trkpt>
      <trkpt lat="43.68301" lon="1.46697">
        <ele>179.672853</ele>
        <time>2023-07-30T13:30:30.000Z</time>
      </trkpt>
      <trkpt lat="43.68305" lon="1.46701">
        <ele>179.955751</ele>
        <time>2023-07-30T13:30:30.000Z</time>
      </trkpt>
      <trkpt lat="43.68305" lon="1.46701">
        <ele>179.955751</ele>
        <time>2023-07-30T13:30:30.000Z</time>
      </trkpt>
      <trkpt lat="43.68308" lon="1.46705">
        <ele>180.188488</ele>
        <time>2023-07-30T13:30:31.000Z</time>
      </trkpt>
      <trkpt lat="43.68308" lon="1.46705">
        <ele>180.188488</ele>
        <time>2023-07-30T13:30:31.000Z</time>
      </trkpt>
      <trkpt lat="43.68311" lon="1.46709">
        <ele>180.437929</ele>
        <time>2023-07-30T13:30:33.000Z</time>
      </trkpt>
      <trkpt lat="43.68311" lon="1.46709">
        <ele>180.437929</ele>
        <time>2023-07-30T13:30:33.000Z</time>
      </trkpt>
      <trkpt lat="43.68313" lon="1.46712">
        <ele>180.661531</ele>
        <time>2023-07-30T13:30:34.000Z</time>
      </trkpt>
      <trkpt lat="43.68313" lon="1.46712">
        <ele>180.661531</ele>
        <time>2023-07-30T13:30:34.000Z</time>
      </trkpt>
      <trkpt lat="43.68316" lon="1.46716">
        <ele>180.927711</ele>
        <time>2023-07-30T13:30:36.000Z</time>
      </trkpt>
      <trkpt lat="43.68316" lon="1.46716">
        <ele>180.927711</ele>
        <time>2023-07-30T13:30:36.000Z</time>
      </trkpt>
      <trkpt lat="43.68319" lon="1.46719">
        <ele>181.120852</ele>
        <time>2023-07-30T13:30:37.000Z</time>
      </trkpt>
      <trkpt lat="43.68319" lon="1.46719">
        <ele>181.120852</ele>
        <time>2023-07-30T13:30:37.000Z</time>
      </trkpt>
      <trkpt lat="43.68322" lon="1.46723">
        <ele>181.385756</ele>
        <time>2023-07-30T13:30:38.000Z</time>
      </trkpt>
      <trkpt lat="43.68322" lon="1.46723">
        <ele>181.385756</ele>
        <time>2023-07-30T13:30:38.000Z</time>
      </trkpt>
      <trkpt lat="43.68324" lon="1.46727">
        <ele>181.621629</ele>
        <time>2023-07-30T13:30:38.000Z</time>
      </trkpt>
      <trkpt lat="43.68324" lon="1.46727">
        <ele>181.621629</ele>
        <time>2023-07-30T13:30:38.000Z</time>
      </trkpt>
      <trkpt lat="43.68327" lon="1.46731">
        <ele>181.873147</ele>
        <time>2023-07-30T13:30:40.000Z</time>
      </trkpt>
      <trkpt lat="43.68327" lon="1.46731">
        <ele>181.873147</ele>
        <time>2023-07-30T13:30:40.000Z</time>
      </trkpt>
      <trkpt lat="43.6833" lon="1.46736">
        <ele>182.169699</ele>
        <time>2023-07-30T13:30:41.000Z</time>
      </trkpt>
      <trkpt lat="43.6833" lon="1.46736">
        <ele>182.169699</ele>
        <time>2023-07-30T13:30:41.000Z</time>
      </trkpt>
      <trkpt lat="43.68334" lon="1.46741">
        <ele>182.474426</ele>
        <time>2023-07-30T13:30:43.000Z</time>
      </trkpt>
      <trkpt lat="43.68334" lon="1.46741">
        <ele>182.474426</ele>
        <time>2023-07-30T13:30:43.000Z</time>
      </trkpt>
      <trkpt lat="43.68337" lon="1.46746">
        <ele>182.78569</ele>
        <time>2023-07-30T13:30:44.000Z</time>
      </trkpt>
      <trkpt lat="43.68337" lon="1.46746">
        <ele>182.78569</ele>
        <time>2023-07-30T13:30:44.000Z</time>
      </trkpt>
      <trkpt lat="43.6834" lon="1.46749">
        <ele>183.024743</ele>
        <time>2023-07-30T13:30:44.000Z</time>
      </trkpt>
      <trkpt lat="43.6834" lon="1.46749">
        <ele>183.024743</ele>
        <time>2023-07-30T13:30:44.000Z</time>
      </trkpt>
      <trkpt lat="43.68344" lon="1.46755">
        <ele>183.362851</ele>
        <time>2023-07-30T13:30:46.000Z</time>
      </trkpt>
      <trkpt lat="43.68346" lon="1.46758">
        <ele>183.562149</ele>
        <time>2023-07-30T13:30:47.000Z</time>
      </trkpt>
      <trkpt lat="43.68346" lon="1.46758">
        <ele>183.562149</ele>
        <time>2023-07-30T13:30:47.000Z</time>
      </trkpt>
      <trkpt lat="43.68349" lon="1.46762">
        <ele>183.801201</ele>
        <time>2023-07-30T13:30:48.000Z</time>
      </trkpt>
      <trkpt lat="43.68352" lon="1.46767">
        <ele>184.0893</ele>
        <time>2023-07-30T13:30:48.000Z</time>
      </trkpt>
      <trkpt lat="43.68352" lon="1.46767">
        <ele>184.0893</ele>
        <time>2023-07-30T13:30:48.000Z</time>
      </trkpt>
      <trkpt lat="43.68354" lon="1.4677">
        <ele>184.322036</ele>
        <time>2023-07-30T13:30:50.000Z</time>
      </trkpt>
      <trkpt lat="43.68354" lon="1.4677">
        <ele>184.322036</ele>
        <time>2023-07-30T13:30:50.000Z</time>
      </trkpt>
      <trkpt lat="43.68358" lon="1.46774">
        <ele>184.588215</ele>
        <time>2023-07-30T13:30:51.000Z</time>
      </trkpt>
      <trkpt lat="43.68358" lon="1.46774">
        <ele>184.588215</ele>
        <time>2023-07-30T13:30:51.000Z</time>
      </trkpt>
      <trkpt lat="43.68361" lon="1.46779">
        <ele>184.872903</ele>
        <time>2023-07-30T13:30:53.000Z</time>
      </trkpt>
      <trkpt lat="43.68361" lon="1.46779">
        <ele>184.872903</ele>
        <time>2023-07-30T13:30:53.000Z</time>
      </trkpt>
      <trkpt lat="43.68364" lon="1.46783">
        <ele>185.06077</ele>
        <time>2023-07-30T13:30:54.000Z</time>
      </trkpt>
      <trkpt lat="43.68364" lon="1.46783">
        <ele>185.06077</ele>
        <time>2023-07-30T13:30:54.000Z</time>
      </trkpt>
      <trkpt lat="43.68367" lon="1.46787">
        <ele>185.155466</ele>
        <time>2023-07-30T13:30:55.000Z</time>
      </trkpt>
      <trkpt lat="43.68367" lon="1.46787">
        <ele>185.155466</ele>
        <time>2023-07-30T13:30:55.000Z</time>
      </trkpt>
      <trkpt lat="43.6837" lon="1.46791">
        <ele>185.250582</ele>
        <time>2023-07-30T13:30:57.000Z</time>
      </trkpt>
      <trkpt lat="43.6837" lon="1.46791">
        <ele>185.250582</ele>
        <time>2023-07-30T13:30:57.000Z</time>
      </trkpt>
      <trkpt lat="43.68372" lon="1.46794">
        <ele>185.319876</ele>
        <time>2023-07-30T13:30:58.000Z</time>
      </trkpt>
      <trkpt lat="43.68372" lon="1.46794">
        <ele>185.319876</ele>
        <time>2023-07-30T13:30:58.000Z</time>
      </trkpt>
      <trkpt lat="43.68375" lon="1.46799">
        <ele>185.423023</ele>
        <time>2023-07-30T13:30:59.000Z</time>
      </trkpt>
      <trkpt lat="43.68375" lon="1.46799">
        <ele>185.423023</ele>
        <time>2023-07-30T13:30:59.000Z</time>
      </trkpt>
      <trkpt lat="43.68378" lon="1.46803">
        <ele>185.500352</ele>
        <time>2023-07-30T13:30:59.000Z</time>
      </trkpt>
      <trkpt lat="43.68378" lon="1.46803">
        <ele>185.500352</ele>
        <time>2023-07-30T13:30:59.000Z</time>
      </trkpt>
      <trkpt lat="43.6838" lon="1.46806">
        <ele>185.570743</ele>
        <time>2023-07-30T13:31:01.000Z</time>
      </trkpt>
      <trkpt lat="43.6838" lon="1.46806">
        <ele>185.570743</ele>
        <time>2023-07-30T13:31:01.000Z</time>
      </trkpt>
      <trkpt lat="43.68383" lon="1.4681">
        <ele>185.665439</ele>
        <time>2023-07-30T13:31:02.000Z</time>
      </trkpt>
      <trkpt lat="43.68383" lon="1.4681">
        <ele>185.665439</ele>
        <time>2023-07-30T13:31:02.000Z</time>
      </trkpt>
      <trkpt lat="43.68386" lon="1.46814">
        <ele>185.748748</ele>
        <time>2023-07-30T13:31:03.000Z</time>
      </trkpt>
      <trkpt lat="43.68386" lon="1.46814">
        <ele>185.748748</ele>
        <time>2023-07-30T13:31:03.000Z</time>
      </trkpt>
      <trkpt lat="43.68388" lon="1.46817">
        <ele>185.83318</ele>
        <time>2023-07-30T13:31:05.000Z</time>
      </trkpt>
      <trkpt lat="43.68388" lon="1.46817">
        <ele>185.83318</ele>
        <time>2023-07-30T13:31:05.000Z</time>
      </trkpt>
      <trkpt lat="43.68391" lon="1.46821">
        <ele>185.909464</ele>
        <time>2023-07-30T13:31:06.000Z</time>
      </trkpt>
      <trkpt lat="43.68391" lon="1.46821">
        <ele>185.909464</ele>
        <time>2023-07-30T13:31:06.000Z</time>
      </trkpt>
      <trkpt lat="43.68393" lon="1.46824">
        <ele>185.983252</ele>
        <time>2023-07-30T13:31:07.000Z</time>
      </trkpt>
      <trkpt lat="43.68393" lon="1.46824">
        <ele>185.983252</ele>
        <time>2023-07-30T13:31:07.000Z</time>
      </trkpt>
      <trkpt lat="43.68396" lon="1.46828">
        <ele>186.076177</ele>
        <time>2023-07-30T13:31:08.000Z</time>
      </trkpt>
      <trkpt lat="43.68396" lon="1.46828">
        <ele>186.076177</ele>
        <time>2023-07-30T13:31:08.000Z</time>
      </trkpt>
      <trkpt lat="43.68399" lon="1.46831">
        <ele>186.142299</ele>
        <time>2023-07-30T13:31:09.000Z</time>
      </trkpt>
      <trkpt lat="43.68399" lon="1.46831">
        <ele>186.142299</ele>
        <time>2023-07-30T13:31:09.000Z</time>
      </trkpt>
      <trkpt lat="43.68401" lon="1.46834">
        <ele>186.214938</ele>
        <time>2023-07-30T13:31:11.000Z</time>
      </trkpt>
      <trkpt lat="43.68401" lon="1.46834">
        <ele>186.214938</ele>
        <time>2023-07-30T13:31:11.000Z</time>
      </trkpt>
      <trkpt lat="43.68404" lon="1.46837">
        <ele>186.290177</ele>
        <time>2023-07-30T13:31:12.000Z</time>
      </trkpt>
      <trkpt lat="43.68404" lon="1.46837">
        <ele>186.290177</ele>
        <time>2023-07-30T13:31:12.000Z</time>
      </trkpt>
      <trkpt lat="43.68407" lon="1.46842">
        <ele>186.399824</ele>
        <time>2023-07-30T13:31:13.000Z</time>
      </trkpt>
      <trkpt lat="43.68407" lon="1.46842">
        <ele>186.399824</ele>
        <time>2023-07-30T13:31:13.000Z</time>
      </trkpt>
      <trkpt lat="43.6841" lon="1.46844">
        <ele>186.465946</ele>
        <time>2023-07-30T13:31:13.000Z</time>
      </trkpt>
      <trkpt lat="43.6841" lon="1.46844">
        <ele>186.465946</ele>
        <time>2023-07-30T13:31:13.000Z</time>
      </trkpt>
      <trkpt lat="43.68413" lon="1.46848">
        <ele>186.554667</ele>
        <time>2023-07-30T13:31:15.000Z</time>
      </trkpt>
      <trkpt lat="43.68413" lon="1.46848">
        <ele>186.554667</ele>
        <time>2023-07-30T13:31:15.000Z</time>
      </trkpt>
      <trkpt lat="43.68416" lon="1.46852">
        <ele>186.637975</ele>
        <time>2023-07-30T13:31:17.000Z</time>
      </trkpt>
      <trkpt lat="43.68416" lon="1.46852">
        <ele>186.637975</ele>
        <time>2023-07-30T13:31:17.000Z</time>
      </trkpt>
      <trkpt lat="43.68418" lon="1.46856">
        <ele>186.729264</ele>
        <time>2023-07-30T13:31:17.000Z</time>
      </trkpt>
      <trkpt lat="43.68418" lon="1.46856">
        <ele>186.729264</ele>
        <time>2023-07-30T13:31:17.000Z</time>
      </trkpt>
      <trkpt lat="43.68421" lon="1.46859">
        <ele>186.800478</ele>
        <time>2023-07-30T13:31:19.000Z</time>
      </trkpt>
      <trkpt lat="43.68421" lon="1.46859">
        <ele>186.800478</ele>
        <time>2023-07-30T13:31:19.000Z</time>
      </trkpt>
      <trkpt lat="43.68424" lon="1.46862">
        <ele>186.881587</ele>
        <time>2023-07-30T13:31:20.000Z</time>
      </trkpt>
      <trkpt lat="43.68424" lon="1.46862">
        <ele>186.881587</ele>
        <time>2023-07-30T13:31:20.000Z</time>
      </trkpt>
      <trkpt lat="43.68426" lon="1.46864">
        <ele>186.942879</ele>
        <time>2023-07-30T13:31:21.000Z</time>
      </trkpt>
      <trkpt lat="43.68426" lon="1.46864">
        <ele>186.942879</ele>
        <time>2023-07-30T13:31:21.000Z</time>
      </trkpt>
      <trkpt lat="43.68428" lon="1.46865">
        <ele>186.99151</ele>
        <time>2023-07-30T13:31:23.000Z</time>
      </trkpt>
      <trkpt lat="43.6843" lon="1.46864">
        <ele>187.028289</ele>
        <time>2023-07-30T13:31:24.000Z</time>
      </trkpt>
      <trkpt lat="43.68433" lon="1.46862">
        <ele>187.104248</ele>
        <time>2023-07-30T13:31:25.000Z</time>
      </trkpt>
      <trkpt lat="43.68433" lon="1.46862">
        <ele>187.104248</ele>
        <time>2023-07-30T13:31:25.000Z</time>
      </trkpt>
      <trkpt lat="43.68438" lon="1.46854">
        <ele>187.273112</ele>
        <time>2023-07-30T13:31:26.000Z</time>
      </trkpt>
      <trkpt lat="43.68441" lon="1.46849">
        <ele>187.383048</ele>
        <time>2023-07-30T13:31:27.000Z</time>
      </trkpt>
      <trkpt lat="43.68441" lon="1.46849">
        <ele>187.383048</ele>
        <time>2023-07-30T13:31:27.000Z</time>
      </trkpt>
      <trkpt lat="43.68445" lon="1.46844">
        <ele>187.496525</ele>
        <time>2023-07-30T13:31:28.000Z</time>
      </trkpt>
      <trkpt lat="43.68445" lon="1.46844">
        <ele>187.496525</ele>
        <time>2023-07-30T13:31:28.000Z</time>
      </trkpt>
      <trkpt lat="43.68449" lon="1.46837">
        <ele>187.640682</ele>
        <time>2023-07-30T13:31:29.000Z</time>
      </trkpt>
      <trkpt lat="43.68454" lon="1.46828">
        <ele>187.819301</ele>
        <time>2023-07-30T13:31:30.000Z</time>
      </trkpt>
      <trkpt lat="43.68454" lon="1.46828">
        <ele>187.819301</ele>
        <time>2023-07-30T13:31:30.000Z</time>
      </trkpt>
      <trkpt lat="43.68458" lon="1.46822">
        <ele>187.94334</ele>
        <time>2023-07-30T13:31:31.000Z</time>
      </trkpt>
      <trkpt lat="43.68458" lon="1.46822">
        <ele>187.94334</ele>
        <time>2023-07-30T13:31:31.000Z</time>
      </trkpt>
      <trkpt lat="43.68462" lon="1.46816">
        <ele>188.079772</ele>
        <time>2023-07-30T13:31:32.000Z</time>
      </trkpt>
      <trkpt lat="43.68462" lon="1.46816">
        <ele>188.079772</ele>
        <time>2023-07-30T13:31:32.000Z</time>
      </trkpt>
      <trkpt lat="43.68467" lon="1.46811">
        <ele>188.214181</ele>
        <time>2023-07-30T13:31:33.000Z</time>
      </trkpt>
      <trkpt lat="43.68473" lon="1.46807">
        <ele>188.349965</ele>
        <time>2023-07-30T13:31:33.000Z</time>
      </trkpt>
      <trkpt lat="43.68473" lon="1.46807">
        <ele>188.349965</ele>
        <time>2023-07-30T13:31:33.000Z</time>
      </trkpt>
      <trkpt lat="43.68478" lon="1.46804">
        <ele>188.476711</ele>
        <time>2023-07-30T13:31:35.000Z</time>
      </trkpt>
      <trkpt lat="43.68484" lon="1.46802">
        <ele>188.605592</ele>
        <time>2023-07-30T13:31:36.000Z</time>
      </trkpt>
      <trkpt lat="43.68484" lon="1.46802">
        <ele>188.605592</ele>
        <time>2023-07-30T13:31:36.000Z</time>
      </trkpt>
      <trkpt lat="43.68489" lon="1.468">
        <ele>188.725721</ele>
        <time>2023-07-30T13:31:37.000Z</time>
      </trkpt>
      <trkpt lat="43.68495" lon="1.468">
        <ele>188.850895</ele>
        <time>2023-07-30T13:31:38.000Z</time>
      </trkpt>
      <trkpt lat="43.68501" lon="1.468">
        <ele>188.974634</ele>
        <time>2023-07-30T13:31:39.000Z</time>
      </trkpt>
      <trkpt lat="43.68501" lon="1.468">
        <ele>188.974634</ele>
        <time>2023-07-30T13:31:39.000Z</time>
      </trkpt>
      <trkpt lat="43.68506" lon="1.46801">
        <ele>189.027231</ele>
        <time>2023-07-30T13:31:39.000Z</time>
      </trkpt>
      <trkpt lat="43.68512" lon="1.46804">
        <ele>189.082781</ele>
        <time>2023-07-30T13:31:41.000Z</time>
      </trkpt>
      <trkpt lat="43.68512" lon="1.46804">
        <ele>189.082781</ele>
        <time>2023-07-30T13:31:41.000Z</time>
      </trkpt>
      <trkpt lat="43.68517" lon="1.46807">
        <ele>189.137122</ele>
        <time>2023-07-30T13:31:41.000Z</time>
      </trkpt>
      <trkpt lat="43.68517" lon="1.46807">
        <ele>189.137122</ele>
        <time>2023-07-30T13:31:41.000Z</time>
      </trkpt>
      <trkpt lat="43.68521" lon="1.46812">
        <ele>189.193136</ele>
        <time>2023-07-30T13:31:43.000Z</time>
      </trkpt>
      <trkpt lat="43.68526" lon="1.46818">
        <ele>189.253627</ele>
        <time>2023-07-30T13:31:43.000Z</time>
      </trkpt>
      <trkpt lat="43.68526" lon="1.46818">
        <ele>189.253627</ele>
        <time>2023-07-30T13:31:43.000Z</time>
      </trkpt>
      <trkpt lat="43.6853" lon="1.46824">
        <ele>189.316961</ele>
        <time>2023-07-30T13:31:45.000Z</time>
      </trkpt>
      <trkpt lat="43.68533" lon="1.4683">
        <ele>189.369291</ele>
        <time>2023-07-30T13:31:46.000Z</time>
      </trkpt>
      <trkpt lat="43.68537" lon="1.46837">
        <ele>189.431281</ele>
        <time>2023-07-30T13:31:47.000Z</time>
      </trkpt>
      <trkpt lat="43.68541" lon="1.46844">
        <ele>189.494991</ele>
        <time>2023-07-30T13:31:48.000Z</time>
      </trkpt>
      <trkpt lat="43.68545" lon="1.46852">
        <ele>189.558693</ele>
        <time>2023-07-30T13:31:49.000Z</time>
      </trkpt>
      <trkpt lat="43.68549" lon="1.46858">
        <ele>189.620118</ele>
        <time>2023-07-30T13:31:50.000Z</time>
      </trkpt>
      <trkpt lat="43.68552" lon="1.46866">
        <ele>189.68221</ele>
        <time>2023-07-30T13:31:51.000Z</time>
      </trkpt>
      <trkpt lat="43.68552" lon="1.46866">
        <ele>189.68221</ele>
        <time>2023-07-30T13:31:51.000Z</time>
      </trkpt>
      <trkpt lat="43.68554" lon="1.46873">
        <ele>189.737156</ele>
        <time>2023-07-30T13:31:52.000Z</time>
      </trkpt>
      <trkpt lat="43.68554" lon="1.46873">
        <ele>189.737156</ele>
        <time>2023-07-30T13:31:52.000Z</time>
      </trkpt>
      <trkpt lat="43.68555" lon="1.4688">
        <ele>189.789446</ele>
        <time>2023-07-30T13:31:53.000Z</time>
      </trkpt>
      <trkpt lat="43.68555" lon="1.4688">
        <ele>189.789446</ele>
        <time>2023-07-30T13:31:53.000Z</time>
      </trkpt>
      <trkpt lat="43.68554" lon="1.46888">
        <ele>189.839882</ele>
        <time>2023-07-30T13:31:54.000Z</time>
      </trkpt>
      <trkpt lat="43.68554" lon="1.46888">
        <ele>189.839882</ele>
        <time>2023-07-30T13:31:54.000Z</time>
      </trkpt>
      <trkpt lat="43.68554" lon="1.46894">
        <ele>189.886788</ele>
        <time>2023-07-30T13:31:54.000Z</time>
      </trkpt>
      <trkpt lat="43.68554" lon="1.46894">
        <ele>189.886788</ele>
        <time>2023-07-30T13:31:54.000Z</time>
      </trkpt>
      <trkpt lat="43.68553" lon="1.469">
        <ele>189.932</ele>
        <time>2023-07-30T13:31:56.000Z</time>
      </trkpt>
      <trkpt lat="43.68553" lon="1.469">
        <ele>189.932</ele>
        <time>2023-07-30T13:31:56.000Z</time>
      </trkpt>
      <trkpt lat="43.68553" lon="1.46904">
        <ele>189.961037</ele>
        <time>2023-07-30T13:31:57.000Z</time>
      </trkpt>
      <trkpt lat="43.68553" lon="1.46904">
        <ele>189.961037</ele>
        <time>2023-07-30T13:31:57.000Z</time>
      </trkpt>
      <trkpt lat="43.68553" lon="1.4691">
        <ele>190.002822</ele>
        <time>2023-07-30T13:31:58.000Z</time>
      </trkpt>
      <trkpt lat="43.68553" lon="1.4691">
        <ele>190.002822</ele>
        <time>2023-07-30T13:31:58.000Z</time>
      </trkpt>
      <trkpt lat="43.68554" lon="1.46916">
        <ele>190.042554</ele>
        <time>2023-07-30T13:31:59.000Z</time>
      </trkpt>
      <trkpt lat="43.68554" lon="1.46916">
        <ele>190.042554</ele>
        <time>2023-07-30T13:31:59.000Z</time>
      </trkpt>
      <trkpt lat="43.68555" lon="1.46921">
        <ele>190.080238</ele>
        <time>2023-07-30T13:32:00.000Z</time>
      </trkpt>
      <trkpt lat="43.68555" lon="1.46921">
        <ele>190.080238</ele>
        <time>2023-07-30T13:32:00.000Z</time>
      </trkpt>
      <trkpt lat="43.68557" lon="1.46926">
        <ele>190.120087</ele>
        <time>2023-07-30T13:32:01.000Z</time>
      </trkpt>
      <trkpt lat="43.68557" lon="1.46926">
        <ele>190.120087</ele>
        <time>2023-07-30T13:32:01.000Z</time>
      </trkpt>
      <trkpt lat="43.68561" lon="1.46931">
        <ele>190.170796</ele>
        <time>2023-07-30T13:32:02.000Z</time>
      </trkpt>
      <trkpt lat="43.68561" lon="1.46931">
        <ele>190.170796</ele>
        <time>2023-07-30T13:32:02.000Z</time>
      </trkpt>
      <trkpt lat="43.68565" lon="1.46935">
        <ele>190.22283</ele>
        <time>2023-07-30T13:32:03.000Z</time>
      </trkpt>
      <trkpt lat="43.68565" lon="1.46935">
        <ele>190.22283</ele>
        <time>2023-07-30T13:32:03.000Z</time>
      </trkpt>
      <trkpt lat="43.68569" lon="1.4694">
        <ele>190.276193</ele>
        <time>2023-07-30T13:32:04.000Z</time>
      </trkpt>
      <trkpt lat="43.68573" lon="1.46945">
        <ele>190.327797</ele>
        <time>2023-07-30T13:32:05.000Z</time>
      </trkpt>
      <trkpt lat="43.68578" lon="1.46949">
        <ele>190.380269</ele>
        <time>2023-07-30T13:32:06.000Z</time>
      </trkpt>
      <trkpt lat="43.68582" lon="1.46955">
        <ele>190.435954</ele>
        <time>2023-07-30T13:32:07.000Z</time>
      </trkpt>
      <trkpt lat="43.68582" lon="1.46955">
        <ele>190.435954</ele>
        <time>2023-07-30T13:32:07.000Z</time>
      </trkpt>
      <trkpt lat="43.68586" lon="1.46959">
        <ele>190.48977</ele>
        <time>2023-07-30T13:32:07.000Z</time>
      </trkpt>
      <trkpt lat="43.68591" lon="1.46965">
        <ele>190.547203</ele>
        <time>2023-07-30T13:32:09.000Z</time>
      </trkpt>
      <trkpt lat="43.68595" lon="1.4697">
        <ele>190.606758</ele>
        <time>2023-07-30T13:32:10.000Z</time>
      </trkpt>
      <trkpt lat="43.68599" lon="1.46976">
        <ele>190.661145</ele>
        <time>2023-07-30T13:32:11.000Z</time>
      </trkpt>
      <trkpt lat="43.68604" lon="1.46982">
        <ele>190.725051</ele>
        <time>2023-07-30T13:32:12.000Z</time>
      </trkpt>
      <trkpt lat="43.68604" lon="1.46982">
        <ele>190.725051</ele>
        <time>2023-07-30T13:32:12.000Z</time>
      </trkpt>
      <trkpt lat="43.68608" lon="1.46989">
        <ele>190.498418</ele>
        <time>2023-07-30T13:32:13.000Z</time>
      </trkpt>
      <trkpt lat="43.68608" lon="1.46989">
        <ele>190.498418</ele>
        <time>2023-07-30T13:32:13.000Z</time>
      </trkpt>
      <trkpt lat="43.68612" lon="1.46996">
        <ele>190.261146</ele>
        <time>2023-07-30T13:32:14.000Z</time>
      </trkpt>
      <trkpt lat="43.68612" lon="1.46996">
        <ele>190.261146</ele>
        <time>2023-07-30T13:32:14.000Z</time>
      </trkpt>
      <trkpt lat="43.68617" lon="1.47004">
        <ele>190.014868</ele>
        <time>2023-07-30T13:32:15.000Z</time>
      </trkpt>
      <trkpt lat="43.68617" lon="1.47004">
        <ele>190.014868</ele>
        <time>2023-07-30T13:32:15.000Z</time>
      </trkpt>
      <trkpt lat="43.68622" lon="1.47011">
        <ele>189.749958</ele>
        <time>2023-07-30T13:32:16.000Z</time>
      </trkpt>
      <trkpt lat="43.68622" lon="1.47011">
        <ele>189.749958</ele>
        <time>2023-07-30T13:32:16.000Z</time>
      </trkpt>
      <trkpt lat="43.68628" lon="1.47019">
        <ele>189.473219</ele>
        <time>2023-07-30T13:32:17.000Z</time>
      </trkpt>
      <trkpt lat="43.68628" lon="1.47019">
        <ele>189.473219</ele>
        <time>2023-07-30T13:32:17.000Z</time>
      </trkpt>
      <trkpt lat="43.68634" lon="1.47026">
        <ele>189.200769</ele>
        <time>2023-07-30T13:32:18.000Z</time>
      </trkpt>
      <trkpt lat="43.68634" lon="1.47026">
        <ele>189.200769</ele>
        <time>2023-07-30T13:32:18.000Z</time>
      </trkpt>
      <trkpt lat="43.68639" lon="1.47033">
        <ele>188.937661</ele>
        <time>2023-07-30T13:32:19.000Z</time>
      </trkpt>
      <trkpt lat="43.68639" lon="1.47033">
        <ele>188.937661</ele>
        <time>2023-07-30T13:32:19.000Z</time>
      </trkpt>
      <trkpt lat="43.68645" lon="1.47041">
        <ele>188.659163</ele>
        <time>2023-07-30T13:32:20.000Z</time>
      </trkpt>
      <trkpt lat="43.68645" lon="1.47041">
        <ele>188.659163</ele>
        <time>2023-07-30T13:32:20.000Z</time>
      </trkpt>
      <trkpt lat="43.6865" lon="1.47048">
        <ele>188.377111</ele>
        <time>2023-07-30T13:32:21.000Z</time>
      </trkpt>
      <trkpt lat="43.6865" lon="1.47048">
        <ele>188.377111</ele>
        <time>2023-07-30T13:32:21.000Z</time>
      </trkpt>
      <trkpt lat="43.68657" lon="1.47056">
        <ele>188.081414</ele>
        <time>2023-07-30T13:32:22.000Z</time>
      </trkpt>
      <trkpt lat="43.68657" lon="1.47056">
        <ele>188.081414</ele>
        <time>2023-07-30T13:32:22.000Z</time>
      </trkpt>
      <trkpt lat="43.68662" lon="1.47064">
        <ele>187.807272</ele>
        <time>2023-07-30T13:32:23.000Z</time>
      </trkpt>
      <trkpt lat="43.68662" lon="1.47064">
        <ele>187.807272</ele>
        <time>2023-07-30T13:32:23.000Z</time>
      </trkpt>
      <trkpt lat="43.68668" lon="1.47072">
        <ele>187.519802</ele>
        <time>2023-07-30T13:32:24.000Z</time>
      </trkpt>
      <trkpt lat="43.68668" lon="1.47072">
        <ele>187.519802</ele>
        <time>2023-07-30T13:32:24.000Z</time>
      </trkpt>
      <trkpt lat="43.68673" lon="1.47079">
        <ele>187.25308</ele>
        <time>2023-07-30T13:32:25.000Z</time>
      </trkpt>
      <trkpt lat="43.68679" lon="1.47087">
        <ele>186.964289</ele>
        <time>2023-07-30T13:32:25.000Z</time>
      </trkpt>
      <trkpt lat="43.68679" lon="1.47087">
        <ele>186.964289</ele>
        <time>2023-07-30T13:32:25.000Z</time>
      </trkpt>
      <trkpt lat="43.68686" lon="1.47094">
        <ele>186.671364</ele>
        <time>2023-07-30T13:32:27.000Z</time>
      </trkpt>
      <trkpt lat="43.68686" lon="1.47094">
        <ele>186.671364</ele>
        <time>2023-07-30T13:32:27.000Z</time>
      </trkpt>
      <trkpt lat="43.68692" lon="1.471">
        <ele>186.400648</ele>
        <time>2023-07-30T13:32:28.000Z</time>
      </trkpt>
      <trkpt lat="43.68692" lon="1.471">
        <ele>186.400648</ele>
        <time>2023-07-30T13:32:28.000Z</time>
      </trkpt>
      <trkpt lat="43.68699" lon="1.47102">
        <ele>186.149762</ele>
        <time>2023-07-30T13:32:29.000Z</time>
      </trkpt>
      <trkpt lat="43.68699" lon="1.47102">
        <ele>186.149762</ele>
        <time>2023-07-30T13:32:29.000Z</time>
      </trkpt>
      <trkpt lat="43.68707" lon="1.47101">
        <ele>185.881469</ele>
        <time>2023-07-30T13:32:30.000Z</time>
      </trkpt>
      <trkpt lat="43.68707" lon="1.47101">
        <ele>185.881469</ele>
        <time>2023-07-30T13:32:30.000Z</time>
      </trkpt>
      <trkpt lat="43.68713" lon="1.47097">
        <ele>185.625795</ele>
        <time>2023-07-30T13:32:30.000Z</time>
      </trkpt>
      <trkpt lat="43.68713" lon="1.47097">
        <ele>185.625795</ele>
        <time>2023-07-30T13:32:30.000Z</time>
      </trkpt>
      <trkpt lat="43.6872" lon="1.4709">
        <ele>185.345358</ele>
        <time>2023-07-30T13:32:32.000Z</time>
      </trkpt>
      <trkpt lat="43.6872" lon="1.4709">
        <ele>185.345358</ele>
        <time>2023-07-30T13:32:32.000Z</time>
      </trkpt>
      <trkpt lat="43.68725" lon="1.47081">
        <ele>185.056022</ele>
        <time>2023-07-30T13:32:33.000Z</time>
      </trkpt>
      <trkpt lat="43.68725" lon="1.47081">
        <ele>185.056022</ele>
        <time>2023-07-30T13:32:33.000Z</time>
      </trkpt>
      <trkpt lat="43.6873" lon="1.47072">
        <ele>184.761269</ele>
        <time>2023-07-30T13:32:34.000Z</time>
      </trkpt>
      <trkpt lat="43.6873" lon="1.47072">
        <ele>184.761269</ele>
        <time>2023-07-30T13:32:34.000Z</time>
      </trkpt>
      <trkpt lat="43.68734" lon="1.47062">
        <ele>184.474688</ele>
        <time>2023-07-30T13:32:35.000Z</time>
      </trkpt>
      <trkpt lat="43.68734" lon="1.47062">
        <ele>184.474688</ele>
        <time>2023-07-30T13:32:35.000Z</time>
      </trkpt>
      <trkpt lat="43.6874" lon="1.47053">
        <ele>184.079681</ele>
        <time>2023-07-30T13:32:36.000Z</time>
      </trkpt>
      <trkpt lat="43.6874" lon="1.47053">
        <ele>184.079681</ele>
        <time>2023-07-30T13:32:36.000Z</time>
      </trkpt>
      <trkpt lat="43.68746" lon="1.47044">
        <ele>183.666951</ele>
        <time>2023-07-30T13:32:37.000Z</time>
      </trkpt>
      <trkpt lat="43.68746" lon="1.47044">
        <ele>183.666951</ele>
        <time>2023-07-30T13:32:37.000Z</time>
      </trkpt>
      <trkpt lat="43.68753" lon="1.47039">
        <ele>183.270029</ele>
        <time>2023-07-30T13:32:38.000Z</time>
      </trkpt>
      <trkpt lat="43.68753" lon="1.47039">
        <ele>183.270029</ele>
        <time>2023-07-30T13:32:38.000Z</time>
      </trkpt>
      <trkpt lat="43.68761" lon="1.47038">
        <ele>182.885908</ele>
        <time>2023-07-30T13:32:39.000Z</time>
      </trkpt>
      <trkpt lat="43.68761" lon="1.47038">
        <ele>182.885908</ele>
        <time>2023-07-30T13:32:39.000Z</time>
      </trkpt>
      <trkpt lat="43.6877" lon="1.47042">
        <ele>182.449511</ele>
        <time>2023-07-30T13:32:40.000Z</time>
      </trkpt>
      <trkpt lat="43.6877" lon="1.47042">
        <ele>182.449511</ele>
        <time>2023-07-30T13:32:40.000Z</time>
      </trkpt>
      <trkpt lat="43.68778" lon="1.47048">
        <ele>182.018039</ele>
        <time>2023-07-30T13:32:41.000Z</time>
      </trkpt>
      <trkpt lat="43.68778" lon="1.47048">
        <ele>182.018039</ele>
        <time>2023-07-30T13:32:41.000Z</time>
      </trkpt>
      <trkpt lat="43.68786" lon="1.47055">
        <ele>181.552596</ele>
        <time>2023-07-30T13:32:42.000Z</time>
      </trkpt>
      <trkpt lat="43.68786" lon="1.47055">
        <ele>181.552596</ele>
        <time>2023-07-30T13:32:42.000Z</time>
      </trkpt>
      <trkpt lat="43.68794" lon="1.47063">
        <ele>181.09256</ele>
        <time>2023-07-30T13:32:43.000Z</time>
      </trkpt>
      <trkpt lat="43.68794" lon="1.47063">
        <ele>181.09256</ele>
        <time>2023-07-30T13:32:43.000Z</time>
      </trkpt>
      <trkpt lat="43.688" lon="1.47071">
        <ele>180.658623</ele>
        <time>2023-07-30T13:32:44.000Z</time>
      </trkpt>
      <trkpt lat="43.688" lon="1.47071">
        <ele>180.658623</ele>
        <time>2023-07-30T13:32:44.000Z</time>
      </trkpt>
      <trkpt lat="43.68807" lon="1.47081">
        <ele>180.190239</ele>
        <time>2023-07-30T13:32:45.000Z</time>
      </trkpt>
      <trkpt lat="43.68807" lon="1.47081">
        <ele>180.190239</ele>
        <time>2023-07-30T13:32:45.000Z</time>
      </trkpt>
      <trkpt lat="43.68813" lon="1.4709">
        <ele>179.752358</ele>
        <time>2023-07-30T13:32:46.000Z</time>
      </trkpt>
      <trkpt lat="43.68813" lon="1.4709">
        <ele>179.752358</ele>
        <time>2023-07-30T13:32:46.000Z</time>
      </trkpt>
      <trkpt lat="43.68819" lon="1.471">
        <ele>179.322436</ele>
        <time>2023-07-30T13:32:47.000Z</time>
      </trkpt>
      <trkpt lat="43.68819" lon="1.471">
        <ele>179.322436</ele>
        <time>2023-07-30T13:32:47.000Z</time>
      </trkpt>
      <trkpt lat="43.68824" lon="1.47111">
        <ele>178.853265</ele>
        <time>2023-07-30T13:32:48.000Z</time>
      </trkpt>
      <trkpt lat="43.68824" lon="1.47111">
        <ele>178.853265</ele>
        <time>2023-07-30T13:32:48.000Z</time>
      </trkpt>
      <trkpt lat="43.68832" lon="1.47121">
        <ele>178.383268</ele>
        <time>2023-07-30T13:32:49.000Z</time>
      </trkpt>
      <trkpt lat="43.68832" lon="1.47121">
        <ele>178.383268</ele>
        <time>2023-07-30T13:32:49.000Z</time>
      </trkpt>
      <trkpt lat="43.6884" lon="1.47129">
        <ele>177.891006</ele>
        <time>2023-07-30T13:32:50.000Z</time>
      </trkpt>
      <trkpt lat="43.6884" lon="1.47129">
        <ele>177.891006</ele>
        <time>2023-07-30T13:32:50.000Z</time>
      </trkpt>
      <trkpt lat="43.68847" lon="1.47137">
        <ele>177.448713</ele>
        <time>2023-07-30T13:32:51.000Z</time>
      </trkpt>
      <trkpt lat="43.68847" lon="1.47137">
        <ele>177.448713</ele>
        <time>2023-07-30T13:32:51.000Z</time>
      </trkpt>
      <trkpt lat="43.68855" lon="1.47146">
        <ele>176.975693</ele>
        <time>2023-07-30T13:32:52.000Z</time>
      </trkpt>
      <trkpt lat="43.68855" lon="1.47146">
        <ele>176.975693</ele>
        <time>2023-07-30T13:32:52.000Z</time>
      </trkpt>
      <trkpt lat="43.68861" lon="1.47154">
        <ele>176.534956</ele>
        <time>2023-07-30T13:32:53.000Z</time>
      </trkpt>
      <trkpt lat="43.68861" lon="1.47154">
        <ele>176.534956</ele>
        <time>2023-07-30T13:32:53.000Z</time>
      </trkpt>
      <trkpt lat="43.68868" lon="1.47163">
        <ele>176.091921</ele>
        <time>2023-07-30T13:32:54.000Z</time>
      </trkpt>
      <trkpt lat="43.68868" lon="1.47163">
        <ele>176.091921</ele>
        <time>2023-07-30T13:32:54.000Z</time>
      </trkpt>
      <trkpt lat="43.68875" lon="1.47171">
        <ele>175.825004</ele>
        <time>2023-07-30T13:32:55.000Z</time>
      </trkpt>
      <trkpt lat="43.68875" lon="1.47171">
        <ele>175.825004</ele>
        <time>2023-07-30T13:32:55.000Z</time>
      </trkpt>
      <trkpt lat="43.68881" lon="1.47178">
        <ele>176.014322</ele>
        <time>2023-07-30T13:32:56.000Z</time>
      </trkpt>
      <trkpt lat="43.68881" lon="1.47178">
        <ele>176.014322</ele>
        <time>2023-07-30T13:32:56.000Z</time>
      </trkpt>
      <trkpt lat="43.68886" lon="1.47185">
        <ele>176.198343</ele>
        <time>2023-07-30T13:32:57.000Z</time>
      </trkpt>
      <trkpt lat="43.68886" lon="1.47185">
        <ele>176.198343</ele>
        <time>2023-07-30T13:32:57.000Z</time>
      </trkpt>
      <trkpt lat="43.6889" lon="1.4719">
        <ele>176.335597</ele>
        <time>2023-07-30T13:32:58.000Z</time>
      </trkpt>
      <trkpt lat="43.6889" lon="1.4719">
        <ele>176.335597</ele>
        <time>2023-07-30T13:32:58.000Z</time>
      </trkpt>
      <trkpt lat="43.68895" lon="1.47196">
        <ele>176.487942</ele>
        <time>2023-07-30T13:32:59.000Z</time>
      </trkpt>
      <trkpt lat="43.68895" lon="1.47196">
        <ele>176.487942</ele>
        <time>2023-07-30T13:32:59.000Z</time>
      </trkpt>
      <trkpt lat="43.689" lon="1.47201">
        <ele>176.638965</ele>
        <time>2023-07-30T13:32:59.000Z</time>
      </trkpt>
      <trkpt lat="43.689" lon="1.47201">
        <ele>176.638965</ele>
        <time>2023-07-30T13:32:59.000Z</time>
      </trkpt>
      <trkpt lat="43.68905" lon="1.47206">
        <ele>176.784622</ele>
        <time>2023-07-30T13:33:01.000Z</time>
      </trkpt>
      <trkpt lat="43.68905" lon="1.47206">
        <ele>176.784622</ele>
        <time>2023-07-30T13:33:01.000Z</time>
      </trkpt>
      <trkpt lat="43.6891" lon="1.47212">
        <ele>176.936966</ele>
        <time>2023-07-30T13:33:02.000Z</time>
      </trkpt>
      <trkpt lat="43.6891" lon="1.47212">
        <ele>176.936966</ele>
        <time>2023-07-30T13:33:02.000Z</time>
      </trkpt>
      <trkpt lat="43.68914" lon="1.47217">
        <ele>177.083759</ele>
        <time>2023-07-30T13:33:03.000Z</time>
      </trkpt>
      <trkpt lat="43.68914" lon="1.47217">
        <ele>177.083759</ele>
        <time>2023-07-30T13:33:03.000Z</time>
      </trkpt>
      <trkpt lat="43.68919" lon="1.47223">
        <ele>177.232858</ele>
        <time>2023-07-30T13:33:04.000Z</time>
      </trkpt>
      <trkpt lat="43.68919" lon="1.47223">
        <ele>177.232858</ele>
        <time>2023-07-30T13:33:04.000Z</time>
      </trkpt>
      <trkpt lat="43.68924" lon="1.47229">
        <ele>177.383128</ele>
        <time>2023-07-30T13:33:05.000Z</time>
      </trkpt>
      <trkpt lat="43.68924" lon="1.47229">
        <ele>177.383128</ele>
        <time>2023-07-30T13:33:05.000Z</time>
      </trkpt>
      <trkpt lat="43.68928" lon="1.47235">
        <ele>177.531426</ele>
        <time>2023-07-30T13:33:06.000Z</time>
      </trkpt>
      <trkpt lat="43.68928" lon="1.47235">
        <ele>177.531426</ele>
        <time>2023-07-30T13:33:06.000Z</time>
      </trkpt>
      <trkpt lat="43.68932" lon="1.47242">
        <ele>177.691549</ele>
        <time>2023-07-30T13:33:07.000Z</time>
      </trkpt>
      <trkpt lat="43.68935" lon="1.4725">
        <ele>177.844226</ele>
        <time>2023-07-30T13:33:08.000Z</time>
      </trkpt>
      <trkpt lat="43.68935" lon="1.4725">
        <ele>177.844226</ele>
        <time>2023-07-30T13:33:08.000Z</time>
      </trkpt>
      <trkpt lat="43.68937" lon="1.47258">
        <ele>177.99121</ele>
        <time>2023-07-30T13:33:09.000Z</time>
      </trkpt>
      <trkpt lat="43.68937" lon="1.47258">
        <ele>177.99121</ele>
        <time>2023-07-30T13:33:09.000Z</time>
      </trkpt>
      <trkpt lat="43.68938" lon="1.47266">
        <ele>178.142566</ele>
        <time>2023-07-30T13:33:10.000Z</time>
      </trkpt>
      <trkpt lat="43.68938" lon="1.47266">
        <ele>178.142566</ele>
        <time>2023-07-30T13:33:10.000Z</time>
      </trkpt>
      <trkpt lat="43.68937" lon="1.47275">
        <ele>178.292994</ele>
        <time>2023-07-30T13:33:11.000Z</time>
      </trkpt>
      <trkpt lat="43.68937" lon="1.47275">
        <ele>178.292994</ele>
        <time>2023-07-30T13:33:11.000Z</time>
      </trkpt>
      <trkpt lat="43.68935" lon="1.47283">
        <ele>178.438321</ele>
        <time>2023-07-30T13:33:12.000Z</time>
      </trkpt>
      <trkpt lat="43.68935" lon="1.47283">
        <ele>178.438321</ele>
        <time>2023-07-30T13:33:12.000Z</time>
      </trkpt>
      <trkpt lat="43.68934" lon="1.4729">
        <ele>178.567202</ele>
        <time>2023-07-30T13:33:13.000Z</time>
      </trkpt>
      <trkpt lat="43.68934" lon="1.4729">
        <ele>178.567202</ele>
        <time>2023-07-30T13:33:13.000Z</time>
      </trkpt>
      <trkpt lat="43.6893" lon="1.47297">
        <ele>178.710486</ele>
        <time>2023-07-30T13:33:14.000Z</time>
      </trkpt>
      <trkpt lat="43.6893" lon="1.47297">
        <ele>178.710486</ele>
        <time>2023-07-30T13:33:14.000Z</time>
      </trkpt>
      <trkpt lat="43.68927" lon="1.47303">
        <ele>178.85194</ele>
        <time>2023-07-30T13:33:15.000Z</time>
      </trkpt>
      <trkpt lat="43.68927" lon="1.47303">
        <ele>178.85194</ele>
        <time>2023-07-30T13:33:15.000Z</time>
      </trkpt>
      <trkpt lat="43.68924" lon="1.4731">
        <ele>178.987858</ele>
        <time>2023-07-30T13:33:16.000Z</time>
      </trkpt>
      <trkpt lat="43.68924" lon="1.4731">
        <ele>178.987858</ele>
        <time>2023-07-30T13:33:16.000Z</time>
      </trkpt>
      <trkpt lat="43.68921" lon="1.47317">
        <ele>179.125225</ele>
        <time>2023-07-30T13:33:17.000Z</time>
      </trkpt>
      <trkpt lat="43.68921" lon="1.47317">
        <ele>179.125225</ele>
        <time>2023-07-30T13:33:17.000Z</time>
      </trkpt>
      <trkpt lat="43.68918" lon="1.47324">
        <ele>179.276666</ele>
        <time>2023-07-30T13:33:18.000Z</time>
      </trkpt>
      <trkpt lat="43.68918" lon="1.47324">
        <ele>179.276666</ele>
        <time>2023-07-30T13:33:18.000Z</time>
      </trkpt>
      <trkpt lat="43.68915" lon="1.4733">
        <ele>179.404806</ele>
        <time>2023-07-30T13:33:19.000Z</time>
      </trkpt>
      <trkpt lat="43.68915" lon="1.4733">
        <ele>179.404806</ele>
        <time>2023-07-30T13:33:19.000Z</time>
      </trkpt>
      <trkpt lat="43.68912" lon="1.47337">
        <ele>179.542185</ele>
        <time>2023-07-30T13:33:20.000Z</time>
      </trkpt>
      <trkpt lat="43.68912" lon="1.47337">
        <ele>179.542185</ele>
        <time>2023-07-30T13:33:20.000Z</time>
      </trkpt>
      <trkpt lat="43.68909" lon="1.47344">
        <ele>179.679744</ele>
        <time>2023-07-30T13:33:21.000Z</time>
      </trkpt>
      <trkpt lat="43.68906" lon="1.47351">
        <ele>179.820064</ele>
        <time>2023-07-30T13:33:22.000Z</time>
      </trkpt>
      <trkpt lat="43.68906" lon="1.47351">
        <ele>179.820064</ele>
        <time>2023-07-30T13:33:22.000Z</time>
      </trkpt>
      <trkpt lat="43.68903" lon="1.47358">
        <ele>179.965249</ele>
        <time>2023-07-30T13:33:23.000Z</time>
      </trkpt>
      <trkpt lat="43.68903" lon="1.47358">
        <ele>179.965249</ele>
        <time>2023-07-30T13:33:23.000Z</time>
      </trkpt>
      <trkpt lat="43.68901" lon="1.47366">
        <ele>180.111357</ele>
        <time>2023-07-30T13:33:24.000Z</time>
      </trkpt>
      <trkpt lat="43.68901" lon="1.47366">
        <ele>180.111357</ele>
        <time>2023-07-30T13:33:24.000Z</time>
      </trkpt>
      <trkpt lat="43.68901" lon="1.47374">
        <ele>179.868489</ele>
        <time>2023-07-30T13:33:25.000Z</time>
      </trkpt>
      <trkpt lat="43.68901" lon="1.47374">
        <ele>179.868489</ele>
        <time>2023-07-30T13:33:25.000Z</time>
      </trkpt>
      <trkpt lat="43.68902" lon="1.47381">
        <ele>179.610087</ele>
        <time>2023-07-30T13:33:26.000Z</time>
      </trkpt>
      <trkpt lat="43.68905" lon="1.47388">
        <ele>179.326402</ele>
        <time>2023-07-30T13:33:27.000Z</time>
      </trkpt>
      <trkpt lat="43.68909" lon="1.47395">
        <ele>179.043156</ele>
        <time>2023-07-30T13:33:28.000Z</time>
      </trkpt>
      <trkpt lat="43.68909" lon="1.47395">
        <ele>179.043156</ele>
        <time>2023-07-30T13:33:28.000Z</time>
      </trkpt>
      <trkpt lat="43.68913" lon="1.474">
        <ele>178.762124</ele>
        <time>2023-07-30T13:33:29.000Z</time>
      </trkpt>
      <trkpt lat="43.68919" lon="1.47405">
        <ele>178.460562</ele>
        <time>2023-07-30T13:33:30.000Z</time>
      </trkpt>
      <trkpt lat="43.68924" lon="1.4741">
        <ele>178.155145</ele>
        <time>2023-07-30T13:33:31.000Z</time>
      </trkpt>
      <trkpt lat="43.68924" lon="1.4741">
        <ele>178.155145</ele>
        <time>2023-07-30T13:33:31.000Z</time>
      </trkpt>
      <trkpt lat="43.68929" lon="1.47415">
        <ele>177.865261</ele>
        <time>2023-07-30T13:33:32.000Z</time>
      </trkpt>
      <trkpt lat="43.68932" lon="1.47421">
        <ele>177.602588</ele>
        <time>2023-07-30T13:33:33.000Z</time>
      </trkpt>
      <trkpt lat="43.68932" lon="1.47421">
        <ele>177.602588</ele>
        <time>2023-07-30T13:33:33.000Z</time>
      </trkpt>
      <trkpt lat="43.68935" lon="1.47426">
        <ele>177.388228</ele>
        <time>2023-07-30T13:33:34.000Z</time>
      </trkpt>
      <trkpt lat="43.68935" lon="1.47426">
        <ele>177.388228</ele>
        <time>2023-07-30T13:33:34.000Z</time>
      </trkpt>
      <trkpt lat="43.68937" lon="1.47431">
        <ele>177.196939</ele>
        <time>2023-07-30T13:33:35.000Z</time>
      </trkpt>
      <trkpt lat="43.68939" lon="1.47433">
        <ele>177.086031</ele>
        <time>2023-07-30T13:33:36.000Z</time>
      </trkpt>
      <trkpt lat="43.68939" lon="1.47433">
        <ele>177.086031</ele>
        <time>2023-07-30T13:33:36.000Z</time>
      </trkpt>
      <trkpt lat="43.68941" lon="1.47434">
        <ele>176.968501</ele>
        <time>2023-07-30T13:33:37.000Z</time>
      </trkpt>
      <trkpt lat="43.68944" lon="1.47435">
        <ele>176.839148</ele>
        <time>2023-07-30T13:33:38.000Z</time>
      </trkpt>
      <trkpt lat="43.68944" lon="1.47435">
        <ele>176.839148</ele>
        <time>2023-07-30T13:33:38.000Z</time>
      </trkpt>
      <trkpt lat="43.68948" lon="1.47435">
        <ele>176.659271</ele>
        <time>2023-07-30T13:33:39.000Z</time>
      </trkpt>
      <trkpt lat="43.68948" lon="1.47435">
        <ele>176.659271</ele>
        <time>2023-07-30T13:33:39.000Z</time>
      </trkpt>
      <trkpt lat="43.68951" lon="1.47434">
        <ele>176.477937</ele>
        <time>2023-07-30T13:33:40.000Z</time>
      </trkpt>
      <trkpt lat="43.68951" lon="1.47434">
        <ele>176.477937</ele>
        <time>2023-07-30T13:33:40.000Z</time>
      </trkpt>
      <trkpt lat="43.68957" lon="1.47431">
        <ele>176.189451</ele>
        <time>2023-07-30T13:33:41.000Z</time>
      </trkpt>
      <trkpt lat="43.68957" lon="1.47431">
        <ele>176.189451</ele>
        <time>2023-07-30T13:33:41.000Z</time>
      </trkpt>
      <trkpt lat="43.68962" lon="1.47428">
        <ele>175.922808</ele>
        <time>2023-07-30T13:33:41.000Z</time>
      </trkpt>
      <trkpt lat="43.68962" lon="1.47428">
        <ele>175.922808</ele>
        <time>2023-07-30T13:33:41.000Z</time>
      </trkpt>
      <trkpt lat="43.68967" lon="1.47425">
        <ele>175.679242</ele>
        <time>2023-07-30T13:33:43.000Z</time>
      </trkpt>
      <trkpt lat="43.68967" lon="1.47425">
        <ele>175.679242</ele>
        <time>2023-07-30T13:33:43.000Z</time>
      </trkpt>
      <trkpt lat="43.68973" lon="1.4742">
        <ele>175.330692</ele>
        <time>2023-07-30T13:33:43.000Z</time>
      </trkpt>
      <trkpt lat="43.68973" lon="1.4742">
        <ele>175.330692</ele>
        <time>2023-07-30T13:33:43.000Z</time>
      </trkpt>
      <trkpt lat="43.68978" lon="1.47416">
        <ele>175.072891</ele>
        <time>2023-07-30T13:33:45.000Z</time>
      </trkpt>
      <trkpt lat="43.68978" lon="1.47416">
        <ele>175.072891</ele>
        <time>2023-07-30T13:33:45.000Z</time>
      </trkpt>
      <trkpt lat="43.68985" lon="1.47413">
        <ele>174.720301</ele>
        <time>2023-07-30T13:33:46.000Z</time>
      </trkpt>
      <trkpt lat="43.68985" lon="1.47413">
        <ele>174.720301</ele>
        <time>2023-07-30T13:33:46.000Z</time>
      </trkpt>
      <trkpt lat="43.6899" lon="1.4741">
        <ele>174.488928</ele>
        <time>2023-07-30T13:33:47.000Z</time>
      </trkpt>
      <trkpt lat="43.6899" lon="1.4741">
        <ele>174.488928</ele>
        <time>2023-07-30T13:33:47.000Z</time>
      </trkpt>
      <trkpt lat="43.69" lon="1.47405">
        <ele>173.969088</ele>
        <time>2023-07-30T13:33:48.000Z</time>
      </trkpt>
      <trkpt lat="43.69" lon="1.47405">
        <ele>173.969088</ele>
        <time>2023-07-30T13:33:48.000Z</time>
      </trkpt>
      <trkpt lat="43.69005" lon="1.47402">
        <ele>173.694151</ele>
        <time>2023-07-30T13:33:49.000Z</time>
      </trkpt>
      <trkpt lat="43.69005" lon="1.47402">
        <ele>173.694151</ele>
        <time>2023-07-30T13:33:49.000Z</time>
      </trkpt>
      <trkpt lat="43.69006" lon="1.47401">
        <ele>173.632546</ele>
        <time>2023-07-30T13:33:50.000Z</time>
      </trkpt>
      <trkpt lat="43.69024" lon="1.47389">
        <ele>172.697494</ele>
        <time>2023-07-30T13:33:51.000Z</time>
      </trkpt>
      <trkpt lat="43.69024" lon="1.47389">
        <ele>172.697494</ele>
        <time>2023-07-30T13:33:51.000Z</time>
      </trkpt>
      <trkpt lat="43.69032" lon="1.47383">
        <ele>172.274809</ele>
        <time>2023-07-30T13:33:52.000Z</time>
      </trkpt>
      <trkpt lat="43.69032" lon="1.47383">
        <ele>172.274809</ele>
        <time>2023-07-30T13:33:52.000Z</time>
      </trkpt>
      <trkpt lat="43.69039" lon="1.47377">
        <ele>171.891079</ele>
        <time>2023-07-30T13:33:53.000Z</time>
      </trkpt>
      <trkpt lat="43.69039" lon="1.47377">
        <ele>171.891079</ele>
        <time>2023-07-30T13:33:53.000Z</time>
      </trkpt>
      <trkpt lat="43.69044" lon="1.47372">
        <ele>171.612352</ele>
        <time>2023-07-30T13:33:54.000Z</time>
      </trkpt>
      <trkpt lat="43.69044" lon="1.47372">
        <ele>171.612352</ele>
        <time>2023-07-30T13:33:54.000Z</time>
      </trkpt>
      <trkpt lat="43.69047" lon="1.47369">
        <ele>171.620354</ele>
        <time>2023-07-30T13:33:55.000Z</time>
      </trkpt>
      <trkpt lat="43.69047" lon="1.47369">
        <ele>171.620354</ele>
        <time>2023-07-30T13:33:55.000Z</time>
      </trkpt>
      <trkpt lat="43.69048" lon="1.47368">
        <ele>171.622212</ele>
        <time>2023-07-30T13:33:56.000Z</time>
      </trkpt>
      <trkpt lat="43.69048" lon="1.47368">
        <ele>171.622212</ele>
        <time>2023-07-30T13:33:56.000Z</time>
      </trkpt>
      <trkpt lat="43.6905" lon="1.47367">
        <ele>171.626535</ele>
        <time>2023-07-30T13:33:56.000Z</time>
      </trkpt>
      <trkpt lat="43.69051" lon="1.47366">
        <ele>171.629892</ele>
        <time>2023-07-30T13:33:58.000Z</time>
      </trkpt>
      <trkpt lat="43.69051" lon="1.47366">
        <ele>171.630173</ele>
        <time>2023-07-30T13:33:59.000Z</time>
      </trkpt>
      <trkpt lat="43.69054" lon="1.47367">
        <ele>171.63535</ele>
        <time>2023-07-30T13:34:00.000Z</time>
      </trkpt>
      <trkpt lat="43.69054" lon="1.47367">
        <ele>171.63535</ele>
        <time>2023-07-30T13:34:00.000Z</time>
      </trkpt>
      <trkpt lat="43.69055" lon="1.47368">
        <ele>171.638003</ele>
        <time>2023-07-30T13:34:01.000Z</time>
      </trkpt>
      <trkpt lat="43.69057" lon="1.47371">
        <ele>171.643129</ele>
        <time>2023-07-30T13:34:02.000Z</time>
      </trkpt>
      <trkpt lat="43.69057" lon="1.47371">
        <ele>171.643129</ele>
        <time>2023-07-30T13:34:02.000Z</time>
      </trkpt>
      <trkpt lat="43.69059" lon="1.47376">
        <ele>171.651822</ele>
        <time>2023-07-30T13:34:04.000Z</time>
      </trkpt>
      <trkpt lat="43.6906" lon="1.47382">
        <ele>171.660083</ele>
        <time>2023-07-30T13:34:05.000Z</time>
      </trkpt>
      <trkpt lat="43.6906" lon="1.47382">
        <ele>171.660083</ele>
        <time>2023-07-30T13:34:05.000Z</time>
      </trkpt>
      <trkpt lat="43.69061" lon="1.47388">
        <ele>171.668657</ele>
        <time>2023-07-30T13:34:06.000Z</time>
      </trkpt>
      <trkpt lat="43.69062" lon="1.47392">
        <ele>171.674084</ele>
        <time>2023-07-30T13:34:07.000Z</time>
      </trkpt>
      <trkpt lat="43.69062" lon="1.47396">
        <ele>171.680295</ele>
        <time>2023-07-30T13:34:08.000Z</time>
      </trkpt>
      <trkpt lat="43.69062" lon="1.474">
        <ele>171.68597</ele>
        <time>2023-07-30T13:34:08.000Z</time>
      </trkpt>
      <trkpt lat="43.69063" lon="1.47404">
        <ele>171.691228</ele>
        <time>2023-07-30T13:34:10.000Z</time>
      </trkpt>
      <trkpt lat="43.69064" lon="1.47408">
        <ele>171.697467</ele>
        <time>2023-07-30T13:34:11.000Z</time>
      </trkpt>
      <trkpt lat="43.69064" lon="1.47411">
        <ele>171.701897</ele>
        <time>2023-07-30T13:34:13.000Z</time>
      </trkpt>
      <trkpt lat="43.69065" lon="1.47414">
        <ele>171.706391</ele>
        <time>2023-07-30T13:34:14.000Z</time>
      </trkpt>
      <trkpt lat="43.69067" lon="1.47417">
        <ele>171.712319</ele>
        <time>2023-07-30T13:34:15.000Z</time>
      </trkpt>
      <trkpt lat="43.69069" lon="1.47421">
        <ele>171.719612</ele>
        <time>2023-07-30T13:34:16.000Z</time>
      </trkpt>
      <trkpt lat="43.69069" lon="1.47421">
        <ele>171.719612</ele>
        <time>2023-07-30T13:34:16.000Z</time>
      </trkpt>
      <trkpt lat="43.69071" lon="1.47425">
        <ele>171.725329</ele>
        <time>2023-07-30T13:34:16.000Z</time>
      </trkpt>
      <trkpt lat="43.69073" lon="1.47429">
        <ele>171.732774</ele>
        <time>2023-07-30T13:34:19.000Z</time>
      </trkpt>
      <trkpt lat="43.69075" lon="1.47434">
        <ele>171.740464</ele>
        <time>2023-07-30T13:34:19.000Z</time>
      </trkpt>
      <trkpt lat="43.69077" lon="1.47439">
        <ele>171.748278</ele>
        <time>2023-07-30T13:34:21.000Z</time>
      </trkpt>
      <trkpt lat="43.69077" lon="1.47439">
        <ele>171.748278</ele>
        <time>2023-07-30T13:34:21.000Z</time>
      </trkpt>
      <trkpt lat="43.6908" lon="1.47448">
        <ele>171.761908</ele>
        <time>2023-07-30T13:34:23.000Z</time>
      </trkpt>
      <trkpt lat="43.6908" lon="1.47448">
        <ele>171.761908</ele>
        <time>2023-07-30T13:34:23.000Z</time>
      </trkpt>
      <trkpt lat="43.69081" lon="1.47452">
        <ele>171.769</ele>
        <time>2023-07-30T13:34:24.000Z</time>
      </trkpt>
      <trkpt lat="43.69082" lon="1.47456">
        <ele>171.775085</ele>
        <time>2023-07-30T13:34:25.000Z</time>
      </trkpt>
      <trkpt lat="43.69083" lon="1.47461">
        <ele>171.781143</ele>
        <time>2023-07-30T13:34:26.000Z</time>
      </trkpt>
      <trkpt lat="43.69084" lon="1.47465">
        <ele>171.787928</ele>
        <time>2023-07-30T13:34:27.000Z</time>
      </trkpt>
      <trkpt lat="43.69084" lon="1.47471">
        <ele>171.795376</ele>
        <time>2023-07-30T13:34:27.000Z</time>
      </trkpt>
      <trkpt lat="43.69084" lon="1.47471">
        <ele>171.795376</ele>
        <time>2023-07-30T13:34:27.000Z</time>
      </trkpt>
      <trkpt lat="43.69084" lon="1.47475">
        <ele>171.80156</ele>
        <time>2023-07-30T13:34:30.000Z</time>
      </trkpt>
      <trkpt lat="43.69084" lon="1.47475">
        <ele>171.80156</ele>
        <time>2023-07-30T13:34:30.000Z</time>
      </trkpt>
      <trkpt lat="43.69083" lon="1.4748">
        <ele>171.80835</ele>
        <time>2023-07-30T13:34:30.000Z</time>
      </trkpt>
      <trkpt lat="43.69083" lon="1.47485">
        <ele>171.81622</ele>
        <time>2023-07-30T13:34:32.000Z</time>
      </trkpt>
      <trkpt lat="43.69083" lon="1.47485">
        <ele>171.81622</ele>
        <time>2023-07-30T13:34:32.000Z</time>
      </trkpt>
      <trkpt lat="43.69083" lon="1.47491">
        <ele>171.823949</ele>
        <time>2023-07-30T13:34:33.000Z</time>
      </trkpt>
      <trkpt lat="43.69084" lon="1.47497">
        <ele>171.832557</ele>
        <time>2023-07-30T13:34:34.000Z</time>
      </trkpt>
      <trkpt lat="43.69084" lon="1.47503">
        <ele>171.840325</ele>
        <time>2023-07-30T13:34:34.000Z</time>
      </trkpt>
      <trkpt lat="43.69084" lon="1.47503">
        <ele>171.840325</ele>
        <time>2023-07-30T13:34:34.000Z</time>
      </trkpt>
      <trkpt lat="43.69086" lon="1.47511">
        <ele>171.852158</ele>
        <time>2023-07-30T13:34:36.000Z</time>
      </trkpt>
      <trkpt lat="43.69086" lon="1.47511">
        <ele>171.852158</ele>
        <time>2023-07-30T13:34:36.000Z</time>
      </trkpt>
      <trkpt lat="43.69087" lon="1.47516">
        <ele>171.860145</ele>
        <time>2023-07-30T13:34:38.000Z</time>
      </trkpt>
      <trkpt lat="43.69087" lon="1.47516">
        <ele>171.860145</ele>
        <time>2023-07-30T13:34:38.000Z</time>
      </trkpt>
      <trkpt lat="43.69088" lon="1.47526">
        <ele>171.873836</ele>
        <time>2023-07-30T13:34:39.000Z</time>
      </trkpt>
      <trkpt lat="43.69088" lon="1.47526">
        <ele>171.873836</ele>
        <time>2023-07-30T13:34:39.000Z</time>
      </trkpt>
      <trkpt lat="43.69087" lon="1.4753">
        <ele>171.880928</ele>
        <time>2023-07-30T13:34:40.000Z</time>
      </trkpt>
      <trkpt lat="43.69086" lon="1.47534">
        <ele>171.886086</ele>
        <time>2023-07-30T13:34:42.000Z</time>
      </trkpt>
      <trkpt lat="43.69084" lon="1.47538">
        <ele>171.893168</ele>
        <time>2023-07-30T13:34:43.000Z</time>
      </trkpt>
      <trkpt lat="43.69084" lon="1.47538">
        <ele>171.893168</ele>
        <time>2023-07-30T13:34:43.000Z</time>
      </trkpt>
      <trkpt lat="43.69082" lon="1.47542">
        <ele>171.900572</ele>
        <time>2023-07-30T13:34:44.000Z</time>
      </trkpt>
      <trkpt lat="43.69077" lon="1.47556">
        <ele>171.921291</ele>
        <time>2023-07-30T13:34:47.000Z</time>
      </trkpt>
      <trkpt lat="43.69077" lon="1.47556">
        <ele>171.921291</ele>
        <time>2023-07-30T13:34:47.000Z</time>
      </trkpt>
      <trkpt lat="43.69077" lon="1.47556">
        <ele>171.921291</ele>
        <time>2023-07-30T13:34:49.000Z</time>
      </trkpt>
      <trkpt lat="43.69076" lon="1.47561">
        <ele>171.929001</ele>
        <time>2023-07-30T13:34:54.000Z</time>
      </trkpt>
      <trkpt lat="43.69076" lon="1.47563">
        <ele>171.931513</ele>
        <time>2023-07-30T13:34:55.000Z</time>
      </trkpt>
      <trkpt lat="43.69076" lon="1.47564">
        <ele>171.933902</ele>
        <time>2023-07-30T13:34:56.000Z</time>
      </trkpt>
      <trkpt lat="43.69076" lon="1.47566">
        <ele>171.93601</ele>
        <time>2023-07-30T13:34:57.000Z</time>
      </trkpt>
      <trkpt lat="43.69075" lon="1.47571">
        <ele>171.942661</ele>
        <time>2023-07-30T13:34:59.000Z</time>
      </trkpt>
      <trkpt lat="43.69075" lon="1.47574">
        <ele>171.947502</ele>
        <time>2023-07-30T13:35:00.000Z</time>
      </trkpt>
      <trkpt lat="43.69075" lon="1.47585">
        <ele>171.986043</ele>
        <time>2023-07-30T13:35:01.000Z</time>
      </trkpt>
      <trkpt lat="43.69075" lon="1.47585">
        <ele>171.986043</ele>
        <time>2023-07-30T13:35:01.000Z</time>
      </trkpt>
      <trkpt lat="43.69074" lon="1.476">
        <ele>172.472969</ele>
        <time>2023-07-30T13:35:04.000Z</time>
      </trkpt>
      <trkpt lat="43.69074" lon="1.476">
        <ele>172.472969</ele>
        <time>2023-07-30T13:35:04.000Z</time>
      </trkpt>
      <trkpt lat="43.69073" lon="1.476">
        <ele>172.499501</ele>
        <time>2023-07-30T13:35:13.000Z</time>
      </trkpt>
      <trkpt lat="43.69073" lon="1.476">
        <ele>172.499501</ele>
        <time>2023-07-30T13:35:13.000Z</time>
      </trkpt>
      <trkpt lat="43.69073" lon="1.476">
        <ele>172.499501</ele>
        <time>2023-07-30T13:35:14.000Z</time>
      </trkpt>
      <trkpt lat="43.69073" lon="1.476">
        <ele>172.499501</ele>
        <time>2023-07-30T13:35:18.000Z</time>
      </trkpt>
      <trkpt lat="43.69071" lon="1.47608">
        <ele>172.757863</ele>
        <time>2023-07-30T13:35:26.000Z</time>
      </trkpt>
      <trkpt lat="43.69071" lon="1.47608">
        <ele>172.757863</ele>
        <time>2023-07-30T13:35:26.000Z</time>
      </trkpt>
      <trkpt lat="43.6907" lon="1.4761">
        <ele>172.84378</ele>
        <time>2023-07-30T13:35:27.000Z</time>
      </trkpt>
      <trkpt lat="43.6907" lon="1.4761">
        <ele>172.84378</ele>
        <time>2023-07-30T13:35:27.000Z</time>
      </trkpt>
      <trkpt lat="43.6907" lon="1.47612">
        <ele>172.918958</ele>
        <time>2023-07-30T13:35:29.000Z</time>
      </trkpt>
      <trkpt lat="43.6907" lon="1.47612">
        <ele>172.918958</ele>
        <time>2023-07-30T13:35:29.000Z</time>
      </trkpt>
      <trkpt lat="43.69068" lon="1.47617">
        <ele>173.077277</ele>
        <time>2023-07-30T13:35:30.000Z</time>
      </trkpt>
      <trkpt lat="43.69068" lon="1.47617">
        <ele>173.077277</ele>
        <time>2023-07-30T13:35:30.000Z</time>
      </trkpt>
      <trkpt lat="43.69067" lon="1.47618">
        <ele>173.145967</ele>
        <time>2023-07-30T13:35:33.000Z</time>
      </trkpt>
      <trkpt lat="43.69067" lon="1.47618">
        <ele>173.145967</ele>
        <time>2023-07-30T13:35:33.000Z</time>
      </trkpt>
      <trkpt lat="43.69066" lon="1.4762">
        <ele>173.223135</ele>
        <time>2023-07-30T13:35:33.000Z</time>
      </trkpt>
      <trkpt lat="43.69066" lon="1.4762">
        <ele>173.223135</ele>
        <time>2023-07-30T13:35:33.000Z</time>
      </trkpt>
      <trkpt lat="43.69066" lon="1.47623">
        <ele>173.320667</ele>
        <time>2023-07-30T13:35:34.000Z</time>
      </trkpt>
      <trkpt lat="43.69066" lon="1.47623">
        <ele>173.320667</ele>
        <time>2023-07-30T13:35:34.000Z</time>
      </trkpt>
      <trkpt lat="43.69066" lon="1.47626">
        <ele>173.396648</ele>
        <time>2023-07-30T13:35:35.000Z</time>
      </trkpt>
      <trkpt lat="43.69065" lon="1.47629">
        <ele>173.494527</ele>
        <time>2023-07-30T13:35:36.000Z</time>
      </trkpt>
      <trkpt lat="43.69065" lon="1.47631">
        <ele>173.587316</ele>
        <time>2023-07-30T13:35:38.000Z</time>
      </trkpt>
      <trkpt lat="43.69065" lon="1.47631">
        <ele>173.587316</ele>
        <time>2023-07-30T13:35:38.000Z</time>
      </trkpt>
      <trkpt lat="43.69064" lon="1.47634">
        <ele>173.689691</ele>
        <time>2023-07-30T13:35:39.000Z</time>
      </trkpt>
      <trkpt lat="43.69064" lon="1.47634">
        <ele>173.689691</ele>
        <time>2023-07-30T13:35:39.000Z</time>
      </trkpt>
      <trkpt lat="43.69064" lon="1.47638">
        <ele>173.791373</ele>
        <time>2023-07-30T13:35:40.000Z</time>
      </trkpt>
      <trkpt lat="43.69064" lon="1.47638">
        <ele>173.791373</ele>
        <time>2023-07-30T13:35:40.000Z</time>
      </trkpt>
      <trkpt lat="43.69064" lon="1.47641">
        <ele>173.908412</ele>
        <time>2023-07-30T13:35:41.000Z</time>
      </trkpt>
      <trkpt lat="43.69064" lon="1.47641">
        <ele>173.908412</ele>
        <time>2023-07-30T13:35:41.000Z</time>
      </trkpt>
      <trkpt lat="43.69064" lon="1.47645">
        <ele>174.046136</ele>
        <time>2023-07-30T13:35:42.000Z</time>
      </trkpt>
      <trkpt lat="43.69064" lon="1.47645">
        <ele>174.046136</ele>
        <time>2023-07-30T13:35:42.000Z</time>
      </trkpt>
      <trkpt lat="43.69063" lon="1.47648">
        <ele>174.142117</ele>
        <time>2023-07-30T13:35:43.000Z</time>
      </trkpt>
      <trkpt lat="43.69063" lon="1.47648">
        <ele>174.142117</ele>
        <time>2023-07-30T13:35:43.000Z</time>
      </trkpt>
      <trkpt lat="43.69063" lon="1.47652">
        <ele>174.270178</ele>
        <time>2023-07-30T13:35:45.000Z</time>
      </trkpt>
      <trkpt lat="43.69063" lon="1.47652">
        <ele>174.270178</ele>
        <time>2023-07-30T13:35:45.000Z</time>
      </trkpt>
      <trkpt lat="43.69063" lon="1.47655">
        <ele>174.361208</ele>
        <time>2023-07-30T13:35:46.000Z</time>
      </trkpt>
      <trkpt lat="43.69063" lon="1.47655">
        <ele>174.361208</ele>
        <time>2023-07-30T13:35:46.000Z</time>
      </trkpt>
      <trkpt lat="43.69063" lon="1.47658">
        <ele>174.471744</ele>
        <time>2023-07-30T13:35:48.000Z</time>
      </trkpt>
      <trkpt lat="43.69063" lon="1.47658">
        <ele>174.471744</ele>
        <time>2023-07-30T13:35:48.000Z</time>
      </trkpt>
      <trkpt lat="43.69063" lon="1.47662">
        <ele>174.585531</ele>
        <time>2023-07-30T13:35:48.000Z</time>
      </trkpt>
      <trkpt lat="43.69063" lon="1.47662">
        <ele>174.585531</ele>
        <time>2023-07-30T13:35:48.000Z</time>
      </trkpt>
      <trkpt lat="43.69062" lon="1.47666">
        <ele>174.707158</ele>
        <time>2023-07-30T13:35:49.000Z</time>
      </trkpt>
      <trkpt lat="43.69062" lon="1.47666">
        <ele>174.707158</ele>
        <time>2023-07-30T13:35:49.000Z</time>
      </trkpt>
      <trkpt lat="43.69063" lon="1.47669">
        <ele>174.822358</ele>
        <time>2023-07-30T13:35:50.000Z</time>
      </trkpt>
      <trkpt lat="43.69063" lon="1.47672">
        <ele>174.924733</ele>
        <time>2023-07-30T13:35:52.000Z</time>
      </trkpt>
      <trkpt lat="43.69063" lon="1.47672">
        <ele>174.924733</ele>
        <time>2023-07-30T13:35:52.000Z</time>
      </trkpt>
      <trkpt lat="43.69064" lon="1.47677">
        <ele>175.103997</ele>
        <time>2023-07-30T13:35:53.000Z</time>
      </trkpt>
      <trkpt lat="43.69064" lon="1.47677">
        <ele>175.103997</ele>
        <time>2023-07-30T13:35:53.000Z</time>
      </trkpt>
      <trkpt lat="43.69065" lon="1.47682">
        <ele>175.251497</ele>
        <time>2023-07-30T13:35:54.000Z</time>
      </trkpt>
      <trkpt lat="43.69065" lon="1.47682">
        <ele>175.251497</ele>
        <time>2023-07-30T13:35:54.000Z</time>
      </trkpt>
      <trkpt lat="43.69066" lon="1.47686">
        <ele>175.386423</ele>
        <time>2023-07-30T13:35:55.000Z</time>
      </trkpt>
      <trkpt lat="43.69068" lon="1.47694">
        <ele>175.67382</ele>
        <time>2023-07-30T13:35:57.000Z</time>
      </trkpt>
      <trkpt lat="43.69068" lon="1.47694">
        <ele>175.67382</ele>
        <time>2023-07-30T13:35:57.000Z</time>
      </trkpt>
      <trkpt lat="43.6907" lon="1.47699">
        <ele>175.851116</ele>
        <time>2023-07-30T13:35:58.000Z</time>
      </trkpt>
      <trkpt lat="43.6907" lon="1.47699">
        <ele>175.851116</ele>
        <time>2023-07-30T13:35:58.000Z</time>
      </trkpt>
      <trkpt lat="43.69072" lon="1.47703">
        <ele>176.006708</ele>
        <time>2023-07-30T13:36:00.000Z</time>
      </trkpt>
      <trkpt lat="43.69074" lon="1.47707">
        <ele>176.156092</ele>
        <time>2023-07-30T13:36:01.000Z</time>
      </trkpt>
      <trkpt lat="43.69077" lon="1.47714">
        <ele>176.44589</ele>
        <time>2023-07-30T13:36:02.000Z</time>
      </trkpt>
      <trkpt lat="43.6908" lon="1.4772">
        <ele>176.669547</ele>
        <time>2023-07-30T13:36:03.000Z</time>
      </trkpt>
      <trkpt lat="43.69082" lon="1.47725">
        <ele>176.85896</ele>
        <time>2023-07-30T13:36:04.000Z</time>
      </trkpt>
      <trkpt lat="43.69082" lon="1.47725">
        <ele>176.85896</ele>
        <time>2023-07-30T13:36:04.000Z</time>
      </trkpt>
      <trkpt lat="43.69083" lon="1.4773">
        <ele>177.001133</ele>
        <time>2023-07-30T13:36:07.000Z</time>
      </trkpt>
      <trkpt lat="43.69083" lon="1.4773">
        <ele>177.001133</ele>
        <time>2023-07-30T13:36:07.000Z</time>
      </trkpt>
      <trkpt lat="43.69083" lon="1.47734">
        <ele>177.154988</ele>
        <time>2023-07-30T13:36:07.000Z</time>
      </trkpt>
      <trkpt lat="43.69083" lon="1.47734">
        <ele>177.154988</ele>
        <time>2023-07-30T13:36:07.000Z</time>
      </trkpt>
      <trkpt lat="43.69083" lon="1.47739">
        <ele>177.301285</ele>
        <time>2023-07-30T13:36:08.000Z</time>
      </trkpt>
      <trkpt lat="43.69082" lon="1.47742">
        <ele>177.397602</ele>
        <time>2023-07-30T13:36:09.000Z</time>
      </trkpt>
      <trkpt lat="43.69082" lon="1.47742">
        <ele>177.397602</ele>
        <time>2023-07-30T13:36:09.000Z</time>
      </trkpt>
      <trkpt lat="43.69081" lon="1.47746">
        <ele>177.547448</ele>
        <time>2023-07-30T13:36:10.000Z</time>
      </trkpt>
      <trkpt lat="43.69081" lon="1.47746">
        <ele>177.547448</ele>
        <time>2023-07-30T13:36:10.000Z</time>
      </trkpt>
      <trkpt lat="43.6908" lon="1.4775">
        <ele>177.685354</ele>
        <time>2023-07-30T13:36:11.000Z</time>
      </trkpt>
      <trkpt lat="43.6908" lon="1.4775">
        <ele>177.685354</ele>
        <time>2023-07-30T13:36:11.000Z</time>
      </trkpt>
      <trkpt lat="43.69078" lon="1.47753">
        <ele>177.817189</ele>
        <time>2023-07-30T13:36:13.000Z</time>
      </trkpt>
      <trkpt lat="43.69078" lon="1.47753">
        <ele>177.817189</ele>
        <time>2023-07-30T13:36:13.000Z</time>
      </trkpt>
      <trkpt lat="43.69077" lon="1.47758">
        <ele>177.987099</ele>
        <time>2023-07-30T13:36:14.000Z</time>
      </trkpt>
      <trkpt lat="43.69077" lon="1.47758">
        <ele>177.987099</ele>
        <time>2023-07-30T13:36:14.000Z</time>
      </trkpt>
      <trkpt lat="43.69077" lon="1.47762">
        <ele>178.100253</ele>
        <time>2023-07-30T13:36:15.000Z</time>
      </trkpt>
      <trkpt lat="43.69077" lon="1.47762">
        <ele>178.100253</ele>
        <time>2023-07-30T13:36:15.000Z</time>
      </trkpt>
      <trkpt lat="43.69076" lon="1.47765">
        <ele>178.208383</ele>
        <time>2023-07-30T13:36:16.000Z</time>
      </trkpt>
      <trkpt lat="43.69076" lon="1.4777">
        <ele>178.370936</ele>
        <time>2023-07-30T13:36:17.000Z</time>
      </trkpt>
      <trkpt lat="43.69076" lon="1.47773">
        <ele>178.470112</ele>
        <time>2023-07-30T13:36:18.000Z</time>
      </trkpt>
      <trkpt lat="43.69076" lon="1.47773">
        <ele>178.470112</ele>
        <time>2023-07-30T13:36:18.000Z</time>
      </trkpt>
      <trkpt lat="43.69076" lon="1.4778">
        <ele>178.698396</ele>
        <time>2023-07-30T13:36:19.000Z</time>
      </trkpt>
      <trkpt lat="43.69076" lon="1.47784">
        <ele>178.828439</ele>
        <time>2023-07-30T13:36:21.000Z</time>
      </trkpt>
      <trkpt lat="43.69076" lon="1.47784">
        <ele>178.828439</ele>
        <time>2023-07-30T13:36:21.000Z</time>
      </trkpt>
      <trkpt lat="43.69076" lon="1.47789">
        <ele>178.995215</ele>
        <time>2023-07-30T13:36:22.000Z</time>
      </trkpt>
      <trkpt lat="43.69075" lon="1.47794">
        <ele>179.164876</ele>
        <time>2023-07-30T13:36:24.000Z</time>
      </trkpt>
      <trkpt lat="43.69075" lon="1.47794">
        <ele>179.164876</ele>
        <time>2023-07-30T13:36:24.000Z</time>
      </trkpt>
      <trkpt lat="43.69074" lon="1.478">
        <ele>179.359816</ele>
        <time>2023-07-30T13:36:24.000Z</time>
      </trkpt>
      <trkpt lat="43.69074" lon="1.478">
        <ele>179.359816</ele>
        <time>2023-07-30T13:36:24.000Z</time>
      </trkpt>
      <trkpt lat="43.69073" lon="1.47804">
        <ele>179.485368</ele>
        <time>2023-07-30T13:36:25.000Z</time>
      </trkpt>
      <trkpt lat="43.69073" lon="1.47804">
        <ele>179.485368</ele>
        <time>2023-07-30T13:36:25.000Z</time>
      </trkpt>
      <trkpt lat="43.69072" lon="1.47808">
        <ele>179.633655</ele>
        <time>2023-07-30T13:36:26.000Z</time>
      </trkpt>
      <trkpt lat="43.69071" lon="1.47812">
        <ele>179.774446</ele>
        <time>2023-07-30T13:36:27.000Z</time>
      </trkpt>
      <trkpt lat="43.6907" lon="1.47816">
        <ele>179.916619</ele>
        <time>2023-07-30T13:36:28.000Z</time>
      </trkpt>
      <trkpt lat="43.69069" lon="1.47821">
        <ele>180.050268</ele>
        <time>2023-07-30T13:36:30.000Z</time>
      </trkpt>
      <trkpt lat="43.69069" lon="1.47821">
        <ele>180.050268</ele>
        <time>2023-07-30T13:36:30.000Z</time>
      </trkpt>
      <trkpt lat="43.69067" lon="1.47827">
        <ele>180.056188</ele>
        <time>2023-07-30T13:36:32.000Z</time>
      </trkpt>
      <trkpt lat="43.69067" lon="1.4783">
        <ele>180.059916</ele>
        <time>2023-07-30T13:36:32.000Z</time>
      </trkpt>
      <trkpt lat="43.69066" lon="1.47836">
        <ele>180.065834</ele>
        <time>2023-07-30T13:36:34.000Z</time>
      </trkpt>
      <trkpt lat="43.69066" lon="1.47836">
        <ele>180.065834</ele>
        <time>2023-07-30T13:36:34.000Z</time>
      </trkpt>
      <trkpt lat="43.69065" lon="1.47842">
        <ele>180.072403</ele>
        <time>2023-07-30T13:36:35.000Z</time>
      </trkpt>
      <trkpt lat="43.69064" lon="1.47847">
        <ele>180.077114</ele>
        <time>2023-07-30T13:36:36.000Z</time>
      </trkpt>
      <trkpt lat="43.69063" lon="1.47852">
        <ele>180.082256</ele>
        <time>2023-07-30T13:36:37.000Z</time>
      </trkpt>
      <trkpt lat="43.69063" lon="1.47852">
        <ele>180.082256</ele>
        <time>2023-07-30T13:36:37.000Z</time>
      </trkpt>
      <trkpt lat="43.69062" lon="1.47858">
        <ele>180.08885</ele>
        <time>2023-07-30T13:36:39.000Z</time>
      </trkpt>
      <trkpt lat="43.69061" lon="1.47863">
        <ele>180.094339</ele>
        <time>2023-07-30T13:36:40.000Z</time>
      </trkpt>
      <trkpt lat="43.69061" lon="1.47863">
        <ele>180.094339</ele>
        <time>2023-07-30T13:36:40.000Z</time>
      </trkpt>
      <trkpt lat="43.69059" lon="1.47868">
        <ele>180.10026</ele>
        <time>2023-07-30T13:36:41.000Z</time>
      </trkpt>
      <trkpt lat="43.69058" lon="1.47873">
        <ele>180.105362</ele>
        <time>2023-07-30T13:36:42.000Z</time>
      </trkpt>
      <trkpt lat="43.69058" lon="1.47873">
        <ele>180.105362</ele>
        <time>2023-07-30T13:36:42.000Z</time>
      </trkpt>
      <trkpt lat="43.69056" lon="1.47879">
        <ele>180.111666</ele>
        <time>2023-07-30T13:36:43.000Z</time>
      </trkpt>
      <trkpt lat="43.69055" lon="1.47884">
        <ele>180.117492</ele>
        <time>2023-07-30T13:36:44.000Z</time>
      </trkpt>
      <trkpt lat="43.69054" lon="1.47888">
        <ele>180.121776</ele>
        <time>2023-07-30T13:36:45.000Z</time>
      </trkpt>
      <trkpt lat="43.69051" lon="1.47895">
        <ele>180.130078</ele>
        <time>2023-07-30T13:36:47.000Z</time>
      </trkpt>
      <trkpt lat="43.6905" lon="1.47898">
        <ele>180.133159</ele>
        <time>2023-07-30T13:36:49.000Z</time>
      </trkpt>
      <trkpt lat="43.69049" lon="1.47901">
        <ele>180.136511</ele>
        <time>2023-07-30T13:36:50.000Z</time>
      </trkpt>
      <trkpt lat="43.69049" lon="1.47901">
        <ele>180.136511</ele>
        <time>2023-07-30T13:36:50.000Z</time>
      </trkpt>
      <trkpt lat="43.69048" lon="1.47905">
        <ele>180.140849</ele>
        <time>2023-07-30T13:36:51.000Z</time>
      </trkpt>
      <trkpt lat="43.69048" lon="1.47905">
        <ele>180.140849</ele>
        <time>2023-07-30T13:36:51.000Z</time>
      </trkpt>
      <trkpt lat="43.69048" lon="1.47908">
        <ele>180.144738</ele>
        <time>2023-07-30T13:36:53.000Z</time>
      </trkpt>
      <trkpt lat="43.69048" lon="1.47908">
        <ele>180.144738</ele>
        <time>2023-07-30T13:36:53.000Z</time>
      </trkpt>
      <trkpt lat="43.69048" lon="1.47912">
        <ele>180.148264</ele>
        <time>2023-07-30T13:36:54.000Z</time>
      </trkpt>
      <trkpt lat="43.69048" lon="1.47912">
        <ele>180.148264</ele>
        <time>2023-07-30T13:36:54.000Z</time>
      </trkpt>
      <trkpt lat="43.69049" lon="1.47917">
        <ele>180.153559</ele>
        <time>2023-07-30T13:36:55.000Z</time>
      </trkpt>
      <trkpt lat="43.69049" lon="1.47917">
        <ele>180.153559</ele>
        <time>2023-07-30T13:36:55.000Z</time>
      </trkpt>
      <trkpt lat="43.69049" lon="1.47919">
        <ele>180.155486</ele>
        <time>2023-07-30T13:36:56.000Z</time>
      </trkpt>
      <trkpt lat="43.69049" lon="1.47919">
        <ele>180.155486</ele>
        <time>2023-07-30T13:36:56.000Z</time>
      </trkpt>
      <trkpt lat="43.6905" lon="1.47921">
        <ele>180.15823</ele>
        <time>2023-07-30T13:36:56.000Z</time>
      </trkpt>
      <trkpt lat="43.6905" lon="1.47921">
        <ele>180.15823</ele>
        <time>2023-07-30T13:36:56.000Z</time>
      </trkpt>
      <trkpt lat="43.69051" lon="1.47924">
        <ele>180.16192</ele>
        <time>2023-07-30T13:36:58.000Z</time>
      </trkpt>
      <trkpt lat="43.69051" lon="1.47924">
        <ele>180.16192</ele>
        <time>2023-07-30T13:36:58.000Z</time>
      </trkpt>
      <trkpt lat="43.69053" lon="1.4793">
        <ele>180.168624</ele>
        <time>2023-07-30T13:37:00.000Z</time>
      </trkpt>
      <trkpt lat="43.69053" lon="1.4793">
        <ele>180.168624</ele>
        <time>2023-07-30T13:37:00.000Z</time>
      </trkpt>
      <trkpt lat="43.69053" lon="1.4793">
        <ele>180.168624</ele>
        <time>2023-07-30T13:37:01.000Z</time>
      </trkpt>
      <trkpt lat="43.69055" lon="1.47936">
        <ele>180.175394</ele>
        <time>2023-07-30T13:37:02.000Z</time>
      </trkpt>
      <trkpt lat="43.69055" lon="1.47936">
        <ele>180.175394</ele>
        <time>2023-07-30T13:37:02.000Z</time>
      </trkpt>
      <trkpt lat="43.69055" lon="1.47938">
        <ele>180.177134</ele>
        <time>2023-07-30T13:37:04.000Z</time>
      </trkpt>
      <trkpt lat="43.69055" lon="1.47938">
        <ele>180.177134</ele>
        <time>2023-07-30T13:37:04.000Z</time>
      </trkpt>
      <trkpt lat="43.69055" lon="1.47938">
        <ele>180.177544</ele>
        <time>2023-07-30T13:37:06.000Z</time>
      </trkpt>
      <trkpt lat="43.69055" lon="1.4794">
        <ele>180.179079</ele>
        <time>2023-07-30T13:37:06.000Z</time>
      </trkpt>
      <trkpt lat="43.69055" lon="1.47941">
        <ele>180.180431</ele>
        <time>2023-07-30T13:37:07.000Z</time>
      </trkpt>
      <trkpt lat="43.69054" lon="1.47943">
        <ele>180.183052</ele>
        <time>2023-07-30T13:37:08.000Z</time>
      </trkpt>
      <trkpt lat="43.69054" lon="1.47943">
        <ele>180.183052</ele>
        <time>2023-07-30T13:37:08.000Z</time>
      </trkpt>
      <trkpt lat="43.69054" lon="1.47945">
        <ele>180.185275</ele>
        <time>2023-07-30T13:37:09.000Z</time>
      </trkpt>
      <trkpt lat="43.69054" lon="1.47945">
        <ele>180.185275</ele>
        <time>2023-07-30T13:37:09.000Z</time>
      </trkpt>
      <trkpt lat="43.69054" lon="1.47948">
        <ele>180.187667</ele>
        <time>2023-07-30T13:37:10.000Z</time>
      </trkpt>
      <trkpt lat="43.69054" lon="1.47948">
        <ele>180.187667</ele>
        <time>2023-07-30T13:37:10.000Z</time>
      </trkpt>
      <trkpt lat="43.69053" lon="1.4795">
        <ele>180.190188</ele>
        <time>2023-07-30T13:37:12.000Z</time>
      </trkpt>
      <trkpt lat="43.69053" lon="1.4795">
        <ele>180.190188</ele>
        <time>2023-07-30T13:37:12.000Z</time>
      </trkpt>
      <trkpt lat="43.69053" lon="1.47952">
        <ele>180.192018</ele>
        <time>2023-07-30T13:37:13.000Z</time>
      </trkpt>
      <trkpt lat="43.69053" lon="1.47952">
        <ele>180.192018</ele>
        <time>2023-07-30T13:37:13.000Z</time>
      </trkpt>
      <trkpt lat="43.69053" lon="1.47954">
        <ele>180.194339</ele>
        <time>2023-07-30T13:37:15.000Z</time>
      </trkpt>
      <trkpt lat="43.69053" lon="1.47954">
        <ele>180.194339</ele>
        <time>2023-07-30T13:37:15.000Z</time>
      </trkpt>
      <trkpt lat="43.69052" lon="1.47958">
        <ele>180.19827</ele>
        <time>2023-07-30T13:37:16.000Z</time>
      </trkpt>
      <trkpt lat="43.69051" lon="1.47966">
        <ele>180.206906</ele>
        <time>2023-07-30T13:37:18.000Z</time>
      </trkpt>
      <trkpt lat="43.69051" lon="1.47966">
        <ele>180.206906</ele>
        <time>2023-07-30T13:37:18.000Z</time>
      </trkpt>
      <trkpt lat="43.6905" lon="1.47969">
        <ele>180.210372</ele>
        <time>2023-07-30T13:37:19.000Z</time>
      </trkpt>
      <trkpt lat="43.6905" lon="1.47969">
        <ele>180.210372</ele>
        <time>2023-07-30T13:37:19.000Z</time>
      </trkpt>
      <trkpt lat="43.6905" lon="1.47973">
        <ele>180.214584</ele>
        <time>2023-07-30T13:37:19.000Z</time>
      </trkpt>
      <trkpt lat="43.69049" lon="1.47978">
        <ele>180.219825</ele>
        <time>2023-07-30T13:37:21.000Z</time>
      </trkpt>
      <trkpt lat="43.69049" lon="1.47978">
        <ele>180.219825</ele>
        <time>2023-07-30T13:37:21.000Z</time>
      </trkpt>
      <trkpt lat="43.69048" lon="1.47982">
        <ele>180.223388</ele>
        <time>2023-07-30T13:37:21.000Z</time>
      </trkpt>
      <trkpt lat="43.69047" lon="1.47989">
        <ele>180.23062</ele>
        <time>2023-07-30T13:37:24.000Z</time>
      </trkpt>
      <trkpt lat="43.69046" lon="1.47993">
        <ele>180.235667</ele>
        <time>2023-07-30T13:37:25.000Z</time>
      </trkpt>
      <trkpt lat="43.69046" lon="1.47993">
        <ele>180.235667</ele>
        <time>2023-07-30T13:37:25.000Z</time>
      </trkpt>
      <trkpt lat="43.69045" lon="1.48">
        <ele>180.242748</ele>
        <time>2023-07-30T13:37:26.000Z</time>
      </trkpt>
      <trkpt lat="43.69045" lon="1.48">
        <ele>180.242748</ele>
        <time>2023-07-30T13:37:26.000Z</time>
      </trkpt>
      <trkpt lat="43.69044" lon="1.48003">
        <ele>180.24631</ele>
        <time>2023-07-30T13:37:29.000Z</time>
      </trkpt>
      <trkpt lat="43.69044" lon="1.48003">
        <ele>180.24631</ele>
        <time>2023-07-30T13:37:29.000Z</time>
      </trkpt>
      <trkpt lat="43.69043" lon="1.48006">
        <ele>180.249662</ele>
        <time>2023-07-30T13:37:30.000Z</time>
      </trkpt>
      <trkpt lat="43.69043" lon="1.48006">
        <ele>180.249662</ele>
        <time>2023-07-30T13:37:30.000Z</time>
      </trkpt>
      <trkpt lat="43.69042" lon="1.48009">
        <ele>180.252819</ele>
        <time>2023-07-30T13:37:30.000Z</time>
      </trkpt>
      <trkpt lat="43.6904" lon="1.48013">
        <ele>180.257803</ele>
        <time>2023-07-30T13:37:32.000Z</time>
      </trkpt>
      <trkpt lat="43.69038" lon="1.48017">
        <ele>180.263048</ele>
        <time>2023-07-30T13:37:33.000Z</time>
      </trkpt>
      <trkpt lat="43.69038" lon="1.48017">
        <ele>180.263048</ele>
        <time>2023-07-30T13:37:37.000Z</time>
      </trkpt>
      <trkpt lat="43.69035" lon="1.48026">
        <ele>180.273285</ele>
        <time>2023-07-30T13:37:39.000Z</time>
      </trkpt>
      <trkpt lat="43.69035" lon="1.48026">
        <ele>180.273285</ele>
        <time>2023-07-30T13:37:39.000Z</time>
      </trkpt>
      <trkpt lat="43.69035" lon="1.48026">
        <ele>180.273721</ele>
        <time>2023-07-30T13:37:41.000Z</time>
      </trkpt>
      <trkpt lat="43.69036" lon="1.48027">
        <ele>180.274485</ele>
        <time>2023-07-30T13:37:42.000Z</time>
      </trkpt>
      <trkpt lat="43.69036" lon="1.48027">
        <ele>180.275087</ele>
        <time>2023-07-30T13:37:43.000Z</time>
      </trkpt>
      <trkpt lat="43.69036" lon="1.48027">
        <ele>180.275087</ele>
        <time>2023-07-30T13:37:43.000Z</time>
      </trkpt>
      <trkpt lat="43.69035" lon="1.48026">
        <ele>180.276484</ele>
        <time>2023-07-30T13:37:45.000Z</time>
      </trkpt>
      <trkpt lat="43.69035" lon="1.48026">
        <ele>180.276484</ele>
        <time>2023-07-30T13:37:45.000Z</time>
      </trkpt>
      <trkpt lat="43.69037" lon="1.48026">
        <ele>180.278186</ele>
        <time>2023-07-30T13:37:46.000Z</time>
      </trkpt>
      <trkpt lat="43.69037" lon="1.48025">
        <ele>180.279258</ele>
        <time>2023-07-30T13:37:47.000Z</time>
      </trkpt>
      <trkpt lat="43.69037" lon="1.48025">
        <ele>180.279258</ele>
        <time>2023-07-30T13:37:47.000Z</time>
      </trkpt>
      <trkpt lat="43.69039" lon="1.48024">
        <ele>180.282053</ele>
        <time>2023-07-30T13:37:48.000Z</time>
      </trkpt>
      <trkpt lat="43.69041" lon="1.48021">
        <ele>180.286458</ele>
        <time>2023-07-30T13:37:49.000Z</time>
      </trkpt>
      <trkpt lat="43.69045" lon="1.48017">
        <ele>180.293408</ele>
        <time>2023-07-30T13:37:50.000Z</time>
      </trkpt>
      <trkpt lat="43.69045" lon="1.48017">
        <ele>180.293408</ele>
        <time>2023-07-30T13:37:50.000Z</time>
      </trkpt>
      <trkpt lat="43.69049" lon="1.48013">
        <ele>180.300297</ele>
        <time>2023-07-30T13:37:52.000Z</time>
      </trkpt>
      <trkpt lat="43.69049" lon="1.48013">
        <ele>180.300297</ele>
        <time>2023-07-30T13:37:52.000Z</time>
      </trkpt>
      <trkpt lat="43.69054" lon="1.48009">
        <ele>180.445561</ele>
        <time>2023-07-30T13:37:53.000Z</time>
      </trkpt>
      <trkpt lat="43.69059" lon="1.48006">
        <ele>180.718925</ele>
        <time>2023-07-30T13:37:54.000Z</time>
      </trkpt>
      <trkpt lat="43.69059" lon="1.48006">
        <ele>180.718925</ele>
        <time>2023-07-30T13:37:54.000Z</time>
      </trkpt>
      <trkpt lat="43.69064" lon="1.48004">
        <ele>180.939292</ele>
        <time>2023-07-30T13:37:55.000Z</time>
      </trkpt>
      <trkpt lat="43.69069" lon="1.48002">
        <ele>181.169226</ele>
        <time>2023-07-30T13:37:56.000Z</time>
      </trkpt>
      <trkpt lat="43.69069" lon="1.48002">
        <ele>181.169226</ele>
        <time>2023-07-30T13:37:56.000Z</time>
      </trkpt>
      <trkpt lat="43.69072" lon="1.48001">
        <ele>181.311905</ele>
        <time>2023-07-30T13:37:57.000Z</time>
      </trkpt>
      <trkpt lat="43.69072" lon="1.48001">
        <ele>181.311905</ele>
        <time>2023-07-30T13:37:57.000Z</time>
      </trkpt>
      <trkpt lat="43.69077" lon="1.47999">
        <ele>181.520996</ele>
        <time>2023-07-30T13:37:58.000Z</time>
      </trkpt>
      <trkpt lat="43.69077" lon="1.47999">
        <ele>181.520996</ele>
        <time>2023-07-30T13:37:58.000Z</time>
      </trkpt>
      <trkpt lat="43.6908" lon="1.47998">
        <ele>181.682623</ele>
        <time>2023-07-30T13:37:59.000Z</time>
      </trkpt>
      <trkpt lat="43.6908" lon="1.47998">
        <ele>181.682623</ele>
        <time>2023-07-30T13:37:59.000Z</time>
      </trkpt>
      <trkpt lat="43.69084" lon="1.47997">
        <ele>181.858889</ele>
        <time>2023-07-30T13:38:01.000Z</time>
      </trkpt>
      <trkpt lat="43.69084" lon="1.47997">
        <ele>181.858889</ele>
        <time>2023-07-30T13:38:01.000Z</time>
      </trkpt>
      <trkpt lat="43.69087" lon="1.47995">
        <ele>182.018851</ele>
        <time>2023-07-30T13:38:02.000Z</time>
      </trkpt>
      <trkpt lat="43.69087" lon="1.47995">
        <ele>182.018851</ele>
        <time>2023-07-30T13:38:02.000Z</time>
      </trkpt>
      <trkpt lat="43.69091" lon="1.47993">
        <ele>182.199966</ele>
        <time>2023-07-30T13:38:03.000Z</time>
      </trkpt>
      <trkpt lat="43.69091" lon="1.47993">
        <ele>182.199966</ele>
        <time>2023-07-30T13:38:03.000Z</time>
      </trkpt>
      <trkpt lat="43.69094" lon="1.47992">
        <ele>182.345163</ele>
        <time>2023-07-30T13:38:04.000Z</time>
      </trkpt>
      <trkpt lat="43.69094" lon="1.47992">
        <ele>182.345163</ele>
        <time>2023-07-30T13:38:04.000Z</time>
      </trkpt>
      <trkpt lat="43.69099" lon="1.4799">
        <ele>182.55944</ele>
        <time>2023-07-30T13:38:05.000Z</time>
      </trkpt>
      <trkpt lat="43.69099" lon="1.4799">
        <ele>182.55944</ele>
        <time>2023-07-30T13:38:05.000Z</time>
      </trkpt>
      <trkpt lat="43.69102" lon="1.47989">
        <ele>182.699419</ele>
        <time>2023-07-30T13:38:06.000Z</time>
      </trkpt>
      <trkpt lat="43.69102" lon="1.47989">
        <ele>182.699419</ele>
        <time>2023-07-30T13:38:06.000Z</time>
      </trkpt>
      <trkpt lat="43.69108" lon="1.47986">
        <ele>182.984588</ele>
        <time>2023-07-30T13:38:08.000Z</time>
      </trkpt>
      <trkpt lat="43.69108" lon="1.47986">
        <ele>182.984588</ele>
        <time>2023-07-30T13:38:08.000Z</time>
      </trkpt>
      <trkpt lat="43.69112" lon="1.47985">
        <ele>183.1775</ele>
        <time>2023-07-30T13:38:09.000Z</time>
      </trkpt>
      <trkpt lat="43.69112" lon="1.47985">
        <ele>183.1775</ele>
        <time>2023-07-30T13:38:09.000Z</time>
      </trkpt>
      <trkpt lat="43.69116" lon="1.47984">
        <ele>183.337067</ele>
        <time>2023-07-30T13:38:10.000Z</time>
      </trkpt>
      <trkpt lat="43.69116" lon="1.47984">
        <ele>183.337067</ele>
        <time>2023-07-30T13:38:10.000Z</time>
      </trkpt>
      <trkpt lat="43.69123" lon="1.47984">
        <ele>183.659934</ele>
        <time>2023-07-30T13:38:12.000Z</time>
      </trkpt>
      <trkpt lat="43.69123" lon="1.47984">
        <ele>183.659934</ele>
        <time>2023-07-30T13:38:12.000Z</time>
      </trkpt>
      <trkpt lat="43.69125" lon="1.47984">
        <ele>183.782035</ele>
        <time>2023-07-30T13:38:13.000Z</time>
      </trkpt>
      <trkpt lat="43.69125" lon="1.47984">
        <ele>183.782035</ele>
        <time>2023-07-30T13:38:13.000Z</time>
      </trkpt>
      <trkpt lat="43.69127" lon="1.47986">
        <ele>183.866943</ele>
        <time>2023-07-30T13:38:14.000Z</time>
      </trkpt>
      <trkpt lat="43.69127" lon="1.47986">
        <ele>183.866943</ele>
        <time>2023-07-30T13:38:14.000Z</time>
      </trkpt>
      <trkpt lat="43.69129" lon="1.47987">
        <ele>183.963439</ele>
        <time>2023-07-30T13:38:15.000Z</time>
      </trkpt>
      <trkpt lat="43.69129" lon="1.47987">
        <ele>183.963439</ele>
        <time>2023-07-30T13:38:15.000Z</time>
      </trkpt>
      <trkpt lat="43.69131" lon="1.4799">
        <ele>184.09456</ele>
        <time>2023-07-30T13:38:16.000Z</time>
      </trkpt>
      <trkpt lat="43.69131" lon="1.4799">
        <ele>184.09456</ele>
        <time>2023-07-30T13:38:16.000Z</time>
      </trkpt>
      <trkpt lat="43.69133" lon="1.47993">
        <ele>184.21901</ele>
        <time>2023-07-30T13:38:18.000Z</time>
      </trkpt>
      <trkpt lat="43.69133" lon="1.47993">
        <ele>184.21901</ele>
        <time>2023-07-30T13:38:18.000Z</time>
      </trkpt>
      <trkpt lat="43.69135" lon="1.47995">
        <ele>184.33008</ele>
        <time>2023-07-30T13:38:19.000Z</time>
      </trkpt>
      <trkpt lat="43.69135" lon="1.47995">
        <ele>184.33008</ele>
        <time>2023-07-30T13:38:19.000Z</time>
      </trkpt>
      <trkpt lat="43.69138" lon="1.48">
        <ele>184.53626</ele>
        <time>2023-07-30T13:38:20.000Z</time>
      </trkpt>
      <trkpt lat="43.69138" lon="1.48">
        <ele>184.53626</ele>
        <time>2023-07-30T13:38:20.000Z</time>
      </trkpt>
      <trkpt lat="43.6914" lon="1.48003">
        <ele>184.677037</ele>
        <time>2023-07-30T13:38:21.000Z</time>
      </trkpt>
      <trkpt lat="43.6914" lon="1.48003">
        <ele>184.677037</ele>
        <time>2023-07-30T13:38:21.000Z</time>
      </trkpt>
      <trkpt lat="43.69143" lon="1.48006">
        <ele>184.814379</ele>
        <time>2023-07-30T13:38:22.000Z</time>
      </trkpt>
      <trkpt lat="43.69143" lon="1.48006">
        <ele>184.814379</ele>
        <time>2023-07-30T13:38:22.000Z</time>
      </trkpt>
      <trkpt lat="43.69145" lon="1.48008">
        <ele>184.945501</ele>
        <time>2023-07-30T13:38:23.000Z</time>
      </trkpt>
      <trkpt lat="43.69145" lon="1.48008">
        <ele>184.945501</ele>
        <time>2023-07-30T13:38:23.000Z</time>
      </trkpt>
      <trkpt lat="43.69146" lon="1.4801">
        <ele>185.028469</ele>
        <time>2023-07-30T13:38:24.000Z</time>
      </trkpt>
      <trkpt lat="43.69146" lon="1.4801">
        <ele>185.028469</ele>
        <time>2023-07-30T13:38:24.000Z</time>
      </trkpt>
      <trkpt lat="43.69148" lon="1.48012">
        <ele>185.136673</ele>
        <time>2023-07-30T13:38:26.000Z</time>
      </trkpt>
      <trkpt lat="43.69147" lon="1.48012">
        <ele>185.173826</ele>
        <time>2023-07-30T13:38:28.000Z</time>
      </trkpt>
      <trkpt lat="43.69147" lon="1.48012">
        <ele>185.173826</ele>
        <time>2023-07-30T13:38:28.000Z</time>
      </trkpt>
      <trkpt lat="43.69149" lon="1.4801">
        <ele>185.299172</ele>
        <time>2023-07-30T13:38:29.000Z</time>
      </trkpt>
      <trkpt lat="43.69149" lon="1.4801">
        <ele>185.299172</ele>
        <time>2023-07-30T13:38:29.000Z</time>
      </trkpt>
      <trkpt lat="43.69153" lon="1.48006">
        <ele>185.493091</ele>
        <time>2023-07-30T13:38:30.000Z</time>
      </trkpt>
      <trkpt lat="43.69153" lon="1.48006">
        <ele>185.493091</ele>
        <time>2023-07-30T13:38:30.000Z</time>
      </trkpt>
      <trkpt lat="43.69156" lon="1.48003">
        <ele>185.682958</ele>
        <time>2023-07-30T13:38:31.000Z</time>
      </trkpt>
      <trkpt lat="43.69156" lon="1.48003">
        <ele>185.682958</ele>
        <time>2023-07-30T13:38:31.000Z</time>
      </trkpt>
      <trkpt lat="43.6916" lon="1.48">
        <ele>185.863729</ele>
        <time>2023-07-30T13:38:32.000Z</time>
      </trkpt>
      <trkpt lat="43.69162" lon="1.47998">
        <ele>186.001015</ele>
        <time>2023-07-30T13:38:33.000Z</time>
      </trkpt>
      <trkpt lat="43.69166" lon="1.47996">
        <ele>186.183257</ele>
        <time>2023-07-30T13:38:35.000Z</time>
      </trkpt>
      <trkpt lat="43.6917" lon="1.47995">
        <ele>186.343219</ele>
        <time>2023-07-30T13:38:36.000Z</time>
      </trkpt>
      <trkpt lat="43.6917" lon="1.47995">
        <ele>186.343219</ele>
        <time>2023-07-30T13:38:36.000Z</time>
      </trkpt>
      <trkpt lat="43.69174" lon="1.47994">
        <ele>186.551026</ele>
        <time>2023-07-30T13:38:37.000Z</time>
      </trkpt>
      <trkpt lat="43.69174" lon="1.47994">
        <ele>186.551026</ele>
        <time>2023-07-30T13:38:37.000Z</time>
      </trkpt>
      <trkpt lat="43.69179" lon="1.47993">
        <ele>186.758124</ele>
        <time>2023-07-30T13:38:38.000Z</time>
      </trkpt>
      <trkpt lat="43.69185" lon="1.47993">
        <ele>187.049488</ele>
        <time>2023-07-30T13:38:39.000Z</time>
      </trkpt>
      <trkpt lat="43.69185" lon="1.47993">
        <ele>187.049488</ele>
        <time>2023-07-30T13:38:39.000Z</time>
      </trkpt>
      <trkpt lat="43.69191" lon="1.47994">
        <ele>187.305489</ele>
        <time>2023-07-30T13:38:40.000Z</time>
      </trkpt>
      <trkpt lat="43.69191" lon="1.47994">
        <ele>187.305489</ele>
        <time>2023-07-30T13:38:40.000Z</time>
      </trkpt>
      <trkpt lat="43.69196" lon="1.47994">
        <ele>187.525333</ele>
        <time>2023-07-30T13:38:41.000Z</time>
      </trkpt>
      <trkpt lat="43.69196" lon="1.47994">
        <ele>187.525333</ele>
        <time>2023-07-30T13:38:41.000Z</time>
      </trkpt>
      <trkpt lat="43.69199" lon="1.47994">
        <ele>187.682346</ele>
        <time>2023-07-30T13:38:43.000Z</time>
      </trkpt>
      <trkpt lat="43.69199" lon="1.47994">
        <ele>187.682346</ele>
        <time>2023-07-30T13:38:43.000Z</time>
      </trkpt>
      <trkpt lat="43.69203" lon="1.47995">
        <ele>187.853777</ele>
        <time>2023-07-30T13:38:44.000Z</time>
      </trkpt>
      <trkpt lat="43.69203" lon="1.47995">
        <ele>187.853777</ele>
        <time>2023-07-30T13:38:44.000Z</time>
      </trkpt>
      <trkpt lat="43.69207" lon="1.47996">
        <ele>188.044278</ele>
        <time>2023-07-30T13:38:45.000Z</time>
      </trkpt>
      <trkpt lat="43.69207" lon="1.47996">
        <ele>188.044278</ele>
        <time>2023-07-30T13:38:45.000Z</time>
      </trkpt>
      <trkpt lat="43.6921" lon="1.47996">
        <ele>188.149187</ele>
        <time>2023-07-30T13:38:46.000Z</time>
      </trkpt>
      <trkpt lat="43.6921" lon="1.47996">
        <ele>188.149187</ele>
        <time>2023-07-30T13:38:46.000Z</time>
      </trkpt>
      <trkpt lat="43.69214" lon="1.47998">
        <ele>188.324646</ele>
        <time>2023-07-30T13:38:47.000Z</time>
      </trkpt>
      <trkpt lat="43.69214" lon="1.47998">
        <ele>188.324646</ele>
        <time>2023-07-30T13:38:47.000Z</time>
      </trkpt>
      <trkpt lat="43.69217" lon="1.47999">
        <ele>188.433542</ele>
        <time>2023-07-30T13:38:48.000Z</time>
      </trkpt>
      <trkpt lat="43.69217" lon="1.47999">
        <ele>188.433542</ele>
        <time>2023-07-30T13:38:48.000Z</time>
      </trkpt>
      <trkpt lat="43.6922" lon="1.48">
        <ele>188.513715</ele>
        <time>2023-07-30T13:38:50.000Z</time>
      </trkpt>
      <trkpt lat="43.6922" lon="1.48">
        <ele>188.513715</ele>
        <time>2023-07-30T13:38:50.000Z</time>
      </trkpt>
      <trkpt lat="43.69223" lon="1.48001">
        <ele>188.592169</ele>
        <time>2023-07-30T13:38:51.000Z</time>
      </trkpt>
      <trkpt lat="43.69223" lon="1.48001">
        <ele>188.592169</ele>
        <time>2023-07-30T13:38:51.000Z</time>
      </trkpt>
      <trkpt lat="43.69227" lon="1.48002">
        <ele>188.690872</ele>
        <time>2023-07-30T13:38:52.000Z</time>
      </trkpt>
      <trkpt lat="43.69227" lon="1.48002">
        <ele>188.690872</ele>
        <time>2023-07-30T13:38:52.000Z</time>
      </trkpt>
      <trkpt lat="43.69231" lon="1.48002">
        <ele>188.797666</ele>
        <time>2023-07-30T13:38:53.000Z</time>
      </trkpt>
      <trkpt lat="43.69235" lon="1.48002">
        <ele>188.887329</ele>
        <time>2023-07-30T13:38:54.000Z</time>
      </trkpt>
      <trkpt lat="43.69241" lon="1.48">
        <ele>189.045902</ele>
        <time>2023-07-30T13:38:55.000Z</time>
      </trkpt>
      <trkpt lat="43.69241" lon="1.48">
        <ele>189.045902</ele>
        <time>2023-07-30T13:38:55.000Z</time>
      </trkpt>
      <trkpt lat="43.69249" lon="1.47996">
        <ele>189.277855</ele>
        <time>2023-07-30T13:38:57.000Z</time>
      </trkpt>
      <trkpt lat="43.69254" lon="1.47994">
        <ele>189.391397</ele>
        <time>2023-07-30T13:38:58.000Z</time>
      </trkpt>
      <trkpt lat="43.69254" lon="1.47994">
        <ele>189.391397</ele>
        <time>2023-07-30T13:38:58.000Z</time>
      </trkpt>
      <trkpt lat="43.69259" lon="1.47991">
        <ele>189.527202</ele>
        <time>2023-07-30T13:38:59.000Z</time>
      </trkpt>
      <trkpt lat="43.69259" lon="1.47991">
        <ele>189.527202</ele>
        <time>2023-07-30T13:38:59.000Z</time>
      </trkpt>
      <trkpt lat="43.69265" lon="1.47988">
        <ele>189.696545</ele>
        <time>2023-07-30T13:39:00.000Z</time>
      </trkpt>
      <trkpt lat="43.69265" lon="1.47988">
        <ele>189.696545</ele>
        <time>2023-07-30T13:39:00.000Z</time>
      </trkpt>
      <trkpt lat="43.69271" lon="1.47982">
        <ele>189.882684</ele>
        <time>2023-07-30T13:39:01.000Z</time>
      </trkpt>
      <trkpt lat="43.69275" lon="1.47976">
        <ele>190.032092</ele>
        <time>2023-07-30T13:39:02.000Z</time>
      </trkpt>
      <trkpt lat="43.69275" lon="1.47976">
        <ele>190.032092</ele>
        <time>2023-07-30T13:39:02.000Z</time>
      </trkpt>
      <trkpt lat="43.69277" lon="1.47968">
        <ele>190.182822</ele>
        <time>2023-07-30T13:39:03.000Z</time>
      </trkpt>
      <trkpt lat="43.69277" lon="1.47968">
        <ele>190.182822</ele>
        <time>2023-07-30T13:39:03.000Z</time>
      </trkpt>
      <trkpt lat="43.69279" lon="1.4796">
        <ele>190.34366</ele>
        <time>2023-07-30T13:39:04.000Z</time>
      </trkpt>
      <trkpt lat="43.69279" lon="1.4796">
        <ele>190.34366</ele>
        <time>2023-07-30T13:39:04.000Z</time>
      </trkpt>
      <trkpt lat="43.6928" lon="1.47951">
        <ele>190.508524</ele>
        <time>2023-07-30T13:39:05.000Z</time>
      </trkpt>
      <trkpt lat="43.6928" lon="1.47951">
        <ele>190.508524</ele>
        <time>2023-07-30T13:39:05.000Z</time>
      </trkpt>
      <trkpt lat="43.6928" lon="1.47943">
        <ele>190.652267</ele>
        <time>2023-07-30T13:39:06.000Z</time>
      </trkpt>
      <trkpt lat="43.6928" lon="1.47943">
        <ele>190.652267</ele>
        <time>2023-07-30T13:39:06.000Z</time>
      </trkpt>
      <trkpt lat="43.6928" lon="1.47935">
        <ele>190.797489</ele>
        <time>2023-07-30T13:39:07.000Z</time>
      </trkpt>
      <trkpt lat="43.6928" lon="1.47927">
        <ele>190.942911</ele>
        <time>2023-07-30T13:39:08.000Z</time>
      </trkpt>
      <trkpt lat="43.69281" lon="1.47919">
        <ele>191.100481</ele>
        <time>2023-07-30T13:39:09.000Z</time>
      </trkpt>
      <trkpt lat="43.69282" lon="1.47912">
        <ele>191.233959</ele>
        <time>2023-07-30T13:39:09.000Z</time>
      </trkpt>
      <trkpt lat="43.69283" lon="1.47903">
        <ele>191.393161</ele>
        <time>2023-07-30T13:39:11.000Z</time>
      </trkpt>
      <trkpt lat="43.69283" lon="1.47903">
        <ele>191.393161</ele>
        <time>2023-07-30T13:39:11.000Z</time>
      </trkpt>
      <trkpt lat="43.69285" lon="1.47897">
        <ele>191.522092</ele>
        <time>2023-07-30T13:39:12.000Z</time>
      </trkpt>
      <trkpt lat="43.69285" lon="1.47897">
        <ele>191.522092</ele>
        <time>2023-07-30T13:39:12.000Z</time>
      </trkpt>
      <trkpt lat="43.69286" lon="1.47891">
        <ele>191.628431</ele>
        <time>2023-07-30T13:39:13.000Z</time>
      </trkpt>
      <trkpt lat="43.69286" lon="1.47891">
        <ele>191.628431</ele>
        <time>2023-07-30T13:39:13.000Z</time>
      </trkpt>
      <trkpt lat="43.69288" lon="1.47887">
        <ele>191.717328</ele>
        <time>2023-07-30T13:39:14.000Z</time>
      </trkpt>
      <trkpt lat="43.69288" lon="1.47887">
        <ele>191.717328</ele>
        <time>2023-07-30T13:39:14.000Z</time>
      </trkpt>
      <trkpt lat="43.6929" lon="1.47883">
        <ele>191.805305</ele>
        <time>2023-07-30T13:39:15.000Z</time>
      </trkpt>
      <trkpt lat="43.6929" lon="1.47883">
        <ele>191.805305</ele>
        <time>2023-07-30T13:39:15.000Z</time>
      </trkpt>
      <trkpt lat="43.69292" lon="1.47878">
        <ele>191.902689</ele>
        <time>2023-07-30T13:39:16.000Z</time>
      </trkpt>
      <trkpt lat="43.69292" lon="1.47878">
        <ele>191.902689</ele>
        <time>2023-07-30T13:39:16.000Z</time>
      </trkpt>
      <trkpt lat="43.69294" lon="1.47874">
        <ele>191.99954</ele>
        <time>2023-07-30T13:39:17.000Z</time>
      </trkpt>
      <trkpt lat="43.69294" lon="1.47874">
        <ele>191.99954</ele>
        <time>2023-07-30T13:39:17.000Z</time>
      </trkpt>
      <trkpt lat="43.69297" lon="1.4787">
        <ele>192.101177</ele>
        <time>2023-07-30T13:39:18.000Z</time>
      </trkpt>
      <trkpt lat="43.69297" lon="1.4787">
        <ele>192.101177</ele>
        <time>2023-07-30T13:39:18.000Z</time>
      </trkpt>
      <trkpt lat="43.69299" lon="1.47867">
        <ele>192.17755</ele>
        <time>2023-07-30T13:39:19.000Z</time>
      </trkpt>
      <trkpt lat="43.69299" lon="1.47867">
        <ele>192.17755</ele>
        <time>2023-07-30T13:39:19.000Z</time>
      </trkpt>
      <trkpt lat="43.69301" lon="1.47863">
        <ele>192.268622</ele>
        <time>2023-07-30T13:39:20.000Z</time>
      </trkpt>
      <trkpt lat="43.69301" lon="1.47863">
        <ele>192.268622</ele>
        <time>2023-07-30T13:39:20.000Z</time>
      </trkpt>
      <trkpt lat="43.69303" lon="1.47859">
        <ele>192.362156</ele>
        <time>2023-07-30T13:39:21.000Z</time>
      </trkpt>
      <trkpt lat="43.69303" lon="1.47859">
        <ele>192.362156</ele>
        <time>2023-07-30T13:39:21.000Z</time>
      </trkpt>
      <trkpt lat="43.69309" lon="1.4785">
        <ele>192.578559</ele>
        <time>2023-07-30T13:39:23.000Z</time>
      </trkpt>
      <trkpt lat="43.69309" lon="1.4785">
        <ele>192.578559</ele>
        <time>2023-07-30T13:39:23.000Z</time>
      </trkpt>
      <trkpt lat="43.69311" lon="1.47845">
        <ele>192.684446</ele>
        <time>2023-07-30T13:39:25.000Z</time>
      </trkpt>
      <trkpt lat="43.69311" lon="1.47845">
        <ele>192.684446</ele>
        <time>2023-07-30T13:39:25.000Z</time>
      </trkpt>
      <trkpt lat="43.69315" lon="1.47837">
        <ele>192.875217</ele>
        <time>2023-07-30T13:39:26.000Z</time>
      </trkpt>
      <trkpt lat="43.69315" lon="1.47837">
        <ele>192.875217</ele>
        <time>2023-07-30T13:39:26.000Z</time>
      </trkpt>
      <trkpt lat="43.69318" lon="1.47833">
        <ele>192.987847</ele>
        <time>2023-07-30T13:39:28.000Z</time>
      </trkpt>
      <trkpt lat="43.69318" lon="1.47833">
        <ele>192.987847</ele>
        <time>2023-07-30T13:39:28.000Z</time>
      </trkpt>
      <trkpt lat="43.69319" lon="1.4783">
        <ele>193.102321</ele>
        <time>2023-07-30T13:39:29.000Z</time>
      </trkpt>
      <trkpt lat="43.69319" lon="1.4783">
        <ele>193.102321</ele>
        <time>2023-07-30T13:39:29.000Z</time>
      </trkpt>
      <trkpt lat="43.69321" lon="1.47825">
        <ele>193.269536</ele>
        <time>2023-07-30T13:39:30.000Z</time>
      </trkpt>
      <trkpt lat="43.69321" lon="1.47825">
        <ele>193.269536</ele>
        <time>2023-07-30T13:39:30.000Z</time>
      </trkpt>
      <trkpt lat="43.69324" lon="1.4782">
        <ele>193.460298</ele>
        <time>2023-07-30T13:39:31.000Z</time>
      </trkpt>
      <trkpt lat="43.69324" lon="1.4782">
        <ele>193.460298</ele>
        <time>2023-07-30T13:39:31.000Z</time>
      </trkpt>
      <trkpt lat="43.69326" lon="1.47814">
        <ele>193.642171</ele>
        <time>2023-07-30T13:39:32.000Z</time>
      </trkpt>
      <trkpt lat="43.69326" lon="1.47814">
        <ele>193.642171</ele>
        <time>2023-07-30T13:39:32.000Z</time>
      </trkpt>
      <trkpt lat="43.69329" lon="1.4781">
        <ele>193.811972</ele>
        <time>2023-07-30T13:39:33.000Z</time>
      </trkpt>
      <trkpt lat="43.69329" lon="1.4781">
        <ele>193.811972</ele>
        <time>2023-07-30T13:39:33.000Z</time>
      </trkpt>
      <trkpt lat="43.69331" lon="1.47805">
        <ele>193.974116</ele>
        <time>2023-07-30T13:39:35.000Z</time>
      </trkpt>
      <trkpt lat="43.69331" lon="1.47805">
        <ele>193.974116</ele>
        <time>2023-07-30T13:39:35.000Z</time>
      </trkpt>
      <trkpt lat="43.69333" lon="1.47802">
        <ele>194.107644</ele>
        <time>2023-07-30T13:39:36.000Z</time>
      </trkpt>
      <trkpt lat="43.69333" lon="1.47802">
        <ele>194.107644</ele>
        <time>2023-07-30T13:39:36.000Z</time>
      </trkpt>
      <trkpt lat="43.69336" lon="1.47797">
        <ele>194.279533</ele>
        <time>2023-07-30T13:39:37.000Z</time>
      </trkpt>
      <trkpt lat="43.69336" lon="1.47797">
        <ele>194.279533</ele>
        <time>2023-07-30T13:39:37.000Z</time>
      </trkpt>
      <trkpt lat="43.69338" lon="1.47792">
        <ele>194.455999</ele>
        <time>2023-07-30T13:39:38.000Z</time>
      </trkpt>
      <trkpt lat="43.69338" lon="1.47792">
        <ele>194.455999</ele>
        <time>2023-07-30T13:39:38.000Z</time>
      </trkpt>
      <trkpt lat="43.69341" lon="1.47788">
        <ele>194.623566</ele>
        <time>2023-07-30T13:39:39.000Z</time>
      </trkpt>
      <trkpt lat="43.69341" lon="1.47788">
        <ele>194.623566</ele>
        <time>2023-07-30T13:39:39.000Z</time>
      </trkpt>
      <trkpt lat="43.69344" lon="1.47784">
        <ele>194.777736</ele>
        <time>2023-07-30T13:39:40.000Z</time>
      </trkpt>
      <trkpt lat="43.69344" lon="1.47784">
        <ele>194.777736</ele>
        <time>2023-07-30T13:39:40.000Z</time>
      </trkpt>
      <trkpt lat="43.69348" lon="1.47783">
        <ele>194.955013</ele>
        <time>2023-07-30T13:39:41.000Z</time>
      </trkpt>
      <trkpt lat="43.69348" lon="1.47783">
        <ele>194.955013</ele>
        <time>2023-07-30T13:39:41.000Z</time>
      </trkpt>
      <trkpt lat="43.69356" lon="1.4778">
        <ele>195.296242</ele>
        <time>2023-07-30T13:39:43.000Z</time>
      </trkpt>
      <trkpt lat="43.69356" lon="1.4778">
        <ele>195.296242</ele>
        <time>2023-07-30T13:39:43.000Z</time>
      </trkpt>
      <trkpt lat="43.6936" lon="1.47779">
        <ele>195.453651</ele>
        <time>2023-07-30T13:39:45.000Z</time>
      </trkpt>
      <trkpt lat="43.69365" lon="1.47778">
        <ele>195.654108</ele>
        <time>2023-07-30T13:39:46.000Z</time>
      </trkpt>
      <trkpt lat="43.69365" lon="1.47778">
        <ele>195.654108</ele>
        <time>2023-07-30T13:39:46.000Z</time>
      </trkpt>
      <trkpt lat="43.69368" lon="1.47778">
        <ele>195.79702</ele>
        <time>2023-07-30T13:39:47.000Z</time>
      </trkpt>
      <trkpt lat="43.69378" lon="1.47778">
        <ele>196.199925</ele>
        <time>2023-07-30T13:39:49.000Z</time>
      </trkpt>
      <trkpt lat="43.69378" lon="1.47778">
        <ele>196.199925</ele>
        <time>2023-07-30T13:39:49.000Z</time>
      </trkpt>
      <trkpt lat="43.69387" lon="1.47778">
        <ele>196.55846</ele>
        <time>2023-07-30T13:39:51.000Z</time>
      </trkpt>
      <trkpt lat="43.69391" lon="1.47778">
        <ele>196.725406</ele>
        <time>2023-07-30T13:39:52.000Z</time>
      </trkpt>
      <trkpt lat="43.69391" lon="1.47778">
        <ele>196.725406</ele>
        <time>2023-07-30T13:39:52.000Z</time>
      </trkpt>
      <trkpt lat="43.69395" lon="1.47778">
        <ele>196.867832</ele>
        <time>2023-07-30T13:39:53.000Z</time>
      </trkpt>
      <trkpt lat="43.694" lon="1.47778">
        <ele>197.067229</ele>
        <time>2023-07-30T13:39:54.000Z</time>
      </trkpt>
      <trkpt lat="43.69408" lon="1.47778">
        <ele>197.425378</ele>
        <time>2023-07-30T13:39:55.000Z</time>
      </trkpt>
      <trkpt lat="43.69408" lon="1.47778">
        <ele>197.425378</ele>
        <time>2023-07-30T13:39:55.000Z</time>
      </trkpt>
      <trkpt lat="43.69412" lon="1.47777">
        <ele>197.580263</ele>
        <time>2023-07-30T13:39:57.000Z</time>
      </trkpt>
      <trkpt lat="43.69417" lon="1.47778">
        <ele>197.767475</ele>
        <time>2023-07-30T13:39:58.000Z</time>
      </trkpt>
      <trkpt lat="43.69426" lon="1.47779">
        <ele>198.155179</ele>
        <time>2023-07-30T13:40:00.000Z</time>
      </trkpt>
      <trkpt lat="43.69426" lon="1.47779">
        <ele>198.155179</ele>
        <time>2023-07-30T13:40:00.000Z</time>
      </trkpt>
      <trkpt lat="43.69434" lon="1.47777">
        <ele>198.471212</ele>
        <time>2023-07-30T13:40:01.000Z</time>
      </trkpt>
      <trkpt lat="43.69434" lon="1.47777">
        <ele>198.471212</ele>
        <time>2023-07-30T13:40:01.000Z</time>
      </trkpt>
      <trkpt lat="43.69438" lon="1.47774">
        <ele>198.647825</ele>
        <time>2023-07-30T13:40:03.000Z</time>
      </trkpt>
      <trkpt lat="43.69438" lon="1.47774">
        <ele>198.647825</ele>
        <time>2023-07-30T13:40:03.000Z</time>
      </trkpt>
      <trkpt lat="43.69441" lon="1.47771">
        <ele>198.802496</ele>
        <time>2023-07-30T13:40:04.000Z</time>
      </trkpt>
      <trkpt lat="43.69446" lon="1.47761">
        <ele>199.172553</ele>
        <time>2023-07-30T13:40:05.000Z</time>
      </trkpt>
      <trkpt lat="43.69446" lon="1.47761">
        <ele>199.172553</ele>
        <time>2023-07-30T13:40:05.000Z</time>
      </trkpt>
      <trkpt lat="43.69448" lon="1.47756">
        <ele>199.330986</ele>
        <time>2023-07-30T13:40:07.000Z</time>
      </trkpt>
      <trkpt lat="43.69448" lon="1.47756">
        <ele>199.330986</ele>
        <time>2023-07-30T13:40:07.000Z</time>
      </trkpt>
      <trkpt lat="43.6945" lon="1.47751">
        <ele>199.486857</ele>
        <time>2023-07-30T13:40:08.000Z</time>
      </trkpt>
      <trkpt lat="43.69455" lon="1.47739">
        <ele>199.902159</ele>
        <time>2023-07-30T13:40:10.000Z</time>
      </trkpt>
      <trkpt lat="43.69455" lon="1.47739">
        <ele>199.902159</ele>
        <time>2023-07-30T13:40:10.000Z</time>
      </trkpt>
      <trkpt lat="43.69456" lon="1.47735">
        <ele>200.039987</ele>
        <time>2023-07-30T13:40:11.000Z</time>
      </trkpt>
      <trkpt lat="43.69456" lon="1.47735">
        <ele>200.039987</ele>
        <time>2023-07-30T13:40:11.000Z</time>
      </trkpt>
      <trkpt lat="43.69458" lon="1.4773">
        <ele>200.191145</ele>
        <time>2023-07-30T13:40:12.000Z</time>
      </trkpt>
      <trkpt lat="43.69463" lon="1.47718">
        <ele>200.580166</ele>
        <time>2023-07-30T13:40:14.000Z</time>
      </trkpt>
      <trkpt lat="43.69463" lon="1.47718">
        <ele>200.580166</ele>
        <time>2023-07-30T13:40:14.000Z</time>
      </trkpt>
      <trkpt lat="43.69465" lon="1.47713">
        <ele>200.735043</ele>
        <time>2023-07-30T13:40:15.000Z</time>
      </trkpt>
      <trkpt lat="43.69465" lon="1.47713">
        <ele>200.735043</ele>
        <time>2023-07-30T13:40:15.000Z</time>
      </trkpt>
      <trkpt lat="43.69466" lon="1.47708">
        <ele>200.86595</ele>
        <time>2023-07-30T13:40:16.000Z</time>
      </trkpt>
      <trkpt lat="43.6947" lon="1.47699">
        <ele>201.150994</ele>
        <time>2023-07-30T13:40:17.000Z</time>
      </trkpt>
      <trkpt lat="43.6947" lon="1.47699">
        <ele>201.150994</ele>
        <time>2023-07-30T13:40:17.000Z</time>
      </trkpt>
      <trkpt lat="43.69472" lon="1.47695">
        <ele>201.286624</ele>
        <time>2023-07-30T13:40:19.000Z</time>
      </trkpt>
      <trkpt lat="43.69472" lon="1.47695">
        <ele>201.286624</ele>
        <time>2023-07-30T13:40:19.000Z</time>
      </trkpt>
      <trkpt lat="43.69476" lon="1.47685">
        <ele>201.609293</ele>
        <time>2023-07-30T13:40:21.000Z</time>
      </trkpt>
      <trkpt lat="43.69476" lon="1.47685">
        <ele>201.609293</ele>
        <time>2023-07-30T13:40:21.000Z</time>
      </trkpt>
      <trkpt lat="43.69478" lon="1.4768">
        <ele>201.756348</ele>
        <time>2023-07-30T13:40:22.000Z</time>
      </trkpt>
      <trkpt lat="43.69478" lon="1.4768">
        <ele>201.756348</ele>
        <time>2023-07-30T13:40:22.000Z</time>
      </trkpt>
      <trkpt lat="43.6948" lon="1.47667">
        <ele>202.12354</ele>
        <time>2023-07-30T13:40:24.000Z</time>
      </trkpt>
      <trkpt lat="43.6948" lon="1.47667">
        <ele>202.12354</ele>
        <time>2023-07-30T13:40:24.000Z</time>
      </trkpt>
      <trkpt lat="43.69481" lon="1.47661">
        <ele>202.307482</ele>
        <time>2023-07-30T13:40:25.000Z</time>
      </trkpt>
      <trkpt lat="43.69481" lon="1.47661">
        <ele>202.307482</ele>
        <time>2023-07-30T13:40:25.000Z</time>
      </trkpt>
      <trkpt lat="43.69484" lon="1.47648">
        <ele>202.663802</ele>
        <time>2023-07-30T13:40:27.000Z</time>
      </trkpt>
      <trkpt lat="43.69484" lon="1.47648">
        <ele>202.663802</ele>
        <time>2023-07-30T13:40:27.000Z</time>
      </trkpt>
      <trkpt lat="43.69485" lon="1.47644">
        <ele>202.801866</ele>
        <time>2023-07-30T13:40:28.000Z</time>
      </trkpt>
      <trkpt lat="43.69485" lon="1.47644">
        <ele>202.801866</ele>
        <time>2023-07-30T13:40:28.000Z</time>
      </trkpt>
      <trkpt lat="43.69486" lon="1.47638">
        <ele>202.955692</ele>
        <time>2023-07-30T13:40:28.000Z</time>
      </trkpt>
      <trkpt lat="43.69486" lon="1.47638">
        <ele>202.955692</ele>
        <time>2023-07-30T13:40:28.000Z</time>
      </trkpt>
      <trkpt lat="43.69487" lon="1.47628">
        <ele>203.241093</ele>
        <time>2023-07-30T13:40:31.000Z</time>
      </trkpt>
      <trkpt lat="43.69487" lon="1.47628">
        <ele>203.241093</ele>
        <time>2023-07-30T13:40:31.000Z</time>
      </trkpt>
      <trkpt lat="43.69489" lon="1.47619">
        <ele>203.494336</ele>
        <time>2023-07-30T13:40:33.000Z</time>
      </trkpt>
      <trkpt lat="43.69489" lon="1.47619">
        <ele>203.494336</ele>
        <time>2023-07-30T13:40:33.000Z</time>
      </trkpt>
      <trkpt lat="43.69489" lon="1.47616">
        <ele>203.580677</ele>
        <time>2023-07-30T13:40:34.000Z</time>
      </trkpt>
      <trkpt lat="43.6949" lon="1.47605">
        <ele>203.882217</ele>
        <time>2023-07-30T13:40:36.000Z</time>
      </trkpt>
      <trkpt lat="43.6949" lon="1.47605">
        <ele>203.882217</ele>
        <time>2023-07-30T13:40:36.000Z</time>
      </trkpt>
      <trkpt lat="43.69491" lon="1.47602">
        <ele>203.980254</ele>
        <time>2023-07-30T13:40:37.000Z</time>
      </trkpt>
      <trkpt lat="43.69491" lon="1.47602">
        <ele>203.980254</ele>
        <time>2023-07-30T13:40:37.000Z</time>
      </trkpt>
      <trkpt lat="43.69492" lon="1.47598">
        <ele>204.091408</ele>
        <time>2023-07-30T13:40:38.000Z</time>
      </trkpt>
      <trkpt lat="43.69492" lon="1.47598">
        <ele>204.091408</ele>
        <time>2023-07-30T13:40:38.000Z</time>
      </trkpt>
      <trkpt lat="43.69493" lon="1.47593">
        <ele>204.229472</ele>
        <time>2023-07-30T13:40:39.000Z</time>
      </trkpt>
      <trkpt lat="43.69493" lon="1.47593">
        <ele>204.229472</ele>
        <time>2023-07-30T13:40:39.000Z</time>
      </trkpt>
      <trkpt lat="43.69498" lon="1.47578">
        <ele>204.679865</ele>
        <time>2023-07-30T13:40:41.000Z</time>
      </trkpt>
      <trkpt lat="43.69498" lon="1.47578">
        <ele>204.679865</ele>
        <time>2023-07-30T13:40:41.000Z</time>
      </trkpt>
      <trkpt lat="43.69501" lon="1.47573">
        <ele>204.842354</ele>
        <time>2023-07-30T13:40:42.000Z</time>
      </trkpt>
      <trkpt lat="43.69501" lon="1.47573">
        <ele>204.842354</ele>
        <time>2023-07-30T13:40:42.000Z</time>
      </trkpt>
      <trkpt lat="43.69503" lon="1.47568">
        <ele>205.013464</ele>
        <time>2023-07-30T13:40:43.000Z</time>
      </trkpt>
      <trkpt lat="43.69507" lon="1.47562">
        <ele>205.234238</ele>
        <time>2023-07-30T13:40:44.000Z</time>
      </trkpt>
      <trkpt lat="43.69507" lon="1.47562">
        <ele>205.234238</ele>
        <time>2023-07-30T13:40:44.000Z</time>
      </trkpt>
      <trkpt lat="43.69511" lon="1.47556">
        <ele>205.444815</ele>
        <time>2023-07-30T13:40:45.000Z</time>
      </trkpt>
      <trkpt lat="43.69514" lon="1.47552">
        <ele>205.615238</ele>
        <time>2023-07-30T13:40:46.000Z</time>
      </trkpt>
      <trkpt lat="43.69514" lon="1.47552">
        <ele>205.615238</ele>
        <time>2023-07-30T13:40:46.000Z</time>
      </trkpt>
      <trkpt lat="43.69518" lon="1.47545">
        <ele>205.862546</ele>
        <time>2023-07-30T13:40:48.000Z</time>
      </trkpt>
      <trkpt lat="43.69518" lon="1.47545">
        <ele>205.862546</ele>
        <time>2023-07-30T13:40:48.000Z</time>
      </trkpt>
      <trkpt lat="43.69521" lon="1.47541">
        <ele>206.016642</ele>
        <time>2023-07-30T13:40:49.000Z</time>
      </trkpt>
      <trkpt lat="43.69524" lon="1.47536">
        <ele>206.188544</ele>
        <time>2023-07-30T13:40:50.000Z</time>
      </trkpt>
      <trkpt lat="43.69524" lon="1.47536">
        <ele>206.188544</ele>
        <time>2023-07-30T13:40:50.000Z</time>
      </trkpt>
      <trkpt lat="43.6953" lon="1.47527">
        <ele>206.512493</ele>
        <time>2023-07-30T13:40:51.000Z</time>
      </trkpt>
      <trkpt lat="43.6953" lon="1.47527">
        <ele>206.512493</ele>
        <time>2023-07-30T13:40:51.000Z</time>
      </trkpt>
      <trkpt lat="43.69533" lon="1.47523">
        <ele>206.673269</ele>
        <time>2023-07-30T13:40:53.000Z</time>
      </trkpt>
      <trkpt lat="43.69533" lon="1.47523">
        <ele>206.673269</ele>
        <time>2023-07-30T13:40:53.000Z</time>
      </trkpt>
      <trkpt lat="43.69538" lon="1.47516">
        <ele>206.958865</ele>
        <time>2023-07-30T13:40:55.000Z</time>
      </trkpt>
      <trkpt lat="43.69538" lon="1.47516">
        <ele>206.958865</ele>
        <time>2023-07-30T13:40:55.000Z</time>
      </trkpt>
      <trkpt lat="43.6954" lon="1.47514">
        <ele>207.06046</ele>
        <time>2023-07-30T13:40:56.000Z</time>
      </trkpt>
      <trkpt lat="43.6954" lon="1.47514">
        <ele>207.06046</ele>
        <time>2023-07-30T13:40:56.000Z</time>
      </trkpt>
      <trkpt lat="43.69542" lon="1.47513">
        <ele>207.112118</ele>
        <time>2023-07-30T13:40:57.000Z</time>
      </trkpt>
      <trkpt lat="43.69542" lon="1.47513">
        <ele>207.112118</ele>
        <time>2023-07-30T13:40:57.000Z</time>
      </trkpt>
      <trkpt lat="43.69544" lon="1.47514">
        <ele>207.156873</ele>
        <time>2023-07-30T13:40:58.000Z</time>
      </trkpt>
      <trkpt lat="43.69544" lon="1.47514">
        <ele>207.156873</ele>
        <time>2023-07-30T13:40:58.000Z</time>
      </trkpt>
      <trkpt lat="43.6955" lon="1.47518">
        <ele>207.293262</ele>
        <time>2023-07-30T13:40:59.000Z</time>
      </trkpt>
      <trkpt lat="43.6955" lon="1.47518">
        <ele>207.293262</ele>
        <time>2023-07-30T13:40:59.000Z</time>
      </trkpt>
      <trkpt lat="43.69552" lon="1.47521">
        <ele>207.362974</ele>
        <time>2023-07-30T13:41:01.000Z</time>
      </trkpt>
      <trkpt lat="43.69556" lon="1.47525">
        <ele>207.459956</ele>
        <time>2023-07-30T13:41:02.000Z</time>
      </trkpt>
      <trkpt lat="43.69556" lon="1.47525">
        <ele>207.459956</ele>
        <time>2023-07-30T13:41:02.000Z</time>
      </trkpt>
      <trkpt lat="43.69568" lon="1.47537">
        <ele>207.786207</ele>
        <time>2023-07-30T13:41:04.000Z</time>
      </trkpt>
      <trkpt lat="43.69571" lon="1.47541">
        <ele>207.880182</ele>
        <time>2023-07-30T13:41:06.000Z</time>
      </trkpt>
      <trkpt lat="43.69571" lon="1.47541">
        <ele>207.880182</ele>
        <time>2023-07-30T13:41:06.000Z</time>
      </trkpt>
      <trkpt lat="43.69576" lon="1.47551">
        <ele>208.078094</ele>
        <time>2023-07-30T13:41:07.000Z</time>
      </trkpt>
      <trkpt lat="43.69578" lon="1.47556">
        <ele>208.165732</ele>
        <time>2023-07-30T13:41:09.000Z</time>
      </trkpt>
      <trkpt lat="43.69579" lon="1.47561">
        <ele>208.251897</ele>
        <time>2023-07-30T13:41:10.000Z</time>
      </trkpt>
      <trkpt lat="43.6958" lon="1.47568">
        <ele>208.366273</ele>
        <time>2023-07-30T13:41:11.000Z</time>
      </trkpt>
      <trkpt lat="43.6958" lon="1.47568">
        <ele>208.366273</ele>
        <time>2023-07-30T13:41:11.000Z</time>
      </trkpt>
      <trkpt lat="43.69581" lon="1.47575">
        <ele>208.48185</ele>
        <time>2023-07-30T13:41:12.000Z</time>
      </trkpt>
      <trkpt lat="43.69582" lon="1.47583">
        <ele>208.610341</ele>
        <time>2023-07-30T13:41:13.000Z</time>
      </trkpt>
      <trkpt lat="43.69582" lon="1.47583">
        <ele>208.610341</ele>
        <time>2023-07-30T13:41:13.000Z</time>
      </trkpt>
      <trkpt lat="43.69584" lon="1.47591">
        <ele>208.736835</ele>
        <time>2023-07-30T13:41:14.000Z</time>
      </trkpt>
      <trkpt lat="43.69585" lon="1.476">
        <ele>208.88913</ele>
        <time>2023-07-30T13:41:15.000Z</time>
      </trkpt>
      <trkpt lat="43.69585" lon="1.476">
        <ele>208.88913</ele>
        <time>2023-07-30T13:41:15.000Z</time>
      </trkpt>
      <trkpt lat="43.69587" lon="1.47606">
        <ele>209.002204</ele>
        <time>2023-07-30T13:41:16.000Z</time>
      </trkpt>
      <trkpt lat="43.69589" lon="1.47613">
        <ele>209.116759</ele>
        <time>2023-07-30T13:41:17.000Z</time>
      </trkpt>
      <trkpt lat="43.69589" lon="1.47613">
        <ele>209.116759</ele>
        <time>2023-07-30T13:41:17.000Z</time>
      </trkpt>
      <trkpt lat="43.69592" lon="1.4762">
        <ele>209.244449</ele>
        <time>2023-07-30T13:41:18.000Z</time>
      </trkpt>
      <trkpt lat="43.69595" lon="1.47627">
        <ele>209.362393</ele>
        <time>2023-07-30T13:41:19.000Z</time>
      </trkpt>
      <trkpt lat="43.69597" lon="1.47634">
        <ele>209.486242</ele>
        <time>2023-07-30T13:41:20.000Z</time>
      </trkpt>
      <trkpt lat="43.69597" lon="1.47634">
        <ele>209.486242</ele>
        <time>2023-07-30T13:41:20.000Z</time>
      </trkpt>
      <trkpt lat="43.696" lon="1.4764">
        <ele>209.608333</ele>
        <time>2023-07-30T13:41:21.000Z</time>
      </trkpt>
      <trkpt lat="43.69602" lon="1.47647">
        <ele>209.724952</ele>
        <time>2023-07-30T13:41:22.000Z</time>
      </trkpt>
      <trkpt lat="43.69605" lon="1.47654">
        <ele>209.847043</ele>
        <time>2023-07-30T13:41:23.000Z</time>
      </trkpt>
      <trkpt lat="43.69605" lon="1.47654">
        <ele>209.847043</ele>
        <time>2023-07-30T13:41:23.000Z</time>
      </trkpt>
      <trkpt lat="43.69608" lon="1.4766">
        <ele>209.969482</ele>
        <time>2023-07-30T13:41:24.000Z</time>
      </trkpt>
      <trkpt lat="43.6961" lon="1.47667">
        <ele>210.091574</ele>
        <time>2023-07-30T13:41:25.000Z</time>
      </trkpt>
      <trkpt lat="43.6961" lon="1.47667">
        <ele>210.091574</ele>
        <time>2023-07-30T13:41:25.000Z</time>
      </trkpt>
      <trkpt lat="43.69613" lon="1.47673">
        <ele>210.204063</ele>
        <time>2023-07-30T13:41:26.000Z</time>
      </trkpt>
      <trkpt lat="43.69616" lon="1.4768">
        <ele>210.327547</ele>
        <time>2023-07-30T13:41:27.000Z</time>
      </trkpt>
      <trkpt lat="43.69616" lon="1.4768">
        <ele>210.327547</ele>
        <time>2023-07-30T13:41:27.000Z</time>
      </trkpt>
      <trkpt lat="43.69619" lon="1.47687">
        <ele>210.454342</ele>
        <time>2023-07-30T13:41:28.000Z</time>
      </trkpt>
      <trkpt lat="43.69621" lon="1.47693">
        <ele>210.569547</ele>
        <time>2023-07-30T13:41:29.000Z</time>
      </trkpt>
      <trkpt lat="43.69624" lon="1.47699">
        <ele>210.683631</ele>
        <time>2023-07-30T13:41:29.000Z</time>
      </trkpt>
      <trkpt lat="43.69624" lon="1.47699">
        <ele>210.683631</ele>
        <time>2023-07-30T13:41:29.000Z</time>
      </trkpt>
      <trkpt lat="43.69626" lon="1.47705">
        <ele>210.79739</ele>
        <time>2023-07-30T13:41:31.000Z</time>
      </trkpt>
      <trkpt lat="43.69629" lon="1.47711">
        <ele>210.905485</ele>
        <time>2023-07-30T13:41:31.000Z</time>
      </trkpt>
      <trkpt lat="43.69629" lon="1.47711">
        <ele>210.905485</ele>
        <time>2023-07-30T13:41:31.000Z</time>
      </trkpt>
      <trkpt lat="43.69631" lon="1.47718">
        <ele>211.023428</ele>
        <time>2023-07-30T13:41:33.000Z</time>
      </trkpt>
      <trkpt lat="43.69634" lon="1.47723">
        <ele>211.029148</ele>
        <time>2023-07-30T13:41:34.000Z</time>
      </trkpt>
      <trkpt lat="43.69634" lon="1.47723">
        <ele>211.029148</ele>
        <time>2023-07-30T13:41:34.000Z</time>
      </trkpt>
      <trkpt lat="43.69636" lon="1.47729">
        <ele>211.0185</ele>
        <time>2023-07-30T13:41:35.000Z</time>
      </trkpt>
      <trkpt lat="43.69636" lon="1.47729">
        <ele>211.0185</ele>
        <time>2023-07-30T13:41:35.000Z</time>
      </trkpt>
      <trkpt lat="43.69638" lon="1.47734">
        <ele>211.008689</ele>
        <time>2023-07-30T13:41:36.000Z</time>
      </trkpt>
      <trkpt lat="43.6964" lon="1.47739">
        <ele>211.000022</ele>
        <time>2023-07-30T13:41:37.000Z</time>
      </trkpt>
      <trkpt lat="43.6964" lon="1.47739">
        <ele>211.000022</ele>
        <time>2023-07-30T13:41:37.000Z</time>
      </trkpt>
      <trkpt lat="43.69641" lon="1.47744">
        <ele>210.992223</ele>
        <time>2023-07-30T13:41:38.000Z</time>
      </trkpt>
      <trkpt lat="43.69641" lon="1.47744">
        <ele>210.992223</ele>
        <time>2023-07-30T13:41:38.000Z</time>
      </trkpt>
      <trkpt lat="43.69642" lon="1.47748">
        <ele>210.985233</ele>
        <time>2023-07-30T13:41:39.000Z</time>
      </trkpt>
      <trkpt lat="43.69642" lon="1.47748">
        <ele>210.985233</ele>
        <time>2023-07-30T13:41:39.000Z</time>
      </trkpt>
      <trkpt lat="43.69642" lon="1.47751">
        <ele>210.980323</ele>
        <time>2023-07-30T13:41:40.000Z</time>
      </trkpt>
      <trkpt lat="43.69643" lon="1.47754">
        <ele>210.974327</ele>
        <time>2023-07-30T13:41:41.000Z</time>
      </trkpt>
      <trkpt lat="43.69645" lon="1.47757">
        <ele>210.968769</ele>
        <time>2023-07-30T13:41:42.000Z</time>
      </trkpt>
      <trkpt lat="43.69645" lon="1.47758">
        <ele>210.966787</ele>
        <time>2023-07-30T13:41:43.000Z</time>
      </trkpt>
      <trkpt lat="43.69648" lon="1.47761">
        <ele>210.959177</ele>
        <time>2023-07-30T13:41:44.000Z</time>
      </trkpt>
      <trkpt lat="43.69651" lon="1.47765">
        <ele>210.950166</ele>
        <time>2023-07-30T13:41:45.000Z</time>
      </trkpt>
      <trkpt lat="43.69658" lon="1.47774">
        <ele>210.929213</ele>
        <time>2023-07-30T13:41:47.000Z</time>
      </trkpt>
      <trkpt lat="43.6966" lon="1.47777">
        <ele>210.921085</ele>
        <time>2023-07-30T13:41:48.000Z</time>
      </trkpt>
      <trkpt lat="43.69663" lon="1.47782">
        <ele>210.911582</ele>
        <time>2023-07-30T13:41:49.000Z</time>
      </trkpt>
      <trkpt lat="43.69663" lon="1.47782">
        <ele>210.911582</ele>
        <time>2023-07-30T13:41:49.000Z</time>
      </trkpt>
      <trkpt lat="43.69667" lon="1.47787">
        <ele>210.899744</ele>
        <time>2023-07-30T13:41:50.000Z</time>
      </trkpt>
      <trkpt lat="43.69667" lon="1.47787">
        <ele>210.899744</ele>
        <time>2023-07-30T13:41:50.000Z</time>
      </trkpt>
      <trkpt lat="43.69671" lon="1.47792">
        <ele>210.88773</ele>
        <time>2023-07-30T13:41:50.000Z</time>
      </trkpt>
      <trkpt lat="43.69676" lon="1.47798">
        <ele>210.873477</ele>
        <time>2023-07-30T13:41:52.000Z</time>
      </trkpt>
      <trkpt lat="43.69676" lon="1.47798">
        <ele>210.873477</ele>
        <time>2023-07-30T13:41:52.000Z</time>
      </trkpt>
      <trkpt lat="43.6968" lon="1.47802">
        <ele>210.86234</ele>
        <time>2023-07-30T13:41:52.000Z</time>
      </trkpt>
      <trkpt lat="43.69684" lon="1.47807">
        <ele>210.850108</ele>
        <time>2023-07-30T13:41:53.000Z</time>
      </trkpt>
      <trkpt lat="43.69688" lon="1.47812">
        <ele>210.838182</ele>
        <time>2023-07-30T13:41:54.000Z</time>
      </trkpt>
      <trkpt lat="43.69692" lon="1.47816">
        <ele>210.826255</ele>
        <time>2023-07-30T13:41:55.000Z</time>
      </trkpt>
      <trkpt lat="43.69696" lon="1.4782">
        <ele>210.815526</ele>
        <time>2023-07-30T13:41:56.000Z</time>
      </trkpt>
      <trkpt lat="43.69701" lon="1.47824">
        <ele>210.803515</ele>
        <time>2023-07-30T13:41:57.000Z</time>
      </trkpt>
      <trkpt lat="43.69711" lon="1.47831">
        <ele>210.779187</ele>
        <time>2023-07-30T13:41:59.000Z</time>
      </trkpt>
      <trkpt lat="43.69711" lon="1.47831">
        <ele>210.779187</ele>
        <time>2023-07-30T13:41:59.000Z</time>
      </trkpt>
      <trkpt lat="43.69716" lon="1.47833">
        <ele>210.767117</ele>
        <time>2023-07-30T13:42:00.000Z</time>
      </trkpt>
      <trkpt lat="43.69727" lon="1.47838">
        <ele>210.740494</ele>
        <time>2023-07-30T13:42:02.000Z</time>
      </trkpt>
      <trkpt lat="43.69727" lon="1.47838">
        <ele>210.740494</ele>
        <time>2023-07-30T13:42:02.000Z</time>
      </trkpt>
      <trkpt lat="43.69733" lon="1.4784">
        <ele>210.727461</ele>
        <time>2023-07-30T13:42:03.000Z</time>
      </trkpt>
      <trkpt lat="43.69745" lon="1.47839">
        <ele>210.699411</ele>
        <time>2023-07-30T13:42:05.000Z</time>
      </trkpt>
      <trkpt lat="43.69751" lon="1.47839">
        <ele>210.685797</ele>
        <time>2023-07-30T13:42:06.000Z</time>
      </trkpt>
      <trkpt lat="43.69759" lon="1.47838">
        <ele>210.669652</ele>
        <time>2023-07-30T13:42:07.000Z</time>
      </trkpt>
      <trkpt lat="43.69759" lon="1.47838">
        <ele>210.669652</ele>
        <time>2023-07-30T13:42:07.000Z</time>
      </trkpt>
      <trkpt lat="43.69766" lon="1.47836">
        <ele>210.654077</ele>
        <time>2023-07-30T13:42:08.000Z</time>
      </trkpt>
      <trkpt lat="43.69766" lon="1.47836">
        <ele>210.654077</ele>
        <time>2023-07-30T13:42:08.000Z</time>
      </trkpt>
      <trkpt lat="43.69772" lon="1.47834">
        <ele>210.63932</ele>
        <time>2023-07-30T13:42:09.000Z</time>
      </trkpt>
      <trkpt lat="43.69772" lon="1.47834">
        <ele>210.63932</ele>
        <time>2023-07-30T13:42:09.000Z</time>
      </trkpt>
      <trkpt lat="43.69786" lon="1.47829">
        <ele>210.093146</ele>
        <time>2023-07-30T13:42:11.000Z</time>
      </trkpt>
      <trkpt lat="43.69792" lon="1.47827">
        <ele>209.857579</ele>
        <time>2023-07-30T13:42:12.000Z</time>
      </trkpt>
      <trkpt lat="43.69792" lon="1.47827">
        <ele>209.857579</ele>
        <time>2023-07-30T13:42:12.000Z</time>
      </trkpt>
      <trkpt lat="43.69799" lon="1.47824">
        <ele>209.544794</ele>
        <time>2023-07-30T13:42:13.000Z</time>
      </trkpt>
      <trkpt lat="43.69799" lon="1.47824">
        <ele>209.544794</ele>
        <time>2023-07-30T13:42:13.000Z</time>
      </trkpt>
      <trkpt lat="43.69806" lon="1.47822">
        <ele>209.261069</ele>
        <time>2023-07-30T13:42:14.000Z</time>
      </trkpt>
      <trkpt lat="43.69806" lon="1.47822">
        <ele>209.261069</ele>
        <time>2023-07-30T13:42:14.000Z</time>
      </trkpt>
      <trkpt lat="43.69813" lon="1.47819">
        <ele>208.974961</ele>
        <time>2023-07-30T13:42:15.000Z</time>
      </trkpt>
      <trkpt lat="43.69813" lon="1.47819">
        <ele>208.974961</ele>
        <time>2023-07-30T13:42:15.000Z</time>
      </trkpt>
      <trkpt lat="43.69819" lon="1.47816">
        <ele>208.721721</ele>
        <time>2023-07-30T13:42:16.000Z</time>
      </trkpt>
      <trkpt lat="43.69819" lon="1.47816">
        <ele>208.721721</ele>
        <time>2023-07-30T13:42:16.000Z</time>
      </trkpt>
      <trkpt lat="43.69825" lon="1.47814">
        <ele>208.501344</ele>
        <time>2023-07-30T13:42:17.000Z</time>
      </trkpt>
      <trkpt lat="43.69825" lon="1.47814">
        <ele>208.501344</ele>
        <time>2023-07-30T13:42:17.000Z</time>
      </trkpt>
      <trkpt lat="43.69832" lon="1.47811">
        <ele>208.215236</ele>
        <time>2023-07-30T13:42:18.000Z</time>
      </trkpt>
      <trkpt lat="43.69832" lon="1.47811">
        <ele>208.215236</ele>
        <time>2023-07-30T13:42:18.000Z</time>
      </trkpt>
      <trkpt lat="43.69838" lon="1.47808">
        <ele>207.963626</ele>
        <time>2023-07-30T13:42:19.000Z</time>
      </trkpt>
      <trkpt lat="43.69838" lon="1.47808">
        <ele>207.963626</ele>
        <time>2023-07-30T13:42:19.000Z</time>
      </trkpt>
      <trkpt lat="43.69844" lon="1.47806">
        <ele>207.713524</ele>
        <time>2023-07-30T13:42:20.000Z</time>
      </trkpt>
      <trkpt lat="43.69844" lon="1.47806">
        <ele>207.713524</ele>
        <time>2023-07-30T13:42:20.000Z</time>
      </trkpt>
      <trkpt lat="43.69851" lon="1.47803">
        <ele>207.40074</ele>
        <time>2023-07-30T13:42:21.000Z</time>
      </trkpt>
      <trkpt lat="43.69851" lon="1.47803">
        <ele>207.40074</ele>
        <time>2023-07-30T13:42:21.000Z</time>
      </trkpt>
      <trkpt lat="43.69859" lon="1.47801">
        <ele>207.089433</ele>
        <time>2023-07-30T13:42:22.000Z</time>
      </trkpt>
      <trkpt lat="43.69859" lon="1.47801">
        <ele>207.089433</ele>
        <time>2023-07-30T13:42:22.000Z</time>
      </trkpt>
      <trkpt lat="43.69867" lon="1.47797">
        <ele>206.766036</ele>
        <time>2023-07-30T13:42:23.000Z</time>
      </trkpt>
      <trkpt lat="43.69867" lon="1.47797">
        <ele>206.766036</ele>
        <time>2023-07-30T13:42:23.000Z</time>
      </trkpt>
      <trkpt lat="43.69875" lon="1.47791">
        <ele>206.389637</ele>
        <time>2023-07-30T13:42:24.000Z</time>
      </trkpt>
      <trkpt lat="43.69875" lon="1.47791">
        <ele>206.389637</ele>
        <time>2023-07-30T13:42:24.000Z</time>
      </trkpt>
      <trkpt lat="43.69883" lon="1.47783">
        <ele>205.988243</ele>
        <time>2023-07-30T13:42:25.000Z</time>
      </trkpt>
      <trkpt lat="43.69883" lon="1.47783">
        <ele>205.988243</ele>
        <time>2023-07-30T13:42:25.000Z</time>
      </trkpt>
      <trkpt lat="43.69891" lon="1.47775">
        <ele>205.614548</ele>
        <time>2023-07-30T13:42:26.000Z</time>
      </trkpt>
      <trkpt lat="43.69891" lon="1.47775">
        <ele>205.614548</ele>
        <time>2023-07-30T13:42:26.000Z</time>
      </trkpt>
      <trkpt lat="43.69898" lon="1.47765">
        <ele>205.219772</ele>
        <time>2023-07-30T13:42:27.000Z</time>
      </trkpt>
      <trkpt lat="43.69898" lon="1.47765">
        <ele>205.219772</ele>
        <time>2023-07-30T13:42:27.000Z</time>
      </trkpt>
      <trkpt lat="43.69905" lon="1.47756">
        <ele>204.835539</ele>
        <time>2023-07-30T13:42:28.000Z</time>
      </trkpt>
      <trkpt lat="43.69905" lon="1.47756">
        <ele>204.835539</ele>
        <time>2023-07-30T13:42:28.000Z</time>
      </trkpt>
      <trkpt lat="43.69911" lon="1.47747">
        <ele>204.470652</ele>
        <time>2023-07-30T13:42:29.000Z</time>
      </trkpt>
      <trkpt lat="43.69911" lon="1.47747">
        <ele>204.470652</ele>
        <time>2023-07-30T13:42:29.000Z</time>
      </trkpt>
      <trkpt lat="43.69917" lon="1.47738">
        <ele>204.127125</ele>
        <time>2023-07-30T13:42:30.000Z</time>
      </trkpt>
      <trkpt lat="43.69917" lon="1.47738">
        <ele>204.127125</ele>
        <time>2023-07-30T13:42:30.000Z</time>
      </trkpt>
      <trkpt lat="43.69923" lon="1.47729">
        <ele>203.777439</ele>
        <time>2023-07-30T13:42:31.000Z</time>
      </trkpt>
      <trkpt lat="43.69923" lon="1.47729">
        <ele>203.777439</ele>
        <time>2023-07-30T13:42:31.000Z</time>
      </trkpt>
      <trkpt lat="43.69936" lon="1.47711">
        <ele>203.082005</ele>
        <time>2023-07-30T13:42:33.000Z</time>
      </trkpt>
      <trkpt lat="43.69936" lon="1.47711">
        <ele>203.082005</ele>
        <time>2023-07-30T13:42:33.000Z</time>
      </trkpt>
      <trkpt lat="43.69943" lon="1.47702">
        <ele>202.71408</ele>
        <time>2023-07-30T13:42:34.000Z</time>
      </trkpt>
      <trkpt lat="43.69943" lon="1.47702">
        <ele>202.71408</ele>
        <time>2023-07-30T13:42:34.000Z</time>
      </trkpt>
      <trkpt lat="43.6995" lon="1.47693">
        <ele>202.35648</ele>
        <time>2023-07-30T13:42:35.000Z</time>
      </trkpt>
      <trkpt lat="43.6995" lon="1.47693">
        <ele>202.35648</ele>
        <time>2023-07-30T13:42:35.000Z</time>
      </trkpt>
      <trkpt lat="43.69957" lon="1.47684">
        <ele>201.999934</ele>
        <time>2023-07-30T13:42:36.000Z</time>
      </trkpt>
      <trkpt lat="43.69957" lon="1.47684">
        <ele>201.999934</ele>
        <time>2023-07-30T13:42:36.000Z</time>
      </trkpt>
      <trkpt lat="43.69961" lon="1.47678">
        <ele>201.762237</ele>
        <time>2023-07-30T13:42:37.000Z</time>
      </trkpt>
      <trkpt lat="43.69961" lon="1.47678">
        <ele>201.762237</ele>
        <time>2023-07-30T13:42:37.000Z</time>
      </trkpt>
      <trkpt lat="43.69972" lon="1.47664">
        <ele>201.224209</ele>
        <time>2023-07-30T13:42:38.000Z</time>
      </trkpt>
      <trkpt lat="43.69972" lon="1.47664">
        <ele>201.224209</ele>
        <time>2023-07-30T13:42:38.000Z</time>
      </trkpt>
      <trkpt lat="43.69979" lon="1.47655">
        <ele>200.85294</ele>
        <time>2023-07-30T13:42:39.000Z</time>
      </trkpt>
      <trkpt lat="43.69979" lon="1.47655">
        <ele>200.85294</ele>
        <time>2023-07-30T13:42:39.000Z</time>
      </trkpt>
      <trkpt lat="43.69987" lon="1.47646">
        <ele>200.468676</ele>
        <time>2023-07-30T13:42:40.000Z</time>
      </trkpt>
      <trkpt lat="43.69987" lon="1.47646">
        <ele>200.468676</ele>
        <time>2023-07-30T13:42:40.000Z</time>
      </trkpt>
      <trkpt lat="43.69995" lon="1.47639">
        <ele>200.105351</ele>
        <time>2023-07-30T13:42:41.000Z</time>
      </trkpt>
      <trkpt lat="43.70003" lon="1.47633">
        <ele>199.761927</ele>
        <time>2023-07-30T13:42:42.000Z</time>
      </trkpt>
      <trkpt lat="43.70012" lon="1.47628">
        <ele>199.389318</ele>
        <time>2023-07-30T13:42:43.000Z</time>
      </trkpt>
      <trkpt lat="43.70012" lon="1.47628">
        <ele>199.389318</ele>
        <time>2023-07-30T13:42:43.000Z</time>
      </trkpt>
      <trkpt lat="43.70021" lon="1.47624">
        <ele>199.032738</ele>
        <time>2023-07-30T13:42:44.000Z</time>
      </trkpt>
      <trkpt lat="43.70021" lon="1.47624">
        <ele>199.032738</ele>
        <time>2023-07-30T13:42:44.000Z</time>
      </trkpt>
      <trkpt lat="43.7003" lon="1.47621">
        <ele>198.70972</ele>
        <time>2023-07-30T13:42:45.000Z</time>
      </trkpt>
      <trkpt lat="43.7003" lon="1.47621">
        <ele>198.70972</ele>
        <time>2023-07-30T13:42:45.000Z</time>
      </trkpt>
      <trkpt lat="43.70039" lon="1.4762">
        <ele>198.361131</ele>
        <time>2023-07-30T13:42:46.000Z</time>
      </trkpt>
      <trkpt lat="43.70048" lon="1.4762">
        <ele>198.019013</ele>
        <time>2023-07-30T13:42:47.000Z</time>
      </trkpt>
      <trkpt lat="43.70048" lon="1.4762">
        <ele>198.019013</ele>
        <time>2023-07-30T13:42:47.000Z</time>
      </trkpt>
      <trkpt lat="43.70057" lon="1.4762">
        <ele>197.687638</ele>
        <time>2023-07-30T13:42:48.000Z</time>
      </trkpt>
      <trkpt lat="43.70057" lon="1.4762">
        <ele>197.687638</ele>
        <time>2023-07-30T13:42:48.000Z</time>
      </trkpt>
      <trkpt lat="43.70065" lon="1.47622">
        <ele>197.369877</ele>
        <time>2023-07-30T13:42:49.000Z</time>
      </trkpt>
      <trkpt lat="43.70065" lon="1.47622">
        <ele>197.369877</ele>
        <time>2023-07-30T13:42:49.000Z</time>
      </trkpt>
      <trkpt lat="43.70074" lon="1.47624">
        <ele>197.035451</ele>
        <time>2023-07-30T13:42:50.000Z</time>
      </trkpt>
      <trkpt lat="43.70074" lon="1.47624">
        <ele>197.035451</ele>
        <time>2023-07-30T13:42:50.000Z</time>
      </trkpt>
      <trkpt lat="43.70082" lon="1.47625">
        <ele>196.738726</ele>
        <time>2023-07-30T13:42:51.000Z</time>
      </trkpt>
      <trkpt lat="43.70082" lon="1.47625">
        <ele>196.738726</ele>
        <time>2023-07-30T13:42:51.000Z</time>
      </trkpt>
      <trkpt lat="43.7009" lon="1.47627">
        <ele>196.701634</ele>
        <time>2023-07-30T13:42:52.000Z</time>
      </trkpt>
      <trkpt lat="43.7009" lon="1.47627">
        <ele>196.701634</ele>
        <time>2023-07-30T13:42:52.000Z</time>
      </trkpt>
      <trkpt lat="43.70099" lon="1.47629">
        <ele>196.659066</ele>
        <time>2023-07-30T13:42:53.000Z</time>
      </trkpt>
      <trkpt lat="43.70099" lon="1.47629">
        <ele>196.659066</ele>
        <time>2023-07-30T13:42:53.000Z</time>
      </trkpt>
      <trkpt lat="43.70107" lon="1.4763">
        <ele>196.625879</ele>
        <time>2023-07-30T13:42:54.000Z</time>
      </trkpt>
      <trkpt lat="43.70107" lon="1.4763">
        <ele>196.625879</ele>
        <time>2023-07-30T13:42:54.000Z</time>
      </trkpt>
      <trkpt lat="43.70115" lon="1.47631">
        <ele>196.587387</ele>
        <time>2023-07-30T13:42:55.000Z</time>
      </trkpt>
      <trkpt lat="43.70115" lon="1.47631">
        <ele>196.587387</ele>
        <time>2023-07-30T13:42:55.000Z</time>
      </trkpt>
      <trkpt lat="43.70123" lon="1.47631">
        <ele>196.552601</ele>
        <time>2023-07-30T13:42:56.000Z</time>
      </trkpt>
      <trkpt lat="43.70123" lon="1.47631">
        <ele>196.552601</ele>
        <time>2023-07-30T13:42:56.000Z</time>
      </trkpt>
      <trkpt lat="43.70131" lon="1.4763">
        <ele>196.515953</ele>
        <time>2023-07-30T13:42:57.000Z</time>
      </trkpt>
      <trkpt lat="43.70131" lon="1.4763">
        <ele>196.515953</ele>
        <time>2023-07-30T13:42:57.000Z</time>
      </trkpt>
      <trkpt lat="43.70138" lon="1.47628">
        <ele>196.480217</ele>
        <time>2023-07-30T13:42:58.000Z</time>
      </trkpt>
      <trkpt lat="43.70145" lon="1.47626">
        <ele>196.449593</ele>
        <time>2023-07-30T13:42:59.000Z</time>
      </trkpt>
      <trkpt lat="43.70152" lon="1.47623">
        <ele>196.416723</ele>
        <time>2023-07-30T13:43:00.000Z</time>
      </trkpt>
      <trkpt lat="43.70152" lon="1.47623">
        <ele>196.416723</ele>
        <time>2023-07-30T13:43:00.000Z</time>
      </trkpt>
      <trkpt lat="43.70158" lon="1.47619">
        <ele>196.383091</ele>
        <time>2023-07-30T13:43:01.000Z</time>
      </trkpt>
      <trkpt lat="43.70158" lon="1.47619">
        <ele>196.383091</ele>
        <time>2023-07-30T13:43:01.000Z</time>
      </trkpt>
      <trkpt lat="43.70166" lon="1.47616">
        <ele>196.347825</ele>
        <time>2023-07-30T13:43:02.000Z</time>
      </trkpt>
      <trkpt lat="43.70172" lon="1.47613">
        <ele>196.31657</ele>
        <time>2023-07-30T13:43:03.000Z</time>
      </trkpt>
      <trkpt lat="43.70179" lon="1.4761">
        <ele>196.285783</ele>
        <time>2023-07-30T13:43:04.000Z</time>
      </trkpt>
      <trkpt lat="43.70179" lon="1.4761">
        <ele>196.285783</ele>
        <time>2023-07-30T13:43:04.000Z</time>
      </trkpt>
      <trkpt lat="43.70186" lon="1.47609">
        <ele>196.252056</ele>
        <time>2023-07-30T13:43:05.000Z</time>
      </trkpt>
      <trkpt lat="43.70192" lon="1.47609">
        <ele>196.224139</ele>
        <time>2023-07-30T13:43:06.000Z</time>
      </trkpt>
      <trkpt lat="43.70192" lon="1.47609">
        <ele>196.224139</ele>
        <time>2023-07-30T13:43:06.000Z</time>
      </trkpt>
      <trkpt lat="43.70198" lon="1.4761">
        <ele>196.195895</ele>
        <time>2023-07-30T13:43:07.000Z</time>
      </trkpt>
      <trkpt lat="43.70198" lon="1.4761">
        <ele>196.195895</ele>
        <time>2023-07-30T13:43:07.000Z</time>
      </trkpt>
      <trkpt lat="43.70204" lon="1.47613">
        <ele>196.166585</ele>
        <time>2023-07-30T13:43:08.000Z</time>
      </trkpt>
      <trkpt lat="43.7021" lon="1.47616">
        <ele>196.136611</ele>
        <time>2023-07-30T13:43:09.000Z</time>
      </trkpt>
      <trkpt lat="43.7021" lon="1.47616">
        <ele>196.136611</ele>
        <time>2023-07-30T13:43:09.000Z</time>
      </trkpt>
      <trkpt lat="43.70216" lon="1.4762">
        <ele>196.109138</ele>
        <time>2023-07-30T13:43:10.000Z</time>
      </trkpt>
      <trkpt lat="43.70221" lon="1.47624">
        <ele>196.081349</ele>
        <time>2023-07-30T13:43:11.000Z</time>
      </trkpt>
      <trkpt lat="43.70221" lon="1.47624">
        <ele>196.081349</ele>
        <time>2023-07-30T13:43:11.000Z</time>
      </trkpt>
      <trkpt lat="43.70227" lon="1.47628">
        <ele>196.051077</ele>
        <time>2023-07-30T13:43:12.000Z</time>
      </trkpt>
      <trkpt lat="43.70227" lon="1.47628">
        <ele>196.051077</ele>
        <time>2023-07-30T13:43:12.000Z</time>
      </trkpt>
      <trkpt lat="43.70232" lon="1.47633">
        <ele>196.023124</ele>
        <time>2023-07-30T13:43:13.000Z</time>
      </trkpt>
      <trkpt lat="43.70238" lon="1.47637">
        <ele>195.993253</ele>
        <time>2023-07-30T13:43:14.000Z</time>
      </trkpt>
      <trkpt lat="43.70238" lon="1.47637">
        <ele>195.993253</ele>
        <time>2023-07-30T13:43:14.000Z</time>
      </trkpt>
      <trkpt lat="43.70244" lon="1.47641">
        <ele>195.963445</ele>
        <time>2023-07-30T13:43:15.000Z</time>
      </trkpt>
      <trkpt lat="43.70244" lon="1.47641">
        <ele>195.963445</ele>
        <time>2023-07-30T13:43:15.000Z</time>
      </trkpt>
      <trkpt lat="43.70249" lon="1.47645">
        <ele>195.935973</ele>
        <time>2023-07-30T13:43:16.000Z</time>
      </trkpt>
      <trkpt lat="43.70249" lon="1.47645">
        <ele>195.935973</ele>
        <time>2023-07-30T13:43:16.000Z</time>
      </trkpt>
      <trkpt lat="43.70255" lon="1.47649">
        <ele>195.869316</ele>
        <time>2023-07-30T13:43:17.000Z</time>
      </trkpt>
      <trkpt lat="43.70261" lon="1.47654">
        <ele>195.746529</ele>
        <time>2023-07-30T13:43:18.000Z</time>
      </trkpt>
      <trkpt lat="43.70267" lon="1.47658">
        <ele>195.629532</ele>
        <time>2023-07-30T13:43:19.000Z</time>
      </trkpt>
      <trkpt lat="43.70272" lon="1.47662">
        <ele>195.51376</ele>
        <time>2023-07-30T13:43:20.000Z</time>
      </trkpt>
      <trkpt lat="43.70279" lon="1.47666">
        <ele>195.392112</ele>
        <time>2023-07-30T13:43:21.000Z</time>
      </trkpt>
      <trkpt lat="43.70279" lon="1.47666">
        <ele>195.392112</ele>
        <time>2023-07-30T13:43:21.000Z</time>
      </trkpt>
      <trkpt lat="43.70284" lon="1.47669">
        <ele>195.278082</ele>
        <time>2023-07-30T13:43:22.000Z</time>
      </trkpt>
      <trkpt lat="43.70291" lon="1.47673">
        <ele>195.150407</ele>
        <time>2023-07-30T13:43:23.000Z</time>
      </trkpt>
      <trkpt lat="43.70297" lon="1.47677">
        <ele>195.031897</ele>
        <time>2023-07-30T13:43:24.000Z</time>
      </trkpt>
      <trkpt lat="43.70303" lon="1.4768">
        <ele>194.913386</ele>
        <time>2023-07-30T13:43:25.000Z</time>
      </trkpt>
      <trkpt lat="43.70309" lon="1.47683">
        <ele>194.791615</ele>
        <time>2023-07-30T13:43:26.000Z</time>
      </trkpt>
      <trkpt lat="43.70316" lon="1.47686">
        <ele>194.660054</ele>
        <time>2023-07-30T13:43:27.000Z</time>
      </trkpt>
      <trkpt lat="43.70316" lon="1.47686">
        <ele>194.660054</ele>
        <time>2023-07-30T13:43:27.000Z</time>
      </trkpt>
      <trkpt lat="43.70323" lon="1.47689">
        <ele>194.536576</ele>
        <time>2023-07-30T13:43:28.000Z</time>
      </trkpt>
      <trkpt lat="43.70323" lon="1.47689">
        <ele>194.536576</ele>
        <time>2023-07-30T13:43:28.000Z</time>
      </trkpt>
      <trkpt lat="43.7033" lon="1.47693">
        <ele>194.404583</ele>
        <time>2023-07-30T13:43:29.000Z</time>
      </trkpt>
      <trkpt lat="43.7033" lon="1.47693">
        <ele>194.404583</ele>
        <time>2023-07-30T13:43:29.000Z</time>
      </trkpt>
      <trkpt lat="43.70337" lon="1.47697">
        <ele>194.272907</ele>
        <time>2023-07-30T13:43:30.000Z</time>
      </trkpt>
      <trkpt lat="43.70337" lon="1.47697">
        <ele>194.272907</ele>
        <time>2023-07-30T13:43:30.000Z</time>
      </trkpt>
      <trkpt lat="43.70344" lon="1.477">
        <ele>194.134514</ele>
        <time>2023-07-30T13:43:31.000Z</time>
      </trkpt>
      <trkpt lat="43.70344" lon="1.477">
        <ele>194.134514</ele>
        <time>2023-07-30T13:43:31.000Z</time>
      </trkpt>
      <trkpt lat="43.70351" lon="1.47703">
        <ele>193.998237</ele>
        <time>2023-07-30T13:43:32.000Z</time>
      </trkpt>
      <trkpt lat="43.70351" lon="1.47703">
        <ele>193.998237</ele>
        <time>2023-07-30T13:43:32.000Z</time>
      </trkpt>
      <trkpt lat="43.70359" lon="1.47707">
        <ele>193.851349</ele>
        <time>2023-07-30T13:43:33.000Z</time>
      </trkpt>
      <trkpt lat="43.70359" lon="1.47707">
        <ele>193.851349</ele>
        <time>2023-07-30T13:43:33.000Z</time>
      </trkpt>
      <trkpt lat="43.70366" lon="1.47711">
        <ele>193.718193</ele>
        <time>2023-07-30T13:43:34.000Z</time>
      </trkpt>
      <trkpt lat="43.70366" lon="1.47711">
        <ele>193.718193</ele>
        <time>2023-07-30T13:43:34.000Z</time>
      </trkpt>
      <trkpt lat="43.70373" lon="1.47715">
        <ele>193.575721</ele>
        <time>2023-07-30T13:43:35.000Z</time>
      </trkpt>
      <trkpt lat="43.70373" lon="1.47715">
        <ele>193.575721</ele>
        <time>2023-07-30T13:43:35.000Z</time>
      </trkpt>
      <trkpt lat="43.7038" lon="1.47719">
        <ele>193.436384</ele>
        <time>2023-07-30T13:43:36.000Z</time>
      </trkpt>
      <trkpt lat="43.7038" lon="1.47719">
        <ele>193.436384</ele>
        <time>2023-07-30T13:43:36.000Z</time>
      </trkpt>
      <trkpt lat="43.70387" lon="1.47722">
        <ele>193.303949</ele>
        <time>2023-07-30T13:43:37.000Z</time>
      </trkpt>
      <trkpt lat="43.70387" lon="1.47722">
        <ele>193.303949</ele>
        <time>2023-07-30T13:43:37.000Z</time>
      </trkpt>
      <trkpt lat="43.70394" lon="1.47726">
        <ele>193.165988</ele>
        <time>2023-07-30T13:43:38.000Z</time>
      </trkpt>
      <trkpt lat="43.70394" lon="1.47726">
        <ele>193.165988</ele>
        <time>2023-07-30T13:43:38.000Z</time>
      </trkpt>
      <trkpt lat="43.70401" lon="1.47729">
        <ele>193.033553</ele>
        <time>2023-07-30T13:43:39.000Z</time>
      </trkpt>
      <trkpt lat="43.70401" lon="1.47729">
        <ele>193.033553</ele>
        <time>2023-07-30T13:43:39.000Z</time>
      </trkpt>
      <trkpt lat="43.70408" lon="1.47733">
        <ele>192.901561</ele>
        <time>2023-07-30T13:43:40.000Z</time>
      </trkpt>
      <trkpt lat="43.70408" lon="1.47733">
        <ele>192.901561</ele>
        <time>2023-07-30T13:43:40.000Z</time>
      </trkpt>
      <trkpt lat="43.70415" lon="1.47736">
        <ele>192.771266</ele>
        <time>2023-07-30T13:43:41.000Z</time>
      </trkpt>
      <trkpt lat="43.70415" lon="1.47736">
        <ele>192.771266</ele>
        <time>2023-07-30T13:43:41.000Z</time>
      </trkpt>
      <trkpt lat="43.70421" lon="1.47739">
        <ele>192.653961</ele>
        <time>2023-07-30T13:43:42.000Z</time>
      </trkpt>
      <trkpt lat="43.70421" lon="1.47739">
        <ele>192.653961</ele>
        <time>2023-07-30T13:43:42.000Z</time>
      </trkpt>
      <trkpt lat="43.70428" lon="1.47743">
        <ele>192.553239</ele>
        <time>2023-07-30T13:43:43.000Z</time>
      </trkpt>
      <trkpt lat="43.70435" lon="1.47746">
        <ele>192.448597</ele>
        <time>2023-07-30T13:43:44.000Z</time>
      </trkpt>
      <trkpt lat="43.70435" lon="1.47746">
        <ele>192.448597</ele>
        <time>2023-07-30T13:43:44.000Z</time>
      </trkpt>
      <trkpt lat="43.70442" lon="1.47749">
        <ele>192.353742</ele>
        <time>2023-07-30T13:43:45.000Z</time>
      </trkpt>
      <trkpt lat="43.70449" lon="1.47752">
        <ele>192.25269</ele>
        <time>2023-07-30T13:43:46.000Z</time>
      </trkpt>
      <trkpt lat="43.70449" lon="1.47752">
        <ele>192.25269</ele>
        <time>2023-07-30T13:43:46.000Z</time>
      </trkpt>
      <trkpt lat="43.70455" lon="1.47756">
        <ele>192.157505</ele>
        <time>2023-07-30T13:43:47.000Z</time>
      </trkpt>
      <trkpt lat="43.70461" lon="1.47759">
        <ele>192.073008</ele>
        <time>2023-07-30T13:43:48.000Z</time>
      </trkpt>
      <trkpt lat="43.70461" lon="1.47759">
        <ele>192.073008</ele>
        <time>2023-07-30T13:43:48.000Z</time>
      </trkpt>
      <trkpt lat="43.70467" lon="1.47762">
        <ele>191.977136</ele>
        <time>2023-07-30T13:43:49.000Z</time>
      </trkpt>
      <trkpt lat="43.70467" lon="1.47762">
        <ele>191.977136</ele>
        <time>2023-07-30T13:43:49.000Z</time>
      </trkpt>
      <trkpt lat="43.70474" lon="1.47765">
        <ele>191.883506</ele>
        <time>2023-07-30T13:43:50.000Z</time>
      </trkpt>
      <trkpt lat="43.70474" lon="1.47765">
        <ele>191.883506</ele>
        <time>2023-07-30T13:43:50.000Z</time>
      </trkpt>
      <trkpt lat="43.7048" lon="1.47767">
        <ele>191.79628</ele>
        <time>2023-07-30T13:43:51.000Z</time>
      </trkpt>
      <trkpt lat="43.70487" lon="1.47769">
        <ele>191.695511</ele>
        <time>2023-07-30T13:43:52.000Z</time>
      </trkpt>
      <trkpt lat="43.70493" lon="1.4777">
        <ele>191.610508</ele>
        <time>2023-07-30T13:43:53.000Z</time>
      </trkpt>
      <trkpt lat="43.70493" lon="1.4777">
        <ele>191.610508</ele>
        <time>2023-07-30T13:43:53.000Z</time>
      </trkpt>
      <trkpt lat="43.705" lon="1.47771">
        <ele>191.520165</ele>
        <time>2023-07-30T13:43:54.000Z</time>
      </trkpt>
      <trkpt lat="43.70506" lon="1.47772">
        <ele>191.429938</ele>
        <time>2023-07-30T13:43:55.000Z</time>
      </trkpt>
      <trkpt lat="43.70513" lon="1.47773">
        <ele>191.335485</ele>
        <time>2023-07-30T13:43:56.000Z</time>
      </trkpt>
      <trkpt lat="43.7052" lon="1.47774">
        <ele>191.239662</ele>
        <time>2023-07-30T13:43:57.000Z</time>
      </trkpt>
      <trkpt lat="43.70527" lon="1.47775">
        <ele>191.149434</ele>
        <time>2023-07-30T13:43:58.000Z</time>
      </trkpt>
      <trkpt lat="43.70533" lon="1.47776">
        <ele>191.064566</ele>
        <time>2023-07-30T13:43:59.000Z</time>
      </trkpt>
      <trkpt lat="43.7054" lon="1.47777">
        <ele>190.968852</ele>
        <time>2023-07-30T13:44:00.000Z</time>
      </trkpt>
      <trkpt lat="43.70546" lon="1.47778">
        <ele>190.87873</ele>
        <time>2023-07-30T13:44:01.000Z</time>
      </trkpt>
      <trkpt lat="43.70552" lon="1.47779">
        <ele>190.790075</ele>
        <time>2023-07-30T13:44:02.000Z</time>
      </trkpt>
      <trkpt lat="43.70559" lon="1.4778">
        <ele>190.700046</ele>
        <time>2023-07-30T13:44:04.000Z</time>
      </trkpt>
      <trkpt lat="43.70565" lon="1.47781">
        <ele>190.615601</ele>
        <time>2023-07-30T13:44:04.000Z</time>
      </trkpt>
      <trkpt lat="43.70565" lon="1.47781">
        <ele>190.615601</ele>
        <time>2023-07-30T13:44:04.000Z</time>
      </trkpt>
      <trkpt lat="43.70572" lon="1.47781">
        <ele>190.525655</ele>
        <time>2023-07-30T13:44:05.000Z</time>
      </trkpt>
      <trkpt lat="43.70578" lon="1.47782">
        <ele>190.435709</ele>
        <time>2023-07-30T13:44:06.000Z</time>
      </trkpt>
      <trkpt lat="43.70578" lon="1.47782">
        <ele>190.435709</ele>
        <time>2023-07-30T13:44:06.000Z</time>
      </trkpt>
      <trkpt lat="43.70585" lon="1.47783">
        <ele>190.345586</ele>
        <time>2023-07-30T13:44:07.000Z</time>
      </trkpt>
      <trkpt lat="43.70591" lon="1.47784">
        <ele>190.255464</ele>
        <time>2023-07-30T13:44:09.000Z</time>
      </trkpt>
      <trkpt lat="43.70591" lon="1.47784">
        <ele>190.255464</ele>
        <time>2023-07-30T13:44:09.000Z</time>
      </trkpt>
      <trkpt lat="43.70598" lon="1.47785">
        <ele>190.168434</ele>
        <time>2023-07-30T13:44:09.000Z</time>
      </trkpt>
      <trkpt lat="43.70598" lon="1.47785">
        <ele>190.168434</ele>
        <time>2023-07-30T13:44:09.000Z</time>
      </trkpt>
      <trkpt lat="43.70604" lon="1.47786">
        <ele>190.102585</ele>
        <time>2023-07-30T13:44:10.000Z</time>
      </trkpt>
      <trkpt lat="43.70611" lon="1.47787">
        <ele>190.027937</ele>
        <time>2023-07-30T13:44:11.000Z</time>
      </trkpt>
      <trkpt lat="43.70618" lon="1.47788">
        <ele>189.949115</ele>
        <time>2023-07-30T13:44:12.000Z</time>
      </trkpt>
      <trkpt lat="43.70618" lon="1.47788">
        <ele>189.949115</ele>
        <time>2023-07-30T13:44:12.000Z</time>
      </trkpt>
      <trkpt lat="43.70625" lon="1.47789">
        <ele>189.879563</ele>
        <time>2023-07-30T13:44:13.000Z</time>
      </trkpt>
      <trkpt lat="43.70625" lon="1.47789">
        <ele>189.879563</ele>
        <time>2023-07-30T13:44:13.000Z</time>
      </trkpt>
      <trkpt lat="43.70631" lon="1.47791">
        <ele>189.804705</ele>
        <time>2023-07-30T13:44:14.000Z</time>
      </trkpt>
      <trkpt lat="43.70631" lon="1.47791">
        <ele>189.804705</ele>
        <time>2023-07-30T13:44:14.000Z</time>
      </trkpt>
      <trkpt lat="43.70638" lon="1.47792">
        <ele>189.734209</ele>
        <time>2023-07-30T13:44:15.000Z</time>
      </trkpt>
      <trkpt lat="43.70638" lon="1.47792">
        <ele>189.734209</ele>
        <time>2023-07-30T13:44:15.000Z</time>
      </trkpt>
      <trkpt lat="43.70644" lon="1.47793">
        <ele>189.667958</ele>
        <time>2023-07-30T13:44:16.000Z</time>
      </trkpt>
      <trkpt lat="43.70644" lon="1.47793">
        <ele>189.667958</ele>
        <time>2023-07-30T13:44:16.000Z</time>
      </trkpt>
      <trkpt lat="43.70651" lon="1.47795">
        <ele>189.592984</ele>
        <time>2023-07-30T13:44:17.000Z</time>
      </trkpt>
      <trkpt lat="43.70651" lon="1.47795">
        <ele>189.592984</ele>
        <time>2023-07-30T13:44:17.000Z</time>
      </trkpt>
      <trkpt lat="43.70657" lon="1.47796">
        <ele>189.526848</ele>
        <time>2023-07-30T13:44:18.000Z</time>
      </trkpt>
      <trkpt lat="43.70657" lon="1.47796">
        <ele>189.526848</ele>
        <time>2023-07-30T13:44:18.000Z</time>
      </trkpt>
      <trkpt lat="43.70663" lon="1.47797">
        <ele>189.460711</ele>
        <time>2023-07-30T13:44:19.000Z</time>
      </trkpt>
      <trkpt lat="43.70663" lon="1.47797">
        <ele>189.460711</ele>
        <time>2023-07-30T13:44:19.000Z</time>
      </trkpt>
      <trkpt lat="43.7067" lon="1.47799">
        <ele>189.387026</ele>
        <time>2023-07-30T13:44:20.000Z</time>
      </trkpt>
      <trkpt lat="43.70676" lon="1.478">
        <ele>189.316529</ele>
        <time>2023-07-30T13:44:21.000Z</time>
      </trkpt>
      <trkpt lat="43.70683" lon="1.47801">
        <ele>189.250392</ele>
        <time>2023-07-30T13:44:22.000Z</time>
      </trkpt>
      <trkpt lat="43.70688" lon="1.47802">
        <ele>189.191803</ele>
        <time>2023-07-30T13:44:23.000Z</time>
      </trkpt>
      <trkpt lat="43.70695" lon="1.47804">
        <ele>189.117889</ele>
        <time>2023-07-30T13:44:25.000Z</time>
      </trkpt>
      <trkpt lat="43.70701" lon="1.47805">
        <ele>189.051517</ele>
        <time>2023-07-30T13:44:25.000Z</time>
      </trkpt>
      <trkpt lat="43.70707" lon="1.47807">
        <ele>188.987877</ele>
        <time>2023-07-30T13:44:27.000Z</time>
      </trkpt>
      <trkpt lat="43.70707" lon="1.47807">
        <ele>188.987877</ele>
        <time>2023-07-30T13:44:27.000Z</time>
      </trkpt>
      <trkpt lat="43.70713" lon="1.47809">
        <ele>188.92076</ele>
        <time>2023-07-30T13:44:27.000Z</time>
      </trkpt>
      <trkpt lat="43.70719" lon="1.47811">
        <ele>188.849375</ele>
        <time>2023-07-30T13:44:28.000Z</time>
      </trkpt>
      <trkpt lat="43.70719" lon="1.47811">
        <ele>188.849375</ele>
        <time>2023-07-30T13:44:28.000Z</time>
      </trkpt>
      <trkpt lat="43.70725" lon="1.47814">
        <ele>188.784166</ele>
        <time>2023-07-30T13:44:30.000Z</time>
      </trkpt>
      <trkpt lat="43.70731" lon="1.47817">
        <ele>188.718423</ele>
        <time>2023-07-30T13:44:30.000Z</time>
      </trkpt>
      <trkpt lat="43.70731" lon="1.47817">
        <ele>188.718423</ele>
        <time>2023-07-30T13:44:30.000Z</time>
      </trkpt>
      <trkpt lat="43.70737" lon="1.4782">
        <ele>188.648395</ele>
        <time>2023-07-30T13:44:31.000Z</time>
      </trkpt>
      <trkpt lat="43.70742" lon="1.47823">
        <ele>188.582365</ele>
        <time>2023-07-30T13:44:33.000Z</time>
      </trkpt>
      <trkpt lat="43.70748" lon="1.47827">
        <ele>188.518997</ele>
        <time>2023-07-30T13:44:33.000Z</time>
      </trkpt>
      <trkpt lat="43.70754" lon="1.4783">
        <ele>188.452966</ele>
        <time>2023-07-30T13:44:34.000Z</time>
      </trkpt>
      <trkpt lat="43.70759" lon="1.47833">
        <ele>188.392068</ele>
        <time>2023-07-30T13:44:35.000Z</time>
      </trkpt>
      <trkpt lat="43.70765" lon="1.47836">
        <ele>188.326605</ele>
        <time>2023-07-30T13:44:36.000Z</time>
      </trkpt>
      <trkpt lat="43.70765" lon="1.47836">
        <ele>188.326605</ele>
        <time>2023-07-30T13:44:36.000Z</time>
      </trkpt>
      <trkpt lat="43.7077" lon="1.47839">
        <ele>188.257698</ele>
        <time>2023-07-30T13:44:37.000Z</time>
      </trkpt>
      <trkpt lat="43.70776" lon="1.47841">
        <ele>188.151625</ele>
        <time>2023-07-30T13:44:38.000Z</time>
      </trkpt>
      <trkpt lat="43.70776" lon="1.47841">
        <ele>188.151625</ele>
        <time>2023-07-30T13:44:38.000Z</time>
      </trkpt>
      <trkpt lat="43.70781" lon="1.47844">
        <ele>188.037563</ele>
        <time>2023-07-30T13:44:39.000Z</time>
      </trkpt>
      <trkpt lat="43.70787" lon="1.47847">
        <ele>187.91504</ele>
        <time>2023-07-30T13:44:40.000Z</time>
      </trkpt>
      <trkpt lat="43.70794" lon="1.4785">
        <ele>187.785913</ele>
        <time>2023-07-30T13:44:41.000Z</time>
      </trkpt>
      <trkpt lat="43.708" lon="1.47853">
        <ele>187.658056</ele>
        <time>2023-07-30T13:44:42.000Z</time>
      </trkpt>
      <trkpt lat="43.70807" lon="1.47856">
        <ele>187.53895</ele>
        <time>2023-07-30T13:44:43.000Z</time>
      </trkpt>
      <trkpt lat="43.70807" lon="1.47856">
        <ele>187.53895</ele>
        <time>2023-07-30T13:44:43.000Z</time>
      </trkpt>
      <trkpt lat="43.70814" lon="1.47858">
        <ele>187.399197</ele>
        <time>2023-07-30T13:44:44.000Z</time>
      </trkpt>
      <trkpt lat="43.70814" lon="1.47858">
        <ele>187.399197</ele>
        <time>2023-07-30T13:44:44.000Z</time>
      </trkpt>
      <trkpt lat="43.7082" lon="1.4786">
        <ele>187.274959</ele>
        <time>2023-07-30T13:44:46.000Z</time>
      </trkpt>
      <trkpt lat="43.7082" lon="1.4786">
        <ele>187.274959</ele>
        <time>2023-07-30T13:44:46.000Z</time>
      </trkpt>
      <trkpt lat="43.70827" lon="1.4786">
        <ele>187.145257</ele>
        <time>2023-07-30T13:44:46.000Z</time>
      </trkpt>
      <trkpt lat="43.70827" lon="1.4786">
        <ele>187.145257</ele>
        <time>2023-07-30T13:44:46.000Z</time>
      </trkpt>
      <trkpt lat="43.70834" lon="1.4786">
        <ele>187.007728</ele>
        <time>2023-07-30T13:44:48.000Z</time>
      </trkpt>
      <trkpt lat="43.70834" lon="1.4786">
        <ele>187.007728</ele>
        <time>2023-07-30T13:44:48.000Z</time>
      </trkpt>
      <trkpt lat="43.70841" lon="1.47857">
        <ele>186.888243</ele>
        <time>2023-07-30T13:44:48.000Z</time>
      </trkpt>
      <trkpt lat="43.70841" lon="1.47857">
        <ele>186.888243</ele>
        <time>2023-07-30T13:44:48.000Z</time>
      </trkpt>
      <trkpt lat="43.70847" lon="1.47853">
        <ele>186.747253</ele>
        <time>2023-07-30T13:44:49.000Z</time>
      </trkpt>
      <trkpt lat="43.70853" lon="1.47848">
        <ele>186.614777</ele>
        <time>2023-07-30T13:44:51.000Z</time>
      </trkpt>
      <trkpt lat="43.70853" lon="1.47848">
        <ele>186.614777</ele>
        <time>2023-07-30T13:44:51.000Z</time>
      </trkpt>
      <trkpt lat="43.7086" lon="1.47842">
        <ele>186.470964</ele>
        <time>2023-07-30T13:44:51.000Z</time>
      </trkpt>
      <trkpt lat="43.70866" lon="1.47837">
        <ele>186.341979</ele>
        <time>2023-07-30T13:44:52.000Z</time>
      </trkpt>
      <trkpt lat="43.70866" lon="1.47837">
        <ele>186.341979</ele>
        <time>2023-07-30T13:44:52.000Z</time>
      </trkpt>
      <trkpt lat="43.70871" lon="1.47831">
        <ele>186.209143</ele>
        <time>2023-07-30T13:44:54.000Z</time>
      </trkpt>
      <trkpt lat="43.70871" lon="1.47831">
        <ele>186.209143</ele>
        <time>2023-07-30T13:44:54.000Z</time>
      </trkpt>
      <trkpt lat="43.70877" lon="1.47826">
        <ele>186.080158</ele>
        <time>2023-07-30T13:44:54.000Z</time>
      </trkpt>
      <trkpt lat="43.70883" lon="1.47821">
        <ele>185.946298</ele>
        <time>2023-07-30T13:44:55.000Z</time>
      </trkpt>
      <trkpt lat="43.70883" lon="1.47821">
        <ele>185.946298</ele>
        <time>2023-07-30T13:44:55.000Z</time>
      </trkpt>
      <trkpt lat="43.70889" lon="1.47816">
        <ele>185.815165</ele>
        <time>2023-07-30T13:44:57.000Z</time>
      </trkpt>
      <trkpt lat="43.70895" lon="1.47812">
        <ele>185.696915</ele>
        <time>2023-07-30T13:44:57.000Z</time>
      </trkpt>
      <trkpt lat="43.70895" lon="1.47812">
        <ele>185.696915</ele>
        <time>2023-07-30T13:44:57.000Z</time>
      </trkpt>
      <trkpt lat="43.70902" lon="1.47809">
        <ele>185.566405</ele>
        <time>2023-07-30T13:44:59.000Z</time>
      </trkpt>
      <trkpt lat="43.70902" lon="1.47809">
        <ele>185.566405</ele>
        <time>2023-07-30T13:44:59.000Z</time>
      </trkpt>
      <trkpt lat="43.70909" lon="1.47806">
        <ele>185.423522</ele>
        <time>2023-07-30T13:44:59.000Z</time>
      </trkpt>
      <trkpt lat="43.70909" lon="1.47806">
        <ele>185.423522</ele>
        <time>2023-07-30T13:44:59.000Z</time>
      </trkpt>
      <trkpt lat="43.70916" lon="1.47803">
        <ele>185.274336</ele>
        <time>2023-07-30T13:45:01.000Z</time>
      </trkpt>
      <trkpt lat="43.70916" lon="1.47803">
        <ele>185.274336</ele>
        <time>2023-07-30T13:45:01.000Z</time>
      </trkpt>
      <trkpt lat="43.70923" lon="1.47801">
        <ele>185.144558</ele>
        <time>2023-07-30T13:45:02.000Z</time>
      </trkpt>
      <trkpt lat="43.70923" lon="1.47801">
        <ele>185.144558</ele>
        <time>2023-07-30T13:45:02.000Z</time>
      </trkpt>
      <trkpt lat="43.7093" lon="1.478">
        <ele>185.014515</ele>
        <time>2023-07-30T13:45:02.000Z</time>
      </trkpt>
      <trkpt lat="43.7093" lon="1.478">
        <ele>185.014515</ele>
        <time>2023-07-30T13:45:02.000Z</time>
      </trkpt>
      <trkpt lat="43.70938" lon="1.478">
        <ele>184.876421</ele>
        <time>2023-07-30T13:45:03.000Z</time>
      </trkpt>
      <trkpt lat="43.70938" lon="1.478">
        <ele>184.876421</ele>
        <time>2023-07-30T13:45:03.000Z</time>
      </trkpt>
      <trkpt lat="43.70945" lon="1.47801">
        <ele>184.791018</ele>
        <time>2023-07-30T13:45:04.000Z</time>
      </trkpt>
      <trkpt lat="43.70945" lon="1.47801">
        <ele>184.791018</ele>
        <time>2023-07-30T13:45:04.000Z</time>
      </trkpt>
      <trkpt lat="43.70952" lon="1.47801">
        <ele>184.701874</ele>
        <time>2023-07-30T13:45:06.000Z</time>
      </trkpt>
      <trkpt lat="43.70952" lon="1.47801">
        <ele>184.701874</ele>
        <time>2023-07-30T13:45:06.000Z</time>
      </trkpt>
      <trkpt lat="43.70959" lon="1.47802">
        <ele>184.616046</ele>
        <time>2023-07-30T13:45:06.000Z</time>
      </trkpt>
      <trkpt lat="43.70965" lon="1.47804">
        <ele>184.534522</ele>
        <time>2023-07-30T13:45:07.000Z</time>
      </trkpt>
      <trkpt lat="43.70965" lon="1.47804">
        <ele>184.534522</ele>
        <time>2023-07-30T13:45:07.000Z</time>
      </trkpt>
      <trkpt lat="43.70972" lon="1.47805">
        <ele>184.447657</ele>
        <time>2023-07-30T13:45:09.000Z</time>
      </trkpt>
      <trkpt lat="43.70972" lon="1.47805">
        <ele>184.447657</ele>
        <time>2023-07-30T13:45:09.000Z</time>
      </trkpt>
      <trkpt lat="43.70979" lon="1.47808">
        <ele>184.360379</ele>
        <time>2023-07-30T13:45:09.000Z</time>
      </trkpt>
      <trkpt lat="43.70979" lon="1.47808">
        <ele>184.360379</ele>
        <time>2023-07-30T13:45:09.000Z</time>
      </trkpt>
      <trkpt lat="43.70985" lon="1.47811">
        <ele>184.284932</ele>
        <time>2023-07-30T13:45:10.000Z</time>
      </trkpt>
      <trkpt lat="43.70985" lon="1.47811">
        <ele>184.284932</ele>
        <time>2023-07-30T13:45:10.000Z</time>
      </trkpt>
      <trkpt lat="43.70991" lon="1.47815">
        <ele>184.196923</ele>
        <time>2023-07-30T13:45:12.000Z</time>
      </trkpt>
      <trkpt lat="43.70997" lon="1.47819">
        <ele>184.1114</ele>
        <time>2023-07-30T13:45:12.000Z</time>
      </trkpt>
      <trkpt lat="43.70997" lon="1.47819">
        <ele>184.1114</ele>
        <time>2023-07-30T13:45:12.000Z</time>
      </trkpt>
      <trkpt lat="43.71003" lon="1.47824">
        <ele>184.028692</ele>
        <time>2023-07-30T13:45:14.000Z</time>
      </trkpt>
      <trkpt lat="43.71003" lon="1.47824">
        <ele>184.028692</ele>
        <time>2023-07-30T13:45:14.000Z</time>
      </trkpt>
      <trkpt lat="43.71008" lon="1.47828">
        <ele>183.958307</ele>
        <time>2023-07-30T13:45:14.000Z</time>
      </trkpt>
      <trkpt lat="43.71013" lon="1.47832">
        <ele>183.881668</ele>
        <time>2023-07-30T13:45:15.000Z</time>
      </trkpt>
      <trkpt lat="43.71013" lon="1.47832">
        <ele>183.881668</ele>
        <time>2023-07-30T13:45:15.000Z</time>
      </trkpt>
      <trkpt lat="43.71018" lon="1.47836">
        <ele>183.813446</ele>
        <time>2023-07-30T13:45:17.000Z</time>
      </trkpt>
      <trkpt lat="43.71023" lon="1.47839">
        <ele>183.750146</ele>
        <time>2023-07-30T13:45:17.000Z</time>
      </trkpt>
      <trkpt lat="43.71025" lon="1.4784">
        <ele>183.723923</ele>
        <time>2023-07-30T13:45:18.000Z</time>
      </trkpt>
      <trkpt lat="43.71025" lon="1.4784">
        <ele>183.723923</ele>
        <time>2023-07-30T13:45:18.000Z</time>
      </trkpt>
      <trkpt lat="43.71028" lon="1.47841">
        <ele>183.684331</ele>
        <time>2023-07-30T13:45:20.000Z</time>
      </trkpt>
      <trkpt lat="43.71028" lon="1.47841">
        <ele>183.684331</ele>
        <time>2023-07-30T13:45:20.000Z</time>
      </trkpt>
      <trkpt lat="43.7103" lon="1.47841">
        <ele>183.652116</ele>
        <time>2023-07-30T13:45:21.000Z</time>
      </trkpt>
      <trkpt lat="43.71033" lon="1.47842">
        <ele>183.623536</ele>
        <time>2023-07-30T13:45:22.000Z</time>
      </trkpt>
      <trkpt lat="43.71035" lon="1.47843">
        <ele>183.593711</ele>
        <time>2023-07-30T13:45:23.000Z</time>
      </trkpt>
      <trkpt lat="43.71035" lon="1.47843">
        <ele>183.593711</ele>
        <time>2023-07-30T13:45:23.000Z</time>
      </trkpt>
      <trkpt lat="43.71038" lon="1.47844">
        <ele>183.552778</ele>
        <time>2023-07-30T13:45:24.000Z</time>
      </trkpt>
      <trkpt lat="43.7104" lon="1.47846">
        <ele>183.525261</ele>
        <time>2023-07-30T13:45:25.000Z</time>
      </trkpt>
      <trkpt lat="43.71046" lon="1.47853">
        <ele>183.426508</ele>
        <time>2023-07-30T13:45:27.000Z</time>
      </trkpt>
      <trkpt lat="43.71046" lon="1.47853">
        <ele>183.426508</ele>
        <time>2023-07-30T13:45:27.000Z</time>
      </trkpt>
      <trkpt lat="43.71049" lon="1.47855">
        <ele>183.385293</ele>
        <time>2023-07-30T13:45:28.000Z</time>
      </trkpt>
      <trkpt lat="43.71052" lon="1.47858">
        <ele>183.344078</ele>
        <time>2023-07-30T13:45:28.000Z</time>
      </trkpt>
      <trkpt lat="43.71052" lon="1.47858">
        <ele>183.344078</ele>
        <time>2023-07-30T13:45:28.000Z</time>
      </trkpt>
      <trkpt lat="43.71055" lon="1.47862">
        <ele>183.290562</ele>
        <time>2023-07-30T13:45:29.000Z</time>
      </trkpt>
      <trkpt lat="43.71059" lon="1.47866">
        <ele>183.227984</ele>
        <time>2023-07-30T13:45:30.000Z</time>
      </trkpt>
      <trkpt lat="43.71059" lon="1.47866">
        <ele>183.227984</ele>
        <time>2023-07-30T13:45:30.000Z</time>
      </trkpt>
      <trkpt lat="43.71063" lon="1.4787">
        <ele>183.166681</ele>
        <time>2023-07-30T13:45:31.000Z</time>
      </trkpt>
      <trkpt lat="43.71069" lon="1.47876">
        <ele>183.083191</ele>
        <time>2023-07-30T13:45:32.000Z</time>
      </trkpt>
      <trkpt lat="43.71069" lon="1.47876">
        <ele>183.083191</ele>
        <time>2023-07-30T13:45:32.000Z</time>
      </trkpt>
      <trkpt lat="43.71074" lon="1.47881">
        <ele>183.007867</ele>
        <time>2023-07-30T13:45:33.000Z</time>
      </trkpt>
      <trkpt lat="43.71078" lon="1.47885">
        <ele>182.943755</ele>
        <time>2023-07-30T13:45:34.000Z</time>
      </trkpt>
      <trkpt lat="43.71082" lon="1.47888">
        <ele>182.883098</ele>
        <time>2023-07-30T13:45:35.000Z</time>
      </trkpt>
      <trkpt lat="43.71087" lon="1.47892">
        <ele>182.812088</ele>
        <time>2023-07-30T13:45:36.000Z</time>
      </trkpt>
      <trkpt lat="43.71087" lon="1.47892">
        <ele>182.812088</ele>
        <time>2023-07-30T13:45:36.000Z</time>
      </trkpt>
      <trkpt lat="43.71092" lon="1.47896">
        <ele>182.747141</ele>
        <time>2023-07-30T13:45:37.000Z</time>
      </trkpt>
      <trkpt lat="43.71096" lon="1.47899">
        <ele>182.68371</ele>
        <time>2023-07-30T13:45:39.000Z</time>
      </trkpt>
      <trkpt lat="43.71096" lon="1.47899">
        <ele>182.68371</ele>
        <time>2023-07-30T13:45:39.000Z</time>
      </trkpt>
      <trkpt lat="43.71101" lon="1.47902">
        <ele>182.581261</ele>
        <time>2023-07-30T13:45:40.000Z</time>
      </trkpt>
      <trkpt lat="43.71105" lon="1.47906">
        <ele>182.455054</ele>
        <time>2023-07-30T13:45:40.000Z</time>
      </trkpt>
      <trkpt lat="43.7111" lon="1.4791">
        <ele>182.318738</ele>
        <time>2023-07-30T13:45:42.000Z</time>
      </trkpt>
      <trkpt lat="43.7111" lon="1.4791">
        <ele>182.318738</ele>
        <time>2023-07-30T13:45:42.000Z</time>
      </trkpt>
      <trkpt lat="43.71114" lon="1.47913">
        <ele>182.201996</ele>
        <time>2023-07-30T13:45:42.000Z</time>
      </trkpt>
      <trkpt lat="43.71119" lon="1.47917">
        <ele>182.06568</ele>
        <time>2023-07-30T13:45:44.000Z</time>
      </trkpt>
      <trkpt lat="43.71124" lon="1.47921">
        <ele>181.937762</ele>
        <time>2023-07-30T13:45:45.000Z</time>
      </trkpt>
      <trkpt lat="43.71129" lon="1.47924">
        <ele>181.801861</ele>
        <time>2023-07-30T13:45:45.000Z</time>
      </trkpt>
      <trkpt lat="43.71129" lon="1.47924">
        <ele>181.801861</ele>
        <time>2023-07-30T13:45:45.000Z</time>
      </trkpt>
      <trkpt lat="43.71134" lon="1.47929">
        <ele>181.662131</ele>
        <time>2023-07-30T13:45:47.000Z</time>
      </trkpt>
      <trkpt lat="43.71139" lon="1.47932">
        <ele>181.526626</ele>
        <time>2023-07-30T13:45:47.000Z</time>
      </trkpt>
      <trkpt lat="43.71139" lon="1.47932">
        <ele>181.526626</ele>
        <time>2023-07-30T13:45:47.000Z</time>
      </trkpt>
      <trkpt lat="43.71145" lon="1.47936">
        <ele>181.377402</ele>
        <time>2023-07-30T13:45:48.000Z</time>
      </trkpt>
      <trkpt lat="43.71145" lon="1.47936">
        <ele>181.377402</ele>
        <time>2023-07-30T13:45:48.000Z</time>
      </trkpt>
      <trkpt lat="43.7115" lon="1.47938">
        <ele>181.233651</ele>
        <time>2023-07-30T13:45:50.000Z</time>
      </trkpt>
      <trkpt lat="43.7115" lon="1.47938">
        <ele>181.233651</ele>
        <time>2023-07-30T13:45:50.000Z</time>
      </trkpt>
      <trkpt lat="43.71156" lon="1.4794">
        <ele>181.084393</ele>
        <time>2023-07-30T13:45:50.000Z</time>
      </trkpt>
      <trkpt lat="43.71156" lon="1.4794">
        <ele>181.084393</ele>
        <time>2023-07-30T13:45:50.000Z</time>
      </trkpt>
      <trkpt lat="43.71162" lon="1.4794">
        <ele>180.947264</ele>
        <time>2023-07-30T13:45:51.000Z</time>
      </trkpt>
      <trkpt lat="43.71162" lon="1.4794">
        <ele>180.947264</ele>
        <time>2023-07-30T13:45:51.000Z</time>
      </trkpt>
      <trkpt lat="43.71168" lon="1.47939">
        <ele>180.799378</ele>
        <time>2023-07-30T13:45:53.000Z</time>
      </trkpt>
      <trkpt lat="43.71168" lon="1.47939">
        <ele>180.799378</ele>
        <time>2023-07-30T13:45:53.000Z</time>
      </trkpt>
      <trkpt lat="43.71175" lon="1.47936">
        <ele>180.625501</ele>
        <time>2023-07-30T13:45:53.000Z</time>
      </trkpt>
      <trkpt lat="43.71175" lon="1.47936">
        <ele>180.625501</ele>
        <time>2023-07-30T13:45:53.000Z</time>
      </trkpt>
      <trkpt lat="43.7118" lon="1.47932">
        <ele>180.48665</ele>
        <time>2023-07-30T13:45:54.000Z</time>
      </trkpt>
      <trkpt lat="43.7118" lon="1.47932">
        <ele>180.48665</ele>
        <time>2023-07-30T13:45:54.000Z</time>
      </trkpt>
      <trkpt lat="43.71185" lon="1.47927">
        <ele>180.333405</ele>
        <time>2023-07-30T13:45:55.000Z</time>
      </trkpt>
      <trkpt lat="43.71185" lon="1.47927">
        <ele>180.333405</ele>
        <time>2023-07-30T13:45:55.000Z</time>
      </trkpt>
      <trkpt lat="43.7119" lon="1.47921">
        <ele>180.176541</ele>
        <time>2023-07-30T13:45:56.000Z</time>
      </trkpt>
      <trkpt lat="43.7119" lon="1.47921">
        <ele>180.176541</ele>
        <time>2023-07-30T13:45:56.000Z</time>
      </trkpt>
      <trkpt lat="43.71195" lon="1.47915">
        <ele>180.032646</ele>
        <time>2023-07-30T13:45:57.000Z</time>
      </trkpt>
      <trkpt lat="43.71199" lon="1.47908">
        <ele>179.869861</ele>
        <time>2023-07-30T13:45:58.000Z</time>
      </trkpt>
      <trkpt lat="43.71204" lon="1.47902">
        <ele>179.717876</ele>
        <time>2023-07-30T13:45:59.000Z</time>
      </trkpt>
      <trkpt lat="43.71204" lon="1.47902">
        <ele>179.717876</ele>
        <time>2023-07-30T13:45:59.000Z</time>
      </trkpt>
      <trkpt lat="43.71208" lon="1.47897">
        <ele>179.571714</ele>
        <time>2023-07-30T13:46:00.000Z</time>
      </trkpt>
      <trkpt lat="43.71212" lon="1.47891">
        <ele>179.427819</ele>
        <time>2023-07-30T13:46:01.000Z</time>
      </trkpt>
      <trkpt lat="43.71216" lon="1.47884">
        <ele>179.271498</ele>
        <time>2023-07-30T13:46:02.000Z</time>
      </trkpt>
      <trkpt lat="43.71216" lon="1.47884">
        <ele>179.271498</ele>
        <time>2023-07-30T13:46:02.000Z</time>
      </trkpt>
      <trkpt lat="43.71219" lon="1.47875">
        <ele>179.111796</ele>
        <time>2023-07-30T13:46:04.000Z</time>
      </trkpt>
      <trkpt lat="43.71222" lon="1.47867">
        <ele>178.952532</ele>
        <time>2023-07-30T13:46:05.000Z</time>
      </trkpt>
      <trkpt lat="43.71222" lon="1.47867">
        <ele>178.952532</ele>
        <time>2023-07-30T13:46:05.000Z</time>
      </trkpt>
      <trkpt lat="43.71225" lon="1.47859">
        <ele>178.79911</ele>
        <time>2023-07-30T13:46:05.000Z</time>
      </trkpt>
      <trkpt lat="43.71228" lon="1.4785">
        <ele>178.627459</ele>
        <time>2023-07-30T13:46:07.000Z</time>
      </trkpt>
      <trkpt lat="43.71228" lon="1.4785">
        <ele>178.627459</ele>
        <time>2023-07-30T13:46:07.000Z</time>
      </trkpt>
      <trkpt lat="43.7123" lon="1.47841">
        <ele>178.461582</ele>
        <time>2023-07-30T13:46:08.000Z</time>
      </trkpt>
      <trkpt lat="43.7123" lon="1.47841">
        <ele>178.461582</ele>
        <time>2023-07-30T13:46:08.000Z</time>
      </trkpt>
      <trkpt lat="43.71233" lon="1.47831">
        <ele>178.299364</ele>
        <time>2023-07-30T13:46:09.000Z</time>
      </trkpt>
      <trkpt lat="43.71233" lon="1.47831">
        <ele>178.299364</ele>
        <time>2023-07-30T13:46:09.000Z</time>
      </trkpt>
      <trkpt lat="43.71238" lon="1.4781">
        <ele>178.073473</ele>
        <time>2023-07-30T13:46:10.000Z</time>
      </trkpt>
      <trkpt lat="43.71238" lon="1.4781">
        <ele>178.073473</ele>
        <time>2023-07-30T13:46:10.000Z</time>
      </trkpt>
      <trkpt lat="43.7124" lon="1.47804">
        <ele>178.007119</ele>
        <time>2023-07-30T13:46:11.000Z</time>
      </trkpt>
      <trkpt lat="43.7124" lon="1.47804">
        <ele>178.007119</ele>
        <time>2023-07-30T13:46:11.000Z</time>
      </trkpt>
      <trkpt lat="43.71242" lon="1.47796">
        <ele>177.914892</ele>
        <time>2023-07-30T13:46:13.000Z</time>
      </trkpt>
      <trkpt lat="43.71244" lon="1.47788">
        <ele>177.82483</ele>
        <time>2023-07-30T13:46:14.000Z</time>
      </trkpt>
      <trkpt lat="43.71244" lon="1.47788">
        <ele>177.82483</ele>
        <time>2023-07-30T13:46:14.000Z</time>
      </trkpt>
      <trkpt lat="43.71248" lon="1.4778">
        <ele>177.726918</ele>
        <time>2023-07-30T13:46:15.000Z</time>
      </trkpt>
      <trkpt lat="43.71248" lon="1.4778">
        <ele>177.726918</ele>
        <time>2023-07-30T13:46:15.000Z</time>
      </trkpt>
      <trkpt lat="43.71251" lon="1.47772">
        <ele>177.629735</ele>
        <time>2023-07-30T13:46:16.000Z</time>
      </trkpt>
      <trkpt lat="43.71255" lon="1.47765">
        <ele>177.538759</ele>
        <time>2023-07-30T13:46:17.000Z</time>
      </trkpt>
      <trkpt lat="43.71255" lon="1.47765">
        <ele>177.538759</ele>
        <time>2023-07-30T13:46:17.000Z</time>
      </trkpt>
      <trkpt lat="43.71259" lon="1.47756">
        <ele>177.433638</ele>
        <time>2023-07-30T13:46:18.000Z</time>
      </trkpt>
      <trkpt lat="43.71259" lon="1.47756">
        <ele>177.433638</ele>
        <time>2023-07-30T13:46:18.000Z</time>
      </trkpt>
      <trkpt lat="43.71263" lon="1.47749">
        <ele>177.33861</ele>
        <time>2023-07-30T13:46:19.000Z</time>
      </trkpt>
      <trkpt lat="43.71263" lon="1.47749">
        <ele>177.33861</ele>
        <time>2023-07-30T13:46:19.000Z</time>
      </trkpt>
      <trkpt lat="43.71266" lon="1.47741">
        <ele>177.245986</ele>
        <time>2023-07-30T13:46:20.000Z</time>
      </trkpt>
      <trkpt lat="43.7127" lon="1.47733">
        <ele>177.144925</ele>
        <time>2023-07-30T13:46:21.000Z</time>
      </trkpt>
      <trkpt lat="43.71273" lon="1.47725">
        <ele>177.046843</ele>
        <time>2023-07-30T13:46:22.000Z</time>
      </trkpt>
      <trkpt lat="43.71277" lon="1.47717">
        <ele>176.955397</ele>
        <time>2023-07-30T13:46:22.000Z</time>
      </trkpt>
      <trkpt lat="43.7128" lon="1.47709">
        <ele>176.85911</ele>
        <time>2023-07-30T13:46:23.000Z</time>
      </trkpt>
      <trkpt lat="43.7128" lon="1.47709">
        <ele>176.85911</ele>
        <time>2023-07-30T13:46:23.000Z</time>
      </trkpt>
      <trkpt lat="43.71283" lon="1.47702">
        <ele>176.770746</ele>
        <time>2023-07-30T13:46:25.000Z</time>
      </trkpt>
      <trkpt lat="43.71283" lon="1.47702">
        <ele>176.770746</ele>
        <time>2023-07-30T13:46:25.000Z</time>
      </trkpt>
      <trkpt lat="43.71286" lon="1.47695">
        <ele>176.688209</ele>
        <time>2023-07-30T13:46:25.000Z</time>
      </trkpt>
      <trkpt lat="43.71286" lon="1.47695">
        <ele>176.688209</ele>
        <time>2023-07-30T13:46:25.000Z</time>
      </trkpt>
      <trkpt lat="43.71289" lon="1.4769">
        <ele>176.623179</ele>
        <time>2023-07-30T13:46:27.000Z</time>
      </trkpt>
      <trkpt lat="43.71289" lon="1.4769">
        <ele>176.623179</ele>
        <time>2023-07-30T13:46:27.000Z</time>
      </trkpt>
      <trkpt lat="43.71291" lon="1.47686">
        <ele>176.571772</ele>
        <time>2023-07-30T13:46:28.000Z</time>
      </trkpt>
      <trkpt lat="43.71292" lon="1.47684">
        <ele>176.539631</ele>
        <time>2023-07-30T13:46:29.000Z</time>
      </trkpt>
      <trkpt lat="43.71292" lon="1.47684">
        <ele>176.539631</ele>
        <time>2023-07-30T13:46:29.000Z</time>
      </trkpt>
      <trkpt lat="43.71294" lon="1.47683">
        <ele>176.511657</ele>
        <time>2023-07-30T13:46:30.000Z</time>
      </trkpt>
      <trkpt lat="43.71296" lon="1.47684">
        <ele>176.482477</ele>
        <time>2023-07-30T13:46:31.000Z</time>
      </trkpt>
      <trkpt lat="43.71299" lon="1.47686">
        <ele>176.432932</ele>
        <time>2023-07-30T13:46:32.000Z</time>
      </trkpt>
      <trkpt lat="43.71302" lon="1.47688">
        <ele>176.384671</ele>
        <time>2023-07-30T13:46:32.000Z</time>
      </trkpt>
      <trkpt lat="43.71306" lon="1.47691">
        <ele>176.318194</ele>
        <time>2023-07-30T13:46:33.000Z</time>
      </trkpt>
      <trkpt lat="43.71309" lon="1.47693">
        <ele>176.270328</ele>
        <time>2023-07-30T13:46:34.000Z</time>
      </trkpt>
      <trkpt lat="43.71315" lon="1.47693">
        <ele>176.194138</ele>
        <time>2023-07-30T13:46:37.000Z</time>
      </trkpt>
      <trkpt lat="43.71325" lon="1.477">
        <ele>176.032123</ele>
        <time>2023-07-30T13:46:37.000Z</time>
      </trkpt>
      <trkpt lat="43.71327" lon="1.47703">
        <ele>175.985488</ele>
        <time>2023-07-30T13:46:38.000Z</time>
      </trkpt>
      <trkpt lat="43.71327" lon="1.47703">
        <ele>175.985488</ele>
        <time>2023-07-30T13:46:38.000Z</time>
      </trkpt>
      <trkpt lat="43.71331" lon="1.47706">
        <ele>175.921088</ele>
        <time>2023-07-30T13:46:39.000Z</time>
      </trkpt>
      <trkpt lat="43.71331" lon="1.47706">
        <ele>175.921088</ele>
        <time>2023-07-30T13:46:39.000Z</time>
      </trkpt>
      <trkpt lat="43.71337" lon="1.47712">
        <ele>175.821926</ele>
        <time>2023-07-30T13:46:40.000Z</time>
      </trkpt>
      <trkpt lat="43.71342" lon="1.47717">
        <ele>175.768105</ele>
        <time>2023-07-30T13:46:41.000Z</time>
      </trkpt>
      <trkpt lat="43.71342" lon="1.47717">
        <ele>175.768105</ele>
        <time>2023-07-30T13:46:41.000Z</time>
      </trkpt>
      <trkpt lat="43.71347" lon="1.47721">
        <ele>175.824929</ele>
        <time>2023-07-30T13:46:43.000Z</time>
      </trkpt>
      <trkpt lat="43.71352" lon="1.47726">
        <ele>175.882125</ele>
        <time>2023-07-30T13:46:44.000Z</time>
      </trkpt>
      <trkpt lat="43.71352" lon="1.47726">
        <ele>175.882125</ele>
        <time>2023-07-30T13:46:44.000Z</time>
      </trkpt>
      <trkpt lat="43.71356" lon="1.4773">
        <ele>175.932313</ele>
        <time>2023-07-30T13:46:44.000Z</time>
      </trkpt>
      <trkpt lat="43.71356" lon="1.4773">
        <ele>175.932313</ele>
        <time>2023-07-30T13:46:44.000Z</time>
      </trkpt>
      <trkpt lat="43.7136" lon="1.47735">
        <ele>175.986383</ele>
        <time>2023-07-30T13:46:45.000Z</time>
      </trkpt>
      <trkpt lat="43.71365" lon="1.47739">
        <ele>176.040053</ele>
        <time>2023-07-30T13:46:46.000Z</time>
      </trkpt>
      <trkpt lat="43.71365" lon="1.47739">
        <ele>176.040053</ele>
        <time>2023-07-30T13:46:46.000Z</time>
      </trkpt>
      <trkpt lat="43.7137" lon="1.47744">
        <ele>176.093723</ele>
        <time>2023-07-30T13:46:47.000Z</time>
      </trkpt>
      <trkpt lat="43.7137" lon="1.47744">
        <ele>176.093723</ele>
        <time>2023-07-30T13:46:47.000Z</time>
      </trkpt>
      <trkpt lat="43.71374" lon="1.47748">
        <ele>176.145823</ele>
        <time>2023-07-30T13:46:48.000Z</time>
      </trkpt>
      <trkpt lat="43.71378" lon="1.47752">
        <ele>176.194011</ele>
        <time>2023-07-30T13:46:50.000Z</time>
      </trkpt>
      <trkpt lat="43.71383" lon="1.47757">
        <ele>176.247681</ele>
        <time>2023-07-30T13:46:50.000Z</time>
      </trkpt>
      <trkpt lat="43.71388" lon="1.47761">
        <ele>176.300956</ele>
        <time>2023-07-30T13:46:51.000Z</time>
      </trkpt>
      <trkpt lat="43.71392" lon="1.47765">
        <ele>176.349925</ele>
        <time>2023-07-30T13:46:52.000Z</time>
      </trkpt>
      <trkpt lat="43.71397" lon="1.4777">
        <ele>176.406336</ele>
        <time>2023-07-30T13:46:54.000Z</time>
      </trkpt>
      <trkpt lat="43.714" lon="1.47773">
        <ele>176.450603</ele>
        <time>2023-07-30T13:46:54.000Z</time>
      </trkpt>
      <trkpt lat="43.714" lon="1.47773">
        <ele>176.450603</ele>
        <time>2023-07-30T13:46:54.000Z</time>
      </trkpt>
      <trkpt lat="43.71405" lon="1.47777">
        <ele>176.499572</ele>
        <time>2023-07-30T13:46:55.000Z</time>
      </trkpt>
      <trkpt lat="43.7141" lon="1.47782">
        <ele>176.555296</ele>
        <time>2023-07-30T13:46:57.000Z</time>
      </trkpt>
      <trkpt lat="43.7141" lon="1.47782">
        <ele>176.555296</ele>
        <time>2023-07-30T13:46:57.000Z</time>
      </trkpt>
      <trkpt lat="43.71414" lon="1.47786">
        <ele>176.603483</ele>
        <time>2023-07-30T13:46:57.000Z</time>
      </trkpt>
      <trkpt lat="43.71414" lon="1.47786">
        <ele>176.603483</ele>
        <time>2023-07-30T13:46:57.000Z</time>
      </trkpt>
      <trkpt lat="43.71418" lon="1.47789">
        <ele>176.651671</ele>
        <time>2023-07-30T13:46:58.000Z</time>
      </trkpt>
      <trkpt lat="43.71422" lon="1.47793">
        <ele>176.699858</ele>
        <time>2023-07-30T13:47:00.000Z</time>
      </trkpt>
      <trkpt lat="43.71422" lon="1.47793">
        <ele>176.699858</ele>
        <time>2023-07-30T13:47:00.000Z</time>
      </trkpt>
      <trkpt lat="43.71427" lon="1.47798">
        <ele>176.752363</ele>
        <time>2023-07-30T13:47:00.000Z</time>
      </trkpt>
      <trkpt lat="43.71427" lon="1.47798">
        <ele>176.752363</ele>
        <time>2023-07-30T13:47:00.000Z</time>
      </trkpt>
      <trkpt lat="43.71431" lon="1.47802">
        <ele>176.800937</ele>
        <time>2023-07-30T13:47:01.000Z</time>
      </trkpt>
      <trkpt lat="43.71431" lon="1.47802">
        <ele>176.800937</ele>
        <time>2023-07-30T13:47:01.000Z</time>
      </trkpt>
      <trkpt lat="43.71435" lon="1.47806">
        <ele>176.851125</ele>
        <time>2023-07-30T13:47:02.000Z</time>
      </trkpt>
      <trkpt lat="43.71439" lon="1.4781">
        <ele>176.899312</ele>
        <time>2023-07-30T13:47:03.000Z</time>
      </trkpt>
      <trkpt lat="43.71439" lon="1.4781">
        <ele>176.899312</ele>
        <time>2023-07-30T13:47:03.000Z</time>
      </trkpt>
      <trkpt lat="43.71444" lon="1.47814">
        <ele>176.948681</ele>
        <time>2023-07-30T13:47:04.000Z</time>
      </trkpt>
      <trkpt lat="43.71444" lon="1.47814">
        <ele>176.948681</ele>
        <time>2023-07-30T13:47:04.000Z</time>
      </trkpt>
      <trkpt lat="43.71448" lon="1.47818">
        <ele>176.996868</ele>
        <time>2023-07-30T13:47:05.000Z</time>
      </trkpt>
      <trkpt lat="43.71448" lon="1.47818">
        <ele>176.996868</ele>
        <time>2023-07-30T13:47:05.000Z</time>
      </trkpt>
      <trkpt lat="43.71452" lon="1.47822">
        <ele>177.043881</ele>
        <time>2023-07-30T13:47:06.000Z</time>
      </trkpt>
      <trkpt lat="43.71452" lon="1.47822">
        <ele>177.043881</ele>
        <time>2023-07-30T13:47:06.000Z</time>
      </trkpt>
      <trkpt lat="43.71455" lon="1.47825">
        <ele>177.08423</ele>
        <time>2023-07-30T13:47:08.000Z</time>
      </trkpt>
      <trkpt lat="43.71459" lon="1.47828">
        <ele>177.122281</ele>
        <time>2023-07-30T13:47:09.000Z</time>
      </trkpt>
      <trkpt lat="43.71459" lon="1.47828">
        <ele>177.122281</ele>
        <time>2023-07-30T13:47:09.000Z</time>
      </trkpt>
      <trkpt lat="43.71461" lon="1.4783">
        <ele>177.146805</ele>
        <time>2023-07-30T13:47:10.000Z</time>
      </trkpt>
      <trkpt lat="43.71461" lon="1.4783">
        <ele>177.146805</ele>
        <time>2023-07-30T13:47:10.000Z</time>
      </trkpt>
      <trkpt lat="43.71463" lon="1.47832">
        <ele>177.169972</ele>
        <time>2023-07-30T13:47:11.000Z</time>
      </trkpt>
      <trkpt lat="43.71466" lon="1.47835">
        <ele>177.209937</ele>
        <time>2023-07-30T13:47:12.000Z</time>
      </trkpt>
      <trkpt lat="43.71469" lon="1.47838">
        <ele>177.241674</ele>
        <time>2023-07-30T13:47:12.000Z</time>
      </trkpt>
      <trkpt lat="43.71469" lon="1.47838">
        <ele>177.241674</ele>
        <time>2023-07-30T13:47:12.000Z</time>
      </trkpt>
      <trkpt lat="43.71472" lon="1.47841">
        <ele>177.277323</ele>
        <time>2023-07-30T13:47:14.000Z</time>
      </trkpt>
      <trkpt lat="43.71476" lon="1.47844">
        <ele>177.317288</ele>
        <time>2023-07-30T13:47:14.000Z</time>
      </trkpt>
      <trkpt lat="43.7148" lon="1.47848">
        <ele>177.370563</ele>
        <time>2023-07-30T13:47:16.000Z</time>
      </trkpt>
      <trkpt lat="43.7148" lon="1.47848">
        <ele>177.370563</ele>
        <time>2023-07-30T13:47:16.000Z</time>
      </trkpt>
      <trkpt lat="43.71484" lon="1.47853">
        <ele>177.420338</ele>
        <time>2023-07-30T13:47:17.000Z</time>
      </trkpt>
      <trkpt lat="43.71489" lon="1.47857">
        <ele>177.467218</ele>
        <time>2023-07-30T13:47:17.000Z</time>
      </trkpt>
      <trkpt lat="43.71489" lon="1.47857">
        <ele>177.467218</ele>
        <time>2023-07-30T13:47:17.000Z</time>
      </trkpt>
      <trkpt lat="43.71493" lon="1.47861">
        <ele>177.445108</ele>
        <time>2023-07-30T13:47:19.000Z</time>
      </trkpt>
      <trkpt lat="43.71497" lon="1.47865">
        <ele>177.424157</ele>
        <time>2023-07-30T13:47:19.000Z</time>
      </trkpt>
      <trkpt lat="43.71502" lon="1.4787">
        <ele>177.403377</ele>
        <time>2023-07-30T13:47:21.000Z</time>
      </trkpt>
      <trkpt lat="43.71507" lon="1.47874">
        <ele>177.37942</ele>
        <time>2023-07-30T13:47:22.000Z</time>
      </trkpt>
      <trkpt lat="43.71511" lon="1.47878">
        <ele>177.357609</ele>
        <time>2023-07-30T13:47:23.000Z</time>
      </trkpt>
      <trkpt lat="43.71515" lon="1.47882">
        <ele>177.336659</ele>
        <time>2023-07-30T13:47:24.000Z</time>
      </trkpt>
      <trkpt lat="43.71515" lon="1.47882">
        <ele>177.336659</ele>
        <time>2023-07-30T13:47:24.000Z</time>
      </trkpt>
      <trkpt lat="43.7152" lon="1.47886">
        <ele>177.314876</ele>
        <time>2023-07-30T13:47:25.000Z</time>
      </trkpt>
      <trkpt lat="43.71524" lon="1.4789">
        <ele>177.295249</ele>
        <time>2023-07-30T13:47:26.000Z</time>
      </trkpt>
      <trkpt lat="43.71528" lon="1.47894">
        <ele>177.275586</ele>
        <time>2023-07-30T13:47:27.000Z</time>
      </trkpt>
      <trkpt lat="43.71528" lon="1.47894">
        <ele>177.275586</ele>
        <time>2023-07-30T13:47:27.000Z</time>
      </trkpt>
      <trkpt lat="43.71531" lon="1.47898">
        <ele>177.256104</ele>
        <time>2023-07-30T13:47:28.000Z</time>
      </trkpt>
      <trkpt lat="43.71535" lon="1.47902">
        <ele>177.239314</ele>
        <time>2023-07-30T13:47:29.000Z</time>
      </trkpt>
      <trkpt lat="43.71535" lon="1.47902">
        <ele>177.239314</ele>
        <time>2023-07-30T13:47:29.000Z</time>
      </trkpt>
      <trkpt lat="43.71539" lon="1.47905">
        <ele>177.220205</ele>
        <time>2023-07-30T13:47:30.000Z</time>
      </trkpt>
      <trkpt lat="43.71539" lon="1.47905">
        <ele>177.220205</ele>
        <time>2023-07-30T13:47:30.000Z</time>
      </trkpt>
      <trkpt lat="43.71542" lon="1.47906">
        <ele>177.207456</ele>
        <time>2023-07-30T13:47:31.000Z</time>
      </trkpt>
      <trkpt lat="43.71542" lon="1.47906">
        <ele>177.207456</ele>
        <time>2023-07-30T13:47:31.000Z</time>
      </trkpt>
      <trkpt lat="43.71546" lon="1.47905">
        <ele>177.191958</ele>
        <time>2023-07-30T13:47:32.000Z</time>
      </trkpt>
      <trkpt lat="43.71546" lon="1.47905">
        <ele>177.191958</ele>
        <time>2023-07-30T13:47:32.000Z</time>
      </trkpt>
      <trkpt lat="43.7155" lon="1.47903">
        <ele>177.173696</ele>
        <time>2023-07-30T13:47:33.000Z</time>
      </trkpt>
      <trkpt lat="43.7155" lon="1.47903">
        <ele>177.173696</ele>
        <time>2023-07-30T13:47:33.000Z</time>
      </trkpt>
      <trkpt lat="43.71553" lon="1.479">
        <ele>177.158732</ele>
        <time>2023-07-30T13:47:34.000Z</time>
      </trkpt>
      <trkpt lat="43.71553" lon="1.479">
        <ele>177.158732</ele>
        <time>2023-07-30T13:47:34.000Z</time>
      </trkpt>
      <trkpt lat="43.71557" lon="1.47895">
        <ele>177.138393</ele>
        <time>2023-07-30T13:47:35.000Z</time>
      </trkpt>
      <trkpt lat="43.7156" lon="1.47889">
        <ele>177.11616</ele>
        <time>2023-07-30T13:47:36.000Z</time>
      </trkpt>
      <trkpt lat="43.7156" lon="1.47889">
        <ele>177.11616</ele>
        <time>2023-07-30T13:47:36.000Z</time>
      </trkpt>
      <trkpt lat="43.71564" lon="1.47884">
        <ele>177.094552</ele>
        <time>2023-07-30T13:47:37.000Z</time>
      </trkpt>
      <trkpt lat="43.71568" lon="1.47879">
        <ele>177.072152</ele>
        <time>2023-07-30T13:47:38.000Z</time>
      </trkpt>
      <trkpt lat="43.71568" lon="1.47879">
        <ele>177.072152</ele>
        <time>2023-07-30T13:47:38.000Z</time>
      </trkpt>
      <trkpt lat="43.71572" lon="1.47874">
        <ele>177.05135</ele>
        <time>2023-07-30T13:47:39.000Z</time>
      </trkpt>
      <trkpt lat="43.71576" lon="1.47869">
        <ele>177.02797</ele>
        <time>2023-07-30T13:47:40.000Z</time>
      </trkpt>
      <trkpt lat="43.71576" lon="1.47869">
        <ele>177.02797</ele>
        <time>2023-07-30T13:47:40.000Z</time>
      </trkpt>
      <trkpt lat="43.7158" lon="1.47863">
        <ele>177.007263</ele>
        <time>2023-07-30T13:47:41.000Z</time>
      </trkpt>
      <trkpt lat="43.7158" lon="1.47863">
        <ele>177.007263</ele>
        <time>2023-07-30T13:47:41.000Z</time>
      </trkpt>
      <trkpt lat="43.71584" lon="1.47857">
        <ele>176.983247</ele>
        <time>2023-07-30T13:47:42.000Z</time>
      </trkpt>
      <trkpt lat="43.71587" lon="1.4785">
        <ele>176.959564</ele>
        <time>2023-07-30T13:47:43.000Z</time>
      </trkpt>
      <trkpt lat="43.71587" lon="1.4785">
        <ele>176.959564</ele>
        <time>2023-07-30T13:47:43.000Z</time>
      </trkpt>
      <trkpt lat="43.71591" lon="1.47844">
        <ele>176.933869</ele>
        <time>2023-07-30T13:47:44.000Z</time>
      </trkpt>
      <trkpt lat="43.71595" lon="1.47838">
        <ele>176.910558</ele>
        <time>2023-07-30T13:47:45.000Z</time>
      </trkpt>
      <trkpt lat="43.71595" lon="1.47838">
        <ele>176.910558</ele>
        <time>2023-07-30T13:47:45.000Z</time>
      </trkpt>
      <trkpt lat="43.716" lon="1.47831">
        <ele>176.884185</ele>
        <time>2023-07-30T13:47:46.000Z</time>
      </trkpt>
      <trkpt lat="43.716" lon="1.47831">
        <ele>176.884185</ele>
        <time>2023-07-30T13:47:46.000Z</time>
      </trkpt>
      <trkpt lat="43.71604" lon="1.47825">
        <ele>176.859567</ele>
        <time>2023-07-30T13:47:47.000Z</time>
      </trkpt>
      <trkpt lat="43.71604" lon="1.47825">
        <ele>176.859567</ele>
        <time>2023-07-30T13:47:47.000Z</time>
      </trkpt>
      <trkpt lat="43.71608" lon="1.47819">
        <ele>176.832352</ele>
        <time>2023-07-30T13:47:48.000Z</time>
      </trkpt>
      <trkpt lat="43.71608" lon="1.47819">
        <ele>176.832352</ele>
        <time>2023-07-30T13:47:48.000Z</time>
      </trkpt>
      <trkpt lat="43.71613" lon="1.47812">
        <ele>176.805412</ele>
        <time>2023-07-30T13:47:49.000Z</time>
      </trkpt>
      <trkpt lat="43.71613" lon="1.47812">
        <ele>176.805412</ele>
        <time>2023-07-30T13:47:49.000Z</time>
      </trkpt>
      <trkpt lat="43.71618" lon="1.47805">
        <ele>176.777551</ele>
        <time>2023-07-30T13:47:50.000Z</time>
      </trkpt>
      <trkpt lat="43.71618" lon="1.47805">
        <ele>176.777551</ele>
        <time>2023-07-30T13:47:50.000Z</time>
      </trkpt>
      <trkpt lat="43.71622" lon="1.47798">
        <ele>176.751414</ele>
        <time>2023-07-30T13:47:51.000Z</time>
      </trkpt>
      <trkpt lat="43.71622" lon="1.47798">
        <ele>176.751414</ele>
        <time>2023-07-30T13:47:51.000Z</time>
      </trkpt>
      <trkpt lat="43.71626" lon="1.47791">
        <ele>176.639622</ele>
        <time>2023-07-30T13:47:52.000Z</time>
      </trkpt>
      <trkpt lat="43.71626" lon="1.47791">
        <ele>176.639622</ele>
        <time>2023-07-30T13:47:52.000Z</time>
      </trkpt>
      <trkpt lat="43.71631" lon="1.47783">
        <ele>176.480265</ele>
        <time>2023-07-30T13:47:52.000Z</time>
      </trkpt>
      <trkpt lat="43.71631" lon="1.47783">
        <ele>176.480265</ele>
        <time>2023-07-30T13:47:52.000Z</time>
      </trkpt>
      <trkpt lat="43.71635" lon="1.47776">
        <ele>176.326926</ele>
        <time>2023-07-30T13:47:54.000Z</time>
      </trkpt>
      <trkpt lat="43.71635" lon="1.47776">
        <ele>176.326926</ele>
        <time>2023-07-30T13:47:54.000Z</time>
      </trkpt>
      <trkpt lat="43.7164" lon="1.47769">
        <ele>176.166574</ele>
        <time>2023-07-30T13:47:55.000Z</time>
      </trkpt>
      <trkpt lat="43.7164" lon="1.47769">
        <ele>176.166574</ele>
        <time>2023-07-30T13:47:55.000Z</time>
      </trkpt>
      <trkpt lat="43.71645" lon="1.47762">
        <ele>175.999698</ele>
        <time>2023-07-30T13:47:56.000Z</time>
      </trkpt>
      <trkpt lat="43.71649" lon="1.47755">
        <ele>175.84765</ele>
        <time>2023-07-30T13:47:57.000Z</time>
      </trkpt>
      <trkpt lat="43.71649" lon="1.47755">
        <ele>175.84765</ele>
        <time>2023-07-30T13:47:57.000Z</time>
      </trkpt>
      <trkpt lat="43.71654" lon="1.47747">
        <ele>175.678348</ele>
        <time>2023-07-30T13:47:58.000Z</time>
      </trkpt>
      <trkpt lat="43.71654" lon="1.47747">
        <ele>175.678348</ele>
        <time>2023-07-30T13:47:58.000Z</time>
      </trkpt>
      <trkpt lat="43.71658" lon="1.47741">
        <ele>175.530348</ele>
        <time>2023-07-30T13:47:59.000Z</time>
      </trkpt>
      <trkpt lat="43.71658" lon="1.47741">
        <ele>175.530348</ele>
        <time>2023-07-30T13:47:59.000Z</time>
      </trkpt>
      <trkpt lat="43.71663" lon="1.47733">
        <ele>175.361046</ele>
        <time>2023-07-30T13:48:00.000Z</time>
      </trkpt>
      <trkpt lat="43.71663" lon="1.47733">
        <ele>175.361046</ele>
        <time>2023-07-30T13:48:00.000Z</time>
      </trkpt>
      <trkpt lat="43.71668" lon="1.47726">
        <ele>175.202929</ele>
        <time>2023-07-30T13:48:01.000Z</time>
      </trkpt>
      <trkpt lat="43.71668" lon="1.47726">
        <ele>175.202929</ele>
        <time>2023-07-30T13:48:01.000Z</time>
      </trkpt>
      <trkpt lat="43.71672" lon="1.4772">
        <ele>175.059688</ele>
        <time>2023-07-30T13:48:02.000Z</time>
      </trkpt>
      <trkpt lat="43.71672" lon="1.4772">
        <ele>175.059688</ele>
        <time>2023-07-30T13:48:02.000Z</time>
      </trkpt>
      <trkpt lat="43.71676" lon="1.47713">
        <ele>174.896563</ele>
        <time>2023-07-30T13:48:03.000Z</time>
      </trkpt>
      <trkpt lat="43.71676" lon="1.47713">
        <ele>174.896563</ele>
        <time>2023-07-30T13:48:03.000Z</time>
      </trkpt>
      <trkpt lat="43.7168" lon="1.47705">
        <ele>174.74073</ele>
        <time>2023-07-30T13:48:04.000Z</time>
      </trkpt>
      <trkpt lat="43.7168" lon="1.47705">
        <ele>174.74073</ele>
        <time>2023-07-30T13:48:04.000Z</time>
      </trkpt>
      <trkpt lat="43.71685" lon="1.47699">
        <ele>174.596255</ele>
        <time>2023-07-30T13:48:05.000Z</time>
      </trkpt>
      <trkpt lat="43.71685" lon="1.47699">
        <ele>174.596255</ele>
        <time>2023-07-30T13:48:05.000Z</time>
      </trkpt>
      <trkpt lat="43.71689" lon="1.47691">
        <ele>174.434394</ele>
        <time>2023-07-30T13:48:06.000Z</time>
      </trkpt>
      <trkpt lat="43.71694" lon="1.47684">
        <ele>174.272533</ele>
        <time>2023-07-30T13:48:07.000Z</time>
      </trkpt>
      <trkpt lat="43.71694" lon="1.47684">
        <ele>174.272533</ele>
        <time>2023-07-30T13:48:07.000Z</time>
      </trkpt>
      <trkpt lat="43.71698" lon="1.47677">
        <ele>174.120485</ele>
        <time>2023-07-30T13:48:08.000Z</time>
      </trkpt>
      <trkpt lat="43.71698" lon="1.47677">
        <ele>174.120485</ele>
        <time>2023-07-30T13:48:08.000Z</time>
      </trkpt>
      <trkpt lat="43.71702" lon="1.4767">
        <ele>173.97683</ele>
        <time>2023-07-30T13:48:09.000Z</time>
      </trkpt>
      <trkpt lat="43.71702" lon="1.4767">
        <ele>173.97683</ele>
        <time>2023-07-30T13:48:09.000Z</time>
      </trkpt>
      <trkpt lat="43.71706" lon="1.47663">
        <ele>173.824782</ele>
        <time>2023-07-30T13:48:10.000Z</time>
      </trkpt>
      <trkpt lat="43.7171" lon="1.47656">
        <ele>173.668844</ele>
        <time>2023-07-30T13:48:11.000Z</time>
      </trkpt>
      <trkpt lat="43.71714" lon="1.47649">
        <ele>173.526508</ele>
        <time>2023-07-30T13:48:12.000Z</time>
      </trkpt>
      <trkpt lat="43.71714" lon="1.47649">
        <ele>173.526508</ele>
        <time>2023-07-30T13:48:12.000Z</time>
      </trkpt>
      <trkpt lat="43.71719" lon="1.47643">
        <ele>173.373272</ele>
        <time>2023-07-30T13:48:13.000Z</time>
      </trkpt>
      <trkpt lat="43.71719" lon="1.47643">
        <ele>173.373272</ele>
        <time>2023-07-30T13:48:13.000Z</time>
      </trkpt>
      <trkpt lat="43.71723" lon="1.47636">
        <ele>173.222425</ele>
        <time>2023-07-30T13:48:14.000Z</time>
      </trkpt>
      <trkpt lat="43.71723" lon="1.47636">
        <ele>173.222425</ele>
        <time>2023-07-30T13:48:14.000Z</time>
      </trkpt>
      <trkpt lat="43.71727" lon="1.4763">
        <ele>173.077951</ele>
        <time>2023-07-30T13:48:15.000Z</time>
      </trkpt>
      <trkpt lat="43.71727" lon="1.4763">
        <ele>173.077951</ele>
        <time>2023-07-30T13:48:15.000Z</time>
      </trkpt>
      <trkpt lat="43.71732" lon="1.47624">
        <ele>172.93471</ele>
        <time>2023-07-30T13:48:16.000Z</time>
      </trkpt>
      <trkpt lat="43.71736" lon="1.47617">
        <ele>172.780622</ele>
        <time>2023-07-30T13:48:17.000Z</time>
      </trkpt>
      <trkpt lat="43.71736" lon="1.47617">
        <ele>172.780622</ele>
        <time>2023-07-30T13:48:17.000Z</time>
      </trkpt>
      <trkpt lat="43.71741" lon="1.4761">
        <ele>172.621266</ele>
        <time>2023-07-30T13:48:18.000Z</time>
      </trkpt>
      <trkpt lat="43.71741" lon="1.4761">
        <ele>172.621266</ele>
        <time>2023-07-30T13:48:18.000Z</time>
      </trkpt>
      <trkpt lat="43.71745" lon="1.47603">
        <ele>172.508012</ele>
        <time>2023-07-30T13:48:19.000Z</time>
      </trkpt>
      <trkpt lat="43.71749" lon="1.47596">
        <ele>172.405762</ele>
        <time>2023-07-30T13:48:20.000Z</time>
      </trkpt>
      <trkpt lat="43.71753" lon="1.47589">
        <ele>172.305237</ele>
        <time>2023-07-30T13:48:21.000Z</time>
      </trkpt>
      <trkpt lat="43.71758" lon="1.47582">
        <ele>172.194606</ele>
        <time>2023-07-30T13:48:22.000Z</time>
      </trkpt>
      <trkpt lat="43.71762" lon="1.47575">
        <ele>172.093221</ele>
        <time>2023-07-30T13:48:23.000Z</time>
      </trkpt>
      <trkpt lat="43.71767" lon="1.47569">
        <ele>171.988478</ele>
        <time>2023-07-30T13:48:24.000Z</time>
      </trkpt>
      <trkpt lat="43.71772" lon="1.47561">
        <ele>171.875557</ele>
        <time>2023-07-30T13:48:25.000Z</time>
      </trkpt>
      <trkpt lat="43.71776" lon="1.47554">
        <ele>171.772438</ele>
        <time>2023-07-30T13:48:26.000Z</time>
      </trkpt>
      <trkpt lat="43.71776" lon="1.47554">
        <ele>171.772438</ele>
        <time>2023-07-30T13:48:26.000Z</time>
      </trkpt>
      <trkpt lat="43.7178" lon="1.47547">
        <ele>171.671054</ele>
        <time>2023-07-30T13:48:27.000Z</time>
      </trkpt>
      <trkpt lat="43.7178" lon="1.47547">
        <ele>171.671054</ele>
        <time>2023-07-30T13:48:27.000Z</time>
      </trkpt>
      <trkpt lat="43.71784" lon="1.47541">
        <ele>171.569669</ele>
        <time>2023-07-30T13:48:27.000Z</time>
      </trkpt>
      <trkpt lat="43.71789" lon="1.47533">
        <ele>171.45485</ele>
        <time>2023-07-30T13:48:29.000Z</time>
      </trkpt>
      <trkpt lat="43.71789" lon="1.47533">
        <ele>171.45485</ele>
        <time>2023-07-30T13:48:29.000Z</time>
      </trkpt>
      <trkpt lat="43.71793" lon="1.47526">
        <ele>171.349093</ele>
        <time>2023-07-30T13:48:29.000Z</time>
      </trkpt>
      <trkpt lat="43.71793" lon="1.47526">
        <ele>171.349093</ele>
        <time>2023-07-30T13:48:29.000Z</time>
      </trkpt>
      <trkpt lat="43.71798" lon="1.47519">
        <ele>171.246844</ele>
        <time>2023-07-30T13:48:30.000Z</time>
      </trkpt>
      <trkpt lat="43.71802" lon="1.47512">
        <ele>171.141087</ele>
        <time>2023-07-30T13:48:32.000Z</time>
      </trkpt>
      <trkpt lat="43.71802" lon="1.47512">
        <ele>171.141087</ele>
        <time>2023-07-30T13:48:32.000Z</time>
      </trkpt>
      <trkpt lat="43.71806" lon="1.47505">
        <ele>171.033198</ele>
        <time>2023-07-30T13:48:32.000Z</time>
      </trkpt>
      <trkpt lat="43.71811" lon="1.47497">
        <ele>170.925123</ele>
        <time>2023-07-30T13:48:34.000Z</time>
      </trkpt>
      <trkpt lat="43.71815" lon="1.47491">
        <ele>170.827977</ele>
        <time>2023-07-30T13:48:34.000Z</time>
      </trkpt>
      <trkpt lat="43.71819" lon="1.47484">
        <ele>170.726593</ele>
        <time>2023-07-30T13:48:36.000Z</time>
      </trkpt>
      <trkpt lat="43.71819" lon="1.47484">
        <ele>170.726593</ele>
        <time>2023-07-30T13:48:36.000Z</time>
      </trkpt>
      <trkpt lat="43.71824" lon="1.47477">
        <ele>170.61936</ele>
        <time>2023-07-30T13:48:36.000Z</time>
      </trkpt>
      <trkpt lat="43.71829" lon="1.47471">
        <ele>170.514617</ele>
        <time>2023-07-30T13:48:37.000Z</time>
      </trkpt>
      <trkpt lat="43.71829" lon="1.47471">
        <ele>170.514617</ele>
        <time>2023-07-30T13:48:37.000Z</time>
      </trkpt>
      <trkpt lat="43.71833" lon="1.47463">
        <ele>170.405003</ele>
        <time>2023-07-30T13:48:39.000Z</time>
      </trkpt>
      <trkpt lat="43.71833" lon="1.47463">
        <ele>170.405003</ele>
        <time>2023-07-30T13:48:39.000Z</time>
      </trkpt>
      <trkpt lat="43.71838" lon="1.47456">
        <ele>170.296929</ele>
        <time>2023-07-30T13:48:39.000Z</time>
      </trkpt>
      <trkpt lat="43.71842" lon="1.47449">
        <ele>170.185437</ele>
        <time>2023-07-30T13:48:41.000Z</time>
      </trkpt>
      <trkpt lat="43.71842" lon="1.47449">
        <ele>170.185437</ele>
        <time>2023-07-30T13:48:41.000Z</time>
      </trkpt>
      <trkpt lat="43.71847" lon="1.47441">
        <ele>170.073946</ele>
        <time>2023-07-30T13:48:41.000Z</time>
      </trkpt>
      <trkpt lat="43.71847" lon="1.47441">
        <ele>170.073946</ele>
        <time>2023-07-30T13:48:41.000Z</time>
      </trkpt>
      <trkpt lat="43.71852" lon="1.47433">
        <ele>169.957662</ele>
        <time>2023-07-30T13:48:42.000Z</time>
      </trkpt>
      <trkpt lat="43.71852" lon="1.47433">
        <ele>169.957662</ele>
        <time>2023-07-30T13:48:42.000Z</time>
      </trkpt>
      <trkpt lat="43.71856" lon="1.47426">
        <ele>169.848741</ele>
        <time>2023-07-30T13:48:44.000Z</time>
      </trkpt>
      <trkpt lat="43.71856" lon="1.47426">
        <ele>169.848741</ele>
        <time>2023-07-30T13:48:44.000Z</time>
      </trkpt>
      <trkpt lat="43.71861" lon="1.47418">
        <ele>169.718931</ele>
        <time>2023-07-30T13:48:45.000Z</time>
      </trkpt>
      <trkpt lat="43.71861" lon="1.47418">
        <ele>169.718931</ele>
        <time>2023-07-30T13:48:45.000Z</time>
      </trkpt>
      <trkpt lat="43.71867" lon="1.4741">
        <ele>169.546567</ele>
        <time>2023-07-30T13:48:46.000Z</time>
      </trkpt>
      <trkpt lat="43.71867" lon="1.4741">
        <ele>169.546567</ele>
        <time>2023-07-30T13:48:46.000Z</time>
      </trkpt>
      <trkpt lat="43.71871" lon="1.47403">
        <ele>169.390041</ele>
        <time>2023-07-30T13:48:47.000Z</time>
      </trkpt>
      <trkpt lat="43.71871" lon="1.47403">
        <ele>169.390041</ele>
        <time>2023-07-30T13:48:47.000Z</time>
      </trkpt>
      <trkpt lat="43.71876" lon="1.47395">
        <ele>169.226927</ele>
        <time>2023-07-30T13:48:48.000Z</time>
      </trkpt>
      <trkpt lat="43.71876" lon="1.47395">
        <ele>169.226927</ele>
        <time>2023-07-30T13:48:48.000Z</time>
      </trkpt>
      <trkpt lat="43.7188" lon="1.47388">
        <ele>169.094561</ele>
        <time>2023-07-30T13:48:49.000Z</time>
      </trkpt>
      <trkpt lat="43.7188" lon="1.47388">
        <ele>169.094561</ele>
        <time>2023-07-30T13:48:49.000Z</time>
      </trkpt>
      <trkpt lat="43.71885" lon="1.47379">
        <ele>168.91508</ele>
        <time>2023-07-30T13:48:50.000Z</time>
      </trkpt>
      <trkpt lat="43.71885" lon="1.47379">
        <ele>168.91508</ele>
        <time>2023-07-30T13:48:50.000Z</time>
      </trkpt>
      <trkpt lat="43.7189" lon="1.47371">
        <ele>168.750547</ele>
        <time>2023-07-30T13:48:51.000Z</time>
      </trkpt>
      <trkpt lat="43.7189" lon="1.47371">
        <ele>168.750547</ele>
        <time>2023-07-30T13:48:51.000Z</time>
      </trkpt>
      <trkpt lat="43.71895" lon="1.47364">
        <ele>168.589799</ele>
        <time>2023-07-30T13:48:52.000Z</time>
      </trkpt>
      <trkpt lat="43.71895" lon="1.47364">
        <ele>168.589799</ele>
        <time>2023-07-30T13:48:52.000Z</time>
      </trkpt>
      <trkpt lat="43.71901" lon="1.47355">
        <ele>168.410115</ele>
        <time>2023-07-30T13:48:53.000Z</time>
      </trkpt>
      <trkpt lat="43.71901" lon="1.47355">
        <ele>168.410115</ele>
        <time>2023-07-30T13:48:53.000Z</time>
      </trkpt>
      <trkpt lat="43.71907" lon="1.47346">
        <ele>168.214496</ele>
        <time>2023-07-30T13:48:54.000Z</time>
      </trkpt>
      <trkpt lat="43.71907" lon="1.47346">
        <ele>168.214496</ele>
        <time>2023-07-30T13:48:54.000Z</time>
      </trkpt>
      <trkpt lat="43.71912" lon="1.47338">
        <ele>168.043297</ele>
        <time>2023-07-30T13:48:55.000Z</time>
      </trkpt>
      <trkpt lat="43.71912" lon="1.47338">
        <ele>168.043297</ele>
        <time>2023-07-30T13:48:55.000Z</time>
      </trkpt>
      <trkpt lat="43.71917" lon="1.4733">
        <ele>167.873257</ele>
        <time>2023-07-30T13:48:56.000Z</time>
      </trkpt>
      <trkpt lat="43.71917" lon="1.4733">
        <ele>167.873257</ele>
        <time>2023-07-30T13:48:56.000Z</time>
      </trkpt>
      <trkpt lat="43.71922" lon="1.47322">
        <ele>167.708724</ele>
        <time>2023-07-30T13:48:57.000Z</time>
      </trkpt>
      <trkpt lat="43.71922" lon="1.47322">
        <ele>167.708724</ele>
        <time>2023-07-30T13:48:57.000Z</time>
      </trkpt>
      <trkpt lat="43.71928" lon="1.47314">
        <ele>167.536361</ele>
        <time>2023-07-30T13:48:58.000Z</time>
      </trkpt>
      <trkpt lat="43.71928" lon="1.47314">
        <ele>167.536361</ele>
        <time>2023-07-30T13:48:58.000Z</time>
      </trkpt>
      <trkpt lat="43.71933" lon="1.47306">
        <ele>167.370647</ele>
        <time>2023-07-30T13:48:59.000Z</time>
      </trkpt>
      <trkpt lat="43.71933" lon="1.47306">
        <ele>167.370647</ele>
        <time>2023-07-30T13:48:59.000Z</time>
      </trkpt>
      <trkpt lat="43.71938" lon="1.47297">
        <ele>167.200143</ele>
        <time>2023-07-30T13:49:00.000Z</time>
      </trkpt>
      <trkpt lat="43.71943" lon="1.47289">
        <ele>167.038216</ele>
        <time>2023-07-30T13:49:01.000Z</time>
      </trkpt>
      <trkpt lat="43.71943" lon="1.47289">
        <ele>167.038216</ele>
        <time>2023-07-30T13:49:01.000Z</time>
      </trkpt>
      <trkpt lat="43.71947" lon="1.47282">
        <ele>166.882895</ele>
        <time>2023-07-30T13:49:02.000Z</time>
      </trkpt>
      <trkpt lat="43.71952" lon="1.47274">
        <ele>166.714008</ele>
        <time>2023-07-30T13:49:03.000Z</time>
      </trkpt>
      <trkpt lat="43.71952" lon="1.47274">
        <ele>166.714008</ele>
        <time>2023-07-30T13:49:03.000Z</time>
      </trkpt>
      <trkpt lat="43.71957" lon="1.47266">
        <ele>166.552982</ele>
        <time>2023-07-30T13:49:04.000Z</time>
      </trkpt>
      <trkpt lat="43.71962" lon="1.47259">
        <ele>166.404745</ele>
        <time>2023-07-30T13:49:05.000Z</time>
      </trkpt>
      <trkpt lat="43.71967" lon="1.47252">
        <ele>166.245171</ele>
        <time>2023-07-30T13:49:06.000Z</time>
      </trkpt>
      <trkpt lat="43.71971" lon="1.47244">
        <ele>166.097748</ele>
        <time>2023-07-30T13:49:07.000Z</time>
      </trkpt>
      <trkpt lat="43.71976" lon="1.47237">
        <ele>165.947178</ele>
        <time>2023-07-30T13:49:08.000Z</time>
      </trkpt>
      <trkpt lat="43.71981" lon="1.4723">
        <ele>165.825791</ele>
        <time>2023-07-30T13:49:09.000Z</time>
      </trkpt>
      <trkpt lat="43.71985" lon="1.47224">
        <ele>165.756685</ele>
        <time>2023-07-30T13:49:10.000Z</time>
      </trkpt>
      <trkpt lat="43.71985" lon="1.47224">
        <ele>165.756685</ele>
        <time>2023-07-30T13:49:10.000Z</time>
      </trkpt>
      <trkpt lat="43.71991" lon="1.47217">
        <ele>165.677648</ele>
        <time>2023-07-30T13:49:11.000Z</time>
      </trkpt>
      <trkpt lat="43.71995" lon="1.47211">
        <ele>165.604382</ele>
        <time>2023-07-30T13:49:12.000Z</time>
      </trkpt>
      <trkpt lat="43.71995" lon="1.47211">
        <ele>165.604382</ele>
        <time>2023-07-30T13:49:12.000Z</time>
      </trkpt>
      <trkpt lat="43.72" lon="1.47203">
        <ele>165.525975</ele>
        <time>2023-07-30T13:49:13.000Z</time>
      </trkpt>
      <trkpt lat="43.72005" lon="1.47196">
        <ele>165.447382</ele>
        <time>2023-07-30T13:49:14.000Z</time>
      </trkpt>
      <trkpt lat="43.7201" lon="1.4719">
        <ele>165.374007</ele>
        <time>2023-07-30T13:49:15.000Z</time>
      </trkpt>
      <trkpt lat="43.7201" lon="1.4719">
        <ele>165.374007</ele>
        <time>2023-07-30T13:49:15.000Z</time>
      </trkpt>
      <trkpt lat="43.72015" lon="1.47184">
        <ele>165.299288</ele>
        <time>2023-07-30T13:49:16.000Z</time>
      </trkpt>
      <trkpt lat="43.7202" lon="1.47177">
        <ele>165.229394</ele>
        <time>2023-07-30T13:49:17.000Z</time>
      </trkpt>
      <trkpt lat="43.72025" lon="1.47171">
        <ele>165.150643</ele>
        <time>2023-07-30T13:49:18.000Z</time>
      </trkpt>
      <trkpt lat="43.72025" lon="1.47171">
        <ele>165.150643</ele>
        <time>2023-07-30T13:49:18.000Z</time>
      </trkpt>
      <trkpt lat="43.7203" lon="1.47165">
        <ele>165.081296</ele>
        <time>2023-07-30T13:49:19.000Z</time>
      </trkpt>
      <trkpt lat="43.7203" lon="1.47165">
        <ele>165.081296</ele>
        <time>2023-07-30T13:49:19.000Z</time>
      </trkpt>
      <trkpt lat="43.72035" lon="1.47158">
        <ele>165.006577</ele>
        <time>2023-07-30T13:49:20.000Z</time>
      </trkpt>
      <trkpt lat="43.72039" lon="1.47152">
        <ele>164.938024</ele>
        <time>2023-07-30T13:49:21.000Z</time>
      </trkpt>
      <trkpt lat="43.72039" lon="1.47152">
        <ele>164.938024</ele>
        <time>2023-07-30T13:49:21.000Z</time>
      </trkpt>
      <trkpt lat="43.72044" lon="1.47146">
        <ele>164.868677</ele>
        <time>2023-07-30T13:49:22.000Z</time>
      </trkpt>
      <trkpt lat="43.72049" lon="1.47141">
        <ele>164.79761</ele>
        <time>2023-07-30T13:49:23.000Z</time>
      </trkpt>
      <trkpt lat="43.72049" lon="1.47141">
        <ele>164.79761</ele>
        <time>2023-07-30T13:49:23.000Z</time>
      </trkpt>
      <trkpt lat="43.72054" lon="1.47134">
        <ele>164.720963</ele>
        <time>2023-07-30T13:49:24.000Z</time>
      </trkpt>
      <trkpt lat="43.72054" lon="1.47134">
        <ele>164.720963</ele>
        <time>2023-07-30T13:49:24.000Z</time>
      </trkpt>
      <trkpt lat="43.72059" lon="1.47128">
        <ele>164.649963</ele>
        <time>2023-07-30T13:49:25.000Z</time>
      </trkpt>
      <trkpt lat="43.72062" lon="1.47122">
        <ele>164.583682</ele>
        <time>2023-07-30T13:49:26.000Z</time>
      </trkpt>
      <trkpt lat="43.72065" lon="1.47115">
        <ele>164.522601</ele>
        <time>2023-07-30T13:49:27.000Z</time>
      </trkpt>
      <trkpt lat="43.72068" lon="1.4711">
        <ele>164.474831</ele>
        <time>2023-07-30T13:49:28.000Z</time>
      </trkpt>
      <trkpt lat="43.7207" lon="1.47106">
        <ele>164.434924</ele>
        <time>2023-07-30T13:49:29.000Z</time>
      </trkpt>
      <trkpt lat="43.72072" lon="1.47103">
        <ele>164.407242</ele>
        <time>2023-07-30T13:49:30.000Z</time>
      </trkpt>
      <trkpt lat="43.72073" lon="1.47102">
        <ele>164.390847</ele>
        <time>2023-07-30T13:49:31.000Z</time>
      </trkpt>
      <trkpt lat="43.72075" lon="1.47101">
        <ele>164.368817</ele>
        <time>2023-07-30T13:49:44.000Z</time>
      </trkpt>
      <trkpt lat="43.72075" lon="1.47101">
        <ele>164.368817</ele>
        <time>2023-07-30T13:49:44.000Z</time>
      </trkpt>
      <trkpt lat="43.72074" lon="1.471">
        <ele>164.360441</ele>
        <time>2023-07-30T13:49:56.000Z</time>
      </trkpt>
      <trkpt lat="43.72074" lon="1.471">
        <ele>164.360441</ele>
        <time>2023-07-30T13:49:56.000Z</time>
      </trkpt>
      <trkpt lat="43.72079" lon="1.47101">
        <ele>164.305386</ele>
        <time>2023-07-30T13:49:59.000Z</time>
      </trkpt>
      <trkpt lat="43.72081" lon="1.471">
        <ele>164.284008</ele>
        <time>2023-07-30T13:50:00.000Z</time>
      </trkpt>
      <trkpt lat="43.72083" lon="1.47099">
        <ele>164.260011</ele>
        <time>2023-07-30T13:50:01.000Z</time>
      </trkpt>
      <trkpt lat="43.72083" lon="1.47099">
        <ele>164.260011</ele>
        <time>2023-07-30T13:50:01.000Z</time>
      </trkpt>
      <trkpt lat="43.72086" lon="1.47096">
        <ele>164.224808</ele>
        <time>2023-07-30T13:50:02.000Z</time>
      </trkpt>
      <trkpt lat="43.72089" lon="1.47094">
        <ele>164.187185</ele>
        <time>2023-07-30T13:50:03.000Z</time>
      </trkpt>
      <trkpt lat="43.72089" lon="1.47094">
        <ele>164.187185</ele>
        <time>2023-07-30T13:50:03.000Z</time>
      </trkpt>
      <trkpt lat="43.72092" lon="1.4709">
        <ele>164.139345</ele>
        <time>2023-07-30T13:50:04.000Z</time>
      </trkpt>
      <trkpt lat="43.72092" lon="1.4709">
        <ele>164.139345</ele>
        <time>2023-07-30T13:50:04.000Z</time>
      </trkpt>
      <trkpt lat="43.72096" lon="1.47087">
        <ele>164.088373</ele>
        <time>2023-07-30T13:50:05.000Z</time>
      </trkpt>
      <trkpt lat="43.72099" lon="1.47083">
        <ele>164.041409</ele>
        <time>2023-07-30T13:50:07.000Z</time>
      </trkpt>
      <trkpt lat="43.72102" lon="1.47079">
        <ele>163.993815</ele>
        <time>2023-07-30T13:50:08.000Z</time>
      </trkpt>
      <trkpt lat="43.72107" lon="1.47074">
        <ele>163.93541</ele>
        <time>2023-07-30T13:50:09.000Z</time>
      </trkpt>
      <trkpt lat="43.72107" lon="1.47074">
        <ele>163.93541</ele>
        <time>2023-07-30T13:50:09.000Z</time>
      </trkpt>
      <trkpt lat="43.7211" lon="1.4707">
        <ele>163.889978</ele>
        <time>2023-07-30T13:50:10.000Z</time>
      </trkpt>
      <trkpt lat="43.72113" lon="1.47066">
        <ele>163.818637</ele>
        <time>2023-07-30T13:50:11.000Z</time>
      </trkpt>
      <trkpt lat="43.72113" lon="1.47066">
        <ele>163.818637</ele>
        <time>2023-07-30T13:50:11.000Z</time>
      </trkpt>
      <trkpt lat="43.72119" lon="1.4706">
        <ele>163.72057</ele>
        <time>2023-07-30T13:50:12.000Z</time>
      </trkpt>
      <trkpt lat="43.72119" lon="1.4706">
        <ele>163.72057</ele>
        <time>2023-07-30T13:50:12.000Z</time>
      </trkpt>
      <trkpt lat="43.72124" lon="1.47054">
        <ele>163.622985</ele>
        <time>2023-07-30T13:50:13.000Z</time>
      </trkpt>
      <trkpt lat="43.72124" lon="1.47054">
        <ele>163.622985</ele>
        <time>2023-07-30T13:50:13.000Z</time>
      </trkpt>
      <trkpt lat="43.72129" lon="1.4705">
        <ele>163.541565</ele>
        <time>2023-07-30T13:50:14.000Z</time>
      </trkpt>
      <trkpt lat="43.72134" lon="1.47045">
        <ele>163.457766</ele>
        <time>2023-07-30T13:50:15.000Z</time>
      </trkpt>
      <trkpt lat="43.72134" lon="1.47045">
        <ele>163.457766</ele>
        <time>2023-07-30T13:50:15.000Z</time>
      </trkpt>
      <trkpt lat="43.72139" lon="1.47041">
        <ele>163.36337</ele>
        <time>2023-07-30T13:50:16.000Z</time>
      </trkpt>
      <trkpt lat="43.72145" lon="1.47037">
        <ele>163.270236</ele>
        <time>2023-07-30T13:50:17.000Z</time>
      </trkpt>
      <trkpt lat="43.72145" lon="1.47037">
        <ele>163.270236</ele>
        <time>2023-07-30T13:50:17.000Z</time>
      </trkpt>
      <trkpt lat="43.7215" lon="1.47032">
        <ele>163.183128</ele>
        <time>2023-07-30T13:50:18.000Z</time>
      </trkpt>
      <trkpt lat="43.72156" lon="1.47028">
        <ele>163.090486</ele>
        <time>2023-07-30T13:50:19.000Z</time>
      </trkpt>
      <trkpt lat="43.72156" lon="1.47028">
        <ele>163.090486</ele>
        <time>2023-07-30T13:50:19.000Z</time>
      </trkpt>
      <trkpt lat="43.72162" lon="1.47024">
        <ele>163.003576</ele>
        <time>2023-07-30T13:50:20.000Z</time>
      </trkpt>
      <trkpt lat="43.72162" lon="1.47024">
        <ele>163.003576</ele>
        <time>2023-07-30T13:50:20.000Z</time>
      </trkpt>
      <trkpt lat="43.72167" lon="1.4702">
        <ele>162.909941</ele>
        <time>2023-07-30T13:50:21.000Z</time>
      </trkpt>
      <trkpt lat="43.72167" lon="1.4702">
        <ele>162.909941</ele>
        <time>2023-07-30T13:50:21.000Z</time>
      </trkpt>
      <trkpt lat="43.72173" lon="1.47015">
        <ele>162.815279</ele>
        <time>2023-07-30T13:50:22.000Z</time>
      </trkpt>
      <trkpt lat="43.72173" lon="1.47015">
        <ele>162.815279</ele>
        <time>2023-07-30T13:50:22.000Z</time>
      </trkpt>
      <trkpt lat="43.7218" lon="1.4701">
        <ele>162.702564</ele>
        <time>2023-07-30T13:50:23.000Z</time>
      </trkpt>
      <trkpt lat="43.7218" lon="1.4701">
        <ele>162.702564</ele>
        <time>2023-07-30T13:50:23.000Z</time>
      </trkpt>
      <trkpt lat="43.72186" lon="1.47006">
        <ele>162.60842</ele>
        <time>2023-07-30T13:50:24.000Z</time>
      </trkpt>
      <trkpt lat="43.72191" lon="1.47001">
        <ele>162.519041</ele>
        <time>2023-07-30T13:50:25.000Z</time>
      </trkpt>
      <trkpt lat="43.72191" lon="1.47001">
        <ele>162.519041</ele>
        <time>2023-07-30T13:50:25.000Z</time>
      </trkpt>
      <trkpt lat="43.72197" lon="1.46997">
        <ele>162.425907</ele>
        <time>2023-07-30T13:50:26.000Z</time>
      </trkpt>
      <trkpt lat="43.72202" lon="1.46993">
        <ele>162.331763</ele>
        <time>2023-07-30T13:50:27.000Z</time>
      </trkpt>
      <trkpt lat="43.72208" lon="1.46988">
        <ele>162.238629</ele>
        <time>2023-07-30T13:50:28.000Z</time>
      </trkpt>
      <trkpt lat="43.72213" lon="1.46984">
        <ele>162.14925</ele>
        <time>2023-07-30T13:50:29.000Z</time>
      </trkpt>
      <trkpt lat="43.72219" lon="1.4698">
        <ele>162.055616</ele>
        <time>2023-07-30T13:50:30.000Z</time>
      </trkpt>
      <trkpt lat="43.72219" lon="1.4698">
        <ele>162.055616</ele>
        <time>2023-07-30T13:50:30.000Z</time>
      </trkpt>
      <trkpt lat="43.72224" lon="1.46976">
        <ele>161.975536</ele>
        <time>2023-07-30T13:50:31.000Z</time>
      </trkpt>
      <trkpt lat="43.72224" lon="1.46976">
        <ele>161.975536</ele>
        <time>2023-07-30T13:50:31.000Z</time>
      </trkpt>
      <trkpt lat="43.7223" lon="1.46972">
        <ele>161.88114</ele>
        <time>2023-07-30T13:50:32.000Z</time>
      </trkpt>
      <trkpt lat="43.72236" lon="1.46967">
        <ele>161.788007</ele>
        <time>2023-07-30T13:50:33.000Z</time>
      </trkpt>
      <trkpt lat="43.72236" lon="1.46967">
        <ele>161.788007</ele>
        <time>2023-07-30T13:50:33.000Z</time>
      </trkpt>
      <trkpt lat="43.72241" lon="1.46963">
        <ele>161.695847</ele>
        <time>2023-07-30T13:50:34.000Z</time>
      </trkpt>
      <trkpt lat="43.72247" lon="1.4696">
        <ele>161.605526</ele>
        <time>2023-07-30T13:50:35.000Z</time>
      </trkpt>
      <trkpt lat="43.72247" lon="1.4696">
        <ele>161.605526</ele>
        <time>2023-07-30T13:50:35.000Z</time>
      </trkpt>
      <trkpt lat="43.72253" lon="1.46956">
        <ele>161.513017</ele>
        <time>2023-07-30T13:50:36.000Z</time>
      </trkpt>
      <trkpt lat="43.7226" lon="1.46951">
        <ele>161.404884</ele>
        <time>2023-07-30T13:50:37.000Z</time>
      </trkpt>
      <trkpt lat="43.72266" lon="1.46947">
        <ele>161.303719</ele>
        <time>2023-07-30T13:50:38.000Z</time>
      </trkpt>
      <trkpt lat="43.72266" lon="1.46947">
        <ele>161.303719</ele>
        <time>2023-07-30T13:50:38.000Z</time>
      </trkpt>
      <trkpt lat="43.72273" lon="1.46943">
        <ele>161.268752</ele>
        <time>2023-07-30T13:50:39.000Z</time>
      </trkpt>
      <trkpt lat="43.72279" lon="1.46939">
        <ele>161.233946</ele>
        <time>2023-07-30T13:50:40.000Z</time>
      </trkpt>
      <trkpt lat="43.72284" lon="1.46935">
        <ele>161.203167</ele>
        <time>2023-07-30T13:50:41.000Z</time>
      </trkpt>
      <trkpt lat="43.72284" lon="1.46935">
        <ele>161.203167</ele>
        <time>2023-07-30T13:50:41.000Z</time>
      </trkpt>
      <trkpt lat="43.72289" lon="1.46932">
        <ele>161.172878</ele>
        <time>2023-07-30T13:50:42.000Z</time>
      </trkpt>
      <trkpt lat="43.72295" lon="1.46927">
        <ele>161.139403</ele>
        <time>2023-07-30T13:50:43.000Z</time>
      </trkpt>
      <trkpt lat="43.72301" lon="1.46923">
        <ele>161.106279</ele>
        <time>2023-07-30T13:50:44.000Z</time>
      </trkpt>
      <trkpt lat="43.72306" lon="1.46919">
        <ele>161.075042</ele>
        <time>2023-07-30T13:50:44.000Z</time>
      </trkpt>
      <trkpt lat="43.72311" lon="1.46916">
        <ele>161.046609</ele>
        <time>2023-07-30T13:50:46.000Z</time>
      </trkpt>
      <trkpt lat="43.72311" lon="1.46916">
        <ele>161.046609</ele>
        <time>2023-07-30T13:50:46.000Z</time>
      </trkpt>
      <trkpt lat="43.72316" lon="1.46913">
        <ele>161.018045</ele>
        <time>2023-07-30T13:50:46.000Z</time>
      </trkpt>
      <trkpt lat="43.72321" lon="1.46909">
        <ele>160.989946</ele>
        <time>2023-07-30T13:50:48.000Z</time>
      </trkpt>
      <trkpt lat="43.72326" lon="1.46906">
        <ele>160.959355</ele>
        <time>2023-07-30T13:50:48.000Z</time>
      </trkpt>
      <trkpt lat="43.72332" lon="1.46902">
        <ele>160.927351</ele>
        <time>2023-07-30T13:50:50.000Z</time>
      </trkpt>
      <trkpt lat="43.72338" lon="1.46899">
        <ele>160.894887</ele>
        <time>2023-07-30T13:50:50.000Z</time>
      </trkpt>
      <trkpt lat="43.72343" lon="1.46896">
        <ele>160.866933</ele>
        <time>2023-07-30T13:50:52.000Z</time>
      </trkpt>
      <trkpt lat="43.72343" lon="1.46896">
        <ele>160.866933</ele>
        <time>2023-07-30T13:50:52.000Z</time>
      </trkpt>
      <trkpt lat="43.72348" lon="1.46893">
        <ele>160.839152</ele>
        <time>2023-07-30T13:50:52.000Z</time>
      </trkpt>
      <trkpt lat="43.72352" lon="1.4689">
        <ele>160.815113</ele>
        <time>2023-07-30T13:50:54.000Z</time>
      </trkpt>
      <trkpt lat="43.72356" lon="1.46887">
        <ele>160.788731</ele>
        <time>2023-07-30T13:50:54.000Z</time>
      </trkpt>
      <trkpt lat="43.72361" lon="1.46884">
        <ele>160.762184</ele>
        <time>2023-07-30T13:50:56.000Z</time>
      </trkpt>
      <trkpt lat="43.72366" lon="1.4688">
        <ele>160.733779</ele>
        <time>2023-07-30T13:50:57.000Z</time>
      </trkpt>
      <trkpt lat="43.72366" lon="1.4688">
        <ele>160.733779</ele>
        <time>2023-07-30T13:50:57.000Z</time>
      </trkpt>
      <trkpt lat="43.72371" lon="1.46877">
        <ele>160.703657</ele>
        <time>2023-07-30T13:50:58.000Z</time>
      </trkpt>
      <trkpt lat="43.72371" lon="1.46877">
        <ele>160.703657</ele>
        <time>2023-07-30T13:50:58.000Z</time>
      </trkpt>
      <trkpt lat="43.72376" lon="1.46874">
        <ele>160.675406</ele>
        <time>2023-07-30T13:50:59.000Z</time>
      </trkpt>
      <trkpt lat="43.72381" lon="1.46871">
        <ele>160.647307</ele>
        <time>2023-07-30T13:51:00.000Z</time>
      </trkpt>
      <trkpt lat="43.72387" lon="1.46867">
        <ele>160.614844</ele>
        <time>2023-07-30T13:51:01.000Z</time>
      </trkpt>
      <trkpt lat="43.72387" lon="1.46867">
        <ele>160.614844</ele>
        <time>2023-07-30T13:51:01.000Z</time>
      </trkpt>
      <trkpt lat="43.72392" lon="1.46864">
        <ele>160.584406</ele>
        <time>2023-07-30T13:51:02.000Z</time>
      </trkpt>
      <trkpt lat="43.72397" lon="1.46861">
        <ele>160.560367</ele>
        <time>2023-07-30T13:51:03.000Z</time>
      </trkpt>
      <trkpt lat="43.72401" lon="1.46858">
        <ele>160.532888</ele>
        <time>2023-07-30T13:51:04.000Z</time>
      </trkpt>
      <trkpt lat="43.72407" lon="1.46855">
        <ele>160.501309</ele>
        <time>2023-07-30T13:51:05.000Z</time>
      </trkpt>
      <trkpt lat="43.72407" lon="1.46855">
        <ele>160.501309</ele>
        <time>2023-07-30T13:51:05.000Z</time>
      </trkpt>
      <trkpt lat="43.72414" lon="1.46851">
        <ele>160.465345</ele>
        <time>2023-07-30T13:51:06.000Z</time>
      </trkpt>
      <trkpt lat="43.7242" lon="1.46848">
        <ele>160.429895</ele>
        <time>2023-07-30T13:51:07.000Z</time>
      </trkpt>
      <trkpt lat="43.7242" lon="1.46848">
        <ele>160.429895</ele>
        <time>2023-07-30T13:51:07.000Z</time>
      </trkpt>
      <trkpt lat="43.72426" lon="1.46845">
        <ele>160.396757</ele>
        <time>2023-07-30T13:51:08.000Z</time>
      </trkpt>
      <trkpt lat="43.72432" lon="1.46843">
        <ele>160.319466</ele>
        <time>2023-07-30T13:51:09.000Z</time>
      </trkpt>
      <trkpt lat="43.72438" lon="1.46842">
        <ele>160.214833</ele>
        <time>2023-07-30T13:51:10.000Z</time>
      </trkpt>
      <trkpt lat="43.72443" lon="1.4684">
        <ele>160.112327</ele>
        <time>2023-07-30T13:51:11.000Z</time>
      </trkpt>
      <trkpt lat="43.72448" lon="1.46839">
        <ele>160.023643</ele>
        <time>2023-07-30T13:51:12.000Z</time>
      </trkpt>
      <trkpt lat="43.72448" lon="1.46839">
        <ele>160.023643</ele>
        <time>2023-07-30T13:51:12.000Z</time>
      </trkpt>
      <trkpt lat="43.72453" lon="1.46838">
        <ele>159.929338</ele>
        <time>2023-07-30T13:51:13.000Z</time>
      </trkpt>
      <trkpt lat="43.72453" lon="1.46838">
        <ele>159.929338</ele>
        <time>2023-07-30T13:51:13.000Z</time>
      </trkpt>
      <trkpt lat="43.72459" lon="1.46837">
        <ele>159.797388</ele>
        <time>2023-07-30T13:51:14.000Z</time>
      </trkpt>
      <trkpt lat="43.72468" lon="1.46836">
        <ele>159.63752</ele>
        <time>2023-07-30T13:51:14.000Z</time>
      </trkpt>
      <trkpt lat="43.72468" lon="1.46836">
        <ele>159.63752</ele>
        <time>2023-07-30T13:51:14.000Z</time>
      </trkpt>
      <trkpt lat="43.72477" lon="1.46836">
        <ele>159.470319</ele>
        <time>2023-07-30T13:51:16.000Z</time>
      </trkpt>
      <trkpt lat="43.72477" lon="1.46836">
        <ele>159.470319</ele>
        <time>2023-07-30T13:51:16.000Z</time>
      </trkpt>
      <trkpt lat="43.72485" lon="1.46837">
        <ele>159.310645</ele>
        <time>2023-07-30T13:51:17.000Z</time>
      </trkpt>
      <trkpt lat="43.72485" lon="1.46837">
        <ele>159.310645</ele>
        <time>2023-07-30T13:51:17.000Z</time>
      </trkpt>
      <trkpt lat="43.72493" lon="1.46837">
        <ele>159.165847</ele>
        <time>2023-07-30T13:51:18.000Z</time>
      </trkpt>
      <trkpt lat="43.72501" lon="1.46839">
        <ele>159.012822</ele>
        <time>2023-07-30T13:51:19.000Z</time>
      </trkpt>
      <trkpt lat="43.72501" lon="1.46839">
        <ele>159.012822</ele>
        <time>2023-07-30T13:51:19.000Z</time>
      </trkpt>
      <trkpt lat="43.72507" lon="1.4684">
        <ele>158.887851</ele>
        <time>2023-07-30T13:51:20.000Z</time>
      </trkpt>
      <trkpt lat="43.72507" lon="1.4684">
        <ele>158.887851</ele>
        <time>2023-07-30T13:51:20.000Z</time>
      </trkpt>
      <trkpt lat="43.72514" lon="1.46842">
        <ele>158.753923</ele>
        <time>2023-07-30T13:51:21.000Z</time>
      </trkpt>
      <trkpt lat="43.72519" lon="1.46844">
        <ele>158.650567</ele>
        <time>2023-07-30T13:51:22.000Z</time>
      </trkpt>
      <trkpt lat="43.72519" lon="1.46844">
        <ele>158.650567</ele>
        <time>2023-07-30T13:51:22.000Z</time>
      </trkpt>
      <trkpt lat="43.72526" lon="1.46846">
        <ele>158.52311</ele>
        <time>2023-07-30T13:51:23.000Z</time>
      </trkpt>
      <trkpt lat="43.72532" lon="1.46849">
        <ele>158.394944</ele>
        <time>2023-07-30T13:51:24.000Z</time>
      </trkpt>
      <trkpt lat="43.72532" lon="1.46849">
        <ele>158.394944</ele>
        <time>2023-07-30T13:51:24.000Z</time>
      </trkpt>
      <trkpt lat="43.72539" lon="1.46851">
        <ele>158.266017</ele>
        <time>2023-07-30T13:51:25.000Z</time>
      </trkpt>
      <trkpt lat="43.72539" lon="1.46851">
        <ele>158.266017</ele>
        <time>2023-07-30T13:51:25.000Z</time>
      </trkpt>
      <trkpt lat="43.72545" lon="1.46854">
        <ele>158.137646</ele>
        <time>2023-07-30T13:51:26.000Z</time>
      </trkpt>
      <trkpt lat="43.72545" lon="1.46854">
        <ele>158.137646</ele>
        <time>2023-07-30T13:51:26.000Z</time>
      </trkpt>
      <trkpt lat="43.72551" lon="1.46858">
        <ele>158.01056</ele>
        <time>2023-07-30T13:51:27.000Z</time>
      </trkpt>
      <trkpt lat="43.72551" lon="1.46858">
        <ele>158.01056</ele>
        <time>2023-07-30T13:51:27.000Z</time>
      </trkpt>
      <trkpt lat="43.72559" lon="1.46863">
        <ele>157.855205</ele>
        <time>2023-07-30T13:51:28.000Z</time>
      </trkpt>
      <trkpt lat="43.72559" lon="1.46863">
        <ele>157.855205</ele>
        <time>2023-07-30T13:51:28.000Z</time>
      </trkpt>
      <trkpt lat="43.72566" lon="1.46869">
        <ele>157.69762</ele>
        <time>2023-07-30T13:51:29.000Z</time>
      </trkpt>
      <trkpt lat="43.72566" lon="1.46869">
        <ele>157.69762</ele>
        <time>2023-07-30T13:51:29.000Z</time>
      </trkpt>
      <trkpt lat="43.72572" lon="1.46875">
        <ele>157.551429</ele>
        <time>2023-07-30T13:51:30.000Z</time>
      </trkpt>
      <trkpt lat="43.72572" lon="1.46875">
        <ele>157.551429</ele>
        <time>2023-07-30T13:51:30.000Z</time>
      </trkpt>
      <trkpt lat="43.72578" lon="1.46881">
        <ele>157.406001</ele>
        <time>2023-07-30T13:51:31.000Z</time>
      </trkpt>
      <trkpt lat="43.72578" lon="1.46881">
        <ele>157.406001</ele>
        <time>2023-07-30T13:51:31.000Z</time>
      </trkpt>
      <trkpt lat="43.72585" lon="1.46888">
        <ele>157.252023</ele>
        <time>2023-07-30T13:51:32.000Z</time>
      </trkpt>
      <trkpt lat="43.72585" lon="1.46888">
        <ele>157.252023</ele>
        <time>2023-07-30T13:51:32.000Z</time>
      </trkpt>
      <trkpt lat="43.72592" lon="1.46895">
        <ele>157.089487</ele>
        <time>2023-07-30T13:51:33.000Z</time>
      </trkpt>
      <trkpt lat="43.72598" lon="1.46901">
        <ele>156.982313</ele>
        <time>2023-07-30T13:51:34.000Z</time>
      </trkpt>
      <trkpt lat="43.72603" lon="1.46907">
        <ele>157.176627</ele>
        <time>2023-07-30T13:51:35.000Z</time>
      </trkpt>
      <trkpt lat="43.72603" lon="1.46907">
        <ele>157.176627</ele>
        <time>2023-07-30T13:51:35.000Z</time>
      </trkpt>
      <trkpt lat="43.72609" lon="1.46913">
        <ele>157.394068</ele>
        <time>2023-07-30T13:51:36.000Z</time>
      </trkpt>
      <trkpt lat="43.72615" lon="1.46919">
        <ele>157.598491</ele>
        <time>2023-07-30T13:51:37.000Z</time>
      </trkpt>
      <trkpt lat="43.72615" lon="1.46919">
        <ele>157.598491</ele>
        <time>2023-07-30T13:51:37.000Z</time>
      </trkpt>
      <trkpt lat="43.72619" lon="1.46924">
        <ele>157.765969</ele>
        <time>2023-07-30T13:51:38.000Z</time>
      </trkpt>
      <trkpt lat="43.72619" lon="1.46924">
        <ele>157.765969</ele>
        <time>2023-07-30T13:51:38.000Z</time>
      </trkpt>
      <trkpt lat="43.72625" lon="1.4693">
        <ele>157.962517</ele>
        <time>2023-07-30T13:51:39.000Z</time>
      </trkpt>
      <trkpt lat="43.72631" lon="1.46936">
        <ele>158.182452</ele>
        <time>2023-07-30T13:51:40.000Z</time>
      </trkpt>
      <trkpt lat="43.72631" lon="1.46936">
        <ele>158.182452</ele>
        <time>2023-07-30T13:51:40.000Z</time>
      </trkpt>
      <trkpt lat="43.72637" lon="1.46943">
        <ele>158.416478</ele>
        <time>2023-07-30T13:51:41.000Z</time>
      </trkpt>
      <trkpt lat="43.72637" lon="1.46943">
        <ele>158.416478</ele>
        <time>2023-07-30T13:51:41.000Z</time>
      </trkpt>
      <trkpt lat="43.72643" lon="1.46949">
        <ele>158.619822</ele>
        <time>2023-07-30T13:51:42.000Z</time>
      </trkpt>
      <trkpt lat="43.72643" lon="1.46949">
        <ele>158.619822</ele>
        <time>2023-07-30T13:51:42.000Z</time>
      </trkpt>
      <trkpt lat="43.72649" lon="1.46955">
        <ele>158.824409</ele>
        <time>2023-07-30T13:51:43.000Z</time>
      </trkpt>
      <trkpt lat="43.72649" lon="1.46955">
        <ele>158.824409</ele>
        <time>2023-07-30T13:51:43.000Z</time>
      </trkpt>
      <trkpt lat="43.72654" lon="1.46961">
        <ele>159.026523</ele>
        <time>2023-07-30T13:51:44.000Z</time>
      </trkpt>
      <trkpt lat="43.72654" lon="1.46961">
        <ele>159.026523</ele>
        <time>2023-07-30T13:51:44.000Z</time>
      </trkpt>
      <trkpt lat="43.7266" lon="1.46967">
        <ele>159.229743</ele>
        <time>2023-07-30T13:51:45.000Z</time>
      </trkpt>
      <trkpt lat="43.7266" lon="1.46967">
        <ele>159.229743</ele>
        <time>2023-07-30T13:51:45.000Z</time>
      </trkpt>
      <trkpt lat="43.72665" lon="1.46971">
        <ele>159.398892</ele>
        <time>2023-07-30T13:51:46.000Z</time>
      </trkpt>
      <trkpt lat="43.72665" lon="1.46971">
        <ele>159.398892</ele>
        <time>2023-07-30T13:51:46.000Z</time>
      </trkpt>
      <trkpt lat="43.72669" lon="1.46975">
        <ele>159.52816</ele>
        <time>2023-07-30T13:51:47.000Z</time>
      </trkpt>
      <trkpt lat="43.72672" lon="1.46978">
        <ele>159.633912</ele>
        <time>2023-07-30T13:51:48.000Z</time>
      </trkpt>
      <trkpt lat="43.72672" lon="1.46978">
        <ele>159.633912</ele>
        <time>2023-07-30T13:51:48.000Z</time>
      </trkpt>
      <trkpt lat="43.72676" lon="1.46982">
        <ele>159.780742</ele>
        <time>2023-07-30T13:51:49.000Z</time>
      </trkpt>
      <trkpt lat="43.72681" lon="1.46987">
        <ele>159.955894</ele>
        <time>2023-07-30T13:51:50.000Z</time>
      </trkpt>
      <trkpt lat="43.72681" lon="1.46987">
        <ele>159.955894</ele>
        <time>2023-07-30T13:51:50.000Z</time>
      </trkpt>
      <trkpt lat="43.72685" lon="1.46991">
        <ele>160.106379</ele>
        <time>2023-07-30T13:51:51.000Z</time>
      </trkpt>
      <trkpt lat="43.72688" lon="1.46994">
        <ele>160.214443</ele>
        <time>2023-07-30T13:51:52.000Z</time>
      </trkpt>
      <trkpt lat="43.72691" lon="1.46997">
        <ele>160.321401</ele>
        <time>2023-07-30T13:51:53.000Z</time>
      </trkpt>
      <trkpt lat="43.72695" lon="1.47005">
        <ele>160.502251</ele>
        <time>2023-07-30T13:51:55.000Z</time>
      </trkpt>
      <trkpt lat="43.72696" lon="1.47006">
        <ele>160.549357</ele>
        <time>2023-07-30T13:51:56.000Z</time>
      </trkpt>
      <trkpt lat="43.72696" lon="1.47007">
        <ele>160.574778</ele>
        <time>2023-07-30T13:51:57.000Z</time>
      </trkpt>
      <trkpt lat="43.72696" lon="1.47007">
        <ele>160.574778</ele>
        <time>2023-07-30T13:51:57.000Z</time>
      </trkpt>
      <trkpt lat="43.72697" lon="1.47008">
        <ele>160.59163</ele>
        <time>2023-07-30T13:51:58.000Z</time>
      </trkpt>
      <trkpt lat="43.72697" lon="1.47009">
        <ele>160.628491</ele>
        <time>2023-07-30T13:51:59.000Z</time>
      </trkpt>
      <trkpt lat="43.72697" lon="1.47009">
        <ele>160.628491</ele>
        <time>2023-07-30T13:51:59.000Z</time>
      </trkpt>
      <trkpt lat="43.72698" lon="1.47011">
        <ele>160.673886</ele>
        <time>2023-07-30T13:52:00.000Z</time>
      </trkpt>
      <trkpt lat="43.72698" lon="1.47011">
        <ele>160.673886</ele>
        <time>2023-07-30T13:52:00.000Z</time>
      </trkpt>
      <trkpt lat="43.72697" lon="1.47011">
        <ele>160.705914</ele>
        <time>2023-07-30T13:52:01.000Z</time>
      </trkpt>
      <trkpt lat="43.72697" lon="1.47012">
        <ele>160.726557</ele>
        <time>2023-07-30T13:52:02.000Z</time>
      </trkpt>
      <trkpt lat="43.72693" lon="1.47018">
        <ele>160.905729</ele>
        <time>2023-07-30T13:52:04.000Z</time>
      </trkpt>
      <trkpt lat="43.72693" lon="1.47018">
        <ele>160.905729</ele>
        <time>2023-07-30T13:52:04.000Z</time>
      </trkpt>
      <trkpt lat="43.7269" lon="1.47022">
        <ele>161.018723</ele>
        <time>2023-07-30T13:52:06.000Z</time>
      </trkpt>
      <trkpt lat="43.7269" lon="1.47022">
        <ele>161.018723</ele>
        <time>2023-07-30T13:52:06.000Z</time>
      </trkpt>
      <trkpt lat="43.72688" lon="1.47025">
        <ele>161.101072</ele>
        <time>2023-07-30T13:52:07.000Z</time>
      </trkpt>
      <trkpt lat="43.72688" lon="1.47025">
        <ele>161.101072</ele>
        <time>2023-07-30T13:52:07.000Z</time>
      </trkpt>
      <trkpt lat="43.72685" lon="1.47029">
        <ele>161.214066</ele>
        <time>2023-07-30T13:52:08.000Z</time>
      </trkpt>
      <trkpt lat="43.72685" lon="1.47029">
        <ele>161.214066</ele>
        <time>2023-07-30T13:52:08.000Z</time>
      </trkpt>
      <trkpt lat="43.72682" lon="1.47033">
        <ele>161.340456</ele>
        <time>2023-07-30T13:52:09.000Z</time>
      </trkpt>
      <trkpt lat="43.72682" lon="1.47033">
        <ele>161.340456</ele>
        <time>2023-07-30T13:52:09.000Z</time>
      </trkpt>
      <trkpt lat="43.72679" lon="1.47038">
        <ele>161.465843</ele>
        <time>2023-07-30T13:52:10.000Z</time>
      </trkpt>
      <trkpt lat="43.72679" lon="1.47038">
        <ele>161.465843</ele>
        <time>2023-07-30T13:52:10.000Z</time>
      </trkpt>
      <trkpt lat="43.72672" lon="1.47048">
        <ele>161.753847</ele>
        <time>2023-07-30T13:52:12.000Z</time>
      </trkpt>
      <trkpt lat="43.72672" lon="1.47048">
        <ele>161.753847</ele>
        <time>2023-07-30T13:52:12.000Z</time>
      </trkpt>
      <trkpt lat="43.72669" lon="1.47054">
        <ele>161.915464</ele>
        <time>2023-07-30T13:52:14.000Z</time>
      </trkpt>
      <trkpt lat="43.72669" lon="1.47054">
        <ele>161.915464</ele>
        <time>2023-07-30T13:52:14.000Z</time>
      </trkpt>
      <trkpt lat="43.72664" lon="1.4706">
        <ele>162.092409</ele>
        <time>2023-07-30T13:52:15.000Z</time>
      </trkpt>
      <trkpt lat="43.72664" lon="1.4706">
        <ele>162.092409</ele>
        <time>2023-07-30T13:52:15.000Z</time>
      </trkpt>
      <trkpt lat="43.72659" lon="1.47067">
        <ele>162.484634</ele>
        <time>2023-07-30T13:52:16.000Z</time>
      </trkpt>
      <trkpt lat="43.72659" lon="1.47067">
        <ele>162.484634</ele>
        <time>2023-07-30T13:52:16.000Z</time>
      </trkpt>
      <trkpt lat="43.72655" lon="1.47071">
        <ele>162.756884</ele>
        <time>2023-07-30T13:52:16.000Z</time>
      </trkpt>
      <trkpt lat="43.72655" lon="1.47071">
        <ele>162.756884</ele>
        <time>2023-07-30T13:52:16.000Z</time>
      </trkpt>
      <trkpt lat="43.72651" lon="1.47075">
        <ele>163.057001</ele>
        <time>2023-07-30T13:52:18.000Z</time>
      </trkpt>
      <trkpt lat="43.72651" lon="1.47075">
        <ele>163.057001</ele>
        <time>2023-07-30T13:52:18.000Z</time>
      </trkpt>
      <trkpt lat="43.72648" lon="1.47079">
        <ele>163.26603</ele>
        <time>2023-07-30T13:52:20.000Z</time>
      </trkpt>
      <trkpt lat="43.72648" lon="1.47079">
        <ele>163.26603</ele>
        <time>2023-07-30T13:52:20.000Z</time>
      </trkpt>
      <trkpt lat="43.72645" lon="1.47083">
        <ele>163.498596</ele>
        <time>2023-07-30T13:52:21.000Z</time>
      </trkpt>
      <trkpt lat="43.72645" lon="1.47083">
        <ele>163.498596</ele>
        <time>2023-07-30T13:52:21.000Z</time>
      </trkpt>
      <trkpt lat="43.72643" lon="1.47086">
        <ele>163.707626</ele>
        <time>2023-07-30T13:52:22.000Z</time>
      </trkpt>
      <trkpt lat="43.72643" lon="1.47086">
        <ele>163.707626</ele>
        <time>2023-07-30T13:52:22.000Z</time>
      </trkpt>
      <trkpt lat="43.7264" lon="1.47089">
        <ele>163.883431</ele>
        <time>2023-07-30T13:52:23.000Z</time>
      </trkpt>
      <trkpt lat="43.7264" lon="1.47089">
        <ele>163.883431</ele>
        <time>2023-07-30T13:52:23.000Z</time>
      </trkpt>
      <trkpt lat="43.72636" lon="1.47094">
        <ele>164.191179</ele>
        <time>2023-07-30T13:52:24.000Z</time>
      </trkpt>
      <trkpt lat="43.72636" lon="1.47094">
        <ele>164.191179</ele>
        <time>2023-07-30T13:52:24.000Z</time>
      </trkpt>
      <trkpt lat="43.72631" lon="1.47099">
        <ele>164.568176</ele>
        <time>2023-07-30T13:52:26.000Z</time>
      </trkpt>
      <trkpt lat="43.72631" lon="1.47099">
        <ele>164.568176</ele>
        <time>2023-07-30T13:52:26.000Z</time>
      </trkpt>
      <trkpt lat="43.72628" lon="1.47103">
        <ele>164.802164</ele>
        <time>2023-07-30T13:52:27.000Z</time>
      </trkpt>
      <trkpt lat="43.72628" lon="1.47103">
        <ele>164.802164</ele>
        <time>2023-07-30T13:52:27.000Z</time>
      </trkpt>
      <trkpt lat="43.72626" lon="1.47106">
        <ele>164.944476</ele>
        <time>2023-07-30T13:52:28.000Z</time>
      </trkpt>
      <trkpt lat="43.72626" lon="1.47106">
        <ele>164.944476</ele>
        <time>2023-07-30T13:52:28.000Z</time>
      </trkpt>
      <trkpt lat="43.72623" lon="1.4711">
        <ele>165.179857</ele>
        <time>2023-07-30T13:52:29.000Z</time>
      </trkpt>
      <trkpt lat="43.72623" lon="1.4711">
        <ele>165.179857</ele>
        <time>2023-07-30T13:52:29.000Z</time>
      </trkpt>
      <trkpt lat="43.7262" lon="1.47113">
        <ele>165.386117</ele>
        <time>2023-07-30T13:52:30.000Z</time>
      </trkpt>
      <trkpt lat="43.7262" lon="1.47113">
        <ele>165.386117</ele>
        <time>2023-07-30T13:52:30.000Z</time>
      </trkpt>
      <trkpt lat="43.72617" lon="1.47117">
        <ele>165.609611</ele>
        <time>2023-07-30T13:52:31.000Z</time>
      </trkpt>
      <trkpt lat="43.72617" lon="1.47117">
        <ele>165.609611</ele>
        <time>2023-07-30T13:52:31.000Z</time>
      </trkpt>
      <trkpt lat="43.72615" lon="1.4712">
        <ele>165.789948</ele>
        <time>2023-07-30T13:52:33.000Z</time>
      </trkpt>
      <trkpt lat="43.72615" lon="1.4712">
        <ele>165.789948</ele>
        <time>2023-07-30T13:52:33.000Z</time>
      </trkpt>
      <trkpt lat="43.72612" lon="1.47123">
        <ele>165.990804</ele>
        <time>2023-07-30T13:52:34.000Z</time>
      </trkpt>
      <trkpt lat="43.72612" lon="1.47123">
        <ele>165.990804</ele>
        <time>2023-07-30T13:52:34.000Z</time>
      </trkpt>
      <trkpt lat="43.72611" lon="1.47126">
        <ele>166.15063</ele>
        <time>2023-07-30T13:52:35.000Z</time>
      </trkpt>
      <trkpt lat="43.72611" lon="1.47126">
        <ele>166.15063</ele>
        <time>2023-07-30T13:52:35.000Z</time>
      </trkpt>
      <trkpt lat="43.72609" lon="1.47127">
        <ele>166.276296</ele>
        <time>2023-07-30T13:52:37.000Z</time>
      </trkpt>
      <trkpt lat="43.72609" lon="1.47127">
        <ele>166.276296</ele>
        <time>2023-07-30T13:52:37.000Z</time>
      </trkpt>
      <trkpt lat="43.72608" lon="1.47128">
        <ele>166.319437</ele>
        <time>2023-07-30T13:52:38.000Z</time>
      </trkpt>
      <trkpt lat="43.72608" lon="1.47131">
        <ele>166.417429</ele>
        <time>2023-07-30T13:52:39.000Z</time>
      </trkpt>
      <trkpt lat="43.72608" lon="1.47131">
        <ele>166.417429</ele>
        <time>2023-07-30T13:52:39.000Z</time>
      </trkpt>
      <trkpt lat="43.72607" lon="1.47132">
        <ele>166.513345</ele>
        <time>2023-07-30T13:52:40.000Z</time>
      </trkpt>
      <trkpt lat="43.72607" lon="1.47132">
        <ele>166.513345</ele>
        <time>2023-07-30T13:52:40.000Z</time>
      </trkpt>
      <trkpt lat="43.72605" lon="1.47134">
        <ele>166.641181</ele>
        <time>2023-07-30T13:52:41.000Z</time>
      </trkpt>
      <trkpt lat="43.72605" lon="1.47134">
        <ele>166.641181</ele>
        <time>2023-07-30T13:52:41.000Z</time>
      </trkpt>
      <trkpt lat="43.72603" lon="1.47136">
        <ele>166.794659</ele>
        <time>2023-07-30T13:52:42.000Z</time>
      </trkpt>
      <trkpt lat="43.72603" lon="1.47136">
        <ele>166.794659</ele>
        <time>2023-07-30T13:52:42.000Z</time>
      </trkpt>
      <trkpt lat="43.72599" lon="1.47138">
        <ele>167.011855</ele>
        <time>2023-07-30T13:52:43.000Z</time>
      </trkpt>
      <trkpt lat="43.72599" lon="1.47138">
        <ele>167.011855</ele>
        <time>2023-07-30T13:52:43.000Z</time>
      </trkpt>
      <trkpt lat="43.72595" lon="1.47141">
        <ele>167.290993</ele>
        <time>2023-07-30T13:52:45.000Z</time>
      </trkpt>
      <trkpt lat="43.72595" lon="1.47141">
        <ele>167.290993</ele>
        <time>2023-07-30T13:52:45.000Z</time>
      </trkpt>
      <trkpt lat="43.7259" lon="1.47146">
        <ele>167.609537</ele>
        <time>2023-07-30T13:52:46.000Z</time>
      </trkpt>
      <trkpt lat="43.7259" lon="1.47146">
        <ele>167.609537</ele>
        <time>2023-07-30T13:52:46.000Z</time>
      </trkpt>
      <trkpt lat="43.7258" lon="1.47157">
        <ele>168.35474</ele>
        <time>2023-07-30T13:52:47.000Z</time>
      </trkpt>
      <trkpt lat="43.7258" lon="1.47157">
        <ele>168.35474</ele>
        <time>2023-07-30T13:52:47.000Z</time>
      </trkpt>
      <trkpt lat="43.72576" lon="1.47162">
        <ele>168.639046</ele>
        <time>2023-07-30T13:52:49.000Z</time>
      </trkpt>
      <trkpt lat="43.72576" lon="1.47162">
        <ele>168.639046</ele>
        <time>2023-07-30T13:52:49.000Z</time>
      </trkpt>
      <trkpt lat="43.72573" lon="1.47167">
        <ele>168.92537</ele>
        <time>2023-07-30T13:52:50.000Z</time>
      </trkpt>
      <trkpt lat="43.72573" lon="1.47167">
        <ele>168.92537</ele>
        <time>2023-07-30T13:52:50.000Z</time>
      </trkpt>
      <trkpt lat="43.72569" lon="1.47172">
        <ele>169.20868</ele>
        <time>2023-07-30T13:52:51.000Z</time>
      </trkpt>
      <trkpt lat="43.72567" lon="1.47177">
        <ele>169.460274</ele>
        <time>2023-07-30T13:52:53.000Z</time>
      </trkpt>
      <trkpt lat="43.72567" lon="1.47177">
        <ele>169.460274</ele>
        <time>2023-07-30T13:52:53.000Z</time>
      </trkpt>
      <trkpt lat="43.72564" lon="1.47182">
        <ele>169.711867</ele>
        <time>2023-07-30T13:52:54.000Z</time>
      </trkpt>
      <trkpt lat="43.72564" lon="1.47182">
        <ele>169.711867</ele>
        <time>2023-07-30T13:52:54.000Z</time>
      </trkpt>
      <trkpt lat="43.72561" lon="1.47188">
        <ele>169.990546</ele>
        <time>2023-07-30T13:52:55.000Z</time>
      </trkpt>
      <trkpt lat="43.72559" lon="1.47192">
        <ele>170.19983</ele>
        <time>2023-07-30T13:52:56.000Z</time>
      </trkpt>
      <trkpt lat="43.72557" lon="1.47199">
        <ele>170.503377</ele>
        <time>2023-07-30T13:52:57.000Z</time>
      </trkpt>
      <trkpt lat="43.72557" lon="1.47199">
        <ele>170.503377</ele>
        <time>2023-07-30T13:52:57.000Z</time>
      </trkpt>
      <trkpt lat="43.72557" lon="1.47209">
        <ele>170.925787</ele>
        <time>2023-07-30T13:52:59.000Z</time>
      </trkpt>
      <trkpt lat="43.72557" lon="1.47215">
        <ele>171.170769</ele>
        <time>2023-07-30T13:53:00.000Z</time>
      </trkpt>
      <trkpt lat="43.72557" lon="1.47215">
        <ele>171.170769</ele>
        <time>2023-07-30T13:53:00.000Z</time>
      </trkpt>
      <trkpt lat="43.72557" lon="1.47221">
        <ele>171.395337</ele>
        <time>2023-07-30T13:53:01.000Z</time>
      </trkpt>
      <trkpt lat="43.72557" lon="1.47226">
        <ele>171.591273</ele>
        <time>2023-07-30T13:53:02.000Z</time>
      </trkpt>
      <trkpt lat="43.72557" lon="1.47226">
        <ele>171.591273</ele>
        <time>2023-07-30T13:53:02.000Z</time>
      </trkpt>
      <trkpt lat="43.72558" lon="1.47231">
        <ele>171.800731</ele>
        <time>2023-07-30T13:53:03.000Z</time>
      </trkpt>
      <trkpt lat="43.72559" lon="1.47239">
        <ele>172.15882</ele>
        <time>2023-07-30T13:53:04.000Z</time>
      </trkpt>
      <trkpt lat="43.72559" lon="1.47239">
        <ele>172.15882</ele>
        <time>2023-07-30T13:53:04.000Z</time>
      </trkpt>
      <trkpt lat="43.7256" lon="1.47247">
        <ele>172.421165</ele>
        <time>2023-07-30T13:53:06.000Z</time>
      </trkpt>
      <trkpt lat="43.72561" lon="1.47255">
        <ele>172.626599</ele>
        <time>2023-07-30T13:53:07.000Z</time>
      </trkpt>
      <trkpt lat="43.72561" lon="1.47255">
        <ele>172.626599</ele>
        <time>2023-07-30T13:53:07.000Z</time>
      </trkpt>
      <trkpt lat="43.72561" lon="1.47259">
        <ele>172.751818</ele>
        <time>2023-07-30T13:53:08.000Z</time>
      </trkpt>
      <trkpt lat="43.72561" lon="1.47259">
        <ele>172.751818</ele>
        <time>2023-07-30T13:53:08.000Z</time>
      </trkpt>
      <trkpt lat="43.72562" lon="1.47271">
        <ele>173.084551</ele>
        <time>2023-07-30T13:53:09.000Z</time>
      </trkpt>
      <trkpt lat="43.72562" lon="1.47271">
        <ele>173.084551</ele>
        <time>2023-07-30T13:53:09.000Z</time>
      </trkpt>
      <trkpt lat="43.72563" lon="1.4728">
        <ele>173.347286</ele>
        <time>2023-07-30T13:53:10.000Z</time>
      </trkpt>
      <trkpt lat="43.72563" lon="1.47287">
        <ele>173.559369</ele>
        <time>2023-07-30T13:53:11.000Z</time>
      </trkpt>
      <trkpt lat="43.72563" lon="1.47296">
        <ele>173.815999</ele>
        <time>2023-07-30T13:53:12.000Z</time>
      </trkpt>
      <trkpt lat="43.72561" lon="1.47303">
        <ele>174.005917</ele>
        <time>2023-07-30T13:53:13.000Z</time>
      </trkpt>
      <trkpt lat="43.72561" lon="1.47303">
        <ele>174.005917</ele>
        <time>2023-07-30T13:53:13.000Z</time>
      </trkpt>
      <trkpt lat="43.72559" lon="1.47305">
        <ele>174.108231</ele>
        <time>2023-07-30T13:53:14.000Z</time>
      </trkpt>
      <trkpt lat="43.72559" lon="1.47305">
        <ele>174.108231</ele>
        <time>2023-07-30T13:53:14.000Z</time>
      </trkpt>
      <trkpt lat="43.72554" lon="1.47308">
        <ele>174.338597</ele>
        <time>2023-07-30T13:53:16.000Z</time>
      </trkpt>
      <trkpt lat="43.72554" lon="1.47308">
        <ele>174.338597</ele>
        <time>2023-07-30T13:53:16.000Z</time>
      </trkpt>
      <trkpt lat="43.72549" lon="1.4731">
        <ele>174.550289</ele>
        <time>2023-07-30T13:53:17.000Z</time>
      </trkpt>
      <trkpt lat="43.72549" lon="1.4731">
        <ele>174.550289</ele>
        <time>2023-07-30T13:53:17.000Z</time>
      </trkpt>
      <trkpt lat="43.72544" lon="1.47311">
        <ele>174.733505</ele>
        <time>2023-07-30T13:53:18.000Z</time>
      </trkpt>
      <trkpt lat="43.72544" lon="1.47311">
        <ele>174.733505</ele>
        <time>2023-07-30T13:53:18.000Z</time>
      </trkpt>
      <trkpt lat="43.72538" lon="1.4731">
        <ele>174.988429</ele>
        <time>2023-07-30T13:53:19.000Z</time>
      </trkpt>
      <trkpt lat="43.72538" lon="1.4731">
        <ele>174.988429</ele>
        <time>2023-07-30T13:53:19.000Z</time>
      </trkpt>
      <trkpt lat="43.72532" lon="1.47311">
        <ele>175.210884</ele>
        <time>2023-07-30T13:53:20.000Z</time>
      </trkpt>
      <trkpt lat="43.72532" lon="1.47311">
        <ele>175.210884</ele>
        <time>2023-07-30T13:53:20.000Z</time>
      </trkpt>
      <trkpt lat="43.72526" lon="1.4731">
        <ele>175.449998</ele>
        <time>2023-07-30T13:53:21.000Z</time>
      </trkpt>
      <trkpt lat="43.72526" lon="1.4731">
        <ele>175.449998</ele>
        <time>2023-07-30T13:53:21.000Z</time>
      </trkpt>
      <trkpt lat="43.72517" lon="1.47305">
        <ele>175.830789</ele>
        <time>2023-07-30T13:53:23.000Z</time>
      </trkpt>
      <trkpt lat="43.72517" lon="1.47305">
        <ele>175.830789</ele>
        <time>2023-07-30T13:53:23.000Z</time>
      </trkpt>
      <trkpt lat="43.72511" lon="1.473">
        <ele>176.087633</ele>
        <time>2023-07-30T13:53:25.000Z</time>
      </trkpt>
      <trkpt lat="43.72511" lon="1.473">
        <ele>176.087633</ele>
        <time>2023-07-30T13:53:25.000Z</time>
      </trkpt>
      <trkpt lat="43.72508" lon="1.47296">
        <ele>176.25643</ele>
        <time>2023-07-30T13:53:26.000Z</time>
      </trkpt>
      <trkpt lat="43.72508" lon="1.47296">
        <ele>176.25643</ele>
        <time>2023-07-30T13:53:26.000Z</time>
      </trkpt>
      <trkpt lat="43.72505" lon="1.47292">
        <ele>176.423774</ele>
        <time>2023-07-30T13:53:27.000Z</time>
      </trkpt>
      <trkpt lat="43.72501" lon="1.47287">
        <ele>176.630357</ele>
        <time>2023-07-30T13:53:28.000Z</time>
      </trkpt>
      <trkpt lat="43.72501" lon="1.47287">
        <ele>176.630357</ele>
        <time>2023-07-30T13:53:28.000Z</time>
      </trkpt>
      <trkpt lat="43.72496" lon="1.4728">
        <ele>176.924176</ele>
        <time>2023-07-30T13:53:29.000Z</time>
      </trkpt>
      <trkpt lat="43.72496" lon="1.4728">
        <ele>176.924176</ele>
        <time>2023-07-30T13:53:29.000Z</time>
      </trkpt>
      <trkpt lat="43.72491" lon="1.47274">
        <ele>177.163269</ele>
        <time>2023-07-30T13:53:30.000Z</time>
      </trkpt>
      <trkpt lat="43.72491" lon="1.47274">
        <ele>177.163269</ele>
        <time>2023-07-30T13:53:30.000Z</time>
      </trkpt>
      <trkpt lat="43.72487" lon="1.47269">
        <ele>177.371825</ele>
        <time>2023-07-30T13:53:31.000Z</time>
      </trkpt>
      <trkpt lat="43.72487" lon="1.47269">
        <ele>177.371825</ele>
        <time>2023-07-30T13:53:31.000Z</time>
      </trkpt>
      <trkpt lat="43.72482" lon="1.47262">
        <ele>177.643439</ele>
        <time>2023-07-30T13:53:32.000Z</time>
      </trkpt>
      <trkpt lat="43.72482" lon="1.47262">
        <ele>177.643439</ele>
        <time>2023-07-30T13:53:32.000Z</time>
      </trkpt>
      <trkpt lat="43.72474" lon="1.47251">
        <ele>178.098735</ele>
        <time>2023-07-30T13:53:34.000Z</time>
      </trkpt>
      <trkpt lat="43.72474" lon="1.47251">
        <ele>178.098735</ele>
        <time>2023-07-30T13:53:34.000Z</time>
      </trkpt>
      <trkpt lat="43.72471" lon="1.47248">
        <ele>178.236372</ele>
        <time>2023-07-30T13:53:35.000Z</time>
      </trkpt>
      <trkpt lat="43.72471" lon="1.47248">
        <ele>178.236372</ele>
        <time>2023-07-30T13:53:35.000Z</time>
      </trkpt>
      <trkpt lat="43.72469" lon="1.47244">
        <ele>178.381915</ele>
        <time>2023-07-30T13:53:36.000Z</time>
      </trkpt>
      <trkpt lat="43.72469" lon="1.47244">
        <ele>178.381915</ele>
        <time>2023-07-30T13:53:36.000Z</time>
      </trkpt>
      <trkpt lat="43.72465" lon="1.4724">
        <ele>178.557278</ele>
        <time>2023-07-30T13:53:37.000Z</time>
      </trkpt>
      <trkpt lat="43.72465" lon="1.4724">
        <ele>178.557278</ele>
        <time>2023-07-30T13:53:37.000Z</time>
      </trkpt>
      <trkpt lat="43.72462" lon="1.47237">
        <ele>178.708605</ele>
        <time>2023-07-30T13:53:38.000Z</time>
      </trkpt>
      <trkpt lat="43.72462" lon="1.47237">
        <ele>178.708605</ele>
        <time>2023-07-30T13:53:38.000Z</time>
      </trkpt>
      <trkpt lat="43.7246" lon="1.47234">
        <ele>178.807119</ele>
        <time>2023-07-30T13:53:39.000Z</time>
      </trkpt>
      <trkpt lat="43.7246" lon="1.47234">
        <ele>178.807119</ele>
        <time>2023-07-30T13:53:39.000Z</time>
      </trkpt>
      <trkpt lat="43.72457" lon="1.47231">
        <ele>178.970617</ele>
        <time>2023-07-30T13:53:40.000Z</time>
      </trkpt>
      <trkpt lat="43.72457" lon="1.47231">
        <ele>178.970617</ele>
        <time>2023-07-30T13:53:40.000Z</time>
      </trkpt>
      <trkpt lat="43.72454" lon="1.47227">
        <ele>179.118907</ele>
        <time>2023-07-30T13:53:41.000Z</time>
      </trkpt>
      <trkpt lat="43.72454" lon="1.47227">
        <ele>179.118907</ele>
        <time>2023-07-30T13:53:41.000Z</time>
      </trkpt>
      <trkpt lat="43.7245" lon="1.47221">
        <ele>179.303415</ele>
        <time>2023-07-30T13:53:42.000Z</time>
      </trkpt>
      <trkpt lat="43.7245" lon="1.47221">
        <ele>179.303415</ele>
        <time>2023-07-30T13:53:42.000Z</time>
      </trkpt>
      <trkpt lat="43.72447" lon="1.47217">
        <ele>179.367062</ele>
        <time>2023-07-30T13:53:43.000Z</time>
      </trkpt>
      <trkpt lat="43.72447" lon="1.47217">
        <ele>179.367062</ele>
        <time>2023-07-30T13:53:43.000Z</time>
      </trkpt>
      <trkpt lat="43.72444" lon="1.47213">
        <ele>179.421243</ele>
        <time>2023-07-30T13:53:44.000Z</time>
      </trkpt>
      <trkpt lat="43.72444" lon="1.47213">
        <ele>179.421243</ele>
        <time>2023-07-30T13:53:44.000Z</time>
      </trkpt>
      <trkpt lat="43.72438" lon="1.47205">
        <ele>179.528048</ele>
        <time>2023-07-30T13:53:44.000Z</time>
      </trkpt>
      <trkpt lat="43.72438" lon="1.47205">
        <ele>179.528048</ele>
        <time>2023-07-30T13:53:44.000Z</time>
      </trkpt>
      <trkpt lat="43.72436" lon="1.47202">
        <ele>179.570226</ele>
        <time>2023-07-30T13:53:47.000Z</time>
      </trkpt>
      <trkpt lat="43.72436" lon="1.47202">
        <ele>179.570226</ele>
        <time>2023-07-30T13:53:47.000Z</time>
      </trkpt>
      <trkpt lat="43.72434" lon="1.472">
        <ele>179.603842</ele>
        <time>2023-07-30T13:53:48.000Z</time>
      </trkpt>
      <trkpt lat="43.72434" lon="1.472">
        <ele>179.603842</ele>
        <time>2023-07-30T13:53:48.000Z</time>
      </trkpt>
      <trkpt lat="43.72434" lon="1.47196">
        <ele>179.635863</ele>
        <time>2023-07-30T13:53:49.000Z</time>
      </trkpt>
      <trkpt lat="43.72434" lon="1.47196">
        <ele>179.635863</ele>
        <time>2023-07-30T13:53:49.000Z</time>
      </trkpt>
      <trkpt lat="43.72434" lon="1.47193">
        <ele>179.667884</ele>
        <time>2023-07-30T13:53:49.000Z</time>
      </trkpt>
      <trkpt lat="43.72435" lon="1.4719">
        <ele>179.697584</ele>
        <time>2023-07-30T13:53:52.000Z</time>
      </trkpt>
      <trkpt lat="43.72435" lon="1.4719">
        <ele>179.697584</ele>
        <time>2023-07-30T13:53:52.000Z</time>
      </trkpt>
      <trkpt lat="43.72438" lon="1.47187">
        <ele>179.746583</ele>
        <time>2023-07-30T13:53:52.000Z</time>
      </trkpt>
      <trkpt lat="43.72442" lon="1.47183">
        <ele>179.806448</ele>
        <time>2023-07-30T13:53:54.000Z</time>
      </trkpt>
      <trkpt lat="43.72444" lon="1.4718">
        <ele>179.854439</ele>
        <time>2023-07-30T13:53:55.000Z</time>
      </trkpt>
      <trkpt lat="43.72448" lon="1.47175">
        <ele>179.916455</ele>
        <time>2023-07-30T13:53:56.000Z</time>
      </trkpt>
      <trkpt lat="43.72451" lon="1.47171">
        <ele>179.983715</ele>
        <time>2023-07-30T13:53:57.000Z</time>
      </trkpt>
      <trkpt lat="43.72451" lon="1.47171">
        <ele>179.983715</ele>
        <time>2023-07-30T13:53:57.000Z</time>
      </trkpt>
      <trkpt lat="43.72456" lon="1.47166">
        <ele>180.055674</ele>
        <time>2023-07-30T13:53:57.000Z</time>
      </trkpt>
      <trkpt lat="43.72456" lon="1.47166">
        <ele>180.055674</ele>
        <time>2023-07-30T13:53:57.000Z</time>
      </trkpt>
      <trkpt lat="43.72461" lon="1.47159">
        <ele>180.155932</ele>
        <time>2023-07-30T13:53:59.000Z</time>
      </trkpt>
      <trkpt lat="43.72465" lon="1.47154">
        <ele>180.225613</ele>
        <time>2023-07-30T13:54:00.000Z</time>
      </trkpt>
      <trkpt lat="43.72465" lon="1.47154">
        <ele>180.225613</ele>
        <time>2023-07-30T13:54:00.000Z</time>
      </trkpt>
      <trkpt lat="43.72467" lon="1.47148">
        <ele>180.283175</ele>
        <time>2023-07-30T13:54:01.000Z</time>
      </trkpt>
      <trkpt lat="43.72466" lon="1.47145">
        <ele>180.31824</ele>
        <time>2023-07-30T13:54:02.000Z</time>
      </trkpt>
      <trkpt lat="43.72465" lon="1.4714">
        <ele>180.372651</ele>
        <time>2023-07-30T13:54:03.000Z</time>
      </trkpt>
      <trkpt lat="43.72463" lon="1.47137">
        <ele>180.410336</ele>
        <time>2023-07-30T13:54:04.000Z</time>
      </trkpt>
      <trkpt lat="43.7246" lon="1.47132">
        <ele>180.472901</ele>
        <time>2023-07-30T13:54:05.000Z</time>
      </trkpt>
      <trkpt lat="43.72457" lon="1.47127">
        <ele>180.532754</ele>
        <time>2023-07-30T13:54:06.000Z</time>
      </trkpt>
      <trkpt lat="43.72457" lon="1.47127">
        <ele>180.532754</ele>
        <time>2023-07-30T13:54:06.000Z</time>
      </trkpt>
      <trkpt lat="43.72454" lon="1.47123">
        <ele>180.591696</ele>
        <time>2023-07-30T13:54:08.000Z</time>
      </trkpt>
      <trkpt lat="43.72451" lon="1.47118">
        <ele>180.65512</ele>
        <time>2023-07-30T13:54:09.000Z</time>
      </trkpt>
      <trkpt lat="43.72451" lon="1.47118">
        <ele>180.65512</ele>
        <time>2023-07-30T13:54:09.000Z</time>
      </trkpt>
      <trkpt lat="43.72448" lon="1.47112">
        <ele>180.720695</ele>
        <time>2023-07-30T13:54:10.000Z</time>
      </trkpt>
      <trkpt lat="43.72445" lon="1.47107">
        <ele>180.776946</ele>
        <time>2023-07-30T13:54:11.000Z</time>
      </trkpt>
      <trkpt lat="43.72445" lon="1.47107">
        <ele>180.776946</ele>
        <time>2023-07-30T13:54:11.000Z</time>
      </trkpt>
      <trkpt lat="43.72443" lon="1.47101">
        <ele>180.849125</ele>
        <time>2023-07-30T13:54:12.000Z</time>
      </trkpt>
      <trkpt lat="43.72443" lon="1.47101">
        <ele>180.849125</ele>
        <time>2023-07-30T13:54:12.000Z</time>
      </trkpt>
      <trkpt lat="43.72441" lon="1.47094">
        <ele>180.917521</ele>
        <time>2023-07-30T13:54:13.000Z</time>
      </trkpt>
      <trkpt lat="43.72438" lon="1.47083">
        <ele>181.037041</ele>
        <time>2023-07-30T13:54:15.000Z</time>
      </trkpt>
      <trkpt lat="43.72438" lon="1.47083">
        <ele>181.037041</ele>
        <time>2023-07-30T13:54:15.000Z</time>
      </trkpt>
      <trkpt lat="43.72435" lon="1.47077">
        <ele>181.100259</ele>
        <time>2023-07-30T13:54:17.000Z</time>
      </trkpt>
      <trkpt lat="43.72432" lon="1.47073">
        <ele>181.153661</ele>
        <time>2023-07-30T13:54:18.000Z</time>
      </trkpt>
      <trkpt lat="43.72429" lon="1.4707">
        <ele>181.208987</ele>
        <time>2023-07-30T13:54:19.000Z</time>
      </trkpt>
      <trkpt lat="43.72429" lon="1.4707">
        <ele>181.208987</ele>
        <time>2023-07-30T13:54:19.000Z</time>
      </trkpt>
      <trkpt lat="43.72424" lon="1.47067">
        <ele>181.277149</ele>
        <time>2023-07-30T13:54:20.000Z</time>
      </trkpt>
      <trkpt lat="43.7242" lon="1.47064">
        <ele>181.341987</ele>
        <time>2023-07-30T13:54:21.000Z</time>
      </trkpt>
      <trkpt lat="43.7242" lon="1.47064">
        <ele>181.341987</ele>
        <time>2023-07-30T13:54:21.000Z</time>
      </trkpt>
      <trkpt lat="43.72416" lon="1.47062">
        <ele>181.399798</ele>
        <time>2023-07-30T13:54:22.000Z</time>
      </trkpt>
      <trkpt lat="43.72413" lon="1.47059">
        <ele>181.450216</ele>
        <time>2023-07-30T13:54:23.000Z</time>
      </trkpt>
      <trkpt lat="43.72413" lon="1.47059">
        <ele>181.450216</ele>
        <time>2023-07-30T13:54:23.000Z</time>
      </trkpt>
      <trkpt lat="43.7241" lon="1.47056">
        <ele>181.491026</ele>
        <time>2023-07-30T13:54:25.000Z</time>
      </trkpt>
      <trkpt lat="43.72408" lon="1.47054">
        <ele>181.524656</ele>
        <time>2023-07-30T13:54:26.000Z</time>
      </trkpt>
      <trkpt lat="43.72405" lon="1.47049">
        <ele>181.592554</ele>
        <time>2023-07-30T13:54:27.000Z</time>
      </trkpt>
      <trkpt lat="43.72405" lon="1.47049">
        <ele>181.592554</ele>
        <time>2023-07-30T13:54:27.000Z</time>
      </trkpt>
      <trkpt lat="43.72402" lon="1.47047">
        <ele>181.638088</ele>
        <time>2023-07-30T13:54:28.000Z</time>
      </trkpt>
      <trkpt lat="43.72402" lon="1.47047">
        <ele>181.638088</ele>
        <time>2023-07-30T13:54:28.000Z</time>
      </trkpt>
      <trkpt lat="43.72393" lon="1.47041">
        <ele>180.925542</ele>
        <time>2023-07-30T13:54:30.000Z</time>
      </trkpt>
      <trkpt lat="43.72391" lon="1.47041">
        <ele>180.743678</ele>
        <time>2023-07-30T13:54:31.000Z</time>
      </trkpt>
      <trkpt lat="43.72391" lon="1.47041">
        <ele>180.743678</ele>
        <time>2023-07-30T13:54:31.000Z</time>
      </trkpt>
      <trkpt lat="43.72388" lon="1.47042">
        <ele>180.373122</ele>
        <time>2023-07-30T13:54:31.000Z</time>
      </trkpt>
      <trkpt lat="43.72383" lon="1.47042">
        <ele>179.871583</ele>
        <time>2023-07-30T13:54:33.000Z</time>
      </trkpt>
      <trkpt lat="43.72378" lon="1.47044">
        <ele>179.324099</ele>
        <time>2023-07-30T13:54:34.000Z</time>
      </trkpt>
      <trkpt lat="43.72378" lon="1.47044">
        <ele>179.324099</ele>
        <time>2023-07-30T13:54:34.000Z</time>
      </trkpt>
      <trkpt lat="43.72373" lon="1.47046">
        <ele>178.767914</ele>
        <time>2023-07-30T13:54:35.000Z</time>
      </trkpt>
      <trkpt lat="43.72373" lon="1.47046">
        <ele>178.767914</ele>
        <time>2023-07-30T13:54:35.000Z</time>
      </trkpt>
      <trkpt lat="43.72368" lon="1.47046">
        <ele>178.22603</ele>
        <time>2023-07-30T13:54:36.000Z</time>
      </trkpt>
      <trkpt lat="43.72368" lon="1.47046">
        <ele>178.22603</ele>
        <time>2023-07-30T13:54:36.000Z</time>
      </trkpt>
      <trkpt lat="43.72361" lon="1.47043">
        <ele>177.411108</ele>
        <time>2023-07-30T13:54:38.000Z</time>
      </trkpt>
      <trkpt lat="43.72361" lon="1.47043">
        <ele>177.411108</ele>
        <time>2023-07-30T13:54:38.000Z</time>
      </trkpt>
      <trkpt lat="43.72359" lon="1.47039">
        <ele>177.022889</ele>
        <time>2023-07-30T13:54:40.000Z</time>
      </trkpt>
      <trkpt lat="43.72359" lon="1.47039">
        <ele>177.022889</ele>
        <time>2023-07-30T13:54:40.000Z</time>
      </trkpt>
      <trkpt lat="43.72357" lon="1.47033">
        <ele>176.502639</ele>
        <time>2023-07-30T13:54:41.000Z</time>
      </trkpt>
      <trkpt lat="43.72357" lon="1.47033">
        <ele>176.502639</ele>
        <time>2023-07-30T13:54:41.000Z</time>
      </trkpt>
      <trkpt lat="43.72356" lon="1.47027">
        <ele>176.009363</ele>
        <time>2023-07-30T13:54:42.000Z</time>
      </trkpt>
      <trkpt lat="43.72356" lon="1.47027">
        <ele>176.009363</ele>
        <time>2023-07-30T13:54:42.000Z</time>
      </trkpt>
      <trkpt lat="43.72355" lon="1.4702">
        <ele>175.460001</ele>
        <time>2023-07-30T13:54:43.000Z</time>
      </trkpt>
      <trkpt lat="43.72355" lon="1.4702">
        <ele>175.460001</ele>
        <time>2023-07-30T13:54:43.000Z</time>
      </trkpt>
      <trkpt lat="43.72352" lon="1.47007">
        <ele>174.442148</ele>
        <time>2023-07-30T13:54:45.000Z</time>
      </trkpt>
      <trkpt lat="43.72352" lon="1.47007">
        <ele>174.442148</ele>
        <time>2023-07-30T13:54:45.000Z</time>
      </trkpt>
      <trkpt lat="43.72351" lon="1.47">
        <ele>173.8581</ele>
        <time>2023-07-30T13:54:46.000Z</time>
      </trkpt>
      <trkpt lat="43.72351" lon="1.47">
        <ele>173.8581</ele>
        <time>2023-07-30T13:54:46.000Z</time>
      </trkpt>
      <trkpt lat="43.72352" lon="1.46993">
        <ele>173.304621</ele>
        <time>2023-07-30T13:54:47.000Z</time>
      </trkpt>
      <trkpt lat="43.72352" lon="1.46993">
        <ele>173.304621</ele>
        <time>2023-07-30T13:54:47.000Z</time>
      </trkpt>
      <trkpt lat="43.72358" lon="1.46972">
        <ele>171.529737</ele>
        <time>2023-07-30T13:54:49.000Z</time>
      </trkpt>
      <trkpt lat="43.72358" lon="1.46972">
        <ele>171.529737</ele>
        <time>2023-07-30T13:54:49.000Z</time>
      </trkpt>
      <trkpt lat="43.72361" lon="1.46967">
        <ele>171.038808</ele>
        <time>2023-07-30T13:54:49.000Z</time>
      </trkpt>
      <trkpt lat="43.72361" lon="1.46967">
        <ele>171.038808</ele>
        <time>2023-07-30T13:54:49.000Z</time>
      </trkpt>
      <trkpt lat="43.72363" lon="1.46962">
        <ele>170.537313</ele>
        <time>2023-07-30T13:54:51.000Z</time>
      </trkpt>
      <trkpt lat="43.72363" lon="1.46962">
        <ele>170.537313</ele>
        <time>2023-07-30T13:54:51.000Z</time>
      </trkpt>
      <trkpt lat="43.72365" lon="1.46957">
        <ele>170.101782</ele>
        <time>2023-07-30T13:54:52.000Z</time>
      </trkpt>
      <trkpt lat="43.72365" lon="1.46957">
        <ele>170.101782</ele>
        <time>2023-07-30T13:54:52.000Z</time>
      </trkpt>
      <trkpt lat="43.72368" lon="1.46949">
        <ele>169.430391</ele>
        <time>2023-07-30T13:54:53.000Z</time>
      </trkpt>
      <trkpt lat="43.72368" lon="1.46949">
        <ele>169.430391</ele>
        <time>2023-07-30T13:54:53.000Z</time>
      </trkpt>
      <trkpt lat="43.7237" lon="1.46943">
        <ele>168.899986</ele>
        <time>2023-07-30T13:54:54.000Z</time>
      </trkpt>
      <trkpt lat="43.7237" lon="1.46943">
        <ele>168.899986</ele>
        <time>2023-07-30T13:54:54.000Z</time>
      </trkpt>
      <trkpt lat="43.7237" lon="1.46938">
        <ele>168.482622</ele>
        <time>2023-07-30T13:54:55.000Z</time>
      </trkpt>
      <trkpt lat="43.7237" lon="1.46938">
        <ele>168.482622</ele>
        <time>2023-07-30T13:54:55.000Z</time>
      </trkpt>
      <trkpt lat="43.72369" lon="1.46932">
        <ele>168.04014</ele>
        <time>2023-07-30T13:54:56.000Z</time>
      </trkpt>
      <trkpt lat="43.72369" lon="1.46932">
        <ele>168.04014</ele>
        <time>2023-07-30T13:54:56.000Z</time>
      </trkpt>
      <trkpt lat="43.72367" lon="1.46926">
        <ele>167.534238</ele>
        <time>2023-07-30T13:54:57.000Z</time>
      </trkpt>
      <trkpt lat="43.72367" lon="1.46926">
        <ele>167.534238</ele>
        <time>2023-07-30T13:54:57.000Z</time>
      </trkpt>
      <trkpt lat="43.72365" lon="1.46921">
        <ele>167.098707</ele>
        <time>2023-07-30T13:54:58.000Z</time>
      </trkpt>
      <trkpt lat="43.72365" lon="1.46921">
        <ele>167.098707</ele>
        <time>2023-07-30T13:54:58.000Z</time>
      </trkpt>
      <trkpt lat="43.72362" lon="1.46916">
        <ele>166.558567</ele>
        <time>2023-07-30T13:55:00.000Z</time>
      </trkpt>
      <trkpt lat="43.72362" lon="1.46916">
        <ele>166.558567</ele>
        <time>2023-07-30T13:55:00.000Z</time>
      </trkpt>
      <trkpt lat="43.72359" lon="1.46911">
        <ele>166.073271</ele>
        <time>2023-07-30T13:55:01.000Z</time>
      </trkpt>
      <trkpt lat="43.72359" lon="1.46911">
        <ele>166.073271</ele>
        <time>2023-07-30T13:55:01.000Z</time>
      </trkpt>
      <trkpt lat="43.72357" lon="1.46908">
        <ele>165.691023</ele>
        <time>2023-07-30T13:55:01.000Z</time>
      </trkpt>
      <trkpt lat="43.72357" lon="1.46908">
        <ele>165.691023</ele>
        <time>2023-07-30T13:55:01.000Z</time>
      </trkpt>
      <trkpt lat="43.72356" lon="1.46905">
        <ele>165.427544</ele>
        <time>2023-07-30T13:55:03.000Z</time>
      </trkpt>
      <trkpt lat="43.72356" lon="1.46905">
        <ele>165.427544</ele>
        <time>2023-07-30T13:55:03.000Z</time>
      </trkpt>
      <trkpt lat="43.72354" lon="1.46901">
        <ele>165.040116</ele>
        <time>2023-07-30T13:55:04.000Z</time>
      </trkpt>
      <trkpt lat="43.72354" lon="1.46901">
        <ele>165.040116</ele>
        <time>2023-07-30T13:55:04.000Z</time>
      </trkpt>
      <trkpt lat="43.72352" lon="1.46896">
        <ele>164.638665</ele>
        <time>2023-07-30T13:55:06.000Z</time>
      </trkpt>
      <trkpt lat="43.72352" lon="1.46896">
        <ele>164.638665</ele>
        <time>2023-07-30T13:55:06.000Z</time>
      </trkpt>
      <trkpt lat="43.72351" lon="1.46892">
        <ele>164.318053</ele>
        <time>2023-07-30T13:55:07.000Z</time>
      </trkpt>
      <trkpt lat="43.72351" lon="1.46892">
        <ele>164.318053</ele>
        <time>2023-07-30T13:55:07.000Z</time>
      </trkpt>
      <trkpt lat="43.72349" lon="1.46887">
        <ele>163.833517</ele>
        <time>2023-07-30T13:55:08.000Z</time>
      </trkpt>
      <trkpt lat="43.72349" lon="1.46887">
        <ele>163.833517</ele>
        <time>2023-07-30T13:55:08.000Z</time>
      </trkpt>
      <trkpt lat="43.72346" lon="1.46877">
        <ele>163.026691</ele>
        <time>2023-07-30T13:55:10.000Z</time>
      </trkpt>
      <trkpt lat="43.72346" lon="1.46877">
        <ele>163.026691</ele>
        <time>2023-07-30T13:55:10.000Z</time>
      </trkpt>
      <trkpt lat="43.72345" lon="1.46873">
        <ele>162.671334</ele>
        <time>2023-07-30T13:55:11.000Z</time>
      </trkpt>
      <trkpt lat="43.72344" lon="1.4687">
        <ele>162.407855</ele>
        <time>2023-07-30T13:55:12.000Z</time>
      </trkpt>
      <trkpt lat="43.72343" lon="1.46863">
        <ele>162.029133</ele>
        <time>2023-07-30T13:55:14.000Z</time>
      </trkpt>
      <trkpt lat="43.72341" lon="1.46857">
        <ele>161.82455</ele>
        <time>2023-07-30T13:55:15.000Z</time>
      </trkpt>
      <trkpt lat="43.72341" lon="1.46857">
        <ele>161.82455</ele>
        <time>2023-07-30T13:55:15.000Z</time>
      </trkpt>
      <trkpt lat="43.72337" lon="1.46847">
        <ele>161.453137</ele>
        <time>2023-07-30T13:55:16.000Z</time>
      </trkpt>
      <trkpt lat="43.72337" lon="1.46847">
        <ele>161.453137</ele>
        <time>2023-07-30T13:55:16.000Z</time>
      </trkpt>
      <trkpt lat="43.72335" lon="1.46844">
        <ele>161.307926</ele>
        <time>2023-07-30T13:55:17.000Z</time>
      </trkpt>
      <trkpt lat="43.72335" lon="1.46844">
        <ele>161.307926</ele>
        <time>2023-07-30T13:55:17.000Z</time>
      </trkpt>
      <trkpt lat="43.72334" lon="1.46843">
        <ele>161.263335</ele>
        <time>2023-07-30T13:55:19.000Z</time>
      </trkpt>
      <trkpt lat="43.72332" lon="1.46842">
        <ele>161.150827</ele>
        <time>2023-07-30T13:55:20.000Z</time>
      </trkpt>
      <trkpt lat="43.72332" lon="1.46842">
        <ele>161.150827</ele>
        <time>2023-07-30T13:55:20.000Z</time>
      </trkpt>
      <trkpt lat="43.72326" lon="1.46841">
        <ele>160.845232</ele>
        <time>2023-07-30T13:55:20.000Z</time>
      </trkpt>
      <trkpt lat="43.72326" lon="1.46841">
        <ele>160.845232</ele>
        <time>2023-07-30T13:55:20.000Z</time>
      </trkpt>
      <trkpt lat="43.72319" lon="1.46842">
        <ele>160.541223</ele>
        <time>2023-07-30T13:55:22.000Z</time>
      </trkpt>
      <trkpt lat="43.72319" lon="1.46842">
        <ele>160.541223</ele>
        <time>2023-07-30T13:55:22.000Z</time>
      </trkpt>
      <trkpt lat="43.72316" lon="1.46843">
        <ele>160.379679</ele>
        <time>2023-07-30T13:55:23.000Z</time>
      </trkpt>
      <trkpt lat="43.72316" lon="1.46843">
        <ele>160.379679</ele>
        <time>2023-07-30T13:55:23.000Z</time>
      </trkpt>
      <trkpt lat="43.7231" lon="1.46844">
        <ele>160.130056</ele>
        <time>2023-07-30T13:55:24.000Z</time>
      </trkpt>
      <trkpt lat="43.7231" lon="1.46844">
        <ele>160.130056</ele>
        <time>2023-07-30T13:55:24.000Z</time>
      </trkpt>
      <trkpt lat="43.72297" lon="1.4685">
        <ele>159.488362</ele>
        <time>2023-07-30T13:55:26.000Z</time>
      </trkpt>
      <trkpt lat="43.72297" lon="1.4685">
        <ele>159.488362</ele>
        <time>2023-07-30T13:55:26.000Z</time>
      </trkpt>
      <trkpt lat="43.72292" lon="1.46853">
        <ele>159.214224</ele>
        <time>2023-07-30T13:55:27.000Z</time>
      </trkpt>
      <trkpt lat="43.72287" lon="1.46857">
        <ele>158.955323</ele>
        <time>2023-07-30T13:55:27.000Z</time>
      </trkpt>
      <trkpt lat="43.7228" lon="1.46863">
        <ele>158.576801</ele>
        <time>2023-07-30T13:55:29.000Z</time>
      </trkpt>
      <trkpt lat="43.72276" lon="1.46868">
        <ele>158.307936</ele>
        <time>2023-07-30T13:55:30.000Z</time>
      </trkpt>
      <trkpt lat="43.72272" lon="1.46871">
        <ele>158.110176</ele>
        <time>2023-07-30T13:55:30.000Z</time>
      </trkpt>
      <trkpt lat="43.72265" lon="1.46877">
        <ele>157.736873</ele>
        <time>2023-07-30T13:55:33.000Z</time>
      </trkpt>
      <trkpt lat="43.72265" lon="1.46877">
        <ele>157.736873</ele>
        <time>2023-07-30T13:55:33.000Z</time>
      </trkpt>
      <trkpt lat="43.72259" lon="1.46884">
        <ele>157.356063</ele>
        <time>2023-07-30T13:55:34.000Z</time>
      </trkpt>
      <trkpt lat="43.72259" lon="1.46884">
        <ele>157.356063</ele>
        <time>2023-07-30T13:55:34.000Z</time>
      </trkpt>
      <trkpt lat="43.72255" lon="1.46888">
        <ele>157.141148</ele>
        <time>2023-07-30T13:55:35.000Z</time>
      </trkpt>
      <trkpt lat="43.72251" lon="1.46891">
        <ele>156.914068</ele>
        <time>2023-07-30T13:55:36.000Z</time>
      </trkpt>
      <trkpt lat="43.72244" lon="1.46896">
        <ele>156.549854</ele>
        <time>2023-07-30T13:55:37.000Z</time>
      </trkpt>
      <trkpt lat="43.72241" lon="1.46899">
        <ele>156.362851</ele>
        <time>2023-07-30T13:55:38.000Z</time>
      </trkpt>
      <trkpt lat="43.72239" lon="1.46901">
        <ele>156.257262</ele>
        <time>2023-07-30T13:55:39.000Z</time>
      </trkpt>
      <trkpt lat="43.72235" lon="1.46903">
        <ele>156.063705</ele>
        <time>2023-07-30T13:55:41.000Z</time>
      </trkpt>
      <trkpt lat="43.72222" lon="1.46912">
        <ele>155.380751</ele>
        <time>2023-07-30T13:55:42.000Z</time>
      </trkpt>
      <trkpt lat="43.72218" lon="1.46916">
        <ele>155.174891</ele>
        <time>2023-07-30T13:55:43.000Z</time>
      </trkpt>
      <trkpt lat="43.72215" lon="1.46918">
        <ele>154.99195</ele>
        <time>2023-07-30T13:55:44.000Z</time>
      </trkpt>
      <trkpt lat="43.72215" lon="1.46918">
        <ele>154.99195</ele>
        <time>2023-07-30T13:55:44.000Z</time>
      </trkpt>
      <trkpt lat="43.72211" lon="1.46922">
        <ele>154.76487</ele>
        <time>2023-07-30T13:55:45.000Z</time>
      </trkpt>
      <trkpt lat="43.72208" lon="1.46925">
        <ele>154.588332</ele>
        <time>2023-07-30T13:55:47.000Z</time>
      </trkpt>
      <trkpt lat="43.72203" lon="1.46928">
        <ele>154.339626</ele>
        <time>2023-07-30T13:55:48.000Z</time>
      </trkpt>
      <trkpt lat="43.72198" lon="1.46932">
        <ele>154.059423</ele>
        <time>2023-07-30T13:55:49.000Z</time>
      </trkpt>
      <trkpt lat="43.72198" lon="1.46932">
        <ele>154.059423</ele>
        <time>2023-07-30T13:55:49.000Z</time>
      </trkpt>
      <trkpt lat="43.72187" lon="1.46942">
        <ele>154.106175</ele>
        <time>2023-07-30T13:55:50.000Z</time>
      </trkpt>
      <trkpt lat="43.72183" lon="1.46946">
        <ele>154.342401</ele>
        <time>2023-07-30T13:55:51.000Z</time>
      </trkpt>
      <trkpt lat="43.72178" lon="1.46951">
        <ele>154.583993</ele>
        <time>2023-07-30T13:55:52.000Z</time>
      </trkpt>
      <trkpt lat="43.72172" lon="1.46956">
        <ele>154.881119</ele>
        <time>2023-07-30T13:55:53.000Z</time>
      </trkpt>
      <trkpt lat="43.72168" lon="1.4696">
        <ele>155.122712</ele>
        <time>2023-07-30T13:55:54.000Z</time>
      </trkpt>
      <trkpt lat="43.72164" lon="1.46963">
        <ele>155.294903</ele>
        <time>2023-07-30T13:55:57.000Z</time>
      </trkpt>
      <trkpt lat="43.72164" lon="1.46963">
        <ele>155.294903</ele>
        <time>2023-07-30T13:55:57.000Z</time>
      </trkpt>
      <trkpt lat="43.72153" lon="1.46974">
        <ele>155.883641</ele>
        <time>2023-07-30T13:55:58.000Z</time>
      </trkpt>
      <trkpt lat="43.72153" lon="1.46974">
        <ele>155.883641</ele>
        <time>2023-07-30T13:55:58.000Z</time>
      </trkpt>
      <trkpt lat="43.72149" lon="1.46977">
        <ele>156.090803</ele>
        <time>2023-07-30T13:56:00.000Z</time>
      </trkpt>
      <trkpt lat="43.72149" lon="1.46977">
        <ele>156.090803</ele>
        <time>2023-07-30T13:56:00.000Z</time>
      </trkpt>
      <trkpt lat="43.72147" lon="1.46978">
        <ele>156.202836</ele>
        <time>2023-07-30T13:56:00.000Z</time>
      </trkpt>
      <trkpt lat="43.72147" lon="1.46978">
        <ele>156.202836</ele>
        <time>2023-07-30T13:56:00.000Z</time>
      </trkpt>
      <trkpt lat="43.72145" lon="1.46979">
        <ele>156.273989</ele>
        <time>2023-07-30T13:56:01.000Z</time>
      </trkpt>
      <trkpt lat="43.72145" lon="1.46979">
        <ele>156.273989</ele>
        <time>2023-07-30T13:56:01.000Z</time>
      </trkpt>
      <trkpt lat="43.72145" lon="1.46979">
        <ele>156.273989</ele>
        <time>2023-07-30T13:56:03.000Z</time>
      </trkpt>
      <trkpt lat="43.72145" lon="1.46979">
        <ele>156.273989</ele>
        <time>2023-07-30T13:56:08.000Z</time>
      </trkpt>
      <trkpt lat="43.72143" lon="1.46979">
        <ele>156.374872</ele>
        <time>2023-07-30T13:56:09.000Z</time>
      </trkpt>
      <trkpt lat="43.72143" lon="1.46979">
        <ele>156.374872</ele>
        <time>2023-07-30T13:56:09.000Z</time>
      </trkpt>
      <trkpt lat="43.72142" lon="1.46979">
        <ele>156.427473</ele>
        <time>2023-07-30T13:56:12.000Z</time>
      </trkpt>
      <trkpt lat="43.7214" lon="1.46978">
        <ele>156.501354</ele>
        <time>2023-07-30T13:56:16.000Z</time>
      </trkpt>
      <trkpt lat="43.7214" lon="1.46978">
        <ele>156.501354</ele>
        <time>2023-07-30T13:56:16.000Z</time>
      </trkpt>
      <trkpt lat="43.72139" lon="1.46978">
        <ele>156.549226</ele>
        <time>2023-07-30T13:56:18.000Z</time>
      </trkpt>
      <trkpt lat="43.72139" lon="1.46978">
        <ele>156.549226</ele>
        <time>2023-07-30T13:56:18.000Z</time>
      </trkpt>
      <trkpt lat="43.72139" lon="1.46978">
        <ele>156.552371</ele>
        <time>2023-07-30T13:56:19.000Z</time>
      </trkpt>
      <trkpt lat="43.72139" lon="1.46978">
        <ele>156.573849</ele>
        <time>2023-07-30T13:56:20.000Z</time>
      </trkpt>
      <trkpt lat="43.72139" lon="1.46978">
        <ele>156.573849</ele>
        <time>2023-07-30T13:56:20.000Z</time>
      </trkpt>
      <trkpt lat="43.72135" lon="1.46978">
        <ele>156.723445</ele>
        <time>2023-07-30T13:56:22.000Z</time>
      </trkpt>
      <trkpt lat="43.72135" lon="1.46978">
        <ele>156.723445</ele>
        <time>2023-07-30T13:56:22.000Z</time>
      </trkpt>
      <trkpt lat="43.72131" lon="1.46979">
        <ele>156.895418</ele>
        <time>2023-07-30T13:56:23.000Z</time>
      </trkpt>
      <trkpt lat="43.72118" lon="1.46985">
        <ele>157.486118</ele>
        <time>2023-07-30T13:56:24.000Z</time>
      </trkpt>
      <trkpt lat="43.72115" lon="1.46986">
        <ele>157.658091</ele>
        <time>2023-07-30T13:56:26.000Z</time>
      </trkpt>
      <trkpt lat="43.7211" lon="1.46989">
        <ele>157.879404</ele>
        <time>2023-07-30T13:56:27.000Z</time>
      </trkpt>
      <trkpt lat="43.7211" lon="1.46989">
        <ele>157.879404</ele>
        <time>2023-07-30T13:56:27.000Z</time>
      </trkpt>
      <trkpt lat="43.72106" lon="1.4699">
        <ele>158.047743</ele>
        <time>2023-07-30T13:56:28.000Z</time>
      </trkpt>
      <trkpt lat="43.72102" lon="1.46992">
        <ele>158.228248</ele>
        <time>2023-07-30T13:56:29.000Z</time>
      </trkpt>
      <trkpt lat="43.721" lon="1.46994">
        <ele>158.358679</ele>
        <time>2023-07-30T13:56:30.000Z</time>
      </trkpt>
      <trkpt lat="43.721" lon="1.46994">
        <ele>158.358679</ele>
        <time>2023-07-30T13:56:30.000Z</time>
      </trkpt>
      <trkpt lat="43.72096" lon="1.46996">
        <ele>158.53452</ele>
        <time>2023-07-30T13:56:31.000Z</time>
      </trkpt>
      <trkpt lat="43.72092" lon="1.46998">
        <ele>158.710361</ele>
        <time>2023-07-30T13:56:32.000Z</time>
      </trkpt>
      <trkpt lat="43.72088" lon="1.47">
        <ele>158.922173</ele>
        <time>2023-07-30T13:56:33.000Z</time>
      </trkpt>
      <trkpt lat="43.72088" lon="1.47">
        <ele>158.922173</ele>
        <time>2023-07-30T13:56:33.000Z</time>
      </trkpt>
      <trkpt lat="43.72077" lon="1.47005">
        <ele>159.397212</ele>
        <time>2023-07-30T13:56:35.000Z</time>
      </trkpt>
      <trkpt lat="43.72077" lon="1.47005">
        <ele>159.397212</ele>
        <time>2023-07-30T13:56:35.000Z</time>
      </trkpt>
      <trkpt lat="43.72072" lon="1.47008">
        <ele>159.645024</ele>
        <time>2023-07-30T13:56:36.000Z</time>
      </trkpt>
      <trkpt lat="43.72072" lon="1.47008">
        <ele>159.645024</ele>
        <time>2023-07-30T13:56:36.000Z</time>
      </trkpt>
      <trkpt lat="43.72067" lon="1.4701">
        <ele>159.869216</ele>
        <time>2023-07-30T13:56:37.000Z</time>
      </trkpt>
      <trkpt lat="43.72067" lon="1.4701">
        <ele>159.869216</ele>
        <time>2023-07-30T13:56:37.000Z</time>
      </trkpt>
      <trkpt lat="43.72063" lon="1.47012">
        <ele>160.059659</ele>
        <time>2023-07-30T13:56:38.000Z</time>
      </trkpt>
      <trkpt lat="43.72063" lon="1.47012">
        <ele>160.059659</ele>
        <time>2023-07-30T13:56:38.000Z</time>
      </trkpt>
      <trkpt lat="43.72059" lon="1.47013">
        <ele>160.250102</ele>
        <time>2023-07-30T13:56:40.000Z</time>
      </trkpt>
      <trkpt lat="43.72059" lon="1.47013">
        <ele>160.250102</ele>
        <time>2023-07-30T13:56:40.000Z</time>
      </trkpt>
      <trkpt lat="43.72055" lon="1.47015">
        <ele>160.420457</ele>
        <time>2023-07-30T13:56:41.000Z</time>
      </trkpt>
      <trkpt lat="43.72055" lon="1.47015">
        <ele>160.420457</ele>
        <time>2023-07-30T13:56:41.000Z</time>
      </trkpt>
      <trkpt lat="43.72051" lon="1.47016">
        <ele>160.59243</ele>
        <time>2023-07-30T13:56:42.000Z</time>
      </trkpt>
      <trkpt lat="43.72051" lon="1.47016">
        <ele>160.59243</ele>
        <time>2023-07-30T13:56:42.000Z</time>
      </trkpt>
      <trkpt lat="43.72048" lon="1.47017">
        <ele>160.715846</ele>
        <time>2023-07-30T13:56:43.000Z</time>
      </trkpt>
      <trkpt lat="43.72048" lon="1.47017">
        <ele>160.715846</ele>
        <time>2023-07-30T13:56:43.000Z</time>
      </trkpt>
      <trkpt lat="43.72044" lon="1.47019">
        <ele>160.925688</ele>
        <time>2023-07-30T13:56:44.000Z</time>
      </trkpt>
      <trkpt lat="43.72044" lon="1.47019">
        <ele>160.925688</ele>
        <time>2023-07-30T13:56:44.000Z</time>
      </trkpt>
      <trkpt lat="43.72039" lon="1.47021">
        <ele>161.13373</ele>
        <time>2023-07-30T13:56:45.000Z</time>
      </trkpt>
      <trkpt lat="43.72039" lon="1.47021">
        <ele>161.13373</ele>
        <time>2023-07-30T13:56:45.000Z</time>
      </trkpt>
      <trkpt lat="43.72034" lon="1.47023">
        <ele>161.354364</ele>
        <time>2023-07-30T13:56:47.000Z</time>
      </trkpt>
      <trkpt lat="43.72034" lon="1.47023">
        <ele>161.354364</ele>
        <time>2023-07-30T13:56:47.000Z</time>
      </trkpt>
      <trkpt lat="43.7203" lon="1.47024">
        <ele>161.539833</ele>
        <time>2023-07-30T13:56:48.000Z</time>
      </trkpt>
      <trkpt lat="43.7203" lon="1.47024">
        <ele>161.539833</ele>
        <time>2023-07-30T13:56:48.000Z</time>
      </trkpt>
      <trkpt lat="43.72025" lon="1.47025">
        <ele>161.668017</ele>
        <time>2023-07-30T13:56:49.000Z</time>
      </trkpt>
      <trkpt lat="43.72025" lon="1.47025">
        <ele>161.668017</ele>
        <time>2023-07-30T13:56:49.000Z</time>
      </trkpt>
      <trkpt lat="43.7202" lon="1.47026">
        <ele>161.752346</ele>
        <time>2023-07-30T13:56:50.000Z</time>
      </trkpt>
      <trkpt lat="43.7202" lon="1.47026">
        <ele>161.752346</ele>
        <time>2023-07-30T13:56:50.000Z</time>
      </trkpt>
      <trkpt lat="43.72017" lon="1.47026">
        <ele>161.802535</ele>
        <time>2023-07-30T13:56:51.000Z</time>
      </trkpt>
      <trkpt lat="43.72017" lon="1.47026">
        <ele>161.802535</ele>
        <time>2023-07-30T13:56:51.000Z</time>
      </trkpt>
      <trkpt lat="43.72015" lon="1.47025">
        <ele>161.848716</ele>
        <time>2023-07-30T13:56:52.000Z</time>
      </trkpt>
      <trkpt lat="43.72015" lon="1.47025">
        <ele>161.848716</ele>
        <time>2023-07-30T13:56:52.000Z</time>
      </trkpt>
      <trkpt lat="43.72012" lon="1.47024">
        <ele>161.894556</ele>
        <time>2023-07-30T13:56:53.000Z</time>
      </trkpt>
      <trkpt lat="43.72012" lon="1.47024">
        <ele>161.894556</ele>
        <time>2023-07-30T13:56:53.000Z</time>
      </trkpt>
      <trkpt lat="43.7201" lon="1.47022">
        <ele>161.936546</ele>
        <time>2023-07-30T13:56:55.000Z</time>
      </trkpt>
      <trkpt lat="43.7201" lon="1.47022">
        <ele>161.936546</ele>
        <time>2023-07-30T13:56:55.000Z</time>
      </trkpt>
      <trkpt lat="43.72009" lon="1.47019">
        <ele>161.976759</ele>
        <time>2023-07-30T13:56:56.000Z</time>
      </trkpt>
      <trkpt lat="43.72009" lon="1.47019">
        <ele>161.976759</ele>
        <time>2023-07-30T13:56:56.000Z</time>
      </trkpt>
      <trkpt lat="43.72007" lon="1.47016">
        <ele>162.017421</ele>
        <time>2023-07-30T13:56:57.000Z</time>
      </trkpt>
      <trkpt lat="43.72007" lon="1.47013">
        <ele>162.054295</ele>
        <time>2023-07-30T13:56:58.000Z</time>
      </trkpt>
      <trkpt lat="43.72007" lon="1.47013">
        <ele>162.054295</ele>
        <time>2023-07-30T13:56:58.000Z</time>
      </trkpt>
      <trkpt lat="43.72007" lon="1.47011">
        <ele>162.088795</ele>
        <time>2023-07-30T13:56:59.000Z</time>
      </trkpt>
      <trkpt lat="43.72007" lon="1.47011">
        <ele>162.088795</ele>
        <time>2023-07-30T13:56:59.000Z</time>
      </trkpt>
      <trkpt lat="43.72006" lon="1.47007">
        <ele>162.136409</ele>
        <time>2023-07-30T13:57:01.000Z</time>
      </trkpt>
      <trkpt lat="43.72006" lon="1.47007">
        <ele>162.136409</ele>
        <time>2023-07-30T13:57:01.000Z</time>
      </trkpt>
      <trkpt lat="43.72007" lon="1.47002">
        <ele>162.194813</ele>
        <time>2023-07-30T13:57:02.000Z</time>
      </trkpt>
      <trkpt lat="43.72007" lon="1.47002">
        <ele>162.194813</ele>
        <time>2023-07-30T13:57:02.000Z</time>
      </trkpt>
      <trkpt lat="43.72007" lon="1.46998">
        <ele>162.238033</ele>
        <time>2023-07-30T13:57:04.000Z</time>
      </trkpt>
      <trkpt lat="43.72007" lon="1.46998">
        <ele>162.238033</ele>
        <time>2023-07-30T13:57:04.000Z</time>
      </trkpt>
      <trkpt lat="43.72009" lon="1.46995">
        <ele>162.279777</ele>
        <time>2023-07-30T13:57:05.000Z</time>
      </trkpt>
      <trkpt lat="43.7201" lon="1.46992">
        <ele>162.322883</ele>
        <time>2023-07-30T13:57:06.000Z</time>
      </trkpt>
      <trkpt lat="43.72011" lon="1.46989">
        <ele>162.366104</ele>
        <time>2023-07-30T13:57:07.000Z</time>
      </trkpt>
      <trkpt lat="43.72011" lon="1.46989">
        <ele>162.366104</ele>
        <time>2023-07-30T13:57:07.000Z</time>
      </trkpt>
      <trkpt lat="43.72012" lon="1.46985">
        <ele>162.416229</ele>
        <time>2023-07-30T13:57:09.000Z</time>
      </trkpt>
      <trkpt lat="43.72014" lon="1.46982">
        <ele>162.462332</ele>
        <time>2023-07-30T13:57:09.000Z</time>
      </trkpt>
      <trkpt lat="43.72015" lon="1.46978">
        <ele>162.510692</ele>
        <time>2023-07-30T13:57:12.000Z</time>
      </trkpt>
      <trkpt lat="43.72016" lon="1.46976">
        <ele>162.546968</ele>
        <time>2023-07-30T13:57:13.000Z</time>
      </trkpt>
      <trkpt lat="43.72018" lon="1.46973">
        <ele>162.602383</ele>
        <time>2023-07-30T13:57:14.000Z</time>
      </trkpt>
      <trkpt lat="43.72021" lon="1.46969">
        <ele>162.668013</ele>
        <time>2023-07-30T13:57:15.000Z</time>
      </trkpt>
      <trkpt lat="43.72021" lon="1.46969">
        <ele>162.668013</ele>
        <time>2023-07-30T13:57:15.000Z</time>
      </trkpt>
      <trkpt lat="43.72024" lon="1.46966">
        <ele>162.723729</ele>
        <time>2023-07-30T13:57:16.000Z</time>
      </trkpt>
      <trkpt lat="43.72028" lon="1.46963">
        <ele>162.807658</ele>
        <time>2023-07-30T13:57:17.000Z</time>
      </trkpt>
      <trkpt lat="43.72028" lon="1.46963">
        <ele>162.807658</ele>
        <time>2023-07-30T13:57:17.000Z</time>
      </trkpt>
      <trkpt lat="43.72032" lon="1.4696">
        <ele>162.880829</ele>
        <time>2023-07-30T13:57:18.000Z</time>
      </trkpt>
      <trkpt lat="43.72035" lon="1.46957">
        <ele>162.948272</ele>
        <time>2023-07-30T13:57:19.000Z</time>
      </trkpt>
      <trkpt lat="43.72038" lon="1.46954">
        <ele>163.001944</ele>
        <time>2023-07-30T13:57:21.000Z</time>
      </trkpt>
      <trkpt lat="43.72043" lon="1.4695">
        <ele>163.098347</ele>
        <time>2023-07-30T13:57:22.000Z</time>
      </trkpt>
      <trkpt lat="43.72047" lon="1.46947">
        <ele>163.171831</ele>
        <time>2023-07-30T13:57:23.000Z</time>
      </trkpt>
      <trkpt lat="43.72051" lon="1.46944">
        <ele>163.246231</ele>
        <time>2023-07-30T13:57:24.000Z</time>
      </trkpt>
      <trkpt lat="43.72055" lon="1.46941">
        <ele>163.336343</ele>
        <time>2023-07-30T13:57:26.000Z</time>
      </trkpt>
      <trkpt lat="43.72059" lon="1.46939">
        <ele>163.399675</ele>
        <time>2023-07-30T13:57:27.000Z</time>
      </trkpt>
      <trkpt lat="43.72064" lon="1.46937">
        <ele>163.491879</ele>
        <time>2023-07-30T13:57:28.000Z</time>
      </trkpt>
      <trkpt lat="43.7207" lon="1.46935">
        <ele>163.5894</ele>
        <time>2023-07-30T13:57:29.000Z</time>
      </trkpt>
      <trkpt lat="43.7207" lon="1.46935">
        <ele>163.5894</ele>
        <time>2023-07-30T13:57:29.000Z</time>
      </trkpt>
      <trkpt lat="43.72073" lon="1.46934">
        <ele>163.648939</ele>
        <time>2023-07-30T13:57:30.000Z</time>
      </trkpt>
      <trkpt lat="43.72078" lon="1.46934">
        <ele>163.724356</ele>
        <time>2023-07-30T13:57:31.000Z</time>
      </trkpt>
      <trkpt lat="43.72078" lon="1.46934">
        <ele>163.724356</ele>
        <time>2023-07-30T13:57:31.000Z</time>
      </trkpt>
      <trkpt lat="43.72083" lon="1.46933">
        <ele>163.814743</ele>
        <time>2023-07-30T13:57:32.000Z</time>
      </trkpt>
      <trkpt lat="43.72083" lon="1.46933">
        <ele>163.814743</ele>
        <time>2023-07-30T13:57:32.000Z</time>
      </trkpt>
      <trkpt lat="43.72088" lon="1.46933">
        <ele>163.896837</ele>
        <time>2023-07-30T13:57:34.000Z</time>
      </trkpt>
      <trkpt lat="43.72092" lon="1.46933">
        <ele>163.967175</ele>
        <time>2023-07-30T13:57:34.000Z</time>
      </trkpt>
      <trkpt lat="43.72097" lon="1.46932">
        <ele>164.037679</ele>
        <time>2023-07-30T13:57:35.000Z</time>
      </trkpt>
      <trkpt lat="43.72102" lon="1.46931">
        <ele>164.121861</ele>
        <time>2023-07-30T13:57:37.000Z</time>
      </trkpt>
      <trkpt lat="43.72102" lon="1.46931">
        <ele>164.121861</ele>
        <time>2023-07-30T13:57:37.000Z</time>
      </trkpt>
      <trkpt lat="43.72105" lon="1.4693">
        <ele>164.17347</ele>
        <time>2023-07-30T13:57:38.000Z</time>
      </trkpt>
      <trkpt lat="43.72108" lon="1.46928">
        <ele>164.230676</ele>
        <time>2023-07-30T13:57:39.000Z</time>
      </trkpt>
      <trkpt lat="43.72108" lon="1.46928">
        <ele>164.230676</ele>
        <time>2023-07-30T13:57:39.000Z</time>
      </trkpt>
      <trkpt lat="43.72111" lon="1.46926">
        <ele>164.293973</ele>
        <time>2023-07-30T13:57:40.000Z</time>
      </trkpt>
      <trkpt lat="43.72114" lon="1.46923">
        <ele>164.355888</ele>
        <time>2023-07-30T13:57:42.000Z</time>
      </trkpt>
      <trkpt lat="43.72117" lon="1.4692">
        <ele>164.413803</ele>
        <time>2023-07-30T13:57:43.000Z</time>
      </trkpt>
      <trkpt lat="43.72117" lon="1.4692">
        <ele>164.413803</ele>
        <time>2023-07-30T13:57:43.000Z</time>
      </trkpt>
      <trkpt lat="43.7212" lon="1.46915">
        <ele>164.496785</ele>
        <time>2023-07-30T13:57:44.000Z</time>
      </trkpt>
      <trkpt lat="43.7212" lon="1.46915">
        <ele>164.496785</ele>
        <time>2023-07-30T13:57:44.000Z</time>
      </trkpt>
      <trkpt lat="43.72124" lon="1.4691">
        <ele>164.584488</ele>
        <time>2023-07-30T13:57:45.000Z</time>
      </trkpt>
      <trkpt lat="43.72124" lon="1.4691">
        <ele>164.584488</ele>
        <time>2023-07-30T13:57:45.000Z</time>
      </trkpt>
      <trkpt lat="43.72127" lon="1.46906">
        <ele>164.609838</ele>
        <time>2023-07-30T13:57:46.000Z</time>
      </trkpt>
      <trkpt lat="43.72127" lon="1.46906">
        <ele>164.609838</ele>
        <time>2023-07-30T13:57:46.000Z</time>
      </trkpt>
      <trkpt lat="43.72131" lon="1.46901">
        <ele>164.549257</ele>
        <time>2023-07-30T13:57:47.000Z</time>
      </trkpt>
      <trkpt lat="43.72131" lon="1.46901">
        <ele>164.549257</ele>
        <time>2023-07-30T13:57:47.000Z</time>
      </trkpt>
      <trkpt lat="43.72137" lon="1.46894">
        <ele>164.46321</ele>
        <time>2023-07-30T13:57:48.000Z</time>
      </trkpt>
      <trkpt lat="43.72137" lon="1.46894">
        <ele>164.46321</ele>
        <time>2023-07-30T13:57:48.000Z</time>
      </trkpt>
      <trkpt lat="43.72139" lon="1.4689">
        <ele>164.422753</ele>
        <time>2023-07-30T13:57:50.000Z</time>
      </trkpt>
      <trkpt lat="43.72139" lon="1.4689">
        <ele>164.422753</ele>
        <time>2023-07-30T13:57:50.000Z</time>
      </trkpt>
      <trkpt lat="43.72142" lon="1.46885">
        <ele>164.366987</ele>
        <time>2023-07-30T13:57:52.000Z</time>
      </trkpt>
      <trkpt lat="43.72146" lon="1.4688">
        <ele>164.316436</ele>
        <time>2023-07-30T13:57:53.000Z</time>
      </trkpt>
      <trkpt lat="43.72146" lon="1.4688">
        <ele>164.316436</ele>
        <time>2023-07-30T13:57:53.000Z</time>
      </trkpt>
      <trkpt lat="43.72149" lon="1.46876">
        <ele>164.272274</ele>
        <time>2023-07-30T13:57:54.000Z</time>
      </trkpt>
      <trkpt lat="43.72151" lon="1.46872">
        <ele>164.229278</ele>
        <time>2023-07-30T13:57:55.000Z</time>
      </trkpt>
      <trkpt lat="43.72154" lon="1.4687">
        <ele>164.19016</ele>
        <time>2023-07-30T13:57:55.000Z</time>
      </trkpt>
      <trkpt lat="43.72154" lon="1.4687">
        <ele>164.19016</ele>
        <time>2023-07-30T13:57:55.000Z</time>
      </trkpt>
      <trkpt lat="43.72156" lon="1.46868">
        <ele>164.162137</ele>
        <time>2023-07-30T13:57:56.000Z</time>
      </trkpt>
      <trkpt lat="43.72156" lon="1.46868">
        <ele>164.162137</ele>
        <time>2023-07-30T13:57:56.000Z</time>
      </trkpt>
      <trkpt lat="43.72159" lon="1.46865">
        <ele>164.123119</ele>
        <time>2023-07-30T13:57:58.000Z</time>
      </trkpt>
      <trkpt lat="43.72159" lon="1.46865">
        <ele>164.123119</ele>
        <time>2023-07-30T13:57:58.000Z</time>
      </trkpt>
      <trkpt lat="43.72162" lon="1.4686">
        <ele>164.070795</ele>
        <time>2023-07-30T13:58:00.000Z</time>
      </trkpt>
      <trkpt lat="43.72162" lon="1.4686">
        <ele>164.070795</ele>
        <time>2023-07-30T13:58:00.000Z</time>
      </trkpt>
      <trkpt lat="43.72165" lon="1.46857">
        <ele>164.02826</ele>
        <time>2023-07-30T13:58:00.000Z</time>
      </trkpt>
      <trkpt lat="43.72165" lon="1.46857">
        <ele>164.02826</ele>
        <time>2023-07-30T13:58:00.000Z</time>
      </trkpt>
      <trkpt lat="43.72168" lon="1.46853">
        <ele>163.984269</ele>
        <time>2023-07-30T13:58:01.000Z</time>
      </trkpt>
      <trkpt lat="43.72168" lon="1.46853">
        <ele>163.984269</ele>
        <time>2023-07-30T13:58:01.000Z</time>
      </trkpt>
      <trkpt lat="43.72171" lon="1.4685">
        <ele>163.943929</ele>
        <time>2023-07-30T13:58:02.000Z</time>
      </trkpt>
      <trkpt lat="43.72171" lon="1.4685">
        <ele>163.943929</ele>
        <time>2023-07-30T13:58:02.000Z</time>
      </trkpt>
      <trkpt lat="43.72174" lon="1.46846">
        <ele>163.899433</ele>
        <time>2023-07-30T13:58:04.000Z</time>
      </trkpt>
      <trkpt lat="43.72177" lon="1.46843">
        <ele>163.853704</ele>
        <time>2023-07-30T13:58:05.000Z</time>
      </trkpt>
      <trkpt lat="43.72182" lon="1.46838">
        <ele>163.789632</ele>
        <time>2023-07-30T13:58:06.000Z</time>
      </trkpt>
      <trkpt lat="43.72182" lon="1.46838">
        <ele>163.789632</ele>
        <time>2023-07-30T13:58:06.000Z</time>
      </trkpt>
      <trkpt lat="43.72186" lon="1.46835">
        <ele>163.739738</ele>
        <time>2023-07-30T13:58:08.000Z</time>
      </trkpt>
      <trkpt lat="43.72189" lon="1.4683">
        <ele>163.685499</ele>
        <time>2023-07-30T13:58:09.000Z</time>
      </trkpt>
      <trkpt lat="43.72192" lon="1.46828">
        <ele>163.641903</ele>
        <time>2023-07-30T13:58:10.000Z</time>
      </trkpt>
      <trkpt lat="43.72196" lon="1.46824">
        <ele>163.594775</ele>
        <time>2023-07-30T13:58:11.000Z</time>
      </trkpt>
      <trkpt lat="43.72199" lon="1.46821">
        <ele>163.55524</ele>
        <time>2023-07-30T13:58:13.000Z</time>
      </trkpt>
      <trkpt lat="43.72203" lon="1.46818">
        <ele>163.501526</ele>
        <time>2023-07-30T13:58:14.000Z</time>
      </trkpt>
      <trkpt lat="43.72207" lon="1.46815">
        <ele>163.445958</ele>
        <time>2023-07-30T13:58:15.000Z</time>
      </trkpt>
      <trkpt lat="43.72212" lon="1.46811">
        <ele>163.383879</ele>
        <time>2023-07-30T13:58:16.000Z</time>
      </trkpt>
      <trkpt lat="43.72217" lon="1.46809">
        <ele>163.324755</ele>
        <time>2023-07-30T13:58:17.000Z</time>
      </trkpt>
      <trkpt lat="43.72217" lon="1.46809">
        <ele>163.324755</ele>
        <time>2023-07-30T13:58:17.000Z</time>
      </trkpt>
      <trkpt lat="43.72222" lon="1.46806">
        <ele>163.269186</ele>
        <time>2023-07-30T13:58:18.000Z</time>
      </trkpt>
      <trkpt lat="43.72222" lon="1.46806">
        <ele>163.269186</ele>
        <time>2023-07-30T13:58:18.000Z</time>
      </trkpt>
      <trkpt lat="43.72226" lon="1.46804">
        <ele>163.22306</ele>
        <time>2023-07-30T13:58:19.000Z</time>
      </trkpt>
      <trkpt lat="43.72229" lon="1.46802">
        <ele>163.187008</ele>
        <time>2023-07-30T13:58:20.000Z</time>
      </trkpt>
      <trkpt lat="43.72229" lon="1.46802">
        <ele>163.187008</ele>
        <time>2023-07-30T13:58:20.000Z</time>
      </trkpt>
      <trkpt lat="43.72234" lon="1.46798">
        <ele>163.122373</ele>
        <time>2023-07-30T13:58:22.000Z</time>
      </trkpt>
      <trkpt lat="43.72238" lon="1.46795">
        <ele>163.064375</ele>
        <time>2023-07-30T13:58:23.000Z</time>
      </trkpt>
      <trkpt lat="43.72243" lon="1.46791">
        <ele>163.001511</ele>
        <time>2023-07-30T13:58:24.000Z</time>
      </trkpt>
      <trkpt lat="43.72247" lon="1.46789">
        <ele>162.959699</ele>
        <time>2023-07-30T13:58:25.000Z</time>
      </trkpt>
      <trkpt lat="43.7225" lon="1.46787">
        <ele>162.91892</ele>
        <time>2023-07-30T13:58:26.000Z</time>
      </trkpt>
      <trkpt lat="43.7225" lon="1.46787">
        <ele>162.91892</ele>
        <time>2023-07-30T13:58:26.000Z</time>
      </trkpt>
      <trkpt lat="43.72253" lon="1.46784">
        <ele>162.880383</ele>
        <time>2023-07-30T13:58:27.000Z</time>
      </trkpt>
      <trkpt lat="43.72253" lon="1.46784">
        <ele>162.880383</ele>
        <time>2023-07-30T13:58:27.000Z</time>
      </trkpt>
      <trkpt lat="43.72257" lon="1.46782">
        <ele>162.83015</ele>
        <time>2023-07-30T13:58:29.000Z</time>
      </trkpt>
      <trkpt lat="43.72261" lon="1.46779">
        <ele>162.784781</ele>
        <time>2023-07-30T13:58:30.000Z</time>
      </trkpt>
      <trkpt lat="43.72261" lon="1.46779">
        <ele>162.784781</ele>
        <time>2023-07-30T13:58:30.000Z</time>
      </trkpt>
      <trkpt lat="43.72264" lon="1.46777">
        <ele>162.741186</ele>
        <time>2023-07-30T13:58:31.000Z</time>
      </trkpt>
      <trkpt lat="43.72267" lon="1.46774">
        <ele>162.701283</ele>
        <time>2023-07-30T13:58:32.000Z</time>
      </trkpt>
      <trkpt lat="43.72267" lon="1.46774">
        <ele>162.701283</ele>
        <time>2023-07-30T13:58:32.000Z</time>
      </trkpt>
      <trkpt lat="43.72269" lon="1.46771">
        <ele>162.666364</ele>
        <time>2023-07-30T13:58:33.000Z</time>
      </trkpt>
      <trkpt lat="43.72273" lon="1.46767">
        <ele>162.66752</ele>
        <time>2023-07-30T13:58:33.000Z</time>
      </trkpt>
      <trkpt lat="43.72276" lon="1.46763">
        <ele>162.77431</ele>
        <time>2023-07-30T13:58:35.000Z</time>
      </trkpt>
      <trkpt lat="43.72278" lon="1.4676">
        <ele>162.850944</ele>
        <time>2023-07-30T13:58:36.000Z</time>
      </trkpt>
      <trkpt lat="43.7228" lon="1.46757">
        <ele>162.930176</ele>
        <time>2023-07-30T13:58:36.000Z</time>
      </trkpt>
      <trkpt lat="43.72282" lon="1.46754">
        <ele>163.022259</ele>
        <time>2023-07-30T13:58:38.000Z</time>
      </trkpt>
      <trkpt lat="43.72284" lon="1.46749">
        <ele>163.136648</ele>
        <time>2023-07-30T13:58:40.000Z</time>
      </trkpt>
      <trkpt lat="43.72284" lon="1.46749">
        <ele>163.136648</ele>
        <time>2023-07-30T13:58:40.000Z</time>
      </trkpt>
      <trkpt lat="43.72286" lon="1.46746">
        <ele>163.198704</ele>
        <time>2023-07-30T13:58:40.000Z</time>
      </trkpt>
      <trkpt lat="43.72286" lon="1.46746">
        <ele>163.198704</ele>
        <time>2023-07-30T13:58:42.000Z</time>
      </trkpt>
      <trkpt lat="43.72289" lon="1.46741">
        <ele>163.328898</ele>
        <time>2023-07-30T13:58:45.000Z</time>
      </trkpt>
      <trkpt lat="43.72289" lon="1.46741">
        <ele>163.328898</ele>
        <time>2023-07-30T13:58:45.000Z</time>
      </trkpt>
      <trkpt lat="43.72292" lon="1.46739">
        <ele>163.428982</ele>
        <time>2023-07-30T13:58:48.000Z</time>
      </trkpt>
      <trkpt lat="43.72294" lon="1.46738">
        <ele>163.475771</ele>
        <time>2023-07-30T13:58:50.000Z</time>
      </trkpt>
      <trkpt lat="43.72297" lon="1.46734">
        <ele>163.581097</ele>
        <time>2023-07-30T13:58:51.000Z</time>
      </trkpt>
      <trkpt lat="43.72298" lon="1.46732">
        <ele>163.646475</ele>
        <time>2023-07-30T13:58:51.000Z</time>
      </trkpt>
      <trkpt lat="43.72299" lon="1.4673">
        <ele>163.69175</ele>
        <time>2023-07-30T13:58:53.000Z</time>
      </trkpt>
      <trkpt lat="43.72301" lon="1.46725">
        <ele>163.797183</ele>
        <time>2023-07-30T13:58:55.000Z</time>
      </trkpt>
      <trkpt lat="43.72301" lon="1.46725">
        <ele>163.797183</ele>
        <time>2023-07-30T13:58:55.000Z</time>
      </trkpt>
      <trkpt lat="43.72302" lon="1.46721">
        <ele>163.879925</ele>
        <time>2023-07-30T13:58:56.000Z</time>
      </trkpt>
      <trkpt lat="43.72304" lon="1.46719">
        <ele>163.949744</ele>
        <time>2023-07-30T13:58:57.000Z</time>
      </trkpt>
      <trkpt lat="43.72306" lon="1.46714">
        <ele>164.06087</ele>
        <time>2023-07-30T13:58:58.000Z</time>
      </trkpt>
      <trkpt lat="43.72306" lon="1.46714">
        <ele>164.06087</ele>
        <time>2023-07-30T13:58:58.000Z</time>
      </trkpt>
      <trkpt lat="43.72307" lon="1.46711">
        <ele>164.128482</ele>
        <time>2023-07-30T13:58:59.000Z</time>
      </trkpt>
      <trkpt lat="43.72307" lon="1.46711">
        <ele>164.128482</ele>
        <time>2023-07-30T13:58:59.000Z</time>
      </trkpt>
      <trkpt lat="43.72309" lon="1.46707">
        <ele>164.214182</ele>
        <time>2023-07-30T13:59:00.000Z</time>
      </trkpt>
      <trkpt lat="43.72309" lon="1.46707">
        <ele>164.214182</ele>
        <time>2023-07-30T13:59:00.000Z</time>
      </trkpt>
      <trkpt lat="43.7231" lon="1.46704">
        <ele>164.277914</ele>
        <time>2023-07-30T13:59:01.000Z</time>
      </trkpt>
      <trkpt lat="43.7231" lon="1.46704">
        <ele>164.277914</ele>
        <time>2023-07-30T13:59:01.000Z</time>
      </trkpt>
      <trkpt lat="43.72312" lon="1.467">
        <ele>164.373268</ele>
        <time>2023-07-30T13:59:03.000Z</time>
      </trkpt>
      <trkpt lat="43.72312" lon="1.467">
        <ele>164.373268</ele>
        <time>2023-07-30T13:59:03.000Z</time>
      </trkpt>
      <trkpt lat="43.72314" lon="1.46696">
        <ele>164.473615</ele>
        <time>2023-07-30T13:59:03.000Z</time>
      </trkpt>
      <trkpt lat="43.72314" lon="1.46696">
        <ele>164.473615</ele>
        <time>2023-07-30T13:59:03.000Z</time>
      </trkpt>
      <trkpt lat="43.72316" lon="1.46691">
        <ele>164.581414</ele>
        <time>2023-07-30T13:59:05.000Z</time>
      </trkpt>
      <trkpt lat="43.72316" lon="1.46691">
        <ele>164.581414</ele>
        <time>2023-07-30T13:59:05.000Z</time>
      </trkpt>
      <trkpt lat="43.72316" lon="1.46687">
        <ele>164.666448</ele>
        <time>2023-07-30T13:59:05.000Z</time>
      </trkpt>
      <trkpt lat="43.72316" lon="1.46687">
        <ele>164.666448</ele>
        <time>2023-07-30T13:59:05.000Z</time>
      </trkpt>
      <trkpt lat="43.72316" lon="1.46684">
        <ele>164.727139</ele>
        <time>2023-07-30T13:59:07.000Z</time>
      </trkpt>
      <trkpt lat="43.72316" lon="1.46684">
        <ele>164.727139</ele>
        <time>2023-07-30T13:59:07.000Z</time>
      </trkpt>
      <trkpt lat="43.72315" lon="1.46681">
        <ele>164.792562</ele>
        <time>2023-07-30T13:59:08.000Z</time>
      </trkpt>
      <trkpt lat="43.72315" lon="1.46681">
        <ele>164.792562</ele>
        <time>2023-07-30T13:59:08.000Z</time>
      </trkpt>
      <trkpt lat="43.72313" lon="1.46677">
        <ele>164.876706</ele>
        <time>2023-07-30T13:59:09.000Z</time>
      </trkpt>
      <trkpt lat="43.72313" lon="1.46677">
        <ele>164.876706</ele>
        <time>2023-07-30T13:59:09.000Z</time>
      </trkpt>
      <trkpt lat="43.7231" lon="1.46673">
        <ele>165.005523</ele>
        <time>2023-07-30T13:59:10.000Z</time>
      </trkpt>
      <trkpt lat="43.72301" lon="1.46664">
        <ele>165.308503</ele>
        <time>2023-07-30T13:59:12.000Z</time>
      </trkpt>
      <trkpt lat="43.72301" lon="1.46664">
        <ele>165.308503</ele>
        <time>2023-07-30T13:59:12.000Z</time>
      </trkpt>
      <trkpt lat="43.72295" lon="1.46659">
        <ele>165.482275</ele>
        <time>2023-07-30T13:59:14.000Z</time>
      </trkpt>
      <trkpt lat="43.72295" lon="1.46659">
        <ele>165.482275</ele>
        <time>2023-07-30T13:59:14.000Z</time>
      </trkpt>
      <trkpt lat="43.72293" lon="1.46656">
        <ele>165.56921</ele>
        <time>2023-07-30T13:59:15.000Z</time>
      </trkpt>
      <trkpt lat="43.72293" lon="1.46656">
        <ele>165.56921</ele>
        <time>2023-07-30T13:59:15.000Z</time>
      </trkpt>
      <trkpt lat="43.72288" lon="1.46652">
        <ele>165.725669</ele>
        <time>2023-07-30T13:59:16.000Z</time>
      </trkpt>
      <trkpt lat="43.72288" lon="1.46652">
        <ele>165.725669</ele>
        <time>2023-07-30T13:59:16.000Z</time>
      </trkpt>
      <trkpt lat="43.72285" lon="1.4665">
        <ele>165.810338</ele>
        <time>2023-07-30T13:59:17.000Z</time>
      </trkpt>
      <trkpt lat="43.72285" lon="1.4665">
        <ele>165.810338</ele>
        <time>2023-07-30T13:59:17.000Z</time>
      </trkpt>
      <trkpt lat="43.7228" lon="1.46646">
        <ele>165.975351</ele>
        <time>2023-07-30T13:59:17.000Z</time>
      </trkpt>
      <trkpt lat="43.7228" lon="1.46646">
        <ele>165.975351</ele>
        <time>2023-07-30T13:59:17.000Z</time>
      </trkpt>
      <trkpt lat="43.72276" lon="1.46643">
        <ele>166.104305</ele>
        <time>2023-07-30T13:59:19.000Z</time>
      </trkpt>
      <trkpt lat="43.72276" lon="1.46643">
        <ele>166.104305</ele>
        <time>2023-07-30T13:59:19.000Z</time>
      </trkpt>
      <trkpt lat="43.72272" lon="1.46641">
        <ele>166.215154</ele>
        <time>2023-07-30T13:59:20.000Z</time>
      </trkpt>
      <trkpt lat="43.72272" lon="1.46641">
        <ele>166.215154</ele>
        <time>2023-07-30T13:59:20.000Z</time>
      </trkpt>
      <trkpt lat="43.72268" lon="1.46638">
        <ele>166.322338</ele>
        <time>2023-07-30T13:59:21.000Z</time>
      </trkpt>
      <trkpt lat="43.72268" lon="1.46638">
        <ele>166.322338</ele>
        <time>2023-07-30T13:59:21.000Z</time>
      </trkpt>
      <trkpt lat="43.72259" lon="1.46633">
        <ele>166.594616</ele>
        <time>2023-07-30T13:59:23.000Z</time>
      </trkpt>
      <trkpt lat="43.72259" lon="1.46633">
        <ele>166.594616</ele>
        <time>2023-07-30T13:59:23.000Z</time>
      </trkpt>
      <trkpt lat="43.72249" lon="1.46628">
        <ele>166.880115</ele>
        <time>2023-07-30T13:59:25.000Z</time>
      </trkpt>
      <trkpt lat="43.72249" lon="1.46628">
        <ele>166.880115</ele>
        <time>2023-07-30T13:59:25.000Z</time>
      </trkpt>
      <trkpt lat="43.72245" lon="1.46625">
        <ele>167.002479</ele>
        <time>2023-07-30T13:59:27.000Z</time>
      </trkpt>
      <trkpt lat="43.72245" lon="1.46625">
        <ele>167.002479</ele>
        <time>2023-07-30T13:59:27.000Z</time>
      </trkpt>
      <trkpt lat="43.72241" lon="1.46623">
        <ele>167.12159</ele>
        <time>2023-07-30T13:59:28.000Z</time>
      </trkpt>
      <trkpt lat="43.72241" lon="1.46623">
        <ele>167.12159</ele>
        <time>2023-07-30T13:59:28.000Z</time>
      </trkpt>
      <trkpt lat="43.72237" lon="1.46621">
        <ele>167.242569</ele>
        <time>2023-07-30T13:59:29.000Z</time>
      </trkpt>
      <trkpt lat="43.72237" lon="1.46621">
        <ele>167.242569</ele>
        <time>2023-07-30T13:59:29.000Z</time>
      </trkpt>
      <trkpt lat="43.72233" lon="1.46619">
        <ele>167.352026</ele>
        <time>2023-07-30T13:59:30.000Z</time>
      </trkpt>
      <trkpt lat="43.72233" lon="1.46619">
        <ele>167.352026</ele>
        <time>2023-07-30T13:59:30.000Z</time>
      </trkpt>
      <trkpt lat="43.72231" lon="1.46619">
        <ele>167.416777</ele>
        <time>2023-07-30T13:59:31.000Z</time>
      </trkpt>
      <trkpt lat="43.72231" lon="1.46619">
        <ele>167.416777</ele>
        <time>2023-07-30T13:59:31.000Z</time>
      </trkpt>
      <trkpt lat="43.72226" lon="1.46616">
        <ele>167.524899</ele>
        <time>2023-07-30T13:59:31.000Z</time>
      </trkpt>
      <trkpt lat="43.72226" lon="1.46616">
        <ele>167.524899</ele>
        <time>2023-07-30T13:59:31.000Z</time>
      </trkpt>
      <trkpt lat="43.72222" lon="1.46614">
        <ele>167.603171</ele>
        <time>2023-07-30T13:59:33.000Z</time>
      </trkpt>
      <trkpt lat="43.72222" lon="1.46614">
        <ele>167.603171</ele>
        <time>2023-07-30T13:59:33.000Z</time>
      </trkpt>
      <trkpt lat="43.72219" lon="1.46613">
        <ele>167.665682</ele>
        <time>2023-07-30T13:59:35.000Z</time>
      </trkpt>
      <trkpt lat="43.72219" lon="1.46613">
        <ele>167.665682</ele>
        <time>2023-07-30T13:59:35.000Z</time>
      </trkpt>
      <trkpt lat="43.72213" lon="1.46611">
        <ele>167.769</ele>
        <time>2023-07-30T13:59:36.000Z</time>
      </trkpt>
      <trkpt lat="43.72213" lon="1.46611">
        <ele>167.769</ele>
        <time>2023-07-30T13:59:36.000Z</time>
      </trkpt>
      <trkpt lat="43.72207" lon="1.46609">
        <ele>167.879184</ele>
        <time>2023-07-30T13:59:37.000Z</time>
      </trkpt>
      <trkpt lat="43.72207" lon="1.46609">
        <ele>167.879184</ele>
        <time>2023-07-30T13:59:37.000Z</time>
      </trkpt>
      <trkpt lat="43.72202" lon="1.46608">
        <ele>167.961918</ele>
        <time>2023-07-30T13:59:38.000Z</time>
      </trkpt>
      <trkpt lat="43.72202" lon="1.46608">
        <ele>167.961918</ele>
        <time>2023-07-30T13:59:38.000Z</time>
      </trkpt>
      <trkpt lat="43.72195" lon="1.46606">
        <ele>168.090422</ele>
        <time>2023-07-30T13:59:40.000Z</time>
      </trkpt>
      <trkpt lat="43.72195" lon="1.46606">
        <ele>168.090422</ele>
        <time>2023-07-30T13:59:40.000Z</time>
      </trkpt>
      <trkpt lat="43.7219" lon="1.46605">
        <ele>168.180073</ele>
        <time>2023-07-30T13:59:41.000Z</time>
      </trkpt>
      <trkpt lat="43.7219" lon="1.46605">
        <ele>168.180073</ele>
        <time>2023-07-30T13:59:41.000Z</time>
      </trkpt>
      <trkpt lat="43.72185" lon="1.46604">
        <ele>168.27417</ele>
        <time>2023-07-30T13:59:42.000Z</time>
      </trkpt>
      <trkpt lat="43.72185" lon="1.46604">
        <ele>168.27417</ele>
        <time>2023-07-30T13:59:42.000Z</time>
      </trkpt>
      <trkpt lat="43.72181" lon="1.46603">
        <ele>168.34888</ele>
        <time>2023-07-30T13:59:43.000Z</time>
      </trkpt>
      <trkpt lat="43.72181" lon="1.46603">
        <ele>168.34888</ele>
        <time>2023-07-30T13:59:43.000Z</time>
      </trkpt>
      <trkpt lat="43.72178" lon="1.46602">
        <ele>168.406752</ele>
        <time>2023-07-30T13:59:44.000Z</time>
      </trkpt>
      <trkpt lat="43.72178" lon="1.46602">
        <ele>168.406752</ele>
        <time>2023-07-30T13:59:44.000Z</time>
      </trkpt>
      <trkpt lat="43.72175" lon="1.466">
        <ele>168.459566</ele>
        <time>2023-07-30T13:59:45.000Z</time>
      </trkpt>
      <trkpt lat="43.72175" lon="1.466">
        <ele>168.459566</ele>
        <time>2023-07-30T13:59:45.000Z</time>
      </trkpt>
      <trkpt lat="43.72171" lon="1.46593">
        <ele>168.568032</ele>
        <time>2023-07-30T13:59:46.000Z</time>
      </trkpt>
      <trkpt lat="43.72171" lon="1.46593">
        <ele>168.568032</ele>
        <time>2023-07-30T13:59:46.000Z</time>
      </trkpt>
      <trkpt lat="43.72172" lon="1.46587">
        <ele>168.649494</ele>
        <time>2023-07-30T13:59:48.000Z</time>
      </trkpt>
      <trkpt lat="43.72172" lon="1.46587">
        <ele>168.649494</ele>
        <time>2023-07-30T13:59:48.000Z</time>
      </trkpt>
      <trkpt lat="43.72172" lon="1.46584">
        <ele>168.688345</ele>
        <time>2023-07-30T13:59:48.000Z</time>
      </trkpt>
      <trkpt lat="43.72174" lon="1.46575">
        <ele>168.807754</ele>
        <time>2023-07-30T13:59:49.000Z</time>
      </trkpt>
      <trkpt lat="43.72174" lon="1.46575">
        <ele>168.807754</ele>
        <time>2023-07-30T13:59:49.000Z</time>
      </trkpt>
      <trkpt lat="43.72176" lon="1.46565">
        <ele>168.938978</ele>
        <time>2023-07-30T13:59:50.000Z</time>
      </trkpt>
      <trkpt lat="43.72179" lon="1.46557">
        <ele>169.053017</ele>
        <time>2023-07-30T13:59:51.000Z</time>
      </trkpt>
      <trkpt lat="43.72185" lon="1.46544">
        <ele>169.249757</ele>
        <time>2023-07-30T13:59:52.000Z</time>
      </trkpt>
      <trkpt lat="43.72189" lon="1.46535">
        <ele>169.379218</ele>
        <time>2023-07-30T13:59:53.000Z</time>
      </trkpt>
      <trkpt lat="43.72189" lon="1.46535">
        <ele>169.379218</ele>
        <time>2023-07-30T13:59:53.000Z</time>
      </trkpt>
      <trkpt lat="43.72196" lon="1.46518">
        <ele>169.630554</ele>
        <time>2023-07-30T13:59:55.000Z</time>
      </trkpt>
      <trkpt lat="43.72196" lon="1.46518">
        <ele>169.630554</ele>
        <time>2023-07-30T13:59:55.000Z</time>
      </trkpt>
      <trkpt lat="43.72199" lon="1.46513">
        <ele>169.706036</ele>
        <time>2023-07-30T13:59:56.000Z</time>
      </trkpt>
      <trkpt lat="43.72199" lon="1.46513">
        <ele>169.706036</ele>
        <time>2023-07-30T13:59:56.000Z</time>
      </trkpt>
      <trkpt lat="43.72201" lon="1.46507">
        <ele>169.800413</ele>
        <time>2023-07-30T13:59:57.000Z</time>
      </trkpt>
      <trkpt lat="43.72202" lon="1.46505">
        <ele>169.825331</ele>
        <time>2023-07-30T13:59:59.000Z</time>
      </trkpt>
      <trkpt lat="43.72202" lon="1.46505">
        <ele>169.825331</ele>
        <time>2023-07-30T13:59:59.000Z</time>
      </trkpt>
      <trkpt lat="43.72207" lon="1.46495">
        <ele>169.982294</ele>
        <time>2023-07-30T13:59:59.000Z</time>
      </trkpt>
      <trkpt lat="43.72207" lon="1.46495">
        <ele>169.982294</ele>
        <time>2023-07-30T13:59:59.000Z</time>
      </trkpt>
      <trkpt lat="43.7221" lon="1.4649">
        <ele>170.069037</ele>
        <time>2023-07-30T14:00:00.000Z</time>
      </trkpt>
      <trkpt lat="43.7221" lon="1.4649">
        <ele>170.069037</ele>
        <time>2023-07-30T14:00:00.000Z</time>
      </trkpt>
      <trkpt lat="43.72213" lon="1.46485">
        <ele>170.150074</ele>
        <time>2023-07-30T14:00:01.000Z</time>
      </trkpt>
      <trkpt lat="43.72217" lon="1.46482">
        <ele>170.234564</ele>
        <time>2023-07-30T14:00:02.000Z</time>
      </trkpt>
      <trkpt lat="43.72217" lon="1.46482">
        <ele>170.234564</ele>
        <time>2023-07-30T14:00:02.000Z</time>
      </trkpt>
      <trkpt lat="43.72219" lon="1.46481">
        <ele>170.269953</ele>
        <time>2023-07-30T14:00:03.000Z</time>
      </trkpt>
      <trkpt lat="43.72219" lon="1.46481">
        <ele>170.269953</ele>
        <time>2023-07-30T14:00:03.000Z</time>
      </trkpt>
      <trkpt lat="43.72224" lon="1.46482">
        <ele>170.357058</ele>
        <time>2023-07-30T14:00:04.000Z</time>
      </trkpt>
      <trkpt lat="43.72224" lon="1.46482">
        <ele>170.357058</ele>
        <time>2023-07-30T14:00:04.000Z</time>
      </trkpt>
      <trkpt lat="43.72228" lon="1.46483">
        <ele>170.427196</ele>
        <time>2023-07-30T14:00:05.000Z</time>
      </trkpt>
      <trkpt lat="43.72228" lon="1.46483">
        <ele>170.427196</ele>
        <time>2023-07-30T14:00:05.000Z</time>
      </trkpt>
      <trkpt lat="43.72232" lon="1.46486">
        <ele>170.518164</ele>
        <time>2023-07-30T14:00:06.000Z</time>
      </trkpt>
      <trkpt lat="43.72232" lon="1.46486">
        <ele>170.518164</ele>
        <time>2023-07-30T14:00:06.000Z</time>
      </trkpt>
      <trkpt lat="43.72233" lon="1.46487">
        <ele>170.525659</ele>
        <time>2023-07-30T14:00:07.000Z</time>
      </trkpt>
      <trkpt lat="43.72245" lon="1.46497">
        <ele>170.290884</ele>
        <time>2023-07-30T14:00:08.000Z</time>
      </trkpt>
      <trkpt lat="43.72245" lon="1.46497">
        <ele>170.290884</ele>
        <time>2023-07-30T14:00:08.000Z</time>
      </trkpt>
      <trkpt lat="43.72251" lon="1.46501">
        <ele>169.91017</ele>
        <time>2023-07-30T14:00:09.000Z</time>
      </trkpt>
      <trkpt lat="43.72251" lon="1.46501">
        <ele>169.91017</ele>
        <time>2023-07-30T14:00:09.000Z</time>
      </trkpt>
      <trkpt lat="43.72257" lon="1.46505">
        <ele>169.516208</ele>
        <time>2023-07-30T14:00:10.000Z</time>
      </trkpt>
      <trkpt lat="43.72257" lon="1.46505">
        <ele>169.516208</ele>
        <time>2023-07-30T14:00:10.000Z</time>
      </trkpt>
      <trkpt lat="43.72262" lon="1.46509">
        <ele>169.164098</ele>
        <time>2023-07-30T14:00:11.000Z</time>
      </trkpt>
      <trkpt lat="43.72262" lon="1.46509">
        <ele>169.164098</ele>
        <time>2023-07-30T14:00:11.000Z</time>
      </trkpt>
      <trkpt lat="43.72268" lon="1.46514">
        <ele>168.775403</ele>
        <time>2023-07-30T14:00:12.000Z</time>
      </trkpt>
      <trkpt lat="43.72268" lon="1.46514">
        <ele>168.775403</ele>
        <time>2023-07-30T14:00:12.000Z</time>
      </trkpt>
      <trkpt lat="43.72273" lon="1.46519">
        <ele>168.371371</ele>
        <time>2023-07-30T14:00:13.000Z</time>
      </trkpt>
      <trkpt lat="43.72273" lon="1.46519">
        <ele>168.371371</ele>
        <time>2023-07-30T14:00:13.000Z</time>
      </trkpt>
      <trkpt lat="43.72277" lon="1.46523">
        <ele>168.095641</ele>
        <time>2023-07-30T14:00:14.000Z</time>
      </trkpt>
      <trkpt lat="43.72277" lon="1.46523">
        <ele>168.095641</ele>
        <time>2023-07-30T14:00:14.000Z</time>
      </trkpt>
      <trkpt lat="43.72284" lon="1.4653">
        <ele>167.546615</ele>
        <time>2023-07-30T14:00:15.000Z</time>
      </trkpt>
      <trkpt lat="43.72284" lon="1.4653">
        <ele>167.546615</ele>
        <time>2023-07-30T14:00:15.000Z</time>
      </trkpt>
      <trkpt lat="43.72289" lon="1.46534">
        <ele>167.225856</ele>
        <time>2023-07-30T14:00:16.000Z</time>
      </trkpt>
      <trkpt lat="43.72289" lon="1.46534">
        <ele>167.225856</ele>
        <time>2023-07-30T14:00:16.000Z</time>
      </trkpt>
      <trkpt lat="43.72295" lon="1.46539">
        <ele>166.805711</ele>
        <time>2023-07-30T14:00:17.000Z</time>
      </trkpt>
      <trkpt lat="43.72295" lon="1.46539">
        <ele>166.805711</ele>
        <time>2023-07-30T14:00:17.000Z</time>
      </trkpt>
      <trkpt lat="43.72302" lon="1.46544">
        <ele>166.312134</ele>
        <time>2023-07-30T14:00:18.000Z</time>
      </trkpt>
      <trkpt lat="43.72302" lon="1.46544">
        <ele>166.312134</ele>
        <time>2023-07-30T14:00:18.000Z</time>
      </trkpt>
      <trkpt lat="43.72308" lon="1.46549">
        <ele>165.910366</ele>
        <time>2023-07-30T14:00:19.000Z</time>
      </trkpt>
      <trkpt lat="43.72308" lon="1.46549">
        <ele>165.910366</ele>
        <time>2023-07-30T14:00:19.000Z</time>
      </trkpt>
      <trkpt lat="43.72314" lon="1.46555">
        <ele>165.464768</ele>
        <time>2023-07-30T14:00:20.000Z</time>
      </trkpt>
      <trkpt lat="43.72314" lon="1.46555">
        <ele>165.464768</ele>
        <time>2023-07-30T14:00:20.000Z</time>
      </trkpt>
      <trkpt lat="43.72319" lon="1.46561">
        <ele>165.057503</ele>
        <time>2023-07-30T14:00:21.000Z</time>
      </trkpt>
      <trkpt lat="43.72319" lon="1.46561">
        <ele>165.057503</ele>
        <time>2023-07-30T14:00:21.000Z</time>
      </trkpt>
      <trkpt lat="43.72323" lon="1.46565">
        <ele>164.763599</ele>
        <time>2023-07-30T14:00:22.000Z</time>
      </trkpt>
      <trkpt lat="43.72323" lon="1.46565">
        <ele>164.763599</ele>
        <time>2023-07-30T14:00:22.000Z</time>
      </trkpt>
      <trkpt lat="43.72326" lon="1.46567">
        <ele>164.575999</ele>
        <time>2023-07-30T14:00:23.000Z</time>
      </trkpt>
      <trkpt lat="43.72326" lon="1.46567">
        <ele>164.575999</ele>
        <time>2023-07-30T14:00:23.000Z</time>
      </trkpt>
      <trkpt lat="43.72328" lon="1.46569">
        <ele>164.423764</ele>
        <time>2023-07-30T14:00:24.000Z</time>
      </trkpt>
      <trkpt lat="43.72328" lon="1.46569">
        <ele>164.423764</ele>
        <time>2023-07-30T14:00:24.000Z</time>
      </trkpt>
      <trkpt lat="43.72332" lon="1.4657">
        <ele>164.166996</ele>
        <time>2023-07-30T14:00:25.000Z</time>
      </trkpt>
      <trkpt lat="43.72332" lon="1.4657">
        <ele>164.166996</ele>
        <time>2023-07-30T14:00:25.000Z</time>
      </trkpt>
      <trkpt lat="43.72335" lon="1.46571">
        <ele>164.025006</ele>
        <time>2023-07-30T14:00:26.000Z</time>
      </trkpt>
      <trkpt lat="43.72335" lon="1.46571">
        <ele>164.025006</ele>
        <time>2023-07-30T14:00:26.000Z</time>
      </trkpt>
      <trkpt lat="43.72338" lon="1.46571">
        <ele>163.819792</ele>
        <time>2023-07-30T14:00:27.000Z</time>
      </trkpt>
      <trkpt lat="43.72338" lon="1.46571">
        <ele>163.819792</ele>
        <time>2023-07-30T14:00:27.000Z</time>
      </trkpt>
      <trkpt lat="43.72339" lon="1.46571">
        <ele>163.753791</ele>
        <time>2023-07-30T14:00:28.000Z</time>
      </trkpt>
      <trkpt lat="43.72339" lon="1.46571">
        <ele>163.753791</ele>
        <time>2023-07-30T14:00:28.000Z</time>
      </trkpt>
      <trkpt lat="43.72343" lon="1.46569">
        <ele>163.517966</ele>
        <time>2023-07-30T14:00:29.000Z</time>
      </trkpt>
      <trkpt lat="43.72343" lon="1.46569">
        <ele>163.517966</ele>
        <time>2023-07-30T14:00:29.000Z</time>
      </trkpt>
      <trkpt lat="43.72345" lon="1.46566">
        <ele>163.348063</ele>
        <time>2023-07-30T14:00:30.000Z</time>
      </trkpt>
      <trkpt lat="43.72345" lon="1.46566">
        <ele>163.348063</ele>
        <time>2023-07-30T14:00:30.000Z</time>
      </trkpt>
      <trkpt lat="43.72348" lon="1.46562">
        <ele>163.073478</ele>
        <time>2023-07-30T14:00:32.000Z</time>
      </trkpt>
      <trkpt lat="43.72348" lon="1.46562">
        <ele>163.073478</ele>
        <time>2023-07-30T14:00:32.000Z</time>
      </trkpt>
      <trkpt lat="43.72352" lon="1.46555">
        <ele>162.708722</ele>
        <time>2023-07-30T14:00:34.000Z</time>
      </trkpt>
      <trkpt lat="43.72352" lon="1.46555">
        <ele>162.708722</ele>
        <time>2023-07-30T14:00:34.000Z</time>
      </trkpt>
      <trkpt lat="43.72353" lon="1.46549">
        <ele>162.452734</ele>
        <time>2023-07-30T14:00:35.000Z</time>
      </trkpt>
      <trkpt lat="43.72353" lon="1.46549">
        <ele>162.452734</ele>
        <time>2023-07-30T14:00:35.000Z</time>
      </trkpt>
      <trkpt lat="43.72356" lon="1.46543">
        <ele>162.150028</ele>
        <time>2023-07-30T14:00:35.000Z</time>
      </trkpt>
      <trkpt lat="43.72356" lon="1.46543">
        <ele>162.150028</ele>
        <time>2023-07-30T14:00:35.000Z</time>
      </trkpt>
      <trkpt lat="43.72358" lon="1.46537">
        <ele>161.856156</ele>
        <time>2023-07-30T14:00:37.000Z</time>
      </trkpt>
      <trkpt lat="43.72358" lon="1.46537">
        <ele>161.856156</ele>
        <time>2023-07-30T14:00:37.000Z</time>
      </trkpt>
      <trkpt lat="43.7236" lon="1.46532">
        <ele>161.587536</ele>
        <time>2023-07-30T14:00:38.000Z</time>
      </trkpt>
      <trkpt lat="43.7236" lon="1.46532">
        <ele>161.587536</ele>
        <time>2023-07-30T14:00:38.000Z</time>
      </trkpt>
      <trkpt lat="43.72363" lon="1.46522">
        <ele>161.135833</ele>
        <time>2023-07-30T14:00:39.000Z</time>
      </trkpt>
      <trkpt lat="43.72363" lon="1.46518">
        <ele>160.969677</ele>
        <time>2023-07-30T14:00:41.000Z</time>
      </trkpt>
      <trkpt lat="43.72363" lon="1.46518">
        <ele>160.969677</ele>
        <time>2023-07-30T14:00:41.000Z</time>
      </trkpt>
      <trkpt lat="43.72363" lon="1.46514">
        <ele>160.81208</ele>
        <time>2023-07-30T14:00:42.000Z</time>
      </trkpt>
      <trkpt lat="43.72364" lon="1.4651">
        <ele>160.63307</ele>
        <time>2023-07-30T14:00:43.000Z</time>
      </trkpt>
      <trkpt lat="43.72364" lon="1.46505">
        <ele>160.386439</ele>
        <time>2023-07-30T14:00:45.000Z</time>
      </trkpt>
      <trkpt lat="43.72363" lon="1.46499">
        <ele>160.155868</ele>
        <time>2023-07-30T14:00:45.000Z</time>
      </trkpt>
      <trkpt lat="43.72363" lon="1.46495">
        <ele>159.952506</ele>
        <time>2023-07-30T14:00:46.000Z</time>
      </trkpt>
      <trkpt lat="43.72363" lon="1.46488">
        <ele>159.957082</ele>
        <time>2023-07-30T14:00:47.000Z</time>
      </trkpt>
      <trkpt lat="43.72363" lon="1.46482">
        <ele>160.012269</ele>
        <time>2023-07-30T14:00:50.000Z</time>
      </trkpt>
      <trkpt lat="43.72363" lon="1.46475">
        <ele>160.078521</ele>
        <time>2023-07-30T14:00:51.000Z</time>
      </trkpt>
      <trkpt lat="43.72363" lon="1.46475">
        <ele>160.078521</ele>
        <time>2023-07-30T14:00:51.000Z</time>
      </trkpt>
      <trkpt lat="43.72364" lon="1.46471">
        <ele>160.126106</ele>
        <time>2023-07-30T14:00:52.000Z</time>
      </trkpt>
      <trkpt lat="43.72364" lon="1.46471">
        <ele>160.126106</ele>
        <time>2023-07-30T14:00:52.000Z</time>
      </trkpt>
      <trkpt lat="43.72363" lon="1.46466">
        <ele>160.175681</ele>
        <time>2023-07-30T14:00:53.000Z</time>
      </trkpt>
      <trkpt lat="43.72363" lon="1.46466">
        <ele>160.175681</ele>
        <time>2023-07-30T14:00:53.000Z</time>
      </trkpt>
      <trkpt lat="43.72363" lon="1.46463">
        <ele>160.207685</ele>
        <time>2023-07-30T14:00:54.000Z</time>
      </trkpt>
      <trkpt lat="43.72363" lon="1.46457">
        <ele>160.26118</ele>
        <time>2023-07-30T14:00:54.000Z</time>
      </trkpt>
      <trkpt lat="43.72363" lon="1.46457">
        <ele>160.26118</ele>
        <time>2023-07-30T14:00:54.000Z</time>
      </trkpt>
      <trkpt lat="43.72361" lon="1.46449">
        <ele>160.344538</ele>
        <time>2023-07-30T14:00:57.000Z</time>
      </trkpt>
      <trkpt lat="43.72361" lon="1.46449">
        <ele>160.344538</ele>
        <time>2023-07-30T14:00:57.000Z</time>
      </trkpt>
      <trkpt lat="43.7236" lon="1.46444">
        <ele>160.397933</ele>
        <time>2023-07-30T14:00:58.000Z</time>
      </trkpt>
      <trkpt lat="43.7236" lon="1.46444">
        <ele>160.397933</ele>
        <time>2023-07-30T14:00:58.000Z</time>
      </trkpt>
      <trkpt lat="43.72359" lon="1.46439">
        <ele>160.450789</ele>
        <time>2023-07-30T14:00:59.000Z</time>
      </trkpt>
      <trkpt lat="43.72359" lon="1.46439">
        <ele>160.450789</ele>
        <time>2023-07-30T14:00:59.000Z</time>
      </trkpt>
      <trkpt lat="43.72357" lon="1.46433">
        <ele>160.509645</ele>
        <time>2023-07-30T14:01:00.000Z</time>
      </trkpt>
      <trkpt lat="43.72357" lon="1.46433">
        <ele>160.509645</ele>
        <time>2023-07-30T14:01:00.000Z</time>
      </trkpt>
      <trkpt lat="43.72355" lon="1.46427">
        <ele>160.576011</ele>
        <time>2023-07-30T14:01:01.000Z</time>
      </trkpt>
      <trkpt lat="43.72355" lon="1.46427">
        <ele>160.576011</ele>
        <time>2023-07-30T14:01:01.000Z</time>
      </trkpt>
      <trkpt lat="43.72353" lon="1.4642">
        <ele>160.650623</ele>
        <time>2023-07-30T14:01:03.000Z</time>
      </trkpt>
      <trkpt lat="43.72353" lon="1.4642">
        <ele>160.650623</ele>
        <time>2023-07-30T14:01:03.000Z</time>
      </trkpt>
      <trkpt lat="43.72351" lon="1.46412">
        <ele>160.73408</ele>
        <time>2023-07-30T14:01:04.000Z</time>
      </trkpt>
      <trkpt lat="43.72351" lon="1.46412">
        <ele>160.73408</ele>
        <time>2023-07-30T14:01:04.000Z</time>
      </trkpt>
      <trkpt lat="43.72348" lon="1.46403">
        <ele>160.833764</ele>
        <time>2023-07-30T14:01:05.000Z</time>
      </trkpt>
      <trkpt lat="43.72348" lon="1.46403">
        <ele>160.833764</ele>
        <time>2023-07-30T14:01:05.000Z</time>
      </trkpt>
      <trkpt lat="43.72346" lon="1.46395">
        <ele>160.919529</ele>
        <time>2023-07-30T14:01:06.000Z</time>
      </trkpt>
      <trkpt lat="43.72344" lon="1.46388">
        <ele>160.991376</ele>
        <time>2023-07-30T14:01:07.000Z</time>
      </trkpt>
      <trkpt lat="43.72344" lon="1.46388">
        <ele>160.991376</ele>
        <time>2023-07-30T14:01:07.000Z</time>
      </trkpt>
      <trkpt lat="43.72342" lon="1.46381">
        <ele>161.061441</ele>
        <time>2023-07-30T14:01:08.000Z</time>
      </trkpt>
      <trkpt lat="43.72342" lon="1.46375">
        <ele>161.118859</ele>
        <time>2023-07-30T14:01:10.000Z</time>
      </trkpt>
      <trkpt lat="43.7234" lon="1.46369">
        <ele>161.181426</ele>
        <time>2023-07-30T14:01:11.000Z</time>
      </trkpt>
      <trkpt lat="43.7234" lon="1.46369">
        <ele>161.181426</ele>
        <time>2023-07-30T14:01:11.000Z</time>
      </trkpt>
      <trkpt lat="43.72339" lon="1.46365">
        <ele>161.229622</ele>
        <time>2023-07-30T14:01:12.000Z</time>
      </trkpt>
      <trkpt lat="43.72339" lon="1.46365">
        <ele>161.229622</ele>
        <time>2023-07-30T14:01:12.000Z</time>
      </trkpt>
      <trkpt lat="43.72339" lon="1.46359">
        <ele>161.288543</ele>
        <time>2023-07-30T14:01:13.000Z</time>
      </trkpt>
      <trkpt lat="43.72337" lon="1.46354">
        <ele>161.3414</ele>
        <time>2023-07-30T14:01:14.000Z</time>
      </trkpt>
      <trkpt lat="43.72337" lon="1.46354">
        <ele>161.3414</ele>
        <time>2023-07-30T14:01:14.000Z</time>
      </trkpt>
      <trkpt lat="43.72337" lon="1.46348">
        <ele>161.400322</ele>
        <time>2023-07-30T14:01:15.000Z</time>
      </trkpt>
      <trkpt lat="43.72334" lon="1.46332">
        <ele>161.560322</ele>
        <time>2023-07-30T14:01:17.000Z</time>
      </trkpt>
      <trkpt lat="43.72334" lon="1.46332">
        <ele>161.560322</ele>
        <time>2023-07-30T14:01:17.000Z</time>
      </trkpt>
      <trkpt lat="43.72333" lon="1.46326">
        <ele>161.619416</ele>
        <time>2023-07-30T14:01:18.000Z</time>
      </trkpt>
      <trkpt lat="43.72332" lon="1.46321">
        <ele>161.670846</ele>
        <time>2023-07-30T14:01:19.000Z</time>
      </trkpt>
      <trkpt lat="43.72332" lon="1.46321">
        <ele>161.670846</ele>
        <time>2023-07-30T14:01:19.000Z</time>
      </trkpt>
      <trkpt lat="43.72331" lon="1.46315">
        <ele>161.734345</ele>
        <time>2023-07-30T14:01:20.000Z</time>
      </trkpt>
      <trkpt lat="43.72329" lon="1.46311">
        <ele>161.777026</ele>
        <time>2023-07-30T14:01:20.000Z</time>
      </trkpt>
      <trkpt lat="43.72329" lon="1.46311">
        <ele>161.777026</ele>
        <time>2023-07-30T14:01:20.000Z</time>
      </trkpt>
      <trkpt lat="43.72327" lon="1.46305">
        <ele>161.840681</ele>
        <time>2023-07-30T14:01:22.000Z</time>
      </trkpt>
      <trkpt lat="43.72326" lon="1.463">
        <ele>161.892896</ele>
        <time>2023-07-30T14:01:23.000Z</time>
      </trkpt>
      <trkpt lat="43.72326" lon="1.463">
        <ele>161.892896</ele>
        <time>2023-07-30T14:01:23.000Z</time>
      </trkpt>
      <trkpt lat="43.72324" lon="1.46296">
        <ele>161.945338</ele>
        <time>2023-07-30T14:01:24.000Z</time>
      </trkpt>
      <trkpt lat="43.72324" lon="1.46296">
        <ele>161.945338</ele>
        <time>2023-07-30T14:01:24.000Z</time>
      </trkpt>
      <trkpt lat="43.72323" lon="1.46291">
        <ele>161.992392</ele>
        <time>2023-07-30T14:01:25.000Z</time>
      </trkpt>
      <trkpt lat="43.72323" lon="1.46291">
        <ele>161.992392</ele>
        <time>2023-07-30T14:01:25.000Z</time>
      </trkpt>
      <trkpt lat="43.72323" lon="1.46293">
        <ele>162.009638</ele>
        <time>2023-07-30T14:01:26.000Z</time>
      </trkpt>
      <trkpt lat="43.72323" lon="1.46293">
        <ele>162.009638</ele>
        <time>2023-07-30T14:01:26.000Z</time>
      </trkpt>
      <trkpt lat="43.7232" lon="1.46283">
        <ele>162.115298</ele>
        <time>2023-07-30T14:01:27.000Z</time>
      </trkpt>
      <trkpt lat="43.72316" lon="1.46266">
        <ele>162.289721</ele>
        <time>2023-07-30T14:01:29.000Z</time>
      </trkpt>
      <trkpt lat="43.72314" lon="1.46254">
        <ele>162.306634</ele>
        <time>2023-07-30T14:01:30.000Z</time>
      </trkpt>
      <trkpt lat="43.72313" lon="1.46246">
        <ele>162.230689</ele>
        <time>2023-07-30T14:01:31.000Z</time>
      </trkpt>
      <trkpt lat="43.72313" lon="1.46246">
        <ele>162.230689</ele>
        <time>2023-07-30T14:01:31.000Z</time>
      </trkpt>
      <trkpt lat="43.72312" lon="1.46238">
        <ele>162.170375</ele>
        <time>2023-07-30T14:01:32.000Z</time>
      </trkpt>
      <trkpt lat="43.72313" lon="1.46226">
        <ele>162.067701</ele>
        <time>2023-07-30T14:01:34.000Z</time>
      </trkpt>
      <trkpt lat="43.72313" lon="1.46221">
        <ele>162.024273</ele>
        <time>2023-07-30T14:01:36.000Z</time>
      </trkpt>
      <trkpt lat="43.72313" lon="1.46221">
        <ele>162.024273</ele>
        <time>2023-07-30T14:01:36.000Z</time>
      </trkpt>
      <trkpt lat="43.72314" lon="1.46216">
        <ele>161.981611</ele>
        <time>2023-07-30T14:01:36.000Z</time>
      </trkpt>
      <trkpt lat="43.72314" lon="1.46216">
        <ele>161.981611</ele>
        <time>2023-07-30T14:01:36.000Z</time>
      </trkpt>
      <trkpt lat="43.72314" lon="1.46211">
        <ele>161.935817</ele>
        <time>2023-07-30T14:01:38.000Z</time>
      </trkpt>
      <trkpt lat="43.72314" lon="1.46211">
        <ele>161.935817</ele>
        <time>2023-07-30T14:01:38.000Z</time>
      </trkpt>
      <trkpt lat="43.72315" lon="1.46203">
        <ele>161.864806</ele>
        <time>2023-07-30T14:01:39.000Z</time>
      </trkpt>
      <trkpt lat="43.72315" lon="1.46203">
        <ele>161.864806</ele>
        <time>2023-07-30T14:01:39.000Z</time>
      </trkpt>
      <trkpt lat="43.72315" lon="1.46194">
        <ele>161.790571</ele>
        <time>2023-07-30T14:01:41.000Z</time>
      </trkpt>
      <trkpt lat="43.72315" lon="1.46194">
        <ele>161.790571</ele>
        <time>2023-07-30T14:01:41.000Z</time>
      </trkpt>
      <trkpt lat="43.72315" lon="1.4619">
        <ele>161.757315</ele>
        <time>2023-07-30T14:01:42.000Z</time>
      </trkpt>
      <trkpt lat="43.72315" lon="1.46186">
        <ele>161.720849</ele>
        <time>2023-07-30T14:01:43.000Z</time>
      </trkpt>
      <trkpt lat="43.72314" lon="1.4618">
        <ele>161.670775</ele>
        <time>2023-07-30T14:01:44.000Z</time>
      </trkpt>
      <trkpt lat="43.72313" lon="1.46175">
        <ele>161.625584</ele>
        <time>2023-07-30T14:01:46.000Z</time>
      </trkpt>
      <trkpt lat="43.72313" lon="1.46175">
        <ele>161.625584</ele>
        <time>2023-07-30T14:01:46.000Z</time>
      </trkpt>
      <trkpt lat="43.72313" lon="1.46163">
        <ele>161.522542</ele>
        <time>2023-07-30T14:01:47.000Z</time>
      </trkpt>
      <trkpt lat="43.72313" lon="1.46163">
        <ele>161.522542</ele>
        <time>2023-07-30T14:01:47.000Z</time>
      </trkpt>
      <trkpt lat="43.72312" lon="1.46157">
        <ele>161.475767</ele>
        <time>2023-07-30T14:01:48.000Z</time>
      </trkpt>
      <trkpt lat="43.72312" lon="1.46157">
        <ele>161.475767</ele>
        <time>2023-07-30T14:01:48.000Z</time>
      </trkpt>
      <trkpt lat="43.72312" lon="1.46147">
        <ele>161.390833</ele>
        <time>2023-07-30T14:01:50.000Z</time>
      </trkpt>
      <trkpt lat="43.72312" lon="1.46147">
        <ele>161.390833</ele>
        <time>2023-07-30T14:01:50.000Z</time>
      </trkpt>
      <trkpt lat="43.72311" lon="1.46139">
        <ele>161.324023</ele>
        <time>2023-07-30T14:01:51.000Z</time>
      </trkpt>
      <trkpt lat="43.7231" lon="1.46131">
        <ele>161.254</ele>
        <time>2023-07-30T14:01:52.000Z</time>
      </trkpt>
      <trkpt lat="43.7231" lon="1.46123">
        <ele>161.185148</ele>
        <time>2023-07-30T14:01:54.000Z</time>
      </trkpt>
      <trkpt lat="43.7231" lon="1.46115">
        <ele>161.118834</ele>
        <time>2023-07-30T14:01:55.000Z</time>
      </trkpt>
      <trkpt lat="43.7231" lon="1.46104">
        <ele>161.021309</ele>
        <time>2023-07-30T14:01:57.000Z</time>
      </trkpt>
      <trkpt lat="43.7231" lon="1.46104">
        <ele>161.021309</ele>
        <time>2023-07-30T14:01:58.000Z</time>
      </trkpt>
      <trkpt lat="43.7231" lon="1.46104">
        <ele>161.021309</ele>
        <time>2023-07-30T14:02:02.000Z</time>
      </trkpt>
      <trkpt lat="43.72312" lon="1.46081">
        <ele>160.827887</ele>
        <time>2023-07-30T14:02:04.000Z</time>
      </trkpt>
      <trkpt lat="43.72312" lon="1.46081">
        <ele>160.827887</ele>
        <time>2023-07-30T14:02:05.000Z</time>
      </trkpt>
      <trkpt lat="43.72312" lon="1.4608">
        <ele>160.814318</ele>
        <time>2023-07-30T14:02:06.000Z</time>
      </trkpt>
      <trkpt lat="43.72312" lon="1.4608">
        <ele>160.81347</ele>
        <time>2023-07-30T14:02:07.000Z</time>
      </trkpt>
      <trkpt lat="43.72312" lon="1.4608">
        <ele>160.81347</ele>
        <time>2023-07-30T14:02:07.000Z</time>
      </trkpt>
      <trkpt lat="43.72312" lon="1.46079">
        <ele>160.805838</ele>
        <time>2023-07-30T14:02:09.000Z</time>
      </trkpt>
      <trkpt lat="43.72312" lon="1.46079">
        <ele>160.80499</ele>
        <time>2023-07-30T14:02:10.000Z</time>
      </trkpt>
      <trkpt lat="43.72312" lon="1.46079">
        <ele>160.804142</ele>
        <time>2023-07-30T14:02:11.000Z</time>
      </trkpt>
      <trkpt lat="43.72311" lon="1.46079">
        <ele>160.794754</ele>
        <time>2023-07-30T14:02:12.000Z</time>
      </trkpt>
      <trkpt lat="43.72312" lon="1.46078">
        <ele>160.784772</ele>
        <time>2023-07-30T14:02:13.000Z</time>
      </trkpt>
      <trkpt lat="43.72313" lon="1.46077">
        <ele>160.776367</ele>
        <time>2023-07-30T14:02:15.000Z</time>
      </trkpt>
      <trkpt lat="43.72313" lon="1.46078">
        <ele>160.774671</ele>
        <time>2023-07-30T14:02:16.000Z</time>
      </trkpt>
      <trkpt lat="43.72313" lon="1.46078">
        <ele>160.767039</ele>
        <time>2023-07-30T14:02:17.000Z</time>
      </trkpt>
      <trkpt lat="43.72313" lon="1.46078">
        <ele>160.767039</ele>
        <time>2023-07-30T14:02:17.000Z</time>
      </trkpt>
      <trkpt lat="43.72313" lon="1.46079">
        <ele>160.758558</ele>
        <time>2023-07-30T14:02:18.000Z</time>
      </trkpt>
      <trkpt lat="43.72315" lon="1.46086">
        <ele>160.691269</ele>
        <time>2023-07-30T14:02:20.000Z</time>
      </trkpt>
      <trkpt lat="43.72315" lon="1.46086">
        <ele>160.691269</ele>
        <time>2023-07-30T14:02:20.000Z</time>
      </trkpt>
      <trkpt lat="43.72315" lon="1.46086">
        <ele>160.685478</ele>
        <time>2023-07-30T14:02:21.000Z</time>
      </trkpt>
      <trkpt lat="43.72319" lon="1.46096">
        <ele>160.589859</ele>
        <time>2023-07-30T14:02:21.000Z</time>
      </trkpt>
      <trkpt lat="43.72321" lon="1.46103">
        <ele>160.524618</ele>
        <time>2023-07-30T14:02:24.000Z</time>
      </trkpt>
      <trkpt lat="43.72324" lon="1.46109">
        <ele>160.459563</ele>
        <time>2023-07-30T14:02:25.000Z</time>
      </trkpt>
      <trkpt lat="43.72326" lon="1.46116">
        <ele>160.399706</ele>
        <time>2023-07-30T14:02:26.000Z</time>
      </trkpt>
      <trkpt lat="43.72328" lon="1.46121">
        <ele>160.350292</ele>
        <time>2023-07-30T14:02:27.000Z</time>
      </trkpt>
      <trkpt lat="43.72331" lon="1.46128">
        <ele>160.28375</ele>
        <time>2023-07-30T14:02:28.000Z</time>
      </trkpt>
      <trkpt lat="43.72333" lon="1.46134">
        <ele>160.248643</ele>
        <time>2023-07-30T14:02:29.000Z</time>
      </trkpt>
      <trkpt lat="43.72335" lon="1.46139">
        <ele>160.265318</ele>
        <time>2023-07-30T14:02:30.000Z</time>
      </trkpt>
      <trkpt lat="43.72337" lon="1.46144">
        <ele>160.280474</ele>
        <time>2023-07-30T14:02:32.000Z</time>
      </trkpt>
      <trkpt lat="43.72337" lon="1.46144">
        <ele>160.280474</ele>
        <time>2023-07-30T14:02:32.000Z</time>
      </trkpt>
      <trkpt lat="43.72338" lon="1.46148">
        <ele>160.292012</ele>
        <time>2023-07-30T14:02:33.000Z</time>
      </trkpt>
      <trkpt lat="43.72342" lon="1.46167">
        <ele>160.350901</ele>
        <time>2023-07-30T14:02:42.000Z</time>
      </trkpt>
      <trkpt lat="43.72342" lon="1.46167">
        <ele>160.350901</ele>
        <time>2023-07-30T14:02:43.000Z</time>
      </trkpt>
      <trkpt lat="43.72342" lon="1.46168">
        <ele>160.351747</ele>
        <time>2023-07-30T14:02:44.000Z</time>
      </trkpt>
      <trkpt lat="43.72343" lon="1.46169">
        <ele>160.356786</ele>
        <time>2023-07-30T14:02:45.000Z</time>
      </trkpt>
      <trkpt lat="43.72344" lon="1.46171">
        <ele>160.36387</ele>
        <time>2023-07-30T14:02:46.000Z</time>
      </trkpt>
      <trkpt lat="43.72344" lon="1.46171">
        <ele>160.36387</ele>
        <time>2023-07-30T14:02:46.000Z</time>
      </trkpt>
      <trkpt lat="43.72345" lon="1.46175">
        <ele>160.374621</ele>
        <time>2023-07-30T14:02:48.000Z</time>
      </trkpt>
      <trkpt lat="43.72345" lon="1.46175">
        <ele>160.374621</ele>
        <time>2023-07-30T14:02:48.000Z</time>
      </trkpt>
      <trkpt lat="43.72346" lon="1.46178">
        <ele>160.384699</ele>
        <time>2023-07-30T14:02:49.000Z</time>
      </trkpt>
      <trkpt lat="43.72346" lon="1.46178">
        <ele>160.384699</ele>
        <time>2023-07-30T14:02:49.000Z</time>
      </trkpt>
      <trkpt lat="43.72348" lon="1.46182">
        <ele>160.397401</ele>
        <time>2023-07-30T14:02:50.000Z</time>
      </trkpt>
      <trkpt lat="43.72348" lon="1.46186">
        <ele>160.409371</ele>
        <time>2023-07-30T14:02:51.000Z</time>
      </trkpt>
      <trkpt lat="43.72348" lon="1.46197">
        <ele>160.43953</ele>
        <time>2023-07-30T14:02:53.000Z</time>
      </trkpt>
      <trkpt lat="43.72348" lon="1.46197">
        <ele>160.43953</ele>
        <time>2023-07-30T14:02:53.000Z</time>
      </trkpt>
      <trkpt lat="43.72348" lon="1.46203">
        <ele>160.457355</ele>
        <time>2023-07-30T14:02:54.000Z</time>
      </trkpt>
      <trkpt lat="43.72348" lon="1.46203">
        <ele>160.457355</ele>
        <time>2023-07-30T14:02:54.000Z</time>
      </trkpt>
      <trkpt lat="43.72348" lon="1.4621">
        <ele>160.477367</ele>
        <time>2023-07-30T14:02:55.000Z</time>
      </trkpt>
      <trkpt lat="43.72348" lon="1.4621">
        <ele>160.477367</ele>
        <time>2023-07-30T14:02:55.000Z</time>
      </trkpt>
      <trkpt lat="43.72348" lon="1.46216">
        <ele>160.493715</ele>
        <time>2023-07-30T14:02:56.000Z</time>
      </trkpt>
      <trkpt lat="43.72348" lon="1.46222">
        <ele>160.511754</ele>
        <time>2023-07-30T14:02:58.000Z</time>
      </trkpt>
      <trkpt lat="43.72348" lon="1.46222">
        <ele>160.511754</ele>
        <time>2023-07-30T14:02:58.000Z</time>
      </trkpt>
      <trkpt lat="43.72349" lon="1.46228">
        <ele>160.52903</ele>
        <time>2023-07-30T14:02:59.000Z</time>
      </trkpt>
      <trkpt lat="43.72349" lon="1.46228">
        <ele>160.52903</ele>
        <time>2023-07-30T14:02:59.000Z</time>
      </trkpt>
      <trkpt lat="43.72351" lon="1.46235">
        <ele>160.549317</ele>
        <time>2023-07-30T14:03:00.000Z</time>
      </trkpt>
      <trkpt lat="43.72354" lon="1.46242">
        <ele>160.5715</ele>
        <time>2023-07-30T14:03:01.000Z</time>
      </trkpt>
      <trkpt lat="43.72354" lon="1.46242">
        <ele>160.5715</ele>
        <time>2023-07-30T14:03:01.000Z</time>
      </trkpt>
      <trkpt lat="43.72357" lon="1.46248">
        <ele>160.593675</ele>
        <time>2023-07-30T14:03:02.000Z</time>
      </trkpt>
      <trkpt lat="43.72357" lon="1.46248">
        <ele>160.593675</ele>
        <time>2023-07-30T14:03:02.000Z</time>
      </trkpt>
      <trkpt lat="43.72361" lon="1.46254">
        <ele>160.614725</ele>
        <time>2023-07-30T14:03:03.000Z</time>
      </trkpt>
      <trkpt lat="43.72361" lon="1.46254">
        <ele>160.614725</ele>
        <time>2023-07-30T14:03:03.000Z</time>
      </trkpt>
      <trkpt lat="43.72364" lon="1.46259">
        <ele>160.634983</ele>
        <time>2023-07-30T14:03:04.000Z</time>
      </trkpt>
      <trkpt lat="43.72364" lon="1.46259">
        <ele>160.634983</ele>
        <time>2023-07-30T14:03:04.000Z</time>
      </trkpt>
      <trkpt lat="43.72367" lon="1.46263">
        <ele>160.649804</ele>
        <time>2023-07-30T14:03:05.000Z</time>
      </trkpt>
      <trkpt lat="43.72367" lon="1.46263">
        <ele>160.649804</ele>
        <time>2023-07-30T14:03:05.000Z</time>
      </trkpt>
      <trkpt lat="43.72371" lon="1.46268">
        <ele>160.669361</ele>
        <time>2023-07-30T14:03:07.000Z</time>
      </trkpt>
      <trkpt lat="43.72371" lon="1.46268">
        <ele>160.669361</ele>
        <time>2023-07-30T14:03:07.000Z</time>
      </trkpt>
      <trkpt lat="43.72372" lon="1.46271">
        <ele>160.681034</ele>
        <time>2023-07-30T14:03:08.000Z</time>
      </trkpt>
      <trkpt lat="43.72372" lon="1.46271">
        <ele>160.681034</ele>
        <time>2023-07-30T14:03:08.000Z</time>
      </trkpt>
      <trkpt lat="43.72374" lon="1.46275">
        <ele>160.695427</ele>
        <time>2023-07-30T14:03:09.000Z</time>
      </trkpt>
      <trkpt lat="43.72376" lon="1.46279">
        <ele>160.707823</ele>
        <time>2023-07-30T14:03:10.000Z</time>
      </trkpt>
      <trkpt lat="43.72376" lon="1.46279">
        <ele>160.707823</ele>
        <time>2023-07-30T14:03:10.000Z</time>
      </trkpt>
      <trkpt lat="43.72378" lon="1.46296">
        <ele>160.756848</ele>
        <time>2023-07-30T14:03:12.000Z</time>
      </trkpt>
      <trkpt lat="43.72378" lon="1.46296">
        <ele>160.756848</ele>
        <time>2023-07-30T14:03:12.000Z</time>
      </trkpt>
      <trkpt lat="43.7238" lon="1.46305">
        <ele>160.782196</ele>
        <time>2023-07-30T14:03:13.000Z</time>
      </trkpt>
      <trkpt lat="43.7238" lon="1.46305">
        <ele>160.782196</ele>
        <time>2023-07-30T14:03:13.000Z</time>
      </trkpt>
      <trkpt lat="43.72381" lon="1.4631">
        <ele>160.795998</ele>
        <time>2023-07-30T14:03:14.000Z</time>
      </trkpt>
      <trkpt lat="43.72381" lon="1.4631">
        <ele>160.795998</ele>
        <time>2023-07-30T14:03:14.000Z</time>
      </trkpt>
      <trkpt lat="43.72382" lon="1.46318">
        <ele>160.821574</ele>
        <time>2023-07-30T14:03:15.000Z</time>
      </trkpt>
      <trkpt lat="43.72382" lon="1.46318">
        <ele>160.821574</ele>
        <time>2023-07-30T14:03:15.000Z</time>
      </trkpt>
      <trkpt lat="43.72385" lon="1.46331">
        <ele>160.858779</ele>
        <time>2023-07-30T14:03:16.000Z</time>
      </trkpt>
      <trkpt lat="43.72385" lon="1.46331">
        <ele>160.858779</ele>
        <time>2023-07-30T14:03:16.000Z</time>
      </trkpt>
      <trkpt lat="43.72386" lon="1.46337">
        <ele>160.876054</ele>
        <time>2023-07-30T14:03:17.000Z</time>
      </trkpt>
      <trkpt lat="43.72386" lon="1.46337">
        <ele>160.876054</ele>
        <time>2023-07-30T14:03:17.000Z</time>
      </trkpt>
      <trkpt lat="43.72387" lon="1.46339">
        <ele>160.880713</ele>
        <time>2023-07-30T14:03:18.000Z</time>
      </trkpt>
      <trkpt lat="43.72388" lon="1.46344">
        <ele>160.897163</ele>
        <time>2023-07-30T14:03:19.000Z</time>
      </trkpt>
      <trkpt lat="43.72388" lon="1.46344">
        <ele>160.897163</ele>
        <time>2023-07-30T14:03:19.000Z</time>
      </trkpt>
      <trkpt lat="43.7239" lon="1.46351">
        <ele>160.919351</ele>
        <time>2023-07-30T14:03:20.000Z</time>
      </trkpt>
      <trkpt lat="43.7239" lon="1.46351">
        <ele>160.919351</ele>
        <time>2023-07-30T14:03:20.000Z</time>
      </trkpt>
      <trkpt lat="43.72393" lon="1.4636">
        <ele>160.946496</ele>
        <time>2023-07-30T14:03:21.000Z</time>
      </trkpt>
      <trkpt lat="43.72393" lon="1.4636">
        <ele>160.946496</ele>
        <time>2023-07-30T14:03:21.000Z</time>
      </trkpt>
      <trkpt lat="43.72393" lon="1.46362">
        <ele>160.985287</ele>
        <time>2023-07-30T14:03:22.000Z</time>
      </trkpt>
      <trkpt lat="43.72397" lon="1.46378">
        <ele>161.241172</ele>
        <time>2023-07-30T14:03:23.000Z</time>
      </trkpt>
      <trkpt lat="43.72397" lon="1.46378">
        <ele>161.241172</ele>
        <time>2023-07-30T14:03:23.000Z</time>
      </trkpt>
      <trkpt lat="43.724" lon="1.46386">
        <ele>161.382251</ele>
        <time>2023-07-30T14:03:24.000Z</time>
      </trkpt>
      <trkpt lat="43.724" lon="1.46386">
        <ele>161.382251</ele>
        <time>2023-07-30T14:03:24.000Z</time>
      </trkpt>
      <trkpt lat="43.72401" lon="1.46396">
        <ele>161.53675</ele>
        <time>2023-07-30T14:03:25.000Z</time>
      </trkpt>
      <trkpt lat="43.72402" lon="1.464">
        <ele>161.598938</ele>
        <time>2023-07-30T14:03:26.000Z</time>
      </trkpt>
      <trkpt lat="43.72402" lon="1.464">
        <ele>161.598938</ele>
        <time>2023-07-30T14:03:26.000Z</time>
      </trkpt>
      <trkpt lat="43.72404" lon="1.46414">
        <ele>161.815772</ele>
        <time>2023-07-30T14:03:27.000Z</time>
      </trkpt>
      <trkpt lat="43.72404" lon="1.46414">
        <ele>161.815772</ele>
        <time>2023-07-30T14:03:27.000Z</time>
      </trkpt>
      <trkpt lat="43.72405" lon="1.46423">
        <ele>161.959555</ele>
        <time>2023-07-30T14:03:29.000Z</time>
      </trkpt>
      <trkpt lat="43.72405" lon="1.46423">
        <ele>161.959555</ele>
        <time>2023-07-30T14:03:29.000Z</time>
      </trkpt>
      <trkpt lat="43.72406" lon="1.46429">
        <ele>162.060297</ele>
        <time>2023-07-30T14:03:30.000Z</time>
      </trkpt>
      <trkpt lat="43.72406" lon="1.46429">
        <ele>162.060297</ele>
        <time>2023-07-30T14:03:30.000Z</time>
      </trkpt>
      <trkpt lat="43.72407" lon="1.46439">
        <ele>162.219061</ele>
        <time>2023-07-30T14:03:32.000Z</time>
      </trkpt>
      <trkpt lat="43.72409" lon="1.46458">
        <ele>162.510843</ele>
        <time>2023-07-30T14:03:33.000Z</time>
      </trkpt>
      <trkpt lat="43.72409" lon="1.46458">
        <ele>162.510843</ele>
        <time>2023-07-30T14:03:33.000Z</time>
      </trkpt>
      <trkpt lat="43.7241" lon="1.46466">
        <ele>162.650247</ele>
        <time>2023-07-30T14:03:34.000Z</time>
      </trkpt>
      <trkpt lat="43.7241" lon="1.46466">
        <ele>162.650247</ele>
        <time>2023-07-30T14:03:34.000Z</time>
      </trkpt>
      <trkpt lat="43.72412" lon="1.4648">
        <ele>162.865625</ele>
        <time>2023-07-30T14:03:35.000Z</time>
      </trkpt>
      <trkpt lat="43.72413" lon="1.46498">
        <ele>163.136631</ele>
        <time>2023-07-30T14:03:37.000Z</time>
      </trkpt>
      <trkpt lat="43.72413" lon="1.46508">
        <ele>163.293622</ele>
        <time>2023-07-30T14:03:37.000Z</time>
      </trkpt>
      <trkpt lat="43.72413" lon="1.46508">
        <ele>163.293622</ele>
        <time>2023-07-30T14:03:37.000Z</time>
      </trkpt>
      <trkpt lat="43.72414" lon="1.46522">
        <ele>163.515149</ele>
        <time>2023-07-30T14:03:39.000Z</time>
      </trkpt>
      <trkpt lat="43.72414" lon="1.46522">
        <ele>163.515149</ele>
        <time>2023-07-30T14:03:39.000Z</time>
      </trkpt>
      <trkpt lat="43.72414" lon="1.46531">
        <ele>163.655041</ele>
        <time>2023-07-30T14:03:41.000Z</time>
      </trkpt>
      <trkpt lat="43.72414" lon="1.46531">
        <ele>163.655041</ele>
        <time>2023-07-30T14:03:41.000Z</time>
      </trkpt>
      <trkpt lat="43.72416" lon="1.46543">
        <ele>163.844471</ele>
        <time>2023-07-30T14:03:43.000Z</time>
      </trkpt>
      <trkpt lat="43.72416" lon="1.46543">
        <ele>163.844471</ele>
        <time>2023-07-30T14:03:43.000Z</time>
      </trkpt>
      <trkpt lat="43.72417" lon="1.46549">
        <ele>163.939307</ele>
        <time>2023-07-30T14:03:43.000Z</time>
      </trkpt>
      <trkpt lat="43.72417" lon="1.46549">
        <ele>163.939307</ele>
        <time>2023-07-30T14:03:43.000Z</time>
      </trkpt>
      <trkpt lat="43.72418" lon="1.46554">
        <ele>164.029509</ele>
        <time>2023-07-30T14:03:45.000Z</time>
      </trkpt>
      <trkpt lat="43.72418" lon="1.46554">
        <ele>164.029509</ele>
        <time>2023-07-30T14:03:45.000Z</time>
      </trkpt>
      <trkpt lat="43.72419" lon="1.46561">
        <ele>164.142146</ele>
        <time>2023-07-30T14:03:45.000Z</time>
      </trkpt>
      <trkpt lat="43.72419" lon="1.46561">
        <ele>164.142146</ele>
        <time>2023-07-30T14:03:45.000Z</time>
      </trkpt>
      <trkpt lat="43.72421" lon="1.46567">
        <ele>164.232068</ele>
        <time>2023-07-30T14:03:47.000Z</time>
      </trkpt>
      <trkpt lat="43.72421" lon="1.46567">
        <ele>164.232068</ele>
        <time>2023-07-30T14:03:47.000Z</time>
      </trkpt>
      <trkpt lat="43.72422" lon="1.46571">
        <ele>164.304437</ele>
        <time>2023-07-30T14:03:48.000Z</time>
      </trkpt>
      <trkpt lat="43.72422" lon="1.46571">
        <ele>164.304437</ele>
        <time>2023-07-30T14:03:48.000Z</time>
      </trkpt>
      <trkpt lat="43.72424" lon="1.46575">
        <ele>164.374144</ele>
        <time>2023-07-30T14:03:49.000Z</time>
      </trkpt>
      <trkpt lat="43.72424" lon="1.46575">
        <ele>164.374144</ele>
        <time>2023-07-30T14:03:49.000Z</time>
      </trkpt>
      <trkpt lat="43.72425" lon="1.46578">
        <ele>164.434741</ele>
        <time>2023-07-30T14:03:51.000Z</time>
      </trkpt>
      <trkpt lat="43.72425" lon="1.46578">
        <ele>164.434741</ele>
        <time>2023-07-30T14:03:51.000Z</time>
      </trkpt>
      <trkpt lat="43.72427" lon="1.46581">
        <ele>164.493318</ele>
        <time>2023-07-30T14:03:52.000Z</time>
      </trkpt>
      <trkpt lat="43.72427" lon="1.46581">
        <ele>164.493318</ele>
        <time>2023-07-30T14:03:52.000Z</time>
      </trkpt>
      <trkpt lat="43.72431" lon="1.46586">
        <ele>164.607179</ele>
        <time>2023-07-30T14:03:53.000Z</time>
      </trkpt>
      <trkpt lat="43.72431" lon="1.46586">
        <ele>164.607179</ele>
        <time>2023-07-30T14:03:53.000Z</time>
      </trkpt>
      <trkpt lat="43.72432" lon="1.46588">
        <ele>164.651353</ele>
        <time>2023-07-30T14:03:55.000Z</time>
      </trkpt>
      <trkpt lat="43.72432" lon="1.46588">
        <ele>164.651353</ele>
        <time>2023-07-30T14:03:55.000Z</time>
      </trkpt>
      <trkpt lat="43.72434" lon="1.4659">
        <ele>164.694741</ele>
        <time>2023-07-30T14:03:56.000Z</time>
      </trkpt>
      <trkpt lat="43.72434" lon="1.4659">
        <ele>164.694741</ele>
        <time>2023-07-30T14:03:56.000Z</time>
      </trkpt>
      <trkpt lat="43.72436" lon="1.46593">
        <ele>164.766003</ele>
        <time>2023-07-30T14:03:57.000Z</time>
      </trkpt>
      <trkpt lat="43.72436" lon="1.46593">
        <ele>164.766003</ele>
        <time>2023-07-30T14:03:57.000Z</time>
      </trkpt>
      <trkpt lat="43.72438" lon="1.46598">
        <ele>164.908462</ele>
        <time>2023-07-30T14:03:58.000Z</time>
      </trkpt>
      <trkpt lat="43.72438" lon="1.46598">
        <ele>164.908462</ele>
        <time>2023-07-30T14:03:58.000Z</time>
      </trkpt>
      <trkpt lat="43.7244" lon="1.46601">
        <ele>165.134205</ele>
        <time>2023-07-30T14:03:59.000Z</time>
      </trkpt>
      <trkpt lat="43.7244" lon="1.46601">
        <ele>165.134205</ele>
        <time>2023-07-30T14:03:59.000Z</time>
      </trkpt>
      <trkpt lat="43.72443" lon="1.46605">
        <ele>165.363439</ele>
        <time>2023-07-30T14:04:00.000Z</time>
      </trkpt>
      <trkpt lat="43.72443" lon="1.46605">
        <ele>165.363439</ele>
        <time>2023-07-30T14:04:00.000Z</time>
      </trkpt>
      <trkpt lat="43.72447" lon="1.46614">
        <ele>165.839659</ele>
        <time>2023-07-30T14:04:02.000Z</time>
      </trkpt>
      <trkpt lat="43.72447" lon="1.46614">
        <ele>165.839659</ele>
        <time>2023-07-30T14:04:02.000Z</time>
      </trkpt>
      <trkpt lat="43.72451" lon="1.46622">
        <ele>166.263619</ele>
        <time>2023-07-30T14:04:04.000Z</time>
      </trkpt>
      <trkpt lat="43.72451" lon="1.46622">
        <ele>166.263619</ele>
        <time>2023-07-30T14:04:04.000Z</time>
      </trkpt>
      <trkpt lat="43.72452" lon="1.46627">
        <ele>166.48716</ele>
        <time>2023-07-30T14:04:05.000Z</time>
      </trkpt>
      <trkpt lat="43.72453" lon="1.46631">
        <ele>166.695952</ele>
        <time>2023-07-30T14:04:06.000Z</time>
      </trkpt>
      <trkpt lat="43.72453" lon="1.46631">
        <ele>166.695952</ele>
        <time>2023-07-30T14:04:06.000Z</time>
      </trkpt>
      <trkpt lat="43.72454" lon="1.46636">
        <ele>166.932221</ele>
        <time>2023-07-30T14:04:07.000Z</time>
      </trkpt>
      <trkpt lat="43.72454" lon="1.46636">
        <ele>166.932221</ele>
        <time>2023-07-30T14:04:07.000Z</time>
      </trkpt>
      <trkpt lat="43.72455" lon="1.46647">
        <ele>167.430219</ele>
        <time>2023-07-30T14:04:09.000Z</time>
      </trkpt>
      <trkpt lat="43.72455" lon="1.46647">
        <ele>167.430219</ele>
        <time>2023-07-30T14:04:09.000Z</time>
      </trkpt>
      <trkpt lat="43.72456" lon="1.46655">
        <ele>167.765952</ele>
        <time>2023-07-30T14:04:10.000Z</time>
      </trkpt>
      <trkpt lat="43.72456" lon="1.46655">
        <ele>167.765952</ele>
        <time>2023-07-30T14:04:10.000Z</time>
      </trkpt>
      <trkpt lat="43.72458" lon="1.4666">
        <ele>168.034862</ele>
        <time>2023-07-30T14:04:11.000Z</time>
      </trkpt>
      <trkpt lat="43.72458" lon="1.4666">
        <ele>168.034862</ele>
        <time>2023-07-30T14:04:11.000Z</time>
      </trkpt>
      <trkpt lat="43.72459" lon="1.46667">
        <ele>168.349299</ele>
        <time>2023-07-30T14:04:13.000Z</time>
      </trkpt>
      <trkpt lat="43.72459" lon="1.46667">
        <ele>168.349299</ele>
        <time>2023-07-30T14:04:13.000Z</time>
      </trkpt>
      <trkpt lat="43.72462" lon="1.46673">
        <ele>168.673859</ele>
        <time>2023-07-30T14:04:14.000Z</time>
      </trkpt>
      <trkpt lat="43.72462" lon="1.46673">
        <ele>168.673859</ele>
        <time>2023-07-30T14:04:14.000Z</time>
      </trkpt>
      <trkpt lat="43.72464" lon="1.46679">
        <ele>168.987034</ele>
        <time>2023-07-30T14:04:15.000Z</time>
      </trkpt>
      <trkpt lat="43.72464" lon="1.46679">
        <ele>168.987034</ele>
        <time>2023-07-30T14:04:15.000Z</time>
      </trkpt>
      <trkpt lat="43.72467" lon="1.46683">
        <ele>169.25186</ele>
        <time>2023-07-30T14:04:16.000Z</time>
      </trkpt>
      <trkpt lat="43.72467" lon="1.46683">
        <ele>169.25186</ele>
        <time>2023-07-30T14:04:16.000Z</time>
      </trkpt>
      <trkpt lat="43.72472" lon="1.46686">
        <ele>169.576112</ele>
        <time>2023-07-30T14:04:17.000Z</time>
      </trkpt>
      <trkpt lat="43.72472" lon="1.46686">
        <ele>169.576112</ele>
        <time>2023-07-30T14:04:17.000Z</time>
      </trkpt>
      <trkpt lat="43.72476" lon="1.46688">
        <ele>169.83003</ele>
        <time>2023-07-30T14:04:18.000Z</time>
      </trkpt>
      <trkpt lat="43.72476" lon="1.46688">
        <ele>169.83003</ele>
        <time>2023-07-30T14:04:18.000Z</time>
      </trkpt>
      <trkpt lat="43.72482" lon="1.46688">
        <ele>170.20952</ele>
        <time>2023-07-30T14:04:20.000Z</time>
      </trkpt>
      <trkpt lat="43.72482" lon="1.46688">
        <ele>170.20952</ele>
        <time>2023-07-30T14:04:20.000Z</time>
      </trkpt>
      <trkpt lat="43.72487" lon="1.46687">
        <ele>170.523019</ele>
        <time>2023-07-30T14:04:21.000Z</time>
      </trkpt>
      <trkpt lat="43.72487" lon="1.46687">
        <ele>170.523019</ele>
        <time>2023-07-30T14:04:21.000Z</time>
      </trkpt>
      <trkpt lat="43.72492" lon="1.46687">
        <ele>170.828704</ele>
        <time>2023-07-30T14:04:22.000Z</time>
      </trkpt>
      <trkpt lat="43.72492" lon="1.46687">
        <ele>170.828704</ele>
        <time>2023-07-30T14:04:22.000Z</time>
      </trkpt>
      <trkpt lat="43.72503" lon="1.46683">
        <ele>171.513109</ele>
        <time>2023-07-30T14:04:23.000Z</time>
      </trkpt>
      <trkpt lat="43.72508" lon="1.4668">
        <ele>171.828676</ele>
        <time>2023-07-30T14:04:25.000Z</time>
      </trkpt>
      <trkpt lat="43.72508" lon="1.4668">
        <ele>171.828676</ele>
        <time>2023-07-30T14:04:25.000Z</time>
      </trkpt>
      <trkpt lat="43.72511" lon="1.46678">
        <ele>172.039368</ele>
        <time>2023-07-30T14:04:26.000Z</time>
      </trkpt>
      <trkpt lat="43.72511" lon="1.46678">
        <ele>172.039368</ele>
        <time>2023-07-30T14:04:26.000Z</time>
      </trkpt>
      <trkpt lat="43.72514" lon="1.46674">
        <ele>172.321058</ele>
        <time>2023-07-30T14:04:27.000Z</time>
      </trkpt>
      <trkpt lat="43.72514" lon="1.46674">
        <ele>172.321058</ele>
        <time>2023-07-30T14:04:27.000Z</time>
      </trkpt>
      <trkpt lat="43.72517" lon="1.46672">
        <ele>172.520571</ele>
        <time>2023-07-30T14:04:28.000Z</time>
      </trkpt>
      <trkpt lat="43.72517" lon="1.46672">
        <ele>172.520571</ele>
        <time>2023-07-30T14:04:28.000Z</time>
      </trkpt>
      <trkpt lat="43.72522" lon="1.46667">
        <ele>172.883558</ele>
        <time>2023-07-30T14:04:30.000Z</time>
      </trkpt>
      <trkpt lat="43.72522" lon="1.46667">
        <ele>172.883558</ele>
        <time>2023-07-30T14:04:30.000Z</time>
      </trkpt>
      <trkpt lat="43.72525" lon="1.46664">
        <ele>173.150714</ele>
        <time>2023-07-30T14:04:31.000Z</time>
      </trkpt>
      <trkpt lat="43.72525" lon="1.46664">
        <ele>173.150714</ele>
        <time>2023-07-30T14:04:31.000Z</time>
      </trkpt>
      <trkpt lat="43.72529" lon="1.46662">
        <ele>173.409923</ele>
        <time>2023-07-30T14:04:32.000Z</time>
      </trkpt>
      <trkpt lat="43.72529" lon="1.46662">
        <ele>173.409923</ele>
        <time>2023-07-30T14:04:32.000Z</time>
      </trkpt>
      <trkpt lat="43.72531" lon="1.4666">
        <ele>173.558064</ele>
        <time>2023-07-30T14:04:33.000Z</time>
      </trkpt>
      <trkpt lat="43.72531" lon="1.4666">
        <ele>173.558064</ele>
        <time>2023-07-30T14:04:33.000Z</time>
      </trkpt>
      <trkpt lat="43.72534" lon="1.46656">
        <ele>173.818053</ele>
        <time>2023-07-30T14:04:34.000Z</time>
      </trkpt>
      <trkpt lat="43.72534" lon="1.46656">
        <ele>173.818053</ele>
        <time>2023-07-30T14:04:34.000Z</time>
      </trkpt>
      <trkpt lat="43.72537" lon="1.46653">
        <ele>174.024772</ele>
        <time>2023-07-30T14:04:35.000Z</time>
      </trkpt>
      <trkpt lat="43.72537" lon="1.46653">
        <ele>174.024772</ele>
        <time>2023-07-30T14:04:35.000Z</time>
      </trkpt>
      <trkpt lat="43.72539" lon="1.4665">
        <ele>174.210499</ele>
        <time>2023-07-30T14:04:37.000Z</time>
      </trkpt>
      <trkpt lat="43.72539" lon="1.4665">
        <ele>174.210499</ele>
        <time>2023-07-30T14:04:37.000Z</time>
      </trkpt>
      <trkpt lat="43.7254" lon="1.46647">
        <ele>174.385326</ele>
        <time>2023-07-30T14:04:38.000Z</time>
      </trkpt>
      <trkpt lat="43.7254" lon="1.46647">
        <ele>174.385326</ele>
        <time>2023-07-30T14:04:38.000Z</time>
      </trkpt>
      <trkpt lat="43.72541" lon="1.46644">
        <ele>174.516584</ele>
        <time>2023-07-30T14:04:39.000Z</time>
      </trkpt>
      <trkpt lat="43.72541" lon="1.46644">
        <ele>174.516584</ele>
        <time>2023-07-30T14:04:39.000Z</time>
      </trkpt>
      <trkpt lat="43.72542" lon="1.4664">
        <ele>174.711364</ele>
        <time>2023-07-30T14:04:40.000Z</time>
      </trkpt>
      <trkpt lat="43.72542" lon="1.4664">
        <ele>174.711364</ele>
        <time>2023-07-30T14:04:40.000Z</time>
      </trkpt>
      <trkpt lat="43.72543" lon="1.46637">
        <ele>174.862224</ele>
        <time>2023-07-30T14:04:41.000Z</time>
      </trkpt>
      <trkpt lat="43.72543" lon="1.46637">
        <ele>174.862224</ele>
        <time>2023-07-30T14:04:41.000Z</time>
      </trkpt>
      <trkpt lat="43.72545" lon="1.46634">
        <ele>175.035949</ele>
        <time>2023-07-30T14:04:42.000Z</time>
      </trkpt>
      <trkpt lat="43.72545" lon="1.46634">
        <ele>175.035949</ele>
        <time>2023-07-30T14:04:42.000Z</time>
      </trkpt>
      <trkpt lat="43.72546" lon="1.46629">
        <ele>175.285321</ele>
        <time>2023-07-30T14:04:44.000Z</time>
      </trkpt>
      <trkpt lat="43.72546" lon="1.46629">
        <ele>175.285321</ele>
        <time>2023-07-30T14:04:44.000Z</time>
      </trkpt>
      <trkpt lat="43.72547" lon="1.46625">
        <ele>175.437168</ele>
        <time>2023-07-30T14:04:45.000Z</time>
      </trkpt>
      <trkpt lat="43.72547" lon="1.46625">
        <ele>175.437168</ele>
        <time>2023-07-30T14:04:45.000Z</time>
      </trkpt>
      <trkpt lat="43.72548" lon="1.46622">
        <ele>175.604222</ele>
        <time>2023-07-30T14:04:46.000Z</time>
      </trkpt>
      <trkpt lat="43.72548" lon="1.46622">
        <ele>175.604222</ele>
        <time>2023-07-30T14:04:46.000Z</time>
      </trkpt>
      <trkpt lat="43.72548" lon="1.46619">
        <ele>175.720818</ele>
        <time>2023-07-30T14:04:47.000Z</time>
      </trkpt>
      <trkpt lat="43.72548" lon="1.46619">
        <ele>175.720818</ele>
        <time>2023-07-30T14:04:47.000Z</time>
      </trkpt>
      <trkpt lat="43.72548" lon="1.46616">
        <ele>175.882259</ele>
        <time>2023-07-30T14:04:48.000Z</time>
      </trkpt>
      <trkpt lat="43.72548" lon="1.46616">
        <ele>175.882259</ele>
        <time>2023-07-30T14:04:48.000Z</time>
      </trkpt>
      <trkpt lat="43.72547" lon="1.46611">
        <ele>176.005066</ele>
        <time>2023-07-30T14:04:50.000Z</time>
      </trkpt>
      <trkpt lat="43.72547" lon="1.46611">
        <ele>176.005066</ele>
        <time>2023-07-30T14:04:50.000Z</time>
      </trkpt>
      <trkpt lat="43.72546" lon="1.46607">
        <ele>176.053596</ele>
        <time>2023-07-30T14:04:51.000Z</time>
      </trkpt>
      <trkpt lat="43.72546" lon="1.46607">
        <ele>176.053596</ele>
        <time>2023-07-30T14:04:51.000Z</time>
      </trkpt>
      <trkpt lat="43.72545" lon="1.46603">
        <ele>176.102977</ele>
        <time>2023-07-30T14:04:52.000Z</time>
      </trkpt>
      <trkpt lat="43.72545" lon="1.46603">
        <ele>176.102977</ele>
        <time>2023-07-30T14:04:52.000Z</time>
      </trkpt>
      <trkpt lat="43.72543" lon="1.46599">
        <ele>176.153319</ele>
        <time>2023-07-30T14:04:53.000Z</time>
      </trkpt>
      <trkpt lat="43.72543" lon="1.46599">
        <ele>176.153319</ele>
        <time>2023-07-30T14:04:53.000Z</time>
      </trkpt>
      <trkpt lat="43.72542" lon="1.46596">
        <ele>176.189228</ele>
        <time>2023-07-30T14:04:54.000Z</time>
      </trkpt>
      <trkpt lat="43.72542" lon="1.46596">
        <ele>176.189228</ele>
        <time>2023-07-30T14:04:54.000Z</time>
      </trkpt>
      <trkpt lat="43.72541" lon="1.46593">
        <ele>176.220679</ele>
        <time>2023-07-30T14:04:56.000Z</time>
      </trkpt>
      <trkpt lat="43.72541" lon="1.46593">
        <ele>176.220679</ele>
        <time>2023-07-30T14:04:56.000Z</time>
      </trkpt>
      <trkpt lat="43.72539" lon="1.46591">
        <ele>176.2582</ele>
        <time>2023-07-30T14:04:57.000Z</time>
      </trkpt>
      <trkpt lat="43.72539" lon="1.46591">
        <ele>176.2582</ele>
        <time>2023-07-30T14:04:57.000Z</time>
      </trkpt>
      <trkpt lat="43.72537" lon="1.46587">
        <ele>176.309939</ele>
        <time>2023-07-30T14:04:58.000Z</time>
      </trkpt>
      <trkpt lat="43.72537" lon="1.46587">
        <ele>176.309939</ele>
        <time>2023-07-30T14:04:58.000Z</time>
      </trkpt>
      <trkpt lat="43.72535" lon="1.46585">
        <ele>176.342</ele>
        <time>2023-07-30T14:04:59.000Z</time>
      </trkpt>
      <trkpt lat="43.72535" lon="1.46585">
        <ele>176.342</ele>
        <time>2023-07-30T14:04:59.000Z</time>
      </trkpt>
      <trkpt lat="43.72532" lon="1.46583">
        <ele>176.389699</ele>
        <time>2023-07-30T14:05:01.000Z</time>
      </trkpt>
      <trkpt lat="43.72532" lon="1.46583">
        <ele>176.389699</ele>
        <time>2023-07-30T14:05:01.000Z</time>
      </trkpt>
      <trkpt lat="43.7253" lon="1.46581">
        <ele>176.421706</ele>
        <time>2023-07-30T14:05:02.000Z</time>
      </trkpt>
      <trkpt lat="43.7253" lon="1.46581">
        <ele>176.421706</ele>
        <time>2023-07-30T14:05:02.000Z</time>
      </trkpt>
      <trkpt lat="43.72527" lon="1.46579">
        <ele>176.47932</ele>
        <time>2023-07-30T14:05:03.000Z</time>
      </trkpt>
      <trkpt lat="43.72524" lon="1.46578">
        <ele>176.530601</ele>
        <time>2023-07-30T14:05:04.000Z</time>
      </trkpt>
      <trkpt lat="43.72512" lon="1.46573">
        <ele>176.715406</ele>
        <time>2023-07-30T14:05:06.000Z</time>
      </trkpt>
      <trkpt lat="43.72512" lon="1.46573">
        <ele>176.715406</ele>
        <time>2023-07-30T14:05:06.000Z</time>
      </trkpt>
      <trkpt lat="43.72508" lon="1.46571">
        <ele>176.773488</ele>
        <time>2023-07-30T14:05:07.000Z</time>
      </trkpt>
      <trkpt lat="43.72508" lon="1.46571">
        <ele>176.773488</ele>
        <time>2023-07-30T14:05:07.000Z</time>
      </trkpt>
      <trkpt lat="43.72504" lon="1.46568">
        <ele>176.837006</ele>
        <time>2023-07-30T14:05:08.000Z</time>
      </trkpt>
      <trkpt lat="43.72499" lon="1.46563">
        <ele>176.934057</ele>
        <time>2023-07-30T14:05:10.000Z</time>
      </trkpt>
      <trkpt lat="43.72499" lon="1.46563">
        <ele>176.934057</ele>
        <time>2023-07-30T14:05:10.000Z</time>
      </trkpt>
      <trkpt lat="43.72493" lon="1.46556">
        <ele>177.051756</ele>
        <time>2023-07-30T14:05:12.000Z</time>
      </trkpt>
      <trkpt lat="43.72493" lon="1.46556">
        <ele>177.051756</ele>
        <time>2023-07-30T14:05:12.000Z</time>
      </trkpt>
      <trkpt lat="43.72489" lon="1.4655">
        <ele>177.135881</ele>
        <time>2023-07-30T14:05:13.000Z</time>
      </trkpt>
      <trkpt lat="43.72489" lon="1.4655">
        <ele>177.135881</ele>
        <time>2023-07-30T14:05:13.000Z</time>
      </trkpt>
      <trkpt lat="43.72485" lon="1.46543">
        <ele>177.233646</ele>
        <time>2023-07-30T14:05:14.000Z</time>
      </trkpt>
      <trkpt lat="43.72485" lon="1.46543">
        <ele>177.233646</ele>
        <time>2023-07-30T14:05:14.000Z</time>
      </trkpt>
      <trkpt lat="43.72481" lon="1.46535">
        <ele>177.342526</ele>
        <time>2023-07-30T14:05:15.000Z</time>
      </trkpt>
      <trkpt lat="43.72481" lon="1.46535">
        <ele>177.342526</ele>
        <time>2023-07-30T14:05:15.000Z</time>
      </trkpt>
      <trkpt lat="43.72479" lon="1.46529">
        <ele>177.4061</ele>
        <time>2023-07-30T14:05:16.000Z</time>
      </trkpt>
      <trkpt lat="43.72479" lon="1.46529">
        <ele>177.4061</ele>
        <time>2023-07-30T14:05:16.000Z</time>
      </trkpt>
      <trkpt lat="43.72474" lon="1.46512">
        <ele>177.611563</ele>
        <time>2023-07-30T14:05:17.000Z</time>
      </trkpt>
      <trkpt lat="43.72474" lon="1.46512">
        <ele>177.611563</ele>
        <time>2023-07-30T14:05:17.000Z</time>
      </trkpt>
      <trkpt lat="43.72471" lon="1.46503">
        <ele>177.717714</ele>
        <time>2023-07-30T14:05:18.000Z</time>
      </trkpt>
      <trkpt lat="43.72471" lon="1.46503">
        <ele>177.717714</ele>
        <time>2023-07-30T14:05:18.000Z</time>
      </trkpt>
      <trkpt lat="43.72468" lon="1.46495">
        <ele>177.812592</ele>
        <time>2023-07-30T14:05:19.000Z</time>
      </trkpt>
      <trkpt lat="43.72468" lon="1.46495">
        <ele>177.812592</ele>
        <time>2023-07-30T14:05:19.000Z</time>
      </trkpt>
      <trkpt lat="43.72466" lon="1.46487">
        <ele>177.906109</ele>
        <time>2023-07-30T14:05:20.000Z</time>
      </trkpt>
      <trkpt lat="43.72466" lon="1.46487">
        <ele>177.906109</ele>
        <time>2023-07-30T14:05:20.000Z</time>
      </trkpt>
      <trkpt lat="43.72464" lon="1.4648">
        <ele>177.980043</ele>
        <time>2023-07-30T14:05:21.000Z</time>
      </trkpt>
      <trkpt lat="43.72464" lon="1.4648">
        <ele>177.980043</ele>
        <time>2023-07-30T14:05:21.000Z</time>
      </trkpt>
      <trkpt lat="43.72463" lon="1.46473">
        <ele>178.060174</ele>
        <time>2023-07-30T14:05:21.000Z</time>
      </trkpt>
      <trkpt lat="43.72463" lon="1.46473">
        <ele>178.060174</ele>
        <time>2023-07-30T14:05:21.000Z</time>
      </trkpt>
      <trkpt lat="43.72461" lon="1.46466">
        <ele>178.144204</ele>
        <time>2023-07-30T14:05:22.000Z</time>
      </trkpt>
      <trkpt lat="43.72461" lon="1.46466">
        <ele>178.144204</ele>
        <time>2023-07-30T14:05:22.000Z</time>
      </trkpt>
      <trkpt lat="43.7246" lon="1.46458">
        <ele>178.22227</ele>
        <time>2023-07-30T14:05:24.000Z</time>
      </trkpt>
      <trkpt lat="43.7246" lon="1.46458">
        <ele>178.22227</ele>
        <time>2023-07-30T14:05:24.000Z</time>
      </trkpt>
      <trkpt lat="43.7246" lon="1.4645">
        <ele>178.313802</ele>
        <time>2023-07-30T14:05:24.000Z</time>
      </trkpt>
      <trkpt lat="43.72459" lon="1.46441">
        <ele>178.405912</ele>
        <time>2023-07-30T14:05:26.000Z</time>
      </trkpt>
      <trkpt lat="43.72459" lon="1.46441">
        <ele>178.405912</ele>
        <time>2023-07-30T14:05:26.000Z</time>
      </trkpt>
      <trkpt lat="43.72459" lon="1.46433">
        <ele>178.495299</ele>
        <time>2023-07-30T14:05:27.000Z</time>
      </trkpt>
      <trkpt lat="43.72459" lon="1.46426">
        <ele>178.568369</ele>
        <time>2023-07-30T14:05:27.000Z</time>
      </trkpt>
      <trkpt lat="43.72459" lon="1.46426">
        <ele>178.568369</ele>
        <time>2023-07-30T14:05:27.000Z</time>
      </trkpt>
      <trkpt lat="43.72459" lon="1.4642">
        <ele>178.633918</ele>
        <time>2023-07-30T14:05:28.000Z</time>
      </trkpt>
      <trkpt lat="43.72459" lon="1.4642">
        <ele>178.633918</ele>
        <time>2023-07-30T14:05:28.000Z</time>
      </trkpt>
      <trkpt lat="43.72459" lon="1.46416">
        <ele>178.719347</ele>
        <time>2023-07-30T14:05:29.000Z</time>
      </trkpt>
      <trkpt lat="43.72458" lon="1.46409">
        <ele>178.870506</ele>
        <time>2023-07-30T14:05:31.000Z</time>
      </trkpt>
      <trkpt lat="43.72457" lon="1.46401">
        <ele>179.069948</ele>
        <time>2023-07-30T14:05:33.000Z</time>
      </trkpt>
      <trkpt lat="43.72457" lon="1.46396">
        <ele>179.183371</ele>
        <time>2023-07-30T14:05:34.000Z</time>
      </trkpt>
      <trkpt lat="43.72456" lon="1.46391">
        <ele>179.29648</ele>
        <time>2023-07-30T14:05:35.000Z</time>
      </trkpt>
      <trkpt lat="43.72456" lon="1.46391">
        <ele>179.29648</ele>
        <time>2023-07-30T14:05:35.000Z</time>
      </trkpt>
      <trkpt lat="43.72456" lon="1.46384">
        <ele>179.443688</ele>
        <time>2023-07-30T14:05:37.000Z</time>
      </trkpt>
      <trkpt lat="43.72456" lon="1.46384">
        <ele>179.443688</ele>
        <time>2023-07-30T14:05:37.000Z</time>
      </trkpt>
      <trkpt lat="43.72456" lon="1.46378">
        <ele>179.584572</ele>
        <time>2023-07-30T14:05:37.000Z</time>
      </trkpt>
      <trkpt lat="43.72456" lon="1.46378">
        <ele>179.584572</ele>
        <time>2023-07-30T14:05:37.000Z</time>
      </trkpt>
      <trkpt lat="43.72456" lon="1.4637">
        <ele>179.782382</ele>
        <time>2023-07-30T14:05:39.000Z</time>
      </trkpt>
      <trkpt lat="43.72456" lon="1.4637">
        <ele>179.782382</ele>
        <time>2023-07-30T14:05:39.000Z</time>
      </trkpt>
      <trkpt lat="43.72456" lon="1.46365">
        <ele>179.902664</ele>
        <time>2023-07-30T14:05:41.000Z</time>
      </trkpt>
      <trkpt lat="43.72456" lon="1.46365">
        <ele>179.902664</ele>
        <time>2023-07-30T14:05:41.000Z</time>
      </trkpt>
      <trkpt lat="43.72455" lon="1.46359">
        <ele>180.020659</ele>
        <time>2023-07-30T14:05:43.000Z</time>
      </trkpt>
      <trkpt lat="43.72455" lon="1.46359">
        <ele>180.020659</ele>
        <time>2023-07-30T14:05:43.000Z</time>
      </trkpt>
      <trkpt lat="43.72454" lon="1.46354">
        <ele>180.156474</ele>
        <time>2023-07-30T14:05:43.000Z</time>
      </trkpt>
      <trkpt lat="43.72454" lon="1.46354">
        <ele>180.156474</ele>
        <time>2023-07-30T14:05:43.000Z</time>
      </trkpt>
      <trkpt lat="43.72453" lon="1.46347">
        <ele>180.312267</ele>
        <time>2023-07-30T14:05:44.000Z</time>
      </trkpt>
      <trkpt lat="43.72453" lon="1.46347">
        <ele>180.312267</ele>
        <time>2023-07-30T14:05:44.000Z</time>
      </trkpt>
      <trkpt lat="43.72453" lon="1.46342">
        <ele>180.432305</ele>
        <time>2023-07-30T14:05:45.000Z</time>
      </trkpt>
      <trkpt lat="43.72453" lon="1.46342">
        <ele>180.432305</ele>
        <time>2023-07-30T14:05:45.000Z</time>
      </trkpt>
      <trkpt lat="43.72451" lon="1.46336">
        <ele>180.563567</ele>
        <time>2023-07-30T14:05:47.000Z</time>
      </trkpt>
      <trkpt lat="43.72451" lon="1.46336">
        <ele>180.563567</ele>
        <time>2023-07-30T14:05:47.000Z</time>
      </trkpt>
      <trkpt lat="43.7245" lon="1.46332">
        <ele>180.666321</ele>
        <time>2023-07-30T14:05:48.000Z</time>
      </trkpt>
      <trkpt lat="43.72451" lon="1.46333">
        <ele>180.693809</ele>
        <time>2023-07-30T14:05:49.000Z</time>
      </trkpt>
      <trkpt lat="43.72451" lon="1.46333">
        <ele>180.693809</ele>
        <time>2023-07-30T14:05:49.000Z</time>
      </trkpt>
      <trkpt lat="43.72445" lon="1.4632">
        <ele>181.037677</ele>
        <time>2023-07-30T14:05:51.000Z</time>
      </trkpt>
      <trkpt lat="43.72445" lon="1.4632">
        <ele>181.037677</ele>
        <time>2023-07-30T14:05:51.000Z</time>
      </trkpt>
      <trkpt lat="43.72445" lon="1.4632">
        <ele>181.037677</ele>
        <time>2023-07-30T14:05:52.000Z</time>
      </trkpt>
      <trkpt lat="43.72439" lon="1.46305">
        <ele>181.453859</ele>
        <time>2023-07-30T14:05:53.000Z</time>
      </trkpt>
      <trkpt lat="43.72439" lon="1.46305">
        <ele>181.453859</ele>
        <time>2023-07-30T14:05:53.000Z</time>
      </trkpt>
      <trkpt lat="43.72435" lon="1.46294">
        <ele>181.71014</ele>
        <time>2023-07-30T14:05:54.000Z</time>
      </trkpt>
      <trkpt lat="43.72432" lon="1.46286">
        <ele>181.937162</ele>
        <time>2023-07-30T14:05:54.000Z</time>
      </trkpt>
      <trkpt lat="43.72432" lon="1.46286">
        <ele>181.937162</ele>
        <time>2023-07-30T14:05:54.000Z</time>
      </trkpt>
      <trkpt lat="43.7243" lon="1.46277">
        <ele>182.151342</ele>
        <time>2023-07-30T14:05:56.000Z</time>
      </trkpt>
      <trkpt lat="43.7243" lon="1.46277">
        <ele>182.151342</ele>
        <time>2023-07-30T14:05:56.000Z</time>
      </trkpt>
      <trkpt lat="43.72427" lon="1.46263">
        <ele>182.489077</ele>
        <time>2023-07-30T14:05:58.000Z</time>
      </trkpt>
      <trkpt lat="43.72427" lon="1.46263">
        <ele>182.489077</ele>
        <time>2023-07-30T14:05:58.000Z</time>
      </trkpt>
      <trkpt lat="43.72426" lon="1.46254">
        <ele>182.692801</ele>
        <time>2023-07-30T14:05:59.000Z</time>
      </trkpt>
      <trkpt lat="43.72426" lon="1.46254">
        <ele>182.692801</ele>
        <time>2023-07-30T14:05:59.000Z</time>
      </trkpt>
      <trkpt lat="43.72425" lon="1.46247">
        <ele>182.85308</ele>
        <time>2023-07-30T14:05:59.000Z</time>
      </trkpt>
      <trkpt lat="43.72425" lon="1.46247">
        <ele>182.85308</ele>
        <time>2023-07-30T14:05:59.000Z</time>
      </trkpt>
      <trkpt lat="43.72424" lon="1.46241">
        <ele>182.993418</ele>
        <time>2023-07-30T14:06:01.000Z</time>
      </trkpt>
      <trkpt lat="43.72424" lon="1.46241">
        <ele>182.993418</ele>
        <time>2023-07-30T14:06:01.000Z</time>
      </trkpt>
      <trkpt lat="43.72423" lon="1.46235">
        <ele>183.142303</ele>
        <time>2023-07-30T14:06:02.000Z</time>
      </trkpt>
      <trkpt lat="43.72423" lon="1.46235">
        <ele>183.142303</ele>
        <time>2023-07-30T14:06:02.000Z</time>
      </trkpt>
      <trkpt lat="43.72423" lon="1.4623">
        <ele>183.252709</ele>
        <time>2023-07-30T14:06:03.000Z</time>
      </trkpt>
      <trkpt lat="43.72423" lon="1.4623">
        <ele>183.252709</ele>
        <time>2023-07-30T14:06:03.000Z</time>
      </trkpt>
      <trkpt lat="43.72423" lon="1.46226">
        <ele>183.349315</ele>
        <time>2023-07-30T14:06:04.000Z</time>
      </trkpt>
      <trkpt lat="43.72423" lon="1.46226">
        <ele>183.349315</ele>
        <time>2023-07-30T14:06:04.000Z</time>
      </trkpt>
      <trkpt lat="43.72423" lon="1.46222">
        <ele>183.432119</ele>
        <time>2023-07-30T14:06:06.000Z</time>
      </trkpt>
      <trkpt lat="43.72423" lon="1.46222">
        <ele>183.432119</ele>
        <time>2023-07-30T14:06:06.000Z</time>
      </trkpt>
      <trkpt lat="43.72424" lon="1.46219">
        <ele>183.520447</ele>
        <time>2023-07-30T14:06:07.000Z</time>
      </trkpt>
      <trkpt lat="43.72424" lon="1.46219">
        <ele>183.520447</ele>
        <time>2023-07-30T14:06:07.000Z</time>
      </trkpt>
      <trkpt lat="43.72424" lon="1.46216">
        <ele>183.57364</ele>
        <time>2023-07-30T14:06:09.000Z</time>
      </trkpt>
      <trkpt lat="43.72424" lon="1.46216">
        <ele>183.57364</ele>
        <time>2023-07-30T14:06:09.000Z</time>
      </trkpt>
      <trkpt lat="43.72425" lon="1.46217">
        <ele>183.592416</ele>
        <time>2023-07-30T14:06:09.000Z</time>
      </trkpt>
      <trkpt lat="43.72425" lon="1.46217">
        <ele>183.592416</ele>
        <time>2023-07-30T14:06:09.000Z</time>
      </trkpt>
      <trkpt lat="43.72425" lon="1.46218">
        <ele>183.622813</ele>
        <time>2023-07-30T14:06:10.000Z</time>
      </trkpt>
      <trkpt lat="43.72425" lon="1.46218">
        <ele>183.622813</ele>
        <time>2023-07-30T14:06:10.000Z</time>
      </trkpt>
      <trkpt lat="43.72426" lon="1.46218">
        <ele>183.645562</ele>
        <time>2023-07-30T14:06:12.000Z</time>
      </trkpt>
      <trkpt lat="43.72426" lon="1.46218">
        <ele>183.645562</ele>
        <time>2023-07-30T14:06:12.000Z</time>
      </trkpt>
      <trkpt lat="43.7243" lon="1.46223">
        <ele>183.808667</ele>
        <time>2023-07-30T14:06:14.000Z</time>
      </trkpt>
      <trkpt lat="43.7243" lon="1.46223">
        <ele>183.808667</ele>
        <time>2023-07-30T14:06:14.000Z</time>
      </trkpt>
      <trkpt lat="43.72432" lon="1.46227">
        <ele>183.927372</ele>
        <time>2023-07-30T14:06:15.000Z</time>
      </trkpt>
      <trkpt lat="43.72432" lon="1.46227">
        <ele>183.927372</ele>
        <time>2023-07-30T14:06:15.000Z</time>
      </trkpt>
      <trkpt lat="43.72436" lon="1.46232">
        <ele>184.094216</ele>
        <time>2023-07-30T14:06:17.000Z</time>
      </trkpt>
      <trkpt lat="43.72436" lon="1.46232">
        <ele>184.094216</ele>
        <time>2023-07-30T14:06:17.000Z</time>
      </trkpt>
      <trkpt lat="43.72438" lon="1.46237">
        <ele>184.22854</ele>
        <time>2023-07-30T14:06:17.000Z</time>
      </trkpt>
      <trkpt lat="43.72438" lon="1.46237">
        <ele>184.22854</ele>
        <time>2023-07-30T14:06:17.000Z</time>
      </trkpt>
      <trkpt lat="43.72441" lon="1.46241">
        <ele>184.351589</ele>
        <time>2023-07-30T14:06:18.000Z</time>
      </trkpt>
      <trkpt lat="43.72444" lon="1.46246">
        <ele>184.445818</ele>
        <time>2023-07-30T14:06:20.000Z</time>
      </trkpt>
      <trkpt lat="43.72444" lon="1.46246">
        <ele>184.445818</ele>
        <time>2023-07-30T14:06:20.000Z</time>
      </trkpt>
      <trkpt lat="43.72446" lon="1.46251">
        <ele>184.522269</ele>
        <time>2023-07-30T14:06:21.000Z</time>
      </trkpt>
      <trkpt lat="43.72446" lon="1.46251">
        <ele>184.522269</ele>
        <time>2023-07-30T14:06:21.000Z</time>
      </trkpt>
      <trkpt lat="43.72449" lon="1.46256">
        <ele>184.592814</ele>
        <time>2023-07-30T14:06:23.000Z</time>
      </trkpt>
      <trkpt lat="43.72449" lon="1.46256">
        <ele>184.592814</ele>
        <time>2023-07-30T14:06:23.000Z</time>
      </trkpt>
      <trkpt lat="43.72451" lon="1.4626">
        <ele>184.647419</ele>
        <time>2023-07-30T14:06:23.000Z</time>
      </trkpt>
      <trkpt lat="43.72451" lon="1.4626">
        <ele>184.647419</ele>
        <time>2023-07-30T14:06:23.000Z</time>
      </trkpt>
      <trkpt lat="43.72454" lon="1.46269">
        <ele>184.780422</ele>
        <time>2023-07-30T14:06:26.000Z</time>
      </trkpt>
      <trkpt lat="43.72454" lon="1.46269">
        <ele>184.780422</ele>
        <time>2023-07-30T14:06:26.000Z</time>
      </trkpt>
      <trkpt lat="43.72456" lon="1.46272">
        <ele>184.822422</ele>
        <time>2023-07-30T14:06:27.000Z</time>
      </trkpt>
      <trkpt lat="43.72458" lon="1.46278">
        <ele>184.893796</ele>
        <time>2023-07-30T14:06:28.000Z</time>
      </trkpt>
      <trkpt lat="43.72458" lon="1.46278">
        <ele>184.893796</ele>
        <time>2023-07-30T14:06:28.000Z</time>
      </trkpt>
      <trkpt lat="43.72459" lon="1.46282">
        <ele>184.948997</ele>
        <time>2023-07-30T14:06:29.000Z</time>
      </trkpt>
      <trkpt lat="43.72461" lon="1.46285">
        <ele>185.001812</ele>
        <time>2023-07-30T14:06:30.000Z</time>
      </trkpt>
      <trkpt lat="43.72462" lon="1.4629">
        <ele>185.06587</ele>
        <time>2023-07-30T14:06:31.000Z</time>
      </trkpt>
      <trkpt lat="43.72462" lon="1.4629">
        <ele>185.06587</ele>
        <time>2023-07-30T14:06:31.000Z</time>
      </trkpt>
      <trkpt lat="43.72464" lon="1.46296">
        <ele>185.143873</ele>
        <time>2023-07-30T14:06:32.000Z</time>
      </trkpt>
      <trkpt lat="43.72466" lon="1.46301">
        <ele>185.216342</ele>
        <time>2023-07-30T14:06:34.000Z</time>
      </trkpt>
      <trkpt lat="43.72468" lon="1.46306">
        <ele>185.28338</ele>
        <time>2023-07-30T14:06:35.000Z</time>
      </trkpt>
      <trkpt lat="43.72468" lon="1.46306">
        <ele>185.28338</ele>
        <time>2023-07-30T14:06:35.000Z</time>
      </trkpt>
      <trkpt lat="43.72472" lon="1.46316">
        <ele>185.426115</ele>
        <time>2023-07-30T14:06:36.000Z</time>
      </trkpt>
      <trkpt lat="43.72474" lon="1.46321">
        <ele>185.493629</ele>
        <time>2023-07-30T14:06:37.000Z</time>
      </trkpt>
      <trkpt lat="43.72477" lon="1.46325">
        <ele>185.556242</ele>
        <time>2023-07-30T14:06:39.000Z</time>
      </trkpt>
      <trkpt lat="43.7248" lon="1.46329">
        <ele>185.633054</ele>
        <time>2023-07-30T14:06:40.000Z</time>
      </trkpt>
      <trkpt lat="43.72487" lon="1.4634">
        <ele>185.805988</ele>
        <time>2023-07-30T14:06:41.000Z</time>
      </trkpt>
      <trkpt lat="43.72488" lon="1.46343">
        <ele>185.860592</ele>
        <time>2023-07-30T14:06:42.000Z</time>
      </trkpt>
      <trkpt lat="43.7249" lon="1.46346">
        <ele>185.901344</ele>
        <time>2023-07-30T14:06:43.000Z</time>
      </trkpt>
      <trkpt lat="43.7249" lon="1.46346">
        <ele>185.901344</ele>
        <time>2023-07-30T14:06:43.000Z</time>
      </trkpt>
      <trkpt lat="43.72492" lon="1.46351">
        <ele>185.968325</ele>
        <time>2023-07-30T14:06:45.000Z</time>
      </trkpt>
      <trkpt lat="43.72493" lon="1.46355">
        <ele>186.026513</ele>
        <time>2023-07-30T14:06:45.000Z</time>
      </trkpt>
      <trkpt lat="43.72494" lon="1.46361">
        <ele>186.094057</ele>
        <time>2023-07-30T14:06:47.000Z</time>
      </trkpt>
      <trkpt lat="43.72494" lon="1.46361">
        <ele>186.094057</ele>
        <time>2023-07-30T14:06:47.000Z</time>
      </trkpt>
      <trkpt lat="43.72495" lon="1.46366">
        <ele>186.166779</ele>
        <time>2023-07-30T14:06:48.000Z</time>
      </trkpt>
      <trkpt lat="43.72496" lon="1.46376">
        <ele>186.291235</ele>
        <time>2023-07-30T14:06:50.000Z</time>
      </trkpt>
      <trkpt lat="43.72496" lon="1.46381">
        <ele>186.351216</ele>
        <time>2023-07-30T14:06:52.000Z</time>
      </trkpt>
      <trkpt lat="43.72497" lon="1.46387">
        <ele>186.42234</ele>
        <time>2023-07-30T14:06:53.000Z</time>
      </trkpt>
      <trkpt lat="43.72498" lon="1.46392">
        <ele>186.488335</ele>
        <time>2023-07-30T14:06:54.000Z</time>
      </trkpt>
      <trkpt lat="43.72498" lon="1.46396">
        <ele>186.535372</ele>
        <time>2023-07-30T14:06:55.000Z</time>
      </trkpt>
      <trkpt lat="43.725" lon="1.46408">
        <ele>186.686188</ele>
        <time>2023-07-30T14:06:57.000Z</time>
      </trkpt>
      <trkpt lat="43.725" lon="1.46416">
        <ele>186.78368</ele>
        <time>2023-07-30T14:06:58.000Z</time>
      </trkpt>
      <trkpt lat="43.725" lon="1.46416">
        <ele>186.78368</ele>
        <time>2023-07-30T14:06:58.000Z</time>
      </trkpt>
      <trkpt lat="43.72501" lon="1.46422">
        <ele>186.852881</ele>
        <time>2023-07-30T14:06:59.000Z</time>
      </trkpt>
      <trkpt lat="43.72501" lon="1.46422">
        <ele>186.852881</ele>
        <time>2023-07-30T14:06:59.000Z</time>
      </trkpt>
      <trkpt lat="43.72503" lon="1.4643">
        <ele>186.952631</ele>
        <time>2023-07-30T14:07:00.000Z</time>
      </trkpt>
      <trkpt lat="43.72503" lon="1.4644">
        <ele>187.085614</ele>
        <time>2023-07-30T14:07:02.000Z</time>
      </trkpt>
      <trkpt lat="43.72503" lon="1.46446">
        <ele>187.156658</ele>
        <time>2023-07-30T14:07:04.000Z</time>
      </trkpt>
      <trkpt lat="43.72503" lon="1.46454">
        <ele>187.250975</ele>
        <time>2023-07-30T14:07:05.000Z</time>
      </trkpt>
      <trkpt lat="43.72503" lon="1.4646">
        <ele>187.329326</ele>
        <time>2023-07-30T14:07:06.000Z</time>
      </trkpt>
      <trkpt lat="43.72502" lon="1.46468">
        <ele>187.4218</ele>
        <time>2023-07-30T14:07:07.000Z</time>
      </trkpt>
      <trkpt lat="43.72502" lon="1.46468">
        <ele>187.4218</ele>
        <time>2023-07-30T14:07:07.000Z</time>
      </trkpt>
      <trkpt lat="43.725" lon="1.46481">
        <ele>187.376889</ele>
        <time>2023-07-30T14:07:09.000Z</time>
      </trkpt>
      <trkpt lat="43.725" lon="1.46481">
        <ele>187.376889</ele>
        <time>2023-07-30T14:07:09.000Z</time>
      </trkpt>
      <trkpt lat="43.725" lon="1.46488">
        <ele>187.35316</ele>
        <time>2023-07-30T14:07:11.000Z</time>
      </trkpt>
      <trkpt lat="43.72499" lon="1.46495">
        <ele>187.329586</ele>
        <time>2023-07-30T14:07:12.000Z</time>
      </trkpt>
      <trkpt lat="43.72499" lon="1.46508">
        <ele>187.284252</ele>
        <time>2023-07-30T14:07:14.000Z</time>
      </trkpt>
      <trkpt lat="43.72499" lon="1.46508">
        <ele>187.284252</ele>
        <time>2023-07-30T14:07:14.000Z</time>
      </trkpt>
      <trkpt lat="43.725" lon="1.46518">
        <ele>187.250665</ele>
        <time>2023-07-30T14:07:16.000Z</time>
      </trkpt>
      <trkpt lat="43.725" lon="1.46518">
        <ele>187.250665</ele>
        <time>2023-07-30T14:07:16.000Z</time>
      </trkpt>
      <trkpt lat="43.72501" lon="1.46524">
        <ele>187.230006</ele>
        <time>2023-07-30T14:07:17.000Z</time>
      </trkpt>
      <trkpt lat="43.72504" lon="1.4653">
        <ele>187.20374</ele>
        <time>2023-07-30T14:07:18.000Z</time>
      </trkpt>
      <trkpt lat="43.72507" lon="1.46535">
        <ele>187.183292</ele>
        <time>2023-07-30T14:07:19.000Z</time>
      </trkpt>
      <trkpt lat="43.72507" lon="1.46535">
        <ele>187.183292</ele>
        <time>2023-07-30T14:07:19.000Z</time>
      </trkpt>
      <trkpt lat="43.72507" lon="1.46536">
        <ele>187.177847</ele>
        <time>2023-07-30T14:07:20.000Z</time>
      </trkpt>
      <trkpt lat="43.72512" lon="1.46541">
        <ele>187.149065</ele>
        <time>2023-07-30T14:07:21.000Z</time>
      </trkpt>
      <trkpt lat="43.72532" lon="1.46549">
        <ele>187.054721</ele>
        <time>2023-07-30T14:07:23.000Z</time>
      </trkpt>
      <trkpt lat="43.72536" lon="1.46551">
        <ele>187.034191</ele>
        <time>2023-07-30T14:07:24.000Z</time>
      </trkpt>
      <trkpt lat="43.7254" lon="1.46552">
        <ele>187.011995</ele>
        <time>2023-07-30T14:07:25.000Z</time>
      </trkpt>
      <trkpt lat="43.72546" lon="1.46553">
        <ele>186.984825</ele>
        <time>2023-07-30T14:07:26.000Z</time>
      </trkpt>
      <trkpt lat="43.72546" lon="1.46553">
        <ele>186.984825</ele>
        <time>2023-07-30T14:07:26.000Z</time>
      </trkpt>
      <trkpt lat="43.72554" lon="1.46555">
        <ele>186.946573</ele>
        <time>2023-07-30T14:07:27.000Z</time>
      </trkpt>
      <trkpt lat="43.7256" lon="1.46557">
        <ele>186.917376</ele>
        <time>2023-07-30T14:07:28.000Z</time>
      </trkpt>
      <trkpt lat="43.72566" lon="1.46557">
        <ele>186.890436</ele>
        <time>2023-07-30T14:07:29.000Z</time>
      </trkpt>
      <trkpt lat="43.72569" lon="1.46558">
        <ele>186.873855</ele>
        <time>2023-07-30T14:07:30.000Z</time>
      </trkpt>
      <trkpt lat="43.72569" lon="1.46558">
        <ele>186.873855</ele>
        <time>2023-07-30T14:07:30.000Z</time>
      </trkpt>
      <trkpt lat="43.72573" lon="1.46558">
        <ele>186.855944</ele>
        <time>2023-07-30T14:07:31.000Z</time>
      </trkpt>
      <trkpt lat="43.72585" lon="1.4656">
        <ele>186.801747</ele>
        <time>2023-07-30T14:07:33.000Z</time>
      </trkpt>
      <trkpt lat="43.72585" lon="1.4656">
        <ele>186.801747</ele>
        <time>2023-07-30T14:07:33.000Z</time>
      </trkpt>
      <trkpt lat="43.72589" lon="1.4656">
        <ele>186.781849</ele>
        <time>2023-07-30T14:07:34.000Z</time>
      </trkpt>
      <trkpt lat="43.72597" lon="1.46562">
        <ele>186.743538</ele>
        <time>2023-07-30T14:07:36.000Z</time>
      </trkpt>
      <trkpt lat="43.72597" lon="1.46562">
        <ele>186.743538</ele>
        <time>2023-07-30T14:07:36.000Z</time>
      </trkpt>
      <trkpt lat="43.72599" lon="1.46564">
        <ele>186.729696</ele>
        <time>2023-07-30T14:07:37.000Z</time>
      </trkpt>
      <trkpt lat="43.72599" lon="1.46564">
        <ele>186.729696</ele>
        <time>2023-07-30T14:07:37.000Z</time>
      </trkpt>
      <trkpt lat="43.72602" lon="1.46564">
        <ele>186.718852</ele>
        <time>2023-07-30T14:07:38.000Z</time>
      </trkpt>
      <trkpt lat="43.72602" lon="1.46564">
        <ele>186.718852</ele>
        <time>2023-07-30T14:07:38.000Z</time>
      </trkpt>
      <trkpt lat="43.72604" lon="1.46564">
        <ele>186.707965</ele>
        <time>2023-07-30T14:07:39.000Z</time>
      </trkpt>
      <trkpt lat="43.72606" lon="1.46563">
        <ele>186.698699</ele>
        <time>2023-07-30T14:07:40.000Z</time>
      </trkpt>
      <trkpt lat="43.72608" lon="1.46561">
        <ele>186.685713</ele>
        <time>2023-07-30T14:07:42.000Z</time>
      </trkpt>
      <trkpt lat="43.7261" lon="1.4656">
        <ele>186.678442</ele>
        <time>2023-07-30T14:07:43.000Z</time>
      </trkpt>
      <trkpt lat="43.7261" lon="1.4656">
        <ele>186.678442</ele>
        <time>2023-07-30T14:07:43.000Z</time>
      </trkpt>
      <trkpt lat="43.72612" lon="1.46557">
        <ele>186.662829</ele>
        <time>2023-07-30T14:07:44.000Z</time>
      </trkpt>
      <trkpt lat="43.72612" lon="1.46557">
        <ele>186.662829</ele>
        <time>2023-07-30T14:07:44.000Z</time>
      </trkpt>
      <trkpt lat="43.72614" lon="1.46555">
        <ele>186.649652</ele>
        <time>2023-07-30T14:07:45.000Z</time>
      </trkpt>
      <trkpt lat="43.72616" lon="1.46553">
        <ele>186.638193</ele>
        <time>2023-07-30T14:07:46.000Z</time>
      </trkpt>
      <trkpt lat="43.72616" lon="1.46553">
        <ele>186.638193</ele>
        <time>2023-07-30T14:07:46.000Z</time>
      </trkpt>
      <trkpt lat="43.72619" lon="1.4655">
        <ele>186.622883</ele>
        <time>2023-07-30T14:07:47.000Z</time>
      </trkpt>
      <trkpt lat="43.72623" lon="1.46547">
        <ele>186.600451</ele>
        <time>2023-07-30T14:07:48.000Z</time>
      </trkpt>
      <trkpt lat="43.72623" lon="1.46547">
        <ele>186.600451</ele>
        <time>2023-07-30T14:07:48.000Z</time>
      </trkpt>
      <trkpt lat="43.72628" lon="1.46542">
        <ele>186.529955</ele>
        <time>2023-07-30T14:07:50.000Z</time>
      </trkpt>
      <trkpt lat="43.72628" lon="1.46542">
        <ele>186.529955</ele>
        <time>2023-07-30T14:07:50.000Z</time>
      </trkpt>
      <trkpt lat="43.72632" lon="1.46537">
        <ele>186.331029</ele>
        <time>2023-07-30T14:07:51.000Z</time>
      </trkpt>
      <trkpt lat="43.72637" lon="1.46533">
        <ele>186.114362</ele>
        <time>2023-07-30T14:07:53.000Z</time>
      </trkpt>
      <trkpt lat="43.72641" lon="1.46528">
        <ele>185.917304</ele>
        <time>2023-07-30T14:07:54.000Z</time>
      </trkpt>
      <trkpt lat="43.72644" lon="1.46525">
        <ele>185.75378</ele>
        <time>2023-07-30T14:07:55.000Z</time>
      </trkpt>
      <trkpt lat="43.72649" lon="1.46518">
        <ele>185.47923</ele>
        <time>2023-07-30T14:07:57.000Z</time>
      </trkpt>
      <trkpt lat="43.72652" lon="1.46513">
        <ele>185.307664</ele>
        <time>2023-07-30T14:07:59.000Z</time>
      </trkpt>
      <trkpt lat="43.72654" lon="1.4651">
        <ele>185.173711</ele>
        <time>2023-07-30T14:08:00.000Z</time>
      </trkpt>
      <trkpt lat="43.72655" lon="1.46509">
        <ele>185.127661</ele>
        <time>2023-07-30T14:08:01.000Z</time>
      </trkpt>
      <trkpt lat="43.72655" lon="1.46509">
        <ele>185.127661</ele>
        <time>2023-07-30T14:08:01.000Z</time>
      </trkpt>
      <trkpt lat="43.72657" lon="1.46507">
        <ele>185.030966</ele>
        <time>2023-07-30T14:08:02.000Z</time>
      </trkpt>
      <trkpt lat="43.72657" lon="1.46506">
        <ele>185.003527</ele>
        <time>2023-07-30T14:08:03.000Z</time>
      </trkpt>
      <trkpt lat="43.7266" lon="1.46505">
        <ele>184.891948</ele>
        <time>2023-07-30T14:08:03.000Z</time>
      </trkpt>
      <trkpt lat="43.7266" lon="1.46505">
        <ele>184.891948</ele>
        <time>2023-07-30T14:08:03.000Z</time>
      </trkpt>
      <trkpt lat="43.72662" lon="1.46502">
        <ele>184.764648</ele>
        <time>2023-07-30T14:08:05.000Z</time>
      </trkpt>
      <trkpt lat="43.72662" lon="1.46502">
        <ele>184.764648</ele>
        <time>2023-07-30T14:08:05.000Z</time>
      </trkpt>
      <trkpt lat="43.72665" lon="1.46497">
        <ele>184.620612</ele>
        <time>2023-07-30T14:08:06.000Z</time>
      </trkpt>
      <trkpt lat="43.72667" lon="1.46493">
        <ele>184.458168</ele>
        <time>2023-07-30T14:08:07.000Z</time>
      </trkpt>
      <trkpt lat="43.7267" lon="1.46488">
        <ele>184.270201</ele>
        <time>2023-07-30T14:08:09.000Z</time>
      </trkpt>
      <trkpt lat="43.7267" lon="1.46488">
        <ele>184.270201</ele>
        <time>2023-07-30T14:08:09.000Z</time>
      </trkpt>
      <trkpt lat="43.72673" lon="1.46484">
        <ele>184.111461</ele>
        <time>2023-07-30T14:08:10.000Z</time>
      </trkpt>
      <trkpt lat="43.72673" lon="1.46484">
        <ele>184.111461</ele>
        <time>2023-07-30T14:08:10.000Z</time>
      </trkpt>
      <trkpt lat="43.72676" lon="1.4648">
        <ele>183.970859</ele>
        <time>2023-07-30T14:08:11.000Z</time>
      </trkpt>
      <trkpt lat="43.72676" lon="1.4648">
        <ele>183.970859</ele>
        <time>2023-07-30T14:08:11.000Z</time>
      </trkpt>
      <trkpt lat="43.72683" lon="1.46474">
        <ele>183.649752</ele>
        <time>2023-07-30T14:08:13.000Z</time>
      </trkpt>
      <trkpt lat="43.72683" lon="1.46474">
        <ele>183.649752</ele>
        <time>2023-07-30T14:08:13.000Z</time>
      </trkpt>
      <trkpt lat="43.72688" lon="1.46471">
        <ele>183.435806</ele>
        <time>2023-07-30T14:08:14.000Z</time>
      </trkpt>
      <trkpt lat="43.72688" lon="1.46471">
        <ele>183.435806</ele>
        <time>2023-07-30T14:08:14.000Z</time>
      </trkpt>
      <trkpt lat="43.72691" lon="1.46469">
        <ele>183.276099</ele>
        <time>2023-07-30T14:08:15.000Z</time>
      </trkpt>
      <trkpt lat="43.72691" lon="1.46469">
        <ele>183.276099</ele>
        <time>2023-07-30T14:08:15.000Z</time>
      </trkpt>
      <trkpt lat="43.72696" lon="1.46466">
        <ele>183.065572</ele>
        <time>2023-07-30T14:08:16.000Z</time>
      </trkpt>
      <trkpt lat="43.72696" lon="1.46466">
        <ele>183.065572</ele>
        <time>2023-07-30T14:08:16.000Z</time>
      </trkpt>
      <trkpt lat="43.72701" lon="1.46463">
        <ele>182.852864</ele>
        <time>2023-07-30T14:08:18.000Z</time>
      </trkpt>
      <trkpt lat="43.72701" lon="1.46463">
        <ele>182.852864</ele>
        <time>2023-07-30T14:08:18.000Z</time>
      </trkpt>
      <trkpt lat="43.72713" lon="1.46454">
        <ele>182.33101</ele>
        <time>2023-07-30T14:08:19.000Z</time>
      </trkpt>
      <trkpt lat="43.72713" lon="1.46454">
        <ele>182.33101</ele>
        <time>2023-07-30T14:08:19.000Z</time>
      </trkpt>
      <trkpt lat="43.72717" lon="1.4645">
        <ele>182.130397</ele>
        <time>2023-07-30T14:08:20.000Z</time>
      </trkpt>
      <trkpt lat="43.72717" lon="1.4645">
        <ele>182.130397</ele>
        <time>2023-07-30T14:08:20.000Z</time>
      </trkpt>
      <trkpt lat="43.72723" lon="1.46442">
        <ele>181.811508</ele>
        <time>2023-07-30T14:08:22.000Z</time>
      </trkpt>
      <trkpt lat="43.72723" lon="1.46442">
        <ele>181.811508</ele>
        <time>2023-07-30T14:08:22.000Z</time>
      </trkpt>
      <trkpt lat="43.72725" lon="1.46437">
        <ele>181.653589</ele>
        <time>2023-07-30T14:08:23.000Z</time>
      </trkpt>
      <trkpt lat="43.72725" lon="1.46437">
        <ele>181.653589</ele>
        <time>2023-07-30T14:08:23.000Z</time>
      </trkpt>
      <trkpt lat="43.72726" lon="1.46431">
        <ele>181.479097</ele>
        <time>2023-07-30T14:08:25.000Z</time>
      </trkpt>
      <trkpt lat="43.72726" lon="1.46431">
        <ele>181.479097</ele>
        <time>2023-07-30T14:08:25.000Z</time>
      </trkpt>
      <trkpt lat="43.72728" lon="1.46426">
        <ele>181.312227</ele>
        <time>2023-07-30T14:08:26.000Z</time>
      </trkpt>
      <trkpt lat="43.72728" lon="1.46426">
        <ele>181.312227</ele>
        <time>2023-07-30T14:08:26.000Z</time>
      </trkpt>
      <trkpt lat="43.72731" lon="1.46416">
        <ele>181.005841</ele>
        <time>2023-07-30T14:08:27.000Z</time>
      </trkpt>
      <trkpt lat="43.72731" lon="1.46416">
        <ele>181.005841</ele>
        <time>2023-07-30T14:08:27.000Z</time>
      </trkpt>
      <trkpt lat="43.72735" lon="1.46406">
        <ele>180.704506</ele>
        <time>2023-07-30T14:08:29.000Z</time>
      </trkpt>
      <trkpt lat="43.72735" lon="1.46406">
        <ele>180.704506</ele>
        <time>2023-07-30T14:08:29.000Z</time>
      </trkpt>
      <trkpt lat="43.72736" lon="1.46401">
        <ele>180.532034</ele>
        <time>2023-07-30T14:08:31.000Z</time>
      </trkpt>
      <trkpt lat="43.72736" lon="1.46401">
        <ele>180.532034</ele>
        <time>2023-07-30T14:08:31.000Z</time>
      </trkpt>
      <trkpt lat="43.72738" lon="1.46394">
        <ele>180.343742</ele>
        <time>2023-07-30T14:08:32.000Z</time>
      </trkpt>
      <trkpt lat="43.72738" lon="1.46394">
        <ele>180.343742</ele>
        <time>2023-07-30T14:08:32.000Z</time>
      </trkpt>
      <trkpt lat="43.72739" lon="1.46389">
        <ele>180.176871</ele>
        <time>2023-07-30T14:08:33.000Z</time>
      </trkpt>
      <trkpt lat="43.72739" lon="1.46389">
        <ele>180.176871</ele>
        <time>2023-07-30T14:08:33.000Z</time>
      </trkpt>
      <trkpt lat="43.7274" lon="1.46386">
        <ele>180.081367</ele>
        <time>2023-07-30T14:08:34.000Z</time>
      </trkpt>
      <trkpt lat="43.7274" lon="1.46386">
        <ele>180.081367</ele>
        <time>2023-07-30T14:08:34.000Z</time>
      </trkpt>
      <trkpt lat="43.72742" lon="1.46381">
        <ele>179.936796</ele>
        <time>2023-07-30T14:08:35.000Z</time>
      </trkpt>
      <trkpt lat="43.72742" lon="1.46381">
        <ele>179.936796</ele>
        <time>2023-07-30T14:08:35.000Z</time>
      </trkpt>
      <trkpt lat="43.72744" lon="1.46378">
        <ele>179.808772</ele>
        <time>2023-07-30T14:08:36.000Z</time>
      </trkpt>
      <trkpt lat="43.72744" lon="1.46378">
        <ele>179.808772</ele>
        <time>2023-07-30T14:08:36.000Z</time>
      </trkpt>
      <trkpt lat="43.72746" lon="1.46375">
        <ele>179.683457</ele>
        <time>2023-07-30T14:08:37.000Z</time>
      </trkpt>
      <trkpt lat="43.72746" lon="1.46375">
        <ele>179.683457</ele>
        <time>2023-07-30T14:08:37.000Z</time>
      </trkpt>
      <trkpt lat="43.72751" lon="1.46368">
        <ele>179.48636</ele>
        <time>2023-07-30T14:08:38.000Z</time>
      </trkpt>
      <trkpt lat="43.72751" lon="1.46368">
        <ele>179.48636</ele>
        <time>2023-07-30T14:08:38.000Z</time>
      </trkpt>
      <trkpt lat="43.7276" lon="1.46356">
        <ele>179.258991</ele>
        <time>2023-07-30T14:08:40.000Z</time>
      </trkpt>
      <trkpt lat="43.7276" lon="1.46356">
        <ele>179.258991</ele>
        <time>2023-07-30T14:08:40.000Z</time>
      </trkpt>
      <trkpt lat="43.72765" lon="1.4635">
        <ele>179.139336</ele>
        <time>2023-07-30T14:08:41.000Z</time>
      </trkpt>
      <trkpt lat="43.72765" lon="1.4635">
        <ele>179.139336</ele>
        <time>2023-07-30T14:08:41.000Z</time>
      </trkpt>
      <trkpt lat="43.72768" lon="1.46346">
        <ele>179.062934</ele>
        <time>2023-07-30T14:08:42.000Z</time>
      </trkpt>
      <trkpt lat="43.72768" lon="1.46346">
        <ele>179.062934</ele>
        <time>2023-07-30T14:08:42.000Z</time>
      </trkpt>
      <trkpt lat="43.72774" lon="1.46337">
        <ele>178.905966</ele>
        <time>2023-07-30T14:08:44.000Z</time>
      </trkpt>
      <trkpt lat="43.72774" lon="1.46337">
        <ele>178.905966</ele>
        <time>2023-07-30T14:08:44.000Z</time>
      </trkpt>
      <trkpt lat="43.72779" lon="1.46329">
        <ele>178.768772</ele>
        <time>2023-07-30T14:08:46.000Z</time>
      </trkpt>
      <trkpt lat="43.72779" lon="1.46329">
        <ele>178.768772</ele>
        <time>2023-07-30T14:08:46.000Z</time>
      </trkpt>
      <trkpt lat="43.72782" lon="1.46323">
        <ele>178.664564</ele>
        <time>2023-07-30T14:08:48.000Z</time>
      </trkpt>
      <trkpt lat="43.72782" lon="1.46323">
        <ele>178.664564</ele>
        <time>2023-07-30T14:08:48.000Z</time>
      </trkpt>
      <trkpt lat="43.72787" lon="1.46311">
        <ele>178.476376</ele>
        <time>2023-07-30T14:08:49.000Z</time>
      </trkpt>
      <trkpt lat="43.72787" lon="1.46311">
        <ele>178.476376</ele>
        <time>2023-07-30T14:08:49.000Z</time>
      </trkpt>
      <trkpt lat="43.72789" lon="1.46305">
        <ele>178.396778</ele>
        <time>2023-07-30T14:08:51.000Z</time>
      </trkpt>
      <trkpt lat="43.72789" lon="1.46305">
        <ele>178.396778</ele>
        <time>2023-07-30T14:08:51.000Z</time>
      </trkpt>
      <trkpt lat="43.7279" lon="1.463">
        <ele>178.322424</ele>
        <time>2023-07-30T14:08:52.000Z</time>
      </trkpt>
      <trkpt lat="43.72791" lon="1.46294">
        <ele>178.247551</ele>
        <time>2023-07-30T14:08:53.000Z</time>
      </trkpt>
      <trkpt lat="43.72792" lon="1.46291">
        <ele>178.19797</ele>
        <time>2023-07-30T14:08:54.000Z</time>
      </trkpt>
      <trkpt lat="43.72792" lon="1.46291">
        <ele>178.19797</ele>
        <time>2023-07-30T14:08:54.000Z</time>
      </trkpt>
      <trkpt lat="43.72792" lon="1.46287">
        <ele>178.153624</ele>
        <time>2023-07-30T14:08:55.000Z</time>
      </trkpt>
      <trkpt lat="43.72791" lon="1.46284">
        <ele>178.10117</ele>
        <time>2023-07-30T14:08:56.000Z</time>
      </trkpt>
      <trkpt lat="43.72791" lon="1.46284">
        <ele>178.10117</ele>
        <time>2023-07-30T14:08:56.000Z</time>
      </trkpt>
      <trkpt lat="43.72791" lon="1.4628">
        <ele>178.055517</ele>
        <time>2023-07-30T14:08:57.000Z</time>
      </trkpt>
      <trkpt lat="43.72791" lon="1.4628">
        <ele>178.055517</ele>
        <time>2023-07-30T14:08:57.000Z</time>
      </trkpt>
      <trkpt lat="43.72789" lon="1.46273">
        <ele>177.960131</ele>
        <time>2023-07-30T14:08:59.000Z</time>
      </trkpt>
      <trkpt lat="43.72789" lon="1.46273">
        <ele>177.960131</ele>
        <time>2023-07-30T14:08:59.000Z</time>
      </trkpt>
      <trkpt lat="43.72788" lon="1.46267">
        <ele>177.878094</ele>
        <time>2023-07-30T14:09:00.000Z</time>
      </trkpt>
      <trkpt lat="43.72788" lon="1.46267">
        <ele>177.878094</ele>
        <time>2023-07-30T14:09:00.000Z</time>
      </trkpt>
      <trkpt lat="43.72787" lon="1.46263">
        <ele>177.815391</ele>
        <time>2023-07-30T14:09:01.000Z</time>
      </trkpt>
      <trkpt lat="43.72788" lon="1.46258">
        <ele>177.750039</ele>
        <time>2023-07-30T14:09:02.000Z</time>
      </trkpt>
      <trkpt lat="43.72788" lon="1.46258">
        <ele>177.750039</ele>
        <time>2023-07-30T14:09:02.000Z</time>
      </trkpt>
      <trkpt lat="43.72788" lon="1.46253">
        <ele>177.679938</ele>
        <time>2023-07-30T14:09:03.000Z</time>
      </trkpt>
      <trkpt lat="43.7279" lon="1.46247">
        <ele>177.601363</ele>
        <time>2023-07-30T14:09:04.000Z</time>
      </trkpt>
      <trkpt lat="43.72792" lon="1.46242">
        <ele>177.518291</ele>
        <time>2023-07-30T14:09:05.000Z</time>
      </trkpt>
      <trkpt lat="43.72792" lon="1.46242">
        <ele>177.518291</ele>
        <time>2023-07-30T14:09:05.000Z</time>
      </trkpt>
      <trkpt lat="43.72795" lon="1.46237">
        <ele>177.437726</ele>
        <time>2023-07-30T14:09:06.000Z</time>
      </trkpt>
      <trkpt lat="43.72798" lon="1.46233">
        <ele>177.355315</ele>
        <time>2023-07-30T14:09:08.000Z</time>
      </trkpt>
      <trkpt lat="43.72802" lon="1.46229">
        <ele>177.26359</ele>
        <time>2023-07-30T14:09:09.000Z</time>
      </trkpt>
      <trkpt lat="43.72802" lon="1.46229">
        <ele>177.26359</ele>
        <time>2023-07-30T14:09:09.000Z</time>
      </trkpt>
      <trkpt lat="43.72805" lon="1.46225">
        <ele>177.189002</ele>
        <time>2023-07-30T14:09:10.000Z</time>
      </trkpt>
      <trkpt lat="43.72808" lon="1.46221">
        <ele>177.116461</ele>
        <time>2023-07-30T14:09:11.000Z</time>
      </trkpt>
      <trkpt lat="43.72808" lon="1.46221">
        <ele>177.116461</ele>
        <time>2023-07-30T14:09:11.000Z</time>
      </trkpt>
      <trkpt lat="43.72812" lon="1.46216">
        <ele>177.018451</ele>
        <time>2023-07-30T14:09:12.000Z</time>
      </trkpt>
      <trkpt lat="43.72818" lon="1.46207">
        <ele>176.858747</ele>
        <time>2023-07-30T14:09:14.000Z</time>
      </trkpt>
      <trkpt lat="43.7282" lon="1.46203">
        <ele>176.785232</ele>
        <time>2023-07-30T14:09:15.000Z</time>
      </trkpt>
      <trkpt lat="43.72823" lon="1.46201">
        <ele>176.72843</ele>
        <time>2023-07-30T14:09:16.000Z</time>
      </trkpt>
      <trkpt lat="43.72823" lon="1.46201">
        <ele>176.72843</ele>
        <time>2023-07-30T14:09:16.000Z</time>
      </trkpt>
      <trkpt lat="43.72827" lon="1.46197">
        <ele>176.641443</ele>
        <time>2023-07-30T14:09:17.000Z</time>
      </trkpt>
      <trkpt lat="43.72832" lon="1.46193">
        <ele>176.535524</ele>
        <time>2023-07-30T14:09:19.000Z</time>
      </trkpt>
      <trkpt lat="43.72837" lon="1.4619">
        <ele>176.437274</ele>
        <time>2023-07-30T14:09:20.000Z</time>
      </trkpt>
      <trkpt lat="43.72837" lon="1.4619">
        <ele>176.437274</ele>
        <time>2023-07-30T14:09:20.000Z</time>
      </trkpt>
      <trkpt lat="43.72841" lon="1.46186">
        <ele>176.348697</ele>
        <time>2023-07-30T14:09:21.000Z</time>
      </trkpt>
      <trkpt lat="43.72841" lon="1.46186">
        <ele>176.348697</ele>
        <time>2023-07-30T14:09:21.000Z</time>
      </trkpt>
      <trkpt lat="43.72845" lon="1.46183">
        <ele>176.258092</ele>
        <time>2023-07-30T14:09:21.000Z</time>
      </trkpt>
      <trkpt lat="43.72849" lon="1.46179">
        <ele>175.978098</ele>
        <time>2023-07-30T14:09:23.000Z</time>
      </trkpt>
      <trkpt lat="43.72849" lon="1.46179">
        <ele>175.978098</ele>
        <time>2023-07-30T14:09:23.000Z</time>
      </trkpt>
      <trkpt lat="43.72851" lon="1.46177">
        <ele>175.79973</ele>
        <time>2023-07-30T14:09:24.000Z</time>
      </trkpt>
      <trkpt lat="43.72851" lon="1.46177">
        <ele>175.79973</ele>
        <time>2023-07-30T14:09:24.000Z</time>
      </trkpt>
      <trkpt lat="43.72854" lon="1.46173">
        <ele>175.582927</ele>
        <time>2023-07-30T14:09:25.000Z</time>
      </trkpt>
      <trkpt lat="43.72857" lon="1.4617">
        <ele>175.376471</ele>
        <time>2023-07-30T14:09:27.000Z</time>
      </trkpt>
      <trkpt lat="43.72857" lon="1.4617">
        <ele>175.376471</ele>
        <time>2023-07-30T14:09:27.000Z</time>
      </trkpt>
      <trkpt lat="43.72862" lon="1.46166">
        <ele>174.974049</ele>
        <time>2023-07-30T14:09:28.000Z</time>
      </trkpt>
      <trkpt lat="43.72862" lon="1.46166">
        <ele>174.974049</ele>
        <time>2023-07-30T14:09:28.000Z</time>
      </trkpt>
      <trkpt lat="43.72865" lon="1.46162">
        <ele>174.709464</ele>
        <time>2023-07-30T14:09:30.000Z</time>
      </trkpt>
      <trkpt lat="43.72865" lon="1.46162">
        <ele>174.709464</ele>
        <time>2023-07-30T14:09:30.000Z</time>
      </trkpt>
      <trkpt lat="43.72868" lon="1.46158">
        <ele>174.467293</ele>
        <time>2023-07-30T14:09:31.000Z</time>
      </trkpt>
      <trkpt lat="43.72868" lon="1.46158">
        <ele>174.467293</ele>
        <time>2023-07-30T14:09:31.000Z</time>
      </trkpt>
      <trkpt lat="43.72873" lon="1.46154">
        <ele>174.161257</ele>
        <time>2023-07-30T14:09:32.000Z</time>
      </trkpt>
      <trkpt lat="43.72873" lon="1.46154">
        <ele>174.161257</ele>
        <time>2023-07-30T14:09:32.000Z</time>
      </trkpt>
      <trkpt lat="43.72877" lon="1.4615">
        <ele>173.829927</ele>
        <time>2023-07-30T14:09:33.000Z</time>
      </trkpt>
      <trkpt lat="43.72877" lon="1.4615">
        <ele>173.829927</ele>
        <time>2023-07-30T14:09:33.000Z</time>
      </trkpt>
      <trkpt lat="43.72881" lon="1.46148">
        <ele>173.571395</ele>
        <time>2023-07-30T14:09:34.000Z</time>
      </trkpt>
      <trkpt lat="43.72881" lon="1.46148">
        <ele>173.571395</ele>
        <time>2023-07-30T14:09:34.000Z</time>
      </trkpt>
      <trkpt lat="43.72884" lon="1.46146">
        <ele>173.349201</ele>
        <time>2023-07-30T14:09:35.000Z</time>
      </trkpt>
      <trkpt lat="43.72888" lon="1.46145">
        <ele>173.138867</ele>
        <time>2023-07-30T14:09:37.000Z</time>
      </trkpt>
      <trkpt lat="43.72888" lon="1.46145">
        <ele>173.138867</ele>
        <time>2023-07-30T14:09:37.000Z</time>
      </trkpt>
      <trkpt lat="43.72891" lon="1.46145">
        <ele>172.949806</ele>
        <time>2023-07-30T14:09:38.000Z</time>
      </trkpt>
      <trkpt lat="43.72895" lon="1.46146">
        <ele>172.691807</ele>
        <time>2023-07-30T14:09:39.000Z</time>
      </trkpt>
      <trkpt lat="43.72895" lon="1.46146">
        <ele>172.691807</ele>
        <time>2023-07-30T14:09:39.000Z</time>
      </trkpt>
      <trkpt lat="43.72898" lon="1.46147">
        <ele>172.504595</ele>
        <time>2023-07-30T14:09:40.000Z</time>
      </trkpt>
      <trkpt lat="43.72902" lon="1.46148">
        <ele>172.242118</ele>
        <time>2023-07-30T14:09:41.000Z</time>
      </trkpt>
      <trkpt lat="43.72902" lon="1.46148">
        <ele>172.242118</ele>
        <time>2023-07-30T14:09:41.000Z</time>
      </trkpt>
      <trkpt lat="43.72907" lon="1.46149">
        <ele>171.980568</ele>
        <time>2023-07-30T14:09:43.000Z</time>
      </trkpt>
      <trkpt lat="43.72908" lon="1.4615">
        <ele>171.863359</ele>
        <time>2023-07-30T14:09:44.000Z</time>
      </trkpt>
      <trkpt lat="43.72913" lon="1.46152">
        <ele>171.592471</ele>
        <time>2023-07-30T14:09:45.000Z</time>
      </trkpt>
      <trkpt lat="43.72914" lon="1.46151">
        <ele>171.512204</ele>
        <time>2023-07-30T14:09:46.000Z</time>
      </trkpt>
      <trkpt lat="43.72918" lon="1.46149">
        <ele>171.262832</ele>
        <time>2023-07-30T14:09:47.000Z</time>
      </trkpt>
      <trkpt lat="43.72918" lon="1.46149">
        <ele>171.262832</ele>
        <time>2023-07-30T14:09:47.000Z</time>
      </trkpt>
      <trkpt lat="43.72922" lon="1.46146">
        <ele>170.972528</ele>
        <time>2023-07-30T14:09:49.000Z</time>
      </trkpt>
      <trkpt lat="43.72922" lon="1.46146">
        <ele>170.972528</ele>
        <time>2023-07-30T14:09:49.000Z</time>
      </trkpt>
      <trkpt lat="43.72925" lon="1.46143">
        <ele>170.756647</ele>
        <time>2023-07-30T14:09:50.000Z</time>
      </trkpt>
      <trkpt lat="43.72925" lon="1.46143">
        <ele>170.756647</ele>
        <time>2023-07-30T14:09:50.000Z</time>
      </trkpt>
      <trkpt lat="43.72929" lon="1.4614">
        <ele>170.446512</ele>
        <time>2023-07-30T14:09:51.000Z</time>
      </trkpt>
      <trkpt lat="43.72929" lon="1.4614">
        <ele>170.446512</ele>
        <time>2023-07-30T14:09:51.000Z</time>
      </trkpt>
      <trkpt lat="43.72932" lon="1.46138">
        <ele>170.250877</ele>
        <time>2023-07-30T14:09:52.000Z</time>
      </trkpt>
      <trkpt lat="43.72932" lon="1.46138">
        <ele>170.250877</ele>
        <time>2023-07-30T14:09:52.000Z</time>
      </trkpt>
      <trkpt lat="43.72934" lon="1.46135">
        <ele>170.064421</ele>
        <time>2023-07-30T14:09:54.000Z</time>
      </trkpt>
      <trkpt lat="43.72934" lon="1.46135">
        <ele>170.064421</ele>
        <time>2023-07-30T14:09:54.000Z</time>
      </trkpt>
      <trkpt lat="43.72937" lon="1.46133">
        <ele>169.861334</ele>
        <time>2023-07-30T14:09:55.000Z</time>
      </trkpt>
      <trkpt lat="43.72937" lon="1.46133">
        <ele>169.861334</ele>
        <time>2023-07-30T14:09:55.000Z</time>
      </trkpt>
      <trkpt lat="43.72939" lon="1.46132">
        <ele>169.769429</ele>
        <time>2023-07-30T14:09:56.000Z</time>
      </trkpt>
      <trkpt lat="43.72939" lon="1.46132">
        <ele>169.769429</ele>
        <time>2023-07-30T14:09:56.000Z</time>
      </trkpt>
      <trkpt lat="43.72942" lon="1.46133">
        <ele>169.555791</ele>
        <time>2023-07-30T14:09:57.000Z</time>
      </trkpt>
      <trkpt lat="43.72942" lon="1.46133">
        <ele>169.555791</ele>
        <time>2023-07-30T14:09:57.000Z</time>
      </trkpt>
      <trkpt lat="43.72945" lon="1.46132">
        <ele>169.396673</ele>
        <time>2023-07-30T14:09:58.000Z</time>
      </trkpt>
      <trkpt lat="43.72945" lon="1.46132">
        <ele>169.396673</ele>
        <time>2023-07-30T14:09:58.000Z</time>
      </trkpt>
      <trkpt lat="43.72948" lon="1.46133">
        <ele>169.180999</ele>
        <time>2023-07-30T14:09:59.000Z</time>
      </trkpt>
      <trkpt lat="43.72952" lon="1.46134">
        <ele>168.971963</ele>
        <time>2023-07-30T14:10:01.000Z</time>
      </trkpt>
      <trkpt lat="43.72952" lon="1.46134">
        <ele>168.971963</ele>
        <time>2023-07-30T14:10:01.000Z</time>
      </trkpt>
      <trkpt lat="43.72954" lon="1.46135">
        <ele>168.800309</ele>
        <time>2023-07-30T14:10:02.000Z</time>
      </trkpt>
      <trkpt lat="43.72957" lon="1.46134">
        <ele>168.657567</ele>
        <time>2023-07-30T14:10:03.000Z</time>
      </trkpt>
      <trkpt lat="43.72957" lon="1.46134">
        <ele>168.657567</ele>
        <time>2023-07-30T14:10:03.000Z</time>
      </trkpt>
      <trkpt lat="43.72961" lon="1.46134">
        <ele>168.400473</ele>
        <time>2023-07-30T14:10:04.000Z</time>
      </trkpt>
      <trkpt lat="43.72961" lon="1.46134">
        <ele>168.400473</ele>
        <time>2023-07-30T14:10:04.000Z</time>
      </trkpt>
      <trkpt lat="43.72964" lon="1.46133">
        <ele>168.214928</ele>
        <time>2023-07-30T14:10:05.000Z</time>
      </trkpt>
      <trkpt lat="43.72964" lon="1.46133">
        <ele>168.214928</ele>
        <time>2023-07-30T14:10:05.000Z</time>
      </trkpt>
      <trkpt lat="43.72968" lon="1.46131">
        <ele>167.942575</ele>
        <time>2023-07-30T14:10:06.000Z</time>
      </trkpt>
      <trkpt lat="43.72968" lon="1.46131">
        <ele>167.942575</ele>
        <time>2023-07-30T14:10:06.000Z</time>
      </trkpt>
      <trkpt lat="43.72973" lon="1.46128">
        <ele>167.639535</ele>
        <time>2023-07-30T14:10:08.000Z</time>
      </trkpt>
      <trkpt lat="43.72973" lon="1.46128">
        <ele>167.639535</ele>
        <time>2023-07-30T14:10:08.000Z</time>
      </trkpt>
      <trkpt lat="43.72976" lon="1.46126">
        <ele>167.381004</ele>
        <time>2023-07-30T14:10:09.000Z</time>
      </trkpt>
      <trkpt lat="43.72976" lon="1.46126">
        <ele>167.381004</ele>
        <time>2023-07-30T14:10:09.000Z</time>
      </trkpt>
      <trkpt lat="43.72979" lon="1.46124">
        <ele>167.225936</ele>
        <time>2023-07-30T14:10:10.000Z</time>
      </trkpt>
      <trkpt lat="43.72979" lon="1.46124">
        <ele>167.225936</ele>
        <time>2023-07-30T14:10:10.000Z</time>
      </trkpt>
      <trkpt lat="43.72982" lon="1.46122">
        <ele>167.024723</ele>
        <time>2023-07-30T14:10:11.000Z</time>
      </trkpt>
      <trkpt lat="43.72982" lon="1.46122">
        <ele>167.024723</ele>
        <time>2023-07-30T14:10:11.000Z</time>
      </trkpt>
      <trkpt lat="43.72984" lon="1.46121">
        <ele>166.88908</ele>
        <time>2023-07-30T14:10:12.000Z</time>
      </trkpt>
      <trkpt lat="43.72984" lon="1.46121">
        <ele>166.88908</ele>
        <time>2023-07-30T14:10:12.000Z</time>
      </trkpt>
      <trkpt lat="43.72986" lon="1.46119">
        <ele>166.745934</ele>
        <time>2023-07-30T14:10:14.000Z</time>
      </trkpt>
      <trkpt lat="43.72986" lon="1.46119">
        <ele>166.745934</ele>
        <time>2023-07-30T14:10:14.000Z</time>
      </trkpt>
      <trkpt lat="43.72986" lon="1.46119">
        <ele>166.745934</ele>
        <time>2023-07-30T14:10:15.000Z</time>
      </trkpt>
      <trkpt lat="43.7299" lon="1.46113">
        <ele>166.352692</ele>
        <time>2023-07-30T14:10:16.000Z</time>
      </trkpt>
      <trkpt lat="43.7299" lon="1.46113">
        <ele>166.352692</ele>
        <time>2023-07-30T14:10:16.000Z</time>
      </trkpt>
      <trkpt lat="43.72992" lon="1.46111">
        <ele>166.238129</ele>
        <time>2023-07-30T14:10:17.000Z</time>
      </trkpt>
      <trkpt lat="43.72992" lon="1.46111">
        <ele>166.238129</ele>
        <time>2023-07-30T14:10:17.000Z</time>
      </trkpt>
      <trkpt lat="43.72993" lon="1.46109">
        <ele>166.120228</ele>
        <time>2023-07-30T14:10:18.000Z</time>
      </trkpt>
      <trkpt lat="43.72993" lon="1.46109">
        <ele>166.120228</ele>
        <time>2023-07-30T14:10:18.000Z</time>
      </trkpt>
      <trkpt lat="43.72995" lon="1.46108">
        <ele>165.997752</ele>
        <time>2023-07-30T14:10:19.000Z</time>
      </trkpt>
      <trkpt lat="43.72995" lon="1.46108">
        <ele>165.997752</ele>
        <time>2023-07-30T14:10:19.000Z</time>
      </trkpt>
      <trkpt lat="43.72997" lon="1.46108">
        <ele>165.881123</ele>
        <time>2023-07-30T14:10:20.000Z</time>
      </trkpt>
      <trkpt lat="43.72997" lon="1.46108">
        <ele>165.881123</ele>
        <time>2023-07-30T14:10:20.000Z</time>
      </trkpt>
      <trkpt lat="43.73008" lon="1.46111">
        <ele>165.226864</ele>
        <time>2023-07-30T14:10:22.000Z</time>
      </trkpt>
      <trkpt lat="43.73008" lon="1.46111">
        <ele>165.226864</ele>
        <time>2023-07-30T14:10:22.000Z</time>
      </trkpt>
      <trkpt lat="43.73012" lon="1.46113">
        <ele>165.057228</ele>
        <time>2023-07-30T14:10:23.000Z</time>
      </trkpt>
      <trkpt lat="43.73012" lon="1.46113">
        <ele>165.057228</ele>
        <time>2023-07-30T14:10:23.000Z</time>
      </trkpt>
      <trkpt lat="43.73016" lon="1.46115">
        <ele>164.899093</ele>
        <time>2023-07-30T14:10:24.000Z</time>
      </trkpt>
      <trkpt lat="43.73016" lon="1.46115">
        <ele>164.899093</ele>
        <time>2023-07-30T14:10:24.000Z</time>
      </trkpt>
      <trkpt lat="43.7302" lon="1.46118">
        <ele>164.70617</ele>
        <time>2023-07-30T14:10:25.000Z</time>
      </trkpt>
      <trkpt lat="43.7302" lon="1.46118">
        <ele>164.70617</ele>
        <time>2023-07-30T14:10:25.000Z</time>
      </trkpt>
      <trkpt lat="43.73027" lon="1.46123">
        <ele>164.407911</ele>
        <time>2023-07-30T14:10:26.000Z</time>
      </trkpt>
      <trkpt lat="43.73027" lon="1.46123">
        <ele>164.407911</ele>
        <time>2023-07-30T14:10:26.000Z</time>
      </trkpt>
      <trkpt lat="43.73033" lon="1.46127">
        <ele>164.141218</ele>
        <time>2023-07-30T14:10:27.000Z</time>
      </trkpt>
      <trkpt lat="43.73033" lon="1.46127">
        <ele>164.141218</ele>
        <time>2023-07-30T14:10:27.000Z</time>
      </trkpt>
      <trkpt lat="43.73038" lon="1.46132">
        <ele>163.9181</ele>
        <time>2023-07-30T14:10:28.000Z</time>
      </trkpt>
      <trkpt lat="43.73038" lon="1.46132">
        <ele>163.9181</ele>
        <time>2023-07-30T14:10:28.000Z</time>
      </trkpt>
      <trkpt lat="43.73043" lon="1.46135">
        <ele>163.716573</ele>
        <time>2023-07-30T14:10:29.000Z</time>
      </trkpt>
      <trkpt lat="43.73043" lon="1.46135">
        <ele>163.716573</ele>
        <time>2023-07-30T14:10:29.000Z</time>
      </trkpt>
      <trkpt lat="43.73047" lon="1.46139">
        <ele>163.513695</ele>
        <time>2023-07-30T14:10:30.000Z</time>
      </trkpt>
      <trkpt lat="43.73047" lon="1.46139">
        <ele>163.513695</ele>
        <time>2023-07-30T14:10:30.000Z</time>
      </trkpt>
      <trkpt lat="43.73051" lon="1.46142">
        <ele>163.325785</ele>
        <time>2023-07-30T14:10:31.000Z</time>
      </trkpt>
      <trkpt lat="43.73051" lon="1.46142">
        <ele>163.325785</ele>
        <time>2023-07-30T14:10:31.000Z</time>
      </trkpt>
      <trkpt lat="43.73056" lon="1.46146">
        <ele>163.120119</ele>
        <time>2023-07-30T14:10:32.000Z</time>
      </trkpt>
      <trkpt lat="43.73056" lon="1.46146">
        <ele>163.120119</ele>
        <time>2023-07-30T14:10:32.000Z</time>
      </trkpt>
      <trkpt lat="43.7306" lon="1.4615">
        <ele>162.925946</ele>
        <time>2023-07-30T14:10:33.000Z</time>
      </trkpt>
      <trkpt lat="43.73064" lon="1.46154">
        <ele>162.736284</ele>
        <time>2023-07-30T14:10:34.000Z</time>
      </trkpt>
      <trkpt lat="43.73064" lon="1.46154">
        <ele>162.736284</ele>
        <time>2023-07-30T14:10:34.000Z</time>
      </trkpt>
      <trkpt lat="43.73069" lon="1.46157">
        <ele>162.543643</ele>
        <time>2023-07-30T14:10:35.000Z</time>
      </trkpt>
      <trkpt lat="43.73069" lon="1.46157">
        <ele>162.543643</ele>
        <time>2023-07-30T14:10:35.000Z</time>
      </trkpt>
      <trkpt lat="43.73072" lon="1.46161">
        <ele>162.366851</ele>
        <time>2023-07-30T14:10:36.000Z</time>
      </trkpt>
      <trkpt lat="43.73072" lon="1.46161">
        <ele>162.366851</ele>
        <time>2023-07-30T14:10:36.000Z</time>
      </trkpt>
      <trkpt lat="43.73077" lon="1.46165">
        <ele>162.17421</ele>
        <time>2023-07-30T14:10:37.000Z</time>
      </trkpt>
      <trkpt lat="43.73077" lon="1.46165">
        <ele>162.17421</ele>
        <time>2023-07-30T14:10:37.000Z</time>
      </trkpt>
      <trkpt lat="43.7308" lon="1.46169">
        <ele>161.990921</ele>
        <time>2023-07-30T14:10:38.000Z</time>
      </trkpt>
      <trkpt lat="43.7308" lon="1.46169">
        <ele>161.990921</ele>
        <time>2023-07-30T14:10:38.000Z</time>
      </trkpt>
      <trkpt lat="43.73085" lon="1.46174">
        <ele>161.757306</ele>
        <time>2023-07-30T14:10:39.000Z</time>
      </trkpt>
      <trkpt lat="43.73085" lon="1.46174">
        <ele>161.757306</ele>
        <time>2023-07-30T14:10:39.000Z</time>
      </trkpt>
      <trkpt lat="43.7309" lon="1.46178">
        <ele>161.553391</ele>
        <time>2023-07-30T14:10:40.000Z</time>
      </trkpt>
      <trkpt lat="43.73094" lon="1.46183">
        <ele>161.349475</ele>
        <time>2023-07-30T14:10:41.000Z</time>
      </trkpt>
      <trkpt lat="43.73094" lon="1.46183">
        <ele>161.349475</ele>
        <time>2023-07-30T14:10:41.000Z</time>
      </trkpt>
      <trkpt lat="43.73098" lon="1.46187">
        <ele>161.14556</ele>
        <time>2023-07-30T14:10:42.000Z</time>
      </trkpt>
      <trkpt lat="43.73103" lon="1.46192">
        <ele>160.927685</ele>
        <time>2023-07-30T14:10:43.000Z</time>
      </trkpt>
      <trkpt lat="43.73107" lon="1.46196">
        <ele>160.723769</ele>
        <time>2023-07-30T14:10:44.000Z</time>
      </trkpt>
      <trkpt lat="43.73111" lon="1.46201">
        <ele>160.512879</ele>
        <time>2023-07-30T14:10:45.000Z</time>
      </trkpt>
      <trkpt lat="43.73111" lon="1.46201">
        <ele>160.512879</ele>
        <time>2023-07-30T14:10:45.000Z</time>
      </trkpt>
      <trkpt lat="43.73115" lon="1.46206">
        <ele>160.29837</ele>
        <time>2023-07-30T14:10:46.000Z</time>
      </trkpt>
      <trkpt lat="43.73115" lon="1.46206">
        <ele>160.29837</ele>
        <time>2023-07-30T14:10:46.000Z</time>
      </trkpt>
      <trkpt lat="43.73119" lon="1.46211">
        <ele>160.095152</ele>
        <time>2023-07-30T14:10:47.000Z</time>
      </trkpt>
      <trkpt lat="43.73123" lon="1.46217">
        <ele>159.889993</ele>
        <time>2023-07-30T14:10:48.000Z</time>
      </trkpt>
      <trkpt lat="43.73123" lon="1.46217">
        <ele>159.889993</ele>
        <time>2023-07-30T14:10:48.000Z</time>
      </trkpt>
      <trkpt lat="43.73127" lon="1.46222">
        <ele>159.670745</ele>
        <time>2023-07-30T14:10:49.000Z</time>
      </trkpt>
      <trkpt lat="43.7313" lon="1.46229">
        <ele>159.454832</ele>
        <time>2023-07-30T14:10:51.000Z</time>
      </trkpt>
      <trkpt lat="43.73134" lon="1.46234">
        <ele>159.241067</ele>
        <time>2023-07-30T14:10:52.000Z</time>
      </trkpt>
      <trkpt lat="43.73137" lon="1.4624">
        <ele>159.031724</ele>
        <time>2023-07-30T14:10:53.000Z</time>
      </trkpt>
      <trkpt lat="43.73141" lon="1.46246">
        <ele>158.818014</ele>
        <time>2023-07-30T14:10:53.000Z</time>
      </trkpt>
      <trkpt lat="43.73144" lon="1.46252">
        <ele>158.61262</ele>
        <time>2023-07-30T14:10:54.000Z</time>
      </trkpt>
      <trkpt lat="43.73148" lon="1.46258">
        <ele>158.394491</ele>
        <time>2023-07-30T14:10:55.000Z</time>
      </trkpt>
      <trkpt lat="43.73151" lon="1.46264">
        <ele>158.27018</ele>
        <time>2023-07-30T14:10:56.000Z</time>
      </trkpt>
      <trkpt lat="43.73151" lon="1.46264">
        <ele>158.27018</ele>
        <time>2023-07-30T14:10:56.000Z</time>
      </trkpt>
      <trkpt lat="43.73155" lon="1.4627">
        <ele>158.154584</ele>
        <time>2023-07-30T14:10:57.000Z</time>
      </trkpt>
      <trkpt lat="43.73155" lon="1.4627">
        <ele>158.154584</ele>
        <time>2023-07-30T14:10:57.000Z</time>
      </trkpt>
      <trkpt lat="43.73158" lon="1.46275">
        <ele>158.059955</ele>
        <time>2023-07-30T14:10:58.000Z</time>
      </trkpt>
      <trkpt lat="43.73161" lon="1.46279">
        <ele>157.965699</ele>
        <time>2023-07-30T14:10:59.000Z</time>
      </trkpt>
      <trkpt lat="43.73161" lon="1.46279">
        <ele>157.965699</ele>
        <time>2023-07-30T14:10:59.000Z</time>
      </trkpt>
      <trkpt lat="43.73164" lon="1.46285">
        <ele>157.853647</ele>
        <time>2023-07-30T14:11:00.000Z</time>
      </trkpt>
      <trkpt lat="43.73164" lon="1.46285">
        <ele>157.853647</ele>
        <time>2023-07-30T14:11:00.000Z</time>
      </trkpt>
      <trkpt lat="43.73168" lon="1.46291">
        <ele>157.736074</ele>
        <time>2023-07-30T14:11:01.000Z</time>
      </trkpt>
      <trkpt lat="43.73172" lon="1.46297">
        <ele>157.608337</ele>
        <time>2023-07-30T14:11:02.000Z</time>
      </trkpt>
      <trkpt lat="43.73177" lon="1.46303">
        <ele>157.47362</ele>
        <time>2023-07-30T14:11:03.000Z</time>
      </trkpt>
      <trkpt lat="43.73182" lon="1.4631">
        <ele>157.328031</ele>
        <time>2023-07-30T14:11:04.000Z</time>
      </trkpt>
      <trkpt lat="43.73182" lon="1.4631">
        <ele>157.328031</ele>
        <time>2023-07-30T14:11:04.000Z</time>
      </trkpt>
      <trkpt lat="43.73186" lon="1.46316">
        <ele>157.193314</ele>
        <time>2023-07-30T14:11:05.000Z</time>
      </trkpt>
      <trkpt lat="43.73192" lon="1.46323">
        <ele>157.038081</ele>
        <time>2023-07-30T14:11:06.000Z</time>
      </trkpt>
      <trkpt lat="43.73192" lon="1.46323">
        <ele>157.038081</ele>
        <time>2023-07-30T14:11:06.000Z</time>
      </trkpt>
      <trkpt lat="43.73197" lon="1.4633">
        <ele>156.887477</ele>
        <time>2023-07-30T14:11:07.000Z</time>
      </trkpt>
      <trkpt lat="43.73197" lon="1.4633">
        <ele>156.887477</ele>
        <time>2023-07-30T14:11:07.000Z</time>
      </trkpt>
      <trkpt lat="43.73203" lon="1.46337">
        <ele>156.727593</ele>
        <time>2023-07-30T14:11:08.000Z</time>
      </trkpt>
      <trkpt lat="43.73203" lon="1.46337">
        <ele>156.727593</ele>
        <time>2023-07-30T14:11:08.000Z</time>
      </trkpt>
      <trkpt lat="43.73208" lon="1.46343">
        <ele>156.571667</ele>
        <time>2023-07-30T14:11:09.000Z</time>
      </trkpt>
      <trkpt lat="43.73208" lon="1.46343">
        <ele>156.571667</ele>
        <time>2023-07-30T14:11:09.000Z</time>
      </trkpt>
      <trkpt lat="43.73215" lon="1.4635">
        <ele>156.399796</ele>
        <time>2023-07-30T14:11:10.000Z</time>
      </trkpt>
      <trkpt lat="43.73215" lon="1.4635">
        <ele>156.399796</ele>
        <time>2023-07-30T14:11:10.000Z</time>
      </trkpt>
      <trkpt lat="43.73221" lon="1.46357">
        <ele>156.231548</ele>
        <time>2023-07-30T14:11:11.000Z</time>
      </trkpt>
      <trkpt lat="43.73221" lon="1.46357">
        <ele>156.231548</ele>
        <time>2023-07-30T14:11:11.000Z</time>
      </trkpt>
      <trkpt lat="43.73228" lon="1.46364">
        <ele>156.049327</ele>
        <time>2023-07-30T14:11:12.000Z</time>
      </trkpt>
      <trkpt lat="43.73228" lon="1.46364">
        <ele>156.049327</ele>
        <time>2023-07-30T14:11:12.000Z</time>
      </trkpt>
      <trkpt lat="43.73235" lon="1.46371">
        <ele>155.865586</ele>
        <time>2023-07-30T14:11:13.000Z</time>
      </trkpt>
      <trkpt lat="43.73235" lon="1.46371">
        <ele>155.865586</ele>
        <time>2023-07-30T14:11:13.000Z</time>
      </trkpt>
      <trkpt lat="43.73242" lon="1.46378">
        <ele>155.687867</ele>
        <time>2023-07-30T14:11:15.000Z</time>
      </trkpt>
      <trkpt lat="43.73242" lon="1.46378">
        <ele>155.687867</ele>
        <time>2023-07-30T14:11:15.000Z</time>
      </trkpt>
      <trkpt lat="43.73249" lon="1.46384">
        <ele>155.523943</ele>
        <time>2023-07-30T14:11:15.000Z</time>
      </trkpt>
      <trkpt lat="43.73249" lon="1.46384">
        <ele>155.523943</ele>
        <time>2023-07-30T14:11:15.000Z</time>
      </trkpt>
      <trkpt lat="43.73256" lon="1.4639">
        <ele>155.349687</ele>
        <time>2023-07-30T14:11:16.000Z</time>
      </trkpt>
      <trkpt lat="43.73256" lon="1.4639">
        <ele>155.349687</ele>
        <time>2023-07-30T14:11:16.000Z</time>
      </trkpt>
      <trkpt lat="43.73262" lon="1.46396">
        <ele>155.184917</ele>
        <time>2023-07-30T14:11:18.000Z</time>
      </trkpt>
      <trkpt lat="43.73262" lon="1.46396">
        <ele>155.184917</ele>
        <time>2023-07-30T14:11:18.000Z</time>
      </trkpt>
      <trkpt lat="43.73268" lon="1.46402">
        <ele>155.038258</ele>
        <time>2023-07-30T14:11:18.000Z</time>
      </trkpt>
      <trkpt lat="43.73268" lon="1.46402">
        <ele>155.038258</ele>
        <time>2023-07-30T14:11:18.000Z</time>
      </trkpt>
      <trkpt lat="43.73274" lon="1.46408">
        <ele>154.888129</ele>
        <time>2023-07-30T14:11:20.000Z</time>
      </trkpt>
      <trkpt lat="43.73274" lon="1.46408">
        <ele>154.888129</ele>
        <time>2023-07-30T14:11:20.000Z</time>
      </trkpt>
      <trkpt lat="43.7328" lon="1.46415">
        <ele>154.718087</ele>
        <time>2023-07-30T14:11:20.000Z</time>
      </trkpt>
      <trkpt lat="43.7328" lon="1.46415">
        <ele>154.718087</ele>
        <time>2023-07-30T14:11:20.000Z</time>
      </trkpt>
      <trkpt lat="43.73286" lon="1.46421">
        <ele>154.655835</ele>
        <time>2023-07-30T14:11:21.000Z</time>
      </trkpt>
      <trkpt lat="43.73286" lon="1.46421">
        <ele>154.655835</ele>
        <time>2023-07-30T14:11:21.000Z</time>
      </trkpt>
      <trkpt lat="43.73291" lon="1.46427">
        <ele>154.828597</ele>
        <time>2023-07-30T14:11:22.000Z</time>
      </trkpt>
      <trkpt lat="43.73291" lon="1.46427">
        <ele>154.828597</ele>
        <time>2023-07-30T14:11:22.000Z</time>
      </trkpt>
      <trkpt lat="43.73297" lon="1.46434">
        <ele>155.007979</ele>
        <time>2023-07-30T14:11:23.000Z</time>
      </trkpt>
      <trkpt lat="43.73303" lon="1.46441">
        <ele>155.182209</ele>
        <time>2023-07-30T14:11:24.000Z</time>
      </trkpt>
      <trkpt lat="43.73307" lon="1.46447">
        <ele>155.334135</ele>
        <time>2023-07-30T14:11:25.000Z</time>
      </trkpt>
      <trkpt lat="43.73312" lon="1.46454">
        <ele>155.500499</ele>
        <time>2023-07-30T14:11:26.000Z</time>
      </trkpt>
      <trkpt lat="43.73315" lon="1.4646">
        <ele>155.615695</ele>
        <time>2023-07-30T14:11:27.000Z</time>
      </trkpt>
      <trkpt lat="43.73316" lon="1.46465">
        <ele>155.69846</ele>
        <time>2023-07-30T14:11:28.000Z</time>
      </trkpt>
      <trkpt lat="43.73316" lon="1.46465">
        <ele>155.69846</ele>
        <time>2023-07-30T14:11:28.000Z</time>
      </trkpt>
      <trkpt lat="43.73316" lon="1.46468">
        <ele>155.749166</ele>
        <time>2023-07-30T14:11:30.000Z</time>
      </trkpt>
      <trkpt lat="43.73315" lon="1.46469">
        <ele>155.77619</ele>
        <time>2023-07-30T14:11:30.000Z</time>
      </trkpt>
      <trkpt lat="43.7331" lon="1.4647">
        <ele>155.900899</ele>
        <time>2023-07-30T14:11:32.000Z</time>
      </trkpt>
      <trkpt lat="43.73309" lon="1.4647">
        <ele>155.92902</ele>
        <time>2023-07-30T14:11:33.000Z</time>
      </trkpt>
      <trkpt lat="43.73307" lon="1.46469">
        <ele>155.965543</ele>
        <time>2023-07-30T14:11:34.000Z</time>
      </trkpt>
      <trkpt lat="43.73305" lon="1.46468">
        <ele>156.031433</ele>
        <time>2023-07-30T14:11:35.000Z</time>
      </trkpt>
      <trkpt lat="43.73305" lon="1.46468">
        <ele>156.031433</ele>
        <time>2023-07-30T14:11:35.000Z</time>
      </trkpt>
      <trkpt lat="43.73303" lon="1.46467">
        <ele>156.080131</ele>
        <time>2023-07-30T14:11:38.000Z</time>
      </trkpt>
      <trkpt lat="43.73301" lon="1.46466">
        <ele>156.135445</ele>
        <time>2023-07-30T14:11:38.000Z</time>
      </trkpt>
      <trkpt lat="43.73298" lon="1.46465">
        <ele>156.202314</ele>
        <time>2023-07-30T14:11:39.000Z</time>
      </trkpt>
      <trkpt lat="43.73298" lon="1.46465">
        <ele>156.202314</ele>
        <time>2023-07-30T14:11:39.000Z</time>
      </trkpt>
      <trkpt lat="43.73295" lon="1.46463">
        <ele>156.277611</ele>
        <time>2023-07-30T14:11:40.000Z</time>
      </trkpt>
      <trkpt lat="43.73295" lon="1.46463">
        <ele>156.277611</ele>
        <time>2023-07-30T14:11:40.000Z</time>
      </trkpt>
      <trkpt lat="43.73292" lon="1.46463">
        <ele>156.339013</ele>
        <time>2023-07-30T14:11:41.000Z</time>
      </trkpt>
      <trkpt lat="43.73292" lon="1.46463">
        <ele>156.339013</ele>
        <time>2023-07-30T14:11:41.000Z</time>
      </trkpt>
      <trkpt lat="43.73289" lon="1.46463">
        <ele>156.411546</ele>
        <time>2023-07-30T14:11:43.000Z</time>
      </trkpt>
      <trkpt lat="43.73289" lon="1.46463">
        <ele>156.411546</ele>
        <time>2023-07-30T14:11:43.000Z</time>
      </trkpt>
      <trkpt lat="43.73286" lon="1.46464">
        <ele>156.48271</ele>
        <time>2023-07-30T14:11:44.000Z</time>
      </trkpt>
      <trkpt lat="43.73286" lon="1.46464">
        <ele>156.48271</ele>
        <time>2023-07-30T14:11:44.000Z</time>
      </trkpt>
      <trkpt lat="43.73282" lon="1.46466">
        <ele>156.585482</ele>
        <time>2023-07-30T14:11:45.000Z</time>
      </trkpt>
      <trkpt lat="43.73282" lon="1.46466">
        <ele>156.585482</ele>
        <time>2023-07-30T14:11:45.000Z</time>
      </trkpt>
      <trkpt lat="43.7328" lon="1.46468">
        <ele>156.643616</ele>
        <time>2023-07-30T14:11:46.000Z</time>
      </trkpt>
      <trkpt lat="43.7328" lon="1.46468">
        <ele>156.643616</ele>
        <time>2023-07-30T14:11:46.000Z</time>
      </trkpt>
      <trkpt lat="43.73277" lon="1.46473">
        <ele>156.751174</ele>
        <time>2023-07-30T14:11:47.000Z</time>
      </trkpt>
      <trkpt lat="43.73277" lon="1.46473">
        <ele>156.751174</ele>
        <time>2023-07-30T14:11:47.000Z</time>
      </trkpt>
      <trkpt lat="43.73274" lon="1.46476">
        <ele>156.837709</ele>
        <time>2023-07-30T14:11:48.000Z</time>
      </trkpt>
      <trkpt lat="43.73274" lon="1.46476">
        <ele>156.837709</ele>
        <time>2023-07-30T14:11:48.000Z</time>
      </trkpt>
      <trkpt lat="43.73271" lon="1.4648">
        <ele>156.932838</ele>
        <time>2023-07-30T14:11:50.000Z</time>
      </trkpt>
      <trkpt lat="43.73271" lon="1.4648">
        <ele>156.932838</ele>
        <time>2023-07-30T14:11:50.000Z</time>
      </trkpt>
      <trkpt lat="43.73268" lon="1.46485">
        <ele>157.041651</ele>
        <time>2023-07-30T14:11:51.000Z</time>
      </trkpt>
      <trkpt lat="43.73266" lon="1.46489">
        <ele>157.132588</ele>
        <time>2023-07-30T14:11:52.000Z</time>
      </trkpt>
      <trkpt lat="43.73266" lon="1.46489">
        <ele>157.132588</ele>
        <time>2023-07-30T14:11:52.000Z</time>
      </trkpt>
      <trkpt lat="43.73263" lon="1.46493">
        <ele>157.232756</ele>
        <time>2023-07-30T14:11:53.000Z</time>
      </trkpt>
      <trkpt lat="43.73261" lon="1.46498">
        <ele>157.320848</ele>
        <time>2023-07-30T14:11:55.000Z</time>
      </trkpt>
      <trkpt lat="43.73261" lon="1.46498">
        <ele>157.320848</ele>
        <time>2023-07-30T14:11:55.000Z</time>
      </trkpt>
      <trkpt lat="43.73259" lon="1.46503">
        <ele>157.419609</ele>
        <time>2023-07-30T14:11:56.000Z</time>
      </trkpt>
      <trkpt lat="43.73256" lon="1.46508">
        <ele>157.524103</ele>
        <time>2023-07-30T14:11:57.000Z</time>
      </trkpt>
      <trkpt lat="43.73254" lon="1.46514">
        <ele>157.643574</ele>
        <time>2023-07-30T14:11:58.000Z</time>
      </trkpt>
      <trkpt lat="43.73254" lon="1.46514">
        <ele>157.643574</ele>
        <time>2023-07-30T14:11:58.000Z</time>
      </trkpt>
      <trkpt lat="43.7325" lon="1.46521">
        <ele>157.790369</ele>
        <time>2023-07-30T14:11:59.000Z</time>
      </trkpt>
      <trkpt lat="43.7325" lon="1.46521">
        <ele>157.790369</ele>
        <time>2023-07-30T14:11:59.000Z</time>
      </trkpt>
      <trkpt lat="43.73247" lon="1.46528">
        <ele>157.924632</ele>
        <time>2023-07-30T14:12:01.000Z</time>
      </trkpt>
      <trkpt lat="43.73247" lon="1.46528">
        <ele>157.924632</ele>
        <time>2023-07-30T14:12:01.000Z</time>
      </trkpt>
      <trkpt lat="43.73245" lon="1.46532">
        <ele>158.016421</ele>
        <time>2023-07-30T14:12:01.000Z</time>
      </trkpt>
      <trkpt lat="43.73242" lon="1.46537">
        <ele>158.11097</ele>
        <time>2023-07-30T14:12:02.000Z</time>
      </trkpt>
      <trkpt lat="43.7324" lon="1.46538">
        <ele>158.163893</ele>
        <time>2023-07-30T14:12:04.000Z</time>
      </trkpt>
      <trkpt lat="43.7324" lon="1.46538">
        <ele>158.163893</ele>
        <time>2023-07-30T14:12:04.000Z</time>
      </trkpt>
      <trkpt lat="43.73239" lon="1.4654">
        <ele>158.211458</ele>
        <time>2023-07-30T14:12:05.000Z</time>
      </trkpt>
      <trkpt lat="43.73236" lon="1.46541">
        <ele>158.276046</ele>
        <time>2023-07-30T14:12:06.000Z</time>
      </trkpt>
      <trkpt lat="43.73236" lon="1.46541">
        <ele>158.276046</ele>
        <time>2023-07-30T14:12:06.000Z</time>
      </trkpt>
      <trkpt lat="43.73232" lon="1.4654">
        <ele>158.386592</ele>
        <time>2023-07-30T14:12:08.000Z</time>
      </trkpt>
      <trkpt lat="43.73232" lon="1.4654">
        <ele>158.386592</ele>
        <time>2023-07-30T14:12:08.000Z</time>
      </trkpt>
      <trkpt lat="43.73229" lon="1.46539">
        <ele>158.457757</ele>
        <time>2023-07-30T14:12:09.000Z</time>
      </trkpt>
      <trkpt lat="43.73229" lon="1.46539">
        <ele>158.457757</ele>
        <time>2023-07-30T14:12:09.000Z</time>
      </trkpt>
      <trkpt lat="43.73226" lon="1.46538">
        <ele>158.52272</ele>
        <time>2023-07-30T14:12:11.000Z</time>
      </trkpt>
      <trkpt lat="43.73226" lon="1.46538">
        <ele>158.52272</ele>
        <time>2023-07-30T14:12:11.000Z</time>
      </trkpt>
      <trkpt lat="43.73223" lon="1.46537">
        <ele>158.587308</ele>
        <time>2023-07-30T14:12:12.000Z</time>
      </trkpt>
      <trkpt lat="43.73223" lon="1.46537">
        <ele>158.587308</ele>
        <time>2023-07-30T14:12:12.000Z</time>
      </trkpt>
      <trkpt lat="43.7322" lon="1.46536">
        <ele>158.660842</ele>
        <time>2023-07-30T14:12:13.000Z</time>
      </trkpt>
      <trkpt lat="43.7322" lon="1.46536">
        <ele>158.660842</ele>
        <time>2023-07-30T14:12:13.000Z</time>
      </trkpt>
      <trkpt lat="43.73217" lon="1.46535">
        <ele>158.727711</ele>
        <time>2023-07-30T14:12:14.000Z</time>
      </trkpt>
      <trkpt lat="43.73217" lon="1.46535">
        <ele>158.727711</ele>
        <time>2023-07-30T14:12:14.000Z</time>
      </trkpt>
      <trkpt lat="43.73214" lon="1.46534">
        <ele>158.809386</ele>
        <time>2023-07-30T14:12:15.000Z</time>
      </trkpt>
      <trkpt lat="43.73214" lon="1.46534">
        <ele>158.809386</ele>
        <time>2023-07-30T14:12:15.000Z</time>
      </trkpt>
      <trkpt lat="43.73211" lon="1.46532">
        <ele>158.97464</ele>
        <time>2023-07-30T14:12:16.000Z</time>
      </trkpt>
      <trkpt lat="43.73211" lon="1.46532">
        <ele>158.97464</ele>
        <time>2023-07-30T14:12:16.000Z</time>
      </trkpt>
      <trkpt lat="43.73208" lon="1.4653">
        <ele>159.177524</ele>
        <time>2023-07-30T14:12:16.000Z</time>
      </trkpt>
      <trkpt lat="43.73208" lon="1.4653">
        <ele>159.177524</ele>
        <time>2023-07-30T14:12:16.000Z</time>
      </trkpt>
      <trkpt lat="43.73202" lon="1.46526">
        <ele>159.622541</ele>
        <time>2023-07-30T14:12:18.000Z</time>
      </trkpt>
      <trkpt lat="43.73202" lon="1.46526">
        <ele>159.622541</ele>
        <time>2023-07-30T14:12:18.000Z</time>
      </trkpt>
      <trkpt lat="43.73199" lon="1.46524">
        <ele>159.804886</ele>
        <time>2023-07-30T14:12:19.000Z</time>
      </trkpt>
      <trkpt lat="43.73199" lon="1.46524">
        <ele>159.804886</ele>
        <time>2023-07-30T14:12:19.000Z</time>
      </trkpt>
      <trkpt lat="43.73197" lon="1.46522">
        <ele>159.959587</ele>
        <time>2023-07-30T14:12:22.000Z</time>
      </trkpt>
      <trkpt lat="43.73197" lon="1.46522">
        <ele>159.959587</ele>
        <time>2023-07-30T14:12:22.000Z</time>
      </trkpt>
      <trkpt lat="43.73195" lon="1.4652">
        <ele>160.132238</ele>
        <time>2023-07-30T14:12:23.000Z</time>
      </trkpt>
      <trkpt lat="43.73195" lon="1.4652">
        <ele>160.132238</ele>
        <time>2023-07-30T14:12:23.000Z</time>
      </trkpt>
      <trkpt lat="43.73193" lon="1.46519">
        <ele>160.242319</ele>
        <time>2023-07-30T14:12:24.000Z</time>
      </trkpt>
      <trkpt lat="43.7319" lon="1.46516">
        <ele>160.469984</ele>
        <time>2023-07-30T14:12:25.000Z</time>
      </trkpt>
      <trkpt lat="43.7319" lon="1.46516">
        <ele>160.469984</ele>
        <time>2023-07-30T14:12:25.000Z</time>
      </trkpt>
      <trkpt lat="43.73188" lon="1.46514">
        <ele>160.615228</ele>
        <time>2023-07-30T14:12:26.000Z</time>
      </trkpt>
      <trkpt lat="43.73188" lon="1.46514">
        <ele>160.615228</ele>
        <time>2023-07-30T14:12:26.000Z</time>
      </trkpt>
      <trkpt lat="43.73185" lon="1.4651">
        <ele>160.862672</ele>
        <time>2023-07-30T14:12:27.000Z</time>
      </trkpt>
      <trkpt lat="43.73181" lon="1.46504">
        <ele>161.217521</ele>
        <time>2023-07-30T14:12:29.000Z</time>
      </trkpt>
      <trkpt lat="43.73181" lon="1.46504">
        <ele>161.217521</ele>
        <time>2023-07-30T14:12:29.000Z</time>
      </trkpt>
      <trkpt lat="43.73179" lon="1.46502">
        <ele>161.374038</ele>
        <time>2023-07-30T14:12:30.000Z</time>
      </trkpt>
      <trkpt lat="43.73179" lon="1.46502">
        <ele>161.374038</ele>
        <time>2023-07-30T14:12:30.000Z</time>
      </trkpt>
      <trkpt lat="43.73178" lon="1.46501">
        <ele>161.439629</ele>
        <time>2023-07-30T14:12:31.000Z</time>
      </trkpt>
      <trkpt lat="43.73176" lon="1.46498">
        <ele>161.623134</ele>
        <time>2023-07-30T14:12:32.000Z</time>
      </trkpt>
      <trkpt lat="43.73176" lon="1.46498">
        <ele>161.623134</ele>
        <time>2023-07-30T14:12:32.000Z</time>
      </trkpt>
      <trkpt lat="43.73171" lon="1.46494">
        <ele>161.968436</ele>
        <time>2023-07-30T14:12:33.000Z</time>
      </trkpt>
      <trkpt lat="43.73169" lon="1.46491">
        <ele>162.158591</ele>
        <time>2023-07-30T14:12:35.000Z</time>
      </trkpt>
      <trkpt lat="43.73169" lon="1.46491">
        <ele>162.158591</ele>
        <time>2023-07-30T14:12:35.000Z</time>
      </trkpt>
      <trkpt lat="43.73163" lon="1.46485">
        <ele>162.616491</ele>
        <time>2023-07-30T14:12:36.000Z</time>
      </trkpt>
      <trkpt lat="43.73163" lon="1.46485">
        <ele>162.616491</ele>
        <time>2023-07-30T14:12:36.000Z</time>
      </trkpt>
      <trkpt lat="43.7316" lon="1.46483">
        <ele>162.809397</ele>
        <time>2023-07-30T14:12:38.000Z</time>
      </trkpt>
      <trkpt lat="43.73158" lon="1.46482">
        <ele>162.936469</ele>
        <time>2023-07-30T14:12:38.000Z</time>
      </trkpt>
      <trkpt lat="43.73158" lon="1.46482">
        <ele>162.936469</ele>
        <time>2023-07-30T14:12:38.000Z</time>
      </trkpt>
      <trkpt lat="43.73156" lon="1.46481">
        <ele>163.035943</ele>
        <time>2023-07-30T14:12:39.000Z</time>
      </trkpt>
      <trkpt lat="43.73153" lon="1.4648">
        <ele>163.229615</ele>
        <time>2023-07-30T14:12:42.000Z</time>
      </trkpt>
      <trkpt lat="43.73153" lon="1.4648">
        <ele>163.229615</ele>
        <time>2023-07-30T14:12:42.000Z</time>
      </trkpt>
      <trkpt lat="43.73152" lon="1.46479">
        <ele>163.32349</ele>
        <time>2023-07-30T14:12:43.000Z</time>
      </trkpt>
      <trkpt lat="43.73152" lon="1.46479">
        <ele>163.32349</ele>
        <time>2023-07-30T14:12:43.000Z</time>
      </trkpt>
      <trkpt lat="43.7315" lon="1.46479">
        <ele>163.439177</ele>
        <time>2023-07-30T14:12:44.000Z</time>
      </trkpt>
      <trkpt lat="43.7315" lon="1.46479">
        <ele>163.439177</ele>
        <time>2023-07-30T14:12:44.000Z</time>
      </trkpt>
      <trkpt lat="43.73146" lon="1.46479">
        <ele>163.652538</ele>
        <time>2023-07-30T14:12:45.000Z</time>
      </trkpt>
      <trkpt lat="43.73146" lon="1.46479">
        <ele>163.652538</ele>
        <time>2023-07-30T14:12:45.000Z</time>
      </trkpt>
      <trkpt lat="43.73146" lon="1.46479">
        <ele>163.652538</ele>
        <time>2023-07-30T14:12:46.000Z</time>
      </trkpt>
      <trkpt lat="43.73137" lon="1.46478">
        <ele>164.206844</ele>
        <time>2023-07-30T14:12:47.000Z</time>
      </trkpt>
      <trkpt lat="43.73137" lon="1.46478">
        <ele>164.206844</ele>
        <time>2023-07-30T14:12:47.000Z</time>
      </trkpt>
      <trkpt lat="43.73135" lon="1.46478">
        <ele>164.347061</ele>
        <time>2023-07-30T14:12:49.000Z</time>
      </trkpt>
      <trkpt lat="43.73133" lon="1.46479">
        <ele>164.495122</ele>
        <time>2023-07-30T14:12:50.000Z</time>
      </trkpt>
      <trkpt lat="43.73133" lon="1.46479">
        <ele>164.495122</ele>
        <time>2023-07-30T14:12:50.000Z</time>
      </trkpt>
      <trkpt lat="43.73131" lon="1.4648">
        <ele>164.613697</ele>
        <time>2023-07-30T14:12:51.000Z</time>
      </trkpt>
      <trkpt lat="43.73131" lon="1.4648">
        <ele>164.613697</ele>
        <time>2023-07-30T14:12:51.000Z</time>
      </trkpt>
      <trkpt lat="43.73129" lon="1.4648">
        <ele>164.753706</ele>
        <time>2023-07-30T14:12:52.000Z</time>
      </trkpt>
      <trkpt lat="43.73129" lon="1.4648">
        <ele>164.753706</ele>
        <time>2023-07-30T14:12:52.000Z</time>
      </trkpt>
      <trkpt lat="43.73127" lon="1.4648">
        <ele>164.845395</ele>
        <time>2023-07-30T14:12:53.000Z</time>
      </trkpt>
      <trkpt lat="43.73127" lon="1.4648">
        <ele>164.845395</ele>
        <time>2023-07-30T14:12:53.000Z</time>
      </trkpt>
      <trkpt lat="43.73123" lon="1.46479">
        <ele>165.104693</ele>
        <time>2023-07-30T14:12:53.000Z</time>
      </trkpt>
      <trkpt lat="43.73123" lon="1.46479">
        <ele>165.104693</ele>
        <time>2023-07-30T14:12:53.000Z</time>
      </trkpt>
      <trkpt lat="43.7312" lon="1.46478">
        <ele>165.275941</ele>
        <time>2023-07-30T14:12:56.000Z</time>
      </trkpt>
      <trkpt lat="43.7312" lon="1.46478">
        <ele>165.275941</ele>
        <time>2023-07-30T14:12:56.000Z</time>
      </trkpt>
      <trkpt lat="43.73119" lon="1.46477">
        <ele>165.370943</ele>
        <time>2023-07-30T14:12:57.000Z</time>
      </trkpt>
      <trkpt lat="43.73119" lon="1.46477">
        <ele>165.370943</ele>
        <time>2023-07-30T14:12:57.000Z</time>
      </trkpt>
      <trkpt lat="43.73116" lon="1.46476">
        <ele>165.523822</ele>
        <time>2023-07-30T14:12:57.000Z</time>
      </trkpt>
      <trkpt lat="43.73116" lon="1.46476">
        <ele>165.523822</ele>
        <time>2023-07-30T14:12:57.000Z</time>
      </trkpt>
      <trkpt lat="43.73114" lon="1.46474">
        <ele>165.708118</ele>
        <time>2023-07-30T14:12:58.000Z</time>
      </trkpt>
      <trkpt lat="43.73114" lon="1.46474">
        <ele>165.708118</ele>
        <time>2023-07-30T14:12:58.000Z</time>
      </trkpt>
      <trkpt lat="43.73111" lon="1.46472">
        <ele>165.895869</ele>
        <time>2023-07-30T14:13:00.000Z</time>
      </trkpt>
      <trkpt lat="43.73111" lon="1.46472">
        <ele>165.895869</ele>
        <time>2023-07-30T14:13:00.000Z</time>
      </trkpt>
      <trkpt lat="43.73108" lon="1.46469">
        <ele>166.111993</ele>
        <time>2023-07-30T14:13:01.000Z</time>
      </trkpt>
      <trkpt lat="43.73108" lon="1.46469">
        <ele>166.111993</ele>
        <time>2023-07-30T14:13:01.000Z</time>
      </trkpt>
      <trkpt lat="43.73105" lon="1.46467">
        <ele>166.325062</ele>
        <time>2023-07-30T14:13:02.000Z</time>
      </trkpt>
      <trkpt lat="43.73105" lon="1.46467">
        <ele>166.325062</ele>
        <time>2023-07-30T14:13:02.000Z</time>
      </trkpt>
      <trkpt lat="43.73103" lon="1.46465">
        <ele>166.477941</ele>
        <time>2023-07-30T14:13:03.000Z</time>
      </trkpt>
      <trkpt lat="43.73103" lon="1.46465">
        <ele>166.477941</ele>
        <time>2023-07-30T14:13:03.000Z</time>
      </trkpt>
      <trkpt lat="43.73099" lon="1.46464">
        <ele>166.722316</ele>
        <time>2023-07-30T14:13:04.000Z</time>
      </trkpt>
      <trkpt lat="43.73099" lon="1.46464">
        <ele>166.722316</ele>
        <time>2023-07-30T14:13:04.000Z</time>
      </trkpt>
      <trkpt lat="43.73097" lon="1.46463">
        <ele>166.869</ele>
        <time>2023-07-30T14:13:06.000Z</time>
      </trkpt>
      <trkpt lat="43.73097" lon="1.46463">
        <ele>166.869</ele>
        <time>2023-07-30T14:13:06.000Z</time>
      </trkpt>
      <trkpt lat="43.73093" lon="1.46462">
        <ele>167.084166</ele>
        <time>2023-07-30T14:13:07.000Z</time>
      </trkpt>
      <trkpt lat="43.73093" lon="1.46462">
        <ele>167.084166</ele>
        <time>2023-07-30T14:13:07.000Z</time>
      </trkpt>
      <trkpt lat="43.7309" lon="1.46462">
        <ele>167.242421</ele>
        <time>2023-07-30T14:13:08.000Z</time>
      </trkpt>
      <trkpt lat="43.7309" lon="1.46462">
        <ele>167.242421</ele>
        <time>2023-07-30T14:13:08.000Z</time>
      </trkpt>
      <trkpt lat="43.73087" lon="1.46462">
        <ele>167.479752</ele>
        <time>2023-07-30T14:13:09.000Z</time>
      </trkpt>
      <trkpt lat="43.73087" lon="1.46462">
        <ele>167.479752</ele>
        <time>2023-07-30T14:13:09.000Z</time>
      </trkpt>
      <trkpt lat="43.73084" lon="1.46462">
        <ele>167.613897</ele>
        <time>2023-07-30T14:13:09.000Z</time>
      </trkpt>
      <trkpt lat="43.73084" lon="1.46462">
        <ele>167.613897</ele>
        <time>2023-07-30T14:13:09.000Z</time>
      </trkpt>
      <trkpt lat="43.73081" lon="1.46462">
        <ele>167.802563</ele>
        <time>2023-07-30T14:13:11.000Z</time>
      </trkpt>
      <trkpt lat="43.73081" lon="1.46462">
        <ele>167.802563</ele>
        <time>2023-07-30T14:13:11.000Z</time>
      </trkpt>
      <trkpt lat="43.73074" lon="1.46463">
        <ele>168.242048</ele>
        <time>2023-07-30T14:13:13.000Z</time>
      </trkpt>
      <trkpt lat="43.73074" lon="1.46463">
        <ele>168.242048</ele>
        <time>2023-07-30T14:13:13.000Z</time>
      </trkpt>
      <trkpt lat="43.73071" lon="1.46464">
        <ele>168.433158</ele>
        <time>2023-07-30T14:13:15.000Z</time>
      </trkpt>
      <trkpt lat="43.73071" lon="1.46464">
        <ele>168.433158</ele>
        <time>2023-07-30T14:13:15.000Z</time>
      </trkpt>
      <trkpt lat="43.73069" lon="1.46464">
        <ele>168.550832</ele>
        <time>2023-07-30T14:13:15.000Z</time>
      </trkpt>
      <trkpt lat="43.73069" lon="1.46464">
        <ele>168.550832</ele>
        <time>2023-07-30T14:13:15.000Z</time>
      </trkpt>
      <trkpt lat="43.73065" lon="1.46467">
        <ele>168.838407</ele>
        <time>2023-07-30T14:13:17.000Z</time>
      </trkpt>
      <trkpt lat="43.73062" lon="1.46469">
        <ele>169.029045</ele>
        <time>2023-07-30T14:13:17.000Z</time>
      </trkpt>
      <trkpt lat="43.73062" lon="1.46469">
        <ele>169.029045</ele>
        <time>2023-07-30T14:13:17.000Z</time>
      </trkpt>
      <trkpt lat="43.73059" lon="1.46472">
        <ele>169.267553</ele>
        <time>2023-07-30T14:13:18.000Z</time>
      </trkpt>
      <trkpt lat="43.73059" lon="1.46472">
        <ele>169.267553</ele>
        <time>2023-07-30T14:13:18.000Z</time>
      </trkpt>
      <trkpt lat="43.73055" lon="1.46476">
        <ele>169.545285</ele>
        <time>2023-07-30T14:13:19.000Z</time>
      </trkpt>
      <trkpt lat="43.73051" lon="1.46479">
        <ele>169.812385</ele>
        <time>2023-07-30T14:13:22.000Z</time>
      </trkpt>
      <trkpt lat="43.73051" lon="1.46479">
        <ele>169.812385</ele>
        <time>2023-07-30T14:13:22.000Z</time>
      </trkpt>
      <trkpt lat="43.73047" lon="1.46483">
        <ele>169.975283</ele>
        <time>2023-07-30T14:13:23.000Z</time>
      </trkpt>
      <trkpt lat="43.73047" lon="1.46483">
        <ele>169.975283</ele>
        <time>2023-07-30T14:13:23.000Z</time>
      </trkpt>
      <trkpt lat="43.73041" lon="1.46487">
        <ele>170.213563</ele>
        <time>2023-07-30T14:13:23.000Z</time>
      </trkpt>
      <trkpt lat="43.73041" lon="1.46487">
        <ele>170.213563</ele>
        <time>2023-07-30T14:13:23.000Z</time>
      </trkpt>
      <trkpt lat="43.73038" lon="1.4649">
        <ele>170.34798</ele>
        <time>2023-07-30T14:13:24.000Z</time>
      </trkpt>
      <trkpt lat="43.73038" lon="1.4649">
        <ele>170.34798</ele>
        <time>2023-07-30T14:13:24.000Z</time>
      </trkpt>
      <trkpt lat="43.73031" lon="1.46497">
        <ele>170.665982</ele>
        <time>2023-07-30T14:13:26.000Z</time>
      </trkpt>
      <trkpt lat="43.73031" lon="1.46497">
        <ele>170.665982</ele>
        <time>2023-07-30T14:13:26.000Z</time>
      </trkpt>
      <trkpt lat="43.73027" lon="1.465">
        <ele>170.825906</ele>
        <time>2023-07-30T14:13:26.000Z</time>
      </trkpt>
      <trkpt lat="43.73027" lon="1.465">
        <ele>170.825906</ele>
        <time>2023-07-30T14:13:26.000Z</time>
      </trkpt>
      <trkpt lat="43.7302" lon="1.4651">
        <ele>171.197774</ele>
        <time>2023-07-30T14:13:27.000Z</time>
      </trkpt>
      <trkpt lat="43.7302" lon="1.4651">
        <ele>171.197774</ele>
        <time>2023-07-30T14:13:27.000Z</time>
      </trkpt>
      <trkpt lat="43.73013" lon="1.46523">
        <ele>171.621517</ele>
        <time>2023-07-30T14:13:29.000Z</time>
      </trkpt>
      <trkpt lat="43.73013" lon="1.46523">
        <ele>171.621517</ele>
        <time>2023-07-30T14:13:29.000Z</time>
      </trkpt>
      <trkpt lat="43.73009" lon="1.46529">
        <ele>171.829939</ele>
        <time>2023-07-30T14:13:30.000Z</time>
      </trkpt>
      <trkpt lat="43.73009" lon="1.46529">
        <ele>171.829939</ele>
        <time>2023-07-30T14:13:30.000Z</time>
      </trkpt>
      <trkpt lat="43.73005" lon="1.46539">
        <ele>172.119446</ele>
        <time>2023-07-30T14:13:32.000Z</time>
      </trkpt>
      <trkpt lat="43.73005" lon="1.46539">
        <ele>172.119446</ele>
        <time>2023-07-30T14:13:32.000Z</time>
      </trkpt>
      <trkpt lat="43.73003" lon="1.46542">
        <ele>172.224115</ele>
        <time>2023-07-30T14:13:34.000Z</time>
      </trkpt>
      <trkpt lat="43.73003" lon="1.46542">
        <ele>172.224115</ele>
        <time>2023-07-30T14:13:34.000Z</time>
      </trkpt>
      <trkpt lat="43.73002" lon="1.46544">
        <ele>172.313476</ele>
        <time>2023-07-30T14:13:35.000Z</time>
      </trkpt>
      <trkpt lat="43.73002" lon="1.46544">
        <ele>172.313476</ele>
        <time>2023-07-30T14:13:35.000Z</time>
      </trkpt>
      <trkpt lat="43.73" lon="1.46548">
        <ele>172.424186</ele>
        <time>2023-07-30T14:13:37.000Z</time>
      </trkpt>
      <trkpt lat="43.73" lon="1.46548">
        <ele>172.424186</ele>
        <time>2023-07-30T14:13:37.000Z</time>
      </trkpt>
      <trkpt lat="43.72998" lon="1.46551">
        <ele>172.542611</ele>
        <time>2023-07-30T14:13:38.000Z</time>
      </trkpt>
      <trkpt lat="43.72998" lon="1.46551">
        <ele>172.542611</ele>
        <time>2023-07-30T14:13:38.000Z</time>
      </trkpt>
      <trkpt lat="43.72995" lon="1.46555">
        <ele>172.674694</ele>
        <time>2023-07-30T14:13:39.000Z</time>
      </trkpt>
      <trkpt lat="43.72995" lon="1.46555">
        <ele>172.674694</ele>
        <time>2023-07-30T14:13:39.000Z</time>
      </trkpt>
      <trkpt lat="43.72992" lon="1.46559">
        <ele>172.830396</ele>
        <time>2023-07-30T14:13:40.000Z</time>
      </trkpt>
      <trkpt lat="43.72992" lon="1.46559">
        <ele>172.830396</ele>
        <time>2023-07-30T14:13:40.000Z</time>
      </trkpt>
      <trkpt lat="43.7299" lon="1.46562">
        <ele>172.952597</ele>
        <time>2023-07-30T14:13:41.000Z</time>
      </trkpt>
      <trkpt lat="43.7299" lon="1.46562">
        <ele>172.952597</ele>
        <time>2023-07-30T14:13:41.000Z</time>
      </trkpt>
      <trkpt lat="43.72987" lon="1.46567">
        <ele>173.109427</ele>
        <time>2023-07-30T14:13:42.000Z</time>
      </trkpt>
      <trkpt lat="43.72987" lon="1.46567">
        <ele>173.109427</ele>
        <time>2023-07-30T14:13:42.000Z</time>
      </trkpt>
      <trkpt lat="43.72983" lon="1.46571">
        <ele>173.308894</ele>
        <time>2023-07-30T14:13:43.000Z</time>
      </trkpt>
      <trkpt lat="43.7298" lon="1.46575">
        <ele>173.459266</ele>
        <time>2023-07-30T14:13:44.000Z</time>
      </trkpt>
      <trkpt lat="43.7298" lon="1.46575">
        <ele>173.459266</ele>
        <time>2023-07-30T14:13:44.000Z</time>
      </trkpt>
      <trkpt lat="43.72976" lon="1.4658">
        <ele>173.653313</ele>
        <time>2023-07-30T14:13:46.000Z</time>
      </trkpt>
      <trkpt lat="43.72972" lon="1.46584">
        <ele>173.823547</ele>
        <time>2023-07-30T14:13:47.000Z</time>
      </trkpt>
      <trkpt lat="43.72972" lon="1.46584">
        <ele>173.823547</ele>
        <time>2023-07-30T14:13:47.000Z</time>
      </trkpt>
      <trkpt lat="43.72968" lon="1.46588">
        <ele>174.000228</ele>
        <time>2023-07-30T14:13:48.000Z</time>
      </trkpt>
      <trkpt lat="43.72968" lon="1.46588">
        <ele>174.000228</ele>
        <time>2023-07-30T14:13:48.000Z</time>
      </trkpt>
      <trkpt lat="43.72964" lon="1.46591">
        <ele>174.163126</ele>
        <time>2023-07-30T14:13:49.000Z</time>
      </trkpt>
      <trkpt lat="43.72961" lon="1.46593">
        <ele>174.301715</ele>
        <time>2023-07-30T14:13:50.000Z</time>
      </trkpt>
      <trkpt lat="43.72961" lon="1.46593">
        <ele>174.301715</ele>
        <time>2023-07-30T14:13:50.000Z</time>
      </trkpt>
      <trkpt lat="43.72956" lon="1.46596">
        <ele>174.487496</ele>
        <time>2023-07-30T14:13:51.000Z</time>
      </trkpt>
      <trkpt lat="43.72956" lon="1.46596">
        <ele>174.487496</ele>
        <time>2023-07-30T14:13:51.000Z</time>
      </trkpt>
      <trkpt lat="43.72948" lon="1.46606">
        <ele>174.879749</ele>
        <time>2023-07-30T14:13:53.000Z</time>
      </trkpt>
      <trkpt lat="43.72948" lon="1.46606">
        <ele>174.879749</ele>
        <time>2023-07-30T14:13:53.000Z</time>
      </trkpt>
      <trkpt lat="43.72946" lon="1.4661">
        <ele>175.0165</ele>
        <time>2023-07-30T14:13:54.000Z</time>
      </trkpt>
      <trkpt lat="43.72944" lon="1.46614">
        <ele>175.133471</ele>
        <time>2023-07-30T14:13:55.000Z</time>
      </trkpt>
      <trkpt lat="43.72942" lon="1.46621">
        <ele>175.320021</ele>
        <time>2023-07-30T14:13:56.000Z</time>
      </trkpt>
      <trkpt lat="43.72942" lon="1.46621">
        <ele>175.320021</ele>
        <time>2023-07-30T14:13:56.000Z</time>
      </trkpt>
      <trkpt lat="43.72941" lon="1.46627">
        <ele>175.482916</ele>
        <time>2023-07-30T14:13:58.000Z</time>
      </trkpt>
      <trkpt lat="43.72941" lon="1.46627">
        <ele>175.482916</ele>
        <time>2023-07-30T14:13:58.000Z</time>
      </trkpt>
      <trkpt lat="43.72939" lon="1.46631">
        <ele>175.608515</ele>
        <time>2023-07-30T14:13:59.000Z</time>
      </trkpt>
      <trkpt lat="43.72937" lon="1.46636">
        <ele>175.763751</ele>
        <time>2023-07-30T14:14:00.000Z</time>
      </trkpt>
      <trkpt lat="43.72937" lon="1.46636">
        <ele>175.763751</ele>
        <time>2023-07-30T14:14:00.000Z</time>
      </trkpt>
      <trkpt lat="43.72934" lon="1.4664">
        <ele>175.919249</ele>
        <time>2023-07-30T14:14:00.000Z</time>
      </trkpt>
      <trkpt lat="43.72934" lon="1.4664">
        <ele>175.919249</ele>
        <time>2023-07-30T14:14:00.000Z</time>
      </trkpt>
      <trkpt lat="43.72932" lon="1.46644">
        <ele>176.053376</ele>
        <time>2023-07-30T14:14:01.000Z</time>
      </trkpt>
      <trkpt lat="43.72929" lon="1.46649">
        <ele>176.220621</ele>
        <time>2023-07-30T14:14:02.000Z</time>
      </trkpt>
      <trkpt lat="43.72929" lon="1.46649">
        <ele>176.220621</ele>
        <time>2023-07-30T14:14:02.000Z</time>
      </trkpt>
      <trkpt lat="43.72925" lon="1.46654">
        <ele>176.125398</ele>
        <time>2023-07-30T14:14:04.000Z</time>
      </trkpt>
      <trkpt lat="43.72925" lon="1.46654">
        <ele>176.125398</ele>
        <time>2023-07-30T14:14:04.000Z</time>
      </trkpt>
      <trkpt lat="43.72921" lon="1.46658">
        <ele>175.882639</ele>
        <time>2023-07-30T14:14:05.000Z</time>
      </trkpt>
      <trkpt lat="43.72916" lon="1.46664">
        <ele>175.546821</ele>
        <time>2023-07-30T14:14:07.000Z</time>
      </trkpt>
      <trkpt lat="43.72916" lon="1.46664">
        <ele>175.546821</ele>
        <time>2023-07-30T14:14:07.000Z</time>
      </trkpt>
      <trkpt lat="43.72913" lon="1.46669">
        <ele>175.30172</ele>
        <time>2023-07-30T14:14:08.000Z</time>
      </trkpt>
      <trkpt lat="43.72913" lon="1.46669">
        <ele>175.30172</ele>
        <time>2023-07-30T14:14:08.000Z</time>
      </trkpt>
      <trkpt lat="43.72911" lon="1.46673">
        <ele>175.142348</ele>
        <time>2023-07-30T14:14:09.000Z</time>
      </trkpt>
      <trkpt lat="43.72911" lon="1.46673">
        <ele>175.142348</ele>
        <time>2023-07-30T14:14:09.000Z</time>
      </trkpt>
      <trkpt lat="43.7291" lon="1.46677">
        <ele>174.994755</ele>
        <time>2023-07-30T14:14:10.000Z</time>
      </trkpt>
      <trkpt lat="43.72913" lon="1.46681">
        <ele>174.79409</ele>
        <time>2023-07-30T14:14:11.000Z</time>
      </trkpt>
      <trkpt lat="43.72917" lon="1.46687">
        <ele>174.500255</ele>
        <time>2023-07-30T14:14:13.000Z</time>
      </trkpt>
      <trkpt lat="43.72921" lon="1.46692">
        <ele>174.233561</ele>
        <time>2023-07-30T14:14:14.000Z</time>
      </trkpt>
      <trkpt lat="43.72926" lon="1.46702">
        <ele>173.758353</ele>
        <time>2023-07-30T14:14:15.000Z</time>
      </trkpt>
      <trkpt lat="43.72926" lon="1.46702">
        <ele>173.758353</ele>
        <time>2023-07-30T14:14:15.000Z</time>
      </trkpt>
      <trkpt lat="43.7293" lon="1.46707">
        <ele>173.496965</ele>
        <time>2023-07-30T14:14:16.000Z</time>
      </trkpt>
      <trkpt lat="43.72933" lon="1.46713">
        <ele>173.238949</ele>
        <time>2023-07-30T14:14:17.000Z</time>
      </trkpt>
      <trkpt lat="43.72933" lon="1.46713">
        <ele>173.238949</ele>
        <time>2023-07-30T14:14:17.000Z</time>
      </trkpt>
      <trkpt lat="43.72937" lon="1.46719">
        <ele>172.937434</ele>
        <time>2023-07-30T14:14:18.000Z</time>
      </trkpt>
      <trkpt lat="43.72937" lon="1.46719">
        <ele>172.937434</ele>
        <time>2023-07-30T14:14:18.000Z</time>
      </trkpt>
      <trkpt lat="43.72943" lon="1.46726">
        <ele>172.5658</ele>
        <time>2023-07-30T14:14:19.000Z</time>
      </trkpt>
      <trkpt lat="43.72943" lon="1.46726">
        <ele>172.5658</ele>
        <time>2023-07-30T14:14:19.000Z</time>
      </trkpt>
      <trkpt lat="43.72948" lon="1.46731">
        <ele>172.23943</ele>
        <time>2023-07-30T14:14:20.000Z</time>
      </trkpt>
      <trkpt lat="43.72948" lon="1.46731">
        <ele>172.23943</ele>
        <time>2023-07-30T14:14:20.000Z</time>
      </trkpt>
      <trkpt lat="43.72952" lon="1.46737">
        <ele>171.92096</ele>
        <time>2023-07-30T14:14:21.000Z</time>
      </trkpt>
      <trkpt lat="43.72952" lon="1.46737">
        <ele>171.92096</ele>
        <time>2023-07-30T14:14:21.000Z</time>
      </trkpt>
      <trkpt lat="43.72957" lon="1.46742">
        <ele>171.620593</ele>
        <time>2023-07-30T14:14:22.000Z</time>
      </trkpt>
      <trkpt lat="43.72957" lon="1.46742">
        <ele>171.620593</ele>
        <time>2023-07-30T14:14:22.000Z</time>
      </trkpt>
      <trkpt lat="43.72963" lon="1.46746">
        <ele>171.318613</ele>
        <time>2023-07-30T14:14:23.000Z</time>
      </trkpt>
      <trkpt lat="43.72963" lon="1.46746">
        <ele>171.318613</ele>
        <time>2023-07-30T14:14:23.000Z</time>
      </trkpt>
      <trkpt lat="43.72968" lon="1.46749">
        <ele>171.028723</ele>
        <time>2023-07-30T14:14:24.000Z</time>
      </trkpt>
      <trkpt lat="43.72968" lon="1.46749">
        <ele>171.028723</ele>
        <time>2023-07-30T14:14:24.000Z</time>
      </trkpt>
      <trkpt lat="43.72974" lon="1.46752">
        <ele>170.679906</ele>
        <time>2023-07-30T14:14:25.000Z</time>
      </trkpt>
      <trkpt lat="43.72974" lon="1.46752">
        <ele>170.679906</ele>
        <time>2023-07-30T14:14:25.000Z</time>
      </trkpt>
      <trkpt lat="43.72981" lon="1.46755">
        <ele>170.318648</ele>
        <time>2023-07-30T14:14:26.000Z</time>
      </trkpt>
      <trkpt lat="43.72981" lon="1.46755">
        <ele>170.318648</ele>
        <time>2023-07-30T14:14:26.000Z</time>
      </trkpt>
      <trkpt lat="43.72989" lon="1.46758">
        <ele>169.921464</ele>
        <time>2023-07-30T14:14:27.000Z</time>
      </trkpt>
      <trkpt lat="43.72989" lon="1.46758">
        <ele>169.921464</ele>
        <time>2023-07-30T14:14:27.000Z</time>
      </trkpt>
      <trkpt lat="43.72996" lon="1.46761">
        <ele>169.558157</ele>
        <time>2023-07-30T14:14:28.000Z</time>
      </trkpt>
      <trkpt lat="43.72996" lon="1.46761">
        <ele>169.558157</ele>
        <time>2023-07-30T14:14:28.000Z</time>
      </trkpt>
      <trkpt lat="43.73003" lon="1.46764">
        <ele>169.171212</ele>
        <time>2023-07-30T14:14:29.000Z</time>
      </trkpt>
      <trkpt lat="43.73003" lon="1.46764">
        <ele>169.171212</ele>
        <time>2023-07-30T14:14:29.000Z</time>
      </trkpt>
      <trkpt lat="43.73009" lon="1.46768">
        <ele>168.855548</ele>
        <time>2023-07-30T14:14:30.000Z</time>
      </trkpt>
      <trkpt lat="43.73009" lon="1.46768">
        <ele>168.855548</ele>
        <time>2023-07-30T14:14:30.000Z</time>
      </trkpt>
      <trkpt lat="43.73014" lon="1.46772">
        <ele>168.550338</ele>
        <time>2023-07-30T14:14:31.000Z</time>
      </trkpt>
      <trkpt lat="43.73014" lon="1.46772">
        <ele>168.550338</ele>
        <time>2023-07-30T14:14:31.000Z</time>
      </trkpt>
      <trkpt lat="43.73019" lon="1.46777">
        <ele>168.220902</ele>
        <time>2023-07-30T14:14:32.000Z</time>
      </trkpt>
      <trkpt lat="43.73019" lon="1.46777">
        <ele>168.220902</ele>
        <time>2023-07-30T14:14:32.000Z</time>
      </trkpt>
      <trkpt lat="43.73025" lon="1.46783">
        <ele>167.878739</ele>
        <time>2023-07-30T14:14:33.000Z</time>
      </trkpt>
      <trkpt lat="43.73025" lon="1.46783">
        <ele>167.878739</ele>
        <time>2023-07-30T14:14:33.000Z</time>
      </trkpt>
      <trkpt lat="43.7303" lon="1.46789">
        <ele>167.531442</ele>
        <time>2023-07-30T14:14:34.000Z</time>
      </trkpt>
      <trkpt lat="43.7303" lon="1.46789">
        <ele>167.531442</ele>
        <time>2023-07-30T14:14:34.000Z</time>
      </trkpt>
      <trkpt lat="43.73035" lon="1.46794">
        <ele>167.228671</ele>
        <time>2023-07-30T14:14:35.000Z</time>
      </trkpt>
      <trkpt lat="43.73035" lon="1.46794">
        <ele>167.228671</ele>
        <time>2023-07-30T14:14:35.000Z</time>
      </trkpt>
      <trkpt lat="43.7304" lon="1.468">
        <ele>167.246169</ele>
        <time>2023-07-30T14:14:36.000Z</time>
      </trkpt>
      <trkpt lat="43.7304" lon="1.468">
        <ele>167.246169</ele>
        <time>2023-07-30T14:14:36.000Z</time>
      </trkpt>
      <trkpt lat="43.73043" lon="1.46804">
        <ele>167.258578</ele>
        <time>2023-07-30T14:14:37.000Z</time>
      </trkpt>
      <trkpt lat="43.73043" lon="1.46804">
        <ele>167.258578</ele>
        <time>2023-07-30T14:14:37.000Z</time>
      </trkpt>
      <trkpt lat="43.73046" lon="1.46808">
        <ele>167.269695</ele>
        <time>2023-07-30T14:14:38.000Z</time>
      </trkpt>
      <trkpt lat="43.73046" lon="1.46808">
        <ele>167.269695</ele>
        <time>2023-07-30T14:14:38.000Z</time>
      </trkpt>
      <trkpt lat="43.7305" lon="1.46812">
        <ele>167.282023</ele>
        <time>2023-07-30T14:14:39.000Z</time>
      </trkpt>
      <trkpt lat="43.7305" lon="1.46812">
        <ele>167.282023</ele>
        <time>2023-07-30T14:14:39.000Z</time>
      </trkpt>
      <trkpt lat="43.73053" lon="1.46816">
        <ele>167.293745</ele>
        <time>2023-07-30T14:14:40.000Z</time>
      </trkpt>
      <trkpt lat="43.73053" lon="1.46816">
        <ele>167.293745</ele>
        <time>2023-07-30T14:14:40.000Z</time>
      </trkpt>
      <trkpt lat="43.73056" lon="1.46819">
        <ele>167.30398</ele>
        <time>2023-07-30T14:14:41.000Z</time>
      </trkpt>
      <trkpt lat="43.73056" lon="1.46819">
        <ele>167.30398</ele>
        <time>2023-07-30T14:14:41.000Z</time>
      </trkpt>
      <trkpt lat="43.73059" lon="1.46823">
        <ele>167.316264</ele>
        <time>2023-07-30T14:14:42.000Z</time>
      </trkpt>
      <trkpt lat="43.73059" lon="1.46823">
        <ele>167.316264</ele>
        <time>2023-07-30T14:14:42.000Z</time>
      </trkpt>
      <trkpt lat="43.73063" lon="1.46827">
        <ele>167.328088</ele>
        <time>2023-07-30T14:14:43.000Z</time>
      </trkpt>
      <trkpt lat="43.73063" lon="1.46827">
        <ele>167.328088</ele>
        <time>2023-07-30T14:14:43.000Z</time>
      </trkpt>
      <trkpt lat="43.73065" lon="1.4683">
        <ele>167.337433</ele>
        <time>2023-07-30T14:14:45.000Z</time>
      </trkpt>
      <trkpt lat="43.73065" lon="1.4683">
        <ele>167.337433</ele>
        <time>2023-07-30T14:14:45.000Z</time>
      </trkpt>
      <trkpt lat="43.73068" lon="1.46833">
        <ele>167.348456</ele>
        <time>2023-07-30T14:14:46.000Z</time>
      </trkpt>
      <trkpt lat="43.73068" lon="1.46833">
        <ele>167.348456</ele>
        <time>2023-07-30T14:14:46.000Z</time>
      </trkpt>
      <trkpt lat="43.73071" lon="1.46837">
        <ele>167.359646</ele>
        <time>2023-07-30T14:14:47.000Z</time>
      </trkpt>
      <trkpt lat="43.73071" lon="1.46837">
        <ele>167.359646</ele>
        <time>2023-07-30T14:14:47.000Z</time>
      </trkpt>
      <trkpt lat="43.73075" lon="1.46842">
        <ele>167.374117</ele>
        <time>2023-07-30T14:14:48.000Z</time>
      </trkpt>
      <trkpt lat="43.73075" lon="1.46842">
        <ele>167.374117</ele>
        <time>2023-07-30T14:14:48.000Z</time>
      </trkpt>
      <trkpt lat="43.73077" lon="1.46845">
        <ele>167.383174</ele>
        <time>2023-07-30T14:14:49.000Z</time>
      </trkpt>
      <trkpt lat="43.73077" lon="1.46845">
        <ele>167.383174</ele>
        <time>2023-07-30T14:14:49.000Z</time>
      </trkpt>
      <trkpt lat="43.7308" lon="1.4685">
        <ele>167.395034</ele>
        <time>2023-07-30T14:14:50.000Z</time>
      </trkpt>
      <trkpt lat="43.7308" lon="1.4685">
        <ele>167.395034</ele>
        <time>2023-07-30T14:14:50.000Z</time>
      </trkpt>
      <trkpt lat="43.73082" lon="1.46859">
        <ele>167.412798</ele>
        <time>2023-07-30T14:14:52.000Z</time>
      </trkpt>
      <trkpt lat="43.73082" lon="1.46859">
        <ele>167.412798</ele>
        <time>2023-07-30T14:14:52.000Z</time>
      </trkpt>
      <trkpt lat="43.73082" lon="1.46861">
        <ele>167.418242</ele>
        <time>2023-07-30T14:14:53.000Z</time>
      </trkpt>
      <trkpt lat="43.7308" lon="1.46869">
        <ele>167.434128</ele>
        <time>2023-07-30T14:14:55.000Z</time>
      </trkpt>
      <trkpt lat="43.73078" lon="1.46871">
        <ele>167.440775</ele>
        <time>2023-07-30T14:14:56.000Z</time>
      </trkpt>
      <trkpt lat="43.73078" lon="1.46871">
        <ele>167.440775</ele>
        <time>2023-07-30T14:14:56.000Z</time>
      </trkpt>
      <trkpt lat="43.73073" lon="1.46874">
        <ele>167.454593</ele>
        <time>2023-07-30T14:14:58.000Z</time>
      </trkpt>
      <trkpt lat="43.73073" lon="1.46874">
        <ele>167.454593</ele>
        <time>2023-07-30T14:14:58.000Z</time>
      </trkpt>
      <trkpt lat="43.73071" lon="1.46875">
        <ele>167.461076</ele>
        <time>2023-07-30T14:14:58.000Z</time>
      </trkpt>
      <trkpt lat="43.73071" lon="1.46875">
        <ele>167.461076</ele>
        <time>2023-07-30T14:14:58.000Z</time>
      </trkpt>
      <trkpt lat="43.73068" lon="1.46875">
        <ele>167.469287</ele>
        <time>2023-07-30T14:15:00.000Z</time>
      </trkpt>
      <trkpt lat="43.73068" lon="1.46875">
        <ele>167.469287</ele>
        <time>2023-07-30T14:15:00.000Z</time>
      </trkpt>
      <trkpt lat="43.73064" lon="1.46874">
        <ele>167.479977</ele>
        <time>2023-07-30T14:15:01.000Z</time>
      </trkpt>
      <trkpt lat="43.73064" lon="1.46874">
        <ele>167.479977</ele>
        <time>2023-07-30T14:15:01.000Z</time>
      </trkpt>
      <trkpt lat="43.73061" lon="1.46874">
        <ele>167.489305</ele>
        <time>2023-07-30T14:15:02.000Z</time>
      </trkpt>
      <trkpt lat="43.73061" lon="1.46874">
        <ele>167.489305</ele>
        <time>2023-07-30T14:15:02.000Z</time>
      </trkpt>
      <trkpt lat="43.73058" lon="1.46873">
        <ele>167.495788</ele>
        <time>2023-07-30T14:15:04.000Z</time>
      </trkpt>
      <trkpt lat="43.73058" lon="1.46873">
        <ele>167.495788</ele>
        <time>2023-07-30T14:15:04.000Z</time>
      </trkpt>
      <trkpt lat="43.73055" lon="1.46872">
        <ele>167.505485</ele>
        <time>2023-07-30T14:15:05.000Z</time>
      </trkpt>
      <trkpt lat="43.73055" lon="1.46872">
        <ele>167.505485</ele>
        <time>2023-07-30T14:15:05.000Z</time>
      </trkpt>
      <trkpt lat="43.73053" lon="1.46871">
        <ele>167.510812</ele>
        <time>2023-07-30T14:15:06.000Z</time>
      </trkpt>
      <trkpt lat="43.73053" lon="1.46871">
        <ele>167.510812</ele>
        <time>2023-07-30T14:15:06.000Z</time>
      </trkpt>
      <trkpt lat="43.73051" lon="1.46871">
        <ele>167.515344</ele>
        <time>2023-07-30T14:15:07.000Z</time>
      </trkpt>
      <trkpt lat="43.73051" lon="1.46871">
        <ele>167.515344</ele>
        <time>2023-07-30T14:15:07.000Z</time>
      </trkpt>
      <trkpt lat="43.73046" lon="1.46868">
        <ele>167.531073</ele>
        <time>2023-07-30T14:15:09.000Z</time>
      </trkpt>
      <trkpt lat="43.73046" lon="1.46868">
        <ele>167.531073</ele>
        <time>2023-07-30T14:15:09.000Z</time>
      </trkpt>
      <trkpt lat="43.73042" lon="1.46866">
        <ele>167.542053</ele>
        <time>2023-07-30T14:15:10.000Z</time>
      </trkpt>
      <trkpt lat="43.73042" lon="1.46866">
        <ele>167.542053</ele>
        <time>2023-07-30T14:15:10.000Z</time>
      </trkpt>
      <trkpt lat="43.73039" lon="1.46865">
        <ele>167.551645</ele>
        <time>2023-07-30T14:15:12.000Z</time>
      </trkpt>
      <trkpt lat="43.73039" lon="1.46865">
        <ele>167.551645</ele>
        <time>2023-07-30T14:15:12.000Z</time>
      </trkpt>
      <trkpt lat="43.73035" lon="1.46863">
        <ele>167.562765</ele>
        <time>2023-07-30T14:15:12.000Z</time>
      </trkpt>
      <trkpt lat="43.73035" lon="1.46863">
        <ele>167.562765</ele>
        <time>2023-07-30T14:15:12.000Z</time>
      </trkpt>
      <trkpt lat="43.73032" lon="1.46862">
        <ele>167.572357</ele>
        <time>2023-07-30T14:15:14.000Z</time>
      </trkpt>
      <trkpt lat="43.73032" lon="1.46862">
        <ele>167.572357</ele>
        <time>2023-07-30T14:15:14.000Z</time>
      </trkpt>
      <trkpt lat="43.73025" lon="1.4686">
        <ele>167.591403</ele>
        <time>2023-07-30T14:15:15.000Z</time>
      </trkpt>
      <trkpt lat="43.73025" lon="1.4686">
        <ele>167.591403</ele>
        <time>2023-07-30T14:15:15.000Z</time>
      </trkpt>
      <trkpt lat="43.73024" lon="1.46859">
        <ele>167.594777</ele>
        <time>2023-07-30T14:15:17.000Z</time>
      </trkpt>
      <trkpt lat="43.73024" lon="1.46859">
        <ele>167.594777</ele>
        <time>2023-07-30T14:15:17.000Z</time>
      </trkpt>
      <trkpt lat="43.73022" lon="1.46859">
        <ele>167.599986</ele>
        <time>2023-07-30T14:15:19.000Z</time>
      </trkpt>
      <trkpt lat="43.73022" lon="1.46859">
        <ele>167.599986</ele>
        <time>2023-07-30T14:15:19.000Z</time>
      </trkpt>
      <trkpt lat="43.7302" lon="1.46859">
        <ele>167.605183</ele>
        <time>2023-07-30T14:15:20.000Z</time>
      </trkpt>
      <trkpt lat="43.7302" lon="1.46859">
        <ele>167.605183</ele>
        <time>2023-07-30T14:15:20.000Z</time>
      </trkpt>
      <trkpt lat="43.73017" lon="1.46861">
        <ele>167.613212</ele>
        <time>2023-07-30T14:15:21.000Z</time>
      </trkpt>
      <trkpt lat="43.73017" lon="1.46861">
        <ele>167.613212</ele>
        <time>2023-07-30T14:15:21.000Z</time>
      </trkpt>
      <trkpt lat="43.73014" lon="1.46863">
        <ele>167.623831</ele>
        <time>2023-07-30T14:15:22.000Z</time>
      </trkpt>
      <trkpt lat="43.73014" lon="1.46863">
        <ele>167.623831</ele>
        <time>2023-07-30T14:15:22.000Z</time>
      </trkpt>
      <trkpt lat="43.73011" lon="1.46864">
        <ele>167.631646</ele>
        <time>2023-07-30T14:15:23.000Z</time>
      </trkpt>
      <trkpt lat="43.73011" lon="1.46864">
        <ele>167.631646</ele>
        <time>2023-07-30T14:15:23.000Z</time>
      </trkpt>
      <trkpt lat="43.73008" lon="1.46866">
        <ele>167.639528</ele>
        <time>2023-07-30T14:15:24.000Z</time>
      </trkpt>
      <trkpt lat="43.73002" lon="1.46869">
        <ele>167.657877</ele>
        <time>2023-07-30T14:15:25.000Z</time>
      </trkpt>
      <trkpt lat="43.73002" lon="1.46869">
        <ele>167.657877</ele>
        <time>2023-07-30T14:15:25.000Z</time>
      </trkpt>
      <trkpt lat="43.73" lon="1.4687">
        <ele>167.663367</ele>
        <time>2023-07-30T14:15:27.000Z</time>
      </trkpt>
      <trkpt lat="43.73" lon="1.4687">
        <ele>167.663367</ele>
        <time>2023-07-30T14:15:27.000Z</time>
      </trkpt>
      <trkpt lat="43.72994" lon="1.46871">
        <ele>167.681268</ele>
        <time>2023-07-30T14:15:29.000Z</time>
      </trkpt>
      <trkpt lat="43.72994" lon="1.46871">
        <ele>167.681268</ele>
        <time>2023-07-30T14:15:29.000Z</time>
      </trkpt>
      <trkpt lat="43.7299" lon="1.46871">
        <ele>167.690935</ele>
        <time>2023-07-30T14:15:30.000Z</time>
      </trkpt>
      <trkpt lat="43.7299" lon="1.46871">
        <ele>167.690935</ele>
        <time>2023-07-30T14:15:30.000Z</time>
      </trkpt>
      <trkpt lat="43.72987" lon="1.46872">
        <ele>167.698176</ele>
        <time>2023-07-30T14:15:31.000Z</time>
      </trkpt>
      <trkpt lat="43.72987" lon="1.46872">
        <ele>167.698176</ele>
        <time>2023-07-30T14:15:31.000Z</time>
      </trkpt>
      <trkpt lat="43.72983" lon="1.46872">
        <ele>167.709659</ele>
        <time>2023-07-30T14:15:31.000Z</time>
      </trkpt>
      <trkpt lat="43.7298" lon="1.46872">
        <ele>167.718142</ele>
        <time>2023-07-30T14:15:32.000Z</time>
      </trkpt>
      <trkpt lat="43.7298" lon="1.46872">
        <ele>167.718142</ele>
        <time>2023-07-30T14:15:32.000Z</time>
      </trkpt>
      <trkpt lat="43.72977" lon="1.46871">
        <ele>167.808169</ele>
        <time>2023-07-30T14:15:34.000Z</time>
      </trkpt>
      <trkpt lat="43.72977" lon="1.46871">
        <ele>167.808169</ele>
        <time>2023-07-30T14:15:34.000Z</time>
      </trkpt>
      <trkpt lat="43.72975" lon="1.4687">
        <ele>167.89001</ele>
        <time>2023-07-30T14:15:36.000Z</time>
      </trkpt>
      <trkpt lat="43.72975" lon="1.4687">
        <ele>167.89001</ele>
        <time>2023-07-30T14:15:36.000Z</time>
      </trkpt>
      <trkpt lat="43.72973" lon="1.46868">
        <ele>167.983553</ele>
        <time>2023-07-30T14:15:36.000Z</time>
      </trkpt>
      <trkpt lat="43.72973" lon="1.46868">
        <ele>167.983553</ele>
        <time>2023-07-30T14:15:36.000Z</time>
      </trkpt>
      <trkpt lat="43.72973" lon="1.46865">
        <ele>168.069935</ele>
        <time>2023-07-30T14:15:37.000Z</time>
      </trkpt>
      <trkpt lat="43.72973" lon="1.46865">
        <ele>168.069935</ele>
        <time>2023-07-30T14:15:37.000Z</time>
      </trkpt>
      <trkpt lat="43.72973" lon="1.46862">
        <ele>168.167477</ele>
        <time>2023-07-30T14:15:39.000Z</time>
      </trkpt>
      <trkpt lat="43.72974" lon="1.46859">
        <ele>168.267818</ele>
        <time>2023-07-30T14:15:39.000Z</time>
      </trkpt>
      <trkpt lat="43.72974" lon="1.46859">
        <ele>168.267818</ele>
        <time>2023-07-30T14:15:39.000Z</time>
      </trkpt>
      <trkpt lat="43.72975" lon="1.46856">
        <ele>168.353076</ele>
        <time>2023-07-30T14:15:41.000Z</time>
      </trkpt>
      <trkpt lat="43.72975" lon="1.46856">
        <ele>168.353076</ele>
        <time>2023-07-30T14:15:41.000Z</time>
      </trkpt>
      <trkpt lat="43.72976" lon="1.46853">
        <ele>168.447748</ele>
        <time>2023-07-30T14:15:42.000Z</time>
      </trkpt>
      <trkpt lat="43.72977" lon="1.46849">
        <ele>168.567775</ele>
        <time>2023-07-30T14:15:44.000Z</time>
      </trkpt>
      <trkpt lat="43.72977" lon="1.46849">
        <ele>168.567775</ele>
        <time>2023-07-30T14:15:44.000Z</time>
      </trkpt>
      <trkpt lat="43.72978" lon="1.46846">
        <ele>168.64634</ele>
        <time>2023-07-30T14:15:45.000Z</time>
      </trkpt>
      <trkpt lat="43.72978" lon="1.46846">
        <ele>168.64634</ele>
        <time>2023-07-30T14:15:45.000Z</time>
      </trkpt>
      <trkpt lat="43.72978" lon="1.46842">
        <ele>168.753941</ele>
        <time>2023-07-30T14:15:46.000Z</time>
      </trkpt>
      <trkpt lat="43.72978" lon="1.46842">
        <ele>168.753941</ele>
        <time>2023-07-30T14:15:46.000Z</time>
      </trkpt>
      <trkpt lat="43.72977" lon="1.46837">
        <ele>168.903717</ele>
        <time>2023-07-30T14:15:47.000Z</time>
      </trkpt>
      <trkpt lat="43.72977" lon="1.46837">
        <ele>168.903717</ele>
        <time>2023-07-30T14:15:47.000Z</time>
      </trkpt>
      <trkpt lat="43.72976" lon="1.46832">
        <ele>169.057031</ele>
        <time>2023-07-30T14:15:48.000Z</time>
      </trkpt>
      <trkpt lat="43.72976" lon="1.46832">
        <ele>169.057031</ele>
        <time>2023-07-30T14:15:48.000Z</time>
      </trkpt>
      <trkpt lat="43.72976" lon="1.46829">
        <ele>169.15024</ele>
        <time>2023-07-30T14:15:49.000Z</time>
      </trkpt>
      <trkpt lat="43.72976" lon="1.46829">
        <ele>169.15024</ele>
        <time>2023-07-30T14:15:49.000Z</time>
      </trkpt>
      <trkpt lat="43.72974" lon="1.46826">
        <ele>169.245498</ele>
        <time>2023-07-30T14:15:50.000Z</time>
      </trkpt>
      <trkpt lat="43.72974" lon="1.46826">
        <ele>169.245498</ele>
        <time>2023-07-30T14:15:50.000Z</time>
      </trkpt>
      <trkpt lat="43.72973" lon="1.46823">
        <ele>169.33751</ele>
        <time>2023-07-30T14:15:52.000Z</time>
      </trkpt>
      <trkpt lat="43.72973" lon="1.46823">
        <ele>169.33751</ele>
        <time>2023-07-30T14:15:52.000Z</time>
      </trkpt>
      <trkpt lat="43.72971" lon="1.4682">
        <ele>169.448354</ele>
        <time>2023-07-30T14:15:52.000Z</time>
      </trkpt>
      <trkpt lat="43.72971" lon="1.4682">
        <ele>169.448354</ele>
        <time>2023-07-30T14:15:52.000Z</time>
      </trkpt>
      <trkpt lat="43.72968" lon="1.46817">
        <ele>169.582283</ele>
        <time>2023-07-30T14:15:53.000Z</time>
      </trkpt>
      <trkpt lat="43.72968" lon="1.46817">
        <ele>169.582283</ele>
        <time>2023-07-30T14:15:53.000Z</time>
      </trkpt>
      <trkpt lat="43.72966" lon="1.46816">
        <ele>169.665339</ele>
        <time>2023-07-30T14:15:55.000Z</time>
      </trkpt>
      <trkpt lat="43.72966" lon="1.46816">
        <ele>169.665339</ele>
        <time>2023-07-30T14:15:55.000Z</time>
      </trkpt>
      <trkpt lat="43.72962" lon="1.46813">
        <ele>169.845635</ele>
        <time>2023-07-30T14:15:56.000Z</time>
      </trkpt>
      <trkpt lat="43.72962" lon="1.46813">
        <ele>169.845635</ele>
        <time>2023-07-30T14:15:56.000Z</time>
      </trkpt>
      <trkpt lat="43.72958" lon="1.46811">
        <ele>170.042556</ele>
        <time>2023-07-30T14:15:58.000Z</time>
      </trkpt>
      <trkpt lat="43.72958" lon="1.46811">
        <ele>170.042556</ele>
        <time>2023-07-30T14:15:58.000Z</time>
      </trkpt>
      <trkpt lat="43.72955" lon="1.4681">
        <ele>170.160963</ele>
        <time>2023-07-30T14:16:00.000Z</time>
      </trkpt>
      <trkpt lat="43.72955" lon="1.4681">
        <ele>170.160963</ele>
        <time>2023-07-30T14:16:00.000Z</time>
      </trkpt>
      <trkpt lat="43.72952" lon="1.4681">
        <ele>170.251135</ele>
        <time>2023-07-30T14:16:00.000Z</time>
      </trkpt>
      <trkpt lat="43.72952" lon="1.4681">
        <ele>170.251135</ele>
        <time>2023-07-30T14:16:00.000Z</time>
      </trkpt>
      <trkpt lat="43.7295" lon="1.46809">
        <ele>170.332975</ele>
        <time>2023-07-30T14:16:02.000Z</time>
      </trkpt>
      <trkpt lat="43.7295" lon="1.46809">
        <ele>170.332975</ele>
        <time>2023-07-30T14:16:02.000Z</time>
      </trkpt>
      <trkpt lat="43.72948" lon="1.46809">
        <ele>170.439381</ele>
        <time>2023-07-30T14:16:03.000Z</time>
      </trkpt>
      <trkpt lat="43.72948" lon="1.46809">
        <ele>170.439381</ele>
        <time>2023-07-30T14:16:03.000Z</time>
      </trkpt>
      <trkpt lat="43.72942" lon="1.46808">
        <ele>170.664902</ele>
        <time>2023-07-30T14:16:05.000Z</time>
      </trkpt>
      <trkpt lat="43.72942" lon="1.46808">
        <ele>170.664902</ele>
        <time>2023-07-30T14:16:05.000Z</time>
      </trkpt>
      <trkpt lat="43.72939" lon="1.46806">
        <ele>170.795568</ele>
        <time>2023-07-30T14:16:06.000Z</time>
      </trkpt>
      <trkpt lat="43.72939" lon="1.46806">
        <ele>170.795568</ele>
        <time>2023-07-30T14:16:06.000Z</time>
      </trkpt>
      <trkpt lat="43.72936" lon="1.46805">
        <ele>170.903767</ele>
        <time>2023-07-30T14:16:07.000Z</time>
      </trkpt>
      <trkpt lat="43.72936" lon="1.46805">
        <ele>170.903767</ele>
        <time>2023-07-30T14:16:07.000Z</time>
      </trkpt>
      <trkpt lat="43.72932" lon="1.46803">
        <ele>171.060261</ele>
        <time>2023-07-30T14:16:07.000Z</time>
      </trkpt>
      <trkpt lat="43.72932" lon="1.46803">
        <ele>171.060261</ele>
        <time>2023-07-30T14:16:07.000Z</time>
      </trkpt>
      <trkpt lat="43.72929" lon="1.46801">
        <ele>171.222786</ele>
        <time>2023-07-30T14:16:10.000Z</time>
      </trkpt>
      <trkpt lat="43.72929" lon="1.46801">
        <ele>171.222786</ele>
        <time>2023-07-30T14:16:10.000Z</time>
      </trkpt>
      <trkpt lat="43.72926" lon="1.46799">
        <ele>171.35207</ele>
        <time>2023-07-30T14:16:11.000Z</time>
      </trkpt>
      <trkpt lat="43.72922" lon="1.46796">
        <ele>171.510488</ele>
        <time>2023-07-30T14:16:12.000Z</time>
      </trkpt>
      <trkpt lat="43.72922" lon="1.46796">
        <ele>171.510488</ele>
        <time>2023-07-30T14:16:12.000Z</time>
      </trkpt>
      <trkpt lat="43.7292" lon="1.46793">
        <ele>171.644971</ele>
        <time>2023-07-30T14:16:13.000Z</time>
      </trkpt>
      <trkpt lat="43.72917" lon="1.46789">
        <ele>171.797907</ele>
        <time>2023-07-30T14:16:14.000Z</time>
      </trkpt>
      <trkpt lat="43.72917" lon="1.46789">
        <ele>171.797907</ele>
        <time>2023-07-30T14:16:14.000Z</time>
      </trkpt>
      <trkpt lat="43.72914" lon="1.46785">
        <ele>171.976016</ele>
        <time>2023-07-30T14:16:15.000Z</time>
      </trkpt>
      <trkpt lat="43.72914" lon="1.46785">
        <ele>171.976016</ele>
        <time>2023-07-30T14:16:15.000Z</time>
      </trkpt>
      <trkpt lat="43.72909" lon="1.46776">
        <ele>172.269837</ele>
        <time>2023-07-30T14:16:16.000Z</time>
      </trkpt>
      <trkpt lat="43.72909" lon="1.46776">
        <ele>172.269837</ele>
        <time>2023-07-30T14:16:16.000Z</time>
      </trkpt>
      <trkpt lat="43.72908" lon="1.46775">
        <ele>172.333203</ele>
        <time>2023-07-30T14:16:18.000Z</time>
      </trkpt>
      <trkpt lat="43.72908" lon="1.46775">
        <ele>172.333203</ele>
        <time>2023-07-30T14:16:18.000Z</time>
      </trkpt>
      <trkpt lat="43.72904" lon="1.46771">
        <ele>172.512075</ele>
        <time>2023-07-30T14:16:20.000Z</time>
      </trkpt>
      <trkpt lat="43.72904" lon="1.46771">
        <ele>172.512075</ele>
        <time>2023-07-30T14:16:20.000Z</time>
      </trkpt>
      <trkpt lat="43.72901" lon="1.46769">
        <ele>172.659152</ele>
        <time>2023-07-30T14:16:22.000Z</time>
      </trkpt>
      <trkpt lat="43.72901" lon="1.46769">
        <ele>172.659152</ele>
        <time>2023-07-30T14:16:22.000Z</time>
      </trkpt>
      <trkpt lat="43.72897" lon="1.46768">
        <ele>172.827798</ele>
        <time>2023-07-30T14:16:23.000Z</time>
      </trkpt>
      <trkpt lat="43.72891" lon="1.46767">
        <ele>173.052303</ele>
        <time>2023-07-30T14:16:23.000Z</time>
      </trkpt>
      <trkpt lat="43.72886" lon="1.46767">
        <ele>173.232647</ele>
        <time>2023-07-30T14:16:24.000Z</time>
      </trkpt>
      <trkpt lat="43.72882" lon="1.46768">
        <ele>173.413457</ele>
        <time>2023-07-30T14:16:26.000Z</time>
      </trkpt>
      <trkpt lat="43.72878" lon="1.46769">
        <ele>173.5486</ele>
        <time>2023-07-30T14:16:27.000Z</time>
      </trkpt>
      <trkpt lat="43.72878" lon="1.46769">
        <ele>173.5486</ele>
        <time>2023-07-30T14:16:27.000Z</time>
      </trkpt>
      <trkpt lat="43.72873" lon="1.4677">
        <ele>173.746565</ele>
        <time>2023-07-30T14:16:28.000Z</time>
      </trkpt>
      <trkpt lat="43.72866" lon="1.46772">
        <ele>174.036772</ele>
        <time>2023-07-30T14:16:30.000Z</time>
      </trkpt>
      <trkpt lat="43.72866" lon="1.46772">
        <ele>174.036772</ele>
        <time>2023-07-30T14:16:30.000Z</time>
      </trkpt>
      <trkpt lat="43.72863" lon="1.46773">
        <ele>174.149757</ele>
        <time>2023-07-30T14:16:32.000Z</time>
      </trkpt>
      <trkpt lat="43.72861" lon="1.46775">
        <ele>174.267196</ele>
        <time>2023-07-30T14:16:33.000Z</time>
      </trkpt>
      <trkpt lat="43.72861" lon="1.46775">
        <ele>174.267196</ele>
        <time>2023-07-30T14:16:33.000Z</time>
      </trkpt>
      <trkpt lat="43.72858" lon="1.46777">
        <ele>174.370737</ele>
        <time>2023-07-30T14:16:34.000Z</time>
      </trkpt>
      <trkpt lat="43.72855" lon="1.46782">
        <ele>174.574268</ele>
        <time>2023-07-30T14:16:35.000Z</time>
      </trkpt>
      <trkpt lat="43.72855" lon="1.46782">
        <ele>174.574268</ele>
        <time>2023-07-30T14:16:35.000Z</time>
      </trkpt>
      <trkpt lat="43.72849" lon="1.46786">
        <ele>174.710399</ele>
        <time>2023-07-30T14:16:37.000Z</time>
      </trkpt>
      <trkpt lat="43.72849" lon="1.46786">
        <ele>174.710399</ele>
        <time>2023-07-30T14:16:37.000Z</time>
      </trkpt>
      <trkpt lat="43.72846" lon="1.46789">
        <ele>174.50408</ele>
        <time>2023-07-30T14:16:37.000Z</time>
      </trkpt>
      <trkpt lat="43.72846" lon="1.46789">
        <ele>174.50408</ele>
        <time>2023-07-30T14:16:37.000Z</time>
      </trkpt>
      <trkpt lat="43.72844" lon="1.4679">
        <ele>174.390468</ele>
        <time>2023-07-30T14:16:39.000Z</time>
      </trkpt>
      <trkpt lat="43.72844" lon="1.4679">
        <ele>174.390468</ele>
        <time>2023-07-30T14:16:39.000Z</time>
      </trkpt>
      <trkpt lat="43.72839" lon="1.46792">
        <ele>174.127157</ele>
        <time>2023-07-30T14:16:40.000Z</time>
      </trkpt>
      <trkpt lat="43.72836" lon="1.46793">
        <ele>173.962644</ele>
        <time>2023-07-30T14:16:41.000Z</time>
      </trkpt>
      <trkpt lat="43.72836" lon="1.46793">
        <ele>173.962644</ele>
        <time>2023-07-30T14:16:41.000Z</time>
      </trkpt>
      <trkpt lat="43.72833" lon="1.46794">
        <ele>173.800451</ele>
        <time>2023-07-30T14:16:42.000Z</time>
      </trkpt>
      <trkpt lat="43.72833" lon="1.46794">
        <ele>173.800451</ele>
        <time>2023-07-30T14:16:42.000Z</time>
      </trkpt>
      <trkpt lat="43.72832" lon="1.46794">
        <ele>173.736342</ele>
        <time>2023-07-30T14:16:44.000Z</time>
      </trkpt>
      <trkpt lat="43.72832" lon="1.46794">
        <ele>173.736342</ele>
        <time>2023-07-30T14:16:44.000Z</time>
      </trkpt>
      <trkpt lat="43.7283" lon="1.46797">
        <ele>173.600172</ele>
        <time>2023-07-30T14:16:45.000Z</time>
      </trkpt>
      <trkpt lat="43.7283" lon="1.46797">
        <ele>173.600172</ele>
        <time>2023-07-30T14:16:45.000Z</time>
      </trkpt>
      <trkpt lat="43.72826" lon="1.46799">
        <ele>173.409728</ele>
        <time>2023-07-30T14:16:46.000Z</time>
      </trkpt>
      <trkpt lat="43.72826" lon="1.46799">
        <ele>173.409728</ele>
        <time>2023-07-30T14:16:46.000Z</time>
      </trkpt>
      <trkpt lat="43.72826" lon="1.46802">
        <ele>173.295231</ele>
        <time>2023-07-30T14:16:47.000Z</time>
      </trkpt>
      <trkpt lat="43.72826" lon="1.46802">
        <ele>173.295231</ele>
        <time>2023-07-30T14:16:47.000Z</time>
      </trkpt>
      <trkpt lat="43.72826" lon="1.46805">
        <ele>173.173346</ele>
        <time>2023-07-30T14:16:48.000Z</time>
      </trkpt>
      <trkpt lat="43.72826" lon="1.46805">
        <ele>173.173346</ele>
        <time>2023-07-30T14:16:48.000Z</time>
      </trkpt>
      <trkpt lat="43.72828" lon="1.46815">
        <ele>172.786712</ele>
        <time>2023-07-30T14:16:50.000Z</time>
      </trkpt>
      <trkpt lat="43.72828" lon="1.46815">
        <ele>172.786712</ele>
        <time>2023-07-30T14:16:50.000Z</time>
      </trkpt>
      <trkpt lat="43.72829" lon="1.4682">
        <ele>172.594508</ele>
        <time>2023-07-30T14:16:51.000Z</time>
      </trkpt>
      <trkpt lat="43.72829" lon="1.4682">
        <ele>172.594508</ele>
        <time>2023-07-30T14:16:51.000Z</time>
      </trkpt>
      <trkpt lat="43.72832" lon="1.4683">
        <ele>172.192101</ele>
        <time>2023-07-30T14:16:52.000Z</time>
      </trkpt>
      <trkpt lat="43.72832" lon="1.4683">
        <ele>172.192101</ele>
        <time>2023-07-30T14:16:52.000Z</time>
      </trkpt>
      <trkpt lat="43.72834" lon="1.46837">
        <ele>171.897355</ele>
        <time>2023-07-30T14:16:53.000Z</time>
      </trkpt>
      <trkpt lat="43.72834" lon="1.46837">
        <ele>171.897355</ele>
        <time>2023-07-30T14:16:53.000Z</time>
      </trkpt>
      <trkpt lat="43.72838" lon="1.46853">
        <ele>171.281355</ele>
        <time>2023-07-30T14:16:55.000Z</time>
      </trkpt>
      <trkpt lat="43.72838" lon="1.46853">
        <ele>171.281355</ele>
        <time>2023-07-30T14:16:55.000Z</time>
      </trkpt>
      <trkpt lat="43.72838" lon="1.46857">
        <ele>171.130534</ele>
        <time>2023-07-30T14:16:56.000Z</time>
      </trkpt>
      <trkpt lat="43.72838" lon="1.46857">
        <ele>171.130534</ele>
        <time>2023-07-30T14:16:56.000Z</time>
      </trkpt>
      <trkpt lat="43.7284" lon="1.46866">
        <ele>170.780221</ele>
        <time>2023-07-30T14:16:57.000Z</time>
      </trkpt>
      <trkpt lat="43.7284" lon="1.46866">
        <ele>170.780221</ele>
        <time>2023-07-30T14:16:57.000Z</time>
      </trkpt>
      <trkpt lat="43.72842" lon="1.46876">
        <ele>170.395775</ele>
        <time>2023-07-30T14:16:58.000Z</time>
      </trkpt>
      <trkpt lat="43.72842" lon="1.46876">
        <ele>170.395775</ele>
        <time>2023-07-30T14:16:58.000Z</time>
      </trkpt>
      <trkpt lat="43.72843" lon="1.46884">
        <ele>170.080614</ele>
        <time>2023-07-30T14:16:59.000Z</time>
      </trkpt>
      <trkpt lat="43.72843" lon="1.46884">
        <ele>170.080614</ele>
        <time>2023-07-30T14:16:59.000Z</time>
      </trkpt>
      <trkpt lat="43.72845" lon="1.46896">
        <ele>169.601201</ele>
        <time>2023-07-30T14:17:00.000Z</time>
      </trkpt>
      <trkpt lat="43.72845" lon="1.46896">
        <ele>169.601201</ele>
        <time>2023-07-30T14:17:00.000Z</time>
      </trkpt>
      <trkpt lat="43.72847" lon="1.4691">
        <ele>169.069665</ele>
        <time>2023-07-30T14:17:01.000Z</time>
      </trkpt>
      <trkpt lat="43.72847" lon="1.4691">
        <ele>169.069665</ele>
        <time>2023-07-30T14:17:01.000Z</time>
      </trkpt>
      <trkpt lat="43.72848" lon="1.46912">
        <ele>168.985638</ele>
        <time>2023-07-30T14:17:02.000Z</time>
      </trkpt>
      <trkpt lat="43.72848" lon="1.46912">
        <ele>168.985638</ele>
        <time>2023-07-30T14:17:02.000Z</time>
      </trkpt>
      <trkpt lat="43.7285" lon="1.46931">
        <ele>168.255194</ele>
        <time>2023-07-30T14:17:03.000Z</time>
      </trkpt>
      <trkpt lat="43.7285" lon="1.46931">
        <ele>168.255194</ele>
        <time>2023-07-30T14:17:03.000Z</time>
      </trkpt>
      <trkpt lat="43.72852" lon="1.46943">
        <ele>167.815652</ele>
        <time>2023-07-30T14:17:04.000Z</time>
      </trkpt>
      <trkpt lat="43.72852" lon="1.46943">
        <ele>167.815652</ele>
        <time>2023-07-30T14:17:04.000Z</time>
      </trkpt>
      <trkpt lat="43.72853" lon="1.46953">
        <ele>167.447139</ele>
        <time>2023-07-30T14:17:05.000Z</time>
      </trkpt>
      <trkpt lat="43.72853" lon="1.46953">
        <ele>167.447139</ele>
        <time>2023-07-30T14:17:05.000Z</time>
      </trkpt>
      <trkpt lat="43.72854" lon="1.46963">
        <ele>167.033322</ele>
        <time>2023-07-30T14:17:06.000Z</time>
      </trkpt>
      <trkpt lat="43.72854" lon="1.46963">
        <ele>167.033322</ele>
        <time>2023-07-30T14:17:06.000Z</time>
      </trkpt>
      <trkpt lat="43.72855" lon="1.46973">
        <ele>166.675928</ele>
        <time>2023-07-30T14:17:07.000Z</time>
      </trkpt>
      <trkpt lat="43.72855" lon="1.46973">
        <ele>166.675928</ele>
        <time>2023-07-30T14:17:07.000Z</time>
      </trkpt>
      <trkpt lat="43.72857" lon="1.46982">
        <ele>166.328237</ele>
        <time>2023-07-30T14:17:08.000Z</time>
      </trkpt>
      <trkpt lat="43.72857" lon="1.46982">
        <ele>166.328237</ele>
        <time>2023-07-30T14:17:08.000Z</time>
      </trkpt>
      <trkpt lat="43.7286" lon="1.4699">
        <ele>165.990034</ele>
        <time>2023-07-30T14:17:09.000Z</time>
      </trkpt>
      <trkpt lat="43.7286" lon="1.4699">
        <ele>165.990034</ele>
        <time>2023-07-30T14:17:09.000Z</time>
      </trkpt>
      <trkpt lat="43.72863" lon="1.46996">
        <ele>165.688872</ele>
        <time>2023-07-30T14:17:09.000Z</time>
      </trkpt>
      <trkpt lat="43.72863" lon="1.46996">
        <ele>165.688872</ele>
        <time>2023-07-30T14:17:09.000Z</time>
      </trkpt>
      <trkpt lat="43.72867" lon="1.47002">
        <ele>165.421932</ele>
        <time>2023-07-30T14:17:10.000Z</time>
      </trkpt>
      <trkpt lat="43.72867" lon="1.47002">
        <ele>165.421932</ele>
        <time>2023-07-30T14:17:10.000Z</time>
      </trkpt>
      <trkpt lat="43.72871" lon="1.47007">
        <ele>165.060874</ele>
        <time>2023-07-30T14:17:12.000Z</time>
      </trkpt>
      <trkpt lat="43.72871" lon="1.47007">
        <ele>165.060874</ele>
        <time>2023-07-30T14:17:12.000Z</time>
      </trkpt>
      <trkpt lat="43.72876" lon="1.47012">
        <ele>164.634811</ele>
        <time>2023-07-30T14:17:13.000Z</time>
      </trkpt>
      <trkpt lat="43.72876" lon="1.47012">
        <ele>164.634811</ele>
        <time>2023-07-30T14:17:13.000Z</time>
      </trkpt>
      <trkpt lat="43.72882" lon="1.47017">
        <ele>164.200243</ele>
        <time>2023-07-30T14:17:14.000Z</time>
      </trkpt>
      <trkpt lat="43.72882" lon="1.47017">
        <ele>164.200243</ele>
        <time>2023-07-30T14:17:14.000Z</time>
      </trkpt>
      <trkpt lat="43.72887" lon="1.47023">
        <ele>163.768947</ele>
        <time>2023-07-30T14:17:15.000Z</time>
      </trkpt>
      <trkpt lat="43.72887" lon="1.47023">
        <ele>163.768947</ele>
        <time>2023-07-30T14:17:15.000Z</time>
      </trkpt>
      <trkpt lat="43.72891" lon="1.47029">
        <ele>163.358428</ele>
        <time>2023-07-30T14:17:16.000Z</time>
      </trkpt>
      <trkpt lat="43.72891" lon="1.47029">
        <ele>163.358428</ele>
        <time>2023-07-30T14:17:16.000Z</time>
      </trkpt>
      <trkpt lat="43.72895" lon="1.47036">
        <ele>162.951295</ele>
        <time>2023-07-30T14:17:17.000Z</time>
      </trkpt>
      <trkpt lat="43.72895" lon="1.47036">
        <ele>162.951295</ele>
        <time>2023-07-30T14:17:17.000Z</time>
      </trkpt>
      <trkpt lat="43.729" lon="1.47043">
        <ele>162.505719</ele>
        <time>2023-07-30T14:17:18.000Z</time>
      </trkpt>
      <trkpt lat="43.729" lon="1.47043">
        <ele>162.505719</ele>
        <time>2023-07-30T14:17:18.000Z</time>
      </trkpt>
      <trkpt lat="43.72904" lon="1.4705">
        <ele>162.097168</ele>
        <time>2023-07-30T14:17:19.000Z</time>
      </trkpt>
      <trkpt lat="43.72904" lon="1.4705">
        <ele>162.097168</ele>
        <time>2023-07-30T14:17:19.000Z</time>
      </trkpt>
      <trkpt lat="43.72909" lon="1.47058">
        <ele>161.591898</ele>
        <time>2023-07-30T14:17:20.000Z</time>
      </trkpt>
      <trkpt lat="43.72909" lon="1.47058">
        <ele>161.591898</ele>
        <time>2023-07-30T14:17:20.000Z</time>
      </trkpt>
      <trkpt lat="43.72913" lon="1.47065">
        <ele>161.145058</ele>
        <time>2023-07-30T14:17:21.000Z</time>
      </trkpt>
      <trkpt lat="43.72913" lon="1.47065">
        <ele>161.145058</ele>
        <time>2023-07-30T14:17:21.000Z</time>
      </trkpt>
      <trkpt lat="43.72915" lon="1.47069">
        <ele>160.953426</ele>
        <time>2023-07-30T14:17:22.000Z</time>
      </trkpt>
      <trkpt lat="43.72915" lon="1.47069">
        <ele>160.953426</ele>
        <time>2023-07-30T14:17:22.000Z</time>
      </trkpt>
      <trkpt lat="43.72919" lon="1.47077">
        <ele>160.472384</ele>
        <time>2023-07-30T14:17:23.000Z</time>
      </trkpt>
      <trkpt lat="43.72919" lon="1.47077">
        <ele>160.472384</ele>
        <time>2023-07-30T14:17:23.000Z</time>
      </trkpt>
      <trkpt lat="43.7292" lon="1.47082">
        <ele>160.226107</ele>
        <time>2023-07-30T14:17:24.000Z</time>
      </trkpt>
      <trkpt lat="43.7292" lon="1.47082">
        <ele>160.226107</ele>
        <time>2023-07-30T14:17:24.000Z</time>
      </trkpt>
      <trkpt lat="43.72922" lon="1.47088">
        <ele>159.930497</ele>
        <time>2023-07-30T14:17:25.000Z</time>
      </trkpt>
      <trkpt lat="43.72922" lon="1.47088">
        <ele>159.930497</ele>
        <time>2023-07-30T14:17:25.000Z</time>
      </trkpt>
      <trkpt lat="43.72926" lon="1.471">
        <ele>159.302587</ele>
        <time>2023-07-30T14:17:27.000Z</time>
      </trkpt>
      <trkpt lat="43.72926" lon="1.471">
        <ele>159.302587</ele>
        <time>2023-07-30T14:17:27.000Z</time>
      </trkpt>
      <trkpt lat="43.72931" lon="1.47114">
        <ele>158.556838</ele>
        <time>2023-07-30T14:17:29.000Z</time>
      </trkpt>
      <trkpt lat="43.72931" lon="1.47114">
        <ele>158.556838</ele>
        <time>2023-07-30T14:17:29.000Z</time>
      </trkpt>
      <trkpt lat="43.72933" lon="1.47119">
        <ele>158.290803</ele>
        <time>2023-07-30T14:17:30.000Z</time>
      </trkpt>
      <trkpt lat="43.72933" lon="1.47119">
        <ele>158.290803</ele>
        <time>2023-07-30T14:17:30.000Z</time>
      </trkpt>
      <trkpt lat="43.72934" lon="1.47124">
        <ele>158.047157</ele>
        <time>2023-07-30T14:17:30.000Z</time>
      </trkpt>
      <trkpt lat="43.72934" lon="1.47124">
        <ele>158.047157</ele>
        <time>2023-07-30T14:17:30.000Z</time>
      </trkpt>
      <trkpt lat="43.72937" lon="1.47129">
        <ele>157.720387</ele>
        <time>2023-07-30T14:17:32.000Z</time>
      </trkpt>
      <trkpt lat="43.72944" lon="1.47137">
        <ele>157.17484</ele>
        <time>2023-07-30T14:17:34.000Z</time>
      </trkpt>
      <trkpt lat="43.72944" lon="1.47137">
        <ele>157.17484</ele>
        <time>2023-07-30T14:17:34.000Z</time>
      </trkpt>
      <trkpt lat="43.72949" lon="1.4714">
        <ele>156.841402</ele>
        <time>2023-07-30T14:17:35.000Z</time>
      </trkpt>
      <trkpt lat="43.72949" lon="1.4714">
        <ele>156.841402</ele>
        <time>2023-07-30T14:17:35.000Z</time>
      </trkpt>
      <trkpt lat="43.72952" lon="1.47142">
        <ele>156.592665</ele>
        <time>2023-07-30T14:17:36.000Z</time>
      </trkpt>
      <trkpt lat="43.72956" lon="1.47144">
        <ele>156.306127</ele>
        <time>2023-07-30T14:17:37.000Z</time>
      </trkpt>
      <trkpt lat="43.72956" lon="1.47144">
        <ele>156.306127</ele>
        <time>2023-07-30T14:17:37.000Z</time>
      </trkpt>
      <trkpt lat="43.72962" lon="1.47146">
        <ele>155.917846</ele>
        <time>2023-07-30T14:17:38.000Z</time>
      </trkpt>
      <trkpt lat="43.72962" lon="1.47146">
        <ele>155.917846</ele>
        <time>2023-07-30T14:17:38.000Z</time>
      </trkpt>
      <trkpt lat="43.72971" lon="1.47149">
        <ele>155.326062</ele>
        <time>2023-07-30T14:17:39.000Z</time>
      </trkpt>
      <trkpt lat="43.72971" lon="1.47149">
        <ele>155.326062</ele>
        <time>2023-07-30T14:17:39.000Z</time>
      </trkpt>
      <trkpt lat="43.72979" lon="1.47152">
        <ele>154.788288</ele>
        <time>2023-07-30T14:17:40.000Z</time>
      </trkpt>
      <trkpt lat="43.72979" lon="1.47152">
        <ele>154.788288</ele>
        <time>2023-07-30T14:17:40.000Z</time>
      </trkpt>
      <trkpt lat="43.72986" lon="1.47154">
        <ele>154.325756</ele>
        <time>2023-07-30T14:17:41.000Z</time>
      </trkpt>
      <trkpt lat="43.72986" lon="1.47154">
        <ele>154.325756</ele>
        <time>2023-07-30T14:17:41.000Z</time>
      </trkpt>
      <trkpt lat="43.72992" lon="1.47157">
        <ele>153.894836</ele>
        <time>2023-07-30T14:17:42.000Z</time>
      </trkpt>
      <trkpt lat="43.72992" lon="1.47157">
        <ele>153.894836</ele>
        <time>2023-07-30T14:17:42.000Z</time>
      </trkpt>
      <trkpt lat="43.72999" lon="1.4716">
        <ele>153.705249</ele>
        <time>2023-07-30T14:17:43.000Z</time>
      </trkpt>
      <trkpt lat="43.72999" lon="1.4716">
        <ele>153.705249</ele>
        <time>2023-07-30T14:17:43.000Z</time>
      </trkpt>
      <trkpt lat="43.73004" lon="1.47161">
        <ele>153.705623</ele>
        <time>2023-07-30T14:17:44.000Z</time>
      </trkpt>
      <trkpt lat="43.73004" lon="1.47161">
        <ele>153.705623</ele>
        <time>2023-07-30T14:17:44.000Z</time>
      </trkpt>
      <trkpt lat="43.73008" lon="1.47162">
        <ele>153.705929</ele>
        <time>2023-07-30T14:17:45.000Z</time>
      </trkpt>
      <trkpt lat="43.73011" lon="1.47162">
        <ele>153.706165</ele>
        <time>2023-07-30T14:17:46.000Z</time>
      </trkpt>
      <trkpt lat="43.73014" lon="1.47161">
        <ele>153.706456</ele>
        <time>2023-07-30T14:17:47.000Z</time>
      </trkpt>
      <trkpt lat="43.73016" lon="1.47157">
        <ele>153.706716</ele>
        <time>2023-07-30T14:17:48.000Z</time>
      </trkpt>
      <trkpt lat="43.73016" lon="1.47157">
        <ele>153.706716</ele>
        <time>2023-07-30T14:17:48.000Z</time>
      </trkpt>
      <trkpt lat="43.73018" lon="1.47153">
        <ele>153.70696</ele>
        <time>2023-07-30T14:17:50.000Z</time>
      </trkpt>
      <trkpt lat="43.73018" lon="1.4715">
        <ele>153.707128</ele>
        <time>2023-07-30T14:17:51.000Z</time>
      </trkpt>
      <trkpt lat="43.73018" lon="1.47146">
        <ele>153.707374</ele>
        <time>2023-07-30T14:17:52.000Z</time>
      </trkpt>
      <trkpt lat="43.73018" lon="1.47142">
        <ele>153.707625</ele>
        <time>2023-07-30T14:17:53.000Z</time>
      </trkpt>
      <trkpt lat="43.73018" lon="1.47142">
        <ele>153.707625</ele>
        <time>2023-07-30T14:17:53.000Z</time>
      </trkpt>
      <trkpt lat="43.73021" lon="1.47131">
        <ele>153.708276</ele>
        <time>2023-07-30T14:17:55.000Z</time>
      </trkpt>
      <trkpt lat="43.73023" lon="1.47125">
        <ele>153.70864</ele>
        <time>2023-07-30T14:17:57.000Z</time>
      </trkpt>
      <trkpt lat="43.73028" lon="1.47116">
        <ele>153.709286</ele>
        <time>2023-07-30T14:17:58.000Z</time>
      </trkpt>
      <trkpt lat="43.73031" lon="1.4711">
        <ele>153.70972</ele>
        <time>2023-07-30T14:17:59.000Z</time>
      </trkpt>
      <trkpt lat="43.73034" lon="1.47103">
        <ele>153.710204</ele>
        <time>2023-07-30T14:18:00.000Z</time>
      </trkpt>
      <trkpt lat="43.73038" lon="1.47095">
        <ele>153.710713</ele>
        <time>2023-07-30T14:18:01.000Z</time>
      </trkpt>
      <trkpt lat="43.73041" lon="1.47087">
        <ele>153.711229</ele>
        <time>2023-07-30T14:18:02.000Z</time>
      </trkpt>
      <trkpt lat="43.73043" lon="1.47078">
        <ele>153.71176</ele>
        <time>2023-07-30T14:18:03.000Z</time>
      </trkpt>
      <trkpt lat="43.73045" lon="1.47072">
        <ele>153.712141</ele>
        <time>2023-07-30T14:18:04.000Z</time>
      </trkpt>
      <trkpt lat="43.73045" lon="1.47068">
        <ele>153.712382</ele>
        <time>2023-07-30T14:18:05.000Z</time>
      </trkpt>
      <trkpt lat="43.73045" lon="1.47068">
        <ele>153.712382</ele>
        <time>2023-07-30T14:18:05.000Z</time>
      </trkpt>
      <trkpt lat="43.73044" lon="1.47062">
        <ele>153.712704</ele>
        <time>2023-07-30T14:18:06.000Z</time>
      </trkpt>
      <trkpt lat="43.73043" lon="1.47059">
        <ele>153.712877</ele>
        <time>2023-07-30T14:18:08.000Z</time>
      </trkpt>
      <trkpt lat="43.73043" lon="1.47056">
        <ele>153.713056</ele>
        <time>2023-07-30T14:18:09.000Z</time>
      </trkpt>
      <trkpt lat="43.73043" lon="1.47056">
        <ele>153.713056</ele>
        <time>2023-07-30T14:18:09.000Z</time>
      </trkpt>
      <trkpt lat="43.73042" lon="1.47053">
        <ele>153.713244</ele>
        <time>2023-07-30T14:18:09.000Z</time>
      </trkpt>
      <trkpt lat="43.73042" lon="1.47051">
        <ele>153.713356</ele>
        <time>2023-07-30T14:18:11.000Z</time>
      </trkpt>
      <trkpt lat="43.73041" lon="1.47049">
        <ele>153.713495</ele>
        <time>2023-07-30T14:18:12.000Z</time>
      </trkpt>
      <trkpt lat="43.73041" lon="1.47046">
        <ele>153.713663</ele>
        <time>2023-07-30T14:18:13.000Z</time>
      </trkpt>
      <trkpt lat="43.73042" lon="1.47042">
        <ele>153.71388</ele>
        <time>2023-07-30T14:18:14.000Z</time>
      </trkpt>
      <trkpt lat="43.73043" lon="1.47039">
        <ele>153.714101</ele>
        <time>2023-07-30T14:18:16.000Z</time>
      </trkpt>
      <trkpt lat="43.73043" lon="1.47036">
        <ele>153.714283</ele>
        <time>2023-07-30T14:18:17.000Z</time>
      </trkpt>
      <trkpt lat="43.73044" lon="1.47032">
        <ele>153.714509</ele>
        <time>2023-07-30T14:18:18.000Z</time>
      </trkpt>
      <trkpt lat="43.73045" lon="1.47029">
        <ele>153.714681</ele>
        <time>2023-07-30T14:18:19.000Z</time>
      </trkpt>
      <trkpt lat="43.73047" lon="1.47025">
        <ele>153.714983</ele>
        <time>2023-07-30T14:18:20.000Z</time>
      </trkpt>
      <trkpt lat="43.73047" lon="1.47021">
        <ele>153.715171</ele>
        <time>2023-07-30T14:18:21.000Z</time>
      </trkpt>
      <trkpt lat="43.73047" lon="1.47021">
        <ele>153.715171</ele>
        <time>2023-07-30T14:18:21.000Z</time>
      </trkpt>
      <trkpt lat="43.73048" lon="1.47019">
        <ele>153.715326</ele>
        <time>2023-07-30T14:18:22.000Z</time>
      </trkpt>
      <trkpt lat="43.73048" lon="1.47016">
        <ele>153.715488</ele>
        <time>2023-07-30T14:18:23.000Z</time>
      </trkpt>
      <trkpt lat="43.7305" lon="1.47004">
        <ele>153.716181</ele>
        <time>2023-07-30T14:18:25.000Z</time>
      </trkpt>
      <trkpt lat="43.7305" lon="1.47004">
        <ele>153.716181</ele>
        <time>2023-07-30T14:18:25.000Z</time>
      </trkpt>
      <trkpt lat="43.7305" lon="1.46996">
        <ele>153.716635</ele>
        <time>2023-07-30T14:18:27.000Z</time>
      </trkpt>
      <trkpt lat="43.73051" lon="1.4699">
        <ele>153.716976</ele>
        <time>2023-07-30T14:18:28.000Z</time>
      </trkpt>
      <trkpt lat="43.73053" lon="1.46984">
        <ele>153.717347</ele>
        <time>2023-07-30T14:18:28.000Z</time>
      </trkpt>
      <trkpt lat="43.73055" lon="1.46978">
        <ele>153.717725</ele>
        <time>2023-07-30T14:18:30.000Z</time>
      </trkpt>
      <trkpt lat="43.73057" lon="1.46972">
        <ele>153.718134</ele>
        <time>2023-07-30T14:18:30.000Z</time>
      </trkpt>
      <trkpt lat="43.73059" lon="1.46967">
        <ele>153.718411</ele>
        <time>2023-07-30T14:18:32.000Z</time>
      </trkpt>
      <trkpt lat="43.73059" lon="1.46967">
        <ele>153.718411</ele>
        <time>2023-07-30T14:18:32.000Z</time>
      </trkpt>
      <trkpt lat="43.73061" lon="1.46961">
        <ele>153.718815</ele>
        <time>2023-07-30T14:18:33.000Z</time>
      </trkpt>
      <trkpt lat="43.73063" lon="1.46954">
        <ele>153.72711</ele>
        <time>2023-07-30T14:18:35.000Z</time>
      </trkpt>
      <trkpt lat="43.73065" lon="1.46945">
        <ele>153.748526</ele>
        <time>2023-07-30T14:18:36.000Z</time>
      </trkpt>
      <trkpt lat="43.73066" lon="1.46939">
        <ele>153.76325</ele>
        <time>2023-07-30T14:18:37.000Z</time>
      </trkpt>
      <trkpt lat="43.73066" lon="1.46939">
        <ele>153.76325</ele>
        <time>2023-07-30T14:18:37.000Z</time>
      </trkpt>
      <trkpt lat="43.73067" lon="1.46934">
        <ele>153.775062</ele>
        <time>2023-07-30T14:18:39.000Z</time>
      </trkpt>
      <trkpt lat="43.73067" lon="1.46934">
        <ele>153.775062</ele>
        <time>2023-07-30T14:18:39.000Z</time>
      </trkpt>
      <trkpt lat="43.73068" lon="1.46928">
        <ele>153.789339</ele>
        <time>2023-07-30T14:18:40.000Z</time>
      </trkpt>
      <trkpt lat="43.73068" lon="1.46928">
        <ele>153.789339</ele>
        <time>2023-07-30T14:18:40.000Z</time>
      </trkpt>
      <trkpt lat="43.73068" lon="1.46923">
        <ele>153.799948</ele>
        <time>2023-07-30T14:18:41.000Z</time>
      </trkpt>
      <trkpt lat="43.73068" lon="1.46923">
        <ele>153.799948</ele>
        <time>2023-07-30T14:18:41.000Z</time>
      </trkpt>
      <trkpt lat="43.73069" lon="1.46917">
        <ele>153.814535</ele>
        <time>2023-07-30T14:18:42.000Z</time>
      </trkpt>
      <trkpt lat="43.73069" lon="1.46917">
        <ele>153.814535</ele>
        <time>2023-07-30T14:18:42.000Z</time>
      </trkpt>
      <trkpt lat="43.73069" lon="1.46911">
        <ele>153.827912</ele>
        <time>2023-07-30T14:18:43.000Z</time>
      </trkpt>
      <trkpt lat="43.73069" lon="1.46911">
        <ele>153.827912</ele>
        <time>2023-07-30T14:18:43.000Z</time>
      </trkpt>
      <trkpt lat="43.73069" lon="1.46905">
        <ele>153.842904</ele>
        <time>2023-07-30T14:18:44.000Z</time>
      </trkpt>
      <trkpt lat="43.73069" lon="1.46905">
        <ele>153.842904</ele>
        <time>2023-07-30T14:18:44.000Z</time>
      </trkpt>
      <trkpt lat="43.73069" lon="1.46899">
        <ele>153.855166</ele>
        <time>2023-07-30T14:18:46.000Z</time>
      </trkpt>
      <trkpt lat="43.73069" lon="1.46899">
        <ele>153.855166</ele>
        <time>2023-07-30T14:18:46.000Z</time>
      </trkpt>
      <trkpt lat="43.7307" lon="1.46894">
        <ele>153.866769</ele>
        <time>2023-07-30T14:18:47.000Z</time>
      </trkpt>
      <trkpt lat="43.73075" lon="1.46882">
        <ele>153.900595</ele>
        <time>2023-07-30T14:18:49.000Z</time>
      </trkpt>
      <trkpt lat="43.73078" lon="1.46876">
        <ele>153.916897</ele>
        <time>2023-07-30T14:18:49.000Z</time>
      </trkpt>
      <trkpt lat="43.7308" lon="1.4687">
        <ele>153.931355</ele>
        <time>2023-07-30T14:18:51.000Z</time>
      </trkpt>
      <trkpt lat="43.73083" lon="1.46865">
        <ele>153.946522</ele>
        <time>2023-07-30T14:18:52.000Z</time>
      </trkpt>
      <trkpt lat="43.73086" lon="1.46862">
        <ele>153.959589</ele>
        <time>2023-07-30T14:18:53.000Z</time>
      </trkpt>
      <trkpt lat="43.73086" lon="1.46862">
        <ele>153.959589</ele>
        <time>2023-07-30T14:18:53.000Z</time>
      </trkpt>
      <trkpt lat="43.73089" lon="1.46857">
        <ele>153.972114</ele>
        <time>2023-07-30T14:18:54.000Z</time>
      </trkpt>
      <trkpt lat="43.73092" lon="1.46853">
        <ele>153.985252</ele>
        <time>2023-07-30T14:18:55.000Z</time>
      </trkpt>
      <trkpt lat="43.73092" lon="1.46853">
        <ele>153.985252</ele>
        <time>2023-07-30T14:18:55.000Z</time>
      </trkpt>
      <trkpt lat="43.73095" lon="1.46849">
        <ele>153.999496</ele>
        <time>2023-07-30T14:18:56.000Z</time>
      </trkpt>
      <trkpt lat="43.73098" lon="1.46845">
        <ele>154.011788</ele>
        <time>2023-07-30T14:18:58.000Z</time>
      </trkpt>
      <trkpt lat="43.73101" lon="1.46842">
        <ele>154.024413</ele>
        <time>2023-07-30T14:18:58.000Z</time>
      </trkpt>
      <trkpt lat="43.73105" lon="1.46837">
        <ele>154.042548</ele>
        <time>2023-07-30T14:19:00.000Z</time>
      </trkpt>
      <trkpt lat="43.73105" lon="1.46837">
        <ele>154.042548</ele>
        <time>2023-07-30T14:19:00.000Z</time>
      </trkpt>
      <trkpt lat="43.73109" lon="1.46833">
        <ele>154.058953</ele>
        <time>2023-07-30T14:19:01.000Z</time>
      </trkpt>
      <trkpt lat="43.73113" lon="1.4683">
        <ele>154.071974</ele>
        <time>2023-07-30T14:19:02.000Z</time>
      </trkpt>
      <trkpt lat="43.73113" lon="1.4683">
        <ele>154.071974</ele>
        <time>2023-07-30T14:19:02.000Z</time>
      </trkpt>
      <trkpt lat="43.73117" lon="1.46824">
        <ele>154.092242</ele>
        <time>2023-07-30T14:19:04.000Z</time>
      </trkpt>
      <trkpt lat="43.73117" lon="1.46824">
        <ele>154.092242</ele>
        <time>2023-07-30T14:19:04.000Z</time>
      </trkpt>
      <trkpt lat="43.7312" lon="1.46821">
        <ele>154.103894</ele>
        <time>2023-07-30T14:19:05.000Z</time>
      </trkpt>
      <trkpt lat="43.73123" lon="1.46817">
        <ele>154.11696</ele>
        <time>2023-07-30T14:19:06.000Z</time>
      </trkpt>
      <trkpt lat="43.73126" lon="1.46814">
        <ele>154.127048</ele>
        <time>2023-07-30T14:19:07.000Z</time>
      </trkpt>
      <trkpt lat="43.73126" lon="1.46814">
        <ele>154.127048</ele>
        <time>2023-07-30T14:19:07.000Z</time>
      </trkpt>
      <trkpt lat="43.73128" lon="1.4681">
        <ele>154.138305</ele>
        <time>2023-07-30T14:19:08.000Z</time>
      </trkpt>
      <trkpt lat="43.73129" lon="1.46808">
        <ele>154.146161</ele>
        <time>2023-07-30T14:19:10.000Z</time>
      </trkpt>
      <trkpt lat="43.73129" lon="1.46808">
        <ele>154.146161</ele>
        <time>2023-07-30T14:19:10.000Z</time>
      </trkpt>
      <trkpt lat="43.73131" lon="1.46805">
        <ele>154.153306</ele>
        <time>2023-07-30T14:19:11.000Z</time>
      </trkpt>
      <trkpt lat="43.73133" lon="1.46802">
        <ele>154.163038</ele>
        <time>2023-07-30T14:19:12.000Z</time>
      </trkpt>
      <trkpt lat="43.73134" lon="1.46797">
        <ele>154.1751</ele>
        <time>2023-07-30T14:19:13.000Z</time>
      </trkpt>
      <trkpt lat="43.73136" lon="1.46792">
        <ele>154.187723</ele>
        <time>2023-07-30T14:19:14.000Z</time>
      </trkpt>
      <trkpt lat="43.73137" lon="1.46788">
        <ele>154.199438</ele>
        <time>2023-07-30T14:19:15.000Z</time>
      </trkpt>
      <trkpt lat="43.73138" lon="1.46783">
        <ele>154.211272</ele>
        <time>2023-07-30T14:19:16.000Z</time>
      </trkpt>
      <trkpt lat="43.73139" lon="1.46779">
        <ele>154.221067</ele>
        <time>2023-07-30T14:19:18.000Z</time>
      </trkpt>
      <trkpt lat="43.7314" lon="1.46773">
        <ele>154.233128</ele>
        <time>2023-07-30T14:19:19.000Z</time>
      </trkpt>
      <trkpt lat="43.7314" lon="1.46773">
        <ele>154.233128</ele>
        <time>2023-07-30T14:19:19.000Z</time>
      </trkpt>
      <trkpt lat="43.7314" lon="1.46767">
        <ele>154.248513</ele>
        <time>2023-07-30T14:19:19.000Z</time>
      </trkpt>
      <trkpt lat="43.73141" lon="1.46761">
        <ele>154.26264</ele>
        <time>2023-07-30T14:19:21.000Z</time>
      </trkpt>
      <trkpt lat="43.73143" lon="1.46749">
        <ele>154.290523</ele>
        <time>2023-07-30T14:19:22.000Z</time>
      </trkpt>
      <trkpt lat="43.73143" lon="1.46749">
        <ele>154.290523</ele>
        <time>2023-07-30T14:19:22.000Z</time>
      </trkpt>
      <trkpt lat="43.73145" lon="1.46742">
        <ele>154.293023</ele>
        <time>2023-07-30T14:19:23.000Z</time>
      </trkpt>
      <trkpt lat="43.73145" lon="1.46742">
        <ele>154.293023</ele>
        <time>2023-07-30T14:19:23.000Z</time>
      </trkpt>
      <trkpt lat="43.73146" lon="1.46737">
        <ele>154.292921</ele>
        <time>2023-07-30T14:19:26.000Z</time>
      </trkpt>
      <trkpt lat="43.73147" lon="1.46729">
        <ele>154.292779</ele>
        <time>2023-07-30T14:19:26.000Z</time>
      </trkpt>
      <trkpt lat="43.73147" lon="1.46729">
        <ele>154.292779</ele>
        <time>2023-07-30T14:19:26.000Z</time>
      </trkpt>
      <trkpt lat="43.73149" lon="1.46722">
        <ele>154.292625</ele>
        <time>2023-07-30T14:19:27.000Z</time>
      </trkpt>
      <trkpt lat="43.73151" lon="1.46714">
        <ele>154.292481</ele>
        <time>2023-07-30T14:19:28.000Z</time>
      </trkpt>
      <trkpt lat="43.73151" lon="1.46714">
        <ele>154.292481</ele>
        <time>2023-07-30T14:19:28.000Z</time>
      </trkpt>
      <trkpt lat="43.73153" lon="1.46708">
        <ele>154.292352</ele>
        <time>2023-07-30T14:19:29.000Z</time>
      </trkpt>
      <trkpt lat="43.73153" lon="1.46708">
        <ele>154.292352</ele>
        <time>2023-07-30T14:19:29.000Z</time>
      </trkpt>
      <trkpt lat="43.73156" lon="1.46701">
        <ele>154.292198</ele>
        <time>2023-07-30T14:19:32.000Z</time>
      </trkpt>
      <trkpt lat="43.73158" lon="1.46696">
        <ele>154.292075</ele>
        <time>2023-07-30T14:19:33.000Z</time>
      </trkpt>
      <trkpt lat="43.73162" lon="1.46691">
        <ele>154.291932</ele>
        <time>2023-07-30T14:19:34.000Z</time>
      </trkpt>
      <trkpt lat="43.73166" lon="1.46686">
        <ele>154.291796</ele>
        <time>2023-07-30T14:19:35.000Z</time>
      </trkpt>
      <trkpt lat="43.73172" lon="1.4668">
        <ele>154.291606</ele>
        <time>2023-07-30T14:19:37.000Z</time>
      </trkpt>
      <trkpt lat="43.73172" lon="1.4668">
        <ele>154.291606</ele>
        <time>2023-07-30T14:19:37.000Z</time>
      </trkpt>
      <trkpt lat="43.73174" lon="1.46678">
        <ele>154.291536</ele>
        <time>2023-07-30T14:19:37.000Z</time>
      </trkpt>
      <trkpt lat="43.73177" lon="1.46675">
        <ele>154.291436</ele>
        <time>2023-07-30T14:19:39.000Z</time>
      </trkpt>
      <trkpt lat="43.73177" lon="1.46675">
        <ele>154.291436</ele>
        <time>2023-07-30T14:19:39.000Z</time>
      </trkpt>
      <trkpt lat="43.73179" lon="1.46672">
        <ele>154.29136</ele>
        <time>2023-07-30T14:19:40.000Z</time>
      </trkpt>
      <trkpt lat="43.73182" lon="1.46669">
        <ele>154.291266</ele>
        <time>2023-07-30T14:19:41.000Z</time>
      </trkpt>
      <trkpt lat="43.73183" lon="1.46666">
        <ele>154.291212</ele>
        <time>2023-07-30T14:19:42.000Z</time>
      </trkpt>
      <trkpt lat="43.73183" lon="1.46666">
        <ele>154.291212</ele>
        <time>2023-07-30T14:19:42.000Z</time>
      </trkpt>
      <trkpt lat="43.73184" lon="1.46664">
        <ele>154.291153</ele>
        <time>2023-07-30T14:19:43.000Z</time>
      </trkpt>
      <trkpt lat="43.73185" lon="1.4666">
        <ele>154.291075</ele>
        <time>2023-07-30T14:19:45.000Z</time>
      </trkpt>
      <trkpt lat="43.73185" lon="1.46657">
        <ele>154.291028</ele>
        <time>2023-07-30T14:19:45.000Z</time>
      </trkpt>
      <trkpt lat="43.73185" lon="1.46653">
        <ele>154.290946</ele>
        <time>2023-07-30T14:19:47.000Z</time>
      </trkpt>
      <trkpt lat="43.73186" lon="1.46648">
        <ele>154.290853</ele>
        <time>2023-07-30T14:19:48.000Z</time>
      </trkpt>
      <trkpt lat="43.73186" lon="1.46644">
        <ele>154.290771</ele>
        <time>2023-07-30T14:19:49.000Z</time>
      </trkpt>
      <trkpt lat="43.73186" lon="1.46644">
        <ele>154.290771</ele>
        <time>2023-07-30T14:19:49.000Z</time>
      </trkpt>
      <trkpt lat="43.73187" lon="1.46639">
        <ele>154.29068</ele>
        <time>2023-07-30T14:19:50.000Z</time>
      </trkpt>
      <trkpt lat="43.73189" lon="1.46634">
        <ele>154.290571</ele>
        <time>2023-07-30T14:19:51.000Z</time>
      </trkpt>
      <trkpt lat="43.73192" lon="1.46629">
        <ele>154.290451</ele>
        <time>2023-07-30T14:19:53.000Z</time>
      </trkpt>
      <trkpt lat="43.73192" lon="1.46629">
        <ele>154.290451</ele>
        <time>2023-07-30T14:19:53.000Z</time>
      </trkpt>
      <trkpt lat="43.73194" lon="1.46623">
        <ele>154.290322</ele>
        <time>2023-07-30T14:19:54.000Z</time>
      </trkpt>
      <trkpt lat="43.73196" lon="1.46618">
        <ele>154.290203</ele>
        <time>2023-07-30T14:19:55.000Z</time>
      </trkpt>
      <trkpt lat="43.73198" lon="1.46615">
        <ele>154.290137</ele>
        <time>2023-07-30T14:19:56.000Z</time>
      </trkpt>
      <trkpt lat="43.732" lon="1.46611">
        <ele>154.290051</ele>
        <time>2023-07-30T14:19:57.000Z</time>
      </trkpt>
      <trkpt lat="43.73201" lon="1.46607">
        <ele>154.289966</ele>
        <time>2023-07-30T14:19:58.000Z</time>
      </trkpt>
      <trkpt lat="43.73201" lon="1.46607">
        <ele>154.289966</ele>
        <time>2023-07-30T14:19:58.000Z</time>
      </trkpt>
      <trkpt lat="43.73204" lon="1.46602">
        <ele>154.289843</ele>
        <time>2023-07-30T14:20:00.000Z</time>
      </trkpt>
      <trkpt lat="43.73205" lon="1.46599">
        <ele>154.289778</ele>
        <time>2023-07-30T14:20:01.000Z</time>
      </trkpt>
      <trkpt lat="43.73205" lon="1.46599">
        <ele>154.289778</ele>
        <time>2023-07-30T14:20:01.000Z</time>
      </trkpt>
      <trkpt lat="43.73206" lon="1.46597">
        <ele>154.289746</ele>
        <time>2023-07-30T14:20:02.000Z</time>
      </trkpt>
      <trkpt lat="43.73208" lon="1.46592">
        <ele>154.289632</ele>
        <time>2023-07-30T14:20:03.000Z</time>
      </trkpt>
      <trkpt lat="43.73209" lon="1.46587">
        <ele>154.289536</ele>
        <time>2023-07-30T14:20:05.000Z</time>
      </trkpt>
      <trkpt lat="43.73211" lon="1.46583">
        <ele>154.289439</ele>
        <time>2023-07-30T14:20:06.000Z</time>
      </trkpt>
      <trkpt lat="43.73211" lon="1.46583">
        <ele>154.289439</ele>
        <time>2023-07-30T14:20:06.000Z</time>
      </trkpt>
      <trkpt lat="43.73214" lon="1.46578">
        <ele>154.289324</ele>
        <time>2023-07-30T14:20:07.000Z</time>
      </trkpt>
      <trkpt lat="43.73217" lon="1.46573">
        <ele>154.289202</ele>
        <time>2023-07-30T14:20:08.000Z</time>
      </trkpt>
      <trkpt lat="43.73219" lon="1.46569">
        <ele>154.2891</ele>
        <time>2023-07-30T14:20:09.000Z</time>
      </trkpt>
      <trkpt lat="43.73219" lon="1.46569">
        <ele>154.2891</ele>
        <time>2023-07-30T14:20:09.000Z</time>
      </trkpt>
      <trkpt lat="43.73223" lon="1.46563">
        <ele>154.288959</ele>
        <time>2023-07-30T14:20:10.000Z</time>
      </trkpt>
      <trkpt lat="43.73223" lon="1.46563">
        <ele>154.288959</ele>
        <time>2023-07-30T14:20:10.000Z</time>
      </trkpt>
      <trkpt lat="43.73226" lon="1.46559">
        <ele>154.288841</ele>
        <time>2023-07-30T14:20:12.000Z</time>
      </trkpt>
      <trkpt lat="43.73226" lon="1.46559">
        <ele>154.288841</ele>
        <time>2023-07-30T14:20:12.000Z</time>
      </trkpt>
      <trkpt lat="43.73228" lon="1.46555">
        <ele>154.28874</ele>
        <time>2023-07-30T14:20:13.000Z</time>
      </trkpt>
      <trkpt lat="43.73228" lon="1.46555">
        <ele>154.28874</ele>
        <time>2023-07-30T14:20:13.000Z</time>
      </trkpt>
      <trkpt lat="43.73231" lon="1.46549">
        <ele>154.288612</ele>
        <time>2023-07-30T14:20:14.000Z</time>
      </trkpt>
      <trkpt lat="43.73231" lon="1.46549">
        <ele>154.288612</ele>
        <time>2023-07-30T14:20:14.000Z</time>
      </trkpt>
      <trkpt lat="43.73233" lon="1.46544">
        <ele>154.288507</ele>
        <time>2023-07-30T14:20:15.000Z</time>
      </trkpt>
      <trkpt lat="43.73236" lon="1.46539">
        <ele>154.284735</ele>
        <time>2023-07-30T14:20:16.000Z</time>
      </trkpt>
      <trkpt lat="43.73236" lon="1.46539">
        <ele>154.284735</ele>
        <time>2023-07-30T14:20:16.000Z</time>
      </trkpt>
      <trkpt lat="43.73238" lon="1.46534">
        <ele>154.273392</ele>
        <time>2023-07-30T14:20:17.000Z</time>
      </trkpt>
      <trkpt lat="43.7324" lon="1.46529">
        <ele>154.262667</ele>
        <time>2023-07-30T14:20:18.000Z</time>
      </trkpt>
      <trkpt lat="43.73243" lon="1.46523">
        <ele>154.250376</ele>
        <time>2023-07-30T14:20:19.000Z</time>
      </trkpt>
      <trkpt lat="43.73245" lon="1.46516">
        <ele>154.236134</ele>
        <time>2023-07-30T14:20:21.000Z</time>
      </trkpt>
      <trkpt lat="43.7325" lon="1.46503">
        <ele>154.210438</ele>
        <time>2023-07-30T14:20:23.000Z</time>
      </trkpt>
      <trkpt lat="43.73253" lon="1.465">
        <ele>154.202142</ele>
        <time>2023-07-30T14:20:24.000Z</time>
      </trkpt>
      <trkpt lat="43.73254" lon="1.46496">
        <ele>154.193928</ele>
        <time>2023-07-30T14:20:25.000Z</time>
      </trkpt>
      <trkpt lat="43.73259" lon="1.4649">
        <ele>154.178013</ele>
        <time>2023-07-30T14:20:26.000Z</time>
      </trkpt>
      <trkpt lat="43.73259" lon="1.4649">
        <ele>154.178013</ele>
        <time>2023-07-30T14:20:26.000Z</time>
      </trkpt>
      <trkpt lat="43.73262" lon="1.46485">
        <ele>154.166666</ele>
        <time>2023-07-30T14:20:27.000Z</time>
      </trkpt>
      <trkpt lat="43.73262" lon="1.46485">
        <ele>154.166666</ele>
        <time>2023-07-30T14:20:27.000Z</time>
      </trkpt>
      <trkpt lat="43.73266" lon="1.46479">
        <ele>154.152329</ele>
        <time>2023-07-30T14:20:28.000Z</time>
      </trkpt>
      <trkpt lat="43.73266" lon="1.46479">
        <ele>154.152329</ele>
        <time>2023-07-30T14:20:28.000Z</time>
      </trkpt>
      <trkpt lat="43.73269" lon="1.46474">
        <ele>154.139772</ele>
        <time>2023-07-30T14:20:29.000Z</time>
      </trkpt>
      <trkpt lat="43.73269" lon="1.46474">
        <ele>154.139772</ele>
        <time>2023-07-30T14:20:29.000Z</time>
      </trkpt>
      <trkpt lat="43.73277" lon="1.46469">
        <ele>154.117402</ele>
        <time>2023-07-30T14:20:31.000Z</time>
      </trkpt>
      <trkpt lat="43.73277" lon="1.46469">
        <ele>154.117402</ele>
        <time>2023-07-30T14:20:31.000Z</time>
      </trkpt>
      <trkpt lat="43.73282" lon="1.46466">
        <ele>154.105091</ele>
        <time>2023-07-30T14:20:32.000Z</time>
      </trkpt>
      <trkpt lat="43.73282" lon="1.46466">
        <ele>154.105091</ele>
        <time>2023-07-30T14:20:32.000Z</time>
      </trkpt>
      <trkpt lat="43.73286" lon="1.46465">
        <ele>154.092659</ele>
        <time>2023-07-30T14:20:33.000Z</time>
      </trkpt>
      <trkpt lat="43.73286" lon="1.46465">
        <ele>154.092659</ele>
        <time>2023-07-30T14:20:33.000Z</time>
      </trkpt>
      <trkpt lat="43.73293" lon="1.46466">
        <ele>154.07626</ele>
        <time>2023-07-30T14:20:34.000Z</time>
      </trkpt>
      <trkpt lat="43.73293" lon="1.46466">
        <ele>154.07626</ele>
        <time>2023-07-30T14:20:34.000Z</time>
      </trkpt>
      <trkpt lat="43.73296" lon="1.46467">
        <ele>154.067488</ele>
        <time>2023-07-30T14:20:36.000Z</time>
      </trkpt>
      <trkpt lat="43.73301" lon="1.46468">
        <ele>154.05488</ele>
        <time>2023-07-30T14:20:37.000Z</time>
      </trkpt>
      <trkpt lat="43.73301" lon="1.46468">
        <ele>154.05488</ele>
        <time>2023-07-30T14:20:37.000Z</time>
      </trkpt>
      <trkpt lat="43.73304" lon="1.46469">
        <ele>154.048058</ele>
        <time>2023-07-30T14:20:38.000Z</time>
      </trkpt>
      <trkpt lat="43.73304" lon="1.46469">
        <ele>154.048058</ele>
        <time>2023-07-30T14:20:38.000Z</time>
      </trkpt>
      <trkpt lat="43.73307" lon="1.46469">
        <ele>154.040543</ele>
        <time>2023-07-30T14:20:39.000Z</time>
      </trkpt>
      <trkpt lat="43.73314" lon="1.46463">
        <ele>154.019728</ele>
        <time>2023-07-30T14:20:42.000Z</time>
      </trkpt>
      <trkpt lat="43.73314" lon="1.46463">
        <ele>154.019728</ele>
        <time>2023-07-30T14:20:42.000Z</time>
      </trkpt>
      <trkpt lat="43.73315" lon="1.46461">
        <ele>154.015973</ele>
        <time>2023-07-30T14:20:43.000Z</time>
      </trkpt>
      <trkpt lat="43.73315" lon="1.46458">
        <ele>154.010453</ele>
        <time>2023-07-30T14:20:44.000Z</time>
      </trkpt>
      <trkpt lat="43.73312" lon="1.46452">
        <ele>153.997662</ele>
        <time>2023-07-30T14:20:46.000Z</time>
      </trkpt>
      <trkpt lat="43.73311" lon="1.4645">
        <ele>153.992529</ele>
        <time>2023-07-30T14:20:47.000Z</time>
      </trkpt>
      <trkpt lat="43.7331" lon="1.46447">
        <ele>153.987077</ele>
        <time>2023-07-30T14:20:48.000Z</time>
      </trkpt>
      <trkpt lat="43.73309" lon="1.46443">
        <ele>153.977945</ele>
        <time>2023-07-30T14:20:49.000Z</time>
      </trkpt>
      <trkpt lat="43.73307" lon="1.46437">
        <ele>153.967722</ele>
        <time>2023-07-30T14:20:50.000Z</time>
      </trkpt>
      <trkpt lat="43.73308" lon="1.46432">
        <ele>153.958259</ele>
        <time>2023-07-30T14:20:51.000Z</time>
      </trkpt>
      <trkpt lat="43.73309" lon="1.46428">
        <ele>153.949873</ele>
        <time>2023-07-30T14:20:52.000Z</time>
      </trkpt>
      <trkpt lat="43.73311" lon="1.46423">
        <ele>153.93997</ele>
        <time>2023-07-30T14:20:53.000Z</time>
      </trkpt>
      <trkpt lat="43.73311" lon="1.46423">
        <ele>153.93997</ele>
        <time>2023-07-30T14:20:53.000Z</time>
      </trkpt>
      <trkpt lat="43.73313" lon="1.46418">
        <ele>153.929548</ele>
        <time>2023-07-30T14:20:54.000Z</time>
      </trkpt>
      <trkpt lat="43.73319" lon="1.46406">
        <ele>153.902267</ele>
        <time>2023-07-30T14:20:56.000Z</time>
      </trkpt>
      <trkpt lat="43.73323" lon="1.46398">
        <ele>153.884664</ele>
        <time>2023-07-30T14:20:58.000Z</time>
      </trkpt>
      <trkpt lat="43.73323" lon="1.46398">
        <ele>153.884664</ele>
        <time>2023-07-30T14:20:58.000Z</time>
      </trkpt>
      <trkpt lat="43.73325" lon="1.46395">
        <ele>153.878205</ele>
        <time>2023-07-30T14:20:59.000Z</time>
      </trkpt>
      <trkpt lat="43.73327" lon="1.46391">
        <ele>153.869084</ele>
        <time>2023-07-30T14:21:00.000Z</time>
      </trkpt>
      <trkpt lat="43.73327" lon="1.46391">
        <ele>153.869084</ele>
        <time>2023-07-30T14:21:00.000Z</time>
      </trkpt>
      <trkpt lat="43.73329" lon="1.46386">
        <ele>153.858511</ele>
        <time>2023-07-30T14:21:01.000Z</time>
      </trkpt>
      <trkpt lat="43.73329" lon="1.46386">
        <ele>153.858511</ele>
        <time>2023-07-30T14:21:01.000Z</time>
      </trkpt>
      <trkpt lat="43.73332" lon="1.46381">
        <ele>153.847633</ele>
        <time>2023-07-30T14:21:02.000Z</time>
      </trkpt>
      <trkpt lat="43.73335" lon="1.46371">
        <ele>153.888978</ele>
        <time>2023-07-30T14:21:04.000Z</time>
      </trkpt>
      <trkpt lat="43.73335" lon="1.46371">
        <ele>153.888978</ele>
        <time>2023-07-30T14:21:04.000Z</time>
      </trkpt>
      <trkpt lat="43.7334" lon="1.46362">
        <ele>153.986225</ele>
        <time>2023-07-30T14:21:05.000Z</time>
      </trkpt>
      <trkpt lat="43.7334" lon="1.46362">
        <ele>153.986225</ele>
        <time>2023-07-30T14:21:05.000Z</time>
      </trkpt>
      <trkpt lat="43.73341" lon="1.46359">
        <ele>154.019053</ele>
        <time>2023-07-30T14:21:06.000Z</time>
      </trkpt>
      <trkpt lat="43.73341" lon="1.46359">
        <ele>154.019053</ele>
        <time>2023-07-30T14:21:06.000Z</time>
      </trkpt>
      <trkpt lat="43.73343" lon="1.46354">
        <ele>154.063403</ele>
        <time>2023-07-30T14:21:08.000Z</time>
      </trkpt>
      <trkpt lat="43.73345" lon="1.4635">
        <ele>154.105523</ele>
        <time>2023-07-30T14:21:09.000Z</time>
      </trkpt>
      <trkpt lat="43.73345" lon="1.4635">
        <ele>154.105523</ele>
        <time>2023-07-30T14:21:09.000Z</time>
      </trkpt>
      <trkpt lat="43.73348" lon="1.46345">
        <ele>154.160446</ele>
        <time>2023-07-30T14:21:10.000Z</time>
      </trkpt>
      <trkpt lat="43.73348" lon="1.46345">
        <ele>154.160446</ele>
        <time>2023-07-30T14:21:10.000Z</time>
      </trkpt>
      <trkpt lat="43.73349" lon="1.46341">
        <ele>154.2001</ele>
        <time>2023-07-30T14:21:11.000Z</time>
      </trkpt>
      <trkpt lat="43.73352" lon="1.46335">
        <ele>154.266489</ele>
        <time>2023-07-30T14:21:12.000Z</time>
      </trkpt>
      <trkpt lat="43.73352" lon="1.46335">
        <ele>154.266489</ele>
        <time>2023-07-30T14:21:12.000Z</time>
      </trkpt>
      <trkpt lat="43.73357" lon="1.46326">
        <ele>154.366384</ele>
        <time>2023-07-30T14:21:14.000Z</time>
      </trkpt>
      <trkpt lat="43.73357" lon="1.46326">
        <ele>154.366384</ele>
        <time>2023-07-30T14:21:14.000Z</time>
      </trkpt>
      <trkpt lat="43.73359" lon="1.4632">
        <ele>154.420025</ele>
        <time>2023-07-30T14:21:16.000Z</time>
      </trkpt>
      <trkpt lat="43.73359" lon="1.4632">
        <ele>154.420025</ele>
        <time>2023-07-30T14:21:16.000Z</time>
      </trkpt>
      <trkpt lat="43.7336" lon="1.46315">
        <ele>154.471297</ele>
        <time>2023-07-30T14:21:17.000Z</time>
      </trkpt>
      <trkpt lat="43.73362" lon="1.46308">
        <ele>154.537578</ele>
        <time>2023-07-30T14:21:18.000Z</time>
      </trkpt>
      <trkpt lat="43.73364" lon="1.46302">
        <ele>154.589305</ele>
        <time>2023-07-30T14:21:19.000Z</time>
      </trkpt>
      <trkpt lat="43.73364" lon="1.46289">
        <ele>154.706736</ele>
        <time>2023-07-30T14:21:21.000Z</time>
      </trkpt>
      <trkpt lat="43.73364" lon="1.46289">
        <ele>154.706736</ele>
        <time>2023-07-30T14:21:21.000Z</time>
      </trkpt>
      <trkpt lat="43.73364" lon="1.46284">
        <ele>154.750125</ele>
        <time>2023-07-30T14:21:22.000Z</time>
      </trkpt>
      <trkpt lat="43.73362" lon="1.4628">
        <ele>154.790562</ele>
        <time>2023-07-30T14:21:23.000Z</time>
      </trkpt>
      <trkpt lat="43.73358" lon="1.46275">
        <ele>154.855786</ele>
        <time>2023-07-30T14:21:24.000Z</time>
      </trkpt>
      <trkpt lat="43.73358" lon="1.46275">
        <ele>154.855786</ele>
        <time>2023-07-30T14:21:24.000Z</time>
      </trkpt>
      <trkpt lat="43.73348" lon="1.46272">
        <ele>154.981613</ele>
        <time>2023-07-30T14:21:26.000Z</time>
      </trkpt>
      <trkpt lat="43.73346" lon="1.46271">
        <ele>155.014721</ele>
        <time>2023-07-30T14:21:26.000Z</time>
      </trkpt>
      <trkpt lat="43.73341" lon="1.4627">
        <ele>155.071075</ele>
        <time>2023-07-30T14:21:28.000Z</time>
      </trkpt>
      <trkpt lat="43.73337" lon="1.46269">
        <ele>155.12259</ele>
        <time>2023-07-30T14:21:28.000Z</time>
      </trkpt>
      <trkpt lat="43.73337" lon="1.46269">
        <ele>155.12259</ele>
        <time>2023-07-30T14:21:28.000Z</time>
      </trkpt>
      <trkpt lat="43.73332" lon="1.46269">
        <ele>155.183477</ele>
        <time>2023-07-30T14:21:30.000Z</time>
      </trkpt>
      <trkpt lat="43.73327" lon="1.46269">
        <ele>155.248042</ele>
        <time>2023-07-30T14:21:30.000Z</time>
      </trkpt>
      <trkpt lat="43.73317" lon="1.46267">
        <ele>155.361888</ele>
        <time>2023-07-30T14:21:33.000Z</time>
      </trkpt>
      <trkpt lat="43.73317" lon="1.46267">
        <ele>155.361888</ele>
        <time>2023-07-30T14:21:33.000Z</time>
      </trkpt>
      <trkpt lat="43.73314" lon="1.46266">
        <ele>155.408695</ele>
        <time>2023-07-30T14:21:34.000Z</time>
      </trkpt>
      <trkpt lat="43.73309" lon="1.46264">
        <ele>155.461742</ele>
        <time>2023-07-30T14:21:35.000Z</time>
      </trkpt>
      <trkpt lat="43.73304" lon="1.46262">
        <ele>155.525338</ele>
        <time>2023-07-30T14:21:36.000Z</time>
      </trkpt>
      <trkpt lat="43.73299" lon="1.46259">
        <ele>155.592421</ele>
        <time>2023-07-30T14:21:37.000Z</time>
      </trkpt>
      <trkpt lat="43.73296" lon="1.46255">
        <ele>155.647051</ele>
        <time>2023-07-30T14:21:38.000Z</time>
      </trkpt>
      <trkpt lat="43.73292" lon="1.46251">
        <ele>155.706272</ele>
        <time>2023-07-30T14:21:39.000Z</time>
      </trkpt>
      <trkpt lat="43.73289" lon="1.46247">
        <ele>155.758488</ele>
        <time>2023-07-30T14:21:40.000Z</time>
      </trkpt>
      <trkpt lat="43.73287" lon="1.46244">
        <ele>155.790589</ele>
        <time>2023-07-30T14:21:41.000Z</time>
      </trkpt>
      <trkpt lat="43.73287" lon="1.46244">
        <ele>155.790589</ele>
        <time>2023-07-30T14:21:41.000Z</time>
      </trkpt>
      <trkpt lat="43.73285" lon="1.4624">
        <ele>155.834885</ele>
        <time>2023-07-30T14:21:42.000Z</time>
      </trkpt>
      <trkpt lat="43.73281" lon="1.46231">
        <ele>155.925847</ele>
        <time>2023-07-30T14:21:44.000Z</time>
      </trkpt>
      <trkpt lat="43.73281" lon="1.46231">
        <ele>155.925847</ele>
        <time>2023-07-30T14:21:44.000Z</time>
      </trkpt>
      <trkpt lat="43.7328" lon="1.46228">
        <ele>155.95983</ele>
        <time>2023-07-30T14:21:45.000Z</time>
      </trkpt>
      <trkpt lat="43.73279" lon="1.46223">
        <ele>156.003301</ele>
        <time>2023-07-30T14:21:46.000Z</time>
      </trkpt>
      <trkpt lat="43.73278" lon="1.46219">
        <ele>156.040517</ele>
        <time>2023-07-30T14:21:47.000Z</time>
      </trkpt>
      <trkpt lat="43.73276" lon="1.46213">
        <ele>156.09499</ele>
        <time>2023-07-30T14:21:48.000Z</time>
      </trkpt>
      <trkpt lat="43.73275" lon="1.46209">
        <ele>156.131946</ele>
        <time>2023-07-30T14:21:50.000Z</time>
      </trkpt>
      <trkpt lat="43.73275" lon="1.46209">
        <ele>156.131946</ele>
        <time>2023-07-30T14:21:50.000Z</time>
      </trkpt>
      <trkpt lat="43.73273" lon="1.46205">
        <ele>156.166737</ele>
        <time>2023-07-30T14:21:51.000Z</time>
      </trkpt>
      <trkpt lat="43.73266" lon="1.46196">
        <ele>156.280459</ele>
        <time>2023-07-30T14:21:52.000Z</time>
      </trkpt>
      <trkpt lat="43.73263" lon="1.46192">
        <ele>156.321056</ele>
        <time>2023-07-30T14:21:53.000Z</time>
      </trkpt>
      <trkpt lat="43.73259" lon="1.46189">
        <ele>156.371538</ele>
        <time>2023-07-30T14:21:55.000Z</time>
      </trkpt>
      <trkpt lat="43.73259" lon="1.46189">
        <ele>156.371538</ele>
        <time>2023-07-30T14:21:55.000Z</time>
      </trkpt>
      <trkpt lat="43.73254" lon="1.46188">
        <ele>156.428661</ele>
        <time>2023-07-30T14:21:56.000Z</time>
      </trkpt>
      <trkpt lat="43.73251" lon="1.46189">
        <ele>156.468288</ele>
        <time>2023-07-30T14:21:57.000Z</time>
      </trkpt>
      <trkpt lat="43.73251" lon="1.46189">
        <ele>156.468288</ele>
        <time>2023-07-30T14:21:57.000Z</time>
      </trkpt>
      <trkpt lat="43.73246" lon="1.46193">
        <ele>156.531155</ele>
        <time>2023-07-30T14:21:58.000Z</time>
      </trkpt>
      <trkpt lat="43.73243" lon="1.46197">
        <ele>156.583984</ele>
        <time>2023-07-30T14:21:59.000Z</time>
      </trkpt>
      <trkpt lat="43.7324" lon="1.46202">
        <ele>156.639901</ele>
        <time>2023-07-30T14:22:00.000Z</time>
      </trkpt>
      <trkpt lat="43.73237" lon="1.46209">
        <ele>156.70246</ele>
        <time>2023-07-30T14:22:02.000Z</time>
      </trkpt>
      <trkpt lat="43.73234" lon="1.46214">
        <ele>156.752458</ele>
        <time>2023-07-30T14:22:03.000Z</time>
      </trkpt>
      <trkpt lat="43.73232" lon="1.4622">
        <ele>156.806713</ele>
        <time>2023-07-30T14:22:04.000Z</time>
      </trkpt>
      <trkpt lat="43.73232" lon="1.4622">
        <ele>156.806713</ele>
        <time>2023-07-30T14:22:04.000Z</time>
      </trkpt>
      <trkpt lat="43.7323" lon="1.46225">
        <ele>156.860967</ele>
        <time>2023-07-30T14:22:05.000Z</time>
      </trkpt>
      <trkpt lat="43.73227" lon="1.46231">
        <ele>156.91379</ele>
        <time>2023-07-30T14:22:06.000Z</time>
      </trkpt>
      <trkpt lat="43.73225" lon="1.46234">
        <ele>156.946504</ele>
        <time>2023-07-30T14:22:07.000Z</time>
      </trkpt>
      <trkpt lat="43.73225" lon="1.46234">
        <ele>156.946504</ele>
        <time>2023-07-30T14:22:07.000Z</time>
      </trkpt>
      <trkpt lat="43.73223" lon="1.46239">
        <ele>156.995804</ele>
        <time>2023-07-30T14:22:09.000Z</time>
      </trkpt>
      <trkpt lat="43.73223" lon="1.46239">
        <ele>156.995804</ele>
        <time>2023-07-30T14:22:09.000Z</time>
      </trkpt>
      <trkpt lat="43.7322" lon="1.46242">
        <ele>157.041566</ele>
        <time>2023-07-30T14:22:10.000Z</time>
      </trkpt>
      <trkpt lat="43.73217" lon="1.46244">
        <ele>157.080383</ele>
        <time>2023-07-30T14:22:12.000Z</time>
      </trkpt>
      <trkpt lat="43.73217" lon="1.46244">
        <ele>157.080383</ele>
        <time>2023-07-30T14:22:12.000Z</time>
      </trkpt>
      <trkpt lat="43.7321" lon="1.46245">
        <ele>157.154701</ele>
        <time>2023-07-30T14:22:13.000Z</time>
      </trkpt>
      <trkpt lat="43.7321" lon="1.46245">
        <ele>157.154701</ele>
        <time>2023-07-30T14:22:13.000Z</time>
      </trkpt>
      <trkpt lat="43.73209" lon="1.46245">
        <ele>157.172666</ele>
        <time>2023-07-30T14:22:14.000Z</time>
      </trkpt>
      <trkpt lat="43.73207" lon="1.46243">
        <ele>157.198797</ele>
        <time>2023-07-30T14:22:16.000Z</time>
      </trkpt>
      <trkpt lat="43.73207" lon="1.46243">
        <ele>157.198797</ele>
        <time>2023-07-30T14:22:16.000Z</time>
      </trkpt>
      <trkpt lat="43.73206" lon="1.46241">
        <ele>157.21813</ele>
        <time>2023-07-30T14:22:17.000Z</time>
      </trkpt>
      <trkpt lat="43.73203" lon="1.46238">
        <ele>157.259558</ele>
        <time>2023-07-30T14:22:18.000Z</time>
      </trkpt>
      <trkpt lat="43.73203" lon="1.46238">
        <ele>157.259558</ele>
        <time>2023-07-30T14:22:18.000Z</time>
      </trkpt>
      <trkpt lat="43.73201" lon="1.46235">
        <ele>157.283773</ele>
        <time>2023-07-30T14:22:20.000Z</time>
      </trkpt>
      <trkpt lat="43.73201" lon="1.46235">
        <ele>157.283773</ele>
        <time>2023-07-30T14:22:20.000Z</time>
      </trkpt>
      <trkpt lat="43.732" lon="1.46233">
        <ele>157.313695</ele>
        <time>2023-07-30T14:22:21.000Z</time>
      </trkpt>
      <trkpt lat="43.73198" lon="1.46228">
        <ele>157.356902</ele>
        <time>2023-07-30T14:22:22.000Z</time>
      </trkpt>
      <trkpt lat="43.73195" lon="1.46224">
        <ele>157.40424</ele>
        <time>2023-07-30T14:22:23.000Z</time>
      </trkpt>
      <trkpt lat="43.73195" lon="1.46224">
        <ele>157.40424</ele>
        <time>2023-07-30T14:22:23.000Z</time>
      </trkpt>
      <trkpt lat="43.73192" lon="1.46219">
        <ele>157.455427</ele>
        <time>2023-07-30T14:22:24.000Z</time>
      </trkpt>
      <trkpt lat="43.73189" lon="1.46214">
        <ele>157.511137</ele>
        <time>2023-07-30T14:22:26.000Z</time>
      </trkpt>
      <trkpt lat="43.73186" lon="1.4621">
        <ele>157.558683</ele>
        <time>2023-07-30T14:22:27.000Z</time>
      </trkpt>
      <trkpt lat="43.73182" lon="1.46205">
        <ele>157.613222</ele>
        <time>2023-07-30T14:22:28.000Z</time>
      </trkpt>
      <trkpt lat="43.73179" lon="1.462">
        <ele>157.669526</ele>
        <time>2023-07-30T14:22:29.000Z</time>
      </trkpt>
      <trkpt lat="43.73179" lon="1.462">
        <ele>157.669526</ele>
        <time>2023-07-30T14:22:29.000Z</time>
      </trkpt>
      <trkpt lat="43.73176" lon="1.46197">
        <ele>157.712076</ele>
        <time>2023-07-30T14:22:30.000Z</time>
      </trkpt>
      <trkpt lat="43.73172" lon="1.46192">
        <ele>157.771583</ele>
        <time>2023-07-30T14:22:31.000Z</time>
      </trkpt>
      <trkpt lat="43.73168" lon="1.46187">
        <ele>157.832369</ele>
        <time>2023-07-30T14:22:33.000Z</time>
      </trkpt>
      <trkpt lat="43.73165" lon="1.46183">
        <ele>157.883884</ele>
        <time>2023-07-30T14:22:34.000Z</time>
      </trkpt>
      <trkpt lat="43.73161" lon="1.46179">
        <ele>157.939592</ele>
        <time>2023-07-30T14:22:35.000Z</time>
      </trkpt>
      <trkpt lat="43.73158" lon="1.46175">
        <ele>157.988608</ele>
        <time>2023-07-30T14:22:36.000Z</time>
      </trkpt>
      <trkpt lat="43.73154" lon="1.46168">
        <ele>158.053129</ele>
        <time>2023-07-30T14:22:37.000Z</time>
      </trkpt>
      <trkpt lat="43.73152" lon="1.46163">
        <ele>158.114534</ele>
        <time>2023-07-30T14:22:38.000Z</time>
      </trkpt>
      <trkpt lat="43.73149" lon="1.46156">
        <ele>158.197712</ele>
        <time>2023-07-30T14:22:40.000Z</time>
      </trkpt>
      <trkpt lat="43.73149" lon="1.46156">
        <ele>158.197712</ele>
        <time>2023-07-30T14:22:40.000Z</time>
      </trkpt>
      <trkpt lat="43.73145" lon="1.46151">
        <ele>158.26803</ele>
        <time>2023-07-30T14:22:41.000Z</time>
      </trkpt>
      <trkpt lat="43.73142" lon="1.46146">
        <ele>158.33401</ele>
        <time>2023-07-30T14:22:42.000Z</time>
      </trkpt>
      <trkpt lat="43.73138" lon="1.46142">
        <ele>158.398293</ele>
        <time>2023-07-30T14:22:43.000Z</time>
      </trkpt>
      <trkpt lat="43.73138" lon="1.46142">
        <ele>158.398293</ele>
        <time>2023-07-30T14:22:43.000Z</time>
      </trkpt>
      <trkpt lat="43.73134" lon="1.46137">
        <ele>158.482181</ele>
        <time>2023-07-30T14:22:44.000Z</time>
      </trkpt>
      <trkpt lat="43.73131" lon="1.46134">
        <ele>158.530863</ele>
        <time>2023-07-30T14:22:45.000Z</time>
      </trkpt>
      <trkpt lat="43.73127" lon="1.46129">
        <ele>158.596843</ele>
        <time>2023-07-30T14:22:47.000Z</time>
      </trkpt>
      <trkpt lat="43.73127" lon="1.46129">
        <ele>158.596843</ele>
        <time>2023-07-30T14:22:47.000Z</time>
      </trkpt>
      <trkpt lat="43.73123" lon="1.46123">
        <ele>158.683874</ele>
        <time>2023-07-30T14:22:48.000Z</time>
      </trkpt>
      <trkpt lat="43.73123" lon="1.46123">
        <ele>158.683874</ele>
        <time>2023-07-30T14:22:48.000Z</time>
      </trkpt>
      <trkpt lat="43.73116" lon="1.46115">
        <ele>158.809354</ele>
        <time>2023-07-30T14:22:49.000Z</time>
      </trkpt>
      <trkpt lat="43.73116" lon="1.46115">
        <ele>158.809354</ele>
        <time>2023-07-30T14:22:49.000Z</time>
      </trkpt>
      <trkpt lat="43.73113" lon="1.4611">
        <ele>158.871696</ele>
        <time>2023-07-30T14:22:51.000Z</time>
      </trkpt>
      <trkpt lat="43.73111" lon="1.46106">
        <ele>158.926393</ele>
        <time>2023-07-30T14:22:52.000Z</time>
      </trkpt>
      <trkpt lat="43.73111" lon="1.46106">
        <ele>158.926393</ele>
        <time>2023-07-30T14:22:52.000Z</time>
      </trkpt>
      <trkpt lat="43.73107" lon="1.46101">
        <ele>158.996918</ele>
        <time>2023-07-30T14:22:53.000Z</time>
      </trkpt>
      <trkpt lat="43.73105" lon="1.46096">
        <ele>159.057069</ele>
        <time>2023-07-30T14:22:54.000Z</time>
      </trkpt>
      <trkpt lat="43.73105" lon="1.46096">
        <ele>159.057069</ele>
        <time>2023-07-30T14:22:54.000Z</time>
      </trkpt>
      <trkpt lat="43.73101" lon="1.46092">
        <ele>159.123363</ele>
        <time>2023-07-30T14:22:55.000Z</time>
      </trkpt>
      <trkpt lat="43.73101" lon="1.46092">
        <ele>159.123363</ele>
        <time>2023-07-30T14:22:55.000Z</time>
      </trkpt>
      <trkpt lat="43.73098" lon="1.46087">
        <ele>159.185947</ele>
        <time>2023-07-30T14:22:57.000Z</time>
      </trkpt>
      <trkpt lat="43.73098" lon="1.46087">
        <ele>159.185947</ele>
        <time>2023-07-30T14:22:57.000Z</time>
      </trkpt>
      <trkpt lat="43.73097" lon="1.46081">
        <ele>159.24798</ele>
        <time>2023-07-30T14:22:58.000Z</time>
      </trkpt>
      <trkpt lat="43.73096" lon="1.46075">
        <ele>159.308397</ele>
        <time>2023-07-30T14:22:59.000Z</time>
      </trkpt>
      <trkpt lat="43.73095" lon="1.46068">
        <ele>159.382432</ele>
        <time>2023-07-30T14:23:00.000Z</time>
      </trkpt>
      <trkpt lat="43.73095" lon="1.46068">
        <ele>159.382432</ele>
        <time>2023-07-30T14:23:00.000Z</time>
      </trkpt>
      <trkpt lat="43.73095" lon="1.46062">
        <ele>159.442384</ele>
        <time>2023-07-30T14:23:01.000Z</time>
      </trkpt>
      <trkpt lat="43.73092" lon="1.46056">
        <ele>159.506972</ele>
        <time>2023-07-30T14:23:02.000Z</time>
      </trkpt>
      <trkpt lat="43.73092" lon="1.46056">
        <ele>159.506972</ele>
        <time>2023-07-30T14:23:02.000Z</time>
      </trkpt>
      <trkpt lat="43.7309" lon="1.46052">
        <ele>159.560409</ele>
        <time>2023-07-30T14:23:03.000Z</time>
      </trkpt>
      <trkpt lat="43.73087" lon="1.46049">
        <ele>159.617874</ele>
        <time>2023-07-30T14:23:05.000Z</time>
      </trkpt>
      <trkpt lat="43.73083" lon="1.46046">
        <ele>159.673828</ele>
        <time>2023-07-30T14:23:06.000Z</time>
      </trkpt>
      <trkpt lat="43.73083" lon="1.46046">
        <ele>159.673828</ele>
        <time>2023-07-30T14:23:06.000Z</time>
      </trkpt>
      <trkpt lat="43.73079" lon="1.46043">
        <ele>159.732214</ele>
        <time>2023-07-30T14:23:07.000Z</time>
      </trkpt>
      <trkpt lat="43.73075" lon="1.46041">
        <ele>159.798283</ele>
        <time>2023-07-30T14:23:08.000Z</time>
      </trkpt>
      <trkpt lat="43.73075" lon="1.46041">
        <ele>159.798283</ele>
        <time>2023-07-30T14:23:08.000Z</time>
      </trkpt>
      <trkpt lat="43.7307" lon="1.4604">
        <ele>159.867711</ele>
        <time>2023-07-30T14:23:09.000Z</time>
      </trkpt>
      <trkpt lat="43.7307" lon="1.4604">
        <ele>159.867711</ele>
        <time>2023-07-30T14:23:09.000Z</time>
      </trkpt>
      <trkpt lat="43.73068" lon="1.4604">
        <ele>159.89969</ele>
        <time>2023-07-30T14:23:10.000Z</time>
      </trkpt>
      <trkpt lat="43.73068" lon="1.4604">
        <ele>159.89969</ele>
        <time>2023-07-30T14:23:10.000Z</time>
      </trkpt>
      <trkpt lat="43.73064" lon="1.46038">
        <ele>159.944639</ele>
        <time>2023-07-30T14:23:11.000Z</time>
      </trkpt>
      <trkpt lat="43.73064" lon="1.46038">
        <ele>159.944639</ele>
        <time>2023-07-30T14:23:11.000Z</time>
      </trkpt>
      <trkpt lat="43.73064" lon="1.46037">
        <ele>159.958599</ele>
        <time>2023-07-30T14:23:13.000Z</time>
      </trkpt>
      <trkpt lat="43.73063" lon="1.46036">
        <ele>159.980378</ele>
        <time>2023-07-30T14:23:14.000Z</time>
      </trkpt>
      <trkpt lat="43.73063" lon="1.46036">
        <ele>159.980378</ele>
        <time>2023-07-30T14:23:14.000Z</time>
      </trkpt>
      <trkpt lat="43.73063" lon="1.46033">
        <ele>160.013468</ele>
        <time>2023-07-30T14:23:15.000Z</time>
      </trkpt>
      <trkpt lat="43.73063" lon="1.46029">
        <ele>160.052193</ele>
        <time>2023-07-30T14:23:16.000Z</time>
      </trkpt>
      <trkpt lat="43.73063" lon="1.46029">
        <ele>160.052193</ele>
        <time>2023-07-30T14:23:16.000Z</time>
      </trkpt>
      <trkpt lat="43.73064" lon="1.46026">
        <ele>160.081797</ele>
        <time>2023-07-30T14:23:17.000Z</time>
      </trkpt>
      <trkpt lat="43.73065" lon="1.46022">
        <ele>160.132401</ele>
        <time>2023-07-30T14:23:18.000Z</time>
      </trkpt>
      <trkpt lat="43.73067" lon="1.46015">
        <ele>160.199928</ele>
        <time>2023-07-30T14:23:20.000Z</time>
      </trkpt>
      <trkpt lat="43.73067" lon="1.46015">
        <ele>160.199928</ele>
        <time>2023-07-30T14:23:20.000Z</time>
      </trkpt>
      <trkpt lat="43.7307" lon="1.46005">
        <ele>160.309424</ele>
        <time>2023-07-30T14:23:21.000Z</time>
      </trkpt>
      <trkpt lat="43.73072" lon="1.45999">
        <ele>160.37477</ele>
        <time>2023-07-30T14:23:23.000Z</time>
      </trkpt>
      <trkpt lat="43.73072" lon="1.45999">
        <ele>160.37477</ele>
        <time>2023-07-30T14:23:23.000Z</time>
      </trkpt>
      <trkpt lat="43.73076" lon="1.4599">
        <ele>160.483775</ele>
        <time>2023-07-30T14:23:24.000Z</time>
      </trkpt>
      <trkpt lat="43.73076" lon="1.4599">
        <ele>160.483775</ele>
        <time>2023-07-30T14:23:24.000Z</time>
      </trkpt>
      <trkpt lat="43.73078" lon="1.45985">
        <ele>160.542364</ele>
        <time>2023-07-30T14:23:25.000Z</time>
      </trkpt>
      <trkpt lat="43.73078" lon="1.45985">
        <ele>160.542364</ele>
        <time>2023-07-30T14:23:25.000Z</time>
      </trkpt>
      <trkpt lat="43.7308" lon="1.4598">
        <ele>160.650435</ele>
        <time>2023-07-30T14:23:27.000Z</time>
      </trkpt>
      <trkpt lat="43.73083" lon="1.45976">
        <ele>160.793077</ele>
        <time>2023-07-30T14:23:28.000Z</time>
      </trkpt>
      <trkpt lat="43.73086" lon="1.4597">
        <ele>160.977242</ele>
        <time>2023-07-30T14:23:29.000Z</time>
      </trkpt>
      <trkpt lat="43.73089" lon="1.45966">
        <ele>161.099889</ele>
        <time>2023-07-30T14:23:30.000Z</time>
      </trkpt>
      <trkpt lat="43.73089" lon="1.45966">
        <ele>161.099889</ele>
        <time>2023-07-30T14:23:30.000Z</time>
      </trkpt>
      <trkpt lat="43.73092" lon="1.45962">
        <ele>161.243029</ele>
        <time>2023-07-30T14:23:31.000Z</time>
      </trkpt>
      <trkpt lat="43.73093" lon="1.45958">
        <ele>161.365424</ele>
        <time>2023-07-30T14:23:32.000Z</time>
      </trkpt>
      <trkpt lat="43.73097" lon="1.45954">
        <ele>161.521659</ele>
        <time>2023-07-30T14:23:33.000Z</time>
      </trkpt>
      <trkpt lat="43.73099" lon="1.4595">
        <ele>161.656096</ele>
        <time>2023-07-30T14:23:35.000Z</time>
      </trkpt>
      <trkpt lat="43.73101" lon="1.45945">
        <ele>161.795836</ele>
        <time>2023-07-30T14:23:36.000Z</time>
      </trkpt>
      <trkpt lat="43.73103" lon="1.45936">
        <ele>162.041736</ele>
        <time>2023-07-30T14:23:37.000Z</time>
      </trkpt>
      <trkpt lat="43.73103" lon="1.45936">
        <ele>162.041736</ele>
        <time>2023-07-30T14:23:37.000Z</time>
      </trkpt>
      <trkpt lat="43.73105" lon="1.45932">
        <ele>162.152255</ele>
        <time>2023-07-30T14:23:38.000Z</time>
      </trkpt>
      <trkpt lat="43.73106" lon="1.45929">
        <ele>162.241302</ele>
        <time>2023-07-30T14:23:40.000Z</time>
      </trkpt>
      <trkpt lat="43.73106" lon="1.45929">
        <ele>162.241302</ele>
        <time>2023-07-30T14:23:40.000Z</time>
      </trkpt>
      <trkpt lat="43.73108" lon="1.45924">
        <ele>162.361289</ele>
        <time>2023-07-30T14:23:41.000Z</time>
      </trkpt>
      <trkpt lat="43.73109" lon="1.4592">
        <ele>162.479485</ele>
        <time>2023-07-30T14:23:42.000Z</time>
      </trkpt>
      <trkpt lat="43.73109" lon="1.4592">
        <ele>162.479485</ele>
        <time>2023-07-30T14:23:42.000Z</time>
      </trkpt>
      <trkpt lat="43.73111" lon="1.45917">
        <ele>162.587493</ele>
        <time>2023-07-30T14:23:43.000Z</time>
      </trkpt>
      <trkpt lat="43.73114" lon="1.45912">
        <ele>162.726001</ele>
        <time>2023-07-30T14:23:44.000Z</time>
      </trkpt>
      <trkpt lat="43.73114" lon="1.45912">
        <ele>162.726001</ele>
        <time>2023-07-30T14:23:44.000Z</time>
      </trkpt>
      <trkpt lat="43.73116" lon="1.45908">
        <ele>162.871058</ele>
        <time>2023-07-30T14:23:46.000Z</time>
      </trkpt>
      <trkpt lat="43.73116" lon="1.45908">
        <ele>162.871058</ele>
        <time>2023-07-30T14:23:46.000Z</time>
      </trkpt>
      <trkpt lat="43.73119" lon="1.45904">
        <ele>163.012321</ele>
        <time>2023-07-30T14:23:47.000Z</time>
      </trkpt>
      <trkpt lat="43.73119" lon="1.45904">
        <ele>163.012321</ele>
        <time>2023-07-30T14:23:47.000Z</time>
      </trkpt>
      <trkpt lat="43.73122" lon="1.45898">
        <ele>163.187498</ele>
        <time>2023-07-30T14:23:48.000Z</time>
      </trkpt>
      <trkpt lat="43.73126" lon="1.45892">
        <ele>163.384235</ele>
        <time>2023-07-30T14:23:49.000Z</time>
      </trkpt>
      <trkpt lat="43.73129" lon="1.45887">
        <ele>163.549249</ele>
        <time>2023-07-30T14:23:50.000Z</time>
      </trkpt>
      <trkpt lat="43.73131" lon="1.45881">
        <ele>163.719924</ele>
        <time>2023-07-30T14:23:51.000Z</time>
      </trkpt>
      <trkpt lat="43.73132" lon="1.45877">
        <ele>163.844456</ele>
        <time>2023-07-30T14:23:52.000Z</time>
      </trkpt>
      <trkpt lat="43.73132" lon="1.45877">
        <ele>163.844456</ele>
        <time>2023-07-30T14:23:52.000Z</time>
      </trkpt>
      <trkpt lat="43.73133" lon="1.45873">
        <ele>163.931923</ele>
        <time>2023-07-30T14:23:54.000Z</time>
      </trkpt>
      <trkpt lat="43.73133" lon="1.4587">
        <ele>164.002284</ele>
        <time>2023-07-30T14:23:55.000Z</time>
      </trkpt>
      <trkpt lat="43.73133" lon="1.4587">
        <ele>164.002284</ele>
        <time>2023-07-30T14:23:55.000Z</time>
      </trkpt>
      <trkpt lat="43.73132" lon="1.45866">
        <ele>164.116297</ele>
        <time>2023-07-30T14:23:57.000Z</time>
      </trkpt>
      <trkpt lat="43.73132" lon="1.45866">
        <ele>164.116297</ele>
        <time>2023-07-30T14:23:57.000Z</time>
      </trkpt>
      <trkpt lat="43.73132" lon="1.45862">
        <ele>164.217278</ele>
        <time>2023-07-30T14:23:57.000Z</time>
      </trkpt>
      <trkpt lat="43.73132" lon="1.45862">
        <ele>164.217278</ele>
        <time>2023-07-30T14:23:57.000Z</time>
      </trkpt>
      <trkpt lat="43.7313" lon="1.45859">
        <ele>164.312363</ele>
        <time>2023-07-30T14:23:58.000Z</time>
      </trkpt>
      <trkpt lat="43.7313" lon="1.45859">
        <ele>164.312363</ele>
        <time>2023-07-30T14:23:58.000Z</time>
      </trkpt>
      <trkpt lat="43.73129" lon="1.45855">
        <ele>164.424622</ele>
        <time>2023-07-30T14:23:59.000Z</time>
      </trkpt>
      <trkpt lat="43.73129" lon="1.45855">
        <ele>164.424622</ele>
        <time>2023-07-30T14:23:59.000Z</time>
      </trkpt>
      <trkpt lat="43.73128" lon="1.4585">
        <ele>164.546876</ele>
        <time>2023-07-30T14:24:01.000Z</time>
      </trkpt>
      <trkpt lat="43.73128" lon="1.4585">
        <ele>164.546876</ele>
        <time>2023-07-30T14:24:01.000Z</time>
      </trkpt>
      <trkpt lat="43.73126" lon="1.45845">
        <ele>164.68394</ele>
        <time>2023-07-30T14:24:02.000Z</time>
      </trkpt>
      <trkpt lat="43.73126" lon="1.45845">
        <ele>164.68394</ele>
        <time>2023-07-30T14:24:02.000Z</time>
      </trkpt>
      <trkpt lat="43.73125" lon="1.45842">
        <ele>164.770725</ele>
        <time>2023-07-30T14:24:03.000Z</time>
      </trkpt>
      <trkpt lat="43.73125" lon="1.45842">
        <ele>164.770725</ele>
        <time>2023-07-30T14:24:03.000Z</time>
      </trkpt>
      <trkpt lat="43.73124" lon="1.4584">
        <ele>164.842143</ele>
        <time>2023-07-30T14:24:04.000Z</time>
      </trkpt>
      <trkpt lat="43.73124" lon="1.4584">
        <ele>164.842143</ele>
        <time>2023-07-30T14:24:04.000Z</time>
      </trkpt>
      <trkpt lat="43.73122" lon="1.45837">
        <ele>164.932739</ele>
        <time>2023-07-30T14:24:05.000Z</time>
      </trkpt>
      <trkpt lat="43.73122" lon="1.45837">
        <ele>164.932739</ele>
        <time>2023-07-30T14:24:05.000Z</time>
      </trkpt>
      <trkpt lat="43.73121" lon="1.45835">
        <ele>164.988236</ele>
        <time>2023-07-30T14:24:06.000Z</time>
      </trkpt>
      <trkpt lat="43.73121" lon="1.45835">
        <ele>164.988236</ele>
        <time>2023-07-30T14:24:06.000Z</time>
      </trkpt>
      <trkpt lat="43.73121" lon="1.45834">
        <ele>165.014787</ele>
        <time>2023-07-30T14:24:07.000Z</time>
      </trkpt>
      <trkpt lat="43.73121" lon="1.45834">
        <ele>165.014787</ele>
        <time>2023-07-30T14:24:07.000Z</time>
      </trkpt>
      <trkpt lat="43.7312" lon="1.4583">
        <ele>165.121305</ele>
        <time>2023-07-30T14:24:08.000Z</time>
      </trkpt>
      <trkpt lat="43.7312" lon="1.4583">
        <ele>165.121305</ele>
        <time>2023-07-30T14:24:08.000Z</time>
      </trkpt>
      <trkpt lat="43.73119" lon="1.45826">
        <ele>165.23593</ele>
        <time>2023-07-30T14:24:10.000Z</time>
      </trkpt>
      <trkpt lat="43.73119" lon="1.45826">
        <ele>165.23593</ele>
        <time>2023-07-30T14:24:10.000Z</time>
      </trkpt>
      <trkpt lat="43.73119" lon="1.45821">
        <ele>165.369113</ele>
        <time>2023-07-30T14:24:11.000Z</time>
      </trkpt>
      <trkpt lat="43.73119" lon="1.45821">
        <ele>165.369113</ele>
        <time>2023-07-30T14:24:11.000Z</time>
      </trkpt>
      <trkpt lat="43.73119" lon="1.45817">
        <ele>165.452039</ele>
        <time>2023-07-30T14:24:12.000Z</time>
      </trkpt>
      <trkpt lat="43.73119" lon="1.45817">
        <ele>165.452039</ele>
        <time>2023-07-30T14:24:12.000Z</time>
      </trkpt>
      <trkpt lat="43.73119" lon="1.45812">
        <ele>165.593446</ele>
        <time>2023-07-30T14:24:13.000Z</time>
      </trkpt>
      <trkpt lat="43.73119" lon="1.45807">
        <ele>165.724116</ele>
        <time>2023-07-30T14:24:14.000Z</time>
      </trkpt>
      <trkpt lat="43.73119" lon="1.45807">
        <ele>165.724116</ele>
        <time>2023-07-30T14:24:14.000Z</time>
      </trkpt>
      <trkpt lat="43.73119" lon="1.45803">
        <ele>165.815643</ele>
        <time>2023-07-30T14:24:15.000Z</time>
      </trkpt>
      <trkpt lat="43.73119" lon="1.45803">
        <ele>165.815643</ele>
        <time>2023-07-30T14:24:15.000Z</time>
      </trkpt>
      <trkpt lat="43.73119" lon="1.45797">
        <ele>165.959088</ele>
        <time>2023-07-30T14:24:16.000Z</time>
      </trkpt>
      <trkpt lat="43.73119" lon="1.45797">
        <ele>165.959088</ele>
        <time>2023-07-30T14:24:16.000Z</time>
      </trkpt>
      <trkpt lat="43.73118" lon="1.45792">
        <ele>166.090231</ele>
        <time>2023-07-30T14:24:17.000Z</time>
      </trkpt>
      <trkpt lat="43.73118" lon="1.45792">
        <ele>166.090231</ele>
        <time>2023-07-30T14:24:17.000Z</time>
      </trkpt>
      <trkpt lat="43.73117" lon="1.45788">
        <ele>166.202491</ele>
        <time>2023-07-30T14:24:19.000Z</time>
      </trkpt>
      <trkpt lat="43.73117" lon="1.45788">
        <ele>166.202491</ele>
        <time>2023-07-30T14:24:19.000Z</time>
      </trkpt>
      <trkpt lat="43.73115" lon="1.45784">
        <ele>166.327009</ele>
        <time>2023-07-30T14:24:20.000Z</time>
      </trkpt>
      <trkpt lat="43.73115" lon="1.45784">
        <ele>166.327009</ele>
        <time>2023-07-30T14:24:20.000Z</time>
      </trkpt>
      <trkpt lat="43.73113" lon="1.45781">
        <ele>166.435016</ele>
        <time>2023-07-30T14:24:21.000Z</time>
      </trkpt>
      <trkpt lat="43.73113" lon="1.45781">
        <ele>166.435016</ele>
        <time>2023-07-30T14:24:21.000Z</time>
      </trkpt>
      <trkpt lat="43.7311" lon="1.45777">
        <ele>166.570739</ele>
        <time>2023-07-30T14:24:22.000Z</time>
      </trkpt>
      <trkpt lat="43.7311" lon="1.45777">
        <ele>166.570739</ele>
        <time>2023-07-30T14:24:22.000Z</time>
      </trkpt>
      <trkpt lat="43.73107" lon="1.45773">
        <ele>166.70987</ele>
        <time>2023-07-30T14:24:23.000Z</time>
      </trkpt>
      <trkpt lat="43.73107" lon="1.45773">
        <ele>166.70987</ele>
        <time>2023-07-30T14:24:23.000Z</time>
      </trkpt>
      <trkpt lat="43.73104" lon="1.45769">
        <ele>166.814252</ele>
        <time>2023-07-30T14:24:25.000Z</time>
      </trkpt>
      <trkpt lat="43.73104" lon="1.45769">
        <ele>166.814252</ele>
        <time>2023-07-30T14:24:25.000Z</time>
      </trkpt>
      <trkpt lat="43.73101" lon="1.45766">
        <ele>166.79348</ele>
        <time>2023-07-30T14:24:26.000Z</time>
      </trkpt>
      <trkpt lat="43.73101" lon="1.45766">
        <ele>166.79348</ele>
        <time>2023-07-30T14:24:26.000Z</time>
      </trkpt>
      <trkpt lat="43.73099" lon="1.45762">
        <ele>166.778945</ele>
        <time>2023-07-30T14:24:27.000Z</time>
      </trkpt>
      <trkpt lat="43.73099" lon="1.45762">
        <ele>166.778945</ele>
        <time>2023-07-30T14:24:27.000Z</time>
      </trkpt>
      <trkpt lat="43.73099" lon="1.45758">
        <ele>166.763181</ele>
        <time>2023-07-30T14:24:29.000Z</time>
      </trkpt>
      <trkpt lat="43.73099" lon="1.45758">
        <ele>166.763181</ele>
        <time>2023-07-30T14:24:29.000Z</time>
      </trkpt>
      <trkpt lat="43.73099" lon="1.45754">
        <ele>166.745557</ele>
        <time>2023-07-30T14:24:30.000Z</time>
      </trkpt>
      <trkpt lat="43.731" lon="1.45749">
        <ele>166.726793</ele>
        <time>2023-07-30T14:24:31.000Z</time>
      </trkpt>
      <trkpt lat="43.73101" lon="1.45744">
        <ele>166.709755</ele>
        <time>2023-07-30T14:24:32.000Z</time>
      </trkpt>
      <trkpt lat="43.73103" lon="1.45739">
        <ele>166.689671</ele>
        <time>2023-07-30T14:24:33.000Z</time>
      </trkpt>
      <trkpt lat="43.73105" lon="1.45734">
        <ele>166.666579</ele>
        <time>2023-07-30T14:24:34.000Z</time>
      </trkpt>
      <trkpt lat="43.73105" lon="1.45734">
        <ele>166.666579</ele>
        <time>2023-07-30T14:24:34.000Z</time>
      </trkpt>
      <trkpt lat="43.73109" lon="1.45727">
        <ele>166.634174</ele>
        <time>2023-07-30T14:24:36.000Z</time>
      </trkpt>
      <trkpt lat="43.73112" lon="1.45722">
        <ele>166.606567</ele>
        <time>2023-07-30T14:24:37.000Z</time>
      </trkpt>
      <trkpt lat="43.73112" lon="1.45722">
        <ele>166.606567</ele>
        <time>2023-07-30T14:24:37.000Z</time>
      </trkpt>
      <trkpt lat="43.73116" lon="1.45714">
        <ele>166.57444</ele>
        <time>2023-07-30T14:24:38.000Z</time>
      </trkpt>
      <trkpt lat="43.73119" lon="1.45707">
        <ele>166.54119</ele>
        <time>2023-07-30T14:24:39.000Z</time>
      </trkpt>
      <trkpt lat="43.7312" lon="1.45702">
        <ele>166.523018</ele>
        <time>2023-07-30T14:24:40.000Z</time>
      </trkpt>
      <trkpt lat="43.73121" lon="1.45697">
        <ele>166.503339</ele>
        <time>2023-07-30T14:24:41.000Z</time>
      </trkpt>
      <trkpt lat="43.73121" lon="1.45697">
        <ele>166.503339</ele>
        <time>2023-07-30T14:24:41.000Z</time>
      </trkpt>
      <trkpt lat="43.73122" lon="1.45692">
        <ele>166.482737</ele>
        <time>2023-07-30T14:24:42.000Z</time>
      </trkpt>
      <trkpt lat="43.73123" lon="1.45679">
        <ele>166.436747</ele>
        <time>2023-07-30T14:24:44.000Z</time>
      </trkpt>
      <trkpt lat="43.73123" lon="1.45679">
        <ele>166.436747</ele>
        <time>2023-07-30T14:24:44.000Z</time>
      </trkpt>
      <trkpt lat="43.73124" lon="1.45672">
        <ele>166.410276</ele>
        <time>2023-07-30T14:24:45.000Z</time>
      </trkpt>
      <trkpt lat="43.73124" lon="1.45672">
        <ele>166.410276</ele>
        <time>2023-07-30T14:24:45.000Z</time>
      </trkpt>
      <trkpt lat="43.73124" lon="1.45667">
        <ele>166.387944</ele>
        <time>2023-07-30T14:24:46.000Z</time>
      </trkpt>
      <trkpt lat="43.73126" lon="1.45659">
        <ele>166.357791</ele>
        <time>2023-07-30T14:24:48.000Z</time>
      </trkpt>
      <trkpt lat="43.73126" lon="1.45659">
        <ele>166.357791</ele>
        <time>2023-07-30T14:24:48.000Z</time>
      </trkpt>
      <trkpt lat="43.73129" lon="1.45644">
        <ele>166.301814</ele>
        <time>2023-07-30T14:24:49.000Z</time>
      </trkpt>
      <trkpt lat="43.73129" lon="1.45644">
        <ele>166.301814</ele>
        <time>2023-07-30T14:24:49.000Z</time>
      </trkpt>
      <trkpt lat="43.73131" lon="1.45639">
        <ele>166.278722</ele>
        <time>2023-07-30T14:24:50.000Z</time>
      </trkpt>
      <trkpt lat="43.73131" lon="1.45639">
        <ele>166.278722</ele>
        <time>2023-07-30T14:24:50.000Z</time>
      </trkpt>
      <trkpt lat="43.73134" lon="1.4563">
        <ele>166.242106</ele>
        <time>2023-07-30T14:24:51.000Z</time>
      </trkpt>
      <trkpt lat="43.73134" lon="1.4563">
        <ele>166.242106</ele>
        <time>2023-07-30T14:24:51.000Z</time>
      </trkpt>
      <trkpt lat="43.73137" lon="1.45625">
        <ele>166.21696</ele>
        <time>2023-07-30T14:24:52.000Z</time>
      </trkpt>
      <trkpt lat="43.73137" lon="1.45625">
        <ele>166.21696</ele>
        <time>2023-07-30T14:24:52.000Z</time>
      </trkpt>
      <trkpt lat="43.73151" lon="1.45618">
        <ele>166.140255</ele>
        <time>2023-07-30T14:24:55.000Z</time>
      </trkpt>
      <trkpt lat="43.73151" lon="1.45618">
        <ele>166.140255</ele>
        <time>2023-07-30T14:24:55.000Z</time>
      </trkpt>
      <trkpt lat="43.73155" lon="1.45618">
        <ele>166.120556</ele>
        <time>2023-07-30T14:24:56.000Z</time>
      </trkpt>
      <trkpt lat="43.73155" lon="1.45618">
        <ele>166.120556</ele>
        <time>2023-07-30T14:24:56.000Z</time>
      </trkpt>
      <trkpt lat="43.73158" lon="1.45617">
        <ele>166.104013</ele>
        <time>2023-07-30T14:24:57.000Z</time>
      </trkpt>
      <trkpt lat="43.73158" lon="1.45617">
        <ele>166.104013</ele>
        <time>2023-07-30T14:24:57.000Z</time>
      </trkpt>
      <trkpt lat="43.73167" lon="1.45614">
        <ele>166.057576</ele>
        <time>2023-07-30T14:24:59.000Z</time>
      </trkpt>
      <trkpt lat="43.73167" lon="1.45614">
        <ele>166.057576</ele>
        <time>2023-07-30T14:24:59.000Z</time>
      </trkpt>
      <trkpt lat="43.73171" lon="1.4561">
        <ele>166.029519</ele>
        <time>2023-07-30T14:25:00.000Z</time>
      </trkpt>
      <trkpt lat="43.73171" lon="1.4561">
        <ele>166.029519</ele>
        <time>2023-07-30T14:25:00.000Z</time>
      </trkpt>
      <trkpt lat="43.73176" lon="1.45605">
        <ele>165.997632</ele>
        <time>2023-07-30T14:25:01.000Z</time>
      </trkpt>
      <trkpt lat="43.73176" lon="1.45605">
        <ele>165.997632</ele>
        <time>2023-07-30T14:25:01.000Z</time>
      </trkpt>
      <trkpt lat="43.73181" lon="1.45599">
        <ele>165.961915</ele>
        <time>2023-07-30T14:25:02.000Z</time>
      </trkpt>
      <trkpt lat="43.73181" lon="1.45599">
        <ele>165.961915</ele>
        <time>2023-07-30T14:25:02.000Z</time>
      </trkpt>
      <trkpt lat="43.73187" lon="1.45592">
        <ele>165.924557</ele>
        <time>2023-07-30T14:25:03.000Z</time>
      </trkpt>
      <trkpt lat="43.73187" lon="1.45592">
        <ele>165.924557</ele>
        <time>2023-07-30T14:25:03.000Z</time>
      </trkpt>
      <trkpt lat="43.73192" lon="1.45584">
        <ele>165.948471</ele>
        <time>2023-07-30T14:25:04.000Z</time>
      </trkpt>
      <trkpt lat="43.73192" lon="1.45584">
        <ele>165.948471</ele>
        <time>2023-07-30T14:25:04.000Z</time>
      </trkpt>
      <trkpt lat="43.73195" lon="1.45577">
        <ele>166.317414</ele>
        <time>2023-07-30T14:25:06.000Z</time>
      </trkpt>
      <trkpt lat="43.73195" lon="1.45577">
        <ele>166.317414</ele>
        <time>2023-07-30T14:25:06.000Z</time>
      </trkpt>
      <trkpt lat="43.73195" lon="1.45573">
        <ele>166.482254</ele>
        <time>2023-07-30T14:25:08.000Z</time>
      </trkpt>
      <trkpt lat="43.73195" lon="1.45571">
        <ele>166.600565</ele>
        <time>2023-07-30T14:25:08.000Z</time>
      </trkpt>
      <trkpt lat="43.73192" lon="1.45565">
        <ele>166.908771</ele>
        <time>2023-07-30T14:25:10.000Z</time>
      </trkpt>
      <trkpt lat="43.73189" lon="1.45562">
        <ele>167.133414</ele>
        <time>2023-07-30T14:25:11.000Z</time>
      </trkpt>
      <trkpt lat="43.73189" lon="1.45562">
        <ele>167.133414</ele>
        <time>2023-07-30T14:25:11.000Z</time>
      </trkpt>
      <trkpt lat="43.73186" lon="1.45557">
        <ele>167.42313</ele>
        <time>2023-07-30T14:25:11.000Z</time>
      </trkpt>
      <trkpt lat="43.73186" lon="1.45557">
        <ele>167.42313</ele>
        <time>2023-07-30T14:25:11.000Z</time>
      </trkpt>
      <trkpt lat="43.73182" lon="1.45553">
        <ele>167.688231</ele>
        <time>2023-07-30T14:25:13.000Z</time>
      </trkpt>
      <trkpt lat="43.73182" lon="1.45553">
        <ele>167.688231</ele>
        <time>2023-07-30T14:25:13.000Z</time>
      </trkpt>
      <trkpt lat="43.73175" lon="1.45544">
        <ele>168.268724</ele>
        <time>2023-07-30T14:25:15.000Z</time>
      </trkpt>
      <trkpt lat="43.73175" lon="1.45544">
        <ele>168.268724</ele>
        <time>2023-07-30T14:25:15.000Z</time>
      </trkpt>
      <trkpt lat="43.73172" lon="1.45541">
        <ele>168.494451</ele>
        <time>2023-07-30T14:25:16.000Z</time>
      </trkpt>
      <trkpt lat="43.73172" lon="1.45541">
        <ele>168.494451</ele>
        <time>2023-07-30T14:25:16.000Z</time>
      </trkpt>
      <trkpt lat="43.7317" lon="1.45537">
        <ele>168.700727</ele>
        <time>2023-07-30T14:25:18.000Z</time>
      </trkpt>
      <trkpt lat="43.7317" lon="1.45537">
        <ele>168.700727</ele>
        <time>2023-07-30T14:25:18.000Z</time>
      </trkpt>
      <trkpt lat="43.73168" lon="1.45533">
        <ele>168.901836</ele>
        <time>2023-07-30T14:25:19.000Z</time>
      </trkpt>
      <trkpt lat="43.73168" lon="1.45533">
        <ele>168.901836</ele>
        <time>2023-07-30T14:25:19.000Z</time>
      </trkpt>
      <trkpt lat="43.73167" lon="1.45528">
        <ele>169.136158</ele>
        <time>2023-07-30T14:25:20.000Z</time>
      </trkpt>
      <trkpt lat="43.73167" lon="1.45528">
        <ele>169.136158</ele>
        <time>2023-07-30T14:25:20.000Z</time>
      </trkpt>
      <trkpt lat="43.73166" lon="1.45521">
        <ele>169.443665</ele>
        <time>2023-07-30T14:25:21.000Z</time>
      </trkpt>
      <trkpt lat="43.73166" lon="1.45521">
        <ele>169.443665</ele>
        <time>2023-07-30T14:25:21.000Z</time>
      </trkpt>
      <trkpt lat="43.73165" lon="1.45516">
        <ele>169.667687</ele>
        <time>2023-07-30T14:25:22.000Z</time>
      </trkpt>
      <trkpt lat="43.73165" lon="1.45516">
        <ele>169.667687</ele>
        <time>2023-07-30T14:25:22.000Z</time>
      </trkpt>
      <trkpt lat="43.73164" lon="1.45511">
        <ele>169.877886</ele>
        <time>2023-07-30T14:25:23.000Z</time>
      </trkpt>
      <trkpt lat="43.73164" lon="1.45511">
        <ele>169.877886</ele>
        <time>2023-07-30T14:25:23.000Z</time>
      </trkpt>
      <trkpt lat="43.73164" lon="1.45504">
        <ele>170.165157</ele>
        <time>2023-07-30T14:25:24.000Z</time>
      </trkpt>
      <trkpt lat="43.73163" lon="1.45498">
        <ele>170.436634</ele>
        <time>2023-07-30T14:25:25.000Z</time>
      </trkpt>
      <trkpt lat="43.73163" lon="1.45498">
        <ele>170.436634</ele>
        <time>2023-07-30T14:25:25.000Z</time>
      </trkpt>
      <trkpt lat="43.73163" lon="1.4549">
        <ele>170.765512</ele>
        <time>2023-07-30T14:25:27.000Z</time>
      </trkpt>
      <trkpt lat="43.73163" lon="1.4549">
        <ele>170.765512</ele>
        <time>2023-07-30T14:25:27.000Z</time>
      </trkpt>
      <trkpt lat="43.73161" lon="1.45482">
        <ele>171.124652</ele>
        <time>2023-07-30T14:25:28.000Z</time>
      </trkpt>
      <trkpt lat="43.73161" lon="1.45482">
        <ele>171.124652</ele>
        <time>2023-07-30T14:25:28.000Z</time>
      </trkpt>
      <trkpt lat="43.7316" lon="1.45474">
        <ele>171.474223</ele>
        <time>2023-07-30T14:25:29.000Z</time>
      </trkpt>
      <trkpt lat="43.7316" lon="1.45474">
        <ele>171.474223</ele>
        <time>2023-07-30T14:25:29.000Z</time>
      </trkpt>
      <trkpt lat="43.73159" lon="1.45467">
        <ele>171.809907</ele>
        <time>2023-07-30T14:25:30.000Z</time>
      </trkpt>
      <trkpt lat="43.73159" lon="1.45467">
        <ele>171.809907</ele>
        <time>2023-07-30T14:25:30.000Z</time>
      </trkpt>
      <trkpt lat="43.73157" lon="1.4546">
        <ele>172.114876</ele>
        <time>2023-07-30T14:25:31.000Z</time>
      </trkpt>
      <trkpt lat="43.73157" lon="1.4546">
        <ele>172.114876</ele>
        <time>2023-07-30T14:25:31.000Z</time>
      </trkpt>
      <trkpt lat="43.73154" lon="1.45453">
        <ele>172.456556</ele>
        <time>2023-07-30T14:25:33.000Z</time>
      </trkpt>
      <trkpt lat="43.73154" lon="1.45453">
        <ele>172.456556</ele>
        <time>2023-07-30T14:25:33.000Z</time>
      </trkpt>
      <trkpt lat="43.7315" lon="1.45444">
        <ele>172.89858</ele>
        <time>2023-07-30T14:25:34.000Z</time>
      </trkpt>
      <trkpt lat="43.7315" lon="1.45444">
        <ele>172.89858</ele>
        <time>2023-07-30T14:25:34.000Z</time>
      </trkpt>
      <trkpt lat="43.73146" lon="1.45438">
        <ele>173.23294</ele>
        <time>2023-07-30T14:25:35.000Z</time>
      </trkpt>
      <trkpt lat="43.73146" lon="1.45438">
        <ele>173.23294</ele>
        <time>2023-07-30T14:25:35.000Z</time>
      </trkpt>
      <trkpt lat="43.73143" lon="1.45434">
        <ele>173.477458</ele>
        <time>2023-07-30T14:25:37.000Z</time>
      </trkpt>
      <trkpt lat="43.73143" lon="1.45434">
        <ele>173.477458</ele>
        <time>2023-07-30T14:25:37.000Z</time>
      </trkpt>
      <trkpt lat="43.73138" lon="1.45427">
        <ele>173.941747</ele>
        <time>2023-07-30T14:25:38.000Z</time>
      </trkpt>
      <trkpt lat="43.73138" lon="1.45427">
        <ele>173.941747</ele>
        <time>2023-07-30T14:25:38.000Z</time>
      </trkpt>
      <trkpt lat="43.73134" lon="1.45423">
        <ele>174.203392</ele>
        <time>2023-07-30T14:25:39.000Z</time>
      </trkpt>
      <trkpt lat="43.73134" lon="1.45423">
        <ele>174.203392</ele>
        <time>2023-07-30T14:25:39.000Z</time>
      </trkpt>
      <trkpt lat="43.73132" lon="1.4542">
        <ele>174.407266</ele>
        <time>2023-07-30T14:25:40.000Z</time>
      </trkpt>
      <trkpt lat="43.73132" lon="1.4542">
        <ele>174.407266</ele>
        <time>2023-07-30T14:25:40.000Z</time>
      </trkpt>
      <trkpt lat="43.73129" lon="1.45417">
        <ele>174.627038</ele>
        <time>2023-07-30T14:25:42.000Z</time>
      </trkpt>
      <trkpt lat="43.73129" lon="1.45417">
        <ele>174.627038</ele>
        <time>2023-07-30T14:25:42.000Z</time>
      </trkpt>
      <trkpt lat="43.73126" lon="1.45413">
        <ele>174.862019</ele>
        <time>2023-07-30T14:25:42.000Z</time>
      </trkpt>
      <trkpt lat="43.73126" lon="1.45413">
        <ele>174.862019</ele>
        <time>2023-07-30T14:25:42.000Z</time>
      </trkpt>
      <trkpt lat="43.73122" lon="1.45409">
        <ele>175.132761</ele>
        <time>2023-07-30T14:25:44.000Z</time>
      </trkpt>
      <trkpt lat="43.73122" lon="1.45409">
        <ele>175.132761</ele>
        <time>2023-07-30T14:25:44.000Z</time>
      </trkpt>
      <trkpt lat="43.7312" lon="1.45406">
        <ele>175.349622</ele>
        <time>2023-07-30T14:25:44.000Z</time>
      </trkpt>
      <trkpt lat="43.7312" lon="1.45406">
        <ele>175.349622</ele>
        <time>2023-07-30T14:25:44.000Z</time>
      </trkpt>
      <trkpt lat="43.73116" lon="1.45401">
        <ele>175.626155</ele>
        <time>2023-07-30T14:25:46.000Z</time>
      </trkpt>
      <trkpt lat="43.73116" lon="1.45401">
        <ele>175.626155</ele>
        <time>2023-07-30T14:25:46.000Z</time>
      </trkpt>
      <trkpt lat="43.7311" lon="1.45393">
        <ele>176.140404</ele>
        <time>2023-07-30T14:25:48.000Z</time>
      </trkpt>
      <trkpt lat="43.7311" lon="1.45393">
        <ele>176.140404</ele>
        <time>2023-07-30T14:25:48.000Z</time>
      </trkpt>
      <trkpt lat="43.73108" lon="1.45389">
        <ele>176.357264</ele>
        <time>2023-07-30T14:25:48.000Z</time>
      </trkpt>
      <trkpt lat="43.73108" lon="1.45389">
        <ele>176.357264</ele>
        <time>2023-07-30T14:25:48.000Z</time>
      </trkpt>
      <trkpt lat="43.73104" lon="1.45385">
        <ele>176.60777</ele>
        <time>2023-07-30T14:25:50.000Z</time>
      </trkpt>
      <trkpt lat="43.73104" lon="1.45385">
        <ele>176.60777</ele>
        <time>2023-07-30T14:25:50.000Z</time>
      </trkpt>
      <trkpt lat="43.731" lon="1.45381">
        <ele>176.719213</ele>
        <time>2023-07-30T14:25:52.000Z</time>
      </trkpt>
      <trkpt lat="43.731" lon="1.45381">
        <ele>176.719213</ele>
        <time>2023-07-30T14:25:52.000Z</time>
      </trkpt>
      <trkpt lat="43.73097" lon="1.4538">
        <ele>176.791738</ele>
        <time>2023-07-30T14:25:53.000Z</time>
      </trkpt>
      <trkpt lat="43.73097" lon="1.4538">
        <ele>176.791738</ele>
        <time>2023-07-30T14:25:53.000Z</time>
      </trkpt>
      <trkpt lat="43.73094" lon="1.45378">
        <ele>176.876236</ele>
        <time>2023-07-30T14:25:53.000Z</time>
      </trkpt>
      <trkpt lat="43.73094" lon="1.45378">
        <ele>176.876236</ele>
        <time>2023-07-30T14:25:53.000Z</time>
      </trkpt>
      <trkpt lat="43.7309" lon="1.45378">
        <ele>176.95859</ele>
        <time>2023-07-30T14:25:55.000Z</time>
      </trkpt>
      <trkpt lat="43.7309" lon="1.45378">
        <ele>176.95859</ele>
        <time>2023-07-30T14:25:55.000Z</time>
      </trkpt>
      <trkpt lat="43.73087" lon="1.4538">
        <ele>177.056093</ele>
        <time>2023-07-30T14:25:57.000Z</time>
      </trkpt>
      <trkpt lat="43.73087" lon="1.4538">
        <ele>177.056093</ele>
        <time>2023-07-30T14:25:57.000Z</time>
      </trkpt>
      <trkpt lat="43.73081" lon="1.45383">
        <ele>177.199747</ele>
        <time>2023-07-30T14:25:58.000Z</time>
      </trkpt>
      <trkpt lat="43.73081" lon="1.45383">
        <ele>177.199747</ele>
        <time>2023-07-30T14:25:58.000Z</time>
      </trkpt>
      <trkpt lat="43.73078" lon="1.45386">
        <ele>177.295493</ele>
        <time>2023-07-30T14:25:59.000Z</time>
      </trkpt>
      <trkpt lat="43.73078" lon="1.45386">
        <ele>177.295493</ele>
        <time>2023-07-30T14:25:59.000Z</time>
      </trkpt>
      <trkpt lat="43.73074" lon="1.4539">
        <ele>177.414137</ele>
        <time>2023-07-30T14:26:01.000Z</time>
      </trkpt>
      <trkpt lat="43.73074" lon="1.4539">
        <ele>177.414137</ele>
        <time>2023-07-30T14:26:01.000Z</time>
      </trkpt>
      <trkpt lat="43.73069" lon="1.45393">
        <ele>177.531016</ele>
        <time>2023-07-30T14:26:02.000Z</time>
      </trkpt>
      <trkpt lat="43.73069" lon="1.45393">
        <ele>177.531016</ele>
        <time>2023-07-30T14:26:02.000Z</time>
      </trkpt>
      <trkpt lat="43.73064" lon="1.45396">
        <ele>177.662212</ele>
        <time>2023-07-30T14:26:02.000Z</time>
      </trkpt>
      <trkpt lat="43.73064" lon="1.45396">
        <ele>177.662212</ele>
        <time>2023-07-30T14:26:02.000Z</time>
      </trkpt>
      <trkpt lat="43.73061" lon="1.45397">
        <ele>177.756535</ele>
        <time>2023-07-30T14:26:04.000Z</time>
      </trkpt>
      <trkpt lat="43.73061" lon="1.45397">
        <ele>177.756535</ele>
        <time>2023-07-30T14:26:04.000Z</time>
      </trkpt>
      <trkpt lat="43.73058" lon="1.45398">
        <ele>177.830821</ele>
        <time>2023-07-30T14:26:05.000Z</time>
      </trkpt>
      <trkpt lat="43.73058" lon="1.45398">
        <ele>177.830821</ele>
        <time>2023-07-30T14:26:05.000Z</time>
      </trkpt>
      <trkpt lat="43.73054" lon="1.45398">
        <ele>177.915682</ele>
        <time>2023-07-30T14:26:06.000Z</time>
      </trkpt>
      <trkpt lat="43.73054" lon="1.45398">
        <ele>177.915682</ele>
        <time>2023-07-30T14:26:06.000Z</time>
      </trkpt>
      <trkpt lat="43.73049" lon="1.45395">
        <ele>178.040897</ele>
        <time>2023-07-30T14:26:07.000Z</time>
      </trkpt>
      <trkpt lat="43.73049" lon="1.45395">
        <ele>178.040897</ele>
        <time>2023-07-30T14:26:07.000Z</time>
      </trkpt>
      <trkpt lat="43.73044" lon="1.45392">
        <ele>178.182373</ele>
        <time>2023-07-30T14:26:09.000Z</time>
      </trkpt>
      <trkpt lat="43.73044" lon="1.45392">
        <ele>178.182373</ele>
        <time>2023-07-30T14:26:09.000Z</time>
      </trkpt>
      <trkpt lat="43.73038" lon="1.4539">
        <ele>178.327074</ele>
        <time>2023-07-30T14:26:10.000Z</time>
      </trkpt>
      <trkpt lat="43.73038" lon="1.4539">
        <ele>178.327074</ele>
        <time>2023-07-30T14:26:10.000Z</time>
      </trkpt>
      <trkpt lat="43.73032" lon="1.45388">
        <ele>178.478386</ele>
        <time>2023-07-30T14:26:11.000Z</time>
      </trkpt>
      <trkpt lat="43.73032" lon="1.45388">
        <ele>178.478386</ele>
        <time>2023-07-30T14:26:11.000Z</time>
      </trkpt>
      <trkpt lat="43.73029" lon="1.45387">
        <ele>178.562503</ele>
        <time>2023-07-30T14:26:12.000Z</time>
      </trkpt>
      <trkpt lat="43.73029" lon="1.45387">
        <ele>178.562503</ele>
        <time>2023-07-30T14:26:12.000Z</time>
      </trkpt>
      <trkpt lat="43.73024" lon="1.45387">
        <ele>178.664278</ele>
        <time>2023-07-30T14:26:13.000Z</time>
      </trkpt>
      <trkpt lat="43.73024" lon="1.45387">
        <ele>178.664278</ele>
        <time>2023-07-30T14:26:13.000Z</time>
      </trkpt>
      <trkpt lat="43.73019" lon="1.45387">
        <ele>178.785391</ele>
        <time>2023-07-30T14:26:14.000Z</time>
      </trkpt>
      <trkpt lat="43.73019" lon="1.45387">
        <ele>178.785391</ele>
        <time>2023-07-30T14:26:14.000Z</time>
      </trkpt>
      <trkpt lat="43.73015" lon="1.45388">
        <ele>178.89836</ele>
        <time>2023-07-30T14:26:15.000Z</time>
      </trkpt>
      <trkpt lat="43.73015" lon="1.45388">
        <ele>178.89836</ele>
        <time>2023-07-30T14:26:15.000Z</time>
      </trkpt>
      <trkpt lat="43.73011" lon="1.45389">
        <ele>178.983273</ele>
        <time>2023-07-30T14:26:16.000Z</time>
      </trkpt>
      <trkpt lat="43.73011" lon="1.45389">
        <ele>178.983273</ele>
        <time>2023-07-30T14:26:16.000Z</time>
      </trkpt>
      <trkpt lat="43.73009" lon="1.45391">
        <ele>179.059999</ele>
        <time>2023-07-30T14:26:18.000Z</time>
      </trkpt>
      <trkpt lat="43.73009" lon="1.45391">
        <ele>179.059999</ele>
        <time>2023-07-30T14:26:18.000Z</time>
      </trkpt>
      <trkpt lat="43.73008" lon="1.45393">
        <ele>179.08977</ele>
        <time>2023-07-30T14:26:19.000Z</time>
      </trkpt>
      <trkpt lat="43.7301" lon="1.45396">
        <ele>179.162195</ele>
        <time>2023-07-30T14:26:21.000Z</time>
      </trkpt>
      <trkpt lat="43.73011" lon="1.45398">
        <ele>179.196411</ele>
        <time>2023-07-30T14:26:22.000Z</time>
      </trkpt>
      <trkpt lat="43.73013" lon="1.45399">
        <ele>179.251164</ele>
        <time>2023-07-30T14:26:24.000Z</time>
      </trkpt>
      <trkpt lat="43.73015" lon="1.45402">
        <ele>179.318825</ele>
        <time>2023-07-30T14:26:25.000Z</time>
      </trkpt>
      <trkpt lat="43.73018" lon="1.45405">
        <ele>179.410367</ele>
        <time>2023-07-30T14:26:26.000Z</time>
      </trkpt>
      <trkpt lat="43.73021" lon="1.45407">
        <ele>179.50354</ele>
        <time>2023-07-30T14:26:27.000Z</time>
      </trkpt>
      <trkpt lat="43.73021" lon="1.45407">
        <ele>179.50354</ele>
        <time>2023-07-30T14:26:27.000Z</time>
      </trkpt>
      <trkpt lat="43.73024" lon="1.45411">
        <ele>179.603757</ele>
        <time>2023-07-30T14:26:28.000Z</time>
      </trkpt>
      <trkpt lat="43.73027" lon="1.45414">
        <ele>179.681453</ele>
        <time>2023-07-30T14:26:29.000Z</time>
      </trkpt>
      <trkpt lat="43.73027" lon="1.45414">
        <ele>179.681453</ele>
        <time>2023-07-30T14:26:29.000Z</time>
      </trkpt>
      <trkpt lat="43.73029" lon="1.45418">
        <ele>179.765243</ele>
        <time>2023-07-30T14:26:30.000Z</time>
      </trkpt>
      <trkpt lat="43.73029" lon="1.45418">
        <ele>179.765243</ele>
        <time>2023-07-30T14:26:30.000Z</time>
      </trkpt>
      <trkpt lat="43.73031" lon="1.45421">
        <ele>179.835344</ele>
        <time>2023-07-30T14:26:32.000Z</time>
      </trkpt>
      <trkpt lat="43.73033" lon="1.45424">
        <ele>179.906427</ele>
        <time>2023-07-30T14:26:33.000Z</time>
      </trkpt>
      <trkpt lat="43.73033" lon="1.45424">
        <ele>179.906427</ele>
        <time>2023-07-30T14:26:33.000Z</time>
      </trkpt>
      <trkpt lat="43.73034" lon="1.45425">
        <ele>179.946331</ele>
        <time>2023-07-30T14:26:34.000Z</time>
      </trkpt>
      <trkpt lat="43.73036" lon="1.45428">
        <ele>180.008584</ele>
        <time>2023-07-30T14:26:34.000Z</time>
      </trkpt>
      <trkpt lat="43.73036" lon="1.45428">
        <ele>180.008584</ele>
        <time>2023-07-30T14:26:34.000Z</time>
      </trkpt>
      <trkpt lat="43.73037" lon="1.45429">
        <ele>180.045464</ele>
        <time>2023-07-30T14:26:36.000Z</time>
      </trkpt>
      <trkpt lat="43.73037" lon="1.45429">
        <ele>180.045464</ele>
        <time>2023-07-30T14:26:36.000Z</time>
      </trkpt>
      <trkpt lat="43.73038" lon="1.4543">
        <ele>180.078306</ele>
        <time>2023-07-30T14:26:37.000Z</time>
      </trkpt>
      <trkpt lat="43.73038" lon="1.4543">
        <ele>180.078306</ele>
        <time>2023-07-30T14:26:37.000Z</time>
      </trkpt>
      <trkpt lat="43.7304" lon="1.45432">
        <ele>180.144988</ele>
        <time>2023-07-30T14:26:39.000Z</time>
      </trkpt>
      <trkpt lat="43.7304" lon="1.45432">
        <ele>180.144988</ele>
        <time>2023-07-30T14:26:39.000Z</time>
      </trkpt>
      <trkpt lat="43.73042" lon="1.45435">
        <ele>180.213441</ele>
        <time>2023-07-30T14:26:40.000Z</time>
      </trkpt>
      <trkpt lat="43.73042" lon="1.45435">
        <ele>180.213441</ele>
        <time>2023-07-30T14:26:40.000Z</time>
      </trkpt>
      <trkpt lat="43.73045" lon="1.45437">
        <ele>180.276542</ele>
        <time>2023-07-30T14:26:41.000Z</time>
      </trkpt>
      <trkpt lat="43.73045" lon="1.45437">
        <ele>180.276542</ele>
        <time>2023-07-30T14:26:41.000Z</time>
      </trkpt>
      <trkpt lat="43.73048" lon="1.45441">
        <ele>180.390393</ele>
        <time>2023-07-30T14:26:41.000Z</time>
      </trkpt>
      <trkpt lat="43.73048" lon="1.45441">
        <ele>180.390393</ele>
        <time>2023-07-30T14:26:41.000Z</time>
      </trkpt>
      <trkpt lat="43.7305" lon="1.45445">
        <ele>180.471836</ele>
        <time>2023-07-30T14:26:43.000Z</time>
      </trkpt>
      <trkpt lat="43.7305" lon="1.45445">
        <ele>180.471836</ele>
        <time>2023-07-30T14:26:43.000Z</time>
      </trkpt>
      <trkpt lat="43.73052" lon="1.45447">
        <ele>180.535281</ele>
        <time>2023-07-30T14:26:44.000Z</time>
      </trkpt>
      <trkpt lat="43.73052" lon="1.45447">
        <ele>180.535281</ele>
        <time>2023-07-30T14:26:44.000Z</time>
      </trkpt>
      <trkpt lat="43.73054" lon="1.45449">
        <ele>180.578112</ele>
        <time>2023-07-30T14:26:44.000Z</time>
      </trkpt>
      <trkpt lat="43.73054" lon="1.45449">
        <ele>180.578112</ele>
        <time>2023-07-30T14:26:44.000Z</time>
      </trkpt>
      <trkpt lat="43.73055" lon="1.45451">
        <ele>180.62772</ele>
        <time>2023-07-30T14:26:47.000Z</time>
      </trkpt>
      <trkpt lat="43.73055" lon="1.45451">
        <ele>180.62772</ele>
        <time>2023-07-30T14:26:47.000Z</time>
      </trkpt>
      <trkpt lat="43.73056" lon="1.45456">
        <ele>180.712449</ele>
        <time>2023-07-30T14:26:48.000Z</time>
      </trkpt>
      <trkpt lat="43.73056" lon="1.45456">
        <ele>180.712449</ele>
        <time>2023-07-30T14:26:48.000Z</time>
      </trkpt>
      <trkpt lat="43.73056" lon="1.45457">
        <ele>180.742055</ele>
        <time>2023-07-30T14:26:49.000Z</time>
      </trkpt>
      <trkpt lat="43.73056" lon="1.45457">
        <ele>180.742055</ele>
        <time>2023-07-30T14:26:49.000Z</time>
      </trkpt>
      <trkpt lat="43.73056" lon="1.45468">
        <ele>180.92428</ele>
        <time>2023-07-30T14:26:50.000Z</time>
      </trkpt>
      <trkpt lat="43.73056" lon="1.45476">
        <ele>180.825107</ele>
        <time>2023-07-30T14:26:51.000Z</time>
      </trkpt>
      <trkpt lat="43.73055" lon="1.45484">
        <ele>180.726445</ele>
        <time>2023-07-30T14:26:52.000Z</time>
      </trkpt>
      <trkpt lat="43.73055" lon="1.45484">
        <ele>180.726445</ele>
        <time>2023-07-30T14:26:52.000Z</time>
      </trkpt>
      <trkpt lat="43.73054" lon="1.45492">
        <ele>180.638342</ele>
        <time>2023-07-30T14:26:53.000Z</time>
      </trkpt>
      <trkpt lat="43.73054" lon="1.45492">
        <ele>180.638342</ele>
        <time>2023-07-30T14:26:53.000Z</time>
      </trkpt>
      <trkpt lat="43.73055" lon="1.45502">
        <ele>180.517214</ele>
        <time>2023-07-30T14:26:54.000Z</time>
      </trkpt>
      <trkpt lat="43.73055" lon="1.45502">
        <ele>180.517214</ele>
        <time>2023-07-30T14:26:54.000Z</time>
      </trkpt>
      <trkpt lat="43.73056" lon="1.45509">
        <ele>180.430575</ele>
        <time>2023-07-30T14:26:56.000Z</time>
      </trkpt>
      <trkpt lat="43.73056" lon="1.45509">
        <ele>180.430575</ele>
        <time>2023-07-30T14:26:56.000Z</time>
      </trkpt>
      <trkpt lat="43.73057" lon="1.45514">
        <ele>180.365706</ele>
        <time>2023-07-30T14:26:57.000Z</time>
      </trkpt>
      <trkpt lat="43.73057" lon="1.45514">
        <ele>180.365706</ele>
        <time>2023-07-30T14:26:57.000Z</time>
      </trkpt>
      <trkpt lat="43.7306" lon="1.45519">
        <ele>180.288264</ele>
        <time>2023-07-30T14:26:58.000Z</time>
      </trkpt>
      <trkpt lat="43.7306" lon="1.45519">
        <ele>180.288264</ele>
        <time>2023-07-30T14:26:58.000Z</time>
      </trkpt>
      <trkpt lat="43.73062" lon="1.45523">
        <ele>180.224528</ele>
        <time>2023-07-30T14:27:00.000Z</time>
      </trkpt>
      <trkpt lat="43.73065" lon="1.45528">
        <ele>180.138813</ele>
        <time>2023-07-30T14:27:01.000Z</time>
      </trkpt>
      <trkpt lat="43.7307" lon="1.45537">
        <ele>180.008249</ele>
        <time>2023-07-30T14:27:03.000Z</time>
      </trkpt>
      <trkpt lat="43.73072" lon="1.45541">
        <ele>179.948421</ele>
        <time>2023-07-30T14:27:03.000Z</time>
      </trkpt>
      <trkpt lat="43.73074" lon="1.45545">
        <ele>179.887624</ele>
        <time>2023-07-30T14:27:05.000Z</time>
      </trkpt>
      <trkpt lat="43.73078" lon="1.45553">
        <ele>179.772907</ele>
        <time>2023-07-30T14:27:07.000Z</time>
      </trkpt>
      <trkpt lat="43.73079" lon="1.45556">
        <ele>179.732221</ele>
        <time>2023-07-30T14:27:08.000Z</time>
      </trkpt>
      <trkpt lat="43.7308" lon="1.45559">
        <ele>179.693546</ele>
        <time>2023-07-30T14:27:09.000Z</time>
      </trkpt>
      <trkpt lat="43.73081" lon="1.45562">
        <ele>179.657713</ele>
        <time>2023-07-30T14:27:10.000Z</time>
      </trkpt>
      <trkpt lat="43.73081" lon="1.45565">
        <ele>179.611269</ele>
        <time>2023-07-30T14:27:10.000Z</time>
      </trkpt>
      <trkpt lat="43.73082" lon="1.4557">
        <ele>179.560034</ele>
        <time>2023-07-30T14:27:12.000Z</time>
      </trkpt>
      <trkpt lat="43.73082" lon="1.4557">
        <ele>179.560034</ele>
        <time>2023-07-30T14:27:12.000Z</time>
      </trkpt>
      <trkpt lat="43.73082" lon="1.45573">
        <ele>179.517178</ele>
        <time>2023-07-30T14:27:14.000Z</time>
      </trkpt>
      <trkpt lat="43.73083" lon="1.45577">
        <ele>179.470921</ele>
        <time>2023-07-30T14:27:15.000Z</time>
      </trkpt>
      <trkpt lat="43.73083" lon="1.45577">
        <ele>179.470921</ele>
        <time>2023-07-30T14:27:15.000Z</time>
      </trkpt>
      <trkpt lat="43.73084" lon="1.45581">
        <ele>179.41854</ele>
        <time>2023-07-30T14:27:15.000Z</time>
      </trkpt>
      <trkpt lat="43.73084" lon="1.45581">
        <ele>179.41854</ele>
        <time>2023-07-30T14:27:15.000Z</time>
      </trkpt>
      <trkpt lat="43.73086" lon="1.45586">
        <ele>179.343718</ele>
        <time>2023-07-30T14:27:17.000Z</time>
      </trkpt>
      <trkpt lat="43.73086" lon="1.45586">
        <ele>179.343718</ele>
        <time>2023-07-30T14:27:17.000Z</time>
      </trkpt>
      <trkpt lat="43.73088" lon="1.45593">
        <ele>179.262269</ele>
        <time>2023-07-30T14:27:18.000Z</time>
      </trkpt>
      <trkpt lat="43.73088" lon="1.45593">
        <ele>179.262269</ele>
        <time>2023-07-30T14:27:18.000Z</time>
      </trkpt>
      <trkpt lat="43.7309" lon="1.45603">
        <ele>179.129755</ele>
        <time>2023-07-30T14:27:20.000Z</time>
      </trkpt>
      <trkpt lat="43.7309" lon="1.45603">
        <ele>179.129755</ele>
        <time>2023-07-30T14:27:20.000Z</time>
      </trkpt>
      <trkpt lat="43.73091" lon="1.45608">
        <ele>179.066664</ele>
        <time>2023-07-30T14:27:21.000Z</time>
      </trkpt>
      <trkpt lat="43.73091" lon="1.45608">
        <ele>179.066664</ele>
        <time>2023-07-30T14:27:21.000Z</time>
      </trkpt>
      <trkpt lat="43.73091" lon="1.45611">
        <ele>179.025544</ele>
        <time>2023-07-30T14:27:22.000Z</time>
      </trkpt>
      <trkpt lat="43.73091" lon="1.45619">
        <ele>178.937002</ele>
        <time>2023-07-30T14:27:24.000Z</time>
      </trkpt>
      <trkpt lat="43.73091" lon="1.45623">
        <ele>178.882578</ele>
        <time>2023-07-30T14:27:25.000Z</time>
      </trkpt>
      <trkpt lat="43.73091" lon="1.45627">
        <ele>178.835411</ele>
        <time>2023-07-30T14:27:25.000Z</time>
      </trkpt>
      <trkpt lat="43.73091" lon="1.45627">
        <ele>178.835411</ele>
        <time>2023-07-30T14:27:25.000Z</time>
      </trkpt>
      <trkpt lat="43.73092" lon="1.45632">
        <ele>178.775772</ele>
        <time>2023-07-30T14:27:28.000Z</time>
      </trkpt>
      <trkpt lat="43.73092" lon="1.45632">
        <ele>178.775772</ele>
        <time>2023-07-30T14:27:28.000Z</time>
      </trkpt>
      <trkpt lat="43.73092" lon="1.45637">
        <ele>178.710463</ele>
        <time>2023-07-30T14:27:29.000Z</time>
      </trkpt>
      <trkpt lat="43.73092" lon="1.45637">
        <ele>178.710463</ele>
        <time>2023-07-30T14:27:29.000Z</time>
      </trkpt>
      <trkpt lat="43.73092" lon="1.45643">
        <ele>178.639998</ele>
        <time>2023-07-30T14:27:30.000Z</time>
      </trkpt>
      <trkpt lat="43.73092" lon="1.45648">
        <ele>178.581945</ele>
        <time>2023-07-30T14:27:31.000Z</time>
      </trkpt>
      <trkpt lat="43.73092" lon="1.45648">
        <ele>178.581945</ele>
        <time>2023-07-30T14:27:31.000Z</time>
      </trkpt>
      <trkpt lat="43.73092" lon="1.45655">
        <ele>178.502123</ele>
        <time>2023-07-30T14:27:33.000Z</time>
      </trkpt>
      <trkpt lat="43.73092" lon="1.45664">
        <ele>178.390856</ele>
        <time>2023-07-30T14:27:34.000Z</time>
      </trkpt>
      <trkpt lat="43.73092" lon="1.45664">
        <ele>178.390856</ele>
        <time>2023-07-30T14:27:34.000Z</time>
      </trkpt>
      <trkpt lat="43.73092" lon="1.45669">
        <ele>178.328813</ele>
        <time>2023-07-30T14:27:35.000Z</time>
      </trkpt>
      <trkpt lat="43.73092" lon="1.45672">
        <ele>178.294949</ele>
        <time>2023-07-30T14:27:36.000Z</time>
      </trkpt>
      <trkpt lat="43.73093" lon="1.45682">
        <ele>178.165368</ele>
        <time>2023-07-30T14:27:38.000Z</time>
      </trkpt>
      <trkpt lat="43.73093" lon="1.45682">
        <ele>178.165368</ele>
        <time>2023-07-30T14:27:38.000Z</time>
      </trkpt>
      <trkpt lat="43.73093" lon="1.45687">
        <ele>178.111917</ele>
        <time>2023-07-30T14:27:39.000Z</time>
      </trkpt>
      <trkpt lat="43.73093" lon="1.45687">
        <ele>178.111917</ele>
        <time>2023-07-30T14:27:39.000Z</time>
      </trkpt>
      <trkpt lat="43.73093" lon="1.45689">
        <ele>178.080949</ele>
        <time>2023-07-30T14:27:40.000Z</time>
      </trkpt>
      <trkpt lat="43.73093" lon="1.45694">
        <ele>178.030153</ele>
        <time>2023-07-30T14:27:41.000Z</time>
      </trkpt>
      <trkpt lat="43.73093" lon="1.45694">
        <ele>178.030153</ele>
        <time>2023-07-30T14:27:41.000Z</time>
      </trkpt>
      <trkpt lat="43.73094" lon="1.457">
        <ele>177.956075</ele>
        <time>2023-07-30T14:27:42.000Z</time>
      </trkpt>
      <trkpt lat="43.73094" lon="1.457">
        <ele>177.956075</ele>
        <time>2023-07-30T14:27:42.000Z</time>
      </trkpt>
      <trkpt lat="43.73094" lon="1.45706">
        <ele>177.985303</ele>
        <time>2023-07-30T14:27:43.000Z</time>
      </trkpt>
      <trkpt lat="43.73093" lon="1.45712">
        <ele>178.134645</ele>
        <time>2023-07-30T14:27:45.000Z</time>
      </trkpt>
      <trkpt lat="43.73093" lon="1.45717">
        <ele>178.265179</ele>
        <time>2023-07-30T14:27:46.000Z</time>
      </trkpt>
      <trkpt lat="43.73092" lon="1.45721">
        <ele>178.348663</ele>
        <time>2023-07-30T14:27:47.000Z</time>
      </trkpt>
      <trkpt lat="43.73092" lon="1.45724">
        <ele>178.430858</ele>
        <time>2023-07-30T14:27:48.000Z</time>
      </trkpt>
      <trkpt lat="43.73091" lon="1.45726">
        <ele>178.484839</ele>
        <time>2023-07-30T14:27:49.000Z</time>
      </trkpt>
      <trkpt lat="43.73091" lon="1.45726">
        <ele>178.484839</ele>
        <time>2023-07-30T14:27:49.000Z</time>
      </trkpt>
      <trkpt lat="43.73088" lon="1.45731">
        <ele>178.643822</ele>
        <time>2023-07-30T14:27:51.000Z</time>
      </trkpt>
      <trkpt lat="43.73088" lon="1.45731">
        <ele>178.643822</ele>
        <time>2023-07-30T14:27:51.000Z</time>
      </trkpt>
      <trkpt lat="43.73084" lon="1.45736">
        <ele>178.797568</ele>
        <time>2023-07-30T14:27:53.000Z</time>
      </trkpt>
      <trkpt lat="43.73084" lon="1.45736">
        <ele>178.797568</ele>
        <time>2023-07-30T14:27:53.000Z</time>
      </trkpt>
      <trkpt lat="43.73082" lon="1.45737">
        <ele>178.86582</ele>
        <time>2023-07-30T14:27:54.000Z</time>
      </trkpt>
      <trkpt lat="43.73082" lon="1.45737">
        <ele>178.86582</ele>
        <time>2023-07-30T14:27:54.000Z</time>
      </trkpt>
      <trkpt lat="43.7308" lon="1.45739">
        <ele>178.939065</ele>
        <time>2023-07-30T14:27:55.000Z</time>
      </trkpt>
      <trkpt lat="43.7308" lon="1.45739">
        <ele>178.939065</ele>
        <time>2023-07-30T14:27:55.000Z</time>
      </trkpt>
      <trkpt lat="43.73078" lon="1.45739">
        <ele>179.026107</ele>
        <time>2023-07-30T14:27:55.000Z</time>
      </trkpt>
      <trkpt lat="43.73078" lon="1.45739">
        <ele>179.026107</ele>
        <time>2023-07-30T14:27:55.000Z</time>
      </trkpt>
      <trkpt lat="43.73074" lon="1.4574">
        <ele>179.163544</ele>
        <time>2023-07-30T14:27:58.000Z</time>
      </trkpt>
      <trkpt lat="43.73074" lon="1.4574">
        <ele>179.163544</ele>
        <time>2023-07-30T14:27:58.000Z</time>
      </trkpt>
      <trkpt lat="43.73065" lon="1.45739">
        <ele>179.451164</ele>
        <time>2023-07-30T14:27:58.000Z</time>
      </trkpt>
      <trkpt lat="43.73065" lon="1.45739">
        <ele>179.451164</ele>
        <time>2023-07-30T14:27:58.000Z</time>
      </trkpt>
      <trkpt lat="43.73061" lon="1.45739">
        <ele>179.588926</ele>
        <time>2023-07-30T14:28:00.000Z</time>
      </trkpt>
      <trkpt lat="43.73061" lon="1.45739">
        <ele>179.588926</ele>
        <time>2023-07-30T14:28:00.000Z</time>
      </trkpt>
      <trkpt lat="43.73057" lon="1.45738">
        <ele>179.70126</ele>
        <time>2023-07-30T14:28:01.000Z</time>
      </trkpt>
      <trkpt lat="43.73057" lon="1.45738">
        <ele>179.70126</ele>
        <time>2023-07-30T14:28:01.000Z</time>
      </trkpt>
      <trkpt lat="43.73054" lon="1.45738">
        <ele>179.816513</ele>
        <time>2023-07-30T14:28:03.000Z</time>
      </trkpt>
      <trkpt lat="43.73054" lon="1.45738">
        <ele>179.816513</ele>
        <time>2023-07-30T14:28:03.000Z</time>
      </trkpt>
      <trkpt lat="43.73054" lon="1.45738">
        <ele>179.816513</ele>
        <time>2023-07-30T14:28:04.000Z</time>
      </trkpt>
      <trkpt lat="43.73054" lon="1.45738">
        <ele>179.816513</ele>
        <time>2023-07-30T14:28:04.000Z</time>
      </trkpt>
      <trkpt lat="43.73054" lon="1.45738">
        <ele>179.816513</ele>
        <time>2023-07-30T14:28:05.000Z</time>
      </trkpt>
      <trkpt lat="43.73054" lon="1.45738">
        <ele>179.816513</ele>
        <time>2023-07-30T14:28:07.000Z</time>
      </trkpt>
      <trkpt lat="43.73054" lon="1.45738">
        <ele>179.816513</ele>
        <time>2023-07-30T14:28:08.000Z</time>
      </trkpt>
      <trkpt lat="43.73054" lon="1.45738">
        <ele>179.816513</ele>
        <time>2023-07-30T14:28:09.000Z</time>
      </trkpt>
      <trkpt lat="43.73054" lon="1.45738">
        <ele>179.816513</ele>
        <time>2023-07-30T14:28:10.000Z</time>
      </trkpt>
      <trkpt lat="43.73054" lon="1.45738">
        <ele>179.816513</ele>
        <time>2023-07-30T14:28:10.000Z</time>
      </trkpt>
      <trkpt lat="43.73054" lon="1.45738">
        <ele>179.816513</ele>
        <time>2023-07-30T14:28:12.000Z</time>
      </trkpt>
      <trkpt lat="43.73043" lon="1.45736">
        <ele>180.178225</ele>
        <time>2023-07-30T14:28:14.000Z</time>
      </trkpt>
      <trkpt lat="43.73043" lon="1.45736">
        <ele>180.178225</ele>
        <time>2023-07-30T14:28:14.000Z</time>
      </trkpt>
      <trkpt lat="43.73043" lon="1.45736">
        <ele>180.178225</ele>
        <time>2023-07-30T14:28:15.000Z</time>
      </trkpt>
      <trkpt lat="43.73039" lon="1.45733">
        <ele>180.322378</ele>
        <time>2023-07-30T14:28:17.000Z</time>
      </trkpt>
      <trkpt lat="43.73039" lon="1.4573">
        <ele>180.400306</ele>
        <time>2023-07-30T14:28:18.000Z</time>
      </trkpt>
      <trkpt lat="43.73039" lon="1.45726">
        <ele>180.485881</ele>
        <time>2023-07-30T14:28:19.000Z</time>
      </trkpt>
      <trkpt lat="43.73039" lon="1.45726">
        <ele>180.485881</ele>
        <time>2023-07-30T14:28:19.000Z</time>
      </trkpt>
      <trkpt lat="43.7304" lon="1.45722">
        <ele>180.58389</ele>
        <time>2023-07-30T14:28:20.000Z</time>
      </trkpt>
      <trkpt lat="43.73041" lon="1.45718">
        <ele>180.692741</ele>
        <time>2023-07-30T14:28:21.000Z</time>
      </trkpt>
      <trkpt lat="43.73044" lon="1.45707">
        <ele>180.961568</ele>
        <time>2023-07-30T14:28:23.000Z</time>
      </trkpt>
      <trkpt lat="43.73044" lon="1.45707">
        <ele>180.961568</ele>
        <time>2023-07-30T14:28:23.000Z</time>
      </trkpt>
      <trkpt lat="43.73046" lon="1.45702">
        <ele>181.093785</ele>
        <time>2023-07-30T14:28:24.000Z</time>
      </trkpt>
      <trkpt lat="43.73049" lon="1.45691">
        <ele>181.384108</ele>
        <time>2023-07-30T14:28:25.000Z</time>
      </trkpt>
      <trkpt lat="43.73049" lon="1.45691">
        <ele>181.384108</ele>
        <time>2023-07-30T14:28:25.000Z</time>
      </trkpt>
      <trkpt lat="43.73051" lon="1.45685">
        <ele>181.531805</ele>
        <time>2023-07-30T14:28:27.000Z</time>
      </trkpt>
      <trkpt lat="43.73052" lon="1.45679">
        <ele>181.670626</ele>
        <time>2023-07-30T14:28:28.000Z</time>
      </trkpt>
      <trkpt lat="43.73052" lon="1.45679">
        <ele>181.670626</ele>
        <time>2023-07-30T14:28:28.000Z</time>
      </trkpt>
      <trkpt lat="43.73054" lon="1.45673">
        <ele>181.818322</ele>
        <time>2023-07-30T14:28:29.000Z</time>
      </trkpt>
      <trkpt lat="43.73056" lon="1.45667">
        <ele>181.98609</ele>
        <time>2023-07-30T14:28:30.000Z</time>
      </trkpt>
      <trkpt lat="43.73057" lon="1.45659">
        <ele>182.16623</ele>
        <time>2023-07-30T14:28:31.000Z</time>
      </trkpt>
      <trkpt lat="43.73057" lon="1.45659">
        <ele>182.16623</ele>
        <time>2023-07-30T14:28:31.000Z</time>
      </trkpt>
      <trkpt lat="43.73058" lon="1.4565">
        <ele>182.383875</ele>
        <time>2023-07-30T14:28:32.000Z</time>
      </trkpt>
      <trkpt lat="43.73056" lon="1.45644">
        <ele>182.530479</ele>
        <time>2023-07-30T14:28:33.000Z</time>
      </trkpt>
      <trkpt lat="43.73056" lon="1.45644">
        <ele>182.530479</ele>
        <time>2023-07-30T14:28:33.000Z</time>
      </trkpt>
      <trkpt lat="43.73053" lon="1.45639">
        <ele>182.68761</ele>
        <time>2023-07-30T14:28:34.000Z</time>
      </trkpt>
      <trkpt lat="43.7305" lon="1.45635">
        <ele>182.826121</ele>
        <time>2023-07-30T14:28:35.000Z</time>
      </trkpt>
      <trkpt lat="43.7305" lon="1.45635">
        <ele>182.826121</ele>
        <time>2023-07-30T14:28:35.000Z</time>
      </trkpt>
      <trkpt lat="43.73046" lon="1.45631">
        <ele>182.977961</ele>
        <time>2023-07-30T14:28:36.000Z</time>
      </trkpt>
      <trkpt lat="43.73042" lon="1.45628">
        <ele>183.132567</ele>
        <time>2023-07-30T14:28:37.000Z</time>
      </trkpt>
      <trkpt lat="43.73039" lon="1.45624">
        <ele>183.283061</ele>
        <time>2023-07-30T14:28:38.000Z</time>
      </trkpt>
      <trkpt lat="43.73039" lon="1.45624">
        <ele>183.283061</ele>
        <time>2023-07-30T14:28:38.000Z</time>
      </trkpt>
      <trkpt lat="43.73035" lon="1.4562">
        <ele>183.433555</ele>
        <time>2023-07-30T14:28:39.000Z</time>
      </trkpt>
      <trkpt lat="43.73031" lon="1.45616">
        <ele>183.588161</ele>
        <time>2023-07-30T14:28:40.000Z</time>
      </trkpt>
      <trkpt lat="43.73027" lon="1.45613">
        <ele>183.752147</ele>
        <time>2023-07-30T14:28:41.000Z</time>
      </trkpt>
      <trkpt lat="43.73023" lon="1.45609">
        <ele>183.81871</ele>
        <time>2023-07-30T14:28:42.000Z</time>
      </trkpt>
      <trkpt lat="43.73019" lon="1.45605">
        <ele>183.855448</ele>
        <time>2023-07-30T14:28:43.000Z</time>
      </trkpt>
      <trkpt lat="43.73015" lon="1.45602">
        <ele>183.894111</ele>
        <time>2023-07-30T14:28:44.000Z</time>
      </trkpt>
      <trkpt lat="43.73015" lon="1.45602">
        <ele>183.894111</ele>
        <time>2023-07-30T14:28:44.000Z</time>
      </trkpt>
      <trkpt lat="43.73012" lon="1.45598">
        <ele>183.927355</ele>
        <time>2023-07-30T14:28:45.000Z</time>
      </trkpt>
      <trkpt lat="43.73008" lon="1.45594">
        <ele>183.963435</ele>
        <time>2023-07-30T14:28:46.000Z</time>
      </trkpt>
      <trkpt lat="43.73004" lon="1.45591">
        <ele>183.999196</ele>
        <time>2023-07-30T14:28:47.000Z</time>
      </trkpt>
      <trkpt lat="43.73" lon="1.45587">
        <ele>184.035292</ele>
        <time>2023-07-30T14:28:48.000Z</time>
      </trkpt>
      <trkpt lat="43.72996" lon="1.45583">
        <ele>184.074259</ele>
        <time>2023-07-30T14:28:49.000Z</time>
      </trkpt>
      <trkpt lat="43.72996" lon="1.45583">
        <ele>184.074259</ele>
        <time>2023-07-30T14:28:49.000Z</time>
      </trkpt>
      <trkpt lat="43.72992" lon="1.45579">
        <ele>184.111334</ele>
        <time>2023-07-30T14:28:50.000Z</time>
      </trkpt>
      <trkpt lat="43.72989" lon="1.45576">
        <ele>184.142168</ele>
        <time>2023-07-30T14:28:51.000Z</time>
      </trkpt>
      <trkpt lat="43.72985" lon="1.45572">
        <ele>184.182407</ele>
        <time>2023-07-30T14:28:52.000Z</time>
      </trkpt>
      <trkpt lat="43.72985" lon="1.45572">
        <ele>184.182407</ele>
        <time>2023-07-30T14:28:52.000Z</time>
      </trkpt>
      <trkpt lat="43.72981" lon="1.45568">
        <ele>184.21695</ele>
        <time>2023-07-30T14:28:53.000Z</time>
      </trkpt>
      <trkpt lat="43.72979" lon="1.45567">
        <ele>184.236694</ele>
        <time>2023-07-30T14:28:54.000Z</time>
      </trkpt>
      <trkpt lat="43.72979" lon="1.45567">
        <ele>184.236694</ele>
        <time>2023-07-30T14:28:54.000Z</time>
      </trkpt>
      <trkpt lat="43.72975" lon="1.45564">
        <ele>184.273397</ele>
        <time>2023-07-30T14:28:55.000Z</time>
      </trkpt>
      <trkpt lat="43.72971" lon="1.45561">
        <ele>184.306828</ele>
        <time>2023-07-30T14:28:56.000Z</time>
      </trkpt>
      <trkpt lat="43.72971" lon="1.45561">
        <ele>184.306828</ele>
        <time>2023-07-30T14:28:56.000Z</time>
      </trkpt>
      <trkpt lat="43.72967" lon="1.45558">
        <ele>184.344059</ele>
        <time>2023-07-30T14:28:57.000Z</time>
      </trkpt>
      <trkpt lat="43.72963" lon="1.45555">
        <ele>184.375453</ele>
        <time>2023-07-30T14:28:58.000Z</time>
      </trkpt>
      <trkpt lat="43.72963" lon="1.45555">
        <ele>184.375453</ele>
        <time>2023-07-30T14:28:58.000Z</time>
      </trkpt>
      <trkpt lat="43.7296" lon="1.45551">
        <ele>184.411859</ele>
        <time>2023-07-30T14:28:59.000Z</time>
      </trkpt>
      <trkpt lat="43.7296" lon="1.45551">
        <ele>184.411859</ele>
        <time>2023-07-30T14:28:59.000Z</time>
      </trkpt>
      <trkpt lat="43.72957" lon="1.45548">
        <ele>184.438824</ele>
        <time>2023-07-30T14:29:00.000Z</time>
      </trkpt>
      <trkpt lat="43.72957" lon="1.45548">
        <ele>184.438824</ele>
        <time>2023-07-30T14:29:00.000Z</time>
      </trkpt>
      <trkpt lat="43.72957" lon="1.45543">
        <ele>184.463065</ele>
        <time>2023-07-30T14:29:01.000Z</time>
      </trkpt>
      <trkpt lat="43.72957" lon="1.45543">
        <ele>184.463065</ele>
        <time>2023-07-30T14:29:01.000Z</time>
      </trkpt>
      <trkpt lat="43.72958" lon="1.45532">
        <ele>184.526431</ele>
        <time>2023-07-30T14:29:03.000Z</time>
      </trkpt>
      <trkpt lat="43.72959" lon="1.45527">
        <ele>184.555009</ele>
        <time>2023-07-30T14:29:04.000Z</time>
      </trkpt>
      <trkpt lat="43.72963" lon="1.45512">
        <ele>184.647638</ele>
        <time>2023-07-30T14:29:06.000Z</time>
      </trkpt>
      <trkpt lat="43.72963" lon="1.45512">
        <ele>184.647638</ele>
        <time>2023-07-30T14:29:06.000Z</time>
      </trkpt>
      <trkpt lat="43.72964" lon="1.45507">
        <ele>184.67536</ele>
        <time>2023-07-30T14:29:07.000Z</time>
      </trkpt>
      <trkpt lat="43.72966" lon="1.45502">
        <ele>184.708559</ele>
        <time>2023-07-30T14:29:08.000Z</time>
      </trkpt>
      <trkpt lat="43.72968" lon="1.45495">
        <ele>184.748947</ele>
        <time>2023-07-30T14:29:09.000Z</time>
      </trkpt>
      <trkpt lat="43.72971" lon="1.45488">
        <ele>184.79743</ele>
        <time>2023-07-30T14:29:10.000Z</time>
      </trkpt>
      <trkpt lat="43.72973" lon="1.45482">
        <ele>184.833088</ele>
        <time>2023-07-30T14:29:11.000Z</time>
      </trkpt>
      <trkpt lat="43.72973" lon="1.45482">
        <ele>184.833088</ele>
        <time>2023-07-30T14:29:11.000Z</time>
      </trkpt>
      <trkpt lat="43.72974" lon="1.4548">
        <ele>184.846203</ele>
        <time>2023-07-30T14:29:12.000Z</time>
      </trkpt>
      <trkpt lat="43.72971" lon="1.45468">
        <ele>184.914242</ele>
        <time>2023-07-30T14:29:14.000Z</time>
      </trkpt>
      <trkpt lat="43.72969" lon="1.45467">
        <ele>184.933287</ele>
        <time>2023-07-30T14:29:15.000Z</time>
      </trkpt>
      <trkpt lat="43.72965" lon="1.45464">
        <ele>184.969249</ele>
        <time>2023-07-30T14:29:16.000Z</time>
      </trkpt>
      <trkpt lat="43.72961" lon="1.45462">
        <ele>185.003927</ele>
        <time>2023-07-30T14:29:18.000Z</time>
      </trkpt>
      <trkpt lat="43.72961" lon="1.45462">
        <ele>185.003927</ele>
        <time>2023-07-30T14:29:18.000Z</time>
      </trkpt>
      <trkpt lat="43.72956" lon="1.4546">
        <ele>185.043779</ele>
        <time>2023-07-30T14:29:18.000Z</time>
      </trkpt>
      <trkpt lat="43.72951" lon="1.45458">
        <ele>185.081057</ele>
        <time>2023-07-30T14:29:20.000Z</time>
      </trkpt>
      <trkpt lat="43.72946" lon="1.45456">
        <ele>185.12106</ele>
        <time>2023-07-30T14:29:20.000Z</time>
      </trkpt>
      <trkpt lat="43.72946" lon="1.45456">
        <ele>185.12106</ele>
        <time>2023-07-30T14:29:20.000Z</time>
      </trkpt>
      <trkpt lat="43.72942" lon="1.45455">
        <ele>185.157136</ele>
        <time>2023-07-30T14:29:22.000Z</time>
      </trkpt>
      <trkpt lat="43.72938" lon="1.45454">
        <ele>185.184251</ele>
        <time>2023-07-30T14:29:23.000Z</time>
      </trkpt>
      <trkpt lat="43.72938" lon="1.45454">
        <ele>185.184251</ele>
        <time>2023-07-30T14:29:23.000Z</time>
      </trkpt>
      <trkpt lat="43.72935" lon="1.45451">
        <ele>185.159385</ele>
        <time>2023-07-30T14:29:24.000Z</time>
      </trkpt>
      <trkpt lat="43.72932" lon="1.45448">
        <ele>185.107758</ele>
        <time>2023-07-30T14:29:25.000Z</time>
      </trkpt>
      <trkpt lat="43.72932" lon="1.45448">
        <ele>185.107758</ele>
        <time>2023-07-30T14:29:25.000Z</time>
      </trkpt>
      <trkpt lat="43.72931" lon="1.45446">
        <ele>185.083348</ele>
        <time>2023-07-30T14:29:27.000Z</time>
      </trkpt>
      <trkpt lat="43.72931" lon="1.45443">
        <ele>185.059198</ele>
        <time>2023-07-30T14:29:28.000Z</time>
      </trkpt>
      <trkpt lat="43.72933" lon="1.45438">
        <ele>185.005082</ele>
        <time>2023-07-30T14:29:29.000Z</time>
      </trkpt>
      <trkpt lat="43.72933" lon="1.45438">
        <ele>185.005082</ele>
        <time>2023-07-30T14:29:29.000Z</time>
      </trkpt>
      <trkpt lat="43.72936" lon="1.45433">
        <ele>184.942945</ele>
        <time>2023-07-30T14:29:30.000Z</time>
      </trkpt>
      <trkpt lat="43.72938" lon="1.45429">
        <ele>184.895468</ele>
        <time>2023-07-30T14:29:31.000Z</time>
      </trkpt>
      <trkpt lat="43.7294" lon="1.45427">
        <ele>184.864089</ele>
        <time>2023-07-30T14:29:33.000Z</time>
      </trkpt>
      <trkpt lat="43.72939" lon="1.45426">
        <ele>184.854124</ele>
        <time>2023-07-30T14:29:34.000Z</time>
      </trkpt>
      <trkpt lat="43.72937" lon="1.45423">
        <ele>184.8165</ele>
        <time>2023-07-30T14:29:35.000Z</time>
      </trkpt>
      <trkpt lat="43.72935" lon="1.4542">
        <ele>184.777135</ele>
        <time>2023-07-30T14:29:35.000Z</time>
      </trkpt>
      <trkpt lat="43.72932" lon="1.45417">
        <ele>184.733098</ele>
        <time>2023-07-30T14:29:37.000Z</time>
      </trkpt>
      <trkpt lat="43.72929" lon="1.45414">
        <ele>184.683661</ele>
        <time>2023-07-30T14:29:37.000Z</time>
      </trkpt>
      <trkpt lat="43.72929" lon="1.45414">
        <ele>184.683661</ele>
        <time>2023-07-30T14:29:37.000Z</time>
      </trkpt>
      <trkpt lat="43.72927" lon="1.45412">
        <ele>184.64228</ele>
        <time>2023-07-30T14:29:38.000Z</time>
      </trkpt>
      <trkpt lat="43.72927" lon="1.45412">
        <ele>184.64228</ele>
        <time>2023-07-30T14:29:38.000Z</time>
      </trkpt>
      <trkpt lat="43.72923" lon="1.45408">
        <ele>184.586972</ele>
        <time>2023-07-30T14:29:39.000Z</time>
      </trkpt>
      <trkpt lat="43.72923" lon="1.45408">
        <ele>184.586972</ele>
        <time>2023-07-30T14:29:39.000Z</time>
      </trkpt>
      <trkpt lat="43.72918" lon="1.45404">
        <ele>184.50224</ele>
        <time>2023-07-30T14:29:42.000Z</time>
      </trkpt>
      <trkpt lat="43.72918" lon="1.45404">
        <ele>184.50224</ele>
        <time>2023-07-30T14:29:42.000Z</time>
      </trkpt>
      <trkpt lat="43.72915" lon="1.45403">
        <ele>184.465992</ele>
        <time>2023-07-30T14:29:42.000Z</time>
      </trkpt>
      <trkpt lat="43.72915" lon="1.45403">
        <ele>184.465992</ele>
        <time>2023-07-30T14:29:42.000Z</time>
      </trkpt>
      <trkpt lat="43.72906" lon="1.45401">
        <ele>184.349441</ele>
        <time>2023-07-30T14:29:44.000Z</time>
      </trkpt>
      <trkpt lat="43.72906" lon="1.45401">
        <ele>184.349441</ele>
        <time>2023-07-30T14:29:44.000Z</time>
      </trkpt>
      <trkpt lat="43.72902" lon="1.454">
        <ele>184.293467</ele>
        <time>2023-07-30T14:29:45.000Z</time>
      </trkpt>
      <trkpt lat="43.72902" lon="1.454">
        <ele>184.293467</ele>
        <time>2023-07-30T14:29:45.000Z</time>
      </trkpt>
      <trkpt lat="43.72898" lon="1.45399">
        <ele>184.238253</ele>
        <time>2023-07-30T14:29:46.000Z</time>
      </trkpt>
      <trkpt lat="43.72898" lon="1.45399">
        <ele>184.238253</ele>
        <time>2023-07-30T14:29:46.000Z</time>
      </trkpt>
      <trkpt lat="43.72894" lon="1.45398">
        <ele>184.182462</ele>
        <time>2023-07-30T14:29:47.000Z</time>
      </trkpt>
      <trkpt lat="43.72894" lon="1.45398">
        <ele>184.182462</ele>
        <time>2023-07-30T14:29:47.000Z</time>
      </trkpt>
      <trkpt lat="43.72888" lon="1.45396">
        <ele>184.106551</ele>
        <time>2023-07-30T14:29:49.000Z</time>
      </trkpt>
      <trkpt lat="43.72888" lon="1.45396">
        <ele>184.106551</ele>
        <time>2023-07-30T14:29:49.000Z</time>
      </trkpt>
      <trkpt lat="43.72882" lon="1.45395">
        <ele>184.031435</ele>
        <time>2023-07-30T14:29:51.000Z</time>
      </trkpt>
      <trkpt lat="43.72882" lon="1.45395">
        <ele>184.031435</ele>
        <time>2023-07-30T14:29:51.000Z</time>
      </trkpt>
      <trkpt lat="43.72876" lon="1.45393">
        <ele>183.949827</ele>
        <time>2023-07-30T14:29:51.000Z</time>
      </trkpt>
      <trkpt lat="43.72876" lon="1.45393">
        <ele>183.949827</ele>
        <time>2023-07-30T14:29:51.000Z</time>
      </trkpt>
      <trkpt lat="43.72871" lon="1.45393">
        <ele>183.884323</ele>
        <time>2023-07-30T14:29:53.000Z</time>
      </trkpt>
      <trkpt lat="43.72871" lon="1.45393">
        <ele>183.884323</ele>
        <time>2023-07-30T14:29:53.000Z</time>
      </trkpt>
      <trkpt lat="43.72858" lon="1.45392">
        <ele>183.71965</ele>
        <time>2023-07-30T14:29:55.000Z</time>
      </trkpt>
      <trkpt lat="43.72858" lon="1.45392">
        <ele>183.71965</ele>
        <time>2023-07-30T14:29:55.000Z</time>
      </trkpt>
      <trkpt lat="43.72849" lon="1.4539">
        <ele>183.589856</ele>
        <time>2023-07-30T14:29:57.000Z</time>
      </trkpt>
      <trkpt lat="43.72849" lon="1.4539">
        <ele>183.589856</ele>
        <time>2023-07-30T14:29:57.000Z</time>
      </trkpt>
      <trkpt lat="43.72842" lon="1.45388">
        <ele>183.507813</ele>
        <time>2023-07-30T14:29:58.000Z</time>
      </trkpt>
      <trkpt lat="43.72842" lon="1.45388">
        <ele>183.507813</ele>
        <time>2023-07-30T14:29:58.000Z</time>
      </trkpt>
      <trkpt lat="43.72838" lon="1.45387">
        <ele>183.446885</ele>
        <time>2023-07-30T14:29:59.000Z</time>
      </trkpt>
      <trkpt lat="43.72838" lon="1.45387">
        <ele>183.446885</ele>
        <time>2023-07-30T14:29:59.000Z</time>
      </trkpt>
      <trkpt lat="43.72834" lon="1.45386">
        <ele>183.396214</ele>
        <time>2023-07-30T14:30:00.000Z</time>
      </trkpt>
      <trkpt lat="43.7283" lon="1.45384">
        <ele>183.336906</ele>
        <time>2023-07-30T14:30:01.000Z</time>
      </trkpt>
      <trkpt lat="43.72825" lon="1.45381">
        <ele>183.272404</ele>
        <time>2023-07-30T14:30:02.000Z</time>
      </trkpt>
      <trkpt lat="43.7282" lon="1.45378">
        <ele>183.197666</ele>
        <time>2023-07-30T14:30:04.000Z</time>
      </trkpt>
      <trkpt lat="43.7282" lon="1.45378">
        <ele>183.197666</ele>
        <time>2023-07-30T14:30:04.000Z</time>
      </trkpt>
      <trkpt lat="43.72816" lon="1.45375">
        <ele>183.140092</ele>
        <time>2023-07-30T14:30:04.000Z</time>
      </trkpt>
      <trkpt lat="43.72812" lon="1.45371">
        <ele>183.070764</ele>
        <time>2023-07-30T14:30:06.000Z</time>
      </trkpt>
      <trkpt lat="43.72812" lon="1.45371">
        <ele>183.070764</ele>
        <time>2023-07-30T14:30:06.000Z</time>
      </trkpt>
      <trkpt lat="43.72809" lon="1.45367">
        <ele>183.013125</ele>
        <time>2023-07-30T14:30:06.000Z</time>
      </trkpt>
      <trkpt lat="43.72809" lon="1.45367">
        <ele>183.013125</ele>
        <time>2023-07-30T14:30:06.000Z</time>
      </trkpt>
      <trkpt lat="43.72805" lon="1.45362">
        <ele>182.953107</ele>
        <time>2023-07-30T14:30:08.000Z</time>
      </trkpt>
      <trkpt lat="43.72805" lon="1.45362">
        <ele>182.953107</ele>
        <time>2023-07-30T14:30:08.000Z</time>
      </trkpt>
      <trkpt lat="43.72803" lon="1.45357">
        <ele>182.893987</ele>
        <time>2023-07-30T14:30:09.000Z</time>
      </trkpt>
      <trkpt lat="43.72803" lon="1.45357">
        <ele>182.893987</ele>
        <time>2023-07-30T14:30:09.000Z</time>
      </trkpt>
      <trkpt lat="43.72801" lon="1.45352">
        <ele>182.845069</ele>
        <time>2023-07-30T14:30:10.000Z</time>
      </trkpt>
      <trkpt lat="43.72799" lon="1.45341">
        <ele>182.845433</ele>
        <time>2023-07-30T14:30:13.000Z</time>
      </trkpt>
      <trkpt lat="43.72799" lon="1.45341">
        <ele>182.845433</ele>
        <time>2023-07-30T14:30:13.000Z</time>
      </trkpt>
      <trkpt lat="43.72799" lon="1.45337">
        <ele>182.845565</ele>
        <time>2023-07-30T14:30:14.000Z</time>
      </trkpt>
      <trkpt lat="43.72798" lon="1.45334">
        <ele>182.845688</ele>
        <time>2023-07-30T14:30:14.000Z</time>
      </trkpt>
      <trkpt lat="43.72797" lon="1.45329">
        <ele>182.84584</ele>
        <time>2023-07-30T14:30:16.000Z</time>
      </trkpt>
      <trkpt lat="43.72797" lon="1.45325">
        <ele>182.845973</ele>
        <time>2023-07-30T14:30:17.000Z</time>
      </trkpt>
      <trkpt lat="43.72796" lon="1.45319">
        <ele>182.846178</ele>
        <time>2023-07-30T14:30:19.000Z</time>
      </trkpt>
      <trkpt lat="43.72796" lon="1.45319">
        <ele>182.846178</ele>
        <time>2023-07-30T14:30:19.000Z</time>
      </trkpt>
      <trkpt lat="43.72795" lon="1.45313">
        <ele>182.846375</ele>
        <time>2023-07-30T14:30:20.000Z</time>
      </trkpt>
      <trkpt lat="43.72795" lon="1.45313">
        <ele>182.846375</ele>
        <time>2023-07-30T14:30:20.000Z</time>
      </trkpt>
      <trkpt lat="43.72794" lon="1.45309">
        <ele>182.846505</ele>
        <time>2023-07-30T14:30:21.000Z</time>
      </trkpt>
      <trkpt lat="43.72793" lon="1.45303">
        <ele>182.846724</ele>
        <time>2023-07-30T14:30:22.000Z</time>
      </trkpt>
      <trkpt lat="43.7279" lon="1.45289">
        <ele>182.847201</ele>
        <time>2023-07-30T14:30:22.000Z</time>
      </trkpt>
      <trkpt lat="43.7279" lon="1.45289">
        <ele>182.847201</ele>
        <time>2023-07-30T14:30:22.000Z</time>
      </trkpt>
      <trkpt lat="43.72788" lon="1.45282">
        <ele>182.847445</ele>
        <time>2023-07-30T14:30:25.000Z</time>
      </trkpt>
      <trkpt lat="43.72787" lon="1.45274">
        <ele>182.847726</ele>
        <time>2023-07-30T14:30:26.000Z</time>
      </trkpt>
      <trkpt lat="43.72786" lon="1.45268">
        <ele>182.847933</ele>
        <time>2023-07-30T14:30:27.000Z</time>
      </trkpt>
      <trkpt lat="43.72785" lon="1.45262">
        <ele>182.848105</ele>
        <time>2023-07-30T14:30:28.000Z</time>
      </trkpt>
      <trkpt lat="43.72784" lon="1.45259">
        <ele>182.848232</ele>
        <time>2023-07-30T14:30:29.000Z</time>
      </trkpt>
      <trkpt lat="43.72783" lon="1.45254">
        <ele>182.848385</ele>
        <time>2023-07-30T14:30:29.000Z</time>
      </trkpt>
      <trkpt lat="43.72782" lon="1.4525">
        <ele>182.84853</ele>
        <time>2023-07-30T14:30:31.000Z</time>
      </trkpt>
      <trkpt lat="43.72781" lon="1.45247">
        <ele>182.848653</ele>
        <time>2023-07-30T14:30:32.000Z</time>
      </trkpt>
      <trkpt lat="43.72781" lon="1.45247">
        <ele>182.848653</ele>
        <time>2023-07-30T14:30:32.000Z</time>
      </trkpt>
      <trkpt lat="43.72779" lon="1.45243">
        <ele>182.848792</ele>
        <time>2023-07-30T14:30:34.000Z</time>
      </trkpt>
      <trkpt lat="43.72778" lon="1.4524">
        <ele>182.848916</ele>
        <time>2023-07-30T14:30:35.000Z</time>
      </trkpt>
      <trkpt lat="43.72778" lon="1.4524">
        <ele>182.848916</ele>
        <time>2023-07-30T14:30:35.000Z</time>
      </trkpt>
      <trkpt lat="43.72777" lon="1.45235">
        <ele>182.849093</ele>
        <time>2023-07-30T14:30:37.000Z</time>
      </trkpt>
      <trkpt lat="43.72777" lon="1.45232">
        <ele>182.849179</ele>
        <time>2023-07-30T14:30:38.000Z</time>
      </trkpt>
      <trkpt lat="43.72777" lon="1.45229">
        <ele>182.849281</ele>
        <time>2023-07-30T14:30:39.000Z</time>
      </trkpt>
      <trkpt lat="43.72779" lon="1.45223">
        <ele>182.849474</ele>
        <time>2023-07-30T14:30:40.000Z</time>
      </trkpt>
      <trkpt lat="43.72782" lon="1.45214">
        <ele>182.849829</ele>
        <time>2023-07-30T14:30:42.000Z</time>
      </trkpt>
      <trkpt lat="43.72784" lon="1.45209">
        <ele>182.850015</ele>
        <time>2023-07-30T14:30:44.000Z</time>
      </trkpt>
      <trkpt lat="43.72786" lon="1.45204">
        <ele>182.850206</ele>
        <time>2023-07-30T14:30:45.000Z</time>
      </trkpt>
      <trkpt lat="43.72786" lon="1.45204">
        <ele>182.850206</ele>
        <time>2023-07-30T14:30:45.000Z</time>
      </trkpt>
      <trkpt lat="43.72791" lon="1.45192">
        <ele>182.850649</ele>
        <time>2023-07-30T14:30:46.000Z</time>
      </trkpt>
      <trkpt lat="43.72792" lon="1.45189">
        <ele>182.850777</ele>
        <time>2023-07-30T14:30:47.000Z</time>
      </trkpt>
      <trkpt lat="43.72794" lon="1.45184">
        <ele>182.850929</ele>
        <time>2023-07-30T14:30:49.000Z</time>
      </trkpt>
      <trkpt lat="43.72795" lon="1.4518">
        <ele>182.851079</ele>
        <time>2023-07-30T14:30:50.000Z</time>
      </trkpt>
      <trkpt lat="43.72796" lon="1.45174">
        <ele>182.851303</ele>
        <time>2023-07-30T14:30:51.000Z</time>
      </trkpt>
      <trkpt lat="43.72796" lon="1.45174">
        <ele>182.851303</ele>
        <time>2023-07-30T14:30:51.000Z</time>
      </trkpt>
      <trkpt lat="43.728" lon="1.45162">
        <ele>182.851731</ele>
        <time>2023-07-30T14:30:53.000Z</time>
      </trkpt>
      <trkpt lat="43.728" lon="1.45162">
        <ele>182.851731</ele>
        <time>2023-07-30T14:30:53.000Z</time>
      </trkpt>
      <trkpt lat="43.72801" lon="1.45157">
        <ele>182.851903</ele>
        <time>2023-07-30T14:30:54.000Z</time>
      </trkpt>
      <trkpt lat="43.72803" lon="1.45151">
        <ele>182.852107</ele>
        <time>2023-07-30T14:30:55.000Z</time>
      </trkpt>
      <trkpt lat="43.72803" lon="1.45151">
        <ele>182.852107</ele>
        <time>2023-07-30T14:30:55.000Z</time>
      </trkpt>
      <trkpt lat="43.72805" lon="1.45146">
        <ele>182.852313</ele>
        <time>2023-07-30T14:30:56.000Z</time>
      </trkpt>
      <trkpt lat="43.72807" lon="1.4514">
        <ele>182.852512</ele>
        <time>2023-07-30T14:30:57.000Z</time>
      </trkpt>
      <trkpt lat="43.72807" lon="1.4514">
        <ele>182.852512</ele>
        <time>2023-07-30T14:30:57.000Z</time>
      </trkpt>
      <trkpt lat="43.72809" lon="1.45135">
        <ele>182.852689</ele>
        <time>2023-07-30T14:30:59.000Z</time>
      </trkpt>
      <trkpt lat="43.7281" lon="1.4513">
        <ele>182.852881</ele>
        <time>2023-07-30T14:31:00.000Z</time>
      </trkpt>
      <trkpt lat="43.7281" lon="1.4513">
        <ele>182.852881</ele>
        <time>2023-07-30T14:31:00.000Z</time>
      </trkpt>
      <trkpt lat="43.72812" lon="1.45125">
        <ele>182.853068</ele>
        <time>2023-07-30T14:31:01.000Z</time>
      </trkpt>
      <trkpt lat="43.72816" lon="1.45114">
        <ele>182.849014</ele>
        <time>2023-07-30T14:31:03.000Z</time>
      </trkpt>
      <trkpt lat="43.7282" lon="1.45107">
        <ele>182.84363</ele>
        <time>2023-07-30T14:31:04.000Z</time>
      </trkpt>
      <trkpt lat="43.7282" lon="1.45107">
        <ele>182.84363</ele>
        <time>2023-07-30T14:31:04.000Z</time>
      </trkpt>
      <trkpt lat="43.72823" lon="1.45103">
        <ele>182.839416</ele>
        <time>2023-07-30T14:31:05.000Z</time>
      </trkpt>
      <trkpt lat="43.72828" lon="1.45099">
        <ele>182.835027</ele>
        <time>2023-07-30T14:31:07.000Z</time>
      </trkpt>
      <trkpt lat="43.72828" lon="1.45099">
        <ele>182.835027</ele>
        <time>2023-07-30T14:31:07.000Z</time>
      </trkpt>
      <trkpt lat="43.7283" lon="1.45096">
        <ele>182.831894</ele>
        <time>2023-07-30T14:31:07.000Z</time>
      </trkpt>
      <trkpt lat="43.7283" lon="1.45096">
        <ele>182.831894</ele>
        <time>2023-07-30T14:31:07.000Z</time>
      </trkpt>
      <trkpt lat="43.72834" lon="1.45092">
        <ele>182.827332</ele>
        <time>2023-07-30T14:31:09.000Z</time>
      </trkpt>
      <trkpt lat="43.72839" lon="1.45088">
        <ele>182.822512</ele>
        <time>2023-07-30T14:31:10.000Z</time>
      </trkpt>
      <trkpt lat="43.72841" lon="1.45085">
        <ele>182.819704</ele>
        <time>2023-07-30T14:31:11.000Z</time>
      </trkpt>
      <trkpt lat="43.72841" lon="1.45085">
        <ele>182.819704</ele>
        <time>2023-07-30T14:31:11.000Z</time>
      </trkpt>
      <trkpt lat="43.72845" lon="1.45074">
        <ele>182.812281</ele>
        <time>2023-07-30T14:31:13.000Z</time>
      </trkpt>
      <trkpt lat="43.72847" lon="1.4507">
        <ele>182.809263</ele>
        <time>2023-07-30T14:31:14.000Z</time>
      </trkpt>
      <trkpt lat="43.72847" lon="1.45064">
        <ele>182.805534</ele>
        <time>2023-07-30T14:31:15.000Z</time>
      </trkpt>
      <trkpt lat="43.72847" lon="1.4506">
        <ele>182.802982</ele>
        <time>2023-07-30T14:31:16.000Z</time>
      </trkpt>
      <trkpt lat="43.72847" lon="1.45055">
        <ele>182.799802</ele>
        <time>2023-07-30T14:31:17.000Z</time>
      </trkpt>
      <trkpt lat="43.72847" lon="1.45055">
        <ele>182.799802</ele>
        <time>2023-07-30T14:31:17.000Z</time>
      </trkpt>
      <trkpt lat="43.72848" lon="1.4505">
        <ele>182.796583</ele>
        <time>2023-07-30T14:31:19.000Z</time>
      </trkpt>
      <trkpt lat="43.7285" lon="1.45044">
        <ele>182.792363</ele>
        <time>2023-07-30T14:31:20.000Z</time>
      </trkpt>
      <trkpt lat="43.72852" lon="1.45038">
        <ele>182.788054</ele>
        <time>2023-07-30T14:31:21.000Z</time>
      </trkpt>
      <trkpt lat="43.72854" lon="1.45032">
        <ele>182.783982</ele>
        <time>2023-07-30T14:31:22.000Z</time>
      </trkpt>
      <trkpt lat="43.72856" lon="1.45027">
        <ele>182.780523</ele>
        <time>2023-07-30T14:31:23.000Z</time>
      </trkpt>
      <trkpt lat="43.72856" lon="1.45027">
        <ele>182.780523</ele>
        <time>2023-07-30T14:31:23.000Z</time>
      </trkpt>
      <trkpt lat="43.72858" lon="1.45022">
        <ele>182.776613</ele>
        <time>2023-07-30T14:31:24.000Z</time>
      </trkpt>
      <trkpt lat="43.7286" lon="1.45016">
        <ele>182.772437</ele>
        <time>2023-07-30T14:31:25.000Z</time>
      </trkpt>
      <trkpt lat="43.72864" lon="1.45004">
        <ele>182.764218</ele>
        <time>2023-07-30T14:31:27.000Z</time>
      </trkpt>
      <trkpt lat="43.72864" lon="1.45004">
        <ele>182.764218</ele>
        <time>2023-07-30T14:31:27.000Z</time>
      </trkpt>
      <trkpt lat="43.72867" lon="1.44998">
        <ele>182.759697</ele>
        <time>2023-07-30T14:31:28.000Z</time>
      </trkpt>
      <trkpt lat="43.72867" lon="1.44998">
        <ele>182.759697</ele>
        <time>2023-07-30T14:31:28.000Z</time>
      </trkpt>
      <trkpt lat="43.72869" lon="1.44992">
        <ele>182.755729</ele>
        <time>2023-07-30T14:31:29.000Z</time>
      </trkpt>
      <trkpt lat="43.72871" lon="1.44985">
        <ele>182.750489</ele>
        <time>2023-07-30T14:31:31.000Z</time>
      </trkpt>
      <trkpt lat="43.72871" lon="1.44985">
        <ele>182.750489</ele>
        <time>2023-07-30T14:31:31.000Z</time>
      </trkpt>
      <trkpt lat="43.72874" lon="1.44977">
        <ele>182.744871</ele>
        <time>2023-07-30T14:31:32.000Z</time>
      </trkpt>
      <trkpt lat="43.72874" lon="1.44977">
        <ele>182.744871</ele>
        <time>2023-07-30T14:31:32.000Z</time>
      </trkpt>
      <trkpt lat="43.72876" lon="1.44967">
        <ele>182.73836</ele>
        <time>2023-07-30T14:31:33.000Z</time>
      </trkpt>
      <trkpt lat="43.72879" lon="1.44957">
        <ele>182.731633</ele>
        <time>2023-07-30T14:31:34.000Z</time>
      </trkpt>
      <trkpt lat="43.72879" lon="1.44957">
        <ele>182.731633</ele>
        <time>2023-07-30T14:31:34.000Z</time>
      </trkpt>
      <trkpt lat="43.72882" lon="1.44947">
        <ele>182.724767</ele>
        <time>2023-07-30T14:31:35.000Z</time>
      </trkpt>
      <trkpt lat="43.72882" lon="1.44947">
        <ele>182.724767</ele>
        <time>2023-07-30T14:31:35.000Z</time>
      </trkpt>
      <trkpt lat="43.72885" lon="1.44934">
        <ele>182.716322</ele>
        <time>2023-07-30T14:31:36.000Z</time>
      </trkpt>
      <trkpt lat="43.72887" lon="1.44927">
        <ele>182.711561</ele>
        <time>2023-07-30T14:31:37.000Z</time>
      </trkpt>
      <trkpt lat="43.72889" lon="1.4492">
        <ele>182.706775</ele>
        <time>2023-07-30T14:31:38.000Z</time>
      </trkpt>
      <trkpt lat="43.72889" lon="1.4492">
        <ele>182.706775</ele>
        <time>2023-07-30T14:31:38.000Z</time>
      </trkpt>
      <trkpt lat="43.72891" lon="1.44914">
        <ele>182.702402</ele>
        <time>2023-07-30T14:31:39.000Z</time>
      </trkpt>
      <trkpt lat="43.72891" lon="1.44914">
        <ele>182.702402</ele>
        <time>2023-07-30T14:31:39.000Z</time>
      </trkpt>
      <trkpt lat="43.72893" lon="1.44907">
        <ele>182.697484</ele>
        <time>2023-07-30T14:31:40.000Z</time>
      </trkpt>
      <trkpt lat="43.72896" lon="1.44901">
        <ele>182.553711</ele>
        <time>2023-07-30T14:31:41.000Z</time>
      </trkpt>
      <trkpt lat="43.72898" lon="1.44898">
        <ele>182.412016</ele>
        <time>2023-07-30T14:31:42.000Z</time>
      </trkpt>
      <trkpt lat="43.72898" lon="1.44898">
        <ele>182.412016</ele>
        <time>2023-07-30T14:31:42.000Z</time>
      </trkpt>
      <trkpt lat="43.72899" lon="1.44895">
        <ele>182.264714</ele>
        <time>2023-07-30T14:31:43.000Z</time>
      </trkpt>
      <trkpt lat="43.72901" lon="1.44891">
        <ele>182.094686</ele>
        <time>2023-07-30T14:31:45.000Z</time>
      </trkpt>
      <trkpt lat="43.72901" lon="1.44891">
        <ele>182.094686</ele>
        <time>2023-07-30T14:31:45.000Z</time>
      </trkpt>
      <trkpt lat="43.72902" lon="1.44888">
        <ele>181.984637</ele>
        <time>2023-07-30T14:31:46.000Z</time>
      </trkpt>
      <trkpt lat="43.72904" lon="1.44885">
        <ele>181.845593</ele>
        <time>2023-07-30T14:31:47.000Z</time>
      </trkpt>
      <trkpt lat="43.72904" lon="1.44885">
        <ele>181.845593</ele>
        <time>2023-07-30T14:31:47.000Z</time>
      </trkpt>
      <trkpt lat="43.72907" lon="1.44882">
        <ele>181.673144</ele>
        <time>2023-07-30T14:31:48.000Z</time>
      </trkpt>
      <trkpt lat="43.7291" lon="1.44879">
        <ele>181.493265</ele>
        <time>2023-07-30T14:31:49.000Z</time>
      </trkpt>
      <trkpt lat="43.72912" lon="1.44876">
        <ele>181.335447</ele>
        <time>2023-07-30T14:31:50.000Z</time>
      </trkpt>
      <trkpt lat="43.72912" lon="1.44876">
        <ele>181.335447</ele>
        <time>2023-07-30T14:31:50.000Z</time>
      </trkpt>
      <trkpt lat="43.72916" lon="1.44872">
        <ele>181.07864</ele>
        <time>2023-07-30T14:31:51.000Z</time>
      </trkpt>
      <trkpt lat="43.72918" lon="1.44869">
        <ele>180.949768</ele>
        <time>2023-07-30T14:31:53.000Z</time>
      </trkpt>
      <trkpt lat="43.7292" lon="1.44868">
        <ele>180.856675</ele>
        <time>2023-07-30T14:31:54.000Z</time>
      </trkpt>
      <trkpt lat="43.72921" lon="1.44866">
        <ele>180.772352</ele>
        <time>2023-07-30T14:31:55.000Z</time>
      </trkpt>
      <trkpt lat="43.72921" lon="1.44863">
        <ele>180.657</ele>
        <time>2023-07-30T14:31:56.000Z</time>
      </trkpt>
      <trkpt lat="43.72921" lon="1.44857">
        <ele>180.457118</ele>
        <time>2023-07-30T14:31:57.000Z</time>
      </trkpt>
      <trkpt lat="43.7292" lon="1.44851">
        <ele>180.247383</ele>
        <time>2023-07-30T14:31:58.000Z</time>
      </trkpt>
      <trkpt lat="43.72918" lon="1.44843">
        <ele>179.958372</ele>
        <time>2023-07-30T14:32:00.000Z</time>
      </trkpt>
      <trkpt lat="43.72917" lon="1.44837">
        <ele>179.714398</ele>
        <time>2023-07-30T14:32:01.000Z</time>
      </trkpt>
      <trkpt lat="43.72917" lon="1.44837">
        <ele>179.714398</ele>
        <time>2023-07-30T14:32:01.000Z</time>
      </trkpt>
      <trkpt lat="43.72916" lon="1.4483">
        <ele>179.472658</ele>
        <time>2023-07-30T14:32:02.000Z</time>
      </trkpt>
      <trkpt lat="43.72915" lon="1.44821">
        <ele>179.148045</ele>
        <time>2023-07-30T14:32:03.000Z</time>
      </trkpt>
      <trkpt lat="43.72915" lon="1.44818">
        <ele>179.034381</ele>
        <time>2023-07-30T14:32:04.000Z</time>
      </trkpt>
      <trkpt lat="43.72915" lon="1.44818">
        <ele>179.034381</ele>
        <time>2023-07-30T14:32:04.000Z</time>
      </trkpt>
      <trkpt lat="43.72915" lon="1.44805">
        <ele>178.565516</ele>
        <time>2023-07-30T14:32:06.000Z</time>
      </trkpt>
      <trkpt lat="43.72915" lon="1.44805">
        <ele>178.565516</ele>
        <time>2023-07-30T14:32:06.000Z</time>
      </trkpt>
      <trkpt lat="43.72913" lon="1.44798">
        <ele>178.328389</ele>
        <time>2023-07-30T14:32:07.000Z</time>
      </trkpt>
      <trkpt lat="43.72913" lon="1.44798">
        <ele>178.328389</ele>
        <time>2023-07-30T14:32:07.000Z</time>
      </trkpt>
      <trkpt lat="43.72913" lon="1.44792">
        <ele>178.111671</ele>
        <time>2023-07-30T14:32:08.000Z</time>
      </trkpt>
      <trkpt lat="43.72913" lon="1.44792">
        <ele>178.111671</ele>
        <time>2023-07-30T14:32:08.000Z</time>
      </trkpt>
      <trkpt lat="43.72912" lon="1.44786">
        <ele>177.89524</ele>
        <time>2023-07-30T14:32:09.000Z</time>
      </trkpt>
      <trkpt lat="43.72912" lon="1.44786">
        <ele>177.89524</ele>
        <time>2023-07-30T14:32:09.000Z</time>
      </trkpt>
      <trkpt lat="43.7291" lon="1.44781">
        <ele>177.68286</ele>
        <time>2023-07-30T14:32:10.000Z</time>
      </trkpt>
      <trkpt lat="43.7291" lon="1.44781">
        <ele>177.68286</ele>
        <time>2023-07-30T14:32:10.000Z</time>
      </trkpt>
      <trkpt lat="43.72908" lon="1.44775">
        <ele>177.453423</ele>
        <time>2023-07-30T14:32:11.000Z</time>
      </trkpt>
      <trkpt lat="43.72908" lon="1.44775">
        <ele>177.453423</ele>
        <time>2023-07-30T14:32:11.000Z</time>
      </trkpt>
      <trkpt lat="43.72906" lon="1.4477">
        <ele>177.252763</ele>
        <time>2023-07-30T14:32:13.000Z</time>
      </trkpt>
      <trkpt lat="43.72906" lon="1.4477">
        <ele>177.252763</ele>
        <time>2023-07-30T14:32:13.000Z</time>
      </trkpt>
      <trkpt lat="43.72905" lon="1.44766">
        <ele>177.104056</ele>
        <time>2023-07-30T14:32:14.000Z</time>
      </trkpt>
      <trkpt lat="43.72905" lon="1.44766">
        <ele>177.104056</ele>
        <time>2023-07-30T14:32:14.000Z</time>
      </trkpt>
      <trkpt lat="43.72903" lon="1.44762">
        <ele>176.934028</ele>
        <time>2023-07-30T14:32:15.000Z</time>
      </trkpt>
      <trkpt lat="43.72903" lon="1.44762">
        <ele>176.934028</ele>
        <time>2023-07-30T14:32:15.000Z</time>
      </trkpt>
      <trkpt lat="43.72901" lon="1.44759">
        <ele>176.775681</ele>
        <time>2023-07-30T14:32:16.000Z</time>
      </trkpt>
      <trkpt lat="43.72901" lon="1.44759">
        <ele>176.775681</ele>
        <time>2023-07-30T14:32:16.000Z</time>
      </trkpt>
      <trkpt lat="43.72899" lon="1.44756">
        <ele>176.644336</ele>
        <time>2023-07-30T14:32:17.000Z</time>
      </trkpt>
      <trkpt lat="43.72899" lon="1.44756">
        <ele>176.644336</ele>
        <time>2023-07-30T14:32:17.000Z</time>
      </trkpt>
      <trkpt lat="43.72897" lon="1.44753">
        <ele>176.523033</ele>
        <time>2023-07-30T14:32:18.000Z</time>
      </trkpt>
      <trkpt lat="43.72897" lon="1.44753">
        <ele>176.523033</ele>
        <time>2023-07-30T14:32:18.000Z</time>
      </trkpt>
      <trkpt lat="43.72894" lon="1.44748">
        <ele>176.255301</ele>
        <time>2023-07-30T14:32:20.000Z</time>
      </trkpt>
      <trkpt lat="43.72894" lon="1.44748">
        <ele>176.255301</ele>
        <time>2023-07-30T14:32:20.000Z</time>
      </trkpt>
      <trkpt lat="43.72892" lon="1.44744">
        <ele>176.092067</ele>
        <time>2023-07-30T14:32:22.000Z</time>
      </trkpt>
      <trkpt lat="43.72892" lon="1.44744">
        <ele>176.092067</ele>
        <time>2023-07-30T14:32:22.000Z</time>
      </trkpt>
      <trkpt lat="43.72891" lon="1.4474">
        <ele>175.946663</ele>
        <time>2023-07-30T14:32:23.000Z</time>
      </trkpt>
      <trkpt lat="43.72891" lon="1.4474">
        <ele>175.946663</ele>
        <time>2023-07-30T14:32:23.000Z</time>
      </trkpt>
      <trkpt lat="43.7289" lon="1.44736">
        <ele>175.78624</ele>
        <time>2023-07-30T14:32:24.000Z</time>
      </trkpt>
      <trkpt lat="43.7289" lon="1.44736">
        <ele>175.78624</ele>
        <time>2023-07-30T14:32:24.000Z</time>
      </trkpt>
      <trkpt lat="43.72888" lon="1.4473">
        <ele>175.54703</ele>
        <time>2023-07-30T14:32:25.000Z</time>
      </trkpt>
      <trkpt lat="43.72888" lon="1.4473">
        <ele>175.54703</ele>
        <time>2023-07-30T14:32:25.000Z</time>
      </trkpt>
      <trkpt lat="43.72888" lon="1.4473">
        <ele>175.54703</ele>
        <time>2023-07-30T14:32:26.000Z</time>
      </trkpt>
      <trkpt lat="43.72883" lon="1.44713">
        <ele>174.898373</ele>
        <time>2023-07-30T14:32:27.000Z</time>
      </trkpt>
      <trkpt lat="43.72883" lon="1.44713">
        <ele>174.898373</ele>
        <time>2023-07-30T14:32:27.000Z</time>
      </trkpt>
      <trkpt lat="43.72883" lon="1.44713">
        <ele>174.898373</ele>
        <time>2023-07-30T14:32:29.000Z</time>
      </trkpt>
      <trkpt lat="43.72883" lon="1.44713">
        <ele>174.898373</ele>
        <time>2023-07-30T14:32:33.000Z</time>
      </trkpt>
      <trkpt lat="43.72883" lon="1.44713">
        <ele>174.898373</ele>
        <time>2023-07-30T14:32:34.000Z</time>
      </trkpt>
      <trkpt lat="43.72878" lon="1.44697">
        <ele>174.289282</ele>
        <time>2023-07-30T14:32:36.000Z</time>
      </trkpt>
      <trkpt lat="43.72878" lon="1.44697">
        <ele>174.289282</ele>
        <time>2023-07-30T14:32:36.000Z</time>
      </trkpt>
      <trkpt lat="43.72878" lon="1.44697">
        <ele>174.289282</ele>
        <time>2023-07-30T14:32:37.000Z</time>
      </trkpt>
      <trkpt lat="43.72877" lon="1.44696">
        <ele>174.233848</ele>
        <time>2023-07-30T14:32:38.000Z</time>
      </trkpt>
      <trkpt lat="43.72877" lon="1.44695">
        <ele>174.194775</ele>
        <time>2023-07-30T14:32:38.000Z</time>
      </trkpt>
      <trkpt lat="43.72877" lon="1.44695">
        <ele>174.194775</ele>
        <time>2023-07-30T14:32:38.000Z</time>
      </trkpt>
      <trkpt lat="43.72876" lon="1.44694">
        <ele>174.139492</ele>
        <time>2023-07-30T14:32:41.000Z</time>
      </trkpt>
      <trkpt lat="43.72876" lon="1.44694">
        <ele>174.139492</ele>
        <time>2023-07-30T14:32:41.000Z</time>
      </trkpt>
      <trkpt lat="43.72876" lon="1.44693">
        <ele>174.128836</ele>
        <time>2023-07-30T14:32:42.000Z</time>
      </trkpt>
      <trkpt lat="43.72877" lon="1.44691">
        <ele>174.056281</ele>
        <time>2023-07-30T14:32:44.000Z</time>
      </trkpt>
      <trkpt lat="43.72877" lon="1.44691">
        <ele>174.056281</ele>
        <time>2023-07-30T14:32:44.000Z</time>
      </trkpt>
      <trkpt lat="43.72878" lon="1.4469">
        <ele>173.969291</ele>
        <time>2023-07-30T14:32:45.000Z</time>
      </trkpt>
      <trkpt lat="43.72878" lon="1.4469">
        <ele>173.969291</ele>
        <time>2023-07-30T14:32:45.000Z</time>
      </trkpt>
      <trkpt lat="43.72879" lon="1.44683">
        <ele>173.932315</ele>
        <time>2023-07-30T14:32:47.000Z</time>
      </trkpt>
      <trkpt lat="43.72879" lon="1.44681">
        <ele>173.996401</ele>
        <time>2023-07-30T14:32:48.000Z</time>
      </trkpt>
      <trkpt lat="43.72879" lon="1.44681">
        <ele>173.996401</ele>
        <time>2023-07-30T14:32:48.000Z</time>
      </trkpt>
      <trkpt lat="43.72879" lon="1.4468">
        <ele>174.013655</ele>
        <time>2023-07-30T14:32:49.000Z</time>
      </trkpt>
      <trkpt lat="43.72878" lon="1.44678">
        <ele>174.07369</ele>
        <time>2023-07-30T14:32:50.000Z</time>
      </trkpt>
      <trkpt lat="43.72878" lon="1.44677">
        <ele>174.090944</ele>
        <time>2023-07-30T14:32:52.000Z</time>
      </trkpt>
      <trkpt lat="43.72878" lon="1.44677">
        <ele>174.090944</ele>
        <time>2023-07-30T14:32:52.000Z</time>
      </trkpt>
      <trkpt lat="43.72878" lon="1.44676">
        <ele>174.121297</ele>
        <time>2023-07-30T14:32:53.000Z</time>
      </trkpt>
      <trkpt lat="43.72878" lon="1.44676">
        <ele>174.121297</ele>
        <time>2023-07-30T14:32:53.000Z</time>
      </trkpt>
      <trkpt lat="43.72878" lon="1.44675">
        <ele>174.136816</ele>
        <time>2023-07-30T14:32:54.000Z</time>
      </trkpt>
      <trkpt lat="43.72876" lon="1.44673">
        <ele>174.198767</ele>
        <time>2023-07-30T14:32:55.000Z</time>
      </trkpt>
      <trkpt lat="43.72876" lon="1.44673">
        <ele>174.198767</ele>
        <time>2023-07-30T14:32:55.000Z</time>
      </trkpt>
      <trkpt lat="43.72876" lon="1.44671">
        <ele>174.261685</ele>
        <time>2023-07-30T14:32:57.000Z</time>
      </trkpt>
      <trkpt lat="43.72876" lon="1.44671">
        <ele>174.261685</ele>
        <time>2023-07-30T14:32:57.000Z</time>
      </trkpt>
      <trkpt lat="43.72876" lon="1.4467">
        <ele>174.288798</ele>
        <time>2023-07-30T14:32:58.000Z</time>
      </trkpt>
      <trkpt lat="43.72876" lon="1.4467">
        <ele>174.288798</ele>
        <time>2023-07-30T14:32:58.000Z</time>
      </trkpt>
      <trkpt lat="43.72875" lon="1.44668">
        <ele>174.343</ele>
        <time>2023-07-30T14:32:58.000Z</time>
      </trkpt>
      <trkpt lat="43.72875" lon="1.44668">
        <ele>174.343</ele>
        <time>2023-07-30T14:32:58.000Z</time>
      </trkpt>
      <trkpt lat="43.72874" lon="1.44665">
        <ele>174.42373</ele>
        <time>2023-07-30T14:33:00.000Z</time>
      </trkpt>
      <trkpt lat="43.72874" lon="1.44665">
        <ele>174.42373</ele>
        <time>2023-07-30T14:33:00.000Z</time>
      </trkpt>
      <trkpt lat="43.72871" lon="1.44661">
        <ele>174.566011</ele>
        <time>2023-07-30T14:33:02.000Z</time>
      </trkpt>
      <trkpt lat="43.72871" lon="1.44661">
        <ele>174.566011</ele>
        <time>2023-07-30T14:33:02.000Z</time>
      </trkpt>
      <trkpt lat="43.7287" lon="1.4466">
        <ele>174.604024</ele>
        <time>2023-07-30T14:33:03.000Z</time>
      </trkpt>
      <trkpt lat="43.7287" lon="1.4466">
        <ele>174.604024</ele>
        <time>2023-07-30T14:33:03.000Z</time>
      </trkpt>
      <trkpt lat="43.72867" lon="1.44653">
        <ele>174.793936</ele>
        <time>2023-07-30T14:33:04.000Z</time>
      </trkpt>
      <trkpt lat="43.72867" lon="1.44653">
        <ele>174.793936</ele>
        <time>2023-07-30T14:33:04.000Z</time>
      </trkpt>
      <trkpt lat="43.72866" lon="1.44652">
        <ele>174.850182</ele>
        <time>2023-07-30T14:33:05.000Z</time>
      </trkpt>
      <trkpt lat="43.72866" lon="1.44652">
        <ele>174.850182</ele>
        <time>2023-07-30T14:33:05.000Z</time>
      </trkpt>
      <trkpt lat="43.72865" lon="1.4465">
        <ele>174.908759</ele>
        <time>2023-07-30T14:33:07.000Z</time>
      </trkpt>
      <trkpt lat="43.72865" lon="1.4465">
        <ele>174.908759</ele>
        <time>2023-07-30T14:33:07.000Z</time>
      </trkpt>
      <trkpt lat="43.7286" lon="1.44644">
        <ele>175.117738</ele>
        <time>2023-07-30T14:33:08.000Z</time>
      </trkpt>
      <trkpt lat="43.7286" lon="1.44644">
        <ele>175.117738</ele>
        <time>2023-07-30T14:33:08.000Z</time>
      </trkpt>
      <trkpt lat="43.72858" lon="1.44641">
        <ele>175.230114</ele>
        <time>2023-07-30T14:33:10.000Z</time>
      </trkpt>
      <trkpt lat="43.72858" lon="1.44641">
        <ele>175.230114</ele>
        <time>2023-07-30T14:33:10.000Z</time>
      </trkpt>
      <trkpt lat="43.72856" lon="1.44639">
        <ele>175.314617</ele>
        <time>2023-07-30T14:33:10.000Z</time>
      </trkpt>
      <trkpt lat="43.72856" lon="1.44639">
        <ele>175.314617</ele>
        <time>2023-07-30T14:33:10.000Z</time>
      </trkpt>
      <trkpt lat="43.72852" lon="1.44635">
        <ele>175.479264</ele>
        <time>2023-07-30T14:33:13.000Z</time>
      </trkpt>
      <trkpt lat="43.72852" lon="1.44635">
        <ele>175.479264</ele>
        <time>2023-07-30T14:33:13.000Z</time>
      </trkpt>
      <trkpt lat="43.7285" lon="1.44632">
        <ele>175.583753</ele>
        <time>2023-07-30T14:33:13.000Z</time>
      </trkpt>
      <trkpt lat="43.7285" lon="1.44632">
        <ele>175.583753</ele>
        <time>2023-07-30T14:33:13.000Z</time>
      </trkpt>
      <trkpt lat="43.72848" lon="1.44628">
        <ele>175.700361</ele>
        <time>2023-07-30T14:33:15.000Z</time>
      </trkpt>
      <trkpt lat="43.72848" lon="1.44628">
        <ele>175.700361</ele>
        <time>2023-07-30T14:33:15.000Z</time>
      </trkpt>
      <trkpt lat="43.72847" lon="1.44627">
        <ele>175.748139</ele>
        <time>2023-07-30T14:33:15.000Z</time>
      </trkpt>
      <trkpt lat="43.72847" lon="1.44627">
        <ele>175.748139</ele>
        <time>2023-07-30T14:33:15.000Z</time>
      </trkpt>
      <trkpt lat="43.72846" lon="1.44625">
        <ele>175.798143</ele>
        <time>2023-07-30T14:33:17.000Z</time>
      </trkpt>
      <trkpt lat="43.72846" lon="1.44625">
        <ele>175.798143</ele>
        <time>2023-07-30T14:33:17.000Z</time>
      </trkpt>
      <trkpt lat="43.72844" lon="1.44623">
        <ele>175.881086</ele>
        <time>2023-07-30T14:33:19.000Z</time>
      </trkpt>
      <trkpt lat="43.72844" lon="1.44623">
        <ele>175.881086</ele>
        <time>2023-07-30T14:33:19.000Z</time>
      </trkpt>
      <trkpt lat="43.72842" lon="1.4462">
        <ele>175.98722</ele>
        <time>2023-07-30T14:33:20.000Z</time>
      </trkpt>
      <trkpt lat="43.72842" lon="1.4462">
        <ele>175.98722</ele>
        <time>2023-07-30T14:33:20.000Z</time>
      </trkpt>
      <trkpt lat="43.7284" lon="1.44617">
        <ele>176.089649</ele>
        <time>2023-07-30T14:33:21.000Z</time>
      </trkpt>
      <trkpt lat="43.7284" lon="1.44617">
        <ele>176.089649</ele>
        <time>2023-07-30T14:33:21.000Z</time>
      </trkpt>
      <trkpt lat="43.72839" lon="1.44611">
        <ele>176.246142</ele>
        <time>2023-07-30T14:33:23.000Z</time>
      </trkpt>
      <trkpt lat="43.72839" lon="1.44611">
        <ele>176.246142</ele>
        <time>2023-07-30T14:33:23.000Z</time>
      </trkpt>
      <trkpt lat="43.72838" lon="1.44608">
        <ele>176.311289</ele>
        <time>2023-07-30T14:33:24.000Z</time>
      </trkpt>
      <trkpt lat="43.72838" lon="1.44608">
        <ele>176.311289</ele>
        <time>2023-07-30T14:33:24.000Z</time>
      </trkpt>
      <trkpt lat="43.72836" lon="1.44602">
        <ele>176.477285</ele>
        <time>2023-07-30T14:33:25.000Z</time>
      </trkpt>
      <trkpt lat="43.72836" lon="1.44602">
        <ele>176.477285</ele>
        <time>2023-07-30T14:33:25.000Z</time>
      </trkpt>
      <trkpt lat="43.72836" lon="1.446">
        <ele>176.542808</ele>
        <time>2023-07-30T14:33:27.000Z</time>
      </trkpt>
      <trkpt lat="43.72836" lon="1.446">
        <ele>176.542808</ele>
        <time>2023-07-30T14:33:27.000Z</time>
      </trkpt>
      <trkpt lat="43.72834" lon="1.44597">
        <ele>176.626754</ele>
        <time>2023-07-30T14:33:28.000Z</time>
      </trkpt>
      <trkpt lat="43.72834" lon="1.44597">
        <ele>176.626754</ele>
        <time>2023-07-30T14:33:28.000Z</time>
      </trkpt>
      <trkpt lat="43.72833" lon="1.44595">
        <ele>176.697804</ele>
        <time>2023-07-30T14:33:29.000Z</time>
      </trkpt>
      <trkpt lat="43.72833" lon="1.44595">
        <ele>176.697804</ele>
        <time>2023-07-30T14:33:29.000Z</time>
      </trkpt>
      <trkpt lat="43.7283" lon="1.44591">
        <ele>176.840086</ele>
        <time>2023-07-30T14:33:30.000Z</time>
      </trkpt>
      <trkpt lat="43.7283" lon="1.44591">
        <ele>176.840086</ele>
        <time>2023-07-30T14:33:30.000Z</time>
      </trkpt>
      <trkpt lat="43.72828" lon="1.44587">
        <ele>176.946814</ele>
        <time>2023-07-30T14:33:31.000Z</time>
      </trkpt>
      <trkpt lat="43.72828" lon="1.44587">
        <ele>176.946814</ele>
        <time>2023-07-30T14:33:31.000Z</time>
      </trkpt>
      <trkpt lat="43.72826" lon="1.44582">
        <ele>177.092889</ele>
        <time>2023-07-30T14:33:33.000Z</time>
      </trkpt>
      <trkpt lat="43.72826" lon="1.44582">
        <ele>177.092889</ele>
        <time>2023-07-30T14:33:33.000Z</time>
      </trkpt>
      <trkpt lat="43.72824" lon="1.44579">
        <ele>177.191216</ele>
        <time>2023-07-30T14:33:34.000Z</time>
      </trkpt>
      <trkpt lat="43.72824" lon="1.44579">
        <ele>177.191216</ele>
        <time>2023-07-30T14:33:34.000Z</time>
      </trkpt>
      <trkpt lat="43.72822" lon="1.44576">
        <ele>177.275162</ele>
        <time>2023-07-30T14:33:35.000Z</time>
      </trkpt>
      <trkpt lat="43.72822" lon="1.44576">
        <ele>177.275162</ele>
        <time>2023-07-30T14:33:35.000Z</time>
      </trkpt>
      <trkpt lat="43.7282" lon="1.44574">
        <ele>177.371955</ele>
        <time>2023-07-30T14:33:35.000Z</time>
      </trkpt>
      <trkpt lat="43.7282" lon="1.44574">
        <ele>177.371955</ele>
        <time>2023-07-30T14:33:35.000Z</time>
      </trkpt>
      <trkpt lat="43.72814" lon="1.44569">
        <ele>177.607578</ele>
        <time>2023-07-30T14:33:37.000Z</time>
      </trkpt>
      <trkpt lat="43.72814" lon="1.44569">
        <ele>177.607578</ele>
        <time>2023-07-30T14:33:37.000Z</time>
      </trkpt>
      <trkpt lat="43.7281" lon="1.44566">
        <ele>177.756805</ele>
        <time>2023-07-30T14:33:39.000Z</time>
      </trkpt>
      <trkpt lat="43.72808" lon="1.44564">
        <ele>177.846935</ele>
        <time>2023-07-30T14:33:40.000Z</time>
      </trkpt>
      <trkpt lat="43.72808" lon="1.44564">
        <ele>177.846935</ele>
        <time>2023-07-30T14:33:40.000Z</time>
      </trkpt>
      <trkpt lat="43.72804" lon="1.44561">
        <ele>177.990455</ele>
        <time>2023-07-30T14:33:41.000Z</time>
      </trkpt>
      <trkpt lat="43.72804" lon="1.44561">
        <ele>177.990455</ele>
        <time>2023-07-30T14:33:41.000Z</time>
      </trkpt>
      <trkpt lat="43.728" lon="1.44559">
        <ele>178.137063</ele>
        <time>2023-07-30T14:33:43.000Z</time>
      </trkpt>
      <trkpt lat="43.728" lon="1.44559">
        <ele>178.137063</ele>
        <time>2023-07-30T14:33:43.000Z</time>
      </trkpt>
      <trkpt lat="43.72797" lon="1.44557">
        <ele>178.266151</ele>
        <time>2023-07-30T14:33:44.000Z</time>
      </trkpt>
      <trkpt lat="43.72797" lon="1.44557">
        <ele>178.266151</ele>
        <time>2023-07-30T14:33:44.000Z</time>
      </trkpt>
      <trkpt lat="43.72788" lon="1.44551">
        <ele>178.622349</ele>
        <time>2023-07-30T14:33:45.000Z</time>
      </trkpt>
      <trkpt lat="43.72784" lon="1.44548">
        <ele>178.741184</ele>
        <time>2023-07-30T14:33:46.000Z</time>
      </trkpt>
      <trkpt lat="43.72781" lon="1.44545">
        <ele>178.867436</ele>
        <time>2023-07-30T14:33:48.000Z</time>
      </trkpt>
      <trkpt lat="43.7278" lon="1.44542">
        <ele>178.963353</ele>
        <time>2023-07-30T14:33:49.000Z</time>
      </trkpt>
      <trkpt lat="43.72778" lon="1.44534">
        <ele>179.177959</ele>
        <time>2023-07-30T14:33:50.000Z</time>
      </trkpt>
      <trkpt lat="43.72777" lon="1.44529">
        <ele>179.295053</ele>
        <time>2023-07-30T14:33:51.000Z</time>
      </trkpt>
      <trkpt lat="43.72776" lon="1.44524">
        <ele>179.428512</ele>
        <time>2023-07-30T14:33:53.000Z</time>
      </trkpt>
      <trkpt lat="43.72775" lon="1.4452">
        <ele>179.529957</ele>
        <time>2023-07-30T14:33:54.000Z</time>
      </trkpt>
      <trkpt lat="43.72774" lon="1.44517">
        <ele>179.632042</ele>
        <time>2023-07-30T14:33:56.000Z</time>
      </trkpt>
      <trkpt lat="43.72774" lon="1.44514">
        <ele>179.696129</ele>
        <time>2023-07-30T14:33:57.000Z</time>
      </trkpt>
      <trkpt lat="43.72772" lon="1.44511">
        <ele>179.798083</ele>
        <time>2023-07-30T14:33:57.000Z</time>
      </trkpt>
      <trkpt lat="43.72772" lon="1.44511">
        <ele>179.798083</ele>
        <time>2023-07-30T14:33:57.000Z</time>
      </trkpt>
      <trkpt lat="43.72769" lon="1.44509">
        <ele>179.892074</ele>
        <time>2023-07-30T14:33:59.000Z</time>
      </trkpt>
      <trkpt lat="43.72767" lon="1.44507">
        <ele>179.990561</ele>
        <time>2023-07-30T14:34:00.000Z</time>
      </trkpt>
      <trkpt lat="43.72765" lon="1.44506">
        <ele>179.999898</ele>
        <time>2023-07-30T14:34:01.000Z</time>
      </trkpt>
      <trkpt lat="43.72765" lon="1.44506">
        <ele>179.999898</ele>
        <time>2023-07-30T14:34:01.000Z</time>
      </trkpt>
      <trkpt lat="43.72762" lon="1.44504">
        <ele>180.010623</ele>
        <time>2023-07-30T14:34:03.000Z</time>
      </trkpt>
      <trkpt lat="43.72762" lon="1.44504">
        <ele>180.010623</ele>
        <time>2023-07-30T14:34:03.000Z</time>
      </trkpt>
      <trkpt lat="43.72762" lon="1.44504">
        <ele>180.014663</ele>
        <time>2023-07-30T14:34:04.000Z</time>
      </trkpt>
      <trkpt lat="43.72758" lon="1.44502">
        <ele>180.029992</ele>
        <time>2023-07-30T14:34:05.000Z</time>
      </trkpt>
      <trkpt lat="43.72758" lon="1.44502">
        <ele>180.029992</ele>
        <time>2023-07-30T14:34:05.000Z</time>
      </trkpt>
      <trkpt lat="43.72754" lon="1.44501">
        <ele>180.048431</ele>
        <time>2023-07-30T14:34:06.000Z</time>
      </trkpt>
      <trkpt lat="43.72754" lon="1.44501">
        <ele>180.048431</ele>
        <time>2023-07-30T14:34:06.000Z</time>
      </trkpt>
      <trkpt lat="43.72751" lon="1.445">
        <ele>180.060156</ele>
        <time>2023-07-30T14:34:06.000Z</time>
      </trkpt>
      <trkpt lat="43.72751" lon="1.445">
        <ele>180.060156</ele>
        <time>2023-07-30T14:34:06.000Z</time>
      </trkpt>
      <trkpt lat="43.72749" lon="1.445">
        <ele>180.068319</ele>
        <time>2023-07-30T14:34:08.000Z</time>
      </trkpt>
      <trkpt lat="43.72749" lon="1.445">
        <ele>180.068319</ele>
        <time>2023-07-30T14:34:08.000Z</time>
      </trkpt>
      <trkpt lat="43.72746" lon="1.44501">
        <ele>180.08489</ele>
        <time>2023-07-30T14:34:10.000Z</time>
      </trkpt>
      <trkpt lat="43.72746" lon="1.44501">
        <ele>180.08489</ele>
        <time>2023-07-30T14:34:10.000Z</time>
      </trkpt>
      <trkpt lat="43.72743" lon="1.44501">
        <ele>180.097728</ele>
        <time>2023-07-30T14:34:11.000Z</time>
      </trkpt>
      <trkpt lat="43.72739" lon="1.44502">
        <ele>180.11287</ele>
        <time>2023-07-30T14:34:12.000Z</time>
      </trkpt>
      <trkpt lat="43.72739" lon="1.44502">
        <ele>180.11287</ele>
        <time>2023-07-30T14:34:12.000Z</time>
      </trkpt>
      <trkpt lat="43.72735" lon="1.44502">
        <ele>180.132166</ele>
        <time>2023-07-30T14:34:12.000Z</time>
      </trkpt>
      <trkpt lat="43.7273" lon="1.44503">
        <ele>180.153564</ele>
        <time>2023-07-30T14:34:14.000Z</time>
      </trkpt>
      <trkpt lat="43.7273" lon="1.44503">
        <ele>180.153564</ele>
        <time>2023-07-30T14:34:14.000Z</time>
      </trkpt>
      <trkpt lat="43.72724" lon="1.44503">
        <ele>180.177924</ele>
        <time>2023-07-30T14:34:15.000Z</time>
      </trkpt>
      <trkpt lat="43.72724" lon="1.44503">
        <ele>180.177924</ele>
        <time>2023-07-30T14:34:15.000Z</time>
      </trkpt>
      <trkpt lat="43.7272" lon="1.44502">
        <ele>180.195875</ele>
        <time>2023-07-30T14:34:17.000Z</time>
      </trkpt>
      <trkpt lat="43.72717" lon="1.44501">
        <ele>180.209335</ele>
        <time>2023-07-30T14:34:17.000Z</time>
      </trkpt>
      <trkpt lat="43.72717" lon="1.44501">
        <ele>180.209335</ele>
        <time>2023-07-30T14:34:17.000Z</time>
      </trkpt>
      <trkpt lat="43.72713" lon="1.445">
        <ele>180.224874</ele>
        <time>2023-07-30T14:34:20.000Z</time>
      </trkpt>
      <trkpt lat="43.72713" lon="1.445">
        <ele>180.224874</ele>
        <time>2023-07-30T14:34:20.000Z</time>
      </trkpt>
      <trkpt lat="43.72712" lon="1.44493">
        <ele>180.244969</ele>
        <time>2023-07-30T14:34:21.000Z</time>
      </trkpt>
      <trkpt lat="43.72711" lon="1.44484">
        <ele>180.274341</ele>
        <time>2023-07-30T14:34:23.000Z</time>
      </trkpt>
      <trkpt lat="43.72711" lon="1.44484">
        <ele>180.274341</ele>
        <time>2023-07-30T14:34:23.000Z</time>
      </trkpt>
      <trkpt lat="43.7271" lon="1.44475">
        <ele>180.301231</ele>
        <time>2023-07-30T14:34:23.000Z</time>
      </trkpt>
      <trkpt lat="43.7271" lon="1.44475">
        <ele>180.301231</ele>
        <time>2023-07-30T14:34:23.000Z</time>
      </trkpt>
      <trkpt lat="43.72711" lon="1.4447">
        <ele>180.318838</ele>
        <time>2023-07-30T14:34:25.000Z</time>
      </trkpt>
      <trkpt lat="43.72713" lon="1.44463">
        <ele>180.340179</ele>
        <time>2023-07-30T14:34:25.000Z</time>
      </trkpt>
      <trkpt lat="43.72714" lon="1.44458">
        <ele>180.355673</ele>
        <time>2023-07-30T14:34:27.000Z</time>
      </trkpt>
      <trkpt lat="43.72714" lon="1.44458">
        <ele>180.355673</ele>
        <time>2023-07-30T14:34:27.000Z</time>
      </trkpt>
      <trkpt lat="43.72715" lon="1.44453">
        <ele>180.373276</ele>
        <time>2023-07-30T14:34:28.000Z</time>
      </trkpt>
      <trkpt lat="43.72717" lon="1.44446">
        <ele>180.396629</ele>
        <time>2023-07-30T14:34:30.000Z</time>
      </trkpt>
      <trkpt lat="43.72718" lon="1.44437">
        <ele>180.42319</ele>
        <time>2023-07-30T14:34:31.000Z</time>
      </trkpt>
      <trkpt lat="43.72718" lon="1.44437">
        <ele>180.42319</ele>
        <time>2023-07-30T14:34:31.000Z</time>
      </trkpt>
      <trkpt lat="43.7272" lon="1.44431">
        <ele>180.444663</ele>
        <time>2023-07-30T14:34:32.000Z</time>
      </trkpt>
      <trkpt lat="43.7272" lon="1.44424">
        <ele>180.466254</ele>
        <time>2023-07-30T14:34:33.000Z</time>
      </trkpt>
      <trkpt lat="43.7272" lon="1.44424">
        <ele>180.466254</ele>
        <time>2023-07-30T14:34:33.000Z</time>
      </trkpt>
      <trkpt lat="43.72718" lon="1.44418">
        <ele>180.485115</ele>
        <time>2023-07-30T14:34:35.000Z</time>
      </trkpt>
      <trkpt lat="43.72718" lon="1.44418">
        <ele>180.485115</ele>
        <time>2023-07-30T14:34:35.000Z</time>
      </trkpt>
      <trkpt lat="43.72716" lon="1.4441">
        <ele>180.5111</ele>
        <time>2023-07-30T14:34:36.000Z</time>
      </trkpt>
      <trkpt lat="43.72716" lon="1.4441">
        <ele>180.5111</ele>
        <time>2023-07-30T14:34:36.000Z</time>
      </trkpt>
      <trkpt lat="43.72715" lon="1.44408">
        <ele>180.518514</ele>
        <time>2023-07-30T14:34:37.000Z</time>
      </trkpt>
      <trkpt lat="43.72715" lon="1.44408">
        <ele>180.518514</ele>
        <time>2023-07-30T14:34:37.000Z</time>
      </trkpt>
      <trkpt lat="43.72711" lon="1.444">
        <ele>180.548766</ele>
        <time>2023-07-30T14:34:38.000Z</time>
      </trkpt>
      <trkpt lat="43.72711" lon="1.444">
        <ele>180.548766</ele>
        <time>2023-07-30T14:34:38.000Z</time>
      </trkpt>
      <trkpt lat="43.72709" lon="1.44393">
        <ele>180.573786</ele>
        <time>2023-07-30T14:34:39.000Z</time>
      </trkpt>
      <trkpt lat="43.72709" lon="1.44393">
        <ele>180.573786</ele>
        <time>2023-07-30T14:34:39.000Z</time>
      </trkpt>
      <trkpt lat="43.72709" lon="1.44388">
        <ele>180.589517</ele>
        <time>2023-07-30T14:34:40.000Z</time>
      </trkpt>
      <trkpt lat="43.72709" lon="1.44388">
        <ele>180.589517</ele>
        <time>2023-07-30T14:34:40.000Z</time>
      </trkpt>
      <trkpt lat="43.7271" lon="1.44384">
        <ele>180.601188</ele>
        <time>2023-07-30T14:34:41.000Z</time>
      </trkpt>
      <trkpt lat="43.7271" lon="1.44384">
        <ele>180.601188</ele>
        <time>2023-07-30T14:34:41.000Z</time>
      </trkpt>
      <trkpt lat="43.72712" lon="1.44381">
        <ele>180.617555</ele>
        <time>2023-07-30T14:34:42.000Z</time>
      </trkpt>
      <trkpt lat="43.72712" lon="1.44381">
        <ele>180.617555</ele>
        <time>2023-07-30T14:34:42.000Z</time>
      </trkpt>
      <trkpt lat="43.72716" lon="1.44376">
        <ele>180.637532</ele>
        <time>2023-07-30T14:34:44.000Z</time>
      </trkpt>
      <trkpt lat="43.72716" lon="1.44376">
        <ele>180.637532</ele>
        <time>2023-07-30T14:34:44.000Z</time>
      </trkpt>
      <trkpt lat="43.72719" lon="1.44373">
        <ele>180.654084</ele>
        <time>2023-07-30T14:34:45.000Z</time>
      </trkpt>
      <trkpt lat="43.72719" lon="1.44373">
        <ele>180.654084</ele>
        <time>2023-07-30T14:34:45.000Z</time>
      </trkpt>
      <trkpt lat="43.72723" lon="1.44369">
        <ele>180.673568</ele>
        <time>2023-07-30T14:34:46.000Z</time>
      </trkpt>
      <trkpt lat="43.72728" lon="1.44363">
        <ele>180.703062</ele>
        <time>2023-07-30T14:34:47.000Z</time>
      </trkpt>
      <trkpt lat="43.72728" lon="1.44363">
        <ele>180.703062</ele>
        <time>2023-07-30T14:34:47.000Z</time>
      </trkpt>
      <trkpt lat="43.72735" lon="1.44352">
        <ele>180.747709</ele>
        <time>2023-07-30T14:34:49.000Z</time>
      </trkpt>
      <trkpt lat="43.72735" lon="1.44352">
        <ele>180.747709</ele>
        <time>2023-07-30T14:34:49.000Z</time>
      </trkpt>
      <trkpt lat="43.72737" lon="1.4435">
        <ele>180.761909</ele>
        <time>2023-07-30T14:34:50.000Z</time>
      </trkpt>
      <trkpt lat="43.72737" lon="1.4435">
        <ele>180.761909</ele>
        <time>2023-07-30T14:34:50.000Z</time>
      </trkpt>
      <trkpt lat="43.72742" lon="1.44342">
        <ele>180.921192</ele>
        <time>2023-07-30T14:34:51.000Z</time>
      </trkpt>
      <trkpt lat="43.72747" lon="1.44337">
        <ele>181.049889</ele>
        <time>2023-07-30T14:34:52.000Z</time>
      </trkpt>
      <trkpt lat="43.72749" lon="1.44333">
        <ele>181.120864</ele>
        <time>2023-07-30T14:34:53.000Z</time>
      </trkpt>
      <trkpt lat="43.72749" lon="1.44333">
        <ele>181.120864</ele>
        <time>2023-07-30T14:34:53.000Z</time>
      </trkpt>
      <trkpt lat="43.72755" lon="1.44326">
        <ele>181.273883</ele>
        <time>2023-07-30T14:34:54.000Z</time>
      </trkpt>
      <trkpt lat="43.72758" lon="1.44323">
        <ele>181.363334</ele>
        <time>2023-07-30T14:34:55.000Z</time>
      </trkpt>
      <trkpt lat="43.72758" lon="1.44323">
        <ele>181.363334</ele>
        <time>2023-07-30T14:34:55.000Z</time>
      </trkpt>
      <trkpt lat="43.72763" lon="1.44317">
        <ele>181.495426</ele>
        <time>2023-07-30T14:34:56.000Z</time>
      </trkpt>
      <trkpt lat="43.72767" lon="1.44313">
        <ele>181.585808</ele>
        <time>2023-07-30T14:34:57.000Z</time>
      </trkpt>
      <trkpt lat="43.72767" lon="1.44313">
        <ele>181.585808</ele>
        <time>2023-07-30T14:34:57.000Z</time>
      </trkpt>
      <trkpt lat="43.72771" lon="1.44309">
        <ele>181.702309</ele>
        <time>2023-07-30T14:34:58.000Z</time>
      </trkpt>
      <trkpt lat="43.72776" lon="1.44304">
        <ele>181.821453</ele>
        <time>2023-07-30T14:34:59.000Z</time>
      </trkpt>
      <trkpt lat="43.72776" lon="1.44304">
        <ele>181.821453</ele>
        <time>2023-07-30T14:34:59.000Z</time>
      </trkpt>
      <trkpt lat="43.7278" lon="1.443">
        <ele>181.922968</ele>
        <time>2023-07-30T14:35:00.000Z</time>
      </trkpt>
      <trkpt lat="43.72783" lon="1.44295">
        <ele>182.02937</ele>
        <time>2023-07-30T14:35:01.000Z</time>
      </trkpt>
      <trkpt lat="43.72788" lon="1.4429">
        <ele>182.140141</ele>
        <time>2023-07-30T14:35:02.000Z</time>
      </trkpt>
      <trkpt lat="43.72788" lon="1.4429">
        <ele>182.140141</ele>
        <time>2023-07-30T14:35:02.000Z</time>
      </trkpt>
      <trkpt lat="43.72792" lon="1.44286">
        <ele>182.253748</ele>
        <time>2023-07-30T14:35:03.000Z</time>
      </trkpt>
      <trkpt lat="43.72792" lon="1.44286">
        <ele>182.253748</ele>
        <time>2023-07-30T14:35:03.000Z</time>
      </trkpt>
      <trkpt lat="43.72796" lon="1.44281">
        <ele>182.358159</ele>
        <time>2023-07-30T14:35:04.000Z</time>
      </trkpt>
      <trkpt lat="43.72799" lon="1.44278">
        <ele>182.437413</ele>
        <time>2023-07-30T14:35:05.000Z</time>
      </trkpt>
      <trkpt lat="43.72799" lon="1.44278">
        <ele>182.437413</ele>
        <time>2023-07-30T14:35:05.000Z</time>
      </trkpt>
      <trkpt lat="43.72804" lon="1.44272">
        <ele>182.574325</ele>
        <time>2023-07-30T14:35:06.000Z</time>
      </trkpt>
      <trkpt lat="43.72808" lon="1.44269">
        <ele>182.669562</ele>
        <time>2023-07-30T14:35:07.000Z</time>
      </trkpt>
      <trkpt lat="43.72813" lon="1.44264">
        <ele>182.789554</ele>
        <time>2023-07-30T14:35:08.000Z</time>
      </trkpt>
      <trkpt lat="43.72817" lon="1.4426">
        <ele>182.896717</ele>
        <time>2023-07-30T14:35:09.000Z</time>
      </trkpt>
      <trkpt lat="43.72821" lon="1.44256">
        <ele>183.001318</ele>
        <time>2023-07-30T14:35:10.000Z</time>
      </trkpt>
      <trkpt lat="43.72821" lon="1.44256">
        <ele>183.001318</ele>
        <time>2023-07-30T14:35:10.000Z</time>
      </trkpt>
      <trkpt lat="43.72825" lon="1.44253">
        <ele>183.09062</ele>
        <time>2023-07-30T14:35:11.000Z</time>
      </trkpt>
      <trkpt lat="43.72829" lon="1.44248">
        <ele>183.214775</ele>
        <time>2023-07-30T14:35:12.000Z</time>
      </trkpt>
      <trkpt lat="43.72829" lon="1.44248">
        <ele>183.214775</ele>
        <time>2023-07-30T14:35:12.000Z</time>
      </trkpt>
      <trkpt lat="43.72833" lon="1.44244">
        <ele>183.307705</ele>
        <time>2023-07-30T14:35:13.000Z</time>
      </trkpt>
      <trkpt lat="43.72833" lon="1.44244">
        <ele>183.307705</ele>
        <time>2023-07-30T14:35:13.000Z</time>
      </trkpt>
      <trkpt lat="43.72837" lon="1.4424">
        <ele>183.411137</ele>
        <time>2023-07-30T14:35:14.000Z</time>
      </trkpt>
      <trkpt lat="43.72837" lon="1.4424">
        <ele>183.411137</ele>
        <time>2023-07-30T14:35:14.000Z</time>
      </trkpt>
      <trkpt lat="43.72839" lon="1.44236">
        <ele>183.477758</ele>
        <time>2023-07-30T14:35:15.000Z</time>
      </trkpt>
      <trkpt lat="43.72839" lon="1.44236">
        <ele>183.477758</ele>
        <time>2023-07-30T14:35:15.000Z</time>
      </trkpt>
      <trkpt lat="43.7284" lon="1.44233">
        <ele>183.53857</ele>
        <time>2023-07-30T14:35:16.000Z</time>
      </trkpt>
      <trkpt lat="43.7284" lon="1.44233">
        <ele>183.53857</ele>
        <time>2023-07-30T14:35:16.000Z</time>
      </trkpt>
      <trkpt lat="43.72839" lon="1.44229">
        <ele>183.591402</ele>
        <time>2023-07-30T14:35:17.000Z</time>
      </trkpt>
      <trkpt lat="43.72839" lon="1.44229">
        <ele>183.591402</ele>
        <time>2023-07-30T14:35:17.000Z</time>
      </trkpt>
      <trkpt lat="43.72837" lon="1.44227">
        <ele>183.650087</ele>
        <time>2023-07-30T14:35:18.000Z</time>
      </trkpt>
      <trkpt lat="43.72837" lon="1.44227">
        <ele>183.650087</ele>
        <time>2023-07-30T14:35:18.000Z</time>
      </trkpt>
      <trkpt lat="43.72834" lon="1.44224">
        <ele>183.71727</ele>
        <time>2023-07-30T14:35:19.000Z</time>
      </trkpt>
      <trkpt lat="43.72834" lon="1.44224">
        <ele>183.71727</ele>
        <time>2023-07-30T14:35:19.000Z</time>
      </trkpt>
      <trkpt lat="43.72831" lon="1.44222">
        <ele>183.793021</ele>
        <time>2023-07-30T14:35:20.000Z</time>
      </trkpt>
      <trkpt lat="43.72832" lon="1.44223">
        <ele>183.808811</ele>
        <time>2023-07-30T14:35:21.000Z</time>
      </trkpt>
      <trkpt lat="43.72832" lon="1.44223">
        <ele>183.808811</ele>
        <time>2023-07-30T14:35:21.000Z</time>
      </trkpt>
      <trkpt lat="43.72824" lon="1.44216">
        <ele>183.992024</ele>
        <time>2023-07-30T14:35:22.000Z</time>
      </trkpt>
      <trkpt lat="43.7282" lon="1.44213">
        <ele>184.089771</ele>
        <time>2023-07-30T14:35:24.000Z</time>
      </trkpt>
      <trkpt lat="43.7282" lon="1.44213">
        <ele>184.089771</ele>
        <time>2023-07-30T14:35:24.000Z</time>
      </trkpt>
      <trkpt lat="43.72817" lon="1.44211">
        <ele>184.163231</ele>
        <time>2023-07-30T14:35:25.000Z</time>
      </trkpt>
      <trkpt lat="43.72809" lon="1.44204">
        <ele>184.366614</ele>
        <time>2023-07-30T14:35:25.000Z</time>
      </trkpt>
      <trkpt lat="43.72809" lon="1.44204">
        <ele>184.366614</ele>
        <time>2023-07-30T14:35:25.000Z</time>
      </trkpt>
      <trkpt lat="43.72803" lon="1.44198">
        <ele>184.465409</ele>
        <time>2023-07-30T14:35:27.000Z</time>
      </trkpt>
      <trkpt lat="43.728" lon="1.44193">
        <ele>184.432243</ele>
        <time>2023-07-30T14:35:28.000Z</time>
      </trkpt>
      <trkpt lat="43.72798" lon="1.44188">
        <ele>184.399858</ele>
        <time>2023-07-30T14:35:29.000Z</time>
      </trkpt>
      <trkpt lat="43.72795" lon="1.44183">
        <ele>184.361903</ele>
        <time>2023-07-30T14:35:30.000Z</time>
      </trkpt>
      <trkpt lat="43.72791" lon="1.44179">
        <ele>184.326528</ele>
        <time>2023-07-30T14:35:31.000Z</time>
      </trkpt>
      <trkpt lat="43.72791" lon="1.44179">
        <ele>184.326528</ele>
        <time>2023-07-30T14:35:31.000Z</time>
      </trkpt>
      <trkpt lat="43.72787" lon="1.44175">
        <ele>184.288666</ele>
        <time>2023-07-30T14:35:32.000Z</time>
      </trkpt>
      <trkpt lat="43.72782" lon="1.44171">
        <ele>184.246549</ele>
        <time>2023-07-30T14:35:33.000Z</time>
      </trkpt>
      <trkpt lat="43.72777" lon="1.44168">
        <ele>184.204271</ele>
        <time>2023-07-30T14:35:34.000Z</time>
      </trkpt>
      <trkpt lat="43.72772" lon="1.44164">
        <ele>184.164922</ele>
        <time>2023-07-30T14:35:35.000Z</time>
      </trkpt>
      <trkpt lat="43.72767" lon="1.44161">
        <ele>184.122541</ele>
        <time>2023-07-30T14:35:36.000Z</time>
      </trkpt>
      <trkpt lat="43.72762" lon="1.44157">
        <ele>184.076581</ele>
        <time>2023-07-30T14:35:37.000Z</time>
      </trkpt>
      <trkpt lat="43.72757" lon="1.44153">
        <ele>184.034722</ele>
        <time>2023-07-30T14:35:38.000Z</time>
      </trkpt>
      <trkpt lat="43.72757" lon="1.44153">
        <ele>184.034722</ele>
        <time>2023-07-30T14:35:38.000Z</time>
      </trkpt>
      <trkpt lat="43.72752" lon="1.44149">
        <ele>183.991681</ele>
        <time>2023-07-30T14:35:39.000Z</time>
      </trkpt>
      <trkpt lat="43.72752" lon="1.44149">
        <ele>183.991681</ele>
        <time>2023-07-30T14:35:39.000Z</time>
      </trkpt>
      <trkpt lat="43.72747" lon="1.44146">
        <ele>183.94864</ele>
        <time>2023-07-30T14:35:40.000Z</time>
      </trkpt>
      <trkpt lat="43.72747" lon="1.44146">
        <ele>183.94864</ele>
        <time>2023-07-30T14:35:40.000Z</time>
      </trkpt>
      <trkpt lat="43.72742" lon="1.44141">
        <ele>183.903964</ele>
        <time>2023-07-30T14:35:41.000Z</time>
      </trkpt>
      <trkpt lat="43.72742" lon="1.44141">
        <ele>183.903964</ele>
        <time>2023-07-30T14:35:41.000Z</time>
      </trkpt>
      <trkpt lat="43.72738" lon="1.44136">
        <ele>183.85949</ele>
        <time>2023-07-30T14:35:42.000Z</time>
      </trkpt>
      <trkpt lat="43.72734" lon="1.4413">
        <ele>183.817605</ele>
        <time>2023-07-30T14:35:43.000Z</time>
      </trkpt>
      <trkpt lat="43.72734" lon="1.4413">
        <ele>183.817605</ele>
        <time>2023-07-30T14:35:43.000Z</time>
      </trkpt>
      <trkpt lat="43.7273" lon="1.44124">
        <ele>183.772441</ele>
        <time>2023-07-30T14:35:44.000Z</time>
      </trkpt>
      <trkpt lat="43.72727" lon="1.44118">
        <ele>183.731332</ele>
        <time>2023-07-30T14:35:45.000Z</time>
      </trkpt>
      <trkpt lat="43.72727" lon="1.44118">
        <ele>183.731332</ele>
        <time>2023-07-30T14:35:45.000Z</time>
      </trkpt>
      <trkpt lat="43.72724" lon="1.44111">
        <ele>183.688419</ele>
        <time>2023-07-30T14:35:46.000Z</time>
      </trkpt>
      <trkpt lat="43.72722" lon="1.44103">
        <ele>183.644997</ele>
        <time>2023-07-30T14:35:47.000Z</time>
      </trkpt>
      <trkpt lat="43.72722" lon="1.44103">
        <ele>183.644997</ele>
        <time>2023-07-30T14:35:47.000Z</time>
      </trkpt>
      <trkpt lat="43.7272" lon="1.44097">
        <ele>183.60406</ele>
        <time>2023-07-30T14:35:48.000Z</time>
      </trkpt>
      <trkpt lat="43.72718" lon="1.44089">
        <ele>183.564302</ele>
        <time>2023-07-30T14:35:49.000Z</time>
      </trkpt>
      <trkpt lat="43.72718" lon="1.44089">
        <ele>183.564302</ele>
        <time>2023-07-30T14:35:49.000Z</time>
      </trkpt>
      <trkpt lat="43.72718" lon="1.44082">
        <ele>183.521988</ele>
        <time>2023-07-30T14:35:50.000Z</time>
      </trkpt>
      <trkpt lat="43.72717" lon="1.44075">
        <ele>183.484245</ele>
        <time>2023-07-30T14:35:51.000Z</time>
      </trkpt>
      <trkpt lat="43.72717" lon="1.44068">
        <ele>183.445958</ele>
        <time>2023-07-30T14:35:52.000Z</time>
      </trkpt>
      <trkpt lat="43.72717" lon="1.44068">
        <ele>183.445958</ele>
        <time>2023-07-30T14:35:52.000Z</time>
      </trkpt>
      <trkpt lat="43.72717" lon="1.44062">
        <ele>183.412018</ele>
        <time>2023-07-30T14:35:53.000Z</time>
      </trkpt>
      <trkpt lat="43.72714" lon="1.44056">
        <ele>183.374986</ele>
        <time>2023-07-30T14:35:54.000Z</time>
      </trkpt>
      <trkpt lat="43.72712" lon="1.44053">
        <ele>183.352228</ele>
        <time>2023-07-30T14:35:55.000Z</time>
      </trkpt>
      <trkpt lat="43.72709" lon="1.44051">
        <ele>183.326862</ele>
        <time>2023-07-30T14:35:56.000Z</time>
      </trkpt>
      <trkpt lat="43.72706" lon="1.44049">
        <ele>183.299585</ele>
        <time>2023-07-30T14:35:57.000Z</time>
      </trkpt>
      <trkpt lat="43.72706" lon="1.44049">
        <ele>183.299585</ele>
        <time>2023-07-30T14:35:57.000Z</time>
      </trkpt>
      <trkpt lat="43.727" lon="1.44046">
        <ele>183.253236</ele>
        <time>2023-07-30T14:35:58.000Z</time>
      </trkpt>
      <trkpt lat="43.72694" lon="1.44044">
        <ele>183.210622</ele>
        <time>2023-07-30T14:35:59.000Z</time>
      </trkpt>
      <trkpt lat="43.72689" lon="1.44041">
        <ele>183.164412</ele>
        <time>2023-07-30T14:36:00.000Z</time>
      </trkpt>
      <trkpt lat="43.72689" lon="1.44041">
        <ele>183.164412</ele>
        <time>2023-07-30T14:36:00.000Z</time>
      </trkpt>
      <trkpt lat="43.72684" lon="1.44038">
        <ele>183.123714</ele>
        <time>2023-07-30T14:36:01.000Z</time>
      </trkpt>
      <trkpt lat="43.72679" lon="1.44035">
        <ele>183.079423</ele>
        <time>2023-07-30T14:36:02.000Z</time>
      </trkpt>
      <trkpt lat="43.72673" lon="1.44031">
        <ele>183.02715</ele>
        <time>2023-07-30T14:36:03.000Z</time>
      </trkpt>
      <trkpt lat="43.72669" lon="1.44028">
        <ele>182.985514</ele>
        <time>2023-07-30T14:36:04.000Z</time>
      </trkpt>
      <trkpt lat="43.72669" lon="1.44028">
        <ele>182.985514</ele>
        <time>2023-07-30T14:36:04.000Z</time>
      </trkpt>
      <trkpt lat="43.72664" lon="1.44025">
        <ele>182.93934</ele>
        <time>2023-07-30T14:36:05.000Z</time>
      </trkpt>
      <trkpt lat="43.72658" lon="1.44022">
        <ele>182.890645</ele>
        <time>2023-07-30T14:36:06.000Z</time>
      </trkpt>
      <trkpt lat="43.72654" lon="1.44019">
        <ele>182.85152</ele>
        <time>2023-07-30T14:36:06.000Z</time>
      </trkpt>
      <trkpt lat="43.72649" lon="1.44016">
        <ele>182.802555</ele>
        <time>2023-07-30T14:36:08.000Z</time>
      </trkpt>
      <trkpt lat="43.72643" lon="1.44012">
        <ele>182.753604</ele>
        <time>2023-07-30T14:36:09.000Z</time>
      </trkpt>
      <trkpt lat="43.72643" lon="1.44012">
        <ele>182.753604</ele>
        <time>2023-07-30T14:36:09.000Z</time>
      </trkpt>
      <trkpt lat="43.72639" lon="1.44009">
        <ele>182.710956</ele>
        <time>2023-07-30T14:36:09.000Z</time>
      </trkpt>
      <trkpt lat="43.72634" lon="1.44005">
        <ele>182.663114</ele>
        <time>2023-07-30T14:36:11.000Z</time>
      </trkpt>
      <trkpt lat="43.72629" lon="1.44001">
        <ele>182.616835</ele>
        <time>2023-07-30T14:36:11.000Z</time>
      </trkpt>
      <trkpt lat="43.72629" lon="1.44001">
        <ele>182.616835</ele>
        <time>2023-07-30T14:36:11.000Z</time>
      </trkpt>
      <trkpt lat="43.72625" lon="1.43996">
        <ele>182.57143</ele>
        <time>2023-07-30T14:36:13.000Z</time>
      </trkpt>
      <trkpt lat="43.7262" lon="1.4399">
        <ele>182.520757</ele>
        <time>2023-07-30T14:36:13.000Z</time>
      </trkpt>
      <trkpt lat="43.72616" lon="1.43985">
        <ele>182.473377</ele>
        <time>2023-07-30T14:36:14.000Z</time>
      </trkpt>
      <trkpt lat="43.72612" lon="1.43979">
        <ele>182.424341</ele>
        <time>2023-07-30T14:36:15.000Z</time>
      </trkpt>
      <trkpt lat="43.72608" lon="1.43974">
        <ele>182.374882</ele>
        <time>2023-07-30T14:36:16.000Z</time>
      </trkpt>
      <trkpt lat="43.72603" lon="1.43967">
        <ele>182.320509</ele>
        <time>2023-07-30T14:36:17.000Z</time>
      </trkpt>
      <trkpt lat="43.72599" lon="1.43961">
        <ele>182.272452</ele>
        <time>2023-07-30T14:36:18.000Z</time>
      </trkpt>
      <trkpt lat="43.72595" lon="1.43956">
        <ele>182.225072</ele>
        <time>2023-07-30T14:36:19.000Z</time>
      </trkpt>
      <trkpt lat="43.72591" lon="1.4395">
        <ele>182.174002</ele>
        <time>2023-07-30T14:36:20.000Z</time>
      </trkpt>
      <trkpt lat="43.72586" lon="1.43945">
        <ele>182.126623</ele>
        <time>2023-07-30T14:36:21.000Z</time>
      </trkpt>
      <trkpt lat="43.72582" lon="1.43939">
        <ele>182.075771</ele>
        <time>2023-07-30T14:36:22.000Z</time>
      </trkpt>
      <trkpt lat="43.72578" lon="1.43934">
        <ele>182.031044</ele>
        <time>2023-07-30T14:36:23.000Z</time>
      </trkpt>
      <trkpt lat="43.72574" lon="1.4393">
        <ele>181.98896</ele>
        <time>2023-07-30T14:36:24.000Z</time>
      </trkpt>
      <trkpt lat="43.72574" lon="1.4393">
        <ele>181.98896</ele>
        <time>2023-07-30T14:36:24.000Z</time>
      </trkpt>
      <trkpt lat="43.7257" lon="1.43924">
        <ele>181.942383</ele>
        <time>2023-07-30T14:36:25.000Z</time>
      </trkpt>
      <trkpt lat="43.72566" lon="1.43919">
        <ele>181.898257</ele>
        <time>2023-07-30T14:36:26.000Z</time>
      </trkpt>
      <trkpt lat="43.72561" lon="1.43913">
        <ele>181.844116</ele>
        <time>2023-07-30T14:36:27.000Z</time>
      </trkpt>
      <trkpt lat="43.72561" lon="1.43913">
        <ele>181.844116</ele>
        <time>2023-07-30T14:36:27.000Z</time>
      </trkpt>
      <trkpt lat="43.72556" lon="1.43907">
        <ele>181.785242</ele>
        <time>2023-07-30T14:36:28.000Z</time>
      </trkpt>
      <trkpt lat="43.7255" lon="1.43901">
        <ele>181.721067</ele>
        <time>2023-07-30T14:36:29.000Z</time>
      </trkpt>
      <trkpt lat="43.7255" lon="1.43901">
        <ele>181.721067</ele>
        <time>2023-07-30T14:36:29.000Z</time>
      </trkpt>
      <trkpt lat="43.72545" lon="1.43895">
        <ele>181.668094</ele>
        <time>2023-07-30T14:36:30.000Z</time>
      </trkpt>
      <trkpt lat="43.7254" lon="1.4389">
        <ele>181.599591</ele>
        <time>2023-07-30T14:36:31.000Z</time>
      </trkpt>
      <trkpt lat="43.72535" lon="1.43884">
        <ele>181.473591</ele>
        <time>2023-07-30T14:36:32.000Z</time>
      </trkpt>
      <trkpt lat="43.7253" lon="1.43879">
        <ele>181.351452</ele>
        <time>2023-07-30T14:36:33.000Z</time>
      </trkpt>
      <trkpt lat="43.72525" lon="1.43874">
        <ele>181.231179</ele>
        <time>2023-07-30T14:36:34.000Z</time>
      </trkpt>
      <trkpt lat="43.72515" lon="1.43864">
        <ele>180.972736</ele>
        <time>2023-07-30T14:36:36.000Z</time>
      </trkpt>
      <trkpt lat="43.72509" lon="1.43857">
        <ele>180.820132</ele>
        <time>2023-07-30T14:36:38.000Z</time>
      </trkpt>
      <trkpt lat="43.72509" lon="1.43857">
        <ele>180.820132</ele>
        <time>2023-07-30T14:36:39.000Z</time>
      </trkpt>
      <trkpt lat="43.72508" lon="1.43855">
        <ele>180.776592</ele>
        <time>2023-07-30T14:36:48.000Z</time>
      </trkpt>
      <trkpt lat="43.72508" lon="1.43855">
        <ele>180.776592</ele>
        <time>2023-07-30T14:36:48.000Z</time>
      </trkpt>
      <trkpt lat="43.72508" lon="1.43855">
        <ele>180.776592</ele>
        <time>2023-07-30T14:36:51.000Z</time>
      </trkpt>
      <trkpt lat="43.72508" lon="1.43855">
        <ele>180.770694</ele>
        <time>2023-07-30T14:36:53.000Z</time>
      </trkpt>
      <trkpt lat="43.72509" lon="1.43848">
        <ele>180.677987</ele>
        <time>2023-07-30T14:36:55.000Z</time>
      </trkpt>
      <trkpt lat="43.72509" lon="1.43848">
        <ele>180.677987</ele>
        <time>2023-07-30T14:36:55.000Z</time>
      </trkpt>
      <trkpt lat="43.72511" lon="1.43843">
        <ele>180.593378</ele>
        <time>2023-07-30T14:36:56.000Z</time>
      </trkpt>
      <trkpt lat="43.72513" lon="1.43838">
        <ele>180.504815</ele>
        <time>2023-07-30T14:36:57.000Z</time>
      </trkpt>
      <trkpt lat="43.72513" lon="1.43838">
        <ele>180.504815</ele>
        <time>2023-07-30T14:36:57.000Z</time>
      </trkpt>
      <trkpt lat="43.72515" lon="1.43833">
        <ele>180.420206</ele>
        <time>2023-07-30T14:36:58.000Z</time>
      </trkpt>
      <trkpt lat="43.72517" lon="1.43827">
        <ele>180.316126</ele>
        <time>2023-07-30T14:37:00.000Z</time>
      </trkpt>
      <trkpt lat="43.72517" lon="1.43827">
        <ele>180.316126</ele>
        <time>2023-07-30T14:37:00.000Z</time>
      </trkpt>
      <trkpt lat="43.72519" lon="1.4382">
        <ele>180.207245</ele>
        <time>2023-07-30T14:37:01.000Z</time>
      </trkpt>
      <trkpt lat="43.72519" lon="1.4382">
        <ele>180.207245</ele>
        <time>2023-07-30T14:37:01.000Z</time>
      </trkpt>
      <trkpt lat="43.72521" lon="1.43813">
        <ele>180.101114</ele>
        <time>2023-07-30T14:37:02.000Z</time>
      </trkpt>
      <trkpt lat="43.72521" lon="1.43813">
        <ele>180.101114</ele>
        <time>2023-07-30T14:37:02.000Z</time>
      </trkpt>
      <trkpt lat="43.72523" lon="1.43807">
        <ele>180.000451</ele>
        <time>2023-07-30T14:37:03.000Z</time>
      </trkpt>
      <trkpt lat="43.72523" lon="1.43807">
        <ele>180.000451</ele>
        <time>2023-07-30T14:37:03.000Z</time>
      </trkpt>
      <trkpt lat="43.72525" lon="1.438">
        <ele>179.891569</ele>
        <time>2023-07-30T14:37:04.000Z</time>
      </trkpt>
      <trkpt lat="43.72528" lon="1.43791">
        <ele>179.749856</ele>
        <time>2023-07-30T14:37:05.000Z</time>
      </trkpt>
      <trkpt lat="43.72528" lon="1.43791">
        <ele>179.749856</ele>
        <time>2023-07-30T14:37:05.000Z</time>
      </trkpt>
      <trkpt lat="43.7253" lon="1.43785">
        <ele>179.65326</ele>
        <time>2023-07-30T14:37:06.000Z</time>
      </trkpt>
      <trkpt lat="43.7253" lon="1.43785">
        <ele>179.65326</ele>
        <time>2023-07-30T14:37:06.000Z</time>
      </trkpt>
      <trkpt lat="43.72532" lon="1.43779">
        <ele>179.550494</ele>
        <time>2023-07-30T14:37:07.000Z</time>
      </trkpt>
      <trkpt lat="43.72532" lon="1.43779">
        <ele>179.550494</ele>
        <time>2023-07-30T14:37:07.000Z</time>
      </trkpt>
      <trkpt lat="43.72534" lon="1.43773">
        <ele>179.460603</ele>
        <time>2023-07-30T14:37:08.000Z</time>
      </trkpt>
      <trkpt lat="43.72535" lon="1.4377">
        <ele>179.410673</ele>
        <time>2023-07-30T14:37:10.000Z</time>
      </trkpt>
      <trkpt lat="43.72537" lon="1.43766">
        <ele>179.331261</ele>
        <time>2023-07-30T14:37:11.000Z</time>
      </trkpt>
      <trkpt lat="43.72537" lon="1.43766">
        <ele>179.331261</ele>
        <time>2023-07-30T14:37:11.000Z</time>
      </trkpt>
      <trkpt lat="43.72538" lon="1.4376">
        <ele>179.245955</ele>
        <time>2023-07-30T14:37:12.000Z</time>
      </trkpt>
      <trkpt lat="43.72539" lon="1.43756">
        <ele>179.184755</ele>
        <time>2023-07-30T14:37:13.000Z</time>
      </trkpt>
      <trkpt lat="43.72539" lon="1.43753">
        <ele>179.144474</ele>
        <time>2023-07-30T14:37:14.000Z</time>
      </trkpt>
      <trkpt lat="43.7254" lon="1.4375">
        <ele>179.096587</ele>
        <time>2023-07-30T14:37:15.000Z</time>
      </trkpt>
      <trkpt lat="43.7254" lon="1.4375">
        <ele>179.096587</ele>
        <time>2023-07-30T14:37:15.000Z</time>
      </trkpt>
      <trkpt lat="43.7254" lon="1.43746">
        <ele>179.029731</ele>
        <time>2023-07-30T14:37:16.000Z</time>
      </trkpt>
      <trkpt lat="43.72541" lon="1.43738">
        <ele>178.915022</ele>
        <time>2023-07-30T14:37:18.000Z</time>
      </trkpt>
      <trkpt lat="43.72541" lon="1.43738">
        <ele>178.915022</ele>
        <time>2023-07-30T14:37:18.000Z</time>
      </trkpt>
      <trkpt lat="43.72541" lon="1.43736">
        <ele>178.880559</ele>
        <time>2023-07-30T14:37:19.000Z</time>
      </trkpt>
      <trkpt lat="43.72541" lon="1.43732">
        <ele>178.82685</ele>
        <time>2023-07-30T14:37:20.000Z</time>
      </trkpt>
      <trkpt lat="43.72543" lon="1.43728">
        <ele>178.751572</ele>
        <time>2023-07-30T14:37:22.000Z</time>
      </trkpt>
      <trkpt lat="43.72543" lon="1.43728">
        <ele>178.751572</ele>
        <time>2023-07-30T14:37:22.000Z</time>
      </trkpt>
      <trkpt lat="43.72547" lon="1.43712">
        <ele>178.508823</ele>
        <time>2023-07-30T14:37:23.000Z</time>
      </trkpt>
      <trkpt lat="43.72547" lon="1.43712">
        <ele>178.508823</ele>
        <time>2023-07-30T14:37:23.000Z</time>
      </trkpt>
      <trkpt lat="43.72549" lon="1.43705">
        <ele>178.405432</ele>
        <time>2023-07-30T14:37:24.000Z</time>
      </trkpt>
      <trkpt lat="43.72551" lon="1.43699">
        <ele>178.299302</ele>
        <time>2023-07-30T14:37:25.000Z</time>
      </trkpt>
      <trkpt lat="43.72553" lon="1.43691">
        <ele>178.172344</ele>
        <time>2023-07-30T14:37:26.000Z</time>
      </trkpt>
      <trkpt lat="43.72553" lon="1.43691">
        <ele>178.172344</ele>
        <time>2023-07-30T14:37:26.000Z</time>
      </trkpt>
      <trkpt lat="43.72556" lon="1.43678">
        <ele>177.978157</ele>
        <time>2023-07-30T14:37:27.000Z</time>
      </trkpt>
      <trkpt lat="43.72556" lon="1.43678">
        <ele>177.978157</ele>
        <time>2023-07-30T14:37:27.000Z</time>
      </trkpt>
      <trkpt lat="43.72559" lon="1.43671">
        <ele>177.851447</ele>
        <time>2023-07-30T14:37:28.000Z</time>
      </trkpt>
      <trkpt lat="43.72561" lon="1.43663">
        <ele>177.715747</ele>
        <time>2023-07-30T14:37:29.000Z</time>
      </trkpt>
      <trkpt lat="43.72561" lon="1.43663">
        <ele>177.715747</ele>
        <time>2023-07-30T14:37:29.000Z</time>
      </trkpt>
      <trkpt lat="43.72564" lon="1.43656">
        <ele>177.589607</ele>
        <time>2023-07-30T14:37:30.000Z</time>
      </trkpt>
      <trkpt lat="43.72566" lon="1.43649">
        <ele>177.46287</ele>
        <time>2023-07-30T14:37:31.000Z</time>
      </trkpt>
      <trkpt lat="43.72566" lon="1.43649">
        <ele>177.46287</ele>
        <time>2023-07-30T14:37:31.000Z</time>
      </trkpt>
      <trkpt lat="43.72568" lon="1.43642">
        <ele>177.337033</ele>
        <time>2023-07-30T14:37:32.000Z</time>
      </trkpt>
      <trkpt lat="43.7257" lon="1.43634">
        <ele>177.206482</ele>
        <time>2023-07-30T14:37:33.000Z</time>
      </trkpt>
      <trkpt lat="43.7257" lon="1.43634">
        <ele>177.206482</ele>
        <time>2023-07-30T14:37:33.000Z</time>
      </trkpt>
      <trkpt lat="43.72572" lon="1.43626">
        <ele>177.074587</ele>
        <time>2023-07-30T14:37:34.000Z</time>
      </trkpt>
      <trkpt lat="43.72575" lon="1.43619">
        <ele>176.941756</ele>
        <time>2023-07-30T14:37:35.000Z</time>
      </trkpt>
      <trkpt lat="43.72575" lon="1.43619">
        <ele>176.941756</ele>
        <time>2023-07-30T14:37:35.000Z</time>
      </trkpt>
      <trkpt lat="43.72577" lon="1.43613">
        <ele>176.833845</ele>
        <time>2023-07-30T14:37:36.000Z</time>
      </trkpt>
      <trkpt lat="43.72577" lon="1.43613">
        <ele>176.833845</ele>
        <time>2023-07-30T14:37:36.000Z</time>
      </trkpt>
      <trkpt lat="43.72578" lon="1.43607">
        <ele>176.727408</ele>
        <time>2023-07-30T14:37:37.000Z</time>
      </trkpt>
      <trkpt lat="43.7258" lon="1.43602">
        <ele>176.653547</ele>
        <time>2023-07-30T14:37:38.000Z</time>
      </trkpt>
      <trkpt lat="43.7258" lon="1.43602">
        <ele>176.653547</ele>
        <time>2023-07-30T14:37:38.000Z</time>
      </trkpt>
      <trkpt lat="43.72581" lon="1.43597">
        <ele>176.5668</ele>
        <time>2023-07-30T14:37:39.000Z</time>
      </trkpt>
      <trkpt lat="43.72583" lon="1.43591">
        <ele>176.452961</ele>
        <time>2023-07-30T14:37:40.000Z</time>
      </trkpt>
      <trkpt lat="43.72585" lon="1.43583">
        <ele>176.320934</ele>
        <time>2023-07-30T14:37:41.000Z</time>
      </trkpt>
      <trkpt lat="43.72585" lon="1.43583">
        <ele>176.320934</ele>
        <time>2023-07-30T14:37:41.000Z</time>
      </trkpt>
      <trkpt lat="43.72587" lon="1.43578">
        <ele>176.231829</ele>
        <time>2023-07-30T14:37:42.000Z</time>
      </trkpt>
      <trkpt lat="43.72589" lon="1.43572">
        <ele>176.122442</ele>
        <time>2023-07-30T14:37:43.000Z</time>
      </trkpt>
      <trkpt lat="43.72589" lon="1.43572">
        <ele>176.122442</ele>
        <time>2023-07-30T14:37:43.000Z</time>
      </trkpt>
      <trkpt lat="43.72592" lon="1.43562">
        <ele>175.957376</ele>
        <time>2023-07-30T14:37:44.000Z</time>
      </trkpt>
      <trkpt lat="43.72592" lon="1.43562">
        <ele>175.957376</ele>
        <time>2023-07-30T14:37:44.000Z</time>
      </trkpt>
      <trkpt lat="43.72594" lon="1.43556">
        <ele>175.847988</ele>
        <time>2023-07-30T14:37:45.000Z</time>
      </trkpt>
      <trkpt lat="43.72594" lon="1.43556">
        <ele>175.847988</ele>
        <time>2023-07-30T14:37:45.000Z</time>
      </trkpt>
      <trkpt lat="43.72595" lon="1.4355">
        <ele>175.750786</ele>
        <time>2023-07-30T14:37:46.000Z</time>
      </trkpt>
      <trkpt lat="43.72595" lon="1.4355">
        <ele>175.750786</ele>
        <time>2023-07-30T14:37:46.000Z</time>
      </trkpt>
      <trkpt lat="43.72597" lon="1.43546">
        <ele>175.675717</ele>
        <time>2023-07-30T14:37:47.000Z</time>
      </trkpt>
      <trkpt lat="43.72597" lon="1.43546">
        <ele>175.675717</ele>
        <time>2023-07-30T14:37:47.000Z</time>
      </trkpt>
      <trkpt lat="43.72598" lon="1.43542">
        <ele>175.601856</ele>
        <time>2023-07-30T14:37:48.000Z</time>
      </trkpt>
      <trkpt lat="43.72598" lon="1.43542">
        <ele>175.601856</ele>
        <time>2023-07-30T14:37:48.000Z</time>
      </trkpt>
      <trkpt lat="43.72599" lon="1.43538">
        <ele>175.535352</ele>
        <time>2023-07-30T14:37:49.000Z</time>
      </trkpt>
      <trkpt lat="43.72599" lon="1.43538">
        <ele>175.535352</ele>
        <time>2023-07-30T14:37:49.000Z</time>
      </trkpt>
      <trkpt lat="43.726" lon="1.43536">
        <ele>175.498788</ele>
        <time>2023-07-30T14:37:50.000Z</time>
      </trkpt>
      <trkpt lat="43.726" lon="1.43536">
        <ele>175.498788</ele>
        <time>2023-07-30T14:37:50.000Z</time>
      </trkpt>
      <trkpt lat="43.72604" lon="1.43525">
        <ele>175.30775</ele>
        <time>2023-07-30T14:37:51.000Z</time>
      </trkpt>
      <trkpt lat="43.72608" lon="1.43514">
        <ele>175.092915</ele>
        <time>2023-07-30T14:37:52.000Z</time>
      </trkpt>
      <trkpt lat="43.72608" lon="1.43514">
        <ele>175.092915</ele>
        <time>2023-07-30T14:37:52.000Z</time>
      </trkpt>
      <trkpt lat="43.72612" lon="1.43504">
        <ele>174.92734</ele>
        <time>2023-07-30T14:37:53.000Z</time>
      </trkpt>
      <trkpt lat="43.72612" lon="1.43504">
        <ele>174.92734</ele>
        <time>2023-07-30T14:37:53.000Z</time>
      </trkpt>
      <trkpt lat="43.72616" lon="1.43493">
        <ele>174.726572</ele>
        <time>2023-07-30T14:37:54.000Z</time>
      </trkpt>
      <trkpt lat="43.72616" lon="1.43493">
        <ele>174.726572</ele>
        <time>2023-07-30T14:37:54.000Z</time>
      </trkpt>
      <trkpt lat="43.7262" lon="1.43483">
        <ele>174.544114</ele>
        <time>2023-07-30T14:37:56.000Z</time>
      </trkpt>
      <trkpt lat="43.7262" lon="1.43483">
        <ele>174.544114</ele>
        <time>2023-07-30T14:37:56.000Z</time>
      </trkpt>
      <trkpt lat="43.72622" lon="1.43476">
        <ele>174.420899</ele>
        <time>2023-07-30T14:37:56.000Z</time>
      </trkpt>
      <trkpt lat="43.72624" lon="1.43469">
        <ele>174.299142</ele>
        <time>2023-07-30T14:37:57.000Z</time>
      </trkpt>
      <trkpt lat="43.72624" lon="1.43469">
        <ele>174.299142</ele>
        <time>2023-07-30T14:37:57.000Z</time>
      </trkpt>
      <trkpt lat="43.72627" lon="1.43462">
        <ele>174.170065</ele>
        <time>2023-07-30T14:37:58.000Z</time>
      </trkpt>
      <trkpt lat="43.72627" lon="1.43462">
        <ele>174.170065</ele>
        <time>2023-07-30T14:37:58.000Z</time>
      </trkpt>
      <trkpt lat="43.72629" lon="1.43455">
        <ele>174.046851</ele>
        <time>2023-07-30T14:37:59.000Z</time>
      </trkpt>
      <trkpt lat="43.72632" lon="1.43448">
        <ele>173.958269</ele>
        <time>2023-07-30T14:38:00.000Z</time>
      </trkpt>
      <trkpt lat="43.72634" lon="1.4344">
        <ele>173.946509</ele>
        <time>2023-07-30T14:38:02.000Z</time>
      </trkpt>
      <trkpt lat="43.72634" lon="1.4344">
        <ele>173.946509</ele>
        <time>2023-07-30T14:38:02.000Z</time>
      </trkpt>
      <trkpt lat="43.72636" lon="1.43433">
        <ele>173.934579</ele>
        <time>2023-07-30T14:38:02.000Z</time>
      </trkpt>
      <trkpt lat="43.72636" lon="1.43433">
        <ele>173.934579</ele>
        <time>2023-07-30T14:38:02.000Z</time>
      </trkpt>
      <trkpt lat="43.72639" lon="1.43426">
        <ele>173.922252</ele>
        <time>2023-07-30T14:38:03.000Z</time>
      </trkpt>
      <trkpt lat="43.72642" lon="1.43419">
        <ele>173.910454</ele>
        <time>2023-07-30T14:38:04.000Z</time>
      </trkpt>
      <trkpt lat="43.72644" lon="1.43412">
        <ele>173.898883</ele>
        <time>2023-07-30T14:38:05.000Z</time>
      </trkpt>
      <trkpt lat="43.72644" lon="1.43412">
        <ele>173.898883</ele>
        <time>2023-07-30T14:38:05.000Z</time>
      </trkpt>
      <trkpt lat="43.72647" lon="1.43404">
        <ele>173.886157</ele>
        <time>2023-07-30T14:38:07.000Z</time>
      </trkpt>
      <trkpt lat="43.72647" lon="1.43404">
        <ele>173.886157</ele>
        <time>2023-07-30T14:38:07.000Z</time>
      </trkpt>
      <trkpt lat="43.7265" lon="1.43397">
        <ele>173.87475</ele>
        <time>2023-07-30T14:38:07.000Z</time>
      </trkpt>
      <trkpt lat="43.72652" lon="1.43391">
        <ele>173.863179</ele>
        <time>2023-07-30T14:38:08.000Z</time>
      </trkpt>
      <trkpt lat="43.72655" lon="1.43383">
        <ele>173.850853</ele>
        <time>2023-07-30T14:38:09.000Z</time>
      </trkpt>
      <trkpt lat="43.72655" lon="1.43383">
        <ele>173.850853</ele>
        <time>2023-07-30T14:38:09.000Z</time>
      </trkpt>
      <trkpt lat="43.72656" lon="1.43376">
        <ele>173.839576</ele>
        <time>2023-07-30T14:38:10.000Z</time>
      </trkpt>
      <trkpt lat="43.72656" lon="1.43376">
        <ele>173.839576</ele>
        <time>2023-07-30T14:38:10.000Z</time>
      </trkpt>
      <trkpt lat="43.72656" lon="1.43369">
        <ele>173.829579</ele>
        <time>2023-07-30T14:38:11.000Z</time>
      </trkpt>
      <trkpt lat="43.72654" lon="1.43364">
        <ele>173.820387</ele>
        <time>2023-07-30T14:38:12.000Z</time>
      </trkpt>
      <trkpt lat="43.72651" lon="1.43361">
        <ele>173.814369</ele>
        <time>2023-07-30T14:38:13.000Z</time>
      </trkpt>
      <trkpt lat="43.72651" lon="1.43361">
        <ele>173.814369</ele>
        <time>2023-07-30T14:38:13.000Z</time>
      </trkpt>
      <trkpt lat="43.72648" lon="1.43358">
        <ele>173.806042</ele>
        <time>2023-07-30T14:38:14.000Z</time>
      </trkpt>
      <trkpt lat="43.72644" lon="1.43354">
        <ele>173.796307</ele>
        <time>2023-07-30T14:38:15.000Z</time>
      </trkpt>
      <trkpt lat="43.72644" lon="1.43354">
        <ele>173.796307</ele>
        <time>2023-07-30T14:38:15.000Z</time>
      </trkpt>
      <trkpt lat="43.72641" lon="1.4335">
        <ele>173.788328</ele>
        <time>2023-07-30T14:38:17.000Z</time>
      </trkpt>
      <trkpt lat="43.72638" lon="1.43347">
        <ele>173.779355</ele>
        <time>2023-07-30T14:38:17.000Z</time>
      </trkpt>
      <trkpt lat="43.72634" lon="1.43342">
        <ele>173.768051</ele>
        <time>2023-07-30T14:38:19.000Z</time>
      </trkpt>
      <trkpt lat="43.72634" lon="1.43342">
        <ele>173.768051</ele>
        <time>2023-07-30T14:38:19.000Z</time>
      </trkpt>
      <trkpt lat="43.7263" lon="1.43337">
        <ele>173.756651</ele>
        <time>2023-07-30T14:38:19.000Z</time>
      </trkpt>
      <trkpt lat="43.72625" lon="1.43332">
        <ele>173.745055</ele>
        <time>2023-07-30T14:38:20.000Z</time>
      </trkpt>
      <trkpt lat="43.72622" lon="1.43327">
        <ele>173.734468</ele>
        <time>2023-07-30T14:38:22.000Z</time>
      </trkpt>
      <trkpt lat="43.72618" lon="1.43322">
        <ele>173.723881</ele>
        <time>2023-07-30T14:38:22.000Z</time>
      </trkpt>
      <trkpt lat="43.72614" lon="1.43317">
        <ele>173.713194</ele>
        <time>2023-07-30T14:38:24.000Z</time>
      </trkpt>
      <trkpt lat="43.7261" lon="1.43312">
        <ele>173.702404</ele>
        <time>2023-07-30T14:38:24.000Z</time>
      </trkpt>
      <trkpt lat="43.72606" lon="1.43307">
        <ele>173.691818</ele>
        <time>2023-07-30T14:38:25.000Z</time>
      </trkpt>
      <trkpt lat="43.72606" lon="1.43307">
        <ele>173.691818</ele>
        <time>2023-07-30T14:38:25.000Z</time>
      </trkpt>
      <trkpt lat="43.72603" lon="1.43302">
        <ele>173.680925</ele>
        <time>2023-07-30T14:38:26.000Z</time>
      </trkpt>
      <trkpt lat="43.72599" lon="1.43297">
        <ele>173.670033</ele>
        <time>2023-07-30T14:38:27.000Z</time>
      </trkpt>
      <trkpt lat="43.72595" lon="1.43292">
        <ele>173.659093</ele>
        <time>2023-07-30T14:38:28.000Z</time>
      </trkpt>
      <trkpt lat="43.72595" lon="1.43292">
        <ele>173.659093</ele>
        <time>2023-07-30T14:38:28.000Z</time>
      </trkpt>
      <trkpt lat="43.72591" lon="1.43287">
        <ele>173.648201</ele>
        <time>2023-07-30T14:38:30.000Z</time>
      </trkpt>
      <trkpt lat="43.72587" lon="1.43282">
        <ele>173.636897</ele>
        <time>2023-07-30T14:38:30.000Z</time>
      </trkpt>
      <trkpt lat="43.72583" lon="1.43277">
        <ele>173.62631</ele>
        <time>2023-07-30T14:38:31.000Z</time>
      </trkpt>
      <trkpt lat="43.72579" lon="1.43273">
        <ele>173.615102</ele>
        <time>2023-07-30T14:38:32.000Z</time>
      </trkpt>
      <trkpt lat="43.72575" lon="1.43268">
        <ele>173.604515</ele>
        <time>2023-07-30T14:38:33.000Z</time>
      </trkpt>
      <trkpt lat="43.72571" lon="1.43263">
        <ele>173.593115</ele>
        <time>2023-07-30T14:38:35.000Z</time>
      </trkpt>
      <trkpt lat="43.72571" lon="1.43263">
        <ele>173.593115</ele>
        <time>2023-07-30T14:38:35.000Z</time>
      </trkpt>
      <trkpt lat="43.72567" lon="1.43258">
        <ele>173.591078</ele>
        <time>2023-07-30T14:38:35.000Z</time>
      </trkpt>
      <trkpt lat="43.72563" lon="1.43254">
        <ele>173.589614</ele>
        <time>2023-07-30T14:38:36.000Z</time>
      </trkpt>
      <trkpt lat="43.72559" lon="1.43251">
        <ele>173.587985</ele>
        <time>2023-07-30T14:38:38.000Z</time>
      </trkpt>
      <trkpt lat="43.72555" lon="1.43248">
        <ele>173.586619</ele>
        <time>2023-07-30T14:38:38.000Z</time>
      </trkpt>
      <trkpt lat="43.72553" lon="1.43247">
        <ele>173.585883</ele>
        <time>2023-07-30T14:38:39.000Z</time>
      </trkpt>
      <trkpt lat="43.72548" lon="1.43247">
        <ele>173.584566</ele>
        <time>2023-07-30T14:38:41.000Z</time>
      </trkpt>
      <trkpt lat="43.72548" lon="1.43247">
        <ele>173.584566</ele>
        <time>2023-07-30T14:38:41.000Z</time>
      </trkpt>
      <trkpt lat="43.72544" lon="1.43247">
        <ele>173.583254</ele>
        <time>2023-07-30T14:38:41.000Z</time>
      </trkpt>
      <trkpt lat="43.72541" lon="1.43246">
        <ele>173.582187</ele>
        <time>2023-07-30T14:38:42.000Z</time>
      </trkpt>
      <trkpt lat="43.72541" lon="1.43246">
        <ele>173.582187</ele>
        <time>2023-07-30T14:38:42.000Z</time>
      </trkpt>
      <trkpt lat="43.72537" lon="1.43244">
        <ele>173.580792</ele>
        <time>2023-07-30T14:38:43.000Z</time>
      </trkpt>
      <trkpt lat="43.72534" lon="1.43243">
        <ele>173.580016</ele>
        <time>2023-07-30T14:38:44.000Z</time>
      </trkpt>
      <trkpt lat="43.7253" lon="1.43241">
        <ele>173.578605</ele>
        <time>2023-07-30T14:38:46.000Z</time>
      </trkpt>
      <trkpt lat="43.7253" lon="1.43241">
        <ele>173.578605</ele>
        <time>2023-07-30T14:38:46.000Z</time>
      </trkpt>
      <trkpt lat="43.72523" lon="1.43235">
        <ele>173.575987</ele>
        <time>2023-07-30T14:38:47.000Z</time>
      </trkpt>
      <trkpt lat="43.72519" lon="1.43233">
        <ele>173.574815</ele>
        <time>2023-07-30T14:38:48.000Z</time>
      </trkpt>
      <trkpt lat="43.72516" lon="1.4323">
        <ele>173.57352</ele>
        <time>2023-07-30T14:38:50.000Z</time>
      </trkpt>
      <trkpt lat="43.72512" lon="1.43229">
        <ele>173.572383</ele>
        <time>2023-07-30T14:38:51.000Z</time>
      </trkpt>
      <trkpt lat="43.72508" lon="1.43228">
        <ele>173.571052</ele>
        <time>2023-07-30T14:38:52.000Z</time>
      </trkpt>
      <trkpt lat="43.72508" lon="1.43228">
        <ele>173.571052</ele>
        <time>2023-07-30T14:38:52.000Z</time>
      </trkpt>
      <trkpt lat="43.72505" lon="1.43228">
        <ele>173.570207</ele>
        <time>2023-07-30T14:38:53.000Z</time>
      </trkpt>
      <trkpt lat="43.72501" lon="1.43229">
        <ele>173.568967</ele>
        <time>2023-07-30T14:38:54.000Z</time>
      </trkpt>
      <trkpt lat="43.72499" lon="1.43233">
        <ele>173.567841</ele>
        <time>2023-07-30T14:38:56.000Z</time>
      </trkpt>
      <trkpt lat="43.72495" lon="1.43235">
        <ele>173.566639</ele>
        <time>2023-07-30T14:38:57.000Z</time>
      </trkpt>
      <trkpt lat="43.72491" lon="1.43233">
        <ele>173.565236</ele>
        <time>2023-07-30T14:38:58.000Z</time>
      </trkpt>
      <trkpt lat="43.7249" lon="1.43232">
        <ele>173.564668</ele>
        <time>2023-07-30T14:39:00.000Z</time>
      </trkpt>
      <trkpt lat="43.72489" lon="1.4323">
        <ele>173.564226</ele>
        <time>2023-07-30T14:39:01.000Z</time>
      </trkpt>
      <trkpt lat="43.72488" lon="1.43227">
        <ele>173.563372</ele>
        <time>2023-07-30T14:39:03.000Z</time>
      </trkpt>
      <trkpt lat="43.72487" lon="1.43224">
        <ele>173.56275</ele>
        <time>2023-07-30T14:39:04.000Z</time>
      </trkpt>
      <trkpt lat="43.72485" lon="1.43222">
        <ele>173.561981</ele>
        <time>2023-07-30T14:39:04.000Z</time>
      </trkpt>
      <trkpt lat="43.72483" lon="1.43218">
        <ele>173.561008</ele>
        <time>2023-07-30T14:39:06.000Z</time>
      </trkpt>
      <trkpt lat="43.72481" lon="1.43211">
        <ele>173.559151</ele>
        <time>2023-07-30T14:39:07.000Z</time>
      </trkpt>
      <trkpt lat="43.72481" lon="1.43211">
        <ele>173.559151</ele>
        <time>2023-07-30T14:39:07.000Z</time>
      </trkpt>
      <trkpt lat="43.7248" lon="1.43207">
        <ele>173.558386</ele>
        <time>2023-07-30T14:39:09.000Z</time>
      </trkpt>
      <trkpt lat="43.72478" lon="1.43202">
        <ele>173.557111</ele>
        <time>2023-07-30T14:39:11.000Z</time>
      </trkpt>
      <trkpt lat="43.72478" lon="1.43202">
        <ele>173.557111</ele>
        <time>2023-07-30T14:39:11.000Z</time>
      </trkpt>
      <trkpt lat="43.72477" lon="1.43198">
        <ele>173.556124</ele>
        <time>2023-07-30T14:39:12.000Z</time>
      </trkpt>
      <trkpt lat="43.72475" lon="1.43193">
        <ele>173.554709</ele>
        <time>2023-07-30T14:39:12.000Z</time>
      </trkpt>
      <trkpt lat="43.72473" lon="1.43187">
        <ele>173.553371</ele>
        <time>2023-07-30T14:39:14.000Z</time>
      </trkpt>
      <trkpt lat="43.72473" lon="1.43182">
        <ele>173.552149</ele>
        <time>2023-07-30T14:39:14.000Z</time>
      </trkpt>
      <trkpt lat="43.72474" lon="1.43177">
        <ele>173.550969</ele>
        <time>2023-07-30T14:39:15.000Z</time>
      </trkpt>
      <trkpt lat="43.72476" lon="1.43173">
        <ele>173.54978</ele>
        <time>2023-07-30T14:39:17.000Z</time>
      </trkpt>
      <trkpt lat="43.72479" lon="1.4317">
        <ele>173.548572</ele>
        <time>2023-07-30T14:39:19.000Z</time>
      </trkpt>
      <trkpt lat="43.72486" lon="1.43164">
        <ele>173.546265</ele>
        <time>2023-07-30T14:39:20.000Z</time>
      </trkpt>
      <trkpt lat="43.72486" lon="1.43164">
        <ele>173.546265</ele>
        <time>2023-07-30T14:39:20.000Z</time>
      </trkpt>
      <trkpt lat="43.7249" lon="1.43162">
        <ele>173.544837</ele>
        <time>2023-07-30T14:39:21.000Z</time>
      </trkpt>
      <trkpt lat="43.7249" lon="1.43162">
        <ele>173.544837</ele>
        <time>2023-07-30T14:39:21.000Z</time>
      </trkpt>
      <trkpt lat="43.72494" lon="1.43159">
        <ele>173.543513</ele>
        <time>2023-07-30T14:39:23.000Z</time>
      </trkpt>
      <trkpt lat="43.72494" lon="1.43159">
        <ele>173.543513</ele>
        <time>2023-07-30T14:39:23.000Z</time>
      </trkpt>
      <trkpt lat="43.72498" lon="1.43157">
        <ele>173.542222</ele>
        <time>2023-07-30T14:39:24.000Z</time>
      </trkpt>
      <trkpt lat="43.72502" lon="1.43156">
        <ele>173.540855</ele>
        <time>2023-07-30T14:39:25.000Z</time>
      </trkpt>
      <trkpt lat="43.72502" lon="1.43156">
        <ele>173.540855</ele>
        <time>2023-07-30T14:39:25.000Z</time>
      </trkpt>
      <trkpt lat="43.72509" lon="1.43154">
        <ele>173.538693</ele>
        <time>2023-07-30T14:39:25.000Z</time>
      </trkpt>
      <trkpt lat="43.72509" lon="1.43154">
        <ele>173.538693</ele>
        <time>2023-07-30T14:39:25.000Z</time>
      </trkpt>
      <trkpt lat="43.72513" lon="1.43153">
        <ele>173.537369</ele>
        <time>2023-07-30T14:39:27.000Z</time>
      </trkpt>
      <trkpt lat="43.72518" lon="1.43152">
        <ele>173.483208</ele>
        <time>2023-07-30T14:39:28.000Z</time>
      </trkpt>
      <trkpt lat="43.72524" lon="1.43152">
        <ele>173.309492</ele>
        <time>2023-07-30T14:39:29.000Z</time>
      </trkpt>
      <trkpt lat="43.72524" lon="1.43152">
        <ele>173.309492</ele>
        <time>2023-07-30T14:39:29.000Z</time>
      </trkpt>
      <trkpt lat="43.72532" lon="1.43151">
        <ele>173.081994</ele>
        <time>2023-07-30T14:39:30.000Z</time>
      </trkpt>
      <trkpt lat="43.72532" lon="1.43151">
        <ele>173.081994</ele>
        <time>2023-07-30T14:39:30.000Z</time>
      </trkpt>
      <trkpt lat="43.72538" lon="1.4315">
        <ele>172.896792</ele>
        <time>2023-07-30T14:39:31.000Z</time>
      </trkpt>
      <trkpt lat="43.72538" lon="1.4315">
        <ele>172.896792</ele>
        <time>2023-07-30T14:39:31.000Z</time>
      </trkpt>
      <trkpt lat="43.72545" lon="1.43148">
        <ele>172.720588</ele>
        <time>2023-07-30T14:39:32.000Z</time>
      </trkpt>
      <trkpt lat="43.72545" lon="1.43148">
        <ele>172.720588</ele>
        <time>2023-07-30T14:39:32.000Z</time>
      </trkpt>
      <trkpt lat="43.7255" lon="1.43147">
        <ele>172.554191</ele>
        <time>2023-07-30T14:39:33.000Z</time>
      </trkpt>
      <trkpt lat="43.7255" lon="1.43147">
        <ele>172.554191</ele>
        <time>2023-07-30T14:39:33.000Z</time>
      </trkpt>
      <trkpt lat="43.72556" lon="1.43145">
        <ele>172.377593</ele>
        <time>2023-07-30T14:39:34.000Z</time>
      </trkpt>
      <trkpt lat="43.72556" lon="1.43145">
        <ele>172.377593</ele>
        <time>2023-07-30T14:39:34.000Z</time>
      </trkpt>
      <trkpt lat="43.72562" lon="1.43144">
        <ele>172.203008</ele>
        <time>2023-07-30T14:39:35.000Z</time>
      </trkpt>
      <trkpt lat="43.72562" lon="1.43144">
        <ele>172.203008</ele>
        <time>2023-07-30T14:39:35.000Z</time>
      </trkpt>
      <trkpt lat="43.72569" lon="1.43143">
        <ele>172.028676</ele>
        <time>2023-07-30T14:39:36.000Z</time>
      </trkpt>
      <trkpt lat="43.72569" lon="1.43143">
        <ele>172.028676</ele>
        <time>2023-07-30T14:39:36.000Z</time>
      </trkpt>
      <trkpt lat="43.72575" lon="1.43142">
        <ele>171.855117</ele>
        <time>2023-07-30T14:39:37.000Z</time>
      </trkpt>
      <trkpt lat="43.72575" lon="1.43142">
        <ele>171.855117</ele>
        <time>2023-07-30T14:39:37.000Z</time>
      </trkpt>
      <trkpt lat="43.72582" lon="1.43142">
        <ele>171.647574</ele>
        <time>2023-07-30T14:39:38.000Z</time>
      </trkpt>
      <trkpt lat="43.72582" lon="1.43142">
        <ele>171.647574</ele>
        <time>2023-07-30T14:39:38.000Z</time>
      </trkpt>
      <trkpt lat="43.72588" lon="1.43141">
        <ele>171.465834</ele>
        <time>2023-07-30T14:39:39.000Z</time>
      </trkpt>
      <trkpt lat="43.72588" lon="1.43141">
        <ele>171.465834</ele>
        <time>2023-07-30T14:39:39.000Z</time>
      </trkpt>
      <trkpt lat="43.72595" lon="1.43141">
        <ele>171.269965</ele>
        <time>2023-07-30T14:39:40.000Z</time>
      </trkpt>
      <trkpt lat="43.72595" lon="1.43141">
        <ele>171.269965</ele>
        <time>2023-07-30T14:39:40.000Z</time>
      </trkpt>
      <trkpt lat="43.72602" lon="1.43141">
        <ele>171.074042</ele>
        <time>2023-07-30T14:39:41.000Z</time>
      </trkpt>
      <trkpt lat="43.72602" lon="1.43141">
        <ele>171.074042</ele>
        <time>2023-07-30T14:39:41.000Z</time>
      </trkpt>
      <trkpt lat="43.72609" lon="1.43141">
        <ele>170.889523</ele>
        <time>2023-07-30T14:39:42.000Z</time>
      </trkpt>
      <trkpt lat="43.72609" lon="1.43141">
        <ele>170.889523</ele>
        <time>2023-07-30T14:39:42.000Z</time>
      </trkpt>
      <trkpt lat="43.72616" lon="1.4314">
        <ele>170.685141</ele>
        <time>2023-07-30T14:39:43.000Z</time>
      </trkpt>
      <trkpt lat="43.72616" lon="1.4314">
        <ele>170.685141</ele>
        <time>2023-07-30T14:39:43.000Z</time>
      </trkpt>
      <trkpt lat="43.72623" lon="1.4314">
        <ele>170.489219</ele>
        <time>2023-07-30T14:39:44.000Z</time>
      </trkpt>
      <trkpt lat="43.72623" lon="1.4314">
        <ele>170.489219</ele>
        <time>2023-07-30T14:39:44.000Z</time>
      </trkpt>
      <trkpt lat="43.72629" lon="1.4314">
        <ele>170.304699</ele>
        <time>2023-07-30T14:39:45.000Z</time>
      </trkpt>
      <trkpt lat="43.72629" lon="1.4314">
        <ele>170.304699</ele>
        <time>2023-07-30T14:39:45.000Z</time>
      </trkpt>
      <trkpt lat="43.72636" lon="1.4314">
        <ele>170.123017</ele>
        <time>2023-07-30T14:39:46.000Z</time>
      </trkpt>
      <trkpt lat="43.72636" lon="1.4314">
        <ele>170.123017</ele>
        <time>2023-07-30T14:39:46.000Z</time>
      </trkpt>
      <trkpt lat="43.72641" lon="1.43139">
        <ele>169.969707</ele>
        <time>2023-07-30T14:39:47.000Z</time>
      </trkpt>
      <trkpt lat="43.72641" lon="1.43139">
        <ele>169.969707</ele>
        <time>2023-07-30T14:39:47.000Z</time>
      </trkpt>
      <trkpt lat="43.72647" lon="1.43139">
        <ele>169.807886</ele>
        <time>2023-07-30T14:39:48.000Z</time>
      </trkpt>
      <trkpt lat="43.72647" lon="1.43139">
        <ele>169.807886</ele>
        <time>2023-07-30T14:39:48.000Z</time>
      </trkpt>
      <trkpt lat="43.72653" lon="1.43139">
        <ele>169.623366</ele>
        <time>2023-07-30T14:39:49.000Z</time>
      </trkpt>
      <trkpt lat="43.7266" lon="1.43139">
        <ele>169.427444</ele>
        <time>2023-07-30T14:39:50.000Z</time>
      </trkpt>
      <trkpt lat="43.72666" lon="1.43139">
        <ele>169.254273</ele>
        <time>2023-07-30T14:39:51.000Z</time>
      </trkpt>
      <trkpt lat="43.72666" lon="1.43139">
        <ele>169.254273</ele>
        <time>2023-07-30T14:39:51.000Z</time>
      </trkpt>
      <trkpt lat="43.72674" lon="1.43138">
        <ele>169.038493</ele>
        <time>2023-07-30T14:39:52.000Z</time>
      </trkpt>
      <trkpt lat="43.72674" lon="1.43138">
        <ele>169.038493</ele>
        <time>2023-07-30T14:39:52.000Z</time>
      </trkpt>
      <trkpt lat="43.72681" lon="1.43138">
        <ele>168.822713</ele>
        <time>2023-07-30T14:39:53.000Z</time>
      </trkpt>
      <trkpt lat="43.7269" lon="1.43138">
        <ele>168.572888</ele>
        <time>2023-07-30T14:39:54.000Z</time>
      </trkpt>
      <trkpt lat="43.72698" lon="1.43137">
        <ele>168.414839</ele>
        <time>2023-07-30T14:39:55.000Z</time>
      </trkpt>
      <trkpt lat="43.72698" lon="1.43137">
        <ele>168.414839</ele>
        <time>2023-07-30T14:39:55.000Z</time>
      </trkpt>
      <trkpt lat="43.72705" lon="1.43138">
        <ele>168.376368</ele>
        <time>2023-07-30T14:39:55.000Z</time>
      </trkpt>
      <trkpt lat="43.72711" lon="1.43138">
        <ele>168.344502</ele>
        <time>2023-07-30T14:39:57.000Z</time>
      </trkpt>
      <trkpt lat="43.72711" lon="1.43138">
        <ele>168.344502</ele>
        <time>2023-07-30T14:39:57.000Z</time>
      </trkpt>
      <trkpt lat="43.72718" lon="1.43139">
        <ele>168.305936</ele>
        <time>2023-07-30T14:39:58.000Z</time>
      </trkpt>
      <trkpt lat="43.72718" lon="1.43139">
        <ele>168.305936</ele>
        <time>2023-07-30T14:39:58.000Z</time>
      </trkpt>
      <trkpt lat="43.72724" lon="1.43139">
        <ele>168.2697</ele>
        <time>2023-07-30T14:39:59.000Z</time>
      </trkpt>
      <trkpt lat="43.72724" lon="1.43139">
        <ele>168.2697</ele>
        <time>2023-07-30T14:39:59.000Z</time>
      </trkpt>
      <trkpt lat="43.7273" lon="1.43139">
        <ele>168.235675</ele>
        <time>2023-07-30T14:39:59.000Z</time>
      </trkpt>
      <trkpt lat="43.7273" lon="1.43139">
        <ele>168.235675</ele>
        <time>2023-07-30T14:39:59.000Z</time>
      </trkpt>
      <trkpt lat="43.72737" lon="1.43138">
        <ele>168.199942</ele>
        <time>2023-07-30T14:40:01.000Z</time>
      </trkpt>
      <trkpt lat="43.72737" lon="1.43138">
        <ele>168.199942</ele>
        <time>2023-07-30T14:40:01.000Z</time>
      </trkpt>
      <trkpt lat="43.72743" lon="1.43137">
        <ele>168.165786</ele>
        <time>2023-07-30T14:40:02.000Z</time>
      </trkpt>
      <trkpt lat="43.72743" lon="1.43137">
        <ele>168.165786</ele>
        <time>2023-07-30T14:40:02.000Z</time>
      </trkpt>
      <trkpt lat="43.72749" lon="1.43137">
        <ele>168.131697</ele>
        <time>2023-07-30T14:40:03.000Z</time>
      </trkpt>
      <trkpt lat="43.72755" lon="1.43136">
        <ele>168.095408</ele>
        <time>2023-07-30T14:40:04.000Z</time>
      </trkpt>
      <trkpt lat="43.72755" lon="1.43136">
        <ele>168.095408</ele>
        <time>2023-07-30T14:40:04.000Z</time>
      </trkpt>
      <trkpt lat="43.72761" lon="1.43136">
        <ele>168.063054</ele>
        <time>2023-07-30T14:40:05.000Z</time>
      </trkpt>
      <trkpt lat="43.72767" lon="1.43135">
        <ele>168.02899</ele>
        <time>2023-07-30T14:40:06.000Z</time>
      </trkpt>
      <trkpt lat="43.72773" lon="1.43135">
        <ele>167.999435</ele>
        <time>2023-07-30T14:40:07.000Z</time>
      </trkpt>
      <trkpt lat="43.72778" lon="1.43135">
        <ele>167.96988</ele>
        <time>2023-07-30T14:40:08.000Z</time>
      </trkpt>
      <trkpt lat="43.72784" lon="1.43135">
        <ele>167.935867</ele>
        <time>2023-07-30T14:40:09.000Z</time>
      </trkpt>
      <trkpt lat="43.7279" lon="1.43135">
        <ele>167.903526</ele>
        <time>2023-07-30T14:40:10.000Z</time>
      </trkpt>
      <trkpt lat="43.72796" lon="1.43134">
        <ele>167.867841</ele>
        <time>2023-07-30T14:40:11.000Z</time>
      </trkpt>
      <trkpt lat="43.72802" lon="1.43134">
        <ele>167.835499</ele>
        <time>2023-07-30T14:40:12.000Z</time>
      </trkpt>
      <trkpt lat="43.72807" lon="1.43134">
        <ele>167.805931</ele>
        <time>2023-07-30T14:40:13.000Z</time>
      </trkpt>
      <trkpt lat="43.72813" lon="1.43134">
        <ele>167.771905</ele>
        <time>2023-07-30T14:40:14.000Z</time>
      </trkpt>
      <trkpt lat="43.72818" lon="1.43134">
        <ele>167.744034</ele>
        <time>2023-07-30T14:40:15.000Z</time>
      </trkpt>
      <trkpt lat="43.72824" lon="1.43134">
        <ele>167.714489</ele>
        <time>2023-07-30T14:40:16.000Z</time>
      </trkpt>
      <trkpt lat="43.72829" lon="1.43134">
        <ele>167.684385</ele>
        <time>2023-07-30T14:40:16.000Z</time>
      </trkpt>
      <trkpt lat="43.72834" lon="1.43134">
        <ele>167.659301</ele>
        <time>2023-07-30T14:40:17.000Z</time>
      </trkpt>
      <trkpt lat="43.72839" lon="1.43134">
        <ele>167.626969</ele>
        <time>2023-07-30T14:40:18.000Z</time>
      </trkpt>
      <trkpt lat="43.72844" lon="1.43134">
        <ele>167.601885</ele>
        <time>2023-07-30T14:40:19.000Z</time>
      </trkpt>
      <trkpt lat="43.72849" lon="1.43134">
        <ele>167.571772</ele>
        <time>2023-07-30T14:40:20.000Z</time>
      </trkpt>
      <trkpt lat="43.72849" lon="1.43134">
        <ele>167.571772</ele>
        <time>2023-07-30T14:40:20.000Z</time>
      </trkpt>
      <trkpt lat="43.72854" lon="1.43134">
        <ele>167.546102</ele>
        <time>2023-07-30T14:40:22.000Z</time>
      </trkpt>
      <trkpt lat="43.7286" lon="1.43135">
        <ele>167.514264</ele>
        <time>2023-07-30T14:40:22.000Z</time>
      </trkpt>
      <trkpt lat="43.72864" lon="1.43135">
        <ele>167.489063</ele>
        <time>2023-07-30T14:40:23.000Z</time>
      </trkpt>
      <trkpt lat="43.7287" lon="1.43136">
        <ele>167.458693</ele>
        <time>2023-07-30T14:40:24.000Z</time>
      </trkpt>
      <trkpt lat="43.7287" lon="1.43136">
        <ele>167.458693</ele>
        <time>2023-07-30T14:40:24.000Z</time>
      </trkpt>
      <trkpt lat="43.72874" lon="1.43137">
        <ele>167.431022</ele>
        <time>2023-07-30T14:40:25.000Z</time>
      </trkpt>
      <trkpt lat="43.72874" lon="1.43137">
        <ele>167.431022</ele>
        <time>2023-07-30T14:40:25.000Z</time>
      </trkpt>
      <trkpt lat="43.72879" lon="1.43139">
        <ele>167.484199</ele>
        <time>2023-07-30T14:40:26.000Z</time>
      </trkpt>
      <trkpt lat="43.72884" lon="1.4314">
        <ele>167.543482</ele>
        <time>2023-07-30T14:40:28.000Z</time>
      </trkpt>
      <trkpt lat="43.72884" lon="1.4314">
        <ele>167.543482</ele>
        <time>2023-07-30T14:40:28.000Z</time>
      </trkpt>
      <trkpt lat="43.72889" lon="1.43142">
        <ele>167.602188</ele>
        <time>2023-07-30T14:40:28.000Z</time>
      </trkpt>
      <trkpt lat="43.72894" lon="1.43144">
        <ele>167.662022</ele>
        <time>2023-07-30T14:40:29.000Z</time>
      </trkpt>
      <trkpt lat="43.729" lon="1.43146">
        <ele>167.725863</ele>
        <time>2023-07-30T14:40:30.000Z</time>
      </trkpt>
      <trkpt lat="43.72904" lon="1.43148">
        <ele>167.77748</ele>
        <time>2023-07-30T14:40:31.000Z</time>
      </trkpt>
      <trkpt lat="43.72909" lon="1.4315">
        <ele>167.843139</ele>
        <time>2023-07-30T14:40:32.000Z</time>
      </trkpt>
      <trkpt lat="43.72913" lon="1.43152">
        <ele>167.895328</ele>
        <time>2023-07-30T14:40:33.000Z</time>
      </trkpt>
      <trkpt lat="43.72913" lon="1.43152">
        <ele>167.895328</ele>
        <time>2023-07-30T14:40:33.000Z</time>
      </trkpt>
      <trkpt lat="43.72919" lon="1.43155">
        <ele>167.960961</ele>
        <time>2023-07-30T14:40:34.000Z</time>
      </trkpt>
      <trkpt lat="43.72919" lon="1.43155">
        <ele>167.960961</ele>
        <time>2023-07-30T14:40:34.000Z</time>
      </trkpt>
      <trkpt lat="43.72923" lon="1.43157">
        <ele>168.018091</ele>
        <time>2023-07-30T14:40:35.000Z</time>
      </trkpt>
      <trkpt lat="43.72928" lon="1.4316">
        <ele>168.079077</ele>
        <time>2023-07-30T14:40:36.000Z</time>
      </trkpt>
      <trkpt lat="43.72928" lon="1.4316">
        <ele>168.079077</ele>
        <time>2023-07-30T14:40:36.000Z</time>
      </trkpt>
      <trkpt lat="43.72933" lon="1.43162">
        <ele>168.140859</ele>
        <time>2023-07-30T14:40:37.000Z</time>
      </trkpt>
      <trkpt lat="43.72938" lon="1.43165">
        <ele>168.202641</ele>
        <time>2023-07-30T14:40:38.000Z</time>
      </trkpt>
      <trkpt lat="43.72938" lon="1.43165">
        <ele>168.202641</ele>
        <time>2023-07-30T14:40:38.000Z</time>
      </trkpt>
      <trkpt lat="43.72943" lon="1.43167">
        <ele>168.263627</ele>
        <time>2023-07-30T14:40:40.000Z</time>
      </trkpt>
      <trkpt lat="43.72943" lon="1.43167">
        <ele>168.263627</ele>
        <time>2023-07-30T14:40:40.000Z</time>
      </trkpt>
      <trkpt lat="43.72948" lon="1.4317">
        <ele>168.320757</ele>
        <time>2023-07-30T14:40:41.000Z</time>
      </trkpt>
      <trkpt lat="43.72948" lon="1.4317">
        <ele>168.320757</ele>
        <time>2023-07-30T14:40:41.000Z</time>
      </trkpt>
      <trkpt lat="43.72953" lon="1.43172">
        <ele>168.382829</ele>
        <time>2023-07-30T14:40:42.000Z</time>
      </trkpt>
      <trkpt lat="43.72958" lon="1.43175">
        <ele>168.44352</ele>
        <time>2023-07-30T14:40:43.000Z</time>
      </trkpt>
      <trkpt lat="43.72958" lon="1.43175">
        <ele>168.44352</ele>
        <time>2023-07-30T14:40:43.000Z</time>
      </trkpt>
      <trkpt lat="43.72963" lon="1.43177">
        <ele>168.509692</ele>
        <time>2023-07-30T14:40:43.000Z</time>
      </trkpt>
      <trkpt lat="43.72968" lon="1.4318">
        <ele>168.565737</ele>
        <time>2023-07-30T14:40:45.000Z</time>
      </trkpt>
      <trkpt lat="43.72968" lon="1.4318">
        <ele>168.565737</ele>
        <time>2023-07-30T14:40:45.000Z</time>
      </trkpt>
      <trkpt lat="43.72973" lon="1.43182">
        <ele>168.627239</ele>
        <time>2023-07-30T14:40:46.000Z</time>
      </trkpt>
      <trkpt lat="43.72977" lon="1.43184">
        <ele>168.684078</ele>
        <time>2023-07-30T14:40:46.000Z</time>
      </trkpt>
      <trkpt lat="43.72982" lon="1.43187">
        <ele>168.748627</ele>
        <time>2023-07-30T14:40:48.000Z</time>
      </trkpt>
      <trkpt lat="43.72987" lon="1.43189">
        <ele>168.80935</ele>
        <time>2023-07-30T14:40:48.000Z</time>
      </trkpt>
      <trkpt lat="43.72987" lon="1.43189">
        <ele>168.80935</ele>
        <time>2023-07-30T14:40:48.000Z</time>
      </trkpt>
      <trkpt lat="43.72992" lon="1.43191">
        <ele>168.868487</ele>
        <time>2023-07-30T14:40:50.000Z</time>
      </trkpt>
      <trkpt lat="43.72997" lon="1.43193">
        <ele>168.928743</ele>
        <time>2023-07-30T14:40:51.000Z</time>
      </trkpt>
      <trkpt lat="43.73003" lon="1.43194">
        <ele>168.992163</ele>
        <time>2023-07-30T14:40:52.000Z</time>
      </trkpt>
      <trkpt lat="43.73008" lon="1.43196">
        <ele>169.057126</ele>
        <time>2023-07-30T14:40:53.000Z</time>
      </trkpt>
      <trkpt lat="43.73008" lon="1.43196">
        <ele>169.057126</ele>
        <time>2023-07-30T14:40:53.000Z</time>
      </trkpt>
      <trkpt lat="43.73013" lon="1.43198">
        <ele>169.111119</ele>
        <time>2023-07-30T14:40:54.000Z</time>
      </trkpt>
      <trkpt lat="43.73018" lon="1.432">
        <ele>169.175668</ele>
        <time>2023-07-30T14:40:55.000Z</time>
      </trkpt>
      <trkpt lat="43.73024" lon="1.43202">
        <ele>169.243803</ele>
        <time>2023-07-30T14:40:56.000Z</time>
      </trkpt>
      <trkpt lat="43.73029" lon="1.43203">
        <ele>169.303258</ele>
        <time>2023-07-30T14:40:57.000Z</time>
      </trkpt>
      <trkpt lat="43.73034" lon="1.43205">
        <ele>169.365962</ele>
        <time>2023-07-30T14:40:58.000Z</time>
      </trkpt>
      <trkpt lat="43.73039" lon="1.43205">
        <ele>169.424365</ele>
        <time>2023-07-30T14:40:59.000Z</time>
      </trkpt>
      <trkpt lat="43.73044" lon="1.43206">
        <ele>169.486163</ele>
        <time>2023-07-30T14:40:59.000Z</time>
      </trkpt>
      <trkpt lat="43.7305" lon="1.43206">
        <ele>169.553013</ele>
        <time>2023-07-30T14:41:01.000Z</time>
      </trkpt>
      <trkpt lat="43.73055" lon="1.43207">
        <ele>169.611979</ele>
        <time>2023-07-30T14:41:01.000Z</time>
      </trkpt>
      <trkpt lat="43.7306" lon="1.43207">
        <ele>169.669797</ele>
        <time>2023-07-30T14:41:03.000Z</time>
      </trkpt>
      <trkpt lat="43.73065" lon="1.43207">
        <ele>169.728738</ele>
        <time>2023-07-30T14:41:04.000Z</time>
      </trkpt>
      <trkpt lat="43.7307" lon="1.43207">
        <ele>169.791267</ele>
        <time>2023-07-30T14:41:05.000Z</time>
      </trkpt>
      <trkpt lat="43.73076" lon="1.43206">
        <ele>169.859829</ele>
        <time>2023-07-30T14:41:06.000Z</time>
      </trkpt>
      <trkpt lat="43.73076" lon="1.43206">
        <ele>169.859829</ele>
        <time>2023-07-30T14:41:06.000Z</time>
      </trkpt>
      <trkpt lat="43.73082" lon="1.43205">
        <ele>169.927366</ele>
        <time>2023-07-30T14:41:07.000Z</time>
      </trkpt>
      <trkpt lat="43.73087" lon="1.43205">
        <ele>169.985354</ele>
        <time>2023-07-30T14:41:08.000Z</time>
      </trkpt>
      <trkpt lat="43.73092" lon="1.43204">
        <ele>170.044516</ele>
        <time>2023-07-30T14:41:09.000Z</time>
      </trkpt>
      <trkpt lat="43.73092" lon="1.43204">
        <ele>170.044516</ele>
        <time>2023-07-30T14:41:09.000Z</time>
      </trkpt>
      <trkpt lat="43.73097" lon="1.43203">
        <ele>170.104069</ele>
        <time>2023-07-30T14:41:10.000Z</time>
      </trkpt>
      <trkpt lat="43.73101" lon="1.43202">
        <ele>170.157795</ele>
        <time>2023-07-30T14:41:11.000Z</time>
      </trkpt>
      <trkpt lat="43.73101" lon="1.43202">
        <ele>170.157795</ele>
        <time>2023-07-30T14:41:11.000Z</time>
      </trkpt>
      <trkpt lat="43.73105" lon="1.43201">
        <ele>170.20835</ele>
        <time>2023-07-30T14:41:12.000Z</time>
      </trkpt>
      <trkpt lat="43.73109" lon="1.43199">
        <ele>170.255845</ele>
        <time>2023-07-30T14:41:13.000Z</time>
      </trkpt>
      <trkpt lat="43.73109" lon="1.43199">
        <ele>170.255845</ele>
        <time>2023-07-30T14:41:13.000Z</time>
      </trkpt>
      <trkpt lat="43.73113" lon="1.43198">
        <ele>170.302667</ele>
        <time>2023-07-30T14:41:14.000Z</time>
      </trkpt>
      <trkpt lat="43.73116" lon="1.43196">
        <ele>170.339988</ele>
        <time>2023-07-30T14:41:15.000Z</time>
      </trkpt>
      <trkpt lat="43.73119" lon="1.43195">
        <ele>170.379618</ele>
        <time>2023-07-30T14:41:16.000Z</time>
      </trkpt>
      <trkpt lat="43.73119" lon="1.43195">
        <ele>170.379618</ele>
        <time>2023-07-30T14:41:16.000Z</time>
      </trkpt>
      <trkpt lat="43.73122" lon="1.43193">
        <ele>170.418872</ele>
        <time>2023-07-30T14:41:17.000Z</time>
      </trkpt>
      <trkpt lat="43.73126" lon="1.43191">
        <ele>170.463841</ele>
        <time>2023-07-30T14:41:18.000Z</time>
      </trkpt>
      <trkpt lat="43.73127" lon="1.43189">
        <ele>170.490059</ele>
        <time>2023-07-30T14:41:19.000Z</time>
      </trkpt>
      <trkpt lat="43.73127" lon="1.43189">
        <ele>170.490059</ele>
        <time>2023-07-30T14:41:19.000Z</time>
      </trkpt>
      <trkpt lat="43.73132" lon="1.43187">
        <ele>170.545774</ele>
        <time>2023-07-30T14:41:20.000Z</time>
      </trkpt>
      <trkpt lat="43.73137" lon="1.43184">
        <ele>170.612898</ele>
        <time>2023-07-30T14:41:21.000Z</time>
      </trkpt>
      <trkpt lat="43.73142" lon="1.43182">
        <ele>170.670554</ele>
        <time>2023-07-30T14:41:22.000Z</time>
      </trkpt>
      <trkpt lat="43.73147" lon="1.43179">
        <ele>170.73713</ele>
        <time>2023-07-30T14:41:23.000Z</time>
      </trkpt>
      <trkpt lat="43.73153" lon="1.43176">
        <ele>170.806727</ele>
        <time>2023-07-30T14:41:24.000Z</time>
      </trkpt>
      <trkpt lat="43.73156" lon="1.43172">
        <ele>170.865507</ele>
        <time>2023-07-30T14:41:25.000Z</time>
      </trkpt>
      <trkpt lat="43.7316" lon="1.43166">
        <ele>170.925876</ele>
        <time>2023-07-30T14:41:26.000Z</time>
      </trkpt>
      <trkpt lat="43.7316" lon="1.43166">
        <ele>170.925876</ele>
        <time>2023-07-30T14:41:26.000Z</time>
      </trkpt>
      <trkpt lat="43.73162" lon="1.43159">
        <ele>170.994378</ele>
        <time>2023-07-30T14:41:26.000Z</time>
      </trkpt>
      <trkpt lat="43.73163" lon="1.43151">
        <ele>171.05727</ele>
        <time>2023-07-30T14:41:27.000Z</time>
      </trkpt>
      <trkpt lat="43.73163" lon="1.43151">
        <ele>171.05727</ele>
        <time>2023-07-30T14:41:27.000Z</time>
      </trkpt>
      <trkpt lat="43.73164" lon="1.43144">
        <ele>171.119122</ele>
        <time>2023-07-30T14:41:28.000Z</time>
      </trkpt>
      <trkpt lat="43.73166" lon="1.43138">
        <ele>171.18043</ele>
        <time>2023-07-30T14:41:30.000Z</time>
      </trkpt>
      <trkpt lat="43.73169" lon="1.43131">
        <ele>171.247482</ele>
        <time>2023-07-30T14:41:30.000Z</time>
      </trkpt>
      <trkpt lat="43.73172" lon="1.43126">
        <ele>171.304161</ele>
        <time>2023-07-30T14:41:31.000Z</time>
      </trkpt>
      <trkpt lat="43.73172" lon="1.43126">
        <ele>171.304161</ele>
        <time>2023-07-30T14:41:31.000Z</time>
      </trkpt>
      <trkpt lat="43.73175" lon="1.43121">
        <ele>171.361583</ele>
        <time>2023-07-30T14:41:32.000Z</time>
      </trkpt>
      <trkpt lat="43.73175" lon="1.43121">
        <ele>171.361583</ele>
        <time>2023-07-30T14:41:32.000Z</time>
      </trkpt>
      <trkpt lat="43.73178" lon="1.43115">
        <ele>171.421318</ele>
        <time>2023-07-30T14:41:33.000Z</time>
      </trkpt>
      <trkpt lat="43.73181" lon="1.4311">
        <ele>171.475861</ele>
        <time>2023-07-30T14:41:35.000Z</time>
      </trkpt>
      <trkpt lat="43.73183" lon="1.43105">
        <ele>171.526959</ele>
        <time>2023-07-30T14:41:35.000Z</time>
      </trkpt>
      <trkpt lat="43.73186" lon="1.431">
        <ele>171.581502</ele>
        <time>2023-07-30T14:41:36.000Z</time>
      </trkpt>
      <trkpt lat="43.73186" lon="1.431">
        <ele>171.581502</ele>
        <time>2023-07-30T14:41:36.000Z</time>
      </trkpt>
      <trkpt lat="43.73188" lon="1.43094">
        <ele>171.637111</ele>
        <time>2023-07-30T14:41:37.000Z</time>
      </trkpt>
      <trkpt lat="43.73188" lon="1.43094">
        <ele>171.637111</ele>
        <time>2023-07-30T14:41:37.000Z</time>
      </trkpt>
      <trkpt lat="43.7319" lon="1.43091">
        <ele>171.694387</ele>
        <time>2023-07-30T14:41:38.000Z</time>
      </trkpt>
      <trkpt lat="43.7319" lon="1.43091">
        <ele>171.694387</ele>
        <time>2023-07-30T14:41:38.000Z</time>
      </trkpt>
      <trkpt lat="43.73192" lon="1.43089">
        <ele>171.751101</ele>
        <time>2023-07-30T14:41:39.000Z</time>
      </trkpt>
      <trkpt lat="43.73193" lon="1.43087">
        <ele>171.793707</ele>
        <time>2023-07-30T14:41:41.000Z</time>
      </trkpt>
      <trkpt lat="43.73196" lon="1.43087">
        <ele>171.851381</ele>
        <time>2023-07-30T14:41:42.000Z</time>
      </trkpt>
      <trkpt lat="43.73196" lon="1.43087">
        <ele>171.851381</ele>
        <time>2023-07-30T14:41:42.000Z</time>
      </trkpt>
      <trkpt lat="43.73198" lon="1.43087">
        <ele>171.902487</ele>
        <time>2023-07-30T14:41:43.000Z</time>
      </trkpt>
      <trkpt lat="43.732" lon="1.43088">
        <ele>171.945834</ele>
        <time>2023-07-30T14:41:44.000Z</time>
      </trkpt>
      <trkpt lat="43.732" lon="1.43088">
        <ele>171.945834</ele>
        <time>2023-07-30T14:41:44.000Z</time>
      </trkpt>
      <trkpt lat="43.73204" lon="1.43088">
        <ele>172.038552</ele>
        <time>2023-07-30T14:41:46.000Z</time>
      </trkpt>
      <trkpt lat="43.73204" lon="1.43088">
        <ele>172.038552</ele>
        <time>2023-07-30T14:41:46.000Z</time>
      </trkpt>
      <trkpt lat="43.73205" lon="1.43087">
        <ele>172.066986</ele>
        <time>2023-07-30T14:41:47.000Z</time>
      </trkpt>
      <trkpt lat="43.73207" lon="1.43085">
        <ele>172.112907</ele>
        <time>2023-07-30T14:41:48.000Z</time>
      </trkpt>
      <trkpt lat="43.73207" lon="1.43085">
        <ele>172.112907</ele>
        <time>2023-07-30T14:41:48.000Z</time>
      </trkpt>
      <trkpt lat="43.73209" lon="1.43084">
        <ele>172.161132</ele>
        <time>2023-07-30T14:41:49.000Z</time>
      </trkpt>
      <trkpt lat="43.73211" lon="1.43082">
        <ele>172.214781</ele>
        <time>2023-07-30T14:41:51.000Z</time>
      </trkpt>
      <trkpt lat="43.73212" lon="1.43082">
        <ele>172.24241</ele>
        <time>2023-07-30T14:41:52.000Z</time>
      </trkpt>
      <trkpt lat="43.73212" lon="1.43082">
        <ele>172.24241</ele>
        <time>2023-07-30T14:41:52.000Z</time>
      </trkpt>
      <trkpt lat="43.73215" lon="1.4308">
        <ele>172.308779</ele>
        <time>2023-07-30T14:41:53.000Z</time>
      </trkpt>
      <trkpt lat="43.73215" lon="1.4308">
        <ele>172.308779</ele>
        <time>2023-07-30T14:41:53.000Z</time>
      </trkpt>
      <trkpt lat="43.73216" lon="1.43078">
        <ele>172.344429</ele>
        <time>2023-07-30T14:41:54.000Z</time>
      </trkpt>
      <trkpt lat="43.73216" lon="1.43078">
        <ele>172.344429</ele>
        <time>2023-07-30T14:41:54.000Z</time>
      </trkpt>
      <trkpt lat="43.73219" lon="1.43075">
        <ele>172.428916</ele>
        <time>2023-07-30T14:41:55.000Z</time>
      </trkpt>
      <trkpt lat="43.73219" lon="1.43075">
        <ele>172.428916</ele>
        <time>2023-07-30T14:41:55.000Z</time>
      </trkpt>
      <trkpt lat="43.73221" lon="1.43072">
        <ele>172.50311</ele>
        <time>2023-07-30T14:41:57.000Z</time>
      </trkpt>
      <trkpt lat="43.73223" lon="1.43069">
        <ele>172.561227</ele>
        <time>2023-07-30T14:41:57.000Z</time>
      </trkpt>
      <trkpt lat="43.73223" lon="1.43069">
        <ele>172.561227</ele>
        <time>2023-07-30T14:41:57.000Z</time>
      </trkpt>
      <trkpt lat="43.73225" lon="1.43065">
        <ele>172.646126</ele>
        <time>2023-07-30T14:41:59.000Z</time>
      </trkpt>
      <trkpt lat="43.73225" lon="1.43065">
        <ele>172.646126</ele>
        <time>2023-07-30T14:41:59.000Z</time>
      </trkpt>
      <trkpt lat="43.73227" lon="1.43062">
        <ele>172.704243</ele>
        <time>2023-07-30T14:41:59.000Z</time>
      </trkpt>
      <trkpt lat="43.73227" lon="1.43062">
        <ele>172.704243</ele>
        <time>2023-07-30T14:41:59.000Z</time>
      </trkpt>
      <trkpt lat="43.73228" lon="1.43059">
        <ele>172.760267</ele>
        <time>2023-07-30T14:42:00.000Z</time>
      </trkpt>
      <trkpt lat="43.73228" lon="1.43059">
        <ele>172.760267</ele>
        <time>2023-07-30T14:42:00.000Z</time>
      </trkpt>
      <trkpt lat="43.73229" lon="1.43055">
        <ele>172.818161</ele>
        <time>2023-07-30T14:42:02.000Z</time>
      </trkpt>
      <trkpt lat="43.73229" lon="1.43055">
        <ele>172.818161</ele>
        <time>2023-07-30T14:42:02.000Z</time>
      </trkpt>
      <trkpt lat="43.73231" lon="1.43053">
        <ele>172.869927</ele>
        <time>2023-07-30T14:42:03.000Z</time>
      </trkpt>
      <trkpt lat="43.73232" lon="1.43051">
        <ele>172.919652</ele>
        <time>2023-07-30T14:42:04.000Z</time>
      </trkpt>
      <trkpt lat="43.73232" lon="1.43051">
        <ele>172.919652</ele>
        <time>2023-07-30T14:42:04.000Z</time>
      </trkpt>
      <trkpt lat="43.73234" lon="1.43048">
        <ele>172.984409</ele>
        <time>2023-07-30T14:42:06.000Z</time>
      </trkpt>
      <trkpt lat="43.73237" lon="1.43044">
        <ele>173.062186</ele>
        <time>2023-07-30T14:42:07.000Z</time>
      </trkpt>
      <trkpt lat="43.73237" lon="1.43044">
        <ele>173.062186</ele>
        <time>2023-07-30T14:42:07.000Z</time>
      </trkpt>
      <trkpt lat="43.73239" lon="1.43042">
        <ele>173.115668</ele>
        <time>2023-07-30T14:42:08.000Z</time>
      </trkpt>
      <trkpt lat="43.73242" lon="1.43039">
        <ele>173.207223</ele>
        <time>2023-07-30T14:42:09.000Z</time>
      </trkpt>
      <trkpt lat="43.73242" lon="1.43039">
        <ele>173.207223</ele>
        <time>2023-07-30T14:42:09.000Z</time>
      </trkpt>
      <trkpt lat="43.73244" lon="1.43036">
        <ele>173.267261</ele>
        <time>2023-07-30T14:42:10.000Z</time>
      </trkpt>
      <trkpt lat="43.73246" lon="1.43033">
        <ele>173.338279</ele>
        <time>2023-07-30T14:42:11.000Z</time>
      </trkpt>
      <trkpt lat="43.73246" lon="1.43033">
        <ele>173.338279</ele>
        <time>2023-07-30T14:42:11.000Z</time>
      </trkpt>
      <trkpt lat="43.73248" lon="1.43029">
        <ele>173.42223</ele>
        <time>2023-07-30T14:42:13.000Z</time>
      </trkpt>
      <trkpt lat="43.73249" lon="1.43026">
        <ele>173.468859</ele>
        <time>2023-07-30T14:42:14.000Z</time>
      </trkpt>
      <trkpt lat="43.73249" lon="1.43026">
        <ele>173.468859</ele>
        <time>2023-07-30T14:42:14.000Z</time>
      </trkpt>
      <trkpt lat="43.73253" lon="1.4302">
        <ele>173.588019</ele>
        <time>2023-07-30T14:42:15.000Z</time>
      </trkpt>
      <trkpt lat="43.73255" lon="1.43017">
        <ele>173.657757</ele>
        <time>2023-07-30T14:42:16.000Z</time>
      </trkpt>
      <trkpt lat="43.73258" lon="1.43013">
        <ele>173.755115</ele>
        <time>2023-07-30T14:42:17.000Z</time>
      </trkpt>
      <trkpt lat="43.73261" lon="1.43011">
        <ele>173.814168</ele>
        <time>2023-07-30T14:42:18.000Z</time>
      </trkpt>
      <trkpt lat="43.73261" lon="1.43011">
        <ele>173.814168</ele>
        <time>2023-07-30T14:42:18.000Z</time>
      </trkpt>
      <trkpt lat="43.73265" lon="1.43008">
        <ele>173.922254</ele>
        <time>2023-07-30T14:42:20.000Z</time>
      </trkpt>
      <trkpt lat="43.73265" lon="1.43008">
        <ele>173.922254</ele>
        <time>2023-07-30T14:42:20.000Z</time>
      </trkpt>
      <trkpt lat="43.73267" lon="1.43006">
        <ele>173.98214</ele>
        <time>2023-07-30T14:42:21.000Z</time>
      </trkpt>
      <trkpt lat="43.73274" lon="1.42997">
        <ele>174.180393</ele>
        <time>2023-07-30T14:42:23.000Z</time>
      </trkpt>
      <trkpt lat="43.73276" lon="1.42993">
        <ele>174.261477</ele>
        <time>2023-07-30T14:42:24.000Z</time>
      </trkpt>
      <trkpt lat="43.7328" lon="1.42988">
        <ele>174.392285</ele>
        <time>2023-07-30T14:42:25.000Z</time>
      </trkpt>
      <trkpt lat="43.73288" lon="1.42975">
        <ele>174.652053</ele>
        <time>2023-07-30T14:42:27.000Z</time>
      </trkpt>
      <trkpt lat="43.73288" lon="1.42975">
        <ele>174.652053</ele>
        <time>2023-07-30T14:42:27.000Z</time>
      </trkpt>
      <trkpt lat="43.73292" lon="1.42969">
        <ele>174.77953</ele>
        <time>2023-07-30T14:42:28.000Z</time>
      </trkpt>
      <trkpt lat="43.73294" lon="1.42965">
        <ele>174.867633</ele>
        <time>2023-07-30T14:42:29.000Z</time>
      </trkpt>
      <trkpt lat="43.73298" lon="1.4296">
        <ele>174.976265</ele>
        <time>2023-07-30T14:42:31.000Z</time>
      </trkpt>
      <trkpt lat="43.73298" lon="1.4296">
        <ele>174.976265</ele>
        <time>2023-07-30T14:42:31.000Z</time>
      </trkpt>
      <trkpt lat="43.73302" lon="1.42953">
        <ele>175.11447</ele>
        <time>2023-07-30T14:42:32.000Z</time>
      </trkpt>
      <trkpt lat="43.73307" lon="1.42944">
        <ele>175.312407</ele>
        <time>2023-07-30T14:42:33.000Z</time>
      </trkpt>
      <trkpt lat="43.73307" lon="1.42944">
        <ele>175.312407</ele>
        <time>2023-07-30T14:42:33.000Z</time>
      </trkpt>
      <trkpt lat="43.73311" lon="1.42934">
        <ele>175.478459</ele>
        <time>2023-07-30T14:42:34.000Z</time>
      </trkpt>
      <trkpt lat="43.73311" lon="1.42934">
        <ele>175.478459</ele>
        <time>2023-07-30T14:42:34.000Z</time>
      </trkpt>
      <trkpt lat="43.73313" lon="1.42928">
        <ele>175.592326</ele>
        <time>2023-07-30T14:42:36.000Z</time>
      </trkpt>
      <trkpt lat="43.73313" lon="1.42928">
        <ele>175.592326</ele>
        <time>2023-07-30T14:42:36.000Z</time>
      </trkpt>
      <trkpt lat="43.73317" lon="1.42917">
        <ele>175.760732</ele>
        <time>2023-07-30T14:42:38.000Z</time>
      </trkpt>
      <trkpt lat="43.73319" lon="1.42912">
        <ele>175.821229</ele>
        <time>2023-07-30T14:42:39.000Z</time>
      </trkpt>
      <trkpt lat="43.7332" lon="1.42907">
        <ele>175.888501</ele>
        <time>2023-07-30T14:42:40.000Z</time>
      </trkpt>
      <trkpt lat="43.7332" lon="1.42907">
        <ele>175.888501</ele>
        <time>2023-07-30T14:42:40.000Z</time>
      </trkpt>
      <trkpt lat="43.73322" lon="1.42902">
        <ele>175.971361</ele>
        <time>2023-07-30T14:42:41.000Z</time>
      </trkpt>
      <trkpt lat="43.73324" lon="1.42899">
        <ele>176.025638</ele>
        <time>2023-07-30T14:42:43.000Z</time>
      </trkpt>
      <trkpt lat="43.73327" lon="1.42894">
        <ele>176.107498</ele>
        <time>2023-07-30T14:42:44.000Z</time>
      </trkpt>
      <trkpt lat="43.73329" lon="1.4289">
        <ele>176.16433</ele>
        <time>2023-07-30T14:42:45.000Z</time>
      </trkpt>
      <trkpt lat="43.73329" lon="1.4289">
        <ele>176.16433</ele>
        <time>2023-07-30T14:42:45.000Z</time>
      </trkpt>
      <trkpt lat="43.73332" lon="1.42887">
        <ele>176.229316</ele>
        <time>2023-07-30T14:42:46.000Z</time>
      </trkpt>
      <trkpt lat="43.73335" lon="1.42883">
        <ele>176.295968</ele>
        <time>2023-07-30T14:42:47.000Z</time>
      </trkpt>
      <trkpt lat="43.7334" lon="1.42876">
        <ele>176.433355</ele>
        <time>2023-07-30T14:42:49.000Z</time>
      </trkpt>
      <trkpt lat="43.7334" lon="1.42876">
        <ele>176.433355</ele>
        <time>2023-07-30T14:42:49.000Z</time>
      </trkpt>
      <trkpt lat="43.73344" lon="1.42873">
        <ele>176.505977</ele>
        <time>2023-07-30T14:42:50.000Z</time>
      </trkpt>
      <trkpt lat="43.73344" lon="1.42873">
        <ele>176.505977</ele>
        <time>2023-07-30T14:42:50.000Z</time>
      </trkpt>
      <trkpt lat="43.73348" lon="1.42871">
        <ele>176.586388</ele>
        <time>2023-07-30T14:42:51.000Z</time>
      </trkpt>
      <trkpt lat="43.73352" lon="1.42868">
        <ele>176.66722</ele>
        <time>2023-07-30T14:42:52.000Z</time>
      </trkpt>
      <trkpt lat="43.73352" lon="1.42868">
        <ele>176.66722</ele>
        <time>2023-07-30T14:42:52.000Z</time>
      </trkpt>
      <trkpt lat="43.73356" lon="1.42866">
        <ele>176.748114</ele>
        <time>2023-07-30T14:42:53.000Z</time>
      </trkpt>
      <trkpt lat="43.73356" lon="1.42866">
        <ele>176.748114</ele>
        <time>2023-07-30T14:42:53.000Z</time>
      </trkpt>
      <trkpt lat="43.7336" lon="1.42865">
        <ele>176.823282</ele>
        <time>2023-07-30T14:42:55.000Z</time>
      </trkpt>
      <trkpt lat="43.7336" lon="1.42865">
        <ele>176.823282</ele>
        <time>2023-07-30T14:42:55.000Z</time>
      </trkpt>
      <trkpt lat="43.73364" lon="1.42865">
        <ele>176.879199</ele>
        <time>2023-07-30T14:42:56.000Z</time>
      </trkpt>
      <trkpt lat="43.73364" lon="1.42865">
        <ele>176.879199</ele>
        <time>2023-07-30T14:42:56.000Z</time>
      </trkpt>
      <trkpt lat="43.73367" lon="1.42865">
        <ele>176.940069</ele>
        <time>2023-07-30T14:42:57.000Z</time>
      </trkpt>
      <trkpt lat="43.73367" lon="1.42865">
        <ele>176.940069</ele>
        <time>2023-07-30T14:42:57.000Z</time>
      </trkpt>
      <trkpt lat="43.73371" lon="1.42867">
        <ele>177.012912</ele>
        <time>2023-07-30T14:42:58.000Z</time>
      </trkpt>
      <trkpt lat="43.73371" lon="1.42867">
        <ele>177.012912</ele>
        <time>2023-07-30T14:42:58.000Z</time>
      </trkpt>
      <trkpt lat="43.73375" lon="1.42871">
        <ele>177.10699</ele>
        <time>2023-07-30T14:42:59.000Z</time>
      </trkpt>
      <trkpt lat="43.73375" lon="1.42871">
        <ele>177.10699</ele>
        <time>2023-07-30T14:42:59.000Z</time>
      </trkpt>
      <trkpt lat="43.7338" lon="1.42876">
        <ele>177.214593</ele>
        <time>2023-07-30T14:43:00.000Z</time>
      </trkpt>
      <trkpt lat="43.7338" lon="1.42876">
        <ele>177.214593</ele>
        <time>2023-07-30T14:43:00.000Z</time>
      </trkpt>
      <trkpt lat="43.73384" lon="1.42879">
        <ele>177.296574</ele>
        <time>2023-07-30T14:43:02.000Z</time>
      </trkpt>
      <trkpt lat="43.73384" lon="1.42879">
        <ele>177.296574</ele>
        <time>2023-07-30T14:43:02.000Z</time>
      </trkpt>
      <trkpt lat="43.73388" lon="1.42883">
        <ele>177.374376</ele>
        <time>2023-07-30T14:43:02.000Z</time>
      </trkpt>
      <trkpt lat="43.73388" lon="1.42883">
        <ele>177.374376</ele>
        <time>2023-07-30T14:43:02.000Z</time>
      </trkpt>
      <trkpt lat="43.73391" lon="1.42887">
        <ele>177.448098</ele>
        <time>2023-07-30T14:43:04.000Z</time>
      </trkpt>
      <trkpt lat="43.73391" lon="1.42887">
        <ele>177.448098</ele>
        <time>2023-07-30T14:43:04.000Z</time>
      </trkpt>
      <trkpt lat="43.73394" lon="1.4289">
        <ele>177.513989</ele>
        <time>2023-07-30T14:43:05.000Z</time>
      </trkpt>
      <trkpt lat="43.73394" lon="1.4289">
        <ele>177.513989</ele>
        <time>2023-07-30T14:43:05.000Z</time>
      </trkpt>
      <trkpt lat="43.73396" lon="1.42891">
        <ele>177.566796</ele>
        <time>2023-07-30T14:43:06.000Z</time>
      </trkpt>
      <trkpt lat="43.73399" lon="1.42893">
        <ele>177.62239</ele>
        <time>2023-07-30T14:43:07.000Z</time>
      </trkpt>
      <trkpt lat="43.73399" lon="1.42893">
        <ele>177.62239</ele>
        <time>2023-07-30T14:43:07.000Z</time>
      </trkpt>
      <trkpt lat="43.73401" lon="1.42893">
        <ele>177.650874</ele>
        <time>2023-07-30T14:43:09.000Z</time>
      </trkpt>
      <trkpt lat="43.73402" lon="1.42894">
        <ele>177.679979</ele>
        <time>2023-07-30T14:43:09.000Z</time>
      </trkpt>
      <trkpt lat="43.73404" lon="1.42892">
        <ele>177.72171</ele>
        <time>2023-07-30T14:43:10.000Z</time>
      </trkpt>
      <trkpt lat="43.73404" lon="1.42892">
        <ele>177.72171</ele>
        <time>2023-07-30T14:43:10.000Z</time>
      </trkpt>
      <trkpt lat="43.73406" lon="1.42889">
        <ele>177.762529</ele>
        <time>2023-07-30T14:43:11.000Z</time>
      </trkpt>
      <trkpt lat="43.73406" lon="1.42889">
        <ele>177.762529</ele>
        <time>2023-07-30T14:43:11.000Z</time>
      </trkpt>
      <trkpt lat="43.73409" lon="1.42881">
        <ele>177.887307</ele>
        <time>2023-07-30T14:43:13.000Z</time>
      </trkpt>
      <trkpt lat="43.73409" lon="1.42881">
        <ele>177.887307</ele>
        <time>2023-07-30T14:43:13.000Z</time>
      </trkpt>
      <trkpt lat="43.7341" lon="1.42876">
        <ele>177.944773</ele>
        <time>2023-07-30T14:43:14.000Z</time>
      </trkpt>
      <trkpt lat="43.73412" lon="1.42871">
        <ele>178.028752</ele>
        <time>2023-07-30T14:43:15.000Z</time>
      </trkpt>
      <trkpt lat="43.73417" lon="1.4286">
        <ele>178.189438</ele>
        <time>2023-07-30T14:43:18.000Z</time>
      </trkpt>
      <trkpt lat="43.73417" lon="1.4286">
        <ele>178.189438</ele>
        <time>2023-07-30T14:43:18.000Z</time>
      </trkpt>
      <trkpt lat="43.73422" lon="1.42852">
        <ele>178.31664</ele>
        <time>2023-07-30T14:43:20.000Z</time>
      </trkpt>
      <trkpt lat="43.73425" lon="1.42847">
        <ele>178.406313</ele>
        <time>2023-07-30T14:43:20.000Z</time>
      </trkpt>
      <trkpt lat="43.73426" lon="1.4284">
        <ele>178.494128</ele>
        <time>2023-07-30T14:43:21.000Z</time>
      </trkpt>
      <trkpt lat="43.73428" lon="1.42833">
        <ele>178.585419</ele>
        <time>2023-07-30T14:43:23.000Z</time>
      </trkpt>
      <trkpt lat="43.73428" lon="1.4283">
        <ele>178.634816</ele>
        <time>2023-07-30T14:43:23.000Z</time>
      </trkpt>
      <trkpt lat="43.73427" lon="1.42824">
        <ele>178.706983</ele>
        <time>2023-07-30T14:43:26.000Z</time>
      </trkpt>
      <trkpt lat="43.73426" lon="1.42819">
        <ele>178.774215</ele>
        <time>2023-07-30T14:43:26.000Z</time>
      </trkpt>
      <trkpt lat="43.73426" lon="1.42819">
        <ele>178.774215</ele>
        <time>2023-07-30T14:43:26.000Z</time>
      </trkpt>
      <trkpt lat="43.73423" lon="1.42813">
        <ele>178.665635</ele>
        <time>2023-07-30T14:43:28.000Z</time>
      </trkpt>
      <trkpt lat="43.73423" lon="1.42813">
        <ele>178.665635</ele>
        <time>2023-07-30T14:43:28.000Z</time>
      </trkpt>
      <trkpt lat="43.7342" lon="1.42805">
        <ele>178.387131</ele>
        <time>2023-07-30T14:43:28.000Z</time>
      </trkpt>
      <trkpt lat="43.7342" lon="1.42805">
        <ele>178.387131</ele>
        <time>2023-07-30T14:43:28.000Z</time>
      </trkpt>
      <trkpt lat="43.73417" lon="1.42798">
        <ele>178.125843</ele>
        <time>2023-07-30T14:43:29.000Z</time>
      </trkpt>
      <trkpt lat="43.73417" lon="1.42798">
        <ele>178.125843</ele>
        <time>2023-07-30T14:43:29.000Z</time>
      </trkpt>
      <trkpt lat="43.73414" lon="1.42792">
        <ele>177.896683</ele>
        <time>2023-07-30T14:43:30.000Z</time>
      </trkpt>
      <trkpt lat="43.73414" lon="1.42792">
        <ele>177.896683</ele>
        <time>2023-07-30T14:43:30.000Z</time>
      </trkpt>
      <trkpt lat="43.73412" lon="1.42785">
        <ele>177.661787</ele>
        <time>2023-07-30T14:43:31.000Z</time>
      </trkpt>
      <trkpt lat="43.73412" lon="1.42785">
        <ele>177.661787</ele>
        <time>2023-07-30T14:43:31.000Z</time>
      </trkpt>
      <trkpt lat="43.73408" lon="1.42772">
        <ele>177.193312</ele>
        <time>2023-07-30T14:43:33.000Z</time>
      </trkpt>
      <trkpt lat="43.73408" lon="1.42772">
        <ele>177.193312</ele>
        <time>2023-07-30T14:43:33.000Z</time>
      </trkpt>
      <trkpt lat="43.73406" lon="1.42767">
        <ele>177.032947</ele>
        <time>2023-07-30T14:43:34.000Z</time>
      </trkpt>
      <trkpt lat="43.73406" lon="1.42767">
        <ele>177.032947</ele>
        <time>2023-07-30T14:43:34.000Z</time>
      </trkpt>
      <trkpt lat="43.73405" lon="1.42763">
        <ele>176.89612</ele>
        <time>2023-07-30T14:43:37.000Z</time>
      </trkpt>
      <trkpt lat="43.73405" lon="1.42763">
        <ele>176.89612</ele>
        <time>2023-07-30T14:43:37.000Z</time>
      </trkpt>
      <trkpt lat="43.73402" lon="1.42758">
        <ele>176.693239</ele>
        <time>2023-07-30T14:43:38.000Z</time>
      </trkpt>
      <trkpt lat="43.73402" lon="1.42758">
        <ele>176.693239</ele>
        <time>2023-07-30T14:43:38.000Z</time>
      </trkpt>
      <trkpt lat="43.73401" lon="1.42751">
        <ele>176.481333</ele>
        <time>2023-07-30T14:43:39.000Z</time>
      </trkpt>
      <trkpt lat="43.73401" lon="1.42751">
        <ele>176.481333</ele>
        <time>2023-07-30T14:43:39.000Z</time>
      </trkpt>
      <trkpt lat="43.73401" lon="1.42745">
        <ele>176.277242</ele>
        <time>2023-07-30T14:43:40.000Z</time>
      </trkpt>
      <trkpt lat="43.73401" lon="1.42745">
        <ele>176.277242</ele>
        <time>2023-07-30T14:43:40.000Z</time>
      </trkpt>
      <trkpt lat="43.73401" lon="1.42738">
        <ele>176.05243</ele>
        <time>2023-07-30T14:43:41.000Z</time>
      </trkpt>
      <trkpt lat="43.73401" lon="1.42738">
        <ele>176.05243</ele>
        <time>2023-07-30T14:43:41.000Z</time>
      </trkpt>
      <trkpt lat="43.73404" lon="1.42731">
        <ele>175.814501</ele>
        <time>2023-07-30T14:43:43.000Z</time>
      </trkpt>
      <trkpt lat="43.73404" lon="1.42731">
        <ele>175.814501</ele>
        <time>2023-07-30T14:43:43.000Z</time>
      </trkpt>
      <trkpt lat="43.73407" lon="1.42724">
        <ele>175.560304</ele>
        <time>2023-07-30T14:43:44.000Z</time>
      </trkpt>
      <trkpt lat="43.73407" lon="1.42724">
        <ele>175.560304</ele>
        <time>2023-07-30T14:43:44.000Z</time>
      </trkpt>
      <trkpt lat="43.7341" lon="1.42719">
        <ele>175.34321</ele>
        <time>2023-07-30T14:43:45.000Z</time>
      </trkpt>
      <trkpt lat="43.7341" lon="1.42719">
        <ele>175.34321</ele>
        <time>2023-07-30T14:43:45.000Z</time>
      </trkpt>
      <trkpt lat="43.73413" lon="1.42715">
        <ele>175.185715</ele>
        <time>2023-07-30T14:43:46.000Z</time>
      </trkpt>
      <trkpt lat="43.73413" lon="1.42715">
        <ele>175.185715</ele>
        <time>2023-07-30T14:43:46.000Z</time>
      </trkpt>
      <trkpt lat="43.73415" lon="1.42711">
        <ele>175.018339</ele>
        <time>2023-07-30T14:43:47.000Z</time>
      </trkpt>
      <trkpt lat="43.73415" lon="1.42711">
        <ele>175.018339</ele>
        <time>2023-07-30T14:43:47.000Z</time>
      </trkpt>
      <trkpt lat="43.7342" lon="1.42701">
        <ele>174.653163</ele>
        <time>2023-07-30T14:43:49.000Z</time>
      </trkpt>
      <trkpt lat="43.7342" lon="1.42701">
        <ele>174.653163</ele>
        <time>2023-07-30T14:43:49.000Z</time>
      </trkpt>
      <trkpt lat="43.73425" lon="1.42692">
        <ele>174.305591</ele>
        <time>2023-07-30T14:43:51.000Z</time>
      </trkpt>
      <trkpt lat="43.73425" lon="1.4269">
        <ele>174.222901</ele>
        <time>2023-07-30T14:43:52.000Z</time>
      </trkpt>
      <trkpt lat="43.73425" lon="1.4269">
        <ele>174.222901</ele>
        <time>2023-07-30T14:43:52.000Z</time>
      </trkpt>
      <trkpt lat="43.73427" lon="1.42686">
        <ele>174.075745</ele>
        <time>2023-07-30T14:43:53.000Z</time>
      </trkpt>
      <trkpt lat="43.73427" lon="1.42686">
        <ele>174.075745</ele>
        <time>2023-07-30T14:43:53.000Z</time>
      </trkpt>
      <trkpt lat="43.7343" lon="1.42681">
        <ele>173.882957</ele>
        <time>2023-07-30T14:43:54.000Z</time>
      </trkpt>
      <trkpt lat="43.73435" lon="1.4267">
        <ele>173.49453</ele>
        <time>2023-07-30T14:43:56.000Z</time>
      </trkpt>
      <trkpt lat="43.73435" lon="1.4267">
        <ele>173.49453</ele>
        <time>2023-07-30T14:43:56.000Z</time>
      </trkpt>
      <trkpt lat="43.73438" lon="1.42665">
        <ele>173.294198</ele>
        <time>2023-07-30T14:43:57.000Z</time>
      </trkpt>
      <trkpt lat="43.73438" lon="1.42665">
        <ele>173.294198</ele>
        <time>2023-07-30T14:43:57.000Z</time>
      </trkpt>
      <trkpt lat="43.73441" lon="1.42659">
        <ele>173.063434</ele>
        <time>2023-07-30T14:43:58.000Z</time>
      </trkpt>
      <trkpt lat="43.73441" lon="1.42659">
        <ele>173.063434</ele>
        <time>2023-07-30T14:43:58.000Z</time>
      </trkpt>
      <trkpt lat="43.73444" lon="1.42652">
        <ele>172.811499</ele>
        <time>2023-07-30T14:43:59.000Z</time>
      </trkpt>
      <trkpt lat="43.73444" lon="1.42652">
        <ele>172.811499</ele>
        <time>2023-07-30T14:43:59.000Z</time>
      </trkpt>
      <trkpt lat="43.73448" lon="1.42639">
        <ele>172.36884</ele>
        <time>2023-07-30T14:44:01.000Z</time>
      </trkpt>
      <trkpt lat="43.73448" lon="1.42639">
        <ele>172.36884</ele>
        <time>2023-07-30T14:44:01.000Z</time>
      </trkpt>
      <trkpt lat="43.73449" lon="1.42634">
        <ele>172.196573</ele>
        <time>2023-07-30T14:44:02.000Z</time>
      </trkpt>
      <trkpt lat="43.73449" lon="1.42634">
        <ele>172.196573</ele>
        <time>2023-07-30T14:44:02.000Z</time>
      </trkpt>
      <trkpt lat="43.73452" lon="1.42621">
        <ele>171.765317</ele>
        <time>2023-07-30T14:44:03.000Z</time>
      </trkpt>
      <trkpt lat="43.73452" lon="1.42621">
        <ele>171.765317</ele>
        <time>2023-07-30T14:44:03.000Z</time>
      </trkpt>
      <trkpt lat="43.73454" lon="1.42614">
        <ele>171.533892</ele>
        <time>2023-07-30T14:44:04.000Z</time>
      </trkpt>
      <trkpt lat="43.73454" lon="1.42614">
        <ele>171.533892</ele>
        <time>2023-07-30T14:44:04.000Z</time>
      </trkpt>
      <trkpt lat="43.73457" lon="1.42597">
        <ele>170.981717</ele>
        <time>2023-07-30T14:44:05.000Z</time>
      </trkpt>
      <trkpt lat="43.73457" lon="1.42597">
        <ele>170.981717</ele>
        <time>2023-07-30T14:44:05.000Z</time>
      </trkpt>
      <trkpt lat="43.7346" lon="1.42588">
        <ele>170.611395</ele>
        <time>2023-07-30T14:44:06.000Z</time>
      </trkpt>
      <trkpt lat="43.7346" lon="1.42588">
        <ele>170.611395</ele>
        <time>2023-07-30T14:44:06.000Z</time>
      </trkpt>
      <trkpt lat="43.73461" lon="1.42583">
        <ele>170.416477</ele>
        <time>2023-07-30T14:44:07.000Z</time>
      </trkpt>
      <trkpt lat="43.73461" lon="1.42583">
        <ele>170.416477</ele>
        <time>2023-07-30T14:44:07.000Z</time>
      </trkpt>
      <trkpt lat="43.73464" lon="1.4257">
        <ele>169.884978</ele>
        <time>2023-07-30T14:44:08.000Z</time>
      </trkpt>
      <trkpt lat="43.73464" lon="1.4257">
        <ele>169.884978</ele>
        <time>2023-07-30T14:44:08.000Z</time>
      </trkpt>
      <trkpt lat="43.73467" lon="1.4256">
        <ele>169.48539</ele>
        <time>2023-07-30T14:44:09.000Z</time>
      </trkpt>
      <trkpt lat="43.73467" lon="1.4256">
        <ele>169.48539</ele>
        <time>2023-07-30T14:44:09.000Z</time>
      </trkpt>
      <trkpt lat="43.73471" lon="1.42551">
        <ele>169.08261</ele>
        <time>2023-07-30T14:44:10.000Z</time>
      </trkpt>
      <trkpt lat="43.73471" lon="1.42551">
        <ele>169.08261</ele>
        <time>2023-07-30T14:44:10.000Z</time>
      </trkpt>
      <trkpt lat="43.73475" lon="1.42542">
        <ele>168.6899</ele>
        <time>2023-07-30T14:44:11.000Z</time>
      </trkpt>
      <trkpt lat="43.73475" lon="1.42542">
        <ele>168.6899</ele>
        <time>2023-07-30T14:44:11.000Z</time>
      </trkpt>
      <trkpt lat="43.7348" lon="1.42531">
        <ele>168.189075</ele>
        <time>2023-07-30T14:44:12.000Z</time>
      </trkpt>
      <trkpt lat="43.7348" lon="1.42531">
        <ele>168.189075</ele>
        <time>2023-07-30T14:44:12.000Z</time>
      </trkpt>
      <trkpt lat="43.73485" lon="1.42522">
        <ele>167.76732</ele>
        <time>2023-07-30T14:44:13.000Z</time>
      </trkpt>
      <trkpt lat="43.7349" lon="1.42514">
        <ele>167.37793</ele>
        <time>2023-07-30T14:44:14.000Z</time>
      </trkpt>
      <trkpt lat="43.7349" lon="1.42514">
        <ele>167.37793</ele>
        <time>2023-07-30T14:44:14.000Z</time>
      </trkpt>
      <trkpt lat="43.73494" lon="1.42508">
        <ele>167.04376</ele>
        <time>2023-07-30T14:44:15.000Z</time>
      </trkpt>
      <trkpt lat="43.73498" lon="1.42501">
        <ele>166.750306</ele>
        <time>2023-07-30T14:44:16.000Z</time>
      </trkpt>
      <trkpt lat="43.73499" lon="1.42498">
        <ele>166.613391</ele>
        <time>2023-07-30T14:44:17.000Z</time>
      </trkpt>
      <trkpt lat="43.73499" lon="1.42498">
        <ele>166.613391</ele>
        <time>2023-07-30T14:44:17.000Z</time>
      </trkpt>
      <trkpt lat="43.735" lon="1.42494">
        <ele>166.432682</ele>
        <time>2023-07-30T14:44:18.000Z</time>
      </trkpt>
      <trkpt lat="43.735" lon="1.4249">
        <ele>166.297056</ele>
        <time>2023-07-30T14:44:19.000Z</time>
      </trkpt>
      <trkpt lat="43.735" lon="1.42487">
        <ele>166.17471</ele>
        <time>2023-07-30T14:44:19.000Z</time>
      </trkpt>
      <trkpt lat="43.735" lon="1.42487">
        <ele>166.17471</ele>
        <time>2023-07-30T14:44:19.000Z</time>
      </trkpt>
      <trkpt lat="43.73499" lon="1.42483">
        <ele>166.011376</ele>
        <time>2023-07-30T14:44:21.000Z</time>
      </trkpt>
      <trkpt lat="43.73499" lon="1.42483">
        <ele>166.011376</ele>
        <time>2023-07-30T14:44:21.000Z</time>
      </trkpt>
      <trkpt lat="43.73498" lon="1.42476">
        <ele>165.774517</ele>
        <time>2023-07-30T14:44:22.000Z</time>
      </trkpt>
      <trkpt lat="43.73498" lon="1.42476">
        <ele>165.774517</ele>
        <time>2023-07-30T14:44:22.000Z</time>
      </trkpt>
      <trkpt lat="43.73498" lon="1.42468">
        <ele>165.438573</ele>
        <time>2023-07-30T14:44:23.000Z</time>
      </trkpt>
      <trkpt lat="43.73498" lon="1.42468">
        <ele>165.438573</ele>
        <time>2023-07-30T14:44:23.000Z</time>
      </trkpt>
      <trkpt lat="43.73497" lon="1.4246">
        <ele>165.145502</ele>
        <time>2023-07-30T14:44:24.000Z</time>
      </trkpt>
      <trkpt lat="43.73497" lon="1.4246">
        <ele>165.145502</ele>
        <time>2023-07-30T14:44:24.000Z</time>
      </trkpt>
      <trkpt lat="43.73497" lon="1.42455">
        <ele>164.974692</ele>
        <time>2023-07-30T14:44:25.000Z</time>
      </trkpt>
      <trkpt lat="43.73497" lon="1.42455">
        <ele>164.974692</ele>
        <time>2023-07-30T14:44:25.000Z</time>
      </trkpt>
      <trkpt lat="43.73496" lon="1.42446">
        <ele>164.608663</ele>
        <time>2023-07-30T14:44:26.000Z</time>
      </trkpt>
      <trkpt lat="43.73496" lon="1.42446">
        <ele>164.608663</ele>
        <time>2023-07-30T14:44:26.000Z</time>
      </trkpt>
      <trkpt lat="43.73496" lon="1.42431">
        <ele>164.065935</ele>
        <time>2023-07-30T14:44:27.000Z</time>
      </trkpt>
      <trkpt lat="43.73496" lon="1.42431">
        <ele>164.065935</ele>
        <time>2023-07-30T14:44:27.000Z</time>
      </trkpt>
      <trkpt lat="43.73496" lon="1.42422">
        <ele>163.733751</ele>
        <time>2023-07-30T14:44:28.000Z</time>
      </trkpt>
      <trkpt lat="43.73496" lon="1.42422">
        <ele>163.733751</ele>
        <time>2023-07-30T14:44:28.000Z</time>
      </trkpt>
      <trkpt lat="43.73494" lon="1.42414">
        <ele>163.422246</ele>
        <time>2023-07-30T14:44:29.000Z</time>
      </trkpt>
      <trkpt lat="43.73494" lon="1.42414">
        <ele>163.422246</ele>
        <time>2023-07-30T14:44:29.000Z</time>
      </trkpt>
      <trkpt lat="43.73493" lon="1.42405">
        <ele>163.078365</ele>
        <time>2023-07-30T14:44:30.000Z</time>
      </trkpt>
      <trkpt lat="43.73493" lon="1.42405">
        <ele>163.078365</ele>
        <time>2023-07-30T14:44:30.000Z</time>
      </trkpt>
      <trkpt lat="43.73492" lon="1.42396">
        <ele>162.723052</ele>
        <time>2023-07-30T14:44:31.000Z</time>
      </trkpt>
      <trkpt lat="43.73492" lon="1.42396">
        <ele>162.723052</ele>
        <time>2023-07-30T14:44:31.000Z</time>
      </trkpt>
      <trkpt lat="43.73491" lon="1.42392">
        <ele>162.566691</ele>
        <time>2023-07-30T14:44:32.000Z</time>
      </trkpt>
      <trkpt lat="43.73491" lon="1.42392">
        <ele>162.566691</ele>
        <time>2023-07-30T14:44:32.000Z</time>
      </trkpt>
      <trkpt lat="43.73487" lon="1.42376">
        <ele>161.910671</ele>
        <time>2023-07-30T14:44:33.000Z</time>
      </trkpt>
      <trkpt lat="43.73487" lon="1.42376">
        <ele>161.910671</ele>
        <time>2023-07-30T14:44:33.000Z</time>
      </trkpt>
      <trkpt lat="43.73486" lon="1.42372">
        <ele>161.775959</ele>
        <time>2023-07-30T14:44:34.000Z</time>
      </trkpt>
      <trkpt lat="43.73486" lon="1.42372">
        <ele>161.775959</ele>
        <time>2023-07-30T14:44:34.000Z</time>
      </trkpt>
      <trkpt lat="43.73482" lon="1.42357">
        <ele>162.185953</ele>
        <time>2023-07-30T14:44:35.000Z</time>
      </trkpt>
      <trkpt lat="43.73482" lon="1.42357">
        <ele>162.185953</ele>
        <time>2023-07-30T14:44:35.000Z</time>
      </trkpt>
      <trkpt lat="43.73479" lon="1.4235">
        <ele>162.542922</ele>
        <time>2023-07-30T14:44:36.000Z</time>
      </trkpt>
      <trkpt lat="43.73479" lon="1.4235">
        <ele>162.542922</ele>
        <time>2023-07-30T14:44:36.000Z</time>
      </trkpt>
      <trkpt lat="43.73477" lon="1.42345">
        <ele>162.822565</ele>
        <time>2023-07-30T14:44:37.000Z</time>
      </trkpt>
      <trkpt lat="43.73477" lon="1.42345">
        <ele>162.822565</ele>
        <time>2023-07-30T14:44:37.000Z</time>
      </trkpt>
      <trkpt lat="43.73475" lon="1.4234">
        <ele>163.079697</ele>
        <time>2023-07-30T14:44:38.000Z</time>
      </trkpt>
      <trkpt lat="43.73475" lon="1.4234">
        <ele>163.079697</ele>
        <time>2023-07-30T14:44:38.000Z</time>
      </trkpt>
      <trkpt lat="43.73475" lon="1.4234">
        <ele>163.079697</ele>
        <time>2023-07-30T14:44:39.000Z</time>
      </trkpt>
      <trkpt lat="43.73472" lon="1.42332">
        <ele>163.470882</ele>
        <time>2023-07-30T14:44:40.000Z</time>
      </trkpt>
      <trkpt lat="43.73472" lon="1.42332">
        <ele>163.470882</ele>
        <time>2023-07-30T14:44:40.000Z</time>
      </trkpt>
      <trkpt lat="43.73472" lon="1.42332">
        <ele>163.470882</ele>
        <time>2023-07-30T14:44:41.000Z</time>
      </trkpt>
      <trkpt lat="43.73472" lon="1.42328">
        <ele>163.630693</ele>
        <time>2023-07-30T14:44:42.000Z</time>
      </trkpt>
      <trkpt lat="43.73472" lon="1.42328">
        <ele>163.630693</ele>
        <time>2023-07-30T14:44:42.000Z</time>
      </trkpt>
      <trkpt lat="43.73472" lon="1.42324">
        <ele>163.799002</ele>
        <time>2023-07-30T14:44:44.000Z</time>
      </trkpt>
      <trkpt lat="43.73472" lon="1.42324">
        <ele>163.799002</ele>
        <time>2023-07-30T14:44:44.000Z</time>
      </trkpt>
      <trkpt lat="43.73474" lon="1.42323">
        <ele>163.934456</ele>
        <time>2023-07-30T14:44:45.000Z</time>
      </trkpt>
      <trkpt lat="43.73476" lon="1.42322">
        <ele>164.037843</ele>
        <time>2023-07-30T14:44:46.000Z</time>
      </trkpt>
      <trkpt lat="43.7348" lon="1.42318">
        <ele>164.318561</ele>
        <time>2023-07-30T14:44:48.000Z</time>
      </trkpt>
      <trkpt lat="43.7348" lon="1.42318">
        <ele>164.318561</ele>
        <time>2023-07-30T14:44:48.000Z</time>
      </trkpt>
      <trkpt lat="43.73481" lon="1.42316">
        <ele>164.429169</ele>
        <time>2023-07-30T14:44:48.000Z</time>
      </trkpt>
      <trkpt lat="43.73481" lon="1.42316">
        <ele>164.429169</ele>
        <time>2023-07-30T14:44:48.000Z</time>
      </trkpt>
      <trkpt lat="43.73485" lon="1.42312">
        <ele>164.752656</ele>
        <time>2023-07-30T14:44:51.000Z</time>
      </trkpt>
      <trkpt lat="43.73486" lon="1.42311">
        <ele>164.82898</ele>
        <time>2023-07-30T14:44:52.000Z</time>
      </trkpt>
      <trkpt lat="43.73486" lon="1.42311">
        <ele>164.82898</ele>
        <time>2023-07-30T14:44:52.000Z</time>
      </trkpt>
      <trkpt lat="43.73488" lon="1.42312">
        <ele>164.964762</ele>
        <time>2023-07-30T14:44:53.000Z</time>
      </trkpt>
      <trkpt lat="43.73492" lon="1.4231">
        <ele>165.213787</ele>
        <time>2023-07-30T14:44:55.000Z</time>
      </trkpt>
      <trkpt lat="43.73492" lon="1.4231">
        <ele>165.213787</ele>
        <time>2023-07-30T14:44:55.000Z</time>
      </trkpt>
      <trkpt lat="43.73493" lon="1.4231">
        <ele>165.282069</ele>
        <time>2023-07-30T14:44:56.000Z</time>
      </trkpt>
      <trkpt lat="43.73493" lon="1.4231">
        <ele>165.282069</ele>
        <time>2023-07-30T14:44:56.000Z</time>
      </trkpt>
      <trkpt lat="43.73495" lon="1.42309">
        <ele>165.398535</ele>
        <time>2023-07-30T14:44:57.000Z</time>
      </trkpt>
      <trkpt lat="43.73497" lon="1.4231">
        <ele>165.545362</ele>
        <time>2023-07-30T14:44:59.000Z</time>
      </trkpt>
      <trkpt lat="43.73499" lon="1.42311">
        <ele>165.63933</ele>
        <time>2023-07-30T14:45:00.000Z</time>
      </trkpt>
      <trkpt lat="43.73499" lon="1.42311">
        <ele>165.63933</ele>
        <time>2023-07-30T14:45:00.000Z</time>
      </trkpt>
      <trkpt lat="43.735" lon="1.42311">
        <ele>165.691134</ele>
        <time>2023-07-30T14:45:01.000Z</time>
      </trkpt>
      <trkpt lat="43.73502" lon="1.42315">
        <ele>165.927899</ele>
        <time>2023-07-30T14:45:03.000Z</time>
      </trkpt>
      <trkpt lat="43.73502" lon="1.42315">
        <ele>165.927899</ele>
        <time>2023-07-30T14:45:03.000Z</time>
      </trkpt>
      <trkpt lat="43.73504" lon="1.42318">
        <ele>166.056333</ele>
        <time>2023-07-30T14:45:04.000Z</time>
      </trkpt>
      <trkpt lat="43.73504" lon="1.42318">
        <ele>166.056333</ele>
        <time>2023-07-30T14:45:04.000Z</time>
      </trkpt>
      <trkpt lat="43.73505" lon="1.4232">
        <ele>166.199332</ele>
        <time>2023-07-30T14:45:05.000Z</time>
      </trkpt>
      <trkpt lat="43.73505" lon="1.4232">
        <ele>166.199332</ele>
        <time>2023-07-30T14:45:05.000Z</time>
      </trkpt>
      <trkpt lat="43.73506" lon="1.42322">
        <ele>166.303801</ele>
        <time>2023-07-30T14:45:06.000Z</time>
      </trkpt>
      <trkpt lat="43.73506" lon="1.42322">
        <ele>166.303801</ele>
        <time>2023-07-30T14:45:06.000Z</time>
      </trkpt>
      <trkpt lat="43.73506" lon="1.42322">
        <ele>166.303801</ele>
        <time>2023-07-30T14:45:07.000Z</time>
      </trkpt>
      <trkpt lat="43.73506" lon="1.42322">
        <ele>166.303801</ele>
        <time>2023-07-30T14:45:08.000Z</time>
      </trkpt>
      <trkpt lat="43.7351" lon="1.42329">
        <ele>166.720182</ele>
        <time>2023-07-30T14:45:10.000Z</time>
      </trkpt>
      <trkpt lat="43.7351" lon="1.42329">
        <ele>166.720182</ele>
        <time>2023-07-30T14:45:10.000Z</time>
      </trkpt>
      <trkpt lat="43.7351" lon="1.42329">
        <ele>166.720182</ele>
        <time>2023-07-30T14:45:11.000Z</time>
      </trkpt>
      <trkpt lat="43.73511" lon="1.42331">
        <ele>166.795102</ele>
        <time>2023-07-30T14:45:12.000Z</time>
      </trkpt>
      <trkpt lat="43.73511" lon="1.42331">
        <ele>166.795102</ele>
        <time>2023-07-30T14:45:12.000Z</time>
      </trkpt>
      <trkpt lat="43.73511" lon="1.42331">
        <ele>166.821505</ele>
        <time>2023-07-30T14:45:14.000Z</time>
      </trkpt>
      <trkpt lat="43.73512" lon="1.42332">
        <ele>166.864316</ele>
        <time>2023-07-30T14:45:15.000Z</time>
      </trkpt>
      <trkpt lat="43.73511" lon="1.42332">
        <ele>166.890219</ele>
        <time>2023-07-30T14:45:16.000Z</time>
      </trkpt>
      <trkpt lat="43.73512" lon="1.42333">
        <ele>166.947862</ele>
        <time>2023-07-30T14:45:17.000Z</time>
      </trkpt>
      <trkpt lat="43.73515" lon="1.42337">
        <ele>167.192592</ele>
        <time>2023-07-30T14:45:18.000Z</time>
      </trkpt>
      <trkpt lat="43.73515" lon="1.42337">
        <ele>167.192592</ele>
        <time>2023-07-30T14:45:18.000Z</time>
      </trkpt>
      <trkpt lat="43.73517" lon="1.42339">
        <ele>167.362869</ele>
        <time>2023-07-30T14:45:20.000Z</time>
      </trkpt>
      <trkpt lat="43.73517" lon="1.42339">
        <ele>167.362869</ele>
        <time>2023-07-30T14:45:20.000Z</time>
      </trkpt>
      <trkpt lat="43.73519" lon="1.42341">
        <ele>167.486709</ele>
        <time>2023-07-30T14:45:21.000Z</time>
      </trkpt>
      <trkpt lat="43.73519" lon="1.42341">
        <ele>167.486709</ele>
        <time>2023-07-30T14:45:21.000Z</time>
      </trkpt>
      <trkpt lat="43.73523" lon="1.42347">
        <ele>167.86392</ele>
        <time>2023-07-30T14:45:23.000Z</time>
      </trkpt>
      <trkpt lat="43.73523" lon="1.42347">
        <ele>167.86392</ele>
        <time>2023-07-30T14:45:23.000Z</time>
      </trkpt>
      <trkpt lat="43.73524" lon="1.4235">
        <ele>167.999683</ele>
        <time>2023-07-30T14:45:24.000Z</time>
      </trkpt>
      <trkpt lat="43.73524" lon="1.4235">
        <ele>167.999683</ele>
        <time>2023-07-30T14:45:24.000Z</time>
      </trkpt>
      <trkpt lat="43.73525" lon="1.42354">
        <ele>168.192141</ele>
        <time>2023-07-30T14:45:25.000Z</time>
      </trkpt>
      <trkpt lat="43.73525" lon="1.42354">
        <ele>168.192141</ele>
        <time>2023-07-30T14:45:25.000Z</time>
      </trkpt>
      <trkpt lat="43.73525" lon="1.42357">
        <ele>168.315355</ele>
        <time>2023-07-30T14:45:27.000Z</time>
      </trkpt>
      <trkpt lat="43.73525" lon="1.42357">
        <ele>168.315355</ele>
        <time>2023-07-30T14:45:27.000Z</time>
      </trkpt>
      <trkpt lat="43.73526" lon="1.42359">
        <ele>168.406675</ele>
        <time>2023-07-30T14:45:28.000Z</time>
      </trkpt>
      <trkpt lat="43.73526" lon="1.42361">
        <ele>168.506504</ele>
        <time>2023-07-30T14:45:29.000Z</time>
      </trkpt>
      <trkpt lat="43.73526" lon="1.42361">
        <ele>168.506504</ele>
        <time>2023-07-30T14:45:29.000Z</time>
      </trkpt>
      <trkpt lat="43.73528" lon="1.42365">
        <ele>168.738411</ele>
        <time>2023-07-30T14:45:30.000Z</time>
      </trkpt>
      <trkpt lat="43.73528" lon="1.42365">
        <ele>168.738411</ele>
        <time>2023-07-30T14:45:30.000Z</time>
      </trkpt>
      <trkpt lat="43.73531" lon="1.4237">
        <ele>169.027806</ele>
        <time>2023-07-30T14:45:31.000Z</time>
      </trkpt>
      <trkpt lat="43.73531" lon="1.4237">
        <ele>169.027806</ele>
        <time>2023-07-30T14:45:31.000Z</time>
      </trkpt>
      <trkpt lat="43.73533" lon="1.42374">
        <ele>169.213796</ele>
        <time>2023-07-30T14:45:33.000Z</time>
      </trkpt>
      <trkpt lat="43.73533" lon="1.42374">
        <ele>169.213796</ele>
        <time>2023-07-30T14:45:33.000Z</time>
      </trkpt>
      <trkpt lat="43.73535" lon="1.42376">
        <ele>169.389225</ele>
        <time>2023-07-30T14:45:34.000Z</time>
      </trkpt>
      <trkpt lat="43.73535" lon="1.42376">
        <ele>169.389225</ele>
        <time>2023-07-30T14:45:34.000Z</time>
      </trkpt>
      <trkpt lat="43.73538" lon="1.42379">
        <ele>169.587192</ele>
        <time>2023-07-30T14:45:35.000Z</time>
      </trkpt>
      <trkpt lat="43.73538" lon="1.42379">
        <ele>169.587192</ele>
        <time>2023-07-30T14:45:35.000Z</time>
      </trkpt>
      <trkpt lat="43.7354" lon="1.42381">
        <ele>169.750325</ele>
        <time>2023-07-30T14:45:36.000Z</time>
      </trkpt>
      <trkpt lat="43.7354" lon="1.42381">
        <ele>169.750325</ele>
        <time>2023-07-30T14:45:36.000Z</time>
      </trkpt>
      <trkpt lat="43.73546" lon="1.42383">
        <ele>170.140371</ele>
        <time>2023-07-30T14:45:37.000Z</time>
      </trkpt>
      <trkpt lat="43.73546" lon="1.42383">
        <ele>170.140371</ele>
        <time>2023-07-30T14:45:37.000Z</time>
      </trkpt>
      <trkpt lat="43.73549" lon="1.42384">
        <ele>170.287198</ele>
        <time>2023-07-30T14:45:39.000Z</time>
      </trkpt>
      <trkpt lat="43.73549" lon="1.42384">
        <ele>170.287198</ele>
        <time>2023-07-30T14:45:39.000Z</time>
      </trkpt>
      <trkpt lat="43.7355" lon="1.42385">
        <ele>170.403248</ele>
        <time>2023-07-30T14:45:40.000Z</time>
      </trkpt>
      <trkpt lat="43.7355" lon="1.42385">
        <ele>170.403248</ele>
        <time>2023-07-30T14:45:40.000Z</time>
      </trkpt>
      <trkpt lat="43.73552" lon="1.42385">
        <ele>170.519299</ele>
        <time>2023-07-30T14:45:41.000Z</time>
      </trkpt>
      <trkpt lat="43.73552" lon="1.42385">
        <ele>170.519299</ele>
        <time>2023-07-30T14:45:41.000Z</time>
      </trkpt>
      <trkpt lat="43.73553" lon="1.42385">
        <ele>170.56822</ele>
        <time>2023-07-30T14:45:43.000Z</time>
      </trkpt>
      <trkpt lat="43.73553" lon="1.42385">
        <ele>170.56822</ele>
        <time>2023-07-30T14:45:43.000Z</time>
      </trkpt>
      <trkpt lat="43.73555" lon="1.42385">
        <ele>170.659997</ele>
        <time>2023-07-30T14:45:44.000Z</time>
      </trkpt>
      <trkpt lat="43.73555" lon="1.42385">
        <ele>170.659997</ele>
        <time>2023-07-30T14:45:44.000Z</time>
      </trkpt>
      <trkpt lat="43.73557" lon="1.42384">
        <ele>170.804431</ele>
        <time>2023-07-30T14:45:45.000Z</time>
      </trkpt>
      <trkpt lat="43.73557" lon="1.42384">
        <ele>170.804431</ele>
        <time>2023-07-30T14:45:45.000Z</time>
      </trkpt>
      <trkpt lat="43.73558" lon="1.42383">
        <ele>170.902334</ele>
        <time>2023-07-30T14:45:46.000Z</time>
      </trkpt>
      <trkpt lat="43.73558" lon="1.42383">
        <ele>170.902334</ele>
        <time>2023-07-30T14:45:46.000Z</time>
      </trkpt>
      <trkpt lat="43.73561" lon="1.42381">
        <ele>171.082989</ele>
        <time>2023-07-30T14:45:47.000Z</time>
      </trkpt>
      <trkpt lat="43.73561" lon="1.42381">
        <ele>171.082989</ele>
        <time>2023-07-30T14:45:47.000Z</time>
      </trkpt>
      <trkpt lat="43.73566" lon="1.42377">
        <ele>171.421059</ele>
        <time>2023-07-30T14:45:49.000Z</time>
      </trkpt>
      <trkpt lat="43.73566" lon="1.42377">
        <ele>171.421059</ele>
        <time>2023-07-30T14:45:49.000Z</time>
      </trkpt>
      <trkpt lat="43.73568" lon="1.42375">
        <ele>171.591335</ele>
        <time>2023-07-30T14:45:50.000Z</time>
      </trkpt>
      <trkpt lat="43.73568" lon="1.42375">
        <ele>171.591335</ele>
        <time>2023-07-30T14:45:50.000Z</time>
      </trkpt>
      <trkpt lat="43.7357" lon="1.42373">
        <ele>171.751642</ele>
        <time>2023-07-30T14:45:51.000Z</time>
      </trkpt>
      <trkpt lat="43.7357" lon="1.42373">
        <ele>171.751642</ele>
        <time>2023-07-30T14:45:51.000Z</time>
      </trkpt>
      <trkpt lat="43.73576" lon="1.42368">
        <ele>172.167801</ele>
        <time>2023-07-30T14:45:53.000Z</time>
      </trkpt>
      <trkpt lat="43.73576" lon="1.42368">
        <ele>172.167801</ele>
        <time>2023-07-30T14:45:53.000Z</time>
      </trkpt>
      <trkpt lat="43.73578" lon="1.42366">
        <ele>172.326602</ele>
        <time>2023-07-30T14:45:54.000Z</time>
      </trkpt>
      <trkpt lat="43.73578" lon="1.42366">
        <ele>172.326602</ele>
        <time>2023-07-30T14:45:54.000Z</time>
      </trkpt>
      <trkpt lat="43.73581" lon="1.42365">
        <ele>172.496513</ele>
        <time>2023-07-30T14:45:55.000Z</time>
      </trkpt>
      <trkpt lat="43.73581" lon="1.42365">
        <ele>172.496513</ele>
        <time>2023-07-30T14:45:55.000Z</time>
      </trkpt>
      <trkpt lat="43.73587" lon="1.42362">
        <ele>172.773368</ele>
        <time>2023-07-30T14:45:57.000Z</time>
      </trkpt>
      <trkpt lat="43.73587" lon="1.42362">
        <ele>172.773368</ele>
        <time>2023-07-30T14:45:57.000Z</time>
      </trkpt>
      <trkpt lat="43.73589" lon="1.42361">
        <ele>172.849138</ele>
        <time>2023-07-30T14:45:58.000Z</time>
      </trkpt>
      <trkpt lat="43.73589" lon="1.42361">
        <ele>172.849138</ele>
        <time>2023-07-30T14:45:58.000Z</time>
      </trkpt>
      <trkpt lat="43.73591" lon="1.42361">
        <ele>172.939422</ele>
        <time>2023-07-30T14:45:59.000Z</time>
      </trkpt>
      <trkpt lat="43.73591" lon="1.42361">
        <ele>172.939422</ele>
        <time>2023-07-30T14:45:59.000Z</time>
      </trkpt>
      <trkpt lat="43.73594" lon="1.42361">
        <ele>173.041321</ele>
        <time>2023-07-30T14:46:00.000Z</time>
      </trkpt>
      <trkpt lat="43.73594" lon="1.42361">
        <ele>173.041321</ele>
        <time>2023-07-30T14:46:00.000Z</time>
      </trkpt>
      <trkpt lat="43.73595" lon="1.42361">
        <ele>173.115811</ele>
        <time>2023-07-30T14:46:02.000Z</time>
      </trkpt>
      <trkpt lat="43.73595" lon="1.42361">
        <ele>173.115811</ele>
        <time>2023-07-30T14:46:02.000Z</time>
      </trkpt>
      <trkpt lat="43.73597" lon="1.42362">
        <ele>173.19284</ele>
        <time>2023-07-30T14:46:03.000Z</time>
      </trkpt>
      <trkpt lat="43.73597" lon="1.42362">
        <ele>173.19284</ele>
        <time>2023-07-30T14:46:03.000Z</time>
      </trkpt>
      <trkpt lat="43.73599" lon="1.42363">
        <ele>173.269868</ele>
        <time>2023-07-30T14:46:03.000Z</time>
      </trkpt>
      <trkpt lat="43.73599" lon="1.42363">
        <ele>173.269868</ele>
        <time>2023-07-30T14:46:03.000Z</time>
      </trkpt>
      <trkpt lat="43.73599" lon="1.42363">
        <ele>173.269868</ele>
        <time>2023-07-30T14:46:05.000Z</time>
      </trkpt>
      <trkpt lat="43.73599" lon="1.42363">
        <ele>173.269868</ele>
        <time>2023-07-30T14:46:13.000Z</time>
      </trkpt>
      <trkpt lat="43.73599" lon="1.42363">
        <ele>173.269868</ele>
        <time>2023-07-30T14:46:14.000Z</time>
      </trkpt>
      <trkpt lat="43.73605" lon="1.42364">
        <ele>173.500054</ele>
        <time>2023-07-30T14:46:14.000Z</time>
      </trkpt>
      <trkpt lat="43.73605" lon="1.42364">
        <ele>173.500054</ele>
        <time>2023-07-30T14:46:16.000Z</time>
      </trkpt>
      <trkpt lat="43.7361" lon="1.42362">
        <ele>173.701014</ele>
        <time>2023-07-30T14:46:17.000Z</time>
      </trkpt>
      <trkpt lat="43.7361" lon="1.42362">
        <ele>173.701014</ele>
        <time>2023-07-30T14:46:17.000Z</time>
      </trkpt>
      <trkpt lat="43.73612" lon="1.42361">
        <ele>173.782834</ele>
        <time>2023-07-30T14:46:19.000Z</time>
      </trkpt>
      <trkpt lat="43.73615" lon="1.42358">
        <ele>173.908548</ele>
        <time>2023-07-30T14:46:20.000Z</time>
      </trkpt>
      <trkpt lat="43.73615" lon="1.42358">
        <ele>173.908548</ele>
        <time>2023-07-30T14:46:20.000Z</time>
      </trkpt>
      <trkpt lat="43.7362" lon="1.42352">
        <ele>174.201525</ele>
        <time>2023-07-30T14:46:22.000Z</time>
      </trkpt>
      <trkpt lat="43.7362" lon="1.42352">
        <ele>174.201525</ele>
        <time>2023-07-30T14:46:22.000Z</time>
      </trkpt>
      <trkpt lat="43.73623" lon="1.42348">
        <ele>174.338962</ele>
        <time>2023-07-30T14:46:23.000Z</time>
      </trkpt>
      <trkpt lat="43.73623" lon="1.42348">
        <ele>174.338962</ele>
        <time>2023-07-30T14:46:23.000Z</time>
      </trkpt>
      <trkpt lat="43.73625" lon="1.42346">
        <ele>174.460854</ele>
        <time>2023-07-30T14:46:24.000Z</time>
      </trkpt>
      <trkpt lat="43.73625" lon="1.42346">
        <ele>174.460854</ele>
        <time>2023-07-30T14:46:24.000Z</time>
      </trkpt>
      <trkpt lat="43.73628" lon="1.42342">
        <ele>174.615803</ele>
        <time>2023-07-30T14:46:25.000Z</time>
      </trkpt>
      <trkpt lat="43.73632" lon="1.42336">
        <ele>174.827156</ele>
        <time>2023-07-30T14:46:26.000Z</time>
      </trkpt>
      <trkpt lat="43.73632" lon="1.42336">
        <ele>174.827156</ele>
        <time>2023-07-30T14:46:26.000Z</time>
      </trkpt>
      <trkpt lat="43.73634" lon="1.42333">
        <ele>174.950972</ele>
        <time>2023-07-30T14:46:27.000Z</time>
      </trkpt>
      <trkpt lat="43.73634" lon="1.42333">
        <ele>174.950972</ele>
        <time>2023-07-30T14:46:27.000Z</time>
      </trkpt>
      <trkpt lat="43.73637" lon="1.4233">
        <ele>175.093067</ele>
        <time>2023-07-30T14:46:29.000Z</time>
      </trkpt>
      <trkpt lat="43.73637" lon="1.4233">
        <ele>175.093067</ele>
        <time>2023-07-30T14:46:29.000Z</time>
      </trkpt>
      <trkpt lat="43.7364" lon="1.42326">
        <ele>175.263019</ele>
        <time>2023-07-30T14:46:30.000Z</time>
      </trkpt>
      <trkpt lat="43.73643" lon="1.42322">
        <ele>175.418575</ele>
        <time>2023-07-30T14:46:31.000Z</time>
      </trkpt>
      <trkpt lat="43.73643" lon="1.42322">
        <ele>175.418575</ele>
        <time>2023-07-30T14:46:31.000Z</time>
      </trkpt>
      <trkpt lat="43.73646" lon="1.42318">
        <ele>175.577112</ele>
        <time>2023-07-30T14:46:32.000Z</time>
      </trkpt>
      <trkpt lat="43.73648" lon="1.42315">
        <ele>175.708951</ele>
        <time>2023-07-30T14:46:33.000Z</time>
      </trkpt>
      <trkpt lat="43.73648" lon="1.42315">
        <ele>175.708951</ele>
        <time>2023-07-30T14:46:33.000Z</time>
      </trkpt>
      <trkpt lat="43.73651" lon="1.42308">
        <ele>175.921737</ele>
        <time>2023-07-30T14:46:35.000Z</time>
      </trkpt>
      <trkpt lat="43.73652" lon="1.42302">
        <ele>176.11713</ele>
        <time>2023-07-30T14:46:36.000Z</time>
      </trkpt>
      <trkpt lat="43.73652" lon="1.42302">
        <ele>176.11713</ele>
        <time>2023-07-30T14:46:36.000Z</time>
      </trkpt>
      <trkpt lat="43.73651" lon="1.42296">
        <ele>176.281492</ele>
        <time>2023-07-30T14:46:37.000Z</time>
      </trkpt>
      <trkpt lat="43.73651" lon="1.42296">
        <ele>176.281492</ele>
        <time>2023-07-30T14:46:37.000Z</time>
      </trkpt>
      <trkpt lat="43.73649" lon="1.42289">
        <ele>176.495809</ele>
        <time>2023-07-30T14:46:38.000Z</time>
      </trkpt>
      <trkpt lat="43.73647" lon="1.42284">
        <ele>176.679373</ele>
        <time>2023-07-30T14:46:39.000Z</time>
      </trkpt>
      <trkpt lat="43.73644" lon="1.42278">
        <ele>176.872582</ele>
        <time>2023-07-30T14:46:40.000Z</time>
      </trkpt>
      <trkpt lat="43.73644" lon="1.42278">
        <ele>176.872582</ele>
        <time>2023-07-30T14:46:40.000Z</time>
      </trkpt>
      <trkpt lat="43.73641" lon="1.42271">
        <ele>177.095409</ele>
        <time>2023-07-30T14:46:41.000Z</time>
      </trkpt>
      <trkpt lat="43.73639" lon="1.42262">
        <ele>177.366257</ele>
        <time>2023-07-30T14:46:42.000Z</time>
      </trkpt>
      <trkpt lat="43.73639" lon="1.42262">
        <ele>177.366257</ele>
        <time>2023-07-30T14:46:42.000Z</time>
      </trkpt>
      <trkpt lat="43.7364" lon="1.42256">
        <ele>177.556711</ele>
        <time>2023-07-30T14:46:43.000Z</time>
      </trkpt>
      <trkpt lat="43.73643" lon="1.42249">
        <ele>177.766492</ele>
        <time>2023-07-30T14:46:44.000Z</time>
      </trkpt>
      <trkpt lat="43.73643" lon="1.42249">
        <ele>177.766492</ele>
        <time>2023-07-30T14:46:44.000Z</time>
      </trkpt>
      <trkpt lat="43.73647" lon="1.42244">
        <ele>177.975846</ele>
        <time>2023-07-30T14:46:45.000Z</time>
      </trkpt>
      <trkpt lat="43.7365" lon="1.4224">
        <ele>178.136216</ele>
        <time>2023-07-30T14:46:46.000Z</time>
      </trkpt>
      <trkpt lat="43.73652" lon="1.42239">
        <ele>178.202721</ele>
        <time>2023-07-30T14:46:47.000Z</time>
      </trkpt>
      <trkpt lat="43.73653" lon="1.42237">
        <ele>178.301612</ele>
        <time>2023-07-30T14:46:48.000Z</time>
      </trkpt>
      <trkpt lat="43.73658" lon="1.42232">
        <ele>178.530758</ele>
        <time>2023-07-30T14:46:50.000Z</time>
      </trkpt>
      <trkpt lat="43.73658" lon="1.42232">
        <ele>178.530758</ele>
        <time>2023-07-30T14:48:10.000Z</time>
      </trkpt>
      <trkpt lat="43.7366" lon="1.4223">
        <ele>178.631607</ele>
        <time>2023-07-30T14:48:12.000Z</time>
      </trkpt>
      <trkpt lat="43.73661" lon="1.42228">
        <ele>178.68947</ele>
        <time>2023-07-30T14:48:14.000Z</time>
      </trkpt>
      <trkpt lat="43.73661" lon="1.42228">
        <ele>178.68947</ele>
        <time>2023-07-30T14:48:14.000Z</time>
      </trkpt>
      <trkpt lat="43.73663" lon="1.42226">
        <ele>178.805812</ele>
        <time>2023-07-30T14:48:14.000Z</time>
      </trkpt>
      <trkpt lat="43.73665" lon="1.42224">
        <ele>178.888406</ele>
        <time>2023-07-30T14:48:16.000Z</time>
      </trkpt>
      <trkpt lat="43.73665" lon="1.42224">
        <ele>178.888406</ele>
        <time>2023-07-30T14:48:16.000Z</time>
      </trkpt>
      <trkpt lat="43.73667" lon="1.42222">
        <ele>178.99642</ele>
        <time>2023-07-30T14:48:16.000Z</time>
      </trkpt>
      <trkpt lat="43.7367" lon="1.42219">
        <ele>179.146252</ele>
        <time>2023-07-30T14:48:18.000Z</time>
      </trkpt>
      <trkpt lat="43.73673" lon="1.42215">
        <ele>179.307499</ele>
        <time>2023-07-30T14:48:19.000Z</time>
      </trkpt>
      <trkpt lat="43.73673" lon="1.42215">
        <ele>179.307499</ele>
        <time>2023-07-30T14:48:19.000Z</time>
      </trkpt>
      <trkpt lat="43.73676" lon="1.42211">
        <ele>179.475483</ele>
        <time>2023-07-30T14:48:20.000Z</time>
      </trkpt>
      <trkpt lat="43.73679" lon="1.42207">
        <ele>179.616601</ele>
        <time>2023-07-30T14:48:21.000Z</time>
      </trkpt>
      <trkpt lat="43.73682" lon="1.42203">
        <ele>179.588585</ele>
        <time>2023-07-30T14:48:22.000Z</time>
      </trkpt>
      <trkpt lat="43.73686" lon="1.42198">
        <ele>179.513618</ele>
        <time>2023-07-30T14:48:23.000Z</time>
      </trkpt>
      <trkpt lat="43.7369" lon="1.42193">
        <ele>179.439358</ele>
        <time>2023-07-30T14:48:25.000Z</time>
      </trkpt>
      <trkpt lat="43.73693" lon="1.42188">
        <ele>179.36594</ele>
        <time>2023-07-30T14:48:26.000Z</time>
      </trkpt>
      <trkpt lat="43.73697" lon="1.42183">
        <ele>179.289534</ele>
        <time>2023-07-30T14:48:27.000Z</time>
      </trkpt>
      <trkpt lat="43.73701" lon="1.42178">
        <ele>179.217352</ele>
        <time>2023-07-30T14:48:28.000Z</time>
      </trkpt>
      <trkpt lat="43.73701" lon="1.42178">
        <ele>179.217352</ele>
        <time>2023-07-30T14:48:28.000Z</time>
      </trkpt>
      <trkpt lat="43.73709" lon="1.42169">
        <ele>179.070595</ele>
        <time>2023-07-30T14:48:30.000Z</time>
      </trkpt>
      <trkpt lat="43.73709" lon="1.42169">
        <ele>179.070595</ele>
        <time>2023-07-30T14:48:30.000Z</time>
      </trkpt>
      <trkpt lat="43.73712" lon="1.42166">
        <ele>179.011182</ele>
        <time>2023-07-30T14:48:31.000Z</time>
      </trkpt>
      <trkpt lat="43.73712" lon="1.42166">
        <ele>179.011182</ele>
        <time>2023-07-30T14:48:31.000Z</time>
      </trkpt>
      <trkpt lat="43.73716" lon="1.42163">
        <ele>178.948631</ele>
        <time>2023-07-30T14:48:32.000Z</time>
      </trkpt>
      <trkpt lat="43.73716" lon="1.42163">
        <ele>178.948631</ele>
        <time>2023-07-30T14:48:32.000Z</time>
      </trkpt>
      <trkpt lat="43.73721" lon="1.42158">
        <ele>178.861588</ele>
        <time>2023-07-30T14:48:33.000Z</time>
      </trkpt>
      <trkpt lat="43.73721" lon="1.42158">
        <ele>178.861588</ele>
        <time>2023-07-30T14:48:33.000Z</time>
      </trkpt>
      <trkpt lat="43.73726" lon="1.42154">
        <ele>178.77742</ele>
        <time>2023-07-30T14:48:34.000Z</time>
      </trkpt>
      <trkpt lat="43.73726" lon="1.42154">
        <ele>178.77742</ele>
        <time>2023-07-30T14:48:34.000Z</time>
      </trkpt>
      <trkpt lat="43.73731" lon="1.42152">
        <ele>178.70848</ele>
        <time>2023-07-30T14:48:35.000Z</time>
      </trkpt>
      <trkpt lat="43.73731" lon="1.42152">
        <ele>178.70848</ele>
        <time>2023-07-30T14:48:35.000Z</time>
      </trkpt>
      <trkpt lat="43.73735" lon="1.42152">
        <ele>178.643931</ele>
        <time>2023-07-30T14:48:36.000Z</time>
      </trkpt>
      <trkpt lat="43.73738" lon="1.42154">
        <ele>178.600623</ele>
        <time>2023-07-30T14:48:37.000Z</time>
      </trkpt>
      <trkpt lat="43.73738" lon="1.42154">
        <ele>178.600623</ele>
        <time>2023-07-30T14:48:37.000Z</time>
      </trkpt>
      <trkpt lat="43.73742" lon="1.42155">
        <ele>178.533494</ele>
        <time>2023-07-30T14:48:38.000Z</time>
      </trkpt>
      <trkpt lat="43.73742" lon="1.42155">
        <ele>178.533494</ele>
        <time>2023-07-30T14:48:38.000Z</time>
      </trkpt>
      <trkpt lat="43.73747" lon="1.42159">
        <ele>178.456364</ele>
        <time>2023-07-30T14:48:39.000Z</time>
      </trkpt>
      <trkpt lat="43.73751" lon="1.42163">
        <ele>178.390522</ele>
        <time>2023-07-30T14:48:41.000Z</time>
      </trkpt>
      <trkpt lat="43.73754" lon="1.42166">
        <ele>178.330547</ele>
        <time>2023-07-30T14:48:42.000Z</time>
      </trkpt>
      <trkpt lat="43.73754" lon="1.42166">
        <ele>178.330547</ele>
        <time>2023-07-30T14:48:42.000Z</time>
      </trkpt>
      <trkpt lat="43.73758" lon="1.4217">
        <ele>178.268062</ele>
        <time>2023-07-30T14:48:43.000Z</time>
      </trkpt>
      <trkpt lat="43.73761" lon="1.42173">
        <ele>178.21026</ele>
        <time>2023-07-30T14:48:44.000Z</time>
      </trkpt>
      <trkpt lat="43.73765" lon="1.42176">
        <ele>178.146661</ele>
        <time>2023-07-30T14:48:45.000Z</time>
      </trkpt>
      <trkpt lat="43.73769" lon="1.42178">
        <ele>178.082079</ele>
        <time>2023-07-30T14:48:46.000Z</time>
      </trkpt>
      <trkpt lat="43.73774" lon="1.4218">
        <ele>178.007943</ele>
        <time>2023-07-30T14:48:47.000Z</time>
      </trkpt>
      <trkpt lat="43.73778" lon="1.4218">
        <ele>177.953571</ele>
        <time>2023-07-30T14:48:48.000Z</time>
      </trkpt>
      <trkpt lat="43.73784" lon="1.4218">
        <ele>177.860627</ele>
        <time>2023-07-30T14:48:50.000Z</time>
      </trkpt>
      <trkpt lat="43.73792" lon="1.42179">
        <ele>177.745054</ele>
        <time>2023-07-30T14:48:51.000Z</time>
      </trkpt>
      <trkpt lat="43.73797" lon="1.42178">
        <ele>177.679717</ele>
        <time>2023-07-30T14:48:52.000Z</time>
      </trkpt>
      <trkpt lat="43.73797" lon="1.42178">
        <ele>177.679717</ele>
        <time>2023-07-30T14:48:52.000Z</time>
      </trkpt>
      <trkpt lat="43.73801" lon="1.42177">
        <ele>177.613428</ele>
        <time>2023-07-30T14:48:53.000Z</time>
      </trkpt>
      <trkpt lat="43.73801" lon="1.42177">
        <ele>177.613428</ele>
        <time>2023-07-30T14:48:53.000Z</time>
      </trkpt>
      <trkpt lat="43.73814" lon="1.42173">
        <ele>177.429473</ele>
        <time>2023-07-30T14:48:55.000Z</time>
      </trkpt>
      <trkpt lat="43.73814" lon="1.42173">
        <ele>177.429473</ele>
        <time>2023-07-30T14:48:55.000Z</time>
      </trkpt>
      <trkpt lat="43.73819" lon="1.42171">
        <ele>177.361124</ele>
        <time>2023-07-30T14:48:56.000Z</time>
      </trkpt>
      <trkpt lat="43.73819" lon="1.42171">
        <ele>177.361124</ele>
        <time>2023-07-30T14:48:56.000Z</time>
      </trkpt>
      <trkpt lat="43.73823" lon="1.42171">
        <ele>177.300356</ele>
        <time>2023-07-30T14:48:57.000Z</time>
      </trkpt>
      <trkpt lat="43.7383" lon="1.42169">
        <ele>177.200324</ele>
        <time>2023-07-30T14:48:58.000Z</time>
      </trkpt>
      <trkpt lat="43.7383" lon="1.42169">
        <ele>177.200324</ele>
        <time>2023-07-30T14:48:58.000Z</time>
      </trkpt>
      <trkpt lat="43.73835" lon="1.42168">
        <ele>177.118172</ele>
        <time>2023-07-30T14:48:59.000Z</time>
      </trkpt>
      <trkpt lat="43.73841" lon="1.42166">
        <ele>177.032866</ele>
        <time>2023-07-30T14:49:00.000Z</time>
      </trkpt>
      <trkpt lat="43.73841" lon="1.42166">
        <ele>177.032866</ele>
        <time>2023-07-30T14:49:00.000Z</time>
      </trkpt>
      <trkpt lat="43.73847" lon="1.42163">
        <ele>176.915769</ele>
        <time>2023-07-30T14:49:01.000Z</time>
      </trkpt>
      <trkpt lat="43.73847" lon="1.42163">
        <ele>176.915769</ele>
        <time>2023-07-30T14:49:01.000Z</time>
      </trkpt>
      <trkpt lat="43.73853" lon="1.4216">
        <ele>176.807034</ele>
        <time>2023-07-30T14:49:02.000Z</time>
      </trkpt>
      <trkpt lat="43.73853" lon="1.4216">
        <ele>176.807034</ele>
        <time>2023-07-30T14:49:02.000Z</time>
      </trkpt>
      <trkpt lat="43.73859" lon="1.42158">
        <ele>176.709765</ele>
        <time>2023-07-30T14:49:03.000Z</time>
      </trkpt>
      <trkpt lat="43.73859" lon="1.42158">
        <ele>176.709765</ele>
        <time>2023-07-30T14:49:03.000Z</time>
      </trkpt>
      <trkpt lat="43.73864" lon="1.42154">
        <ele>176.606995</ele>
        <time>2023-07-30T14:49:04.000Z</time>
      </trkpt>
      <trkpt lat="43.73864" lon="1.42154">
        <ele>176.606995</ele>
        <time>2023-07-30T14:49:04.000Z</time>
      </trkpt>
      <trkpt lat="43.7387" lon="1.42151">
        <ele>176.496802</ele>
        <time>2023-07-30T14:49:05.000Z</time>
      </trkpt>
      <trkpt lat="43.73875" lon="1.42149">
        <ele>176.399967</ele>
        <time>2023-07-30T14:49:06.000Z</time>
      </trkpt>
      <trkpt lat="43.73875" lon="1.42149">
        <ele>176.399967</ele>
        <time>2023-07-30T14:49:06.000Z</time>
      </trkpt>
      <trkpt lat="43.7388" lon="1.42146">
        <ele>176.316519</ele>
        <time>2023-07-30T14:49:07.000Z</time>
      </trkpt>
      <trkpt lat="43.73885" lon="1.42144">
        <ele>176.231785</ele>
        <time>2023-07-30T14:49:08.000Z</time>
      </trkpt>
      <trkpt lat="43.7389" lon="1.42142">
        <ele>176.143069</ele>
        <time>2023-07-30T14:49:09.000Z</time>
      </trkpt>
      <trkpt lat="43.7389" lon="1.42142">
        <ele>176.143069</ele>
        <time>2023-07-30T14:49:09.000Z</time>
      </trkpt>
      <trkpt lat="43.73895" lon="1.42139">
        <ele>176.05311</ele>
        <time>2023-07-30T14:49:10.000Z</time>
      </trkpt>
      <trkpt lat="43.73895" lon="1.42139">
        <ele>176.05311</ele>
        <time>2023-07-30T14:49:10.000Z</time>
      </trkpt>
      <trkpt lat="43.739" lon="1.42137">
        <ele>175.950588</ele>
        <time>2023-07-30T14:49:11.000Z</time>
      </trkpt>
      <trkpt lat="43.73906" lon="1.42134">
        <ele>175.845121</ele>
        <time>2023-07-30T14:49:12.000Z</time>
      </trkpt>
      <trkpt lat="43.73912" lon="1.42131">
        <ele>175.728024</ele>
        <time>2023-07-30T14:49:13.000Z</time>
      </trkpt>
      <trkpt lat="43.73912" lon="1.42131">
        <ele>175.728024</ele>
        <time>2023-07-30T14:49:13.000Z</time>
      </trkpt>
      <trkpt lat="43.73919" lon="1.42128">
        <ele>175.612352</ele>
        <time>2023-07-30T14:49:14.000Z</time>
      </trkpt>
      <trkpt lat="43.73919" lon="1.42128">
        <ele>175.612352</ele>
        <time>2023-07-30T14:49:14.000Z</time>
      </trkpt>
      <trkpt lat="43.73925" lon="1.42126">
        <ele>175.503617</ele>
        <time>2023-07-30T14:49:15.000Z</time>
      </trkpt>
      <trkpt lat="43.73925" lon="1.42126">
        <ele>175.503617</ele>
        <time>2023-07-30T14:49:15.000Z</time>
      </trkpt>
      <trkpt lat="43.73931" lon="1.42124">
        <ele>175.40364</ele>
        <time>2023-07-30T14:49:16.000Z</time>
      </trkpt>
      <trkpt lat="43.73931" lon="1.42124">
        <ele>175.40364</ele>
        <time>2023-07-30T14:49:16.000Z</time>
      </trkpt>
      <trkpt lat="43.73935" lon="1.42124">
        <ele>175.324613</ele>
        <time>2023-07-30T14:49:17.000Z</time>
      </trkpt>
      <trkpt lat="43.73935" lon="1.42124">
        <ele>175.324613</ele>
        <time>2023-07-30T14:49:17.000Z</time>
      </trkpt>
      <trkpt lat="43.7394" lon="1.42124">
        <ele>175.245265</ele>
        <time>2023-07-30T14:49:18.000Z</time>
      </trkpt>
      <trkpt lat="43.73942" lon="1.42125">
        <ele>175.212664</ele>
        <time>2023-07-30T14:49:19.000Z</time>
      </trkpt>
      <trkpt lat="43.73945" lon="1.42126">
        <ele>175.149795</ele>
        <time>2023-07-30T14:49:20.000Z</time>
      </trkpt>
      <trkpt lat="43.73945" lon="1.42126">
        <ele>175.149795</ele>
        <time>2023-07-30T14:49:20.000Z</time>
      </trkpt>
      <trkpt lat="43.7395" lon="1.4213">
        <ele>175.057943</ele>
        <time>2023-07-30T14:49:21.000Z</time>
      </trkpt>
      <trkpt lat="43.73953" lon="1.42133">
        <ele>174.989835</ele>
        <time>2023-07-30T14:49:22.000Z</time>
      </trkpt>
      <trkpt lat="43.73953" lon="1.42133">
        <ele>174.989835</ele>
        <time>2023-07-30T14:49:22.000Z</time>
      </trkpt>
      <trkpt lat="43.73956" lon="1.42136">
        <ele>174.93859</ele>
        <time>2023-07-30T14:49:22.000Z</time>
      </trkpt>
      <trkpt lat="43.73957" lon="1.42139">
        <ele>174.885342</ele>
        <time>2023-07-30T14:49:24.000Z</time>
      </trkpt>
      <trkpt lat="43.73957" lon="1.42139">
        <ele>174.885342</ele>
        <time>2023-07-30T14:49:24.000Z</time>
      </trkpt>
      <trkpt lat="43.73959" lon="1.42144">
        <ele>174.81017</ele>
        <time>2023-07-30T14:49:25.000Z</time>
      </trkpt>
      <trkpt lat="43.73959" lon="1.42144">
        <ele>174.81017</ele>
        <time>2023-07-30T14:49:25.000Z</time>
      </trkpt>
      <trkpt lat="43.7396" lon="1.42149">
        <ele>174.757981</ele>
        <time>2023-07-30T14:49:25.000Z</time>
      </trkpt>
      <trkpt lat="43.7396" lon="1.42151">
        <ele>174.729878</ele>
        <time>2023-07-30T14:49:27.000Z</time>
      </trkpt>
      <trkpt lat="43.73958" lon="1.42155">
        <ele>174.667437</ele>
        <time>2023-07-30T14:49:28.000Z</time>
      </trkpt>
      <trkpt lat="43.73957" lon="1.42159">
        <ele>174.623541</ele>
        <time>2023-07-30T14:49:28.000Z</time>
      </trkpt>
      <trkpt lat="43.73955" lon="1.42164">
        <ele>174.543486</ele>
        <time>2023-07-30T14:49:30.000Z</time>
      </trkpt>
      <trkpt lat="43.73955" lon="1.42164">
        <ele>174.543486</ele>
        <time>2023-07-30T14:49:30.000Z</time>
      </trkpt>
      <trkpt lat="43.73953" lon="1.4217">
        <ele>174.458013</ele>
        <time>2023-07-30T14:49:32.000Z</time>
      </trkpt>
      <trkpt lat="43.7395" lon="1.42176">
        <ele>174.374612</ele>
        <time>2023-07-30T14:49:33.000Z</time>
      </trkpt>
      <trkpt lat="43.73948" lon="1.42181">
        <ele>174.300625</ele>
        <time>2023-07-30T14:49:34.000Z</time>
      </trkpt>
      <trkpt lat="43.73946" lon="1.42192">
        <ele>174.161145</ele>
        <time>2023-07-30T14:49:34.000Z</time>
      </trkpt>
      <trkpt lat="43.73946" lon="1.42192">
        <ele>174.161145</ele>
        <time>2023-07-30T14:49:34.000Z</time>
      </trkpt>
      <trkpt lat="43.73944" lon="1.42199">
        <ele>174.071981</ele>
        <time>2023-07-30T14:49:37.000Z</time>
      </trkpt>
      <trkpt lat="43.73943" lon="1.42204">
        <ele>174.003694</ele>
        <time>2023-07-30T14:49:38.000Z</time>
      </trkpt>
      <trkpt lat="43.73942" lon="1.42209">
        <ele>173.993724</ele>
        <time>2023-07-30T14:49:39.000Z</time>
      </trkpt>
      <trkpt lat="43.73942" lon="1.42209">
        <ele>173.993724</ele>
        <time>2023-07-30T14:49:39.000Z</time>
      </trkpt>
      <trkpt lat="43.73941" lon="1.42215">
        <ele>174.00405</ele>
        <time>2023-07-30T14:49:40.000Z</time>
      </trkpt>
      <trkpt lat="43.7394" lon="1.42218">
        <ele>174.010536</ele>
        <time>2023-07-30T14:49:41.000Z</time>
      </trkpt>
      <trkpt lat="43.73936" lon="1.42224">
        <ele>174.025335</ele>
        <time>2023-07-30T14:49:42.000Z</time>
      </trkpt>
      <trkpt lat="43.73933" lon="1.42229">
        <ele>174.037913</ele>
        <time>2023-07-30T14:49:43.000Z</time>
      </trkpt>
      <trkpt lat="43.73929" lon="1.42234">
        <ele>174.051122</ele>
        <time>2023-07-30T14:49:45.000Z</time>
      </trkpt>
      <trkpt lat="43.73926" lon="1.4224">
        <ele>174.063539</ele>
        <time>2023-07-30T14:49:46.000Z</time>
      </trkpt>
      <trkpt lat="43.73923" lon="1.42244">
        <ele>174.074894</ele>
        <time>2023-07-30T14:49:47.000Z</time>
      </trkpt>
      <trkpt lat="43.7392" lon="1.42247">
        <ele>174.083899</ele>
        <time>2023-07-30T14:49:48.000Z</time>
      </trkpt>
      <trkpt lat="43.7392" lon="1.42247">
        <ele>174.083899</ele>
        <time>2023-07-30T14:49:48.000Z</time>
      </trkpt>
      <trkpt lat="43.73918" lon="1.42249">
        <ele>174.091035</ele>
        <time>2023-07-30T14:49:49.000Z</time>
      </trkpt>
      <trkpt lat="43.73914" lon="1.42251">
        <ele>174.101288</ele>
        <time>2023-07-30T14:49:51.000Z</time>
      </trkpt>
      <trkpt lat="43.7391" lon="1.42253">
        <ele>174.112687</ele>
        <time>2023-07-30T14:49:52.000Z</time>
      </trkpt>
      <trkpt lat="43.7391" lon="1.42253">
        <ele>174.112687</ele>
        <time>2023-07-30T14:49:52.000Z</time>
      </trkpt>
      <trkpt lat="43.73906" lon="1.42255">
        <ele>174.122218</ele>
        <time>2023-07-30T14:49:53.000Z</time>
      </trkpt>
      <trkpt lat="43.73901" lon="1.42259">
        <ele>174.137127</ele>
        <time>2023-07-30T14:49:54.000Z</time>
      </trkpt>
      <trkpt lat="43.73897" lon="1.42262">
        <ele>174.149108</ele>
        <time>2023-07-30T14:49:56.000Z</time>
      </trkpt>
      <trkpt lat="43.73897" lon="1.42262">
        <ele>174.149108</ele>
        <time>2023-07-30T14:49:56.000Z</time>
      </trkpt>
      <trkpt lat="43.73894" lon="1.42266">
        <ele>174.160577</ele>
        <time>2023-07-30T14:49:57.000Z</time>
      </trkpt>
      <trkpt lat="43.7389" lon="1.42271">
        <ele>174.172974</ele>
        <time>2023-07-30T14:49:58.000Z</time>
      </trkpt>
      <trkpt lat="43.7389" lon="1.42271">
        <ele>174.172974</ele>
        <time>2023-07-30T14:49:58.000Z</time>
      </trkpt>
      <trkpt lat="43.73887" lon="1.42275">
        <ele>174.185983</ele>
        <time>2023-07-30T14:49:59.000Z</time>
      </trkpt>
      <trkpt lat="43.73884" lon="1.42278">
        <ele>174.19312</ele>
        <time>2023-07-30T14:50:00.000Z</time>
      </trkpt>
      <trkpt lat="43.73884" lon="1.42278">
        <ele>174.19312</ele>
        <time>2023-07-30T14:50:00.000Z</time>
      </trkpt>
      <trkpt lat="43.73881" lon="1.42281">
        <ele>174.203102</ele>
        <time>2023-07-30T14:50:01.000Z</time>
      </trkpt>
      <trkpt lat="43.73877" lon="1.42283">
        <ele>174.214773</ele>
        <time>2023-07-30T14:50:03.000Z</time>
      </trkpt>
      <trkpt lat="43.73875" lon="1.42286">
        <ele>174.222157</ele>
        <time>2023-07-30T14:50:04.000Z</time>
      </trkpt>
      <trkpt lat="43.73875" lon="1.42286">
        <ele>174.222157</ele>
        <time>2023-07-30T14:50:04.000Z</time>
      </trkpt>
      <trkpt lat="43.73871" lon="1.42289">
        <ele>174.233072</ele>
        <time>2023-07-30T14:50:05.000Z</time>
      </trkpt>
      <trkpt lat="43.73869" lon="1.42292">
        <ele>174.241481</ele>
        <time>2023-07-30T14:50:06.000Z</time>
      </trkpt>
      <trkpt lat="43.73869" lon="1.42292">
        <ele>174.241481</ele>
        <time>2023-07-30T14:50:06.000Z</time>
      </trkpt>
      <trkpt lat="43.73867" lon="1.42296">
        <ele>174.249703</ele>
        <time>2023-07-30T14:50:07.000Z</time>
      </trkpt>
      <trkpt lat="43.73865" lon="1.423">
        <ele>174.259604</ele>
        <time>2023-07-30T14:50:08.000Z</time>
      </trkpt>
      <trkpt lat="43.73865" lon="1.423">
        <ele>174.259604</ele>
        <time>2023-07-30T14:50:08.000Z</time>
      </trkpt>
      <trkpt lat="43.73863" lon="1.42305">
        <ele>174.270023</ele>
        <time>2023-07-30T14:50:09.000Z</time>
      </trkpt>
      <trkpt lat="43.73861" lon="1.4231">
        <ele>174.279956</ele>
        <time>2023-07-30T14:50:11.000Z</time>
      </trkpt>
      <trkpt lat="43.73857" lon="1.42319">
        <ele>174.299407</ele>
        <time>2023-07-30T14:50:12.000Z</time>
      </trkpt>
      <trkpt lat="43.73857" lon="1.42319">
        <ele>174.299407</ele>
        <time>2023-07-30T14:50:12.000Z</time>
      </trkpt>
      <trkpt lat="43.73855" lon="1.42323">
        <ele>174.308235</ele>
        <time>2023-07-30T14:50:14.000Z</time>
      </trkpt>
      <trkpt lat="43.7385" lon="1.42331">
        <ele>174.327577</ele>
        <time>2023-07-30T14:50:15.000Z</time>
      </trkpt>
      <trkpt lat="43.73848" lon="1.42335">
        <ele>174.336406</ele>
        <time>2023-07-30T14:50:17.000Z</time>
      </trkpt>
      <trkpt lat="43.73846" lon="1.42338">
        <ele>174.343357</ele>
        <time>2023-07-30T14:50:18.000Z</time>
      </trkpt>
      <trkpt lat="43.73844" lon="1.42342">
        <ele>174.353523</ele>
        <time>2023-07-30T14:50:19.000Z</time>
      </trkpt>
      <trkpt lat="43.73842" lon="1.42347">
        <ele>174.363689</ele>
        <time>2023-07-30T14:50:20.000Z</time>
      </trkpt>
      <trkpt lat="43.73839" lon="1.42352">
        <ele>174.375409</ele>
        <time>2023-07-30T14:50:21.000Z</time>
      </trkpt>
      <trkpt lat="43.73834" lon="1.4236">
        <ele>174.394094</ele>
        <time>2023-07-30T14:50:23.000Z</time>
      </trkpt>
      <trkpt lat="43.73834" lon="1.4236">
        <ele>174.394094</ele>
        <time>2023-07-30T14:50:23.000Z</time>
      </trkpt>
      <trkpt lat="43.73832" lon="1.42361">
        <ele>174.400931</ele>
        <time>2023-07-30T14:50:25.000Z</time>
      </trkpt>
      <trkpt lat="43.73829" lon="1.42363">
        <ele>174.409013</ele>
        <time>2023-07-30T14:50:26.000Z</time>
      </trkpt>
      <trkpt lat="43.73829" lon="1.42363">
        <ele>174.409013</ele>
        <time>2023-07-30T14:50:26.000Z</time>
      </trkpt>
      <trkpt lat="43.73825" lon="1.42363">
        <ele>174.418741</ele>
        <time>2023-07-30T14:50:27.000Z</time>
      </trkpt>
      <trkpt lat="43.73821" lon="1.42364">
        <ele>174.428468</ele>
        <time>2023-07-30T14:50:28.000Z</time>
      </trkpt>
      <trkpt lat="43.73817" lon="1.42364">
        <ele>174.438466</ele>
        <time>2023-07-30T14:50:29.000Z</time>
      </trkpt>
      <trkpt lat="43.73817" lon="1.42364">
        <ele>174.438466</ele>
        <time>2023-07-30T14:50:29.000Z</time>
      </trkpt>
      <trkpt lat="43.73814" lon="1.42366">
        <ele>174.453372</ele>
        <time>2023-07-30T14:50:30.000Z</time>
      </trkpt>
      <trkpt lat="43.73809" lon="1.42368">
        <ele>174.481979</ele>
        <time>2023-07-30T14:50:31.000Z</time>
      </trkpt>
      <trkpt lat="43.73807" lon="1.4237">
        <ele>174.499671</ele>
        <time>2023-07-30T14:50:32.000Z</time>
      </trkpt>
      <trkpt lat="43.73803" lon="1.42373">
        <ele>174.526258</ele>
        <time>2023-07-30T14:50:34.000Z</time>
      </trkpt>
      <trkpt lat="43.73801" lon="1.42377">
        <ele>174.549768</ele>
        <time>2023-07-30T14:50:34.000Z</time>
      </trkpt>
      <trkpt lat="43.73801" lon="1.42377">
        <ele>174.549768</ele>
        <time>2023-07-30T14:50:34.000Z</time>
      </trkpt>
      <trkpt lat="43.73798" lon="1.42383">
        <ele>174.578706</ele>
        <time>2023-07-30T14:50:35.000Z</time>
      </trkpt>
      <trkpt lat="43.73797" lon="1.42387">
        <ele>174.599414</ele>
        <time>2023-07-30T14:50:37.000Z</time>
      </trkpt>
      <trkpt lat="43.73797" lon="1.42387">
        <ele>174.599414</ele>
        <time>2023-07-30T14:50:37.000Z</time>
      </trkpt>
      <trkpt lat="43.73798" lon="1.42392">
        <ele>174.62112</ele>
        <time>2023-07-30T14:50:38.000Z</time>
      </trkpt>
      <trkpt lat="43.73798" lon="1.42392">
        <ele>174.62112</ele>
        <time>2023-07-30T14:50:38.000Z</time>
      </trkpt>
      <trkpt lat="43.73799" lon="1.42397">
        <ele>174.645441</ele>
        <time>2023-07-30T14:50:39.000Z</time>
      </trkpt>
      <trkpt lat="43.73799" lon="1.42397">
        <ele>174.645441</ele>
        <time>2023-07-30T14:50:39.000Z</time>
      </trkpt>
      <trkpt lat="43.73801" lon="1.424">
        <ele>174.665468</ele>
        <time>2023-07-30T14:50:41.000Z</time>
      </trkpt>
      <trkpt lat="43.73801" lon="1.424">
        <ele>174.665468</ele>
        <time>2023-07-30T14:50:41.000Z</time>
      </trkpt>
      <trkpt lat="43.73809" lon="1.42411">
        <ele>174.73363</ele>
        <time>2023-07-30T14:50:42.000Z</time>
      </trkpt>
      <trkpt lat="43.73809" lon="1.42411">
        <ele>174.73363</ele>
        <time>2023-07-30T14:50:42.000Z</time>
      </trkpt>
      <trkpt lat="43.73811" lon="1.42417">
        <ele>174.764293</ele>
        <time>2023-07-30T14:50:44.000Z</time>
      </trkpt>
      <trkpt lat="43.73811" lon="1.42417">
        <ele>174.764293</ele>
        <time>2023-07-30T14:50:44.000Z</time>
      </trkpt>
      <trkpt lat="43.73813" lon="1.42422">
        <ele>174.788449</ele>
        <time>2023-07-30T14:50:45.000Z</time>
      </trkpt>
      <trkpt lat="43.73813" lon="1.42422">
        <ele>174.788449</ele>
        <time>2023-07-30T14:50:45.000Z</time>
      </trkpt>
      <trkpt lat="43.73813" lon="1.42428">
        <ele>174.817709</ele>
        <time>2023-07-30T14:50:46.000Z</time>
      </trkpt>
      <trkpt lat="43.73812" lon="1.42436">
        <ele>174.850768</ele>
        <time>2023-07-30T14:50:48.000Z</time>
      </trkpt>
      <trkpt lat="43.73812" lon="1.42436">
        <ele>174.850768</ele>
        <time>2023-07-30T14:50:48.000Z</time>
      </trkpt>
      <trkpt lat="43.7381" lon="1.42438">
        <ele>174.866171</ele>
        <time>2023-07-30T14:50:50.000Z</time>
      </trkpt>
      <trkpt lat="43.73808" lon="1.42439">
        <ele>174.879349</ele>
        <time>2023-07-30T14:50:50.000Z</time>
      </trkpt>
      <trkpt lat="43.73808" lon="1.42439">
        <ele>174.879349</ele>
        <time>2023-07-30T14:50:50.000Z</time>
      </trkpt>
      <trkpt lat="43.73805" lon="1.42439">
        <ele>174.902976</ele>
        <time>2023-07-30T14:50:52.000Z</time>
      </trkpt>
      <trkpt lat="43.73797" lon="1.42438">
        <ele>174.948863</ele>
        <time>2023-07-30T14:50:54.000Z</time>
      </trkpt>
      <trkpt lat="43.73797" lon="1.42438">
        <ele>174.948863</ele>
        <time>2023-07-30T14:50:54.000Z</time>
      </trkpt>
      <trkpt lat="43.73793" lon="1.42435">
        <ele>174.979123</ele>
        <time>2023-07-30T14:50:55.000Z</time>
      </trkpt>
      <trkpt lat="43.73788" lon="1.42433">
        <ele>175.009987</ele>
        <time>2023-07-30T14:50:57.000Z</time>
      </trkpt>
      <trkpt lat="43.73788" lon="1.42433">
        <ele>175.009987</ele>
        <time>2023-07-30T14:50:57.000Z</time>
      </trkpt>
      <trkpt lat="43.73783" lon="1.42429">
        <ele>175.046874</ele>
        <time>2023-07-30T14:50:58.000Z</time>
      </trkpt>
      <trkpt lat="43.73783" lon="1.42429">
        <ele>175.046874</ele>
        <time>2023-07-30T14:50:58.000Z</time>
      </trkpt>
      <trkpt lat="43.73779" lon="1.42426">
        <ele>175.076902</ele>
        <time>2023-07-30T14:50:59.000Z</time>
      </trkpt>
      <trkpt lat="43.73779" lon="1.42426">
        <ele>175.076902</ele>
        <time>2023-07-30T14:50:59.000Z</time>
      </trkpt>
      <trkpt lat="43.73774" lon="1.42422">
        <ele>175.110155</ele>
        <time>2023-07-30T14:51:00.000Z</time>
      </trkpt>
      <trkpt lat="43.73774" lon="1.42422">
        <ele>175.110155</ele>
        <time>2023-07-30T14:51:00.000Z</time>
      </trkpt>
      <trkpt lat="43.73771" lon="1.42419">
        <ele>175.132929</ele>
        <time>2023-07-30T14:51:01.000Z</time>
      </trkpt>
      <trkpt lat="43.73771" lon="1.42419">
        <ele>175.132929</ele>
        <time>2023-07-30T14:51:01.000Z</time>
      </trkpt>
      <trkpt lat="43.73768" lon="1.42416">
        <ele>175.155325</ele>
        <time>2023-07-30T14:51:02.000Z</time>
      </trkpt>
      <trkpt lat="43.73768" lon="1.42416">
        <ele>175.155325</ele>
        <time>2023-07-30T14:51:02.000Z</time>
      </trkpt>
      <trkpt lat="43.73766" lon="1.42412">
        <ele>175.176249</ele>
        <time>2023-07-30T14:51:04.000Z</time>
      </trkpt>
      <trkpt lat="43.73764" lon="1.42409">
        <ele>175.197775</ele>
        <time>2023-07-30T14:51:05.000Z</time>
      </trkpt>
      <trkpt lat="43.73764" lon="1.42409">
        <ele>175.197775</ele>
        <time>2023-07-30T14:51:05.000Z</time>
      </trkpt>
      <trkpt lat="43.73762" lon="1.42405">
        <ele>175.218534</ele>
        <time>2023-07-30T14:51:06.000Z</time>
      </trkpt>
      <trkpt lat="43.73762" lon="1.42405">
        <ele>175.218534</ele>
        <time>2023-07-30T14:51:06.000Z</time>
      </trkpt>
      <trkpt lat="43.73757" lon="1.42398">
        <ele>175.261642</ele>
        <time>2023-07-30T14:51:08.000Z</time>
      </trkpt>
      <trkpt lat="43.73757" lon="1.42398">
        <ele>175.261642</ele>
        <time>2023-07-30T14:51:08.000Z</time>
      </trkpt>
      <trkpt lat="43.73755" lon="1.42395">
        <ele>175.279285</ele>
        <time>2023-07-30T14:51:09.000Z</time>
      </trkpt>
      <trkpt lat="43.73753" lon="1.42394">
        <ele>175.28984</ele>
        <time>2023-07-30T14:51:10.000Z</time>
      </trkpt>
      <trkpt lat="43.73753" lon="1.42394">
        <ele>175.28984</ele>
        <time>2023-07-30T14:51:10.000Z</time>
      </trkpt>
      <trkpt lat="43.7375" lon="1.42394">
        <ele>175.314292</ele>
        <time>2023-07-30T14:51:11.000Z</time>
      </trkpt>
      <trkpt lat="43.7375" lon="1.42394">
        <ele>175.314292</ele>
        <time>2023-07-30T14:51:11.000Z</time>
      </trkpt>
      <trkpt lat="43.73745" lon="1.42394">
        <ele>175.342286</ele>
        <time>2023-07-30T14:51:12.000Z</time>
      </trkpt>
      <trkpt lat="43.73739" lon="1.42395">
        <ele>175.380383</ele>
        <time>2023-07-30T14:51:14.000Z</time>
      </trkpt>
      <trkpt lat="43.73739" lon="1.42395">
        <ele>175.380383</ele>
        <time>2023-07-30T14:51:14.000Z</time>
      </trkpt>
      <trkpt lat="43.73733" lon="1.42396">
        <ele>175.418692</ele>
        <time>2023-07-30T14:51:16.000Z</time>
      </trkpt>
      <trkpt lat="43.73729" lon="1.42397">
        <ele>175.445118</ele>
        <time>2023-07-30T14:51:16.000Z</time>
      </trkpt>
      <trkpt lat="43.73729" lon="1.42397">
        <ele>175.445118</ele>
        <time>2023-07-30T14:51:16.000Z</time>
      </trkpt>
      <trkpt lat="43.73723" lon="1.42398">
        <ele>175.478992</ele>
        <time>2023-07-30T14:51:18.000Z</time>
      </trkpt>
      <trkpt lat="43.73723" lon="1.42398">
        <ele>175.478992</ele>
        <time>2023-07-30T14:51:18.000Z</time>
      </trkpt>
      <trkpt lat="43.73717" lon="1.424">
        <ele>175.520394</ele>
        <time>2023-07-30T14:51:19.000Z</time>
      </trkpt>
      <trkpt lat="43.7371" lon="1.42403">
        <ele>175.565591</ele>
        <time>2023-07-30T14:51:20.000Z</time>
      </trkpt>
      <trkpt lat="43.73705" lon="1.42405">
        <ele>175.628233</ele>
        <time>2023-07-30T14:51:21.000Z</time>
      </trkpt>
      <trkpt lat="43.73705" lon="1.42405">
        <ele>175.628233</ele>
        <time>2023-07-30T14:51:21.000Z</time>
      </trkpt>
      <trkpt lat="43.73689" lon="1.42414">
        <ele>175.834138</ele>
        <time>2023-07-30T14:51:23.000Z</time>
      </trkpt>
      <trkpt lat="43.73689" lon="1.42414">
        <ele>175.834138</ele>
        <time>2023-07-30T14:51:23.000Z</time>
      </trkpt>
      <trkpt lat="43.73684" lon="1.42418">
        <ele>175.908133</ele>
        <time>2023-07-30T14:51:24.000Z</time>
      </trkpt>
      <trkpt lat="43.73678" lon="1.42423">
        <ele>175.989662</ele>
        <time>2023-07-30T14:51:25.000Z</time>
      </trkpt>
      <trkpt lat="43.73673" lon="1.42429">
        <ele>176.077789</ele>
        <time>2023-07-30T14:51:27.000Z</time>
      </trkpt>
      <trkpt lat="43.73673" lon="1.42429">
        <ele>176.077789</ele>
        <time>2023-07-30T14:51:27.000Z</time>
      </trkpt>
      <trkpt lat="43.73667" lon="1.42439">
        <ele>176.183578</ele>
        <time>2023-07-30T14:51:28.000Z</time>
      </trkpt>
      <trkpt lat="43.73663" lon="1.42446">
        <ele>176.268492</ele>
        <time>2023-07-30T14:51:30.000Z</time>
      </trkpt>
      <trkpt lat="43.73663" lon="1.42446">
        <ele>176.268492</ele>
        <time>2023-07-30T14:51:30.000Z</time>
      </trkpt>
      <trkpt lat="43.73661" lon="1.42449">
        <ele>176.297645</ele>
        <time>2023-07-30T14:51:31.000Z</time>
      </trkpt>
      <trkpt lat="43.73661" lon="1.42449">
        <ele>176.297645</ele>
        <time>2023-07-30T14:51:31.000Z</time>
      </trkpt>
      <trkpt lat="43.73658" lon="1.42451">
        <ele>176.334014</ele>
        <time>2023-07-30T14:51:32.000Z</time>
      </trkpt>
      <trkpt lat="43.73658" lon="1.42451">
        <ele>176.334014</ele>
        <time>2023-07-30T14:51:32.000Z</time>
      </trkpt>
      <trkpt lat="43.73656" lon="1.42454">
        <ele>176.376396</ele>
        <time>2023-07-30T14:51:33.000Z</time>
      </trkpt>
      <trkpt lat="43.73656" lon="1.42454">
        <ele>176.376396</ele>
        <time>2023-07-30T14:51:33.000Z</time>
      </trkpt>
      <trkpt lat="43.73647" lon="1.4246">
        <ele>176.489038</ele>
        <time>2023-07-30T14:51:34.000Z</time>
      </trkpt>
      <trkpt lat="43.73647" lon="1.4246">
        <ele>176.489038</ele>
        <time>2023-07-30T14:51:34.000Z</time>
      </trkpt>
      <trkpt lat="43.73646" lon="1.4246">
        <ele>176.503665</ele>
        <time>2023-07-30T14:51:36.000Z</time>
      </trkpt>
      <trkpt lat="43.73646" lon="1.4246">
        <ele>176.503665</ele>
        <time>2023-07-30T14:51:36.000Z</time>
      </trkpt>
      <trkpt lat="43.73643" lon="1.42462">
        <ele>176.54395</ele>
        <time>2023-07-30T14:51:37.000Z</time>
      </trkpt>
      <trkpt lat="43.73643" lon="1.42462">
        <ele>176.54395</ele>
        <time>2023-07-30T14:51:37.000Z</time>
      </trkpt>
      <trkpt lat="43.73644" lon="1.42462">
        <ele>176.549446</ele>
        <time>2023-07-30T14:51:38.000Z</time>
      </trkpt>
      <trkpt lat="43.73642" lon="1.42459">
        <ele>176.581695</ele>
        <time>2023-07-30T14:51:39.000Z</time>
      </trkpt>
      <trkpt lat="43.73642" lon="1.42459">
        <ele>176.581695</ele>
        <time>2023-07-30T14:51:39.000Z</time>
      </trkpt>
      <trkpt lat="43.7364" lon="1.42457">
        <ele>176.616435</ele>
        <time>2023-07-30T14:51:40.000Z</time>
      </trkpt>
      <trkpt lat="43.73637" lon="1.42455">
        <ele>176.652312</ele>
        <time>2023-07-30T14:51:41.000Z</time>
      </trkpt>
      <trkpt lat="43.73632" lon="1.42447">
        <ele>176.741391</ele>
        <time>2023-07-30T14:51:43.000Z</time>
      </trkpt>
      <trkpt lat="43.73632" lon="1.42447">
        <ele>176.741391</ele>
        <time>2023-07-30T14:51:43.000Z</time>
      </trkpt>
      <trkpt lat="43.73625" lon="1.42436">
        <ele>176.870953</ele>
        <time>2023-07-30T14:51:44.000Z</time>
      </trkpt>
      <trkpt lat="43.73625" lon="1.42436">
        <ele>176.870953</ele>
        <time>2023-07-30T14:51:44.000Z</time>
      </trkpt>
      <trkpt lat="43.73621" lon="1.42429">
        <ele>176.958166</ele>
        <time>2023-07-30T14:51:46.000Z</time>
      </trkpt>
      <trkpt lat="43.73618" lon="1.42423">
        <ele>177.021858</ele>
        <time>2023-07-30T14:51:47.000Z</time>
      </trkpt>
      <trkpt lat="43.73615" lon="1.42415">
        <ele>177.095772</ele>
        <time>2023-07-30T14:51:48.000Z</time>
      </trkpt>
      <trkpt lat="43.73615" lon="1.42415">
        <ele>177.095772</ele>
        <time>2023-07-30T14:51:48.000Z</time>
      </trkpt>
      <trkpt lat="43.7361" lon="1.42402">
        <ele>177.218486</ele>
        <time>2023-07-30T14:51:49.000Z</time>
      </trkpt>
      <trkpt lat="43.73609" lon="1.42386">
        <ele>177.364518</ele>
        <time>2023-07-30T14:51:51.000Z</time>
      </trkpt>
      <trkpt lat="43.73609" lon="1.42381">
        <ele>177.404095</ele>
        <time>2023-07-30T14:51:52.000Z</time>
      </trkpt>
      <trkpt lat="43.7361" lon="1.42377">
        <ele>177.445563</ele>
        <time>2023-07-30T14:51:54.000Z</time>
      </trkpt>
      <trkpt lat="43.7361" lon="1.42377">
        <ele>177.445563</ele>
        <time>2023-07-30T14:51:54.000Z</time>
      </trkpt>
      <trkpt lat="43.73612" lon="1.42372">
        <ele>177.486616</ele>
        <time>2023-07-30T14:51:55.000Z</time>
      </trkpt>
      <trkpt lat="43.73612" lon="1.42372">
        <ele>177.486616</ele>
        <time>2023-07-30T14:51:56.000Z</time>
      </trkpt>
      <trkpt lat="43.73612" lon="1.42372">
        <ele>177.486616</ele>
        <time>2023-07-30T14:52:34.000Z</time>
      </trkpt>
      <trkpt lat="43.73616" lon="1.42363">
        <ele>177.590647</ele>
        <time>2023-07-30T14:52:35.000Z</time>
      </trkpt>
      <trkpt lat="43.7362" lon="1.42358">
        <ele>177.646883</ele>
        <time>2023-07-30T14:52:37.000Z</time>
      </trkpt>
      <trkpt lat="43.7362" lon="1.42358">
        <ele>177.646883</ele>
        <time>2023-07-30T14:52:37.000Z</time>
      </trkpt>
      <trkpt lat="43.73622" lon="1.42356">
        <ele>177.679782</ele>
        <time>2023-07-30T14:52:38.000Z</time>
      </trkpt>
      <trkpt lat="43.73624" lon="1.42352">
        <ele>177.719182</ele>
        <time>2023-07-30T14:52:39.000Z</time>
      </trkpt>
      <trkpt lat="43.73625" lon="1.42351">
        <ele>177.735457</ele>
        <time>2023-07-30T14:52:40.000Z</time>
      </trkpt>
      <trkpt lat="43.73625" lon="1.42351">
        <ele>177.735457</ele>
        <time>2023-07-30T14:52:40.000Z</time>
      </trkpt>
      <trkpt lat="43.73626" lon="1.42348">
        <ele>177.520275</ele>
        <time>2023-07-30T14:52:41.000Z</time>
      </trkpt>
      <trkpt lat="43.73628" lon="1.42346">
        <ele>177.344237</ele>
        <time>2023-07-30T14:52:42.000Z</time>
      </trkpt>
      <trkpt lat="43.73628" lon="1.42346">
        <ele>177.344237</ele>
        <time>2023-07-30T14:52:42.000Z</time>
      </trkpt>
      <trkpt lat="43.73629" lon="1.42344">
        <ele>177.118938</ele>
        <time>2023-07-30T14:52:44.000Z</time>
      </trkpt>
      <trkpt lat="43.73629" lon="1.42344">
        <ele>177.118938</ele>
        <time>2023-07-30T14:52:44.000Z</time>
      </trkpt>
      <trkpt lat="43.73632" lon="1.42339">
        <ele>176.690806</ele>
        <time>2023-07-30T14:52:45.000Z</time>
      </trkpt>
      <trkpt lat="43.73632" lon="1.42339">
        <ele>176.690806</ele>
        <time>2023-07-30T14:52:45.000Z</time>
      </trkpt>
      <trkpt lat="43.73635" lon="1.42334">
        <ele>176.290886</ele>
        <time>2023-07-30T14:52:46.000Z</time>
      </trkpt>
      <trkpt lat="43.73637" lon="1.42331">
        <ele>176.015617</ele>
        <time>2023-07-30T14:52:47.000Z</time>
      </trkpt>
      <trkpt lat="43.7364" lon="1.42326">
        <ele>175.533456</ele>
        <time>2023-07-30T14:52:48.000Z</time>
      </trkpt>
      <trkpt lat="43.7364" lon="1.42326">
        <ele>175.533456</ele>
        <time>2023-07-30T14:52:48.000Z</time>
      </trkpt>
      <trkpt lat="43.73643" lon="1.42323">
        <ele>175.191349</ele>
        <time>2023-07-30T14:52:49.000Z</time>
      </trkpt>
      <trkpt lat="43.73647" lon="1.42318">
        <ele>174.740986</ele>
        <time>2023-07-30T14:52:50.000Z</time>
      </trkpt>
      <trkpt lat="43.73647" lon="1.42318">
        <ele>174.740986</ele>
        <time>2023-07-30T14:52:50.000Z</time>
      </trkpt>
      <trkpt lat="43.7365" lon="1.42314">
        <ele>174.279204</ele>
        <time>2023-07-30T14:52:51.000Z</time>
      </trkpt>
      <trkpt lat="43.73653" lon="1.42309">
        <ele>173.856517</ele>
        <time>2023-07-30T14:52:53.000Z</time>
      </trkpt>
      <trkpt lat="43.73653" lon="1.42304">
        <ele>173.544817</ele>
        <time>2023-07-30T14:52:54.000Z</time>
      </trkpt>
      <trkpt lat="43.73653" lon="1.42304">
        <ele>173.544817</ele>
        <time>2023-07-30T14:52:54.000Z</time>
      </trkpt>
      <trkpt lat="43.73653" lon="1.42299">
        <ele>173.206242</ele>
        <time>2023-07-30T14:52:55.000Z</time>
      </trkpt>
      <trkpt lat="43.73652" lon="1.42294">
        <ele>172.858792</ele>
        <time>2023-07-30T14:52:56.000Z</time>
      </trkpt>
      <trkpt lat="43.73652" lon="1.42294">
        <ele>172.858792</ele>
        <time>2023-07-30T14:52:56.000Z</time>
      </trkpt>
      <trkpt lat="43.73651" lon="1.42291">
        <ele>172.578336</ele>
        <time>2023-07-30T14:52:57.000Z</time>
      </trkpt>
      <trkpt lat="43.73645" lon="1.42279">
        <ele>171.650674</ele>
        <time>2023-07-30T14:52:58.000Z</time>
      </trkpt>
      <trkpt lat="43.73642" lon="1.42274">
        <ele>171.189145</ele>
        <time>2023-07-30T14:52:59.000Z</time>
      </trkpt>
      <trkpt lat="43.7364" lon="1.42268">
        <ele>170.770212</ele>
        <time>2023-07-30T14:53:00.000Z</time>
      </trkpt>
      <trkpt lat="43.7364" lon="1.42268">
        <ele>170.770212</ele>
        <time>2023-07-30T14:53:00.000Z</time>
      </trkpt>
      <trkpt lat="43.7364" lon="1.42261">
        <ele>170.275093</ele>
        <time>2023-07-30T14:53:02.000Z</time>
      </trkpt>
      <trkpt lat="43.7364" lon="1.42255">
        <ele>169.88134</ele>
        <time>2023-07-30T14:53:03.000Z</time>
      </trkpt>
      <trkpt lat="43.7364" lon="1.42251">
        <ele>169.630793</ele>
        <time>2023-07-30T14:53:04.000Z</time>
      </trkpt>
      <trkpt lat="43.7364" lon="1.42249">
        <ele>169.47919</ele>
        <time>2023-07-30T14:53:05.000Z</time>
      </trkpt>
      <trkpt lat="43.7364" lon="1.42249">
        <ele>169.47919</ele>
        <time>2023-07-30T14:53:05.000Z</time>
      </trkpt>
      <trkpt lat="43.7364" lon="1.42248">
        <ele>169.413312</ele>
        <time>2023-07-30T14:53:06.000Z</time>
      </trkpt>
      <trkpt lat="43.7364" lon="1.42248">
        <ele>169.413312</ele>
        <time>2023-07-30T14:53:06.000Z</time>
      </trkpt>
      <trkpt lat="43.73639" lon="1.42248">
        <ele>169.299028</ele>
        <time>2023-07-30T14:53:08.000Z</time>
      </trkpt>
      <trkpt lat="43.73637" lon="1.42248">
        <ele>169.118912</ele>
        <time>2023-07-30T14:53:08.000Z</time>
      </trkpt>
      <trkpt lat="43.73637" lon="1.42248">
        <ele>169.118912</ele>
        <time>2023-07-30T14:53:08.000Z</time>
      </trkpt>
      <trkpt lat="43.73635" lon="1.4225">
        <ele>168.925893</ele>
        <time>2023-07-30T14:53:10.000Z</time>
      </trkpt>
      <trkpt lat="43.73635" lon="1.4225">
        <ele>168.925893</ele>
        <time>2023-07-30T14:53:10.000Z</time>
      </trkpt>
      <trkpt lat="43.73632" lon="1.42251">
        <ele>168.67486</ele>
        <time>2023-07-30T14:53:11.000Z</time>
      </trkpt>
      <trkpt lat="43.73632" lon="1.42251">
        <ele>168.67486</ele>
        <time>2023-07-30T14:53:11.000Z</time>
      </trkpt>
      <trkpt lat="43.73631" lon="1.42252">
        <ele>168.490592</ele>
        <time>2023-07-30T14:53:12.000Z</time>
      </trkpt>
      <trkpt lat="43.73627" lon="1.42255">
        <ele>168.093314</ele>
        <time>2023-07-30T14:53:13.000Z</time>
      </trkpt>
      <trkpt lat="43.73627" lon="1.42255">
        <ele>168.093314</ele>
        <time>2023-07-30T14:53:13.000Z</time>
      </trkpt>
      <trkpt lat="43.73624" lon="1.42257">
        <ele>167.823359</ele>
        <time>2023-07-30T14:53:14.000Z</time>
      </trkpt>
      <trkpt lat="43.73624" lon="1.42257">
        <ele>167.823359</ele>
        <time>2023-07-30T14:53:14.000Z</time>
      </trkpt>
      <trkpt lat="43.7362" lon="1.4226">
        <ele>167.352396</ele>
        <time>2023-07-30T14:53:15.000Z</time>
      </trkpt>
      <trkpt lat="43.7362" lon="1.4226">
        <ele>167.352396</ele>
        <time>2023-07-30T14:53:15.000Z</time>
      </trkpt>
      <trkpt lat="43.73615" lon="1.42262">
        <ele>166.840945</ele>
        <time>2023-07-30T14:53:17.000Z</time>
      </trkpt>
      <trkpt lat="43.73615" lon="1.42262">
        <ele>166.840945</ele>
        <time>2023-07-30T14:53:17.000Z</time>
      </trkpt>
      <trkpt lat="43.7361" lon="1.42263">
        <ele>166.430834</ele>
        <time>2023-07-30T14:53:18.000Z</time>
      </trkpt>
      <trkpt lat="43.7361" lon="1.42263">
        <ele>166.430834</ele>
        <time>2023-07-30T14:53:18.000Z</time>
      </trkpt>
      <trkpt lat="43.73605" lon="1.42265">
        <ele>165.890486</ele>
        <time>2023-07-30T14:53:20.000Z</time>
      </trkpt>
      <trkpt lat="43.73605" lon="1.42265">
        <ele>165.890486</ele>
        <time>2023-07-30T14:53:20.000Z</time>
      </trkpt>
      <trkpt lat="43.736" lon="1.42264">
        <ele>165.495932</ele>
        <time>2023-07-30T14:53:20.000Z</time>
      </trkpt>
      <trkpt lat="43.736" lon="1.42264">
        <ele>165.495932</ele>
        <time>2023-07-30T14:53:20.000Z</time>
      </trkpt>
      <trkpt lat="43.73596" lon="1.42264">
        <ele>165.062911</ele>
        <time>2023-07-30T14:53:21.000Z</time>
      </trkpt>
      <trkpt lat="43.73596" lon="1.42264">
        <ele>165.062911</ele>
        <time>2023-07-30T14:53:21.000Z</time>
      </trkpt>
      <trkpt lat="43.73591" lon="1.42262">
        <ele>164.618394</ele>
        <time>2023-07-30T14:53:23.000Z</time>
      </trkpt>
      <trkpt lat="43.73591" lon="1.42262">
        <ele>164.618394</ele>
        <time>2023-07-30T14:53:23.000Z</time>
      </trkpt>
      <trkpt lat="43.73586" lon="1.42259">
        <ele>164.070915</ele>
        <time>2023-07-30T14:53:24.000Z</time>
      </trkpt>
      <trkpt lat="43.73586" lon="1.42259">
        <ele>164.070915</ele>
        <time>2023-07-30T14:53:24.000Z</time>
      </trkpt>
      <trkpt lat="43.73581" lon="1.42254">
        <ele>163.48017</ele>
        <time>2023-07-30T14:53:25.000Z</time>
      </trkpt>
      <trkpt lat="43.73581" lon="1.42254">
        <ele>163.48017</ele>
        <time>2023-07-30T14:53:25.000Z</time>
      </trkpt>
      <trkpt lat="43.73576" lon="1.4225">
        <ele>162.998057</ele>
        <time>2023-07-30T14:53:27.000Z</time>
      </trkpt>
      <trkpt lat="43.73576" lon="1.4225">
        <ele>162.998057</ele>
        <time>2023-07-30T14:53:27.000Z</time>
      </trkpt>
      <trkpt lat="43.73572" lon="1.42245">
        <ele>162.445676</ele>
        <time>2023-07-30T14:53:27.000Z</time>
      </trkpt>
      <trkpt lat="43.73572" lon="1.42245">
        <ele>162.445676</ele>
        <time>2023-07-30T14:53:27.000Z</time>
      </trkpt>
      <trkpt lat="43.73569" lon="1.42242">
        <ele>162.083235</ele>
        <time>2023-07-30T14:53:29.000Z</time>
      </trkpt>
      <trkpt lat="43.73569" lon="1.42242">
        <ele>162.083235</ele>
        <time>2023-07-30T14:53:29.000Z</time>
      </trkpt>
      <trkpt lat="43.73566" lon="1.42239">
        <ele>161.770282</ele>
        <time>2023-07-30T14:53:31.000Z</time>
      </trkpt>
      <trkpt lat="43.73566" lon="1.42239">
        <ele>161.770282</ele>
        <time>2023-07-30T14:53:31.000Z</time>
      </trkpt>
      <trkpt lat="43.73564" lon="1.42236">
        <ele>161.491962</ele>
        <time>2023-07-30T14:53:31.000Z</time>
      </trkpt>
      <trkpt lat="43.73562" lon="1.42234">
        <ele>161.302919</ele>
        <time>2023-07-30T14:53:32.000Z</time>
      </trkpt>
      <trkpt lat="43.73559" lon="1.42231">
        <ele>160.926321</ele>
        <time>2023-07-30T14:53:34.000Z</time>
      </trkpt>
      <trkpt lat="43.73559" lon="1.42231">
        <ele>160.926321</ele>
        <time>2023-07-30T14:53:34.000Z</time>
      </trkpt>
      <trkpt lat="43.73556" lon="1.42227">
        <ele>160.699867</ele>
        <time>2023-07-30T14:53:34.000Z</time>
      </trkpt>
      <trkpt lat="43.73556" lon="1.42227">
        <ele>160.699867</ele>
        <time>2023-07-30T14:53:34.000Z</time>
      </trkpt>
      <trkpt lat="43.73555" lon="1.42224">
        <ele>160.581197</ele>
        <time>2023-07-30T14:53:36.000Z</time>
      </trkpt>
      <trkpt lat="43.73555" lon="1.42224">
        <ele>160.581197</ele>
        <time>2023-07-30T14:53:36.000Z</time>
      </trkpt>
      <trkpt lat="43.73554" lon="1.4222">
        <ele>160.411757</ele>
        <time>2023-07-30T14:53:37.000Z</time>
      </trkpt>
      <trkpt lat="43.73554" lon="1.4222">
        <ele>160.411757</ele>
        <time>2023-07-30T14:53:37.000Z</time>
      </trkpt>
      <trkpt lat="43.73553" lon="1.42214">
        <ele>160.203946</ele>
        <time>2023-07-30T14:53:39.000Z</time>
      </trkpt>
      <trkpt lat="43.73553" lon="1.42214">
        <ele>160.203946</ele>
        <time>2023-07-30T14:53:39.000Z</time>
      </trkpt>
      <trkpt lat="43.73553" lon="1.4221">
        <ele>160.04701</ele>
        <time>2023-07-30T14:53:40.000Z</time>
      </trkpt>
      <trkpt lat="43.73553" lon="1.4221">
        <ele>160.04701</ele>
        <time>2023-07-30T14:53:40.000Z</time>
      </trkpt>
      <trkpt lat="43.73554" lon="1.42204">
        <ele>159.861853</ele>
        <time>2023-07-30T14:53:40.000Z</time>
      </trkpt>
      <trkpt lat="43.73554" lon="1.42204">
        <ele>159.861853</ele>
        <time>2023-07-30T14:53:40.000Z</time>
      </trkpt>
      <trkpt lat="43.73555" lon="1.422">
        <ele>159.710379</ele>
        <time>2023-07-30T14:53:42.000Z</time>
      </trkpt>
      <trkpt lat="43.73555" lon="1.422">
        <ele>159.710379</ele>
        <time>2023-07-30T14:53:42.000Z</time>
      </trkpt>
      <trkpt lat="43.73555" lon="1.42196">
        <ele>159.562345</ele>
        <time>2023-07-30T14:53:43.000Z</time>
      </trkpt>
      <trkpt lat="43.73555" lon="1.42196">
        <ele>159.562345</ele>
        <time>2023-07-30T14:53:43.000Z</time>
      </trkpt>
      <trkpt lat="43.73559" lon="1.42186">
        <ele>159.164925</ele>
        <time>2023-07-30T14:53:45.000Z</time>
      </trkpt>
      <trkpt lat="43.73559" lon="1.42186">
        <ele>159.164925</ele>
        <time>2023-07-30T14:53:45.000Z</time>
      </trkpt>
      <trkpt lat="43.7356" lon="1.42182">
        <ele>158.990489</ele>
        <time>2023-07-30T14:53:45.000Z</time>
      </trkpt>
      <trkpt lat="43.73562" lon="1.42175">
        <ele>158.730448</ele>
        <time>2023-07-30T14:53:47.000Z</time>
      </trkpt>
      <trkpt lat="43.73562" lon="1.42175">
        <ele>158.730448</ele>
        <time>2023-07-30T14:53:47.000Z</time>
      </trkpt>
      <trkpt lat="43.73564" lon="1.42168">
        <ele>158.467958</ele>
        <time>2023-07-30T14:53:48.000Z</time>
      </trkpt>
      <trkpt lat="43.73564" lon="1.42168">
        <ele>158.467958</ele>
        <time>2023-07-30T14:53:48.000Z</time>
      </trkpt>
      <trkpt lat="43.73567" lon="1.42161">
        <ele>158.162867</ele>
        <time>2023-07-30T14:53:50.000Z</time>
      </trkpt>
      <trkpt lat="43.7357" lon="1.42152">
        <ele>157.831853</ele>
        <time>2023-07-30T14:53:50.000Z</time>
      </trkpt>
      <trkpt lat="43.7357" lon="1.42152">
        <ele>157.831853</ele>
        <time>2023-07-30T14:53:50.000Z</time>
      </trkpt>
      <trkpt lat="43.73574" lon="1.42144">
        <ele>157.469704</ele>
        <time>2023-07-30T14:53:51.000Z</time>
      </trkpt>
      <trkpt lat="43.73574" lon="1.42144">
        <ele>157.469704</ele>
        <time>2023-07-30T14:53:51.000Z</time>
      </trkpt>
      <trkpt lat="43.73578" lon="1.42136">
        <ele>157.147842</ele>
        <time>2023-07-30T14:53:52.000Z</time>
      </trkpt>
      <trkpt lat="43.73578" lon="1.42136">
        <ele>157.147842</ele>
        <time>2023-07-30T14:53:52.000Z</time>
      </trkpt>
      <trkpt lat="43.7358" lon="1.42132">
        <ele>156.96551</ele>
        <time>2023-07-30T14:53:53.000Z</time>
      </trkpt>
      <trkpt lat="43.7358" lon="1.42132">
        <ele>156.96551</ele>
        <time>2023-07-30T14:53:53.000Z</time>
      </trkpt>
      <trkpt lat="43.73587" lon="1.42119">
        <ele>156.386932</ele>
        <time>2023-07-30T14:53:56.000Z</time>
      </trkpt>
      <trkpt lat="43.73587" lon="1.42119">
        <ele>156.386932</ele>
        <time>2023-07-30T14:53:56.000Z</time>
      </trkpt>
      <trkpt lat="43.73592" lon="1.42111">
        <ele>155.975141</ele>
        <time>2023-07-30T14:53:56.000Z</time>
      </trkpt>
      <trkpt lat="43.73592" lon="1.42111">
        <ele>155.975141</ele>
        <time>2023-07-30T14:53:56.000Z</time>
      </trkpt>
      <trkpt lat="43.73597" lon="1.42104">
        <ele>155.658768</ele>
        <time>2023-07-30T14:53:58.000Z</time>
      </trkpt>
      <trkpt lat="43.736" lon="1.42098">
        <ele>155.400598</ele>
        <time>2023-07-30T14:53:58.000Z</time>
      </trkpt>
      <trkpt lat="43.736" lon="1.42098">
        <ele>155.400598</ele>
        <time>2023-07-30T14:53:58.000Z</time>
      </trkpt>
      <trkpt lat="43.73603" lon="1.42093">
        <ele>155.153095</ele>
        <time>2023-07-30T14:53:59.000Z</time>
      </trkpt>
      <trkpt lat="43.7361" lon="1.42083">
        <ele>154.654729</ele>
        <time>2023-07-30T14:54:02.000Z</time>
      </trkpt>
      <trkpt lat="43.7361" lon="1.42083">
        <ele>154.654729</ele>
        <time>2023-07-30T14:54:02.000Z</time>
      </trkpt>
      <trkpt lat="43.7361" lon="1.42083">
        <ele>154.654729</ele>
        <time>2023-07-30T14:54:12.000Z</time>
      </trkpt>
      <trkpt lat="43.73611" lon="1.42078">
        <ele>154.471759</ele>
        <time>2023-07-30T14:54:14.000Z</time>
      </trkpt>
      <trkpt lat="43.73612" lon="1.42076">
        <ele>154.390223</ele>
        <time>2023-07-30T14:54:16.000Z</time>
      </trkpt>
      <trkpt lat="43.73613" lon="1.42074">
        <ele>154.303384</ele>
        <time>2023-07-30T14:54:20.000Z</time>
      </trkpt>
      <trkpt lat="43.73614" lon="1.42071">
        <ele>154.181907</ele>
        <time>2023-07-30T14:54:23.000Z</time>
      </trkpt>
      <trkpt lat="43.73615" lon="1.42071">
        <ele>154.152789</ele>
        <time>2023-07-30T14:54:25.000Z</time>
      </trkpt>
      <trkpt lat="43.73618" lon="1.42069">
        <ele>153.968997</ele>
        <time>2023-07-30T14:54:27.000Z</time>
      </trkpt>
      <trkpt lat="43.7362" lon="1.42066">
        <ele>153.826709</ele>
        <time>2023-07-30T14:54:27.000Z</time>
      </trkpt>
      <trkpt lat="43.73621" lon="1.42064">
        <ele>153.720282</ele>
        <time>2023-07-30T14:54:29.000Z</time>
      </trkpt>
      <trkpt lat="43.73624" lon="1.42061">
        <ele>153.575916</ele>
        <time>2023-07-30T14:54:29.000Z</time>
      </trkpt>
      <trkpt lat="43.73626" lon="1.42059">
        <ele>153.435399</ele>
        <time>2023-07-30T14:54:31.000Z</time>
      </trkpt>
      <trkpt lat="43.73629" lon="1.42056">
        <ele>153.26448</ele>
        <time>2023-07-30T14:54:32.000Z</time>
      </trkpt>
      <trkpt lat="43.73631" lon="1.42053">
        <ele>153.109815</ele>
        <time>2023-07-30T14:54:33.000Z</time>
      </trkpt>
      <trkpt lat="43.73631" lon="1.42053">
        <ele>153.109815</ele>
        <time>2023-07-30T14:54:33.000Z</time>
      </trkpt>
      <trkpt lat="43.73634" lon="1.42051">
        <ele>152.949455</ele>
        <time>2023-07-30T14:54:35.000Z</time>
      </trkpt>
      <trkpt lat="43.73636" lon="1.42049">
        <ele>152.831619</ele>
        <time>2023-07-30T14:54:36.000Z</time>
      </trkpt>
      <trkpt lat="43.73636" lon="1.42049">
        <ele>152.831619</ele>
        <time>2023-07-30T14:54:36.000Z</time>
      </trkpt>
      <trkpt lat="43.73638" lon="1.42047">
        <ele>152.701686</ele>
        <time>2023-07-30T14:54:37.000Z</time>
      </trkpt>
      <trkpt lat="43.7364" lon="1.42045">
        <ele>152.569463</ele>
        <time>2023-07-30T14:54:39.000Z</time>
      </trkpt>
      <trkpt lat="43.73642" lon="1.42044">
        <ele>152.479629</ele>
        <time>2023-07-30T14:54:39.000Z</time>
      </trkpt>
      <trkpt lat="43.73644" lon="1.42042">
        <ele>152.36597</ele>
        <time>2023-07-30T14:54:44.000Z</time>
      </trkpt>
      <trkpt lat="43.73644" lon="1.42042">
        <ele>152.36597</ele>
        <time>2023-07-30T14:54:44.000Z</time>
      </trkpt>
      <trkpt lat="43.73648" lon="1.42039">
        <ele>152.125781</ele>
        <time>2023-07-30T14:54:55.000Z</time>
      </trkpt>
      <trkpt lat="43.73648" lon="1.42039">
        <ele>152.125781</ele>
        <time>2023-07-30T14:55:22.000Z</time>
      </trkpt>
      <trkpt lat="43.73648" lon="1.42039">
        <ele>152.125781</ele>
        <time>2023-07-30T14:55:35.000Z</time>
      </trkpt>
      <trkpt lat="43.73648" lon="1.42039">
        <ele>152.125781</ele>
        <time>2023-07-30T14:55:41.000Z</time>
      </trkpt>
      <trkpt lat="43.73655" lon="1.42033">
        <ele>152.516294</ele>
        <time>2023-07-30T14:55:42.000Z</time>
      </trkpt>
      <trkpt lat="43.73656" lon="1.42033">
        <ele>152.590834</ele>
        <time>2023-07-30T14:55:43.000Z</time>
      </trkpt>
      <trkpt lat="43.73661" lon="1.4203">
        <ele>153.1058</ele>
        <time>2023-07-30T14:55:45.000Z</time>
      </trkpt>
      <trkpt lat="43.73664" lon="1.42028">
        <ele>153.387574</ele>
        <time>2023-07-30T14:55:46.000Z</time>
      </trkpt>
      <trkpt lat="43.73665" lon="1.42026">
        <ele>153.517658</ele>
        <time>2023-07-30T14:55:47.000Z</time>
      </trkpt>
      <trkpt lat="43.73665" lon="1.42026">
        <ele>153.517658</ele>
        <time>2023-07-30T14:55:47.000Z</time>
      </trkpt>
      <trkpt lat="43.73667" lon="1.42024">
        <ele>153.724727</ele>
        <time>2023-07-30T14:55:48.000Z</time>
      </trkpt>
      <trkpt lat="43.73667" lon="1.42024">
        <ele>153.724727</ele>
        <time>2023-07-30T14:55:48.000Z</time>
      </trkpt>
      <trkpt lat="43.73669" lon="1.42023">
        <ele>153.894964</ele>
        <time>2023-07-30T14:55:49.000Z</time>
      </trkpt>
      <trkpt lat="43.73671" lon="1.42021">
        <ele>154.139247</ele>
        <time>2023-07-30T14:55:50.000Z</time>
      </trkpt>
      <trkpt lat="43.73671" lon="1.42021">
        <ele>154.139247</ele>
        <time>2023-07-30T14:55:50.000Z</time>
      </trkpt>
      <trkpt lat="43.73673" lon="1.42019">
        <ele>154.346315</ele>
        <time>2023-07-30T14:55:52.000Z</time>
      </trkpt>
      <trkpt lat="43.73676" lon="1.42016">
        <ele>154.705488</ele>
        <time>2023-07-30T14:55:53.000Z</time>
      </trkpt>
      <trkpt lat="43.73679" lon="1.42014">
        <ele>155.031474</ele>
        <time>2023-07-30T14:55:54.000Z</time>
      </trkpt>
      <trkpt lat="43.73682" lon="1.42011">
        <ele>155.31619</ele>
        <time>2023-07-30T14:55:55.000Z</time>
      </trkpt>
      <trkpt lat="43.73686" lon="1.42008">
        <ele>155.693433</ele>
        <time>2023-07-30T14:55:57.000Z</time>
      </trkpt>
      <trkpt lat="43.73689" lon="1.42005">
        <ele>156.052606</ele>
        <time>2023-07-30T14:55:57.000Z</time>
      </trkpt>
      <trkpt lat="43.73692" lon="1.42003">
        <ele>156.39885</ele>
        <time>2023-07-30T14:55:58.000Z</time>
      </trkpt>
      <trkpt lat="43.73696" lon="1.42">
        <ele>156.792283</ele>
        <time>2023-07-30T14:56:00.000Z</time>
      </trkpt>
      <trkpt lat="43.737" lon="1.41997">
        <ele>157.179441</ele>
        <time>2023-07-30T14:56:01.000Z</time>
      </trkpt>
      <trkpt lat="43.737" lon="1.41997">
        <ele>157.179441</ele>
        <time>2023-07-30T14:56:01.000Z</time>
      </trkpt>
      <trkpt lat="43.73705" lon="1.41994">
        <ele>157.628796</ele>
        <time>2023-07-30T14:56:03.000Z</time>
      </trkpt>
      <trkpt lat="43.73711" lon="1.4199">
        <ele>158.227756</ele>
        <time>2023-07-30T14:56:04.000Z</time>
      </trkpt>
      <trkpt lat="43.73713" lon="1.41989">
        <ele>158.497276</ele>
        <time>2023-07-30T14:56:05.000Z</time>
      </trkpt>
      <trkpt lat="43.73716" lon="1.41988">
        <ele>158.785084</ele>
        <time>2023-07-30T14:56:06.000Z</time>
      </trkpt>
      <trkpt lat="43.73716" lon="1.41988">
        <ele>158.785084</ele>
        <time>2023-07-30T14:56:06.000Z</time>
      </trkpt>
      <trkpt lat="43.7372" lon="1.41986">
        <ele>159.144238</ele>
        <time>2023-07-30T14:56:07.000Z</time>
      </trkpt>
      <trkpt lat="43.7372" lon="1.41986">
        <ele>159.144238</ele>
        <time>2023-07-30T14:56:07.000Z</time>
      </trkpt>
      <trkpt lat="43.73724" lon="1.41984">
        <ele>159.469351</ele>
        <time>2023-07-30T14:56:09.000Z</time>
      </trkpt>
      <trkpt lat="43.73724" lon="1.41984">
        <ele>159.469351</ele>
        <time>2023-07-30T14:56:09.000Z</time>
      </trkpt>
      <trkpt lat="43.73735" lon="1.41979">
        <ele>160.515195</ele>
        <time>2023-07-30T14:56:13.000Z</time>
      </trkpt>
      <trkpt lat="43.73739" lon="1.41981">
        <ele>160.883175</ele>
        <time>2023-07-30T14:56:17.000Z</time>
      </trkpt>
      <trkpt lat="43.73739" lon="1.41981">
        <ele>160.883175</ele>
        <time>2023-07-30T14:56:17.000Z</time>
      </trkpt>
      <trkpt lat="43.7374" lon="1.41982">
        <ele>161.021931</ele>
        <time>2023-07-30T14:56:20.000Z</time>
      </trkpt>
      <trkpt lat="43.73741" lon="1.41983">
        <ele>161.133683</ele>
        <time>2023-07-30T14:56:21.000Z</time>
      </trkpt>
      <trkpt lat="43.73741" lon="1.41983">
        <ele>161.133683</ele>
        <time>2023-07-30T14:56:21.000Z</time>
      </trkpt>
      <trkpt lat="43.73742" lon="1.41984">
        <ele>161.263126</ele>
        <time>2023-07-30T14:56:22.000Z</time>
      </trkpt>
      <trkpt lat="43.73742" lon="1.41984">
        <ele>161.263126</ele>
        <time>2023-07-30T14:56:22.000Z</time>
      </trkpt>
      <trkpt lat="43.73742" lon="1.41984">
        <ele>161.263126</ele>
        <time>2023-07-30T14:56:23.000Z</time>
      </trkpt>
      <trkpt lat="43.73743" lon="1.41985">
        <ele>161.39752</ele>
        <time>2023-07-30T14:56:30.000Z</time>
      </trkpt>
      <trkpt lat="43.73743" lon="1.41985">
        <ele>161.39752</ele>
        <time>2023-07-30T14:56:30.000Z</time>
      </trkpt>
      <trkpt lat="43.73743" lon="1.41985">
        <ele>161.39752</ele>
        <time>2023-07-30T14:56:31.000Z</time>
      </trkpt>
      <trkpt lat="43.73743" lon="1.41985">
        <ele>161.39752</ele>
        <time>2023-07-30T14:56:33.000Z</time>
      </trkpt>
      <trkpt lat="43.73744" lon="1.41986">
        <ele>161.490236</ele>
        <time>2023-07-30T14:56:33.000Z</time>
      </trkpt>
      <trkpt lat="43.73744" lon="1.41986">
        <ele>161.490236</ele>
        <time>2023-07-30T14:56:33.000Z</time>
      </trkpt>
      <trkpt lat="43.73744" lon="1.41986">
        <ele>161.490236</ele>
        <time>2023-07-30T14:56:35.000Z</time>
      </trkpt>
      <trkpt lat="43.73744" lon="1.41986">
        <ele>161.490236</ele>
        <time>2023-07-30T14:56:36.000Z</time>
      </trkpt>
      <trkpt lat="43.73744" lon="1.41987">
        <ele>161.53572</ele>
        <time>2023-07-30T14:56:37.000Z</time>
      </trkpt>
      <trkpt lat="43.73744" lon="1.41987">
        <ele>161.53572</ele>
        <time>2023-07-30T14:56:37.000Z</time>
      </trkpt>
      <trkpt lat="43.73744" lon="1.41987">
        <ele>161.53572</ele>
        <time>2023-07-30T14:56:39.000Z</time>
      </trkpt>
      <trkpt lat="43.73745" lon="1.41991">
        <ele>161.824239</ele>
        <time>2023-07-30T14:56:40.000Z</time>
      </trkpt>
      <trkpt lat="43.73745" lon="1.41991">
        <ele>161.824239</ele>
        <time>2023-07-30T14:56:40.000Z</time>
      </trkpt>
      <trkpt lat="43.73745" lon="1.41991">
        <ele>161.824239</ele>
        <time>2023-07-30T14:56:42.000Z</time>
      </trkpt>
      <trkpt lat="43.73745" lon="1.41991">
        <ele>161.824239</ele>
        <time>2023-07-30T14:56:43.000Z</time>
      </trkpt>
      <trkpt lat="43.73745" lon="1.41991">
        <ele>161.824239</ele>
        <time>2023-07-30T14:56:45.000Z</time>
      </trkpt>
      <trkpt lat="43.73745" lon="1.41996">
        <ele>162.118844</ele>
        <time>2023-07-30T14:56:47.000Z</time>
      </trkpt>
      <trkpt lat="43.73745" lon="1.41996">
        <ele>162.118844</ele>
        <time>2023-07-30T14:56:49.000Z</time>
      </trkpt>
      <trkpt lat="43.73743" lon="1.41998">
        <ele>162.32482</ele>
        <time>2023-07-30T14:56:50.000Z</time>
      </trkpt>
      <trkpt lat="43.73743" lon="1.41998">
        <ele>162.32482</ele>
        <time>2023-07-30T14:56:50.000Z</time>
      </trkpt>
      <trkpt lat="43.73743" lon="1.41998">
        <ele>162.32482</ele>
        <time>2023-07-30T14:56:51.000Z</time>
      </trkpt>
      <trkpt lat="43.73743" lon="1.41998">
        <ele>162.32482</ele>
        <time>2023-07-30T14:56:55.000Z</time>
      </trkpt>
      <trkpt lat="43.73741" lon="1.42002">
        <ele>162.651003</ele>
        <time>2023-07-30T14:56:56.000Z</time>
      </trkpt>
      <trkpt lat="43.73741" lon="1.42002">
        <ele>162.651003</ele>
        <time>2023-07-30T14:56:57.000Z</time>
      </trkpt>
      <trkpt lat="43.73741" lon="1.42002">
        <ele>162.651003</ele>
        <time>2023-07-30T14:56:59.000Z</time>
      </trkpt>
      <trkpt lat="43.73741" lon="1.42002">
        <ele>162.689989</ele>
        <time>2023-07-30T14:57:00.000Z</time>
      </trkpt>
      <trkpt lat="43.73741" lon="1.42002">
        <ele>162.689989</ele>
        <time>2023-07-30T14:57:01.000Z</time>
      </trkpt>
      <trkpt lat="43.7374" lon="1.42004">
        <ele>162.844419</ele>
        <time>2023-07-30T14:57:04.000Z</time>
      </trkpt>
      <trkpt lat="43.7374" lon="1.42005">
        <ele>162.922393</ele>
        <time>2023-07-30T14:57:05.000Z</time>
      </trkpt>
      <trkpt lat="43.7374" lon="1.42007">
        <ele>163.006864</ele>
        <time>2023-07-30T14:57:06.000Z</time>
      </trkpt>
      <trkpt lat="43.7374" lon="1.42007">
        <ele>163.006864</ele>
        <time>2023-07-30T14:57:06.000Z</time>
      </trkpt>
      <trkpt lat="43.7374" lon="1.42009">
        <ele>163.154272</ele>
        <time>2023-07-30T14:57:07.000Z</time>
      </trkpt>
      <trkpt lat="43.7374" lon="1.42009">
        <ele>163.154272</ele>
        <time>2023-07-30T14:57:07.000Z</time>
      </trkpt>
      <trkpt lat="43.73741" lon="1.42011">
        <ele>163.297164</ele>
        <time>2023-07-30T14:57:08.000Z</time>
      </trkpt>
      <trkpt lat="43.73741" lon="1.42011">
        <ele>163.297164</ele>
        <time>2023-07-30T14:57:08.000Z</time>
      </trkpt>
      <trkpt lat="43.73742" lon="1.42013">
        <ele>163.42999</ele>
        <time>2023-07-30T14:57:10.000Z</time>
      </trkpt>
      <trkpt lat="43.73742" lon="1.42013">
        <ele>163.42999</ele>
        <time>2023-07-30T14:57:10.000Z</time>
      </trkpt>
      <trkpt lat="43.73743" lon="1.42014">
        <ele>163.611393</ele>
        <time>2023-07-30T14:57:11.000Z</time>
      </trkpt>
      <trkpt lat="43.73743" lon="1.42014">
        <ele>163.611393</ele>
        <time>2023-07-30T14:57:11.000Z</time>
      </trkpt>
      <trkpt lat="43.73745" lon="1.42016">
        <ele>163.803272</ele>
        <time>2023-07-30T14:57:12.000Z</time>
      </trkpt>
      <trkpt lat="43.73745" lon="1.42016">
        <ele>163.803272</ele>
        <time>2023-07-30T14:57:12.000Z</time>
      </trkpt>
      <trkpt lat="43.73747" lon="1.42019">
        <ele>164.030279</ele>
        <time>2023-07-30T14:57:13.000Z</time>
      </trkpt>
      <trkpt lat="43.73747" lon="1.42019">
        <ele>164.030279</ele>
        <time>2023-07-30T14:57:13.000Z</time>
      </trkpt>
      <trkpt lat="43.73748" lon="1.4202">
        <ele>164.189443</ele>
        <time>2023-07-30T14:57:14.000Z</time>
      </trkpt>
      <trkpt lat="43.73748" lon="1.4202">
        <ele>164.189443</ele>
        <time>2023-07-30T14:57:14.000Z</time>
      </trkpt>
      <trkpt lat="43.7375" lon="1.42021">
        <ele>164.348607</ele>
        <time>2023-07-30T14:57:15.000Z</time>
      </trkpt>
      <trkpt lat="43.7375" lon="1.42021">
        <ele>164.348607</ele>
        <time>2023-07-30T14:57:15.000Z</time>
      </trkpt>
      <trkpt lat="43.73751" lon="1.42023">
        <ele>164.522403</ele>
        <time>2023-07-30T14:57:16.000Z</time>
      </trkpt>
      <trkpt lat="43.73751" lon="1.42023">
        <ele>164.522403</ele>
        <time>2023-07-30T14:57:16.000Z</time>
      </trkpt>
      <trkpt lat="43.73753" lon="1.42025">
        <ele>164.700945</ele>
        <time>2023-07-30T14:57:18.000Z</time>
      </trkpt>
      <trkpt lat="43.73753" lon="1.42025">
        <ele>164.700945</ele>
        <time>2023-07-30T14:57:18.000Z</time>
      </trkpt>
      <trkpt lat="43.73754" lon="1.42026">
        <ele>164.835339</ele>
        <time>2023-07-30T14:57:19.000Z</time>
      </trkpt>
      <trkpt lat="43.73754" lon="1.42026">
        <ele>164.835339</ele>
        <time>2023-07-30T14:57:19.000Z</time>
      </trkpt>
      <trkpt lat="43.73756" lon="1.4203">
        <ele>165.135613</ele>
        <time>2023-07-30T14:57:20.000Z</time>
      </trkpt>
      <trkpt lat="43.73756" lon="1.4203">
        <ele>165.135613</ele>
        <time>2023-07-30T14:57:20.000Z</time>
      </trkpt>
      <trkpt lat="43.73757" lon="1.42034">
        <ele>165.47321</ele>
        <time>2023-07-30T14:57:21.000Z</time>
      </trkpt>
      <trkpt lat="43.73757" lon="1.42034">
        <ele>165.47321</ele>
        <time>2023-07-30T14:57:21.000Z</time>
      </trkpt>
      <trkpt lat="43.73758" lon="1.42041">
        <ele>165.913325</ele>
        <time>2023-07-30T14:57:22.000Z</time>
      </trkpt>
      <trkpt lat="43.73758" lon="1.42041">
        <ele>165.913325</ele>
        <time>2023-07-30T14:57:22.000Z</time>
      </trkpt>
      <trkpt lat="43.73759" lon="1.42044">
        <ele>166.105163</ele>
        <time>2023-07-30T14:57:24.000Z</time>
      </trkpt>
      <trkpt lat="43.73759" lon="1.42044">
        <ele>166.105163</ele>
        <time>2023-07-30T14:57:24.000Z</time>
      </trkpt>
      <trkpt lat="43.7376" lon="1.42047">
        <ele>166.30081</ele>
        <time>2023-07-30T14:57:25.000Z</time>
      </trkpt>
      <trkpt lat="43.7376" lon="1.42047">
        <ele>166.30081</ele>
        <time>2023-07-30T14:57:25.000Z</time>
      </trkpt>
      <trkpt lat="43.7376" lon="1.4205">
        <ele>166.53628</ele>
        <time>2023-07-30T14:57:27.000Z</time>
      </trkpt>
      <trkpt lat="43.7376" lon="1.4205">
        <ele>166.53628</ele>
        <time>2023-07-30T14:57:27.000Z</time>
      </trkpt>
      <trkpt lat="43.7376" lon="1.42054">
        <ele>166.763702</ele>
        <time>2023-07-30T14:57:28.000Z</time>
      </trkpt>
      <trkpt lat="43.7376" lon="1.42054">
        <ele>166.763702</ele>
        <time>2023-07-30T14:57:28.000Z</time>
      </trkpt>
      <trkpt lat="43.7376" lon="1.42058">
        <ele>167.032529</ele>
        <time>2023-07-30T14:57:29.000Z</time>
      </trkpt>
      <trkpt lat="43.7376" lon="1.42058">
        <ele>167.032529</ele>
        <time>2023-07-30T14:57:29.000Z</time>
      </trkpt>
      <trkpt lat="43.7376" lon="1.42063">
        <ele>167.333583</ele>
        <time>2023-07-30T14:57:29.000Z</time>
      </trkpt>
      <trkpt lat="43.7376" lon="1.42063">
        <ele>167.333583</ele>
        <time>2023-07-30T14:57:29.000Z</time>
      </trkpt>
      <trkpt lat="43.7376" lon="1.42063">
        <ele>167.333583</ele>
        <time>2023-07-30T14:57:31.000Z</time>
      </trkpt>
      <trkpt lat="43.7376" lon="1.4207">
        <ele>167.828722</ele>
        <time>2023-07-30T14:57:32.000Z</time>
      </trkpt>
      <trkpt lat="43.7376" lon="1.4207">
        <ele>167.828722</ele>
        <time>2023-07-30T14:57:32.000Z</time>
      </trkpt>
      <trkpt lat="43.7376" lon="1.42073">
        <ele>167.988764</ele>
        <time>2023-07-30T14:57:33.000Z</time>
      </trkpt>
      <trkpt lat="43.7376" lon="1.42073">
        <ele>167.988764</ele>
        <time>2023-07-30T14:57:33.000Z</time>
      </trkpt>
      <trkpt lat="43.7376" lon="1.42074">
        <ele>168.05912</ele>
        <time>2023-07-30T14:57:34.000Z</time>
      </trkpt>
      <trkpt lat="43.73759" lon="1.42076">
        <ele>168.22303</ele>
        <time>2023-07-30T14:57:36.000Z</time>
      </trkpt>
      <trkpt lat="43.73759" lon="1.42076">
        <ele>168.22303</ele>
        <time>2023-07-30T14:57:36.000Z</time>
      </trkpt>
      <trkpt lat="43.73758" lon="1.42079">
        <ele>168.348491</ele>
        <time>2023-07-30T14:57:37.000Z</time>
      </trkpt>
      <trkpt lat="43.73758" lon="1.42079">
        <ele>168.348491</ele>
        <time>2023-07-30T14:57:37.000Z</time>
      </trkpt>
      <trkpt lat="43.73756" lon="1.42082">
        <ele>168.481715</ele>
        <time>2023-07-30T14:57:38.000Z</time>
      </trkpt>
      <trkpt lat="43.73756" lon="1.42082">
        <ele>168.481715</ele>
        <time>2023-07-30T14:57:38.000Z</time>
      </trkpt>
      <trkpt lat="43.73756" lon="1.42082">
        <ele>168.481715</ele>
        <time>2023-07-30T14:57:40.000Z</time>
      </trkpt>
      <trkpt lat="43.73755" lon="1.42089">
        <ele>168.789335</ele>
        <time>2023-07-30T14:57:41.000Z</time>
      </trkpt>
      <trkpt lat="43.73755" lon="1.42089">
        <ele>168.789335</ele>
        <time>2023-07-30T14:57:41.000Z</time>
      </trkpt>
      <trkpt lat="43.73755" lon="1.42089">
        <ele>168.789335</ele>
        <time>2023-07-30T14:57:42.000Z</time>
      </trkpt>
      <trkpt lat="43.73756" lon="1.4209">
        <ele>168.834596</ele>
        <time>2023-07-30T14:57:43.000Z</time>
      </trkpt>
      <trkpt lat="43.73756" lon="1.4209">
        <ele>168.834596</ele>
        <time>2023-07-30T14:57:43.000Z</time>
      </trkpt>
      <trkpt lat="43.73758" lon="1.4209">
        <ele>168.968707</ele>
        <time>2023-07-30T14:57:45.000Z</time>
      </trkpt>
      <trkpt lat="43.73758" lon="1.4209">
        <ele>168.968707</ele>
        <time>2023-07-30T14:57:45.000Z</time>
      </trkpt>
      <trkpt lat="43.7376" lon="1.42092">
        <ele>169.119558</ele>
        <time>2023-07-30T14:57:46.000Z</time>
      </trkpt>
      <trkpt lat="43.7376" lon="1.42092">
        <ele>169.119558</ele>
        <time>2023-07-30T14:57:46.000Z</time>
      </trkpt>
      <trkpt lat="43.73763" lon="1.42094">
        <ele>169.305206</ele>
        <time>2023-07-30T14:57:47.000Z</time>
      </trkpt>
      <trkpt lat="43.73763" lon="1.42094">
        <ele>169.305206</ele>
        <time>2023-07-30T14:57:47.000Z</time>
      </trkpt>
      <trkpt lat="43.73765" lon="1.42097">
        <ele>169.459785</ele>
        <time>2023-07-30T14:57:48.000Z</time>
      </trkpt>
      <trkpt lat="43.73765" lon="1.42097">
        <ele>169.459785</ele>
        <time>2023-07-30T14:57:48.000Z</time>
      </trkpt>
      <trkpt lat="43.73766" lon="1.421">
        <ele>169.60549</ele>
        <time>2023-07-30T14:57:49.000Z</time>
      </trkpt>
      <trkpt lat="43.73766" lon="1.421">
        <ele>169.60549</ele>
        <time>2023-07-30T14:57:49.000Z</time>
      </trkpt>
      <trkpt lat="43.73767" lon="1.42102">
        <ele>169.73135</ele>
        <time>2023-07-30T14:57:50.000Z</time>
      </trkpt>
      <trkpt lat="43.73767" lon="1.42102">
        <ele>169.73135</ele>
        <time>2023-07-30T14:57:50.000Z</time>
      </trkpt>
      <trkpt lat="43.73769" lon="1.42105">
        <ele>169.854787</ele>
        <time>2023-07-30T14:57:51.000Z</time>
      </trkpt>
      <trkpt lat="43.73769" lon="1.42105">
        <ele>169.854787</ele>
        <time>2023-07-30T14:57:51.000Z</time>
      </trkpt>
      <trkpt lat="43.73769" lon="1.42106">
        <ele>169.94671</ele>
        <time>2023-07-30T14:57:53.000Z</time>
      </trkpt>
      <trkpt lat="43.73769" lon="1.42106">
        <ele>169.94671</ele>
        <time>2023-07-30T14:57:53.000Z</time>
      </trkpt>
      <trkpt lat="43.7377" lon="1.42108">
        <ele>170.014482</ele>
        <time>2023-07-30T14:57:54.000Z</time>
      </trkpt>
      <trkpt lat="43.7377" lon="1.42108">
        <ele>170.014482</ele>
        <time>2023-07-30T14:57:54.000Z</time>
      </trkpt>
      <trkpt lat="43.7377" lon="1.42108">
        <ele>170.014482</ele>
        <time>2023-07-30T14:57:55.000Z</time>
      </trkpt>
      <trkpt lat="43.73774" lon="1.42113">
        <ele>170.348995</ele>
        <time>2023-07-30T14:57:56.000Z</time>
      </trkpt>
      <trkpt lat="43.73774" lon="1.42113">
        <ele>170.348995</ele>
        <time>2023-07-30T14:57:56.000Z</time>
      </trkpt>
      <trkpt lat="43.73776" lon="1.42115">
        <ele>170.460798</ele>
        <time>2023-07-30T14:57:57.000Z</time>
      </trkpt>
      <trkpt lat="43.73776" lon="1.42115">
        <ele>170.460798</ele>
        <time>2023-07-30T14:57:57.000Z</time>
      </trkpt>
      <trkpt lat="43.73778" lon="1.42116">
        <ele>170.585329</ele>
        <time>2023-07-30T14:57:59.000Z</time>
      </trkpt>
      <trkpt lat="43.73778" lon="1.42116">
        <ele>170.585329</ele>
        <time>2023-07-30T14:57:59.000Z</time>
      </trkpt>
      <trkpt lat="43.73779" lon="1.42117">
        <ele>170.661469</ele>
        <time>2023-07-30T14:58:00.000Z</time>
      </trkpt>
      <trkpt lat="43.73779" lon="1.42117">
        <ele>170.661469</ele>
        <time>2023-07-30T14:58:00.000Z</time>
      </trkpt>
      <trkpt lat="43.73783" lon="1.42121">
        <ele>170.945102</ele>
        <time>2023-07-30T14:58:01.000Z</time>
      </trkpt>
      <trkpt lat="43.73783" lon="1.42121">
        <ele>170.945102</ele>
        <time>2023-07-30T14:58:01.000Z</time>
      </trkpt>
      <trkpt lat="43.73786" lon="1.42123">
        <ele>171.14478</ele>
        <time>2023-07-30T14:58:03.000Z</time>
      </trkpt>
      <trkpt lat="43.73786" lon="1.42123">
        <ele>171.14478</ele>
        <time>2023-07-30T14:58:03.000Z</time>
      </trkpt>
      <trkpt lat="43.73789" lon="1.42125">
        <ele>171.321085</ele>
        <time>2023-07-30T14:58:04.000Z</time>
      </trkpt>
      <trkpt lat="43.73789" lon="1.42125">
        <ele>171.321085</ele>
        <time>2023-07-30T14:58:04.000Z</time>
      </trkpt>
      <trkpt lat="43.73791" lon="1.42127">
        <ele>171.47605</ele>
        <time>2023-07-30T14:58:06.000Z</time>
      </trkpt>
      <trkpt lat="43.73791" lon="1.42127">
        <ele>171.47605</ele>
        <time>2023-07-30T14:58:06.000Z</time>
      </trkpt>
      <trkpt lat="43.73794" lon="1.42129">
        <ele>171.661697</ele>
        <time>2023-07-30T14:58:07.000Z</time>
      </trkpt>
      <trkpt lat="43.73794" lon="1.42129">
        <ele>171.661697</ele>
        <time>2023-07-30T14:58:07.000Z</time>
      </trkpt>
      <trkpt lat="43.73796" lon="1.42131">
        <ele>171.814562</ele>
        <time>2023-07-30T14:58:08.000Z</time>
      </trkpt>
      <trkpt lat="43.73796" lon="1.42131">
        <ele>171.814562</ele>
        <time>2023-07-30T14:58:08.000Z</time>
      </trkpt>
      <trkpt lat="43.73798" lon="1.42132">
        <ele>171.910886</ele>
        <time>2023-07-30T14:58:09.000Z</time>
      </trkpt>
      <trkpt lat="43.73798" lon="1.42132">
        <ele>171.910886</ele>
        <time>2023-07-30T14:58:09.000Z</time>
      </trkpt>
      <trkpt lat="43.738" lon="1.42133">
        <ele>172.077695</ele>
        <time>2023-07-30T14:58:10.000Z</time>
      </trkpt>
      <trkpt lat="43.73803" lon="1.42135">
        <ele>172.258361</ele>
        <time>2023-07-30T14:58:12.000Z</time>
      </trkpt>
      <trkpt lat="43.73803" lon="1.42135">
        <ele>172.258361</ele>
        <time>2023-07-30T14:58:12.000Z</time>
      </trkpt>
      <trkpt lat="43.73806" lon="1.42136">
        <ele>172.402094</ele>
        <time>2023-07-30T14:58:13.000Z</time>
      </trkpt>
      <trkpt lat="43.7381" lon="1.42138">
        <ele>172.65526</ele>
        <time>2023-07-30T14:58:14.000Z</time>
      </trkpt>
      <trkpt lat="43.7381" lon="1.42138">
        <ele>172.65526</ele>
        <time>2023-07-30T14:58:14.000Z</time>
      </trkpt>
      <trkpt lat="43.73815" lon="1.4214">
        <ele>172.958798</ele>
        <time>2023-07-30T14:58:15.000Z</time>
      </trkpt>
      <trkpt lat="43.73815" lon="1.4214">
        <ele>172.958798</ele>
        <time>2023-07-30T14:58:15.000Z</time>
      </trkpt>
      <trkpt lat="43.73817" lon="1.42141">
        <ele>173.101003</ele>
        <time>2023-07-30T14:58:16.000Z</time>
      </trkpt>
      <trkpt lat="43.73817" lon="1.42141">
        <ele>173.101003</ele>
        <time>2023-07-30T14:58:16.000Z</time>
      </trkpt>
      <trkpt lat="43.73819" lon="1.42143">
        <ele>173.241675</ele>
        <time>2023-07-30T14:58:18.000Z</time>
      </trkpt>
      <trkpt lat="43.7382" lon="1.42145">
        <ele>173.328131</ele>
        <time>2023-07-30T14:58:19.000Z</time>
      </trkpt>
      <trkpt lat="43.7382" lon="1.42145">
        <ele>173.328131</ele>
        <time>2023-07-30T14:58:19.000Z</time>
      </trkpt>
      <trkpt lat="43.73822" lon="1.42147">
        <ele>173.454574</ele>
        <time>2023-07-30T14:58:20.000Z</time>
      </trkpt>
      <trkpt lat="43.73823" lon="1.42149">
        <ele>173.582144</ele>
        <time>2023-07-30T14:58:20.000Z</time>
      </trkpt>
      <trkpt lat="43.73823" lon="1.42149">
        <ele>173.582144</ele>
        <time>2023-07-30T14:58:20.000Z</time>
      </trkpt>
      <trkpt lat="43.73825" lon="1.42152">
        <ele>173.724512</ele>
        <time>2023-07-30T14:58:22.000Z</time>
      </trkpt>
      <trkpt lat="43.73825" lon="1.42152">
        <ele>173.758637</ele>
        <time>2023-07-30T14:58:22.000Z</time>
      </trkpt>
      <trkpt lat="43.73824" lon="1.42153">
        <ele>173.809421</ele>
        <time>2023-07-30T14:58:25.000Z</time>
      </trkpt>
      <trkpt lat="43.73826" lon="1.42154">
        <ele>173.895071</ele>
        <time>2023-07-30T14:58:26.000Z</time>
      </trkpt>
      <trkpt lat="43.73826" lon="1.42154">
        <ele>173.895071</ele>
        <time>2023-07-30T14:58:26.000Z</time>
      </trkpt>
      <trkpt lat="43.7383" lon="1.42156">
        <ele>174.149442</ele>
        <time>2023-07-30T14:58:27.000Z</time>
      </trkpt>
      <trkpt lat="43.73833" lon="1.42156">
        <ele>174.346191</ele>
        <time>2023-07-30T14:58:28.000Z</time>
      </trkpt>
      <trkpt lat="43.73838" lon="1.42155">
        <ele>174.630785</ele>
        <time>2023-07-30T14:58:29.000Z</time>
      </trkpt>
      <trkpt lat="43.73838" lon="1.42155">
        <ele>174.630785</ele>
        <time>2023-07-30T14:58:29.000Z</time>
      </trkpt>
      <trkpt lat="43.73845" lon="1.42153">
        <ele>175.064874</ele>
        <time>2023-07-30T14:58:30.000Z</time>
      </trkpt>
      <trkpt lat="43.73852" lon="1.4215">
        <ele>175.461285</ele>
        <time>2023-07-30T14:58:32.000Z</time>
      </trkpt>
      <trkpt lat="43.73852" lon="1.4215">
        <ele>175.461285</ele>
        <time>2023-07-30T14:58:32.000Z</time>
      </trkpt>
      <trkpt lat="43.73857" lon="1.42147">
        <ele>175.792564</ele>
        <time>2023-07-30T14:58:32.000Z</time>
      </trkpt>
      <trkpt lat="43.73864" lon="1.42143">
        <ele>176.220673</ele>
        <time>2023-07-30T14:58:33.000Z</time>
      </trkpt>
      <trkpt lat="43.73864" lon="1.42143">
        <ele>176.220673</ele>
        <time>2023-07-30T14:58:33.000Z</time>
      </trkpt>
      <trkpt lat="43.73869" lon="1.4214">
        <ele>176.530656</ele>
        <time>2023-07-30T14:58:34.000Z</time>
      </trkpt>
      <trkpt lat="43.73873" lon="1.42137">
        <ele>176.800363</ele>
        <time>2023-07-30T14:58:35.000Z</time>
      </trkpt>
      <trkpt lat="43.73873" lon="1.42137">
        <ele>176.800363</ele>
        <time>2023-07-30T14:58:35.000Z</time>
      </trkpt>
      <trkpt lat="43.73878" lon="1.42134">
        <ele>177.096363</ele>
        <time>2023-07-30T14:58:37.000Z</time>
      </trkpt>
      <trkpt lat="43.73881" lon="1.42132">
        <ele>177.311766</ele>
        <time>2023-07-30T14:58:39.000Z</time>
      </trkpt>
      <trkpt lat="43.73885" lon="1.42129">
        <ele>177.583312</ele>
        <time>2023-07-30T14:58:40.000Z</time>
      </trkpt>
      <trkpt lat="43.73885" lon="1.42129">
        <ele>177.583312</ele>
        <time>2023-07-30T14:58:40.000Z</time>
      </trkpt>
      <trkpt lat="43.73891" lon="1.42126">
        <ele>177.923156</ele>
        <time>2023-07-30T14:58:40.000Z</time>
      </trkpt>
      <trkpt lat="43.73896" lon="1.42122">
        <ele>178.259383</ele>
        <time>2023-07-30T14:58:41.000Z</time>
      </trkpt>
      <trkpt lat="43.73905" lon="1.42117">
        <ele>178.484701</ele>
        <time>2023-07-30T14:58:43.000Z</time>
      </trkpt>
      <trkpt lat="43.7391" lon="1.42115">
        <ele>178.369732</ele>
        <time>2023-07-30T14:58:44.000Z</time>
      </trkpt>
      <trkpt lat="43.73915" lon="1.42113">
        <ele>178.253464</ele>
        <time>2023-07-30T14:58:46.000Z</time>
      </trkpt>
      <trkpt lat="43.73926" lon="1.4211">
        <ele>178.007771</ele>
        <time>2023-07-30T14:58:47.000Z</time>
      </trkpt>
      <trkpt lat="43.73926" lon="1.4211">
        <ele>178.007771</ele>
        <time>2023-07-30T14:58:47.000Z</time>
      </trkpt>
      <trkpt lat="43.73932" lon="1.4211">
        <ele>177.860913</ele>
        <time>2023-07-30T14:58:49.000Z</time>
      </trkpt>
      <trkpt lat="43.73944" lon="1.42109">
        <ele>177.595232</ele>
        <time>2023-07-30T14:58:51.000Z</time>
      </trkpt>
      <trkpt lat="43.73944" lon="1.42109">
        <ele>177.595232</ele>
        <time>2023-07-30T14:58:51.000Z</time>
      </trkpt>
      <trkpt lat="43.73948" lon="1.42107">
        <ele>177.505357</ele>
        <time>2023-07-30T14:58:52.000Z</time>
      </trkpt>
      <trkpt lat="43.73957" lon="1.421">
        <ele>177.263153</ele>
        <time>2023-07-30T14:58:54.000Z</time>
      </trkpt>
      <trkpt lat="43.73957" lon="1.421">
        <ele>177.263153</ele>
        <time>2023-07-30T14:58:54.000Z</time>
      </trkpt>
      <trkpt lat="43.73961" lon="1.42097">
        <ele>177.169639</ele>
        <time>2023-07-30T14:58:55.000Z</time>
      </trkpt>
      <trkpt lat="43.73961" lon="1.42097">
        <ele>177.169639</ele>
        <time>2023-07-30T14:58:55.000Z</time>
      </trkpt>
      <trkpt lat="43.73964" lon="1.42095">
        <ele>177.090832</ele>
        <time>2023-07-30T14:58:55.000Z</time>
      </trkpt>
      <trkpt lat="43.73968" lon="1.42092">
        <ele>176.99395</ele>
        <time>2023-07-30T14:58:57.000Z</time>
      </trkpt>
      <trkpt lat="43.73968" lon="1.42092">
        <ele>176.99395</ele>
        <time>2023-07-30T14:58:57.000Z</time>
      </trkpt>
      <trkpt lat="43.73973" lon="1.42088">
        <ele>176.856115</ele>
        <time>2023-07-30T14:58:58.000Z</time>
      </trkpt>
      <trkpt lat="43.73973" lon="1.42088">
        <ele>176.856115</ele>
        <time>2023-07-30T14:58:58.000Z</time>
      </trkpt>
      <trkpt lat="43.73979" lon="1.42085">
        <ele>176.716433</ele>
        <time>2023-07-30T14:58:59.000Z</time>
      </trkpt>
      <trkpt lat="43.73979" lon="1.42085">
        <ele>176.716433</ele>
        <time>2023-07-30T14:58:59.000Z</time>
      </trkpt>
      <trkpt lat="43.73984" lon="1.42082">
        <ele>176.594429</ele>
        <time>2023-07-30T14:59:00.000Z</time>
      </trkpt>
      <trkpt lat="43.7399" lon="1.42079">
        <ele>176.456604</ele>
        <time>2023-07-30T14:59:01.000Z</time>
      </trkpt>
      <trkpt lat="43.7399" lon="1.42079">
        <ele>176.456604</ele>
        <time>2023-07-30T14:59:01.000Z</time>
      </trkpt>
      <trkpt lat="43.73994" lon="1.42076">
        <ele>176.337913</ele>
        <time>2023-07-30T14:59:02.000Z</time>
      </trkpt>
      <trkpt lat="43.73999" lon="1.42074">
        <ele>176.237955</ele>
        <time>2023-07-30T14:59:03.000Z</time>
      </trkpt>
      <trkpt lat="43.73999" lon="1.42074">
        <ele>176.237955</ele>
        <time>2023-07-30T14:59:03.000Z</time>
      </trkpt>
      <trkpt lat="43.74003" lon="1.42072">
        <ele>176.137997</ele>
        <time>2023-07-30T14:59:04.000Z</time>
      </trkpt>
      <trkpt lat="43.74003" lon="1.42072">
        <ele>176.137997</ele>
        <time>2023-07-30T14:59:04.000Z</time>
      </trkpt>
      <trkpt lat="43.74007" lon="1.4207">
        <ele>176.030848</ele>
        <time>2023-07-30T14:59:05.000Z</time>
      </trkpt>
      <trkpt lat="43.74007" lon="1.4207">
        <ele>176.030848</ele>
        <time>2023-07-30T14:59:05.000Z</time>
      </trkpt>
      <trkpt lat="43.74012" lon="1.42069">
        <ele>175.934335</ele>
        <time>2023-07-30T14:59:06.000Z</time>
      </trkpt>
      <trkpt lat="43.74012" lon="1.42069">
        <ele>175.934335</ele>
        <time>2023-07-30T14:59:06.000Z</time>
      </trkpt>
      <trkpt lat="43.74017" lon="1.42068">
        <ele>175.820132</ele>
        <time>2023-07-30T14:59:07.000Z</time>
      </trkpt>
      <trkpt lat="43.74022" lon="1.42067">
        <ele>175.699523</ele>
        <time>2023-07-30T14:59:08.000Z</time>
      </trkpt>
      <trkpt lat="43.74022" lon="1.42067">
        <ele>175.699523</ele>
        <time>2023-07-30T14:59:08.000Z</time>
      </trkpt>
      <trkpt lat="43.74025" lon="1.42066">
        <ele>175.622387</ele>
        <time>2023-07-30T14:59:09.000Z</time>
      </trkpt>
      <trkpt lat="43.74025" lon="1.42066">
        <ele>175.622387</ele>
        <time>2023-07-30T14:59:09.000Z</time>
      </trkpt>
      <trkpt lat="43.74031" lon="1.42065">
        <ele>175.490409</ele>
        <time>2023-07-30T14:59:10.000Z</time>
      </trkpt>
      <trkpt lat="43.74037" lon="1.42064">
        <ele>175.360402</ele>
        <time>2023-07-30T14:59:11.000Z</time>
      </trkpt>
      <trkpt lat="43.74037" lon="1.42064">
        <ele>175.360402</ele>
        <time>2023-07-30T14:59:11.000Z</time>
      </trkpt>
      <trkpt lat="43.74043" lon="1.42062">
        <ele>175.21236</ele>
        <time>2023-07-30T14:59:12.000Z</time>
      </trkpt>
      <trkpt lat="43.74049" lon="1.42061">
        <ele>175.082079</ele>
        <time>2023-07-30T14:59:13.000Z</time>
      </trkpt>
      <trkpt lat="43.74049" lon="1.42061">
        <ele>175.082079</ele>
        <time>2023-07-30T14:59:13.000Z</time>
      </trkpt>
      <trkpt lat="43.74054" lon="1.4206">
        <ele>174.977287</ele>
        <time>2023-07-30T14:59:14.000Z</time>
      </trkpt>
      <trkpt lat="43.74055" lon="1.4206">
        <ele>174.952479</ele>
        <time>2023-07-30T14:59:15.000Z</time>
      </trkpt>
      <trkpt lat="43.74055" lon="1.4206">
        <ele>174.952479</ele>
        <time>2023-07-30T14:59:15.000Z</time>
      </trkpt>
      <trkpt lat="43.74064" lon="1.42056">
        <ele>174.726381</ele>
        <time>2023-07-30T14:59:17.000Z</time>
      </trkpt>
      <trkpt lat="43.74064" lon="1.42056">
        <ele>174.726381</ele>
        <time>2023-07-30T14:59:17.000Z</time>
      </trkpt>
      <trkpt lat="43.74073" lon="1.42053">
        <ele>174.519165</ele>
        <time>2023-07-30T14:59:18.000Z</time>
      </trkpt>
      <trkpt lat="43.74077" lon="1.4205">
        <ele>174.0527</ele>
        <time>2023-07-30T14:59:19.000Z</time>
      </trkpt>
      <trkpt lat="43.74077" lon="1.4205">
        <ele>174.0527</ele>
        <time>2023-07-30T14:59:19.000Z</time>
      </trkpt>
      <trkpt lat="43.7408" lon="1.42046">
        <ele>173.510811</ele>
        <time>2023-07-30T14:59:20.000Z</time>
      </trkpt>
      <trkpt lat="43.74085" lon="1.42038">
        <ele>172.746588</ele>
        <time>2023-07-30T14:59:22.000Z</time>
      </trkpt>
      <trkpt lat="43.74085" lon="1.42038">
        <ele>172.746588</ele>
        <time>2023-07-30T14:59:22.000Z</time>
      </trkpt>
      <trkpt lat="43.74089" lon="1.42037">
        <ele>172.320497</ele>
        <time>2023-07-30T14:59:23.000Z</time>
      </trkpt>
      <trkpt lat="43.74089" lon="1.42037">
        <ele>172.320497</ele>
        <time>2023-07-30T14:59:23.000Z</time>
      </trkpt>
      <trkpt lat="43.74091" lon="1.42035">
        <ele>171.994313</ele>
        <time>2023-07-30T14:59:24.000Z</time>
      </trkpt>
      <trkpt lat="43.74091" lon="1.42035">
        <ele>171.994313</ele>
        <time>2023-07-30T14:59:24.000Z</time>
      </trkpt>
      <trkpt lat="43.74095" lon="1.42032">
        <ele>171.571077</ele>
        <time>2023-07-30T14:59:25.000Z</time>
      </trkpt>
      <trkpt lat="43.74095" lon="1.42032">
        <ele>171.571077</ele>
        <time>2023-07-30T14:59:25.000Z</time>
      </trkpt>
      <trkpt lat="43.74098" lon="1.4203">
        <ele>171.187543</ele>
        <time>2023-07-30T14:59:26.000Z</time>
      </trkpt>
      <trkpt lat="43.74101" lon="1.42027">
        <ele>170.745538</ele>
        <time>2023-07-30T14:59:28.000Z</time>
      </trkpt>
      <trkpt lat="43.74101" lon="1.42027">
        <ele>170.745538</ele>
        <time>2023-07-30T14:59:28.000Z</time>
      </trkpt>
      <trkpt lat="43.74103" lon="1.42024">
        <ele>170.461481</ele>
        <time>2023-07-30T14:59:29.000Z</time>
      </trkpt>
      <trkpt lat="43.74104" lon="1.42022">
        <ele>170.24555</ele>
        <time>2023-07-30T14:59:30.000Z</time>
      </trkpt>
      <trkpt lat="43.74105" lon="1.4202">
        <ele>170.052733</ele>
        <time>2023-07-30T14:59:31.000Z</time>
      </trkpt>
      <trkpt lat="43.74105" lon="1.4202">
        <ele>170.052733</ele>
        <time>2023-07-30T14:59:31.000Z</time>
      </trkpt>
      <trkpt lat="43.74104" lon="1.42018">
        <ele>169.890275</ele>
        <time>2023-07-30T14:59:32.000Z</time>
      </trkpt>
      <trkpt lat="43.74104" lon="1.42015">
        <ele>169.697465</ele>
        <time>2023-07-30T14:59:33.000Z</time>
      </trkpt>
      <trkpt lat="43.74104" lon="1.42015">
        <ele>169.697465</ele>
        <time>2023-07-30T14:59:33.000Z</time>
      </trkpt>
      <trkpt lat="43.74102" lon="1.42012">
        <ele>169.37922</ele>
        <time>2023-07-30T14:59:35.000Z</time>
      </trkpt>
      <trkpt lat="43.74102" lon="1.42012">
        <ele>169.37922</ele>
        <time>2023-07-30T14:59:35.000Z</time>
      </trkpt>
      <trkpt lat="43.74099" lon="1.42009">
        <ele>169.012442</ele>
        <time>2023-07-30T14:59:36.000Z</time>
      </trkpt>
      <trkpt lat="43.74099" lon="1.42009">
        <ele>169.012442</ele>
        <time>2023-07-30T14:59:36.000Z</time>
      </trkpt>
      <trkpt lat="43.74095" lon="1.42005">
        <ele>168.47561</ele>
        <time>2023-07-30T14:59:37.000Z</time>
      </trkpt>
      <trkpt lat="43.74095" lon="1.42005">
        <ele>168.47561</ele>
        <time>2023-07-30T14:59:37.000Z</time>
      </trkpt>
      <trkpt lat="43.74094" lon="1.42002">
        <ele>168.183697</ele>
        <time>2023-07-30T14:59:38.000Z</time>
      </trkpt>
      <trkpt lat="43.74094" lon="1.42002">
        <ele>168.183697</ele>
        <time>2023-07-30T14:59:38.000Z</time>
      </trkpt>
      <trkpt lat="43.74089" lon="1.41995">
        <ele>167.49517</ele>
        <time>2023-07-30T14:59:39.000Z</time>
      </trkpt>
      <trkpt lat="43.74089" lon="1.41995">
        <ele>167.49517</ele>
        <time>2023-07-30T14:59:39.000Z</time>
      </trkpt>
      <trkpt lat="43.74086" lon="1.41989">
        <ele>166.892038</ele>
        <time>2023-07-30T14:59:40.000Z</time>
      </trkpt>
      <trkpt lat="43.74086" lon="1.41989">
        <ele>166.892038</ele>
        <time>2023-07-30T14:59:40.000Z</time>
      </trkpt>
      <trkpt lat="43.74083" lon="1.41985">
        <ele>166.416488</ele>
        <time>2023-07-30T14:59:41.000Z</time>
      </trkpt>
      <trkpt lat="43.74083" lon="1.41985">
        <ele>166.416488</ele>
        <time>2023-07-30T14:59:41.000Z</time>
      </trkpt>
      <trkpt lat="43.74079" lon="1.41978">
        <ele>165.686444</ele>
        <time>2023-07-30T14:59:43.000Z</time>
      </trkpt>
      <trkpt lat="43.74079" lon="1.41978">
        <ele>165.686444</ele>
        <time>2023-07-30T14:59:43.000Z</time>
      </trkpt>
      <trkpt lat="43.74075" lon="1.41973">
        <ele>165.091248</ele>
        <time>2023-07-30T14:59:44.000Z</time>
      </trkpt>
      <trkpt lat="43.74075" lon="1.41973">
        <ele>165.091248</ele>
        <time>2023-07-30T14:59:44.000Z</time>
      </trkpt>
      <trkpt lat="43.74071" lon="1.41966">
        <ele>164.462875</ele>
        <time>2023-07-30T14:59:45.000Z</time>
      </trkpt>
      <trkpt lat="43.74071" lon="1.41966">
        <ele>164.462875</ele>
        <time>2023-07-30T14:59:45.000Z</time>
      </trkpt>
      <trkpt lat="43.74067" lon="1.41958">
        <ele>163.688706</ele>
        <time>2023-07-30T14:59:46.000Z</time>
      </trkpt>
      <trkpt lat="43.74067" lon="1.41958">
        <ele>163.688706</ele>
        <time>2023-07-30T14:59:46.000Z</time>
      </trkpt>
      <trkpt lat="43.74067" lon="1.41958">
        <ele>163.644662</ele>
        <time>2023-07-30T14:59:47.000Z</time>
      </trkpt>
      <trkpt lat="43.74061" lon="1.41944">
        <ele>162.351526</ele>
        <time>2023-07-30T14:59:48.000Z</time>
      </trkpt>
      <trkpt lat="43.74061" lon="1.41944">
        <ele>162.351526</ele>
        <time>2023-07-30T14:59:48.000Z</time>
      </trkpt>
      <trkpt lat="43.7406" lon="1.41941">
        <ele>162.072316</ele>
        <time>2023-07-30T14:59:49.000Z</time>
      </trkpt>
      <trkpt lat="43.74055" lon="1.41926">
        <ele>160.80037</ele>
        <time>2023-07-30T14:59:50.000Z</time>
      </trkpt>
      <trkpt lat="43.74055" lon="1.41926">
        <ele>160.80037</ele>
        <time>2023-07-30T14:59:50.000Z</time>
      </trkpt>
      <trkpt lat="43.74052" lon="1.41918">
        <ele>160.115511</ele>
        <time>2023-07-30T14:59:51.000Z</time>
      </trkpt>
      <trkpt lat="43.74052" lon="1.41918">
        <ele>160.115511</ele>
        <time>2023-07-30T14:59:51.000Z</time>
      </trkpt>
      <trkpt lat="43.74049" lon="1.4191">
        <ele>159.418594</ele>
        <time>2023-07-30T14:59:52.000Z</time>
      </trkpt>
      <trkpt lat="43.74049" lon="1.4191">
        <ele>159.418594</ele>
        <time>2023-07-30T14:59:52.000Z</time>
      </trkpt>
      <trkpt lat="43.74045" lon="1.41906">
        <ele>158.903417</ele>
        <time>2023-07-30T14:59:54.000Z</time>
      </trkpt>
      <trkpt lat="43.74045" lon="1.41906">
        <ele>158.903417</ele>
        <time>2023-07-30T14:59:54.000Z</time>
      </trkpt>
      <trkpt lat="43.74043" lon="1.41901">
        <ele>158.495386</ele>
        <time>2023-07-30T14:59:55.000Z</time>
      </trkpt>
      <trkpt lat="43.74043" lon="1.41901">
        <ele>158.495386</ele>
        <time>2023-07-30T14:59:55.000Z</time>
      </trkpt>
      <trkpt lat="43.7404" lon="1.41897">
        <ele>157.993454</ele>
        <time>2023-07-30T14:59:56.000Z</time>
      </trkpt>
      <trkpt lat="43.7404" lon="1.41897">
        <ele>157.993454</ele>
        <time>2023-07-30T14:59:56.000Z</time>
      </trkpt>
      <trkpt lat="43.74035" lon="1.41891">
        <ele>157.220946</ele>
        <time>2023-07-30T14:59:57.000Z</time>
      </trkpt>
      <trkpt lat="43.74035" lon="1.41891">
        <ele>157.220946</ele>
        <time>2023-07-30T14:59:57.000Z</time>
      </trkpt>
      <trkpt lat="43.7403" lon="1.41886">
        <ele>156.630763</ele>
        <time>2023-07-30T14:59:58.000Z</time>
      </trkpt>
      <trkpt lat="43.7403" lon="1.41886">
        <ele>156.630763</ele>
        <time>2023-07-30T14:59:58.000Z</time>
      </trkpt>
      <trkpt lat="43.74025" lon="1.41879">
        <ele>155.82608</ele>
        <time>2023-07-30T15:00:00.000Z</time>
      </trkpt>
      <trkpt lat="43.74025" lon="1.41879">
        <ele>155.82608</ele>
        <time>2023-07-30T15:00:00.000Z</time>
      </trkpt>
      <trkpt lat="43.74022" lon="1.41875">
        <ele>155.40232</ele>
        <time>2023-07-30T15:00:01.000Z</time>
      </trkpt>
      <trkpt lat="43.74022" lon="1.41875">
        <ele>155.40232</ele>
        <time>2023-07-30T15:00:01.000Z</time>
      </trkpt>
      <trkpt lat="43.7402" lon="1.41873">
        <ele>155.118262</ele>
        <time>2023-07-30T15:00:02.000Z</time>
      </trkpt>
      <trkpt lat="43.7402" lon="1.41873">
        <ele>155.118262</ele>
        <time>2023-07-30T15:00:02.000Z</time>
      </trkpt>
      <trkpt lat="43.74016" lon="1.41867">
        <ele>154.797826</ele>
        <time>2023-07-30T15:00:04.000Z</time>
      </trkpt>
      <trkpt lat="43.74016" lon="1.41867">
        <ele>154.797826</ele>
        <time>2023-07-30T15:00:04.000Z</time>
      </trkpt>
      <trkpt lat="43.74014" lon="1.41865">
        <ele>154.70784</ele>
        <time>2023-07-30T15:00:05.000Z</time>
      </trkpt>
      <trkpt lat="43.74014" lon="1.41865">
        <ele>154.70784</ele>
        <time>2023-07-30T15:00:05.000Z</time>
      </trkpt>
      <trkpt lat="43.74013" lon="1.41861">
        <ele>154.553122</ele>
        <time>2023-07-30T15:00:06.000Z</time>
      </trkpt>
      <trkpt lat="43.74013" lon="1.41861">
        <ele>154.553122</ele>
        <time>2023-07-30T15:00:06.000Z</time>
      </trkpt>
      <trkpt lat="43.74012" lon="1.41861">
        <ele>154.516847</ele>
        <time>2023-07-30T15:00:07.000Z</time>
      </trkpt>
      <trkpt lat="43.74012" lon="1.41861">
        <ele>154.516847</ele>
        <time>2023-07-30T15:00:07.000Z</time>
      </trkpt>
      <trkpt lat="43.74015" lon="1.41855">
        <ele>154.304595</ele>
        <time>2023-07-30T15:00:09.000Z</time>
      </trkpt>
      <trkpt lat="43.74015" lon="1.41855">
        <ele>154.304595</ele>
        <time>2023-07-30T15:00:09.000Z</time>
      </trkpt>
      <trkpt lat="43.74019" lon="1.41852">
        <ele>154.087703</ele>
        <time>2023-07-30T15:00:11.000Z</time>
      </trkpt>
      <trkpt lat="43.74019" lon="1.41852">
        <ele>154.087703</ele>
        <time>2023-07-30T15:00:11.000Z</time>
      </trkpt>
      <trkpt lat="43.74021" lon="1.41849">
        <ele>153.933346</ele>
        <time>2023-07-30T15:00:12.000Z</time>
      </trkpt>
      <trkpt lat="43.74021" lon="1.41849">
        <ele>153.933346</ele>
        <time>2023-07-30T15:00:12.000Z</time>
      </trkpt>
      <trkpt lat="43.74024" lon="1.41847">
        <ele>153.772022</ele>
        <time>2023-07-30T15:00:13.000Z</time>
      </trkpt>
      <trkpt lat="43.74024" lon="1.41847">
        <ele>153.772022</ele>
        <time>2023-07-30T15:00:13.000Z</time>
      </trkpt>
      <trkpt lat="43.74027" lon="1.41845">
        <ele>153.614809</ele>
        <time>2023-07-30T15:00:14.000Z</time>
      </trkpt>
      <trkpt lat="43.74031" lon="1.41844">
        <ele>153.427956</ele>
        <time>2023-07-30T15:00:15.000Z</time>
      </trkpt>
      <trkpt lat="43.7404" lon="1.41843">
        <ele>153.011359</ele>
        <time>2023-07-30T15:00:17.000Z</time>
      </trkpt>
      <trkpt lat="43.7404" lon="1.41843">
        <ele>153.011359</ele>
        <time>2023-07-30T15:00:17.000Z</time>
      </trkpt>
      <trkpt lat="43.74043" lon="1.41842">
        <ele>152.843321</ele>
        <time>2023-07-30T15:00:18.000Z</time>
      </trkpt>
      <trkpt lat="43.74046" lon="1.41841">
        <ele>152.719015</ele>
        <time>2023-07-30T15:00:19.000Z</time>
      </trkpt>
      <trkpt lat="43.7405" lon="1.41841">
        <ele>152.519176</ele>
        <time>2023-07-30T15:00:20.000Z</time>
      </trkpt>
      <trkpt lat="43.74053" lon="1.41841">
        <ele>152.389236</ele>
        <time>2023-07-30T15:00:21.000Z</time>
      </trkpt>
      <trkpt lat="43.74056" lon="1.4184">
        <ele>152.260526</ele>
        <time>2023-07-30T15:00:22.000Z</time>
      </trkpt>
      <trkpt lat="43.74056" lon="1.4184">
        <ele>152.260526</ele>
        <time>2023-07-30T15:00:22.000Z</time>
      </trkpt>
      <trkpt lat="43.7406" lon="1.4184">
        <ele>152.060923</ele>
        <time>2023-07-30T15:00:24.000Z</time>
      </trkpt>
      <trkpt lat="43.74068" lon="1.41838">
        <ele>151.657532</ele>
        <time>2023-07-30T15:00:26.000Z</time>
      </trkpt>
      <trkpt lat="43.74068" lon="1.41838">
        <ele>151.657532</ele>
        <time>2023-07-30T15:00:26.000Z</time>
      </trkpt>
      <trkpt lat="43.74069" lon="1.41837">
        <ele>151.593049</ele>
        <time>2023-07-30T15:00:27.000Z</time>
      </trkpt>
      <trkpt lat="43.74073" lon="1.41834">
        <ele>151.360096</ele>
        <time>2023-07-30T15:00:29.000Z</time>
      </trkpt>
      <trkpt lat="43.74073" lon="1.41834">
        <ele>151.360096</ele>
        <time>2023-07-30T15:00:29.000Z</time>
      </trkpt>
      <trkpt lat="43.74075" lon="1.41832">
        <ele>151.240156</ele>
        <time>2023-07-30T15:00:31.000Z</time>
      </trkpt>
      <trkpt lat="43.74075" lon="1.41832">
        <ele>151.240156</ele>
        <time>2023-07-30T15:00:31.000Z</time>
      </trkpt>
      <trkpt lat="43.74077" lon="1.4183">
        <ele>151.137877</ele>
        <time>2023-07-30T15:00:31.000Z</time>
      </trkpt>
      <trkpt lat="43.74077" lon="1.4183">
        <ele>151.137877</ele>
        <time>2023-07-30T15:00:31.000Z</time>
      </trkpt>
      <trkpt lat="43.74079" lon="1.41829">
        <ele>151.041287</ele>
        <time>2023-07-30T15:00:33.000Z</time>
      </trkpt>
      <trkpt lat="43.74079" lon="1.41829">
        <ele>151.041287</ele>
        <time>2023-07-30T15:00:33.000Z</time>
      </trkpt>
      <trkpt lat="43.74082" lon="1.41828">
        <ele>150.888331</ele>
        <time>2023-07-30T15:00:34.000Z</time>
      </trkpt>
      <trkpt lat="43.74082" lon="1.41828">
        <ele>150.888331</ele>
        <time>2023-07-30T15:00:34.000Z</time>
      </trkpt>
      <trkpt lat="43.74086" lon="1.41827">
        <ele>150.70514</ele>
        <time>2023-07-30T15:00:35.000Z</time>
      </trkpt>
      <trkpt lat="43.74086" lon="1.41827">
        <ele>150.70514</ele>
        <time>2023-07-30T15:00:35.000Z</time>
      </trkpt>
      <trkpt lat="43.74089" lon="1.41826">
        <ele>150.541803</ele>
        <time>2023-07-30T15:00:36.000Z</time>
      </trkpt>
      <trkpt lat="43.74089" lon="1.41826">
        <ele>150.541803</ele>
        <time>2023-07-30T15:00:36.000Z</time>
      </trkpt>
      <trkpt lat="43.74093" lon="1.41826">
        <ele>150.374926</ele>
        <time>2023-07-30T15:00:37.000Z</time>
      </trkpt>
      <trkpt lat="43.74096" lon="1.41825">
        <ele>150.212457</ele>
        <time>2023-07-30T15:00:39.000Z</time>
      </trkpt>
      <trkpt lat="43.74096" lon="1.41825">
        <ele>150.212457</ele>
        <time>2023-07-30T15:00:39.000Z</time>
      </trkpt>
      <trkpt lat="43.74099" lon="1.41825">
        <ele>150.083017</ele>
        <time>2023-07-30T15:00:40.000Z</time>
      </trkpt>
      <trkpt lat="43.74099" lon="1.41825">
        <ele>150.083017</ele>
        <time>2023-07-30T15:00:40.000Z</time>
      </trkpt>
      <trkpt lat="43.74101" lon="1.41825">
        <ele>149.973673</ele>
        <time>2023-07-30T15:00:41.000Z</time>
      </trkpt>
      <trkpt lat="43.74101" lon="1.41825">
        <ele>149.973673</ele>
        <time>2023-07-30T15:00:41.000Z</time>
      </trkpt>
      <trkpt lat="43.74104" lon="1.41824">
        <ele>149.829109</ele>
        <time>2023-07-30T15:00:42.000Z</time>
      </trkpt>
      <trkpt lat="43.74104" lon="1.41824">
        <ele>149.829109</ele>
        <time>2023-07-30T15:00:42.000Z</time>
      </trkpt>
      <trkpt lat="43.74109" lon="1.41824">
        <ele>149.629507</ele>
        <time>2023-07-30T15:00:43.000Z</time>
      </trkpt>
      <trkpt lat="43.74113" lon="1.41824">
        <ele>149.429461</ele>
        <time>2023-07-30T15:00:45.000Z</time>
      </trkpt>
      <trkpt lat="43.74117" lon="1.41824">
        <ele>149.248862</ele>
        <time>2023-07-30T15:00:46.000Z</time>
      </trkpt>
      <trkpt lat="43.74121" lon="1.41823">
        <ele>149.048229</ele>
        <time>2023-07-30T15:00:47.000Z</time>
      </trkpt>
      <trkpt lat="43.74121" lon="1.41823">
        <ele>149.048229</ele>
        <time>2023-07-30T15:00:47.000Z</time>
      </trkpt>
      <trkpt lat="43.74124" lon="1.41823">
        <ele>148.900565</ele>
        <time>2023-07-30T15:00:48.000Z</time>
      </trkpt>
      <trkpt lat="43.74128" lon="1.41822">
        <ele>148.717375</ele>
        <time>2023-07-30T15:00:49.000Z</time>
      </trkpt>
      <trkpt lat="43.74128" lon="1.41822">
        <ele>148.717375</ele>
        <time>2023-07-30T15:00:49.000Z</time>
      </trkpt>
      <trkpt lat="43.7413" lon="1.41822">
        <ele>148.587435</ele>
        <time>2023-07-30T15:00:50.000Z</time>
      </trkpt>
      <trkpt lat="43.74136" lon="1.4182">
        <ele>148.312354</ele>
        <time>2023-07-30T15:00:51.000Z</time>
      </trkpt>
      <trkpt lat="43.74141" lon="1.41819">
        <ele>148.07461</ele>
        <time>2023-07-30T15:00:52.000Z</time>
      </trkpt>
      <trkpt lat="43.74147" lon="1.41816">
        <ele>147.774191</ele>
        <time>2023-07-30T15:00:53.000Z</time>
      </trkpt>
      <trkpt lat="43.74151" lon="1.41815">
        <ele>147.586426</ele>
        <time>2023-07-30T15:00:54.000Z</time>
      </trkpt>
      <trkpt lat="43.74151" lon="1.41815">
        <ele>147.586426</ele>
        <time>2023-07-30T15:00:54.000Z</time>
      </trkpt>
      <trkpt lat="43.74156" lon="1.41813">
        <ele>147.341776</ele>
        <time>2023-07-30T15:00:55.000Z</time>
      </trkpt>
      <trkpt lat="43.74162" lon="1.41811">
        <ele>147.060593</ele>
        <time>2023-07-30T15:00:57.000Z</time>
      </trkpt>
      <trkpt lat="43.74169" lon="1.41806">
        <ele>146.679461</ele>
        <time>2023-07-30T15:00:58.000Z</time>
      </trkpt>
      <trkpt lat="43.74173" lon="1.41805">
        <ele>146.494608</ele>
        <time>2023-07-30T15:01:00.000Z</time>
      </trkpt>
      <trkpt lat="43.74173" lon="1.41805">
        <ele>146.494608</ele>
        <time>2023-07-30T15:01:00.000Z</time>
      </trkpt>
      <trkpt lat="43.74177" lon="1.41803">
        <ele>146.478251</ele>
        <time>2023-07-30T15:01:02.000Z</time>
      </trkpt>
      <trkpt lat="43.74179" lon="1.41803">
        <ele>146.471947</ele>
        <time>2023-07-30T15:01:03.000Z</time>
      </trkpt>
      <trkpt lat="43.74181" lon="1.41803">
        <ele>146.462305</ele>
        <time>2023-07-30T15:01:05.000Z</time>
      </trkpt>
      <trkpt lat="43.74183" lon="1.41804">
        <ele>146.454351</ele>
        <time>2023-07-30T15:01:08.000Z</time>
      </trkpt>
      <trkpt lat="43.74185" lon="1.41807">
        <ele>146.440572</ele>
        <time>2023-07-30T15:01:10.000Z</time>
      </trkpt>
      <trkpt lat="43.74188" lon="1.41808">
        <ele>146.430707</ele>
        <time>2023-07-30T15:01:12.000Z</time>
      </trkpt>
      <trkpt lat="43.74189" lon="1.41808">
        <ele>146.424439</ele>
        <time>2023-07-30T15:01:13.000Z</time>
      </trkpt>
      <trkpt lat="43.74192" lon="1.41808">
        <ele>146.410284</ele>
        <time>2023-07-30T15:01:14.000Z</time>
      </trkpt>
      <trkpt lat="43.74192" lon="1.41808">
        <ele>146.410284</ele>
        <time>2023-07-30T15:01:14.000Z</time>
      </trkpt>
      <trkpt lat="43.74195" lon="1.41807">
        <ele>146.40042</ele>
        <time>2023-07-30T15:01:15.000Z</time>
      </trkpt>
      <trkpt lat="43.74197" lon="1.41807">
        <ele>146.392375</ele>
        <time>2023-07-30T15:01:16.000Z</time>
      </trkpt>
      <trkpt lat="43.74199" lon="1.41806">
        <ele>146.38058</ele>
        <time>2023-07-30T15:01:17.000Z</time>
      </trkpt>
      <trkpt lat="43.74201" lon="1.41805">
        <ele>146.372474</ele>
        <time>2023-07-30T15:01:18.000Z</time>
      </trkpt>
      <trkpt lat="43.74205" lon="1.41805">
        <ele>146.356665</ele>
        <time>2023-07-30T15:01:20.000Z</time>
      </trkpt>
      <trkpt lat="43.74208" lon="1.41805">
        <ele>146.343715</ele>
        <time>2023-07-30T15:01:21.000Z</time>
      </trkpt>
      <trkpt lat="43.74212" lon="1.41806">
        <ele>146.32608</ele>
        <time>2023-07-30T15:01:22.000Z</time>
      </trkpt>
      <trkpt lat="43.74216" lon="1.41807">
        <ele>146.309868</ele>
        <time>2023-07-30T15:01:24.000Z</time>
      </trkpt>
      <trkpt lat="43.74219" lon="1.41808">
        <ele>146.296792</ele>
        <time>2023-07-30T15:01:25.000Z</time>
      </trkpt>
      <trkpt lat="43.74219" lon="1.41808">
        <ele>146.296792</ele>
        <time>2023-07-30T15:01:25.000Z</time>
      </trkpt>
      <trkpt lat="43.74222" lon="1.4181">
        <ele>146.282163</ele>
        <time>2023-07-30T15:01:26.000Z</time>
      </trkpt>
      <trkpt lat="43.74225" lon="1.41813">
        <ele>146.268481</ele>
        <time>2023-07-30T15:01:27.000Z</time>
      </trkpt>
      <trkpt lat="43.74228" lon="1.41815">
        <ele>146.25436</ele>
        <time>2023-07-30T15:01:27.000Z</time>
      </trkpt>
      <trkpt lat="43.74228" lon="1.41815">
        <ele>146.25436</ele>
        <time>2023-07-30T15:01:27.000Z</time>
      </trkpt>
      <trkpt lat="43.74229" lon="1.41817">
        <ele>146.246835</ele>
        <time>2023-07-30T15:01:29.000Z</time>
      </trkpt>
      <trkpt lat="43.74231" lon="1.41818">
        <ele>146.240848</ele>
        <time>2023-07-30T15:01:30.000Z</time>
      </trkpt>
      <trkpt lat="43.7423" lon="1.41831">
        <ele>140.5</ele>
      </trkpt>
      <trkpt lat="43.74231" lon="1.41841">
        <ele>141.8</ele>
      </trkpt>
      <trkpt lat="43.7423" lon="1.41852">
        <ele>143.4</ele>
      </trkpt>
      <trkpt lat="43.74229" lon="1.4186">
        <ele>144.5</ele>
      </trkpt>
      <trkpt lat="43.74231" lon="1.41873">
        <ele>146.4</ele>
      </trkpt>
      <trkpt lat="43.74236" lon="1.41881">
        <ele>147.3</ele>
      </trkpt>
      <trkpt lat="43.74241" lon="1.41886">
        <ele>154.683704</ele>
        <time>2023-07-30T15:04:27.000Z</time>
      </trkpt>
      <trkpt lat="43.74241" lon="1.41886">
        <ele>154.683704</ele>
        <time>2023-07-30T15:04:27.000Z</time>
      </trkpt>
      <trkpt lat="43.74242" lon="1.41889">
        <ele>154.822412</ele>
        <time>2023-07-30T15:04:28.000Z</time>
      </trkpt>
      <trkpt lat="43.74242" lon="1.41889">
        <ele>154.822412</ele>
        <time>2023-07-30T15:04:28.000Z</time>
      </trkpt>
      <trkpt lat="43.74243" lon="1.41893">
        <ele>154.963305</ele>
        <time>2023-07-30T15:04:29.000Z</time>
      </trkpt>
      <trkpt lat="43.74243" lon="1.41893">
        <ele>154.963305</ele>
        <time>2023-07-30T15:04:29.000Z</time>
      </trkpt>
      <trkpt lat="43.74244" lon="1.41894">
        <ele>155.019193</ele>
        <time>2023-07-30T15:04:30.000Z</time>
      </trkpt>
      <trkpt lat="43.74244" lon="1.41894">
        <ele>155.019193</ele>
        <time>2023-07-30T15:04:30.000Z</time>
      </trkpt>
      <trkpt lat="43.74244" lon="1.41897">
        <ele>155.005091</ele>
        <time>2023-07-30T15:04:31.000Z</time>
      </trkpt>
      <trkpt lat="43.74244" lon="1.41897">
        <ele>155.005091</ele>
        <time>2023-07-30T15:04:31.000Z</time>
      </trkpt>
      <trkpt lat="43.74246" lon="1.419">
        <ele>154.987238</ele>
        <time>2023-07-30T15:04:32.000Z</time>
      </trkpt>
      <trkpt lat="43.74246" lon="1.419">
        <ele>154.987238</ele>
        <time>2023-07-30T15:04:32.000Z</time>
      </trkpt>
      <trkpt lat="43.74246" lon="1.41908">
        <ele>154.950456</ele>
        <time>2023-07-30T15:04:34.000Z</time>
      </trkpt>
      <trkpt lat="43.74246" lon="1.41908">
        <ele>154.950456</ele>
        <time>2023-07-30T15:04:34.000Z</time>
      </trkpt>
      <trkpt lat="43.74246" lon="1.41912">
        <ele>154.931023</ele>
        <time>2023-07-30T15:04:35.000Z</time>
      </trkpt>
      <trkpt lat="43.74246" lon="1.41912">
        <ele>154.931023</ele>
        <time>2023-07-30T15:04:35.000Z</time>
      </trkpt>
      <trkpt lat="43.74245" lon="1.41916">
        <ele>154.911509</ele>
        <time>2023-07-30T15:04:37.000Z</time>
      </trkpt>
      <trkpt lat="43.74245" lon="1.41916">
        <ele>154.911509</ele>
        <time>2023-07-30T15:04:37.000Z</time>
      </trkpt>
      <trkpt lat="43.74246" lon="1.4192">
        <ele>154.890373</ele>
        <time>2023-07-30T15:04:38.000Z</time>
      </trkpt>
      <trkpt lat="43.74246" lon="1.4192">
        <ele>154.890373</ele>
        <time>2023-07-30T15:04:38.000Z</time>
      </trkpt>
      <trkpt lat="43.74249" lon="1.41922">
        <ele>154.871107</ele>
        <time>2023-07-30T15:04:39.000Z</time>
      </trkpt>
      <trkpt lat="43.74252" lon="1.41925">
        <ele>154.844137</ele>
        <time>2023-07-30T15:04:40.000Z</time>
      </trkpt>
      <trkpt lat="43.74252" lon="1.41925">
        <ele>154.844137</ele>
        <time>2023-07-30T15:04:40.000Z</time>
      </trkpt>
      <trkpt lat="43.74257" lon="1.41929">
        <ele>154.809915</ele>
        <time>2023-07-30T15:04:41.000Z</time>
      </trkpt>
      <trkpt lat="43.7426" lon="1.41931">
        <ele>154.782875</ele>
        <time>2023-07-30T15:04:43.000Z</time>
      </trkpt>
      <trkpt lat="43.7426" lon="1.41931">
        <ele>154.782875</ele>
        <time>2023-07-30T15:04:43.000Z</time>
      </trkpt>
      <trkpt lat="43.74264" lon="1.41935">
        <ele>154.751232</ele>
        <time>2023-07-30T15:04:44.000Z</time>
      </trkpt>
      <trkpt lat="43.74267" lon="1.4194">
        <ele>154.718748</ele>
        <time>2023-07-30T15:04:45.000Z</time>
      </trkpt>
      <trkpt lat="43.74271" lon="1.41945">
        <ele>154.682664</ele>
        <time>2023-07-30T15:04:46.000Z</time>
      </trkpt>
      <trkpt lat="43.74271" lon="1.41945">
        <ele>154.682664</ele>
        <time>2023-07-30T15:04:46.000Z</time>
      </trkpt>
      <trkpt lat="43.74273" lon="1.41949">
        <ele>154.657959</ele>
        <time>2023-07-30T15:04:47.000Z</time>
      </trkpt>
      <trkpt lat="43.74276" lon="1.41954">
        <ele>154.630527</ele>
        <time>2023-07-30T15:04:48.000Z</time>
      </trkpt>
      <trkpt lat="43.74278" lon="1.41958">
        <ele>154.606988</ele>
        <time>2023-07-30T15:04:50.000Z</time>
      </trkpt>
      <trkpt lat="43.74278" lon="1.41958">
        <ele>154.606988</ele>
        <time>2023-07-30T15:04:50.000Z</time>
      </trkpt>
      <trkpt lat="43.74279" lon="1.41963">
        <ele>154.583039</ele>
        <time>2023-07-30T15:04:51.000Z</time>
      </trkpt>
      <trkpt lat="43.74281" lon="1.41968">
        <ele>154.552704</ele>
        <time>2023-07-30T15:04:52.000Z</time>
      </trkpt>
      <trkpt lat="43.74282" lon="1.41973">
        <ele>154.52907</ele>
        <time>2023-07-30T15:04:53.000Z</time>
      </trkpt>
      <trkpt lat="43.74282" lon="1.41973">
        <ele>154.52907</ele>
        <time>2023-07-30T15:04:53.000Z</time>
      </trkpt>
      <trkpt lat="43.74283" lon="1.41977">
        <ele>154.506113</ele>
        <time>2023-07-30T15:04:55.000Z</time>
      </trkpt>
      <trkpt lat="43.74285" lon="1.4198">
        <ele>154.491495</ele>
        <time>2023-07-30T15:04:56.000Z</time>
      </trkpt>
      <trkpt lat="43.74285" lon="1.4198">
        <ele>154.491495</ele>
        <time>2023-07-30T15:04:56.000Z</time>
      </trkpt>
      <trkpt lat="43.74285" lon="1.41982">
        <ele>154.481467</ele>
        <time>2023-07-30T15:04:56.000Z</time>
      </trkpt>
      <trkpt lat="43.74285" lon="1.41982">
        <ele>154.481467</ele>
        <time>2023-07-30T15:04:56.000Z</time>
      </trkpt>
      <trkpt lat="43.74287" lon="1.41984">
        <ele>154.466848</ele>
        <time>2023-07-30T15:04:57.000Z</time>
      </trkpt>
      <trkpt lat="43.74287" lon="1.41984">
        <ele>154.466848</ele>
        <time>2023-07-30T15:04:57.000Z</time>
      </trkpt>
      <trkpt lat="43.74289" lon="1.41986">
        <ele>154.447008</ele>
        <time>2023-07-30T15:04:59.000Z</time>
      </trkpt>
      <trkpt lat="43.74289" lon="1.41986">
        <ele>154.447008</ele>
        <time>2023-07-30T15:04:59.000Z</time>
      </trkpt>
      <trkpt lat="43.74292" lon="1.41988">
        <ele>154.426524</ele>
        <time>2023-07-30T15:05:00.000Z</time>
      </trkpt>
      <trkpt lat="43.74292" lon="1.41988">
        <ele>154.426524</ele>
        <time>2023-07-30T15:05:00.000Z</time>
      </trkpt>
      <trkpt lat="43.74296" lon="1.41991">
        <ele>154.397263</ele>
        <time>2023-07-30T15:05:01.000Z</time>
      </trkpt>
      <trkpt lat="43.74296" lon="1.41991">
        <ele>154.397263</ele>
        <time>2023-07-30T15:05:01.000Z</time>
      </trkpt>
      <trkpt lat="43.74299" lon="1.41993">
        <ele>154.371043</ele>
        <time>2023-07-30T15:05:03.000Z</time>
      </trkpt>
      <trkpt lat="43.74299" lon="1.41993">
        <ele>154.371043</ele>
        <time>2023-07-30T15:05:03.000Z</time>
      </trkpt>
      <trkpt lat="43.74304" lon="1.41997">
        <ele>154.336163</ele>
        <time>2023-07-30T15:05:03.000Z</time>
      </trkpt>
      <trkpt lat="43.74304" lon="1.41997">
        <ele>154.336163</ele>
        <time>2023-07-30T15:05:03.000Z</time>
      </trkpt>
      <trkpt lat="43.74309" lon="1.42">
        <ele>154.298464</ele>
        <time>2023-07-30T15:05:05.000Z</time>
      </trkpt>
      <trkpt lat="43.74309" lon="1.42">
        <ele>154.298464</ele>
        <time>2023-07-30T15:05:05.000Z</time>
      </trkpt>
      <trkpt lat="43.74314" lon="1.42004">
        <ele>154.259185</ele>
        <time>2023-07-30T15:05:06.000Z</time>
      </trkpt>
      <trkpt lat="43.74314" lon="1.42004">
        <ele>154.259185</ele>
        <time>2023-07-30T15:05:06.000Z</time>
      </trkpt>
      <trkpt lat="43.74324" lon="1.42008">
        <ele>154.189781</ele>
        <time>2023-07-30T15:05:08.000Z</time>
      </trkpt>
      <trkpt lat="43.74324" lon="1.42008">
        <ele>154.189781</ele>
        <time>2023-07-30T15:05:08.000Z</time>
      </trkpt>
      <trkpt lat="43.74331" lon="1.4201">
        <ele>154.139808</ele>
        <time>2023-07-30T15:05:09.000Z</time>
      </trkpt>
      <trkpt lat="43.74331" lon="1.4201">
        <ele>154.139808</ele>
        <time>2023-07-30T15:05:09.000Z</time>
      </trkpt>
      <trkpt lat="43.74335" lon="1.42011">
        <ele>154.114166</ele>
        <time>2023-07-30T15:05:11.000Z</time>
      </trkpt>
      <trkpt lat="43.74335" lon="1.42011">
        <ele>154.114166</ele>
        <time>2023-07-30T15:05:11.000Z</time>
      </trkpt>
      <trkpt lat="43.74339" lon="1.42011">
        <ele>154.086068</ele>
        <time>2023-07-30T15:05:12.000Z</time>
      </trkpt>
      <trkpt lat="43.74339" lon="1.42011">
        <ele>154.086068</ele>
        <time>2023-07-30T15:05:12.000Z</time>
      </trkpt>
      <trkpt lat="43.74345" lon="1.42011">
        <ele>154.050604</ele>
        <time>2023-07-30T15:05:13.000Z</time>
      </trkpt>
      <trkpt lat="43.74345" lon="1.42011">
        <ele>154.050604</ele>
        <time>2023-07-30T15:05:13.000Z</time>
      </trkpt>
      <trkpt lat="43.7435" lon="1.4201">
        <ele>154.011377</ele>
        <time>2023-07-30T15:05:14.000Z</time>
      </trkpt>
      <trkpt lat="43.7435" lon="1.4201">
        <ele>154.011377</ele>
        <time>2023-07-30T15:05:14.000Z</time>
      </trkpt>
      <trkpt lat="43.74358" lon="1.42008">
        <ele>153.962257</ele>
        <time>2023-07-30T15:05:16.000Z</time>
      </trkpt>
      <trkpt lat="43.74358" lon="1.42008">
        <ele>153.962257</ele>
        <time>2023-07-30T15:05:16.000Z</time>
      </trkpt>
      <trkpt lat="43.74364" lon="1.42005">
        <ele>153.920092</ele>
        <time>2023-07-30T15:05:16.000Z</time>
      </trkpt>
      <trkpt lat="43.74364" lon="1.42005">
        <ele>153.920092</ele>
        <time>2023-07-30T15:05:16.000Z</time>
      </trkpt>
      <trkpt lat="43.74369" lon="1.42003">
        <ele>153.880638</ele>
        <time>2023-07-30T15:05:17.000Z</time>
      </trkpt>
      <trkpt lat="43.74369" lon="1.42003">
        <ele>153.880638</ele>
        <time>2023-07-30T15:05:17.000Z</time>
      </trkpt>
      <trkpt lat="43.74372" lon="1.42003">
        <ele>153.865223</ele>
        <time>2023-07-30T15:05:18.000Z</time>
      </trkpt>
      <trkpt lat="43.74372" lon="1.42003">
        <ele>153.865223</ele>
        <time>2023-07-30T15:05:18.000Z</time>
      </trkpt>
      <trkpt lat="43.74383" lon="1.42001">
        <ele>153.632867</ele>
        <time>2023-07-30T15:05:19.000Z</time>
      </trkpt>
      <trkpt lat="43.74383" lon="1.42001">
        <ele>153.632867</ele>
        <time>2023-07-30T15:05:19.000Z</time>
      </trkpt>
      <trkpt lat="43.7439" lon="1.41999">
        <ele>153.348933</ele>
        <time>2023-07-30T15:05:20.000Z</time>
      </trkpt>
      <trkpt lat="43.7439" lon="1.41999">
        <ele>153.348933</ele>
        <time>2023-07-30T15:05:20.000Z</time>
      </trkpt>
      <trkpt lat="43.74398" lon="1.41999">
        <ele>153.029757</ele>
        <time>2023-07-30T15:05:22.000Z</time>
      </trkpt>
      <trkpt lat="43.74398" lon="1.41999">
        <ele>153.029757</ele>
        <time>2023-07-30T15:05:22.000Z</time>
      </trkpt>
      <trkpt lat="43.74405" lon="1.41999">
        <ele>152.731932</ele>
        <time>2023-07-30T15:05:23.000Z</time>
      </trkpt>
      <trkpt lat="43.74405" lon="1.41999">
        <ele>152.731932</ele>
        <time>2023-07-30T15:05:23.000Z</time>
      </trkpt>
      <trkpt lat="43.74411" lon="1.41999">
        <ele>152.46306</ele>
        <time>2023-07-30T15:05:23.000Z</time>
      </trkpt>
      <trkpt lat="43.74417" lon="1.42">
        <ele>152.224584</ele>
        <time>2023-07-30T15:05:24.000Z</time>
      </trkpt>
      <trkpt lat="43.74417" lon="1.42">
        <ele>152.224584</ele>
        <time>2023-07-30T15:05:24.000Z</time>
      </trkpt>
      <trkpt lat="43.74423" lon="1.42001">
        <ele>151.997343</ele>
        <time>2023-07-30T15:05:25.000Z</time>
      </trkpt>
      <trkpt lat="43.74423" lon="1.42001">
        <ele>151.997343</ele>
        <time>2023-07-30T15:05:25.000Z</time>
      </trkpt>
      <trkpt lat="43.74428" lon="1.42002">
        <ele>151.776095</ele>
        <time>2023-07-30T15:05:26.000Z</time>
      </trkpt>
      <trkpt lat="43.74428" lon="1.42002">
        <ele>151.776095</ele>
        <time>2023-07-30T15:05:26.000Z</time>
      </trkpt>
      <trkpt lat="43.74433" lon="1.42004">
        <ele>151.551066</ele>
        <time>2023-07-30T15:05:27.000Z</time>
      </trkpt>
      <trkpt lat="43.74438" lon="1.42005">
        <ele>151.340065</ele>
        <time>2023-07-30T15:05:29.000Z</time>
      </trkpt>
      <trkpt lat="43.74438" lon="1.42005">
        <ele>151.340065</ele>
        <time>2023-07-30T15:05:29.000Z</time>
      </trkpt>
      <trkpt lat="43.74444" lon="1.42007">
        <ele>151.09756</ele>
        <time>2023-07-30T15:05:29.000Z</time>
      </trkpt>
      <trkpt lat="43.7445" lon="1.42009">
        <ele>150.854338</ele>
        <time>2023-07-30T15:05:30.000Z</time>
      </trkpt>
      <trkpt lat="43.7445" lon="1.42009">
        <ele>150.854338</ele>
        <time>2023-07-30T15:05:30.000Z</time>
      </trkpt>
      <trkpt lat="43.74454" lon="1.42011">
        <ele>150.656615</ele>
        <time>2023-07-30T15:05:32.000Z</time>
      </trkpt>
      <trkpt lat="43.74458" lon="1.42013">
        <ele>150.492327</ele>
        <time>2023-07-30T15:05:32.000Z</time>
      </trkpt>
      <trkpt lat="43.74458" lon="1.42013">
        <ele>150.492327</ele>
        <time>2023-07-30T15:05:32.000Z</time>
      </trkpt>
      <trkpt lat="43.74462" lon="1.42014">
        <ele>150.327145</ele>
        <time>2023-07-30T15:05:33.000Z</time>
      </trkpt>
      <trkpt lat="43.74462" lon="1.42014">
        <ele>150.327145</ele>
        <time>2023-07-30T15:05:33.000Z</time>
      </trkpt>
      <trkpt lat="43.74465" lon="1.42016">
        <ele>150.174686</ele>
        <time>2023-07-30T15:05:34.000Z</time>
      </trkpt>
      <trkpt lat="43.74465" lon="1.42016">
        <ele>150.174686</ele>
        <time>2023-07-30T15:05:34.000Z</time>
      </trkpt>
      <trkpt lat="43.74468" lon="1.42017">
        <ele>150.044661</ele>
        <time>2023-07-30T15:05:35.000Z</time>
      </trkpt>
      <trkpt lat="43.74468" lon="1.42017">
        <ele>150.044661</ele>
        <time>2023-07-30T15:05:35.000Z</time>
      </trkpt>
      <trkpt lat="43.74471" lon="1.42019">
        <ele>149.909786</ele>
        <time>2023-07-30T15:05:36.000Z</time>
      </trkpt>
      <trkpt lat="43.74473" lon="1.42019">
        <ele>149.827642</ele>
        <time>2023-07-30T15:05:37.000Z</time>
      </trkpt>
      <trkpt lat="43.74473" lon="1.42019">
        <ele>149.827642</ele>
        <time>2023-07-30T15:05:37.000Z</time>
      </trkpt>
      <trkpt lat="43.74476" lon="1.42021">
        <ele>149.708385</ele>
        <time>2023-07-30T15:05:39.000Z</time>
      </trkpt>
      <trkpt lat="43.74476" lon="1.42021">
        <ele>149.708385</ele>
        <time>2023-07-30T15:05:39.000Z</time>
      </trkpt>
      <trkpt lat="43.74479" lon="1.42023">
        <ele>149.574303</ele>
        <time>2023-07-30T15:05:40.000Z</time>
      </trkpt>
      <trkpt lat="43.74479" lon="1.42023">
        <ele>149.574303</ele>
        <time>2023-07-30T15:05:40.000Z</time>
      </trkpt>
      <trkpt lat="43.74482" lon="1.42025">
        <ele>149.428822</ele>
        <time>2023-07-30T15:05:41.000Z</time>
      </trkpt>
      <trkpt lat="43.74484" lon="1.42027">
        <ele>149.319537</ele>
        <time>2023-07-30T15:05:42.000Z</time>
      </trkpt>
      <trkpt lat="43.74484" lon="1.42027">
        <ele>149.319537</ele>
        <time>2023-07-30T15:05:42.000Z</time>
      </trkpt>
      <trkpt lat="43.74488" lon="1.4203">
        <ele>149.133988</ele>
        <time>2023-07-30T15:05:42.000Z</time>
      </trkpt>
      <trkpt lat="43.74488" lon="1.4203">
        <ele>149.133988</ele>
        <time>2023-07-30T15:05:42.000Z</time>
      </trkpt>
      <trkpt lat="43.74492" lon="1.42034">
        <ele>148.943525</ele>
        <time>2023-07-30T15:05:45.000Z</time>
      </trkpt>
      <trkpt lat="43.74492" lon="1.42034">
        <ele>148.943525</ele>
        <time>2023-07-30T15:05:45.000Z</time>
      </trkpt>
      <trkpt lat="43.74496" lon="1.42038">
        <ele>148.727449</ele>
        <time>2023-07-30T15:05:46.000Z</time>
      </trkpt>
      <trkpt lat="43.745" lon="1.42041">
        <ele>148.553958</ele>
        <time>2023-07-30T15:05:47.000Z</time>
      </trkpt>
      <trkpt lat="43.745" lon="1.42041">
        <ele>148.553958</ele>
        <time>2023-07-30T15:05:47.000Z</time>
      </trkpt>
      <trkpt lat="43.74504" lon="1.42045">
        <ele>148.348038</ele>
        <time>2023-07-30T15:05:48.000Z</time>
      </trkpt>
      <trkpt lat="43.74511" lon="1.42051">
        <ele>148.014137</ele>
        <time>2023-07-30T15:05:49.000Z</time>
      </trkpt>
      <trkpt lat="43.74515" lon="1.42054">
        <ele>147.821317</ele>
        <time>2023-07-30T15:05:51.000Z</time>
      </trkpt>
      <trkpt lat="43.74515" lon="1.42054">
        <ele>147.821317</ele>
        <time>2023-07-30T15:05:51.000Z</time>
      </trkpt>
      <trkpt lat="43.74518" lon="1.42056">
        <ele>147.679469</ele>
        <time>2023-07-30T15:05:52.000Z</time>
      </trkpt>
      <trkpt lat="43.74522" lon="1.42059">
        <ele>147.497026</ele>
        <time>2023-07-30T15:05:53.000Z</time>
      </trkpt>
      <trkpt lat="43.74522" lon="1.42059">
        <ele>147.497026</ele>
        <time>2023-07-30T15:05:53.000Z</time>
      </trkpt>
      <trkpt lat="43.74526" lon="1.42062">
        <ele>147.298727</ele>
        <time>2023-07-30T15:05:54.000Z</time>
      </trkpt>
      <trkpt lat="43.74528" lon="1.42064">
        <ele>147.190881</ele>
        <time>2023-07-30T15:05:56.000Z</time>
      </trkpt>
      <trkpt lat="43.74528" lon="1.42064">
        <ele>147.190881</ele>
        <time>2023-07-30T15:05:56.000Z</time>
      </trkpt>
      <trkpt lat="43.74532" lon="1.42065">
        <ele>147.04019</ele>
        <time>2023-07-30T15:05:57.000Z</time>
      </trkpt>
      <trkpt lat="43.74532" lon="1.42065">
        <ele>147.04019</ele>
        <time>2023-07-30T15:05:57.000Z</time>
      </trkpt>
      <trkpt lat="43.74533" lon="1.42065">
        <ele>146.978074</ele>
        <time>2023-07-30T15:05:58.000Z</time>
      </trkpt>
      <trkpt lat="43.74535" lon="1.42064">
        <ele>146.891692</ele>
        <time>2023-07-30T15:06:00.000Z</time>
      </trkpt>
      <trkpt lat="43.74535" lon="1.42064">
        <ele>146.891692</ele>
        <time>2023-07-30T15:06:00.000Z</time>
      </trkpt>
      <trkpt lat="43.74536" lon="1.42062">
        <ele>146.806762</ele>
        <time>2023-07-30T15:06:02.000Z</time>
      </trkpt>
      <trkpt lat="43.74536" lon="1.42062">
        <ele>146.806762</ele>
        <time>2023-07-30T15:06:02.000Z</time>
      </trkpt>
      <trkpt lat="43.74538" lon="1.42058">
        <ele>146.680463</ele>
        <time>2023-07-30T15:06:03.000Z</time>
      </trkpt>
      <trkpt lat="43.74538" lon="1.42058">
        <ele>146.680463</ele>
        <time>2023-07-30T15:06:03.000Z</time>
      </trkpt>
      <trkpt lat="43.7454" lon="1.42055">
        <ele>146.56348</ele>
        <time>2023-07-30T15:06:04.000Z</time>
      </trkpt>
      <trkpt lat="43.7454" lon="1.42055">
        <ele>146.56348</ele>
        <time>2023-07-30T15:06:04.000Z</time>
      </trkpt>
      <trkpt lat="43.74542" lon="1.42051">
        <ele>146.417928</ele>
        <time>2023-07-30T15:06:05.000Z</time>
      </trkpt>
      <trkpt lat="43.74542" lon="1.42051">
        <ele>146.417928</ele>
        <time>2023-07-30T15:06:05.000Z</time>
      </trkpt>
      <trkpt lat="43.74543" lon="1.42047">
        <ele>146.34783</ele>
        <time>2023-07-30T15:06:06.000Z</time>
      </trkpt>
      <trkpt lat="43.74543" lon="1.42047">
        <ele>146.34783</ele>
        <time>2023-07-30T15:06:06.000Z</time>
      </trkpt>
      <trkpt lat="43.74546" lon="1.42042">
        <ele>146.295488</ele>
        <time>2023-07-30T15:06:08.000Z</time>
      </trkpt>
      <trkpt lat="43.74546" lon="1.42042">
        <ele>146.295488</ele>
        <time>2023-07-30T15:06:08.000Z</time>
      </trkpt>
      <trkpt lat="43.74549" lon="1.42036">
        <ele>146.228428</ele>
        <time>2023-07-30T15:06:09.000Z</time>
      </trkpt>
      <trkpt lat="43.74549" lon="1.42036">
        <ele>146.228428</ele>
        <time>2023-07-30T15:06:09.000Z</time>
      </trkpt>
      <trkpt lat="43.74551" lon="1.42032">
        <ele>146.173859</ele>
        <time>2023-07-30T15:06:10.000Z</time>
      </trkpt>
      <trkpt lat="43.74551" lon="1.42032">
        <ele>146.173859</ele>
        <time>2023-07-30T15:06:10.000Z</time>
      </trkpt>
      <trkpt lat="43.74554" lon="1.42026">
        <ele>146.116893</ele>
        <time>2023-07-30T15:06:11.000Z</time>
      </trkpt>
      <trkpt lat="43.74554" lon="1.42026">
        <ele>146.116893</ele>
        <time>2023-07-30T15:06:11.000Z</time>
      </trkpt>
      <trkpt lat="43.74556" lon="1.4202">
        <ele>146.056768</ele>
        <time>2023-07-30T15:06:12.000Z</time>
      </trkpt>
      <trkpt lat="43.74556" lon="1.4202">
        <ele>146.056768</ele>
        <time>2023-07-30T15:06:12.000Z</time>
      </trkpt>
      <trkpt lat="43.74558" lon="1.42016">
        <ele>146.016617</ele>
        <time>2023-07-30T15:06:13.000Z</time>
      </trkpt>
      <trkpt lat="43.74558" lon="1.42016">
        <ele>146.016617</ele>
        <time>2023-07-30T15:06:13.000Z</time>
      </trkpt>
      <trkpt lat="43.74559" lon="1.42011">
        <ele>145.966506</ele>
        <time>2023-07-30T15:06:14.000Z</time>
      </trkpt>
      <trkpt lat="43.74559" lon="1.42011">
        <ele>145.966506</ele>
        <time>2023-07-30T15:06:14.000Z</time>
      </trkpt>
      <trkpt lat="43.74559" lon="1.42006">
        <ele>145.919888</ele>
        <time>2023-07-30T15:06:15.000Z</time>
      </trkpt>
      <trkpt lat="43.74559" lon="1.42002">
        <ele>145.88589</ele>
        <time>2023-07-30T15:06:16.000Z</time>
      </trkpt>
      <trkpt lat="43.74559" lon="1.42002">
        <ele>145.88589</ele>
        <time>2023-07-30T15:06:16.000Z</time>
      </trkpt>
      <trkpt lat="43.74558" lon="1.41998">
        <ele>145.84672</ele>
        <time>2023-07-30T15:06:18.000Z</time>
      </trkpt>
      <trkpt lat="43.74558" lon="1.41998">
        <ele>145.84672</ele>
        <time>2023-07-30T15:06:19.000Z</time>
      </trkpt>
      <trkpt lat="43.74554" lon="1.41987">
        <ele>145.735097</ele>
        <time>2023-07-30T15:06:20.000Z</time>
      </trkpt>
      <trkpt lat="43.74554" lon="1.41987">
        <ele>145.735097</ele>
        <time>2023-07-30T15:06:26.000Z</time>
      </trkpt>
      <trkpt lat="43.74554" lon="1.41982">
        <ele>145.692993</ele>
        <time>2023-07-30T15:06:28.000Z</time>
      </trkpt>
      <trkpt lat="43.74554" lon="1.41982">
        <ele>145.692993</ele>
        <time>2023-07-30T15:06:28.000Z</time>
      </trkpt>
      <trkpt lat="43.74554" lon="1.41981">
        <ele>145.683906</ele>
        <time>2023-07-30T15:06:29.000Z</time>
      </trkpt>
      <trkpt lat="43.74554" lon="1.41981">
        <ele>145.683906</ele>
        <time>2023-07-30T15:06:29.000Z</time>
      </trkpt>
      <trkpt lat="43.74554" lon="1.41981">
        <ele>145.677545</ele>
        <time>2023-07-30T15:06:30.000Z</time>
      </trkpt>
      <trkpt lat="43.74554" lon="1.41981">
        <ele>145.677545</ele>
        <time>2023-07-30T15:06:30.000Z</time>
      </trkpt>
      <trkpt lat="43.74554" lon="1.41978">
        <ele>145.649822</ele>
        <time>2023-07-30T15:06:31.000Z</time>
      </trkpt>
      <trkpt lat="43.74554" lon="1.41975">
        <ele>145.626195</ele>
        <time>2023-07-30T15:06:32.000Z</time>
      </trkpt>
      <trkpt lat="43.74554" lon="1.41975">
        <ele>145.626195</ele>
        <time>2023-07-30T15:06:32.000Z</time>
      </trkpt>
      <trkpt lat="43.74554" lon="1.41972">
        <ele>145.59597</ele>
        <time>2023-07-30T15:06:33.000Z</time>
      </trkpt>
      <trkpt lat="43.74555" lon="1.41969">
        <ele>145.566458</ele>
        <time>2023-07-30T15:06:34.000Z</time>
      </trkpt>
      <trkpt lat="43.74554" lon="1.41964">
        <ele>145.521647</ele>
        <time>2023-07-30T15:06:36.000Z</time>
      </trkpt>
      <trkpt lat="43.74551" lon="1.41958">
        <ele>145.454473</ele>
        <time>2023-07-30T15:06:37.000Z</time>
      </trkpt>
      <trkpt lat="43.7455" lon="1.41956">
        <ele>145.431631</ele>
        <time>2023-07-30T15:06:38.000Z</time>
      </trkpt>
      <trkpt lat="43.74547" lon="1.41954">
        <ele>145.39311</ele>
        <time>2023-07-30T15:06:39.000Z</time>
      </trkpt>
      <trkpt lat="43.74544" lon="1.41952">
        <ele>145.350823</ele>
        <time>2023-07-30T15:06:41.000Z</time>
      </trkpt>
      <trkpt lat="43.7454" lon="1.4195">
        <ele>145.299999</ele>
        <time>2023-07-30T15:06:42.000Z</time>
      </trkpt>
      <trkpt lat="43.74537" lon="1.41948">
        <ele>145.248186</ele>
        <time>2023-07-30T15:06:43.000Z</time>
      </trkpt>
      <trkpt lat="43.74534" lon="1.41946">
        <ele>145.2063</ele>
        <time>2023-07-30T15:06:45.000Z</time>
      </trkpt>
      <trkpt lat="43.74534" lon="1.41946">
        <ele>145.2063</ele>
        <time>2023-07-30T15:06:45.000Z</time>
      </trkpt>
      <trkpt lat="43.74526" lon="1.4194">
        <ele>145.0947</ele>
        <time>2023-07-30T15:06:46.000Z</time>
      </trkpt>
      <trkpt lat="43.74526" lon="1.4194">
        <ele>145.0947</ele>
        <time>2023-07-30T15:06:46.000Z</time>
      </trkpt>
      <trkpt lat="43.74521" lon="1.41936">
        <ele>145.023599</ele>
        <time>2023-07-30T15:06:47.000Z</time>
      </trkpt>
      <trkpt lat="43.74521" lon="1.41936">
        <ele>145.023599</ele>
        <time>2023-07-30T15:06:47.000Z</time>
      </trkpt>
      <trkpt lat="43.74516" lon="1.41932">
        <ele>144.950496</ele>
        <time>2023-07-30T15:06:50.000Z</time>
      </trkpt>
      <trkpt lat="43.74511" lon="1.41928">
        <ele>144.878472</ele>
        <time>2023-07-30T15:06:50.000Z</time>
      </trkpt>
      <trkpt lat="43.74506" lon="1.41924">
        <ele>144.807992</ele>
        <time>2023-07-30T15:06:51.000Z</time>
      </trkpt>
      <trkpt lat="43.74502" lon="1.41922">
        <ele>144.75545</ele>
        <time>2023-07-30T15:06:52.000Z</time>
      </trkpt>
      <trkpt lat="43.74502" lon="1.41922">
        <ele>144.75545</ele>
        <time>2023-07-30T15:06:52.000Z</time>
      </trkpt>
      <trkpt lat="43.74498" lon="1.41919">
        <ele>144.692948</ele>
        <time>2023-07-30T15:06:53.000Z</time>
      </trkpt>
      <trkpt lat="43.74493" lon="1.41917">
        <ele>144.630784</ele>
        <time>2023-07-30T15:06:55.000Z</time>
      </trkpt>
      <trkpt lat="43.74493" lon="1.41917">
        <ele>144.630784</ele>
        <time>2023-07-30T15:06:55.000Z</time>
      </trkpt>
      <trkpt lat="43.7449" lon="1.41915">
        <ele>144.584994</ele>
        <time>2023-07-30T15:06:56.000Z</time>
      </trkpt>
      <trkpt lat="43.7449" lon="1.41915">
        <ele>144.584994</ele>
        <time>2023-07-30T15:06:56.000Z</time>
      </trkpt>
      <trkpt lat="43.74485" lon="1.41913">
        <ele>144.529122</ele>
        <time>2023-07-30T15:06:57.000Z</time>
      </trkpt>
      <trkpt lat="43.7448" lon="1.41911">
        <ele>144.462552</ele>
        <time>2023-07-30T15:06:58.000Z</time>
      </trkpt>
      <trkpt lat="43.7448" lon="1.41911">
        <ele>144.462552</ele>
        <time>2023-07-30T15:06:58.000Z</time>
      </trkpt>
      <trkpt lat="43.74477" lon="1.41909">
        <ele>144.411729</ele>
        <time>2023-07-30T15:06:59.000Z</time>
      </trkpt>
      <trkpt lat="43.74477" lon="1.41909">
        <ele>144.411729</ele>
        <time>2023-07-30T15:06:59.000Z</time>
      </trkpt>
      <trkpt lat="43.74473" lon="1.41906">
        <ele>144.358804</ele>
        <time>2023-07-30T15:07:00.000Z</time>
      </trkpt>
      <trkpt lat="43.74473" lon="1.41906">
        <ele>144.358804</ele>
        <time>2023-07-30T15:07:00.000Z</time>
      </trkpt>
      <trkpt lat="43.74469" lon="1.41905">
        <ele>144.31333</ele>
        <time>2023-07-30T15:07:02.000Z</time>
      </trkpt>
      <trkpt lat="43.74466" lon="1.41903">
        <ele>144.265699</ele>
        <time>2023-07-30T15:07:03.000Z</time>
      </trkpt>
      <trkpt lat="43.74466" lon="1.41903">
        <ele>144.265699</ele>
        <time>2023-07-30T15:07:03.000Z</time>
      </trkpt>
      <trkpt lat="43.74463" lon="1.419">
        <ele>144.216837</ele>
        <time>2023-07-30T15:07:04.000Z</time>
      </trkpt>
      <trkpt lat="43.7446" lon="1.41898">
        <ele>144.174131</ele>
        <time>2023-07-30T15:07:05.000Z</time>
      </trkpt>
      <trkpt lat="43.74457" lon="1.41896">
        <ele>144.137186</ele>
        <time>2023-07-30T15:07:06.000Z</time>
      </trkpt>
      <trkpt lat="43.74455" lon="1.41895">
        <ele>144.125554</ele>
        <time>2023-07-30T15:07:07.000Z</time>
      </trkpt>
      <trkpt lat="43.74452" lon="1.41893">
        <ele>144.162261</ele>
        <time>2023-07-30T15:07:08.000Z</time>
      </trkpt>
      <trkpt lat="43.74447" lon="1.4189">
        <ele>144.22753</ele>
        <time>2023-07-30T15:07:10.000Z</time>
      </trkpt>
      <trkpt lat="43.74439" lon="1.41888">
        <ele>144.330031</ele>
        <time>2023-07-30T15:07:11.000Z</time>
      </trkpt>
      <trkpt lat="43.74439" lon="1.41888">
        <ele>144.330031</ele>
        <time>2023-07-30T15:07:11.000Z</time>
      </trkpt>
      <trkpt lat="43.74435" lon="1.41887">
        <ele>144.384024</ele>
        <time>2023-07-30T15:07:13.000Z</time>
      </trkpt>
      <trkpt lat="43.74428" lon="1.41884">
        <ele>144.47364</ele>
        <time>2023-07-30T15:07:14.000Z</time>
      </trkpt>
      <trkpt lat="43.74423" lon="1.41883">
        <ele>144.537063</ele>
        <time>2023-07-30T15:07:15.000Z</time>
      </trkpt>
      <trkpt lat="43.74418" lon="1.41881">
        <ele>144.599595</ele>
        <time>2023-07-30T15:07:17.000Z</time>
      </trkpt>
      <trkpt lat="43.74414" lon="1.4188">
        <ele>144.649236</ele>
        <time>2023-07-30T15:07:18.000Z</time>
      </trkpt>
      <trkpt lat="43.74409" lon="1.41878">
        <ele>144.713585</ele>
        <time>2023-07-30T15:07:19.000Z</time>
      </trkpt>
      <trkpt lat="43.74409" lon="1.41878">
        <ele>144.713585</ele>
        <time>2023-07-30T15:07:19.000Z</time>
      </trkpt>
      <trkpt lat="43.74403" lon="1.41875">
        <ele>144.788314</ele>
        <time>2023-07-30T15:07:20.000Z</time>
      </trkpt>
      <trkpt lat="43.74397" lon="1.41873">
        <ele>144.868086</ele>
        <time>2023-07-30T15:07:21.000Z</time>
      </trkpt>
      <trkpt lat="43.74391" lon="1.4187">
        <ele>144.948127</ele>
        <time>2023-07-30T15:07:22.000Z</time>
      </trkpt>
      <trkpt lat="43.74385" lon="1.41867">
        <ele>145.028737</ele>
        <time>2023-07-30T15:07:23.000Z</time>
      </trkpt>
      <trkpt lat="43.74385" lon="1.41867">
        <ele>145.028737</ele>
        <time>2023-07-30T15:07:23.000Z</time>
      </trkpt>
      <trkpt lat="43.7438" lon="1.41865">
        <ele>145.099089</ele>
        <time>2023-07-30T15:07:24.000Z</time>
      </trkpt>
      <trkpt lat="43.74374" lon="1.41862">
        <ele>145.175304</ele>
        <time>2023-07-30T15:07:26.000Z</time>
      </trkpt>
      <trkpt lat="43.7437" lon="1.4186">
        <ele>145.232094</ele>
        <time>2023-07-30T15:07:27.000Z</time>
      </trkpt>
      <trkpt lat="43.74366" lon="1.41858">
        <ele>145.28259</ele>
        <time>2023-07-30T15:07:28.000Z</time>
      </trkpt>
      <trkpt lat="43.74361" lon="1.41854">
        <ele>145.355223</ele>
        <time>2023-07-30T15:07:29.000Z</time>
      </trkpt>
      <trkpt lat="43.74361" lon="1.41854">
        <ele>145.355223</ele>
        <time>2023-07-30T15:07:29.000Z</time>
      </trkpt>
      <trkpt lat="43.74357" lon="1.41852">
        <ele>145.402899</ele>
        <time>2023-07-30T15:07:30.000Z</time>
      </trkpt>
      <trkpt lat="43.74357" lon="1.41852">
        <ele>145.402899</ele>
        <time>2023-07-30T15:07:30.000Z</time>
      </trkpt>
      <trkpt lat="43.74353" lon="1.4185">
        <ele>145.455102</ele>
        <time>2023-07-30T15:07:31.000Z</time>
      </trkpt>
      <trkpt lat="43.74348" lon="1.41847">
        <ele>145.52218</ele>
        <time>2023-07-30T15:07:33.000Z</time>
      </trkpt>
      <trkpt lat="43.74345" lon="1.41845">
        <ele>145.568006</ele>
        <time>2023-07-30T15:07:34.000Z</time>
      </trkpt>
      <trkpt lat="43.7434" lon="1.41843">
        <ele>145.633921</ele>
        <time>2023-07-30T15:07:36.000Z</time>
      </trkpt>
      <trkpt lat="43.74335" lon="1.4184">
        <ele>145.699492</ele>
        <time>2023-07-30T15:07:36.000Z</time>
      </trkpt>
      <trkpt lat="43.74335" lon="1.4184">
        <ele>145.699492</ele>
        <time>2023-07-30T15:07:36.000Z</time>
      </trkpt>
      <trkpt lat="43.74331" lon="1.41839">
        <ele>145.754183</ele>
        <time>2023-07-30T15:07:37.000Z</time>
      </trkpt>
      <trkpt lat="43.74327" lon="1.41837">
        <ele>145.809133</ele>
        <time>2023-07-30T15:07:38.000Z</time>
      </trkpt>
      <trkpt lat="43.74321" lon="1.41834">
        <ele>145.888643</ele>
        <time>2023-07-30T15:07:41.000Z</time>
      </trkpt>
      <trkpt lat="43.74312" lon="1.41831">
        <ele>146.003077</ele>
        <time>2023-07-30T15:07:41.000Z</time>
      </trkpt>
      <trkpt lat="43.74312" lon="1.41831">
        <ele>146.003077</ele>
        <time>2023-07-30T15:07:41.000Z</time>
      </trkpt>
      <trkpt lat="43.74307" lon="1.41828">
        <ele>146.073978</ele>
        <time>2023-07-30T15:07:42.000Z</time>
      </trkpt>
      <trkpt lat="43.74302" lon="1.41825">
        <ele>146.142087</ele>
        <time>2023-07-30T15:07:43.000Z</time>
      </trkpt>
      <trkpt lat="43.74298" lon="1.41823">
        <ele>146.193922</ele>
        <time>2023-07-30T15:07:45.000Z</time>
      </trkpt>
      <trkpt lat="43.74291" lon="1.41818">
        <ele>146.290437</ele>
        <time>2023-07-30T15:07:46.000Z</time>
      </trkpt>
      <trkpt lat="43.74291" lon="1.41818">
        <ele>146.290437</ele>
        <time>2023-07-30T15:07:46.000Z</time>
      </trkpt>
      <trkpt lat="43.74287" lon="1.41815">
        <ele>146.343415</ele>
        <time>2023-07-30T15:07:47.000Z</time>
      </trkpt>
      <trkpt lat="43.74283" lon="1.41812">
        <ele>146.505054</ele>
        <time>2023-07-30T15:07:49.000Z</time>
      </trkpt>
      <trkpt lat="43.74283" lon="1.41812">
        <ele>146.505054</ele>
        <time>2023-07-30T15:07:49.000Z</time>
      </trkpt>
      <trkpt lat="43.74279" lon="1.41809">
        <ele>146.692404</ele>
        <time>2023-07-30T15:07:50.000Z</time>
      </trkpt>
      <trkpt lat="43.74279" lon="1.41809">
        <ele>146.692404</ele>
        <time>2023-07-30T15:07:50.000Z</time>
      </trkpt>
      <trkpt lat="43.74276" lon="1.41807">
        <ele>146.83871</ele>
        <time>2023-07-30T15:07:51.000Z</time>
      </trkpt>
      <trkpt lat="43.74276" lon="1.41807">
        <ele>146.83871</ele>
        <time>2023-07-30T15:07:51.000Z</time>
      </trkpt>
      <trkpt lat="43.74273" lon="1.41805">
        <ele>146.987558</ele>
        <time>2023-07-30T15:07:53.000Z</time>
      </trkpt>
      <trkpt lat="43.7427" lon="1.41804">
        <ele>147.115378</ele>
        <time>2023-07-30T15:07:53.000Z</time>
      </trkpt>
      <trkpt lat="43.74267" lon="1.41802">
        <ele>147.27741</ele>
        <time>2023-07-30T15:07:54.000Z</time>
      </trkpt>
      <trkpt lat="43.74263" lon="1.41799">
        <ele>147.440748</ele>
        <time>2023-07-30T15:07:56.000Z</time>
      </trkpt>
      <trkpt lat="43.74263" lon="1.41799">
        <ele>147.440748</ele>
        <time>2023-07-30T15:07:56.000Z</time>
      </trkpt>
      <trkpt lat="43.7426" lon="1.41797">
        <ele>147.605442</ele>
        <time>2023-07-30T15:07:57.000Z</time>
      </trkpt>
      <trkpt lat="43.74256" lon="1.41795">
        <ele>147.789935</ele>
        <time>2023-07-30T15:07:58.000Z</time>
      </trkpt>
      <trkpt lat="43.74256" lon="1.41795">
        <ele>147.789935</ele>
        <time>2023-07-30T15:07:58.000Z</time>
      </trkpt>
      <trkpt lat="43.74253" lon="1.41793">
        <ele>147.948357</ele>
        <time>2023-07-30T15:07:59.000Z</time>
      </trkpt>
      <trkpt lat="43.74253" lon="1.41793">
        <ele>147.948357</ele>
        <time>2023-07-30T15:07:59.000Z</time>
      </trkpt>
      <trkpt lat="43.74249" lon="1.41791">
        <ele>148.143792</ele>
        <time>2023-07-30T15:08:00.000Z</time>
      </trkpt>
      <trkpt lat="43.74246" lon="1.4179">
        <ele>148.266281</ele>
        <time>2023-07-30T15:08:01.000Z</time>
      </trkpt>
      <trkpt lat="43.74246" lon="1.4179">
        <ele>148.266281</ele>
        <time>2023-07-30T15:08:01.000Z</time>
      </trkpt>
      <trkpt lat="43.74242" lon="1.41788">
        <ele>148.456721</ele>
        <time>2023-07-30T15:08:02.000Z</time>
      </trkpt>
      <trkpt lat="43.74242" lon="1.41788">
        <ele>148.456721</ele>
        <time>2023-07-30T15:08:02.000Z</time>
      </trkpt>
      <trkpt lat="43.74238" lon="1.41786">
        <ele>148.621415</ele>
        <time>2023-07-30T15:08:03.000Z</time>
      </trkpt>
      <trkpt lat="43.74238" lon="1.41786">
        <ele>148.621415</ele>
        <time>2023-07-30T15:08:03.000Z</time>
      </trkpt>
      <trkpt lat="43.74234" lon="1.41783">
        <ele>148.804522</ele>
        <time>2023-07-30T15:08:06.000Z</time>
      </trkpt>
      <trkpt lat="43.74234" lon="1.41783">
        <ele>148.804522</ele>
        <time>2023-07-30T15:08:06.000Z</time>
      </trkpt>
      <trkpt lat="43.74232" lon="1.4178">
        <ele>148.953254</ele>
        <time>2023-07-30T15:08:07.000Z</time>
      </trkpt>
      <trkpt lat="43.74232" lon="1.4178">
        <ele>148.953254</ele>
        <time>2023-07-30T15:08:07.000Z</time>
      </trkpt>
      <trkpt lat="43.74229" lon="1.41777">
        <ele>149.099702</ele>
        <time>2023-07-30T15:08:07.000Z</time>
      </trkpt>
      <trkpt lat="43.74229" lon="1.41777">
        <ele>149.099702</ele>
        <time>2023-07-30T15:08:07.000Z</time>
      </trkpt>
      <trkpt lat="43.74228" lon="1.41773">
        <ele>149.255509</ele>
        <time>2023-07-30T15:08:08.000Z</time>
      </trkpt>
      <trkpt lat="43.74228" lon="1.41773">
        <ele>149.255509</ele>
        <time>2023-07-30T15:08:08.000Z</time>
      </trkpt>
      <trkpt lat="43.74226" lon="1.41769">
        <ele>149.375516</ele>
        <time>2023-07-30T15:08:09.000Z</time>
      </trkpt>
      <trkpt lat="43.74226" lon="1.41769">
        <ele>149.375516</ele>
        <time>2023-07-30T15:08:09.000Z</time>
      </trkpt>
      <trkpt lat="43.74225" lon="1.41765">
        <ele>149.523388</ele>
        <time>2023-07-30T15:08:11.000Z</time>
      </trkpt>
      <trkpt lat="43.74225" lon="1.41765">
        <ele>149.523388</ele>
        <time>2023-07-30T15:08:11.000Z</time>
      </trkpt>
      <trkpt lat="43.74223" lon="1.41757">
        <ele>149.785364</ele>
        <time>2023-07-30T15:08:12.000Z</time>
      </trkpt>
      <trkpt lat="43.74223" lon="1.41757">
        <ele>149.785364</ele>
        <time>2023-07-30T15:08:12.000Z</time>
      </trkpt>
      <trkpt lat="43.74222" lon="1.41753">
        <ele>149.911163</ele>
        <time>2023-07-30T15:08:13.000Z</time>
      </trkpt>
      <trkpt lat="43.74222" lon="1.41753">
        <ele>149.911163</ele>
        <time>2023-07-30T15:08:13.000Z</time>
      </trkpt>
      <trkpt lat="43.74221" lon="1.41749">
        <ele>150.041659</ele>
        <time>2023-07-30T15:08:15.000Z</time>
      </trkpt>
      <trkpt lat="43.74221" lon="1.41749">
        <ele>150.041659</ele>
        <time>2023-07-30T15:08:15.000Z</time>
      </trkpt>
      <trkpt lat="43.74221" lon="1.41745">
        <ele>150.186878</ele>
        <time>2023-07-30T15:08:16.000Z</time>
      </trkpt>
      <trkpt lat="43.74221" lon="1.41745">
        <ele>150.186878</ele>
        <time>2023-07-30T15:08:16.000Z</time>
      </trkpt>
      <trkpt lat="43.7422" lon="1.41741">
        <ele>150.316959</ele>
        <time>2023-07-30T15:08:17.000Z</time>
      </trkpt>
      <trkpt lat="43.7422" lon="1.41741">
        <ele>150.316959</ele>
        <time>2023-07-30T15:08:17.000Z</time>
      </trkpt>
      <trkpt lat="43.7422" lon="1.41736">
        <ele>150.455301</ele>
        <time>2023-07-30T15:08:18.000Z</time>
      </trkpt>
      <trkpt lat="43.7422" lon="1.41736">
        <ele>150.455301</ele>
        <time>2023-07-30T15:08:18.000Z</time>
      </trkpt>
      <trkpt lat="43.74221" lon="1.41731">
        <ele>150.61347</ele>
        <time>2023-07-30T15:08:19.000Z</time>
      </trkpt>
      <trkpt lat="43.74221" lon="1.41731">
        <ele>150.61347</ele>
        <time>2023-07-30T15:08:19.000Z</time>
      </trkpt>
      <trkpt lat="43.74221" lon="1.41728">
        <ele>150.72741</ele>
        <time>2023-07-30T15:08:20.000Z</time>
      </trkpt>
      <trkpt lat="43.74221" lon="1.41728">
        <ele>150.72741</ele>
        <time>2023-07-30T15:08:20.000Z</time>
      </trkpt>
      <trkpt lat="43.74223" lon="1.41723">
        <ele>150.882289</ele>
        <time>2023-07-30T15:08:21.000Z</time>
      </trkpt>
      <trkpt lat="43.74223" lon="1.41723">
        <ele>150.882289</ele>
        <time>2023-07-30T15:08:21.000Z</time>
      </trkpt>
      <trkpt lat="43.74225" lon="1.41719">
        <ele>151.048888</ele>
        <time>2023-07-30T15:08:23.000Z</time>
      </trkpt>
      <trkpt lat="43.74225" lon="1.41719">
        <ele>151.048888</ele>
        <time>2023-07-30T15:08:23.000Z</time>
      </trkpt>
      <trkpt lat="43.74228" lon="1.41712">
        <ele>151.299403</ele>
        <time>2023-07-30T15:08:25.000Z</time>
      </trkpt>
      <trkpt lat="43.74228" lon="1.41712">
        <ele>151.299403</ele>
        <time>2023-07-30T15:08:25.000Z</time>
      </trkpt>
      <trkpt lat="43.74229" lon="1.41708">
        <ele>151.442129</ele>
        <time>2023-07-30T15:08:26.000Z</time>
      </trkpt>
      <trkpt lat="43.74229" lon="1.41708">
        <ele>151.442129</ele>
        <time>2023-07-30T15:08:26.000Z</time>
      </trkpt>
      <trkpt lat="43.74237" lon="1.41696">
        <ele>151.948629</ele>
        <time>2023-07-30T15:08:28.000Z</time>
      </trkpt>
      <trkpt lat="43.74239" lon="1.41693">
        <ele>152.086278</ele>
        <time>2023-07-30T15:08:29.000Z</time>
      </trkpt>
      <trkpt lat="43.74244" lon="1.41685">
        <ele>152.418871</ele>
        <time>2023-07-30T15:08:31.000Z</time>
      </trkpt>
      <trkpt lat="43.74244" lon="1.41685">
        <ele>152.418871</ele>
        <time>2023-07-30T15:08:31.000Z</time>
      </trkpt>
      <trkpt lat="43.74247" lon="1.41678">
        <ele>152.679526</ele>
        <time>2023-07-30T15:08:32.000Z</time>
      </trkpt>
      <trkpt lat="43.74249" lon="1.41674">
        <ele>152.821225</ele>
        <time>2023-07-30T15:08:33.000Z</time>
      </trkpt>
      <trkpt lat="43.7425" lon="1.41667">
        <ele>153.038776</ele>
        <time>2023-07-30T15:08:35.000Z</time>
      </trkpt>
      <trkpt lat="43.7425" lon="1.41667">
        <ele>153.038776</ele>
        <time>2023-07-30T15:08:35.000Z</time>
      </trkpt>
      <trkpt lat="43.74252" lon="1.41662">
        <ele>153.195508</ele>
        <time>2023-07-30T15:08:36.000Z</time>
      </trkpt>
      <trkpt lat="43.74252" lon="1.41662">
        <ele>153.195508</ele>
        <time>2023-07-30T15:08:36.000Z</time>
      </trkpt>
      <trkpt lat="43.74252" lon="1.41656">
        <ele>153.3866</ele>
        <time>2023-07-30T15:08:36.000Z</time>
      </trkpt>
      <trkpt lat="43.74252" lon="1.41656">
        <ele>153.3866</ele>
        <time>2023-07-30T15:08:36.000Z</time>
      </trkpt>
      <trkpt lat="43.74254" lon="1.41649">
        <ele>153.621988</ele>
        <time>2023-07-30T15:08:38.000Z</time>
      </trkpt>
      <trkpt lat="43.74254" lon="1.41649">
        <ele>153.621988</ele>
        <time>2023-07-30T15:08:38.000Z</time>
      </trkpt>
      <trkpt lat="43.74255" lon="1.41643">
        <ele>153.81357</ele>
        <time>2023-07-30T15:08:38.000Z</time>
      </trkpt>
      <trkpt lat="43.74255" lon="1.41643">
        <ele>153.81357</ele>
        <time>2023-07-30T15:08:38.000Z</time>
      </trkpt>
      <trkpt lat="43.74256" lon="1.41639">
        <ele>153.964387</ele>
        <time>2023-07-30T15:08:40.000Z</time>
      </trkpt>
      <trkpt lat="43.74257" lon="1.41634">
        <ele>154.134608</ele>
        <time>2023-07-30T15:08:41.000Z</time>
      </trkpt>
      <trkpt lat="43.7426" lon="1.41628">
        <ele>154.253712</ele>
        <time>2023-07-30T15:08:42.000Z</time>
      </trkpt>
      <trkpt lat="43.74264" lon="1.41623">
        <ele>154.349177</ele>
        <time>2023-07-30T15:08:44.000Z</time>
      </trkpt>
      <trkpt lat="43.74264" lon="1.41623">
        <ele>154.349177</ele>
        <time>2023-07-30T15:08:44.000Z</time>
      </trkpt>
      <trkpt lat="43.74268" lon="1.41619">
        <ele>154.429169</ele>
        <time>2023-07-30T15:08:45.000Z</time>
      </trkpt>
      <trkpt lat="43.74272" lon="1.41615">
        <ele>154.527713</ele>
        <time>2023-07-30T15:08:46.000Z</time>
      </trkpt>
      <trkpt lat="43.74278" lon="1.41609">
        <ele>154.64758</ele>
        <time>2023-07-30T15:08:47.000Z</time>
      </trkpt>
      <trkpt lat="43.74281" lon="1.41604">
        <ele>154.735007</ele>
        <time>2023-07-30T15:08:48.000Z</time>
      </trkpt>
      <trkpt lat="43.74284" lon="1.41597">
        <ele>154.83925</ele>
        <time>2023-07-30T15:08:49.000Z</time>
      </trkpt>
      <trkpt lat="43.74287" lon="1.41592">
        <ele>154.926159</ele>
        <time>2023-07-30T15:08:51.000Z</time>
      </trkpt>
      <trkpt lat="43.74291" lon="1.41581">
        <ele>155.080256</ele>
        <time>2023-07-30T15:08:52.000Z</time>
      </trkpt>
      <trkpt lat="43.74294" lon="1.41574">
        <ele>155.173522</ele>
        <time>2023-07-30T15:08:52.000Z</time>
      </trkpt>
      <trkpt lat="43.74295" lon="1.41568">
        <ele>155.25919</ele>
        <time>2023-07-30T15:08:54.000Z</time>
      </trkpt>
      <trkpt lat="43.74296" lon="1.41562">
        <ele>155.33938</ele>
        <time>2023-07-30T15:08:55.000Z</time>
      </trkpt>
      <trkpt lat="43.74295" lon="1.41556">
        <ele>155.4145</ele>
        <time>2023-07-30T15:08:57.000Z</time>
      </trkpt>
      <trkpt lat="43.74292" lon="1.41552">
        <ele>155.484684</ele>
        <time>2023-07-30T15:08:57.000Z</time>
      </trkpt>
      <trkpt lat="43.74292" lon="1.41552">
        <ele>155.484684</ele>
        <time>2023-07-30T15:08:57.000Z</time>
      </trkpt>
      <trkpt lat="43.7429" lon="1.41549">
        <ele>155.544915</ele>
        <time>2023-07-30T15:08:59.000Z</time>
      </trkpt>
      <trkpt lat="43.74287" lon="1.41548">
        <ele>155.585768</ele>
        <time>2023-07-30T15:09:00.000Z</time>
      </trkpt>
      <trkpt lat="43.74287" lon="1.41548">
        <ele>155.585768</ele>
        <time>2023-07-30T15:09:00.000Z</time>
      </trkpt>
      <trkpt lat="43.74284" lon="1.41549">
        <ele>155.639189</ele>
        <time>2023-07-30T15:09:01.000Z</time>
      </trkpt>
      <trkpt lat="43.7428" lon="1.41549">
        <ele>155.71321</ele>
        <time>2023-07-30T15:09:03.000Z</time>
      </trkpt>
      <trkpt lat="43.7428" lon="1.41549">
        <ele>155.71321</ele>
        <time>2023-07-30T15:09:03.000Z</time>
      </trkpt>
      <trkpt lat="43.74278" lon="1.41549">
        <ele>155.753765</ele>
        <time>2023-07-30T15:09:03.000Z</time>
      </trkpt>
      <trkpt lat="43.74274" lon="1.41549">
        <ele>155.815567</ele>
        <time>2023-07-30T15:09:05.000Z</time>
      </trkpt>
      <trkpt lat="43.74274" lon="1.41549">
        <ele>155.815567</ele>
        <time>2023-07-30T15:09:05.000Z</time>
      </trkpt>
      <trkpt lat="43.7427" lon="1.41547">
        <ele>155.897775</ele>
        <time>2023-07-30T15:09:06.000Z</time>
      </trkpt>
      <trkpt lat="43.74266" lon="1.41545">
        <ele>155.968157</ele>
        <time>2023-07-30T15:09:07.000Z</time>
      </trkpt>
      <trkpt lat="43.74266" lon="1.41545">
        <ele>155.968157</ele>
        <time>2023-07-30T15:09:07.000Z</time>
      </trkpt>
      <trkpt lat="43.74262" lon="1.41543">
        <ele>156.054354</ele>
        <time>2023-07-30T15:09:08.000Z</time>
      </trkpt>
      <trkpt lat="43.74257" lon="1.41541">
        <ele>156.134434</ele>
        <time>2023-07-30T15:09:09.000Z</time>
      </trkpt>
      <trkpt lat="43.74248" lon="1.41535">
        <ele>156.316585</ele>
        <time>2023-07-30T15:09:11.000Z</time>
      </trkpt>
      <trkpt lat="43.74245" lon="1.41534">
        <ele>156.365306</ele>
        <time>2023-07-30T15:09:12.000Z</time>
      </trkpt>
      <trkpt lat="43.74242" lon="1.41533">
        <ele>156.428853</ele>
        <time>2023-07-30T15:09:13.000Z</time>
      </trkpt>
      <trkpt lat="43.74234" lon="1.4153">
        <ele>156.568135</ele>
        <time>2023-07-30T15:09:15.000Z</time>
      </trkpt>
      <trkpt lat="43.74229" lon="1.41528">
        <ele>156.664017</ele>
        <time>2023-07-30T15:09:16.000Z</time>
      </trkpt>
      <trkpt lat="43.74225" lon="1.41526">
        <ele>156.730275</ele>
        <time>2023-07-30T15:09:18.000Z</time>
      </trkpt>
      <trkpt lat="43.7422" lon="1.41524">
        <ele>156.833604</ele>
        <time>2023-07-30T15:09:19.000Z</time>
      </trkpt>
      <trkpt lat="43.74216" lon="1.41522">
        <ele>156.90481</ele>
        <time>2023-07-30T15:09:20.000Z</time>
      </trkpt>
      <trkpt lat="43.74211" lon="1.4152">
        <ele>156.998503</ele>
        <time>2023-07-30T15:09:21.000Z</time>
      </trkpt>
      <trkpt lat="43.74211" lon="1.4152">
        <ele>156.998503</ele>
        <time>2023-07-30T15:09:21.000Z</time>
      </trkpt>
      <trkpt lat="43.74206" lon="1.41516">
        <ele>157.091404</ele>
        <time>2023-07-30T15:09:22.000Z</time>
      </trkpt>
      <trkpt lat="43.74201" lon="1.41513">
        <ele>157.193953</ele>
        <time>2023-07-30T15:09:24.000Z</time>
      </trkpt>
      <trkpt lat="43.74201" lon="1.41513">
        <ele>157.193953</ele>
        <time>2023-07-30T15:09:24.000Z</time>
      </trkpt>
      <trkpt lat="43.74198" lon="1.41512">
        <ele>157.243121</ele>
        <time>2023-07-30T15:09:25.000Z</time>
      </trkpt>
      <trkpt lat="43.74198" lon="1.41512">
        <ele>157.243121</ele>
        <time>2023-07-30T15:09:25.000Z</time>
      </trkpt>
      <trkpt lat="43.74194" lon="1.4151">
        <ele>157.314128</ele>
        <time>2023-07-30T15:09:26.000Z</time>
      </trkpt>
      <trkpt lat="43.7419" lon="1.41508">
        <ele>157.420702</ele>
        <time>2023-07-30T15:09:27.000Z</time>
      </trkpt>
      <trkpt lat="43.7419" lon="1.41508">
        <ele>157.420702</ele>
        <time>2023-07-30T15:09:27.000Z</time>
      </trkpt>
      <trkpt lat="43.74183" lon="1.41505">
        <ele>157.680611</ele>
        <time>2023-07-30T15:09:29.000Z</time>
      </trkpt>
      <trkpt lat="43.74183" lon="1.41505">
        <ele>157.680611</ele>
        <time>2023-07-30T15:09:29.000Z</time>
      </trkpt>
      <trkpt lat="43.7418" lon="1.41503">
        <ele>157.796441</ele>
        <time>2023-07-30T15:09:30.000Z</time>
      </trkpt>
      <trkpt lat="43.74177" lon="1.41502">
        <ele>157.906281</ele>
        <time>2023-07-30T15:09:31.000Z</time>
      </trkpt>
      <trkpt lat="43.74177" lon="1.41502">
        <ele>157.906281</ele>
        <time>2023-07-30T15:09:31.000Z</time>
      </trkpt>
      <trkpt lat="43.74174" lon="1.41501">
        <ele>158.014497</ele>
        <time>2023-07-30T15:09:33.000Z</time>
      </trkpt>
      <trkpt lat="43.74174" lon="1.41501">
        <ele>158.014497</ele>
        <time>2023-07-30T15:09:33.000Z</time>
      </trkpt>
      <trkpt lat="43.7417" lon="1.41499">
        <ele>158.161014</ele>
        <time>2023-07-30T15:09:34.000Z</time>
      </trkpt>
      <trkpt lat="43.7417" lon="1.41499">
        <ele>158.161014</ele>
        <time>2023-07-30T15:09:34.000Z</time>
      </trkpt>
      <trkpt lat="43.74166" lon="1.41498">
        <ele>158.279768</ele>
        <time>2023-07-30T15:09:35.000Z</time>
      </trkpt>
      <trkpt lat="43.74166" lon="1.41498">
        <ele>158.279768</ele>
        <time>2023-07-30T15:09:35.000Z</time>
      </trkpt>
      <trkpt lat="43.74162" lon="1.41497">
        <ele>158.426286</ele>
        <time>2023-07-30T15:09:36.000Z</time>
      </trkpt>
      <trkpt lat="43.74162" lon="1.41497">
        <ele>158.426286</ele>
        <time>2023-07-30T15:09:36.000Z</time>
      </trkpt>
      <trkpt lat="43.74159" lon="1.41496">
        <ele>158.530666</ele>
        <time>2023-07-30T15:09:37.000Z</time>
      </trkpt>
      <trkpt lat="43.74159" lon="1.41496">
        <ele>158.530666</ele>
        <time>2023-07-30T15:09:37.000Z</time>
      </trkpt>
      <trkpt lat="43.74155" lon="1.41495">
        <ele>158.668957</ele>
        <time>2023-07-30T15:09:39.000Z</time>
      </trkpt>
      <trkpt lat="43.74155" lon="1.41495">
        <ele>158.668957</ele>
        <time>2023-07-30T15:09:39.000Z</time>
      </trkpt>
      <trkpt lat="43.74151" lon="1.41494">
        <ele>158.803304</ele>
        <time>2023-07-30T15:09:40.000Z</time>
      </trkpt>
      <trkpt lat="43.74151" lon="1.41494">
        <ele>158.803304</ele>
        <time>2023-07-30T15:09:40.000Z</time>
      </trkpt>
      <trkpt lat="43.74148" lon="1.41493">
        <ele>158.920743</ele>
        <time>2023-07-30T15:09:41.000Z</time>
      </trkpt>
      <trkpt lat="43.74148" lon="1.41493">
        <ele>158.920743</ele>
        <time>2023-07-30T15:09:41.000Z</time>
      </trkpt>
      <trkpt lat="43.74145" lon="1.41493">
        <ele>159.01381</ele>
        <time>2023-07-30T15:09:42.000Z</time>
      </trkpt>
      <trkpt lat="43.74145" lon="1.41493">
        <ele>159.01381</ele>
        <time>2023-07-30T15:09:42.000Z</time>
      </trkpt>
      <trkpt lat="43.74144" lon="1.41494">
        <ele>159.053366</ele>
        <time>2023-07-30T15:09:43.000Z</time>
      </trkpt>
      <trkpt lat="43.74144" lon="1.41494">
        <ele>159.053366</ele>
        <time>2023-07-30T15:09:43.000Z</time>
      </trkpt>
      <trkpt lat="43.74144" lon="1.41496">
        <ele>159.104589</ele>
        <time>2023-07-30T15:09:44.000Z</time>
      </trkpt>
      <trkpt lat="43.74144" lon="1.41496">
        <ele>159.104589</ele>
        <time>2023-07-30T15:09:44.000Z</time>
      </trkpt>
      <trkpt lat="43.74144" lon="1.415">
        <ele>159.204657</ele>
        <time>2023-07-30T15:09:45.000Z</time>
      </trkpt>
      <trkpt lat="43.74144" lon="1.415">
        <ele>159.204657</ele>
        <time>2023-07-30T15:09:45.000Z</time>
      </trkpt>
      <trkpt lat="43.74144" lon="1.41503">
        <ele>159.293516</ele>
        <time>2023-07-30T15:09:46.000Z</time>
      </trkpt>
      <trkpt lat="43.74144" lon="1.41503">
        <ele>159.293516</ele>
        <time>2023-07-30T15:09:46.000Z</time>
      </trkpt>
      <trkpt lat="43.74144" lon="1.41505">
        <ele>159.34</ele>
        <time>2023-07-30T15:09:47.000Z</time>
      </trkpt>
      <trkpt lat="43.74144" lon="1.41505">
        <ele>159.34</ele>
        <time>2023-07-30T15:09:47.000Z</time>
      </trkpt>
      <trkpt lat="43.74144" lon="1.41506">
        <ele>159.35481</ele>
        <time>2023-07-30T15:09:48.000Z</time>
      </trkpt>
      <trkpt lat="43.74143" lon="1.41507">
        <ele>159.401439</ele>
        <time>2023-07-30T15:09:50.000Z</time>
      </trkpt>
      <trkpt lat="43.74143" lon="1.41507">
        <ele>159.401439</ele>
        <time>2023-07-30T15:09:50.000Z</time>
      </trkpt>
      <trkpt lat="43.74141" lon="1.41508">
        <ele>159.458321</ele>
        <time>2023-07-30T15:09:51.000Z</time>
      </trkpt>
      <trkpt lat="43.74141" lon="1.41508">
        <ele>159.487825</ele>
        <time>2023-07-30T15:09:52.000Z</time>
      </trkpt>
      <trkpt lat="43.74141" lon="1.41508">
        <ele>159.487825</ele>
        <time>2023-07-30T15:09:52.000Z</time>
      </trkpt>
      <trkpt lat="43.7414" lon="1.41509">
        <ele>159.526351</ele>
        <time>2023-07-30T15:09:53.000Z</time>
      </trkpt>
      <trkpt lat="43.7414" lon="1.41516">
        <ele>159.681854</ele>
        <time>2023-07-30T15:09:54.000Z</time>
      </trkpt>
      <trkpt lat="43.7414" lon="1.41516">
        <ele>159.681854</ele>
        <time>2023-07-30T15:09:54.000Z</time>
      </trkpt>
      <trkpt lat="43.74139" lon="1.4152">
        <ele>159.77664</ele>
        <time>2023-07-30T15:09:55.000Z</time>
      </trkpt>
      <trkpt lat="43.74139" lon="1.41523">
        <ele>159.855626</ele>
        <time>2023-07-30T15:09:56.000Z</time>
      </trkpt>
      <trkpt lat="43.74139" lon="1.41527">
        <ele>159.967537</ele>
        <time>2023-07-30T15:09:58.000Z</time>
      </trkpt>
      <trkpt lat="43.74139" lon="1.41527">
        <ele>159.967537</ele>
        <time>2023-07-30T15:09:58.000Z</time>
      </trkpt>
      <trkpt lat="43.74139" lon="1.41534">
        <ele>160.12364</ele>
        <time>2023-07-30T15:09:59.000Z</time>
      </trkpt>
      <trkpt lat="43.74138" lon="1.41544">
        <ele>160.375615</ele>
        <time>2023-07-30T15:10:00.000Z</time>
      </trkpt>
      <trkpt lat="43.74138" lon="1.41551">
        <ele>160.555423</ele>
        <time>2023-07-30T15:10:01.000Z</time>
      </trkpt>
      <trkpt lat="43.74136" lon="1.41561">
        <ele>160.801111</ele>
        <time>2023-07-30T15:10:03.000Z</time>
      </trkpt>
      <trkpt lat="43.74136" lon="1.41561">
        <ele>160.801111</ele>
        <time>2023-07-30T15:10:03.000Z</time>
      </trkpt>
      <trkpt lat="43.74134" lon="1.41567">
        <ele>160.978967</ele>
        <time>2023-07-30T15:10:04.000Z</time>
      </trkpt>
      <trkpt lat="43.74133" lon="1.41572">
        <ele>161.106674</ele>
        <time>2023-07-30T15:10:05.000Z</time>
      </trkpt>
      <trkpt lat="43.74132" lon="1.41578">
        <ele>161.242091</ele>
        <time>2023-07-30T15:10:06.000Z</time>
      </trkpt>
      <trkpt lat="43.74129" lon="1.41589">
        <ele>161.545561</ele>
        <time>2023-07-30T15:10:08.000Z</time>
      </trkpt>
      <trkpt lat="43.74126" lon="1.41594">
        <ele>161.68773</ele>
        <time>2023-07-30T15:10:09.000Z</time>
      </trkpt>
      <trkpt lat="43.74125" lon="1.41598">
        <ele>161.80499</ele>
        <time>2023-07-30T15:10:11.000Z</time>
      </trkpt>
      <trkpt lat="43.74125" lon="1.41598">
        <ele>161.80499</ele>
        <time>2023-07-30T15:10:11.000Z</time>
      </trkpt>
      <trkpt lat="43.74123" lon="1.41601">
        <ele>161.903463</ele>
        <time>2023-07-30T15:10:12.000Z</time>
      </trkpt>
      <trkpt lat="43.74121" lon="1.41605">
        <ele>162.03327</ele>
        <time>2023-07-30T15:10:13.000Z</time>
      </trkpt>
      <trkpt lat="43.74121" lon="1.41605">
        <ele>162.03327</ele>
        <time>2023-07-30T15:10:13.000Z</time>
      </trkpt>
      <trkpt lat="43.74117" lon="1.41609">
        <ele>162.202534</ele>
        <time>2023-07-30T15:10:14.000Z</time>
      </trkpt>
      <trkpt lat="43.74117" lon="1.41609">
        <ele>162.202534</ele>
        <time>2023-07-30T15:10:14.000Z</time>
      </trkpt>
      <trkpt lat="43.74115" lon="1.41613">
        <ele>162.298769</ele>
        <time>2023-07-30T15:10:15.000Z</time>
      </trkpt>
      <trkpt lat="43.74115" lon="1.41613">
        <ele>162.298769</ele>
        <time>2023-07-30T15:10:15.000Z</time>
      </trkpt>
      <trkpt lat="43.74111" lon="1.41622">
        <ele>162.567391</ele>
        <time>2023-07-30T15:10:17.000Z</time>
      </trkpt>
      <trkpt lat="43.7411" lon="1.41624">
        <ele>162.623818</ele>
        <time>2023-07-30T15:10:19.000Z</time>
      </trkpt>
      <trkpt lat="43.7411" lon="1.41624">
        <ele>162.623818</ele>
        <time>2023-07-30T15:10:19.000Z</time>
      </trkpt>
      <trkpt lat="43.74109" lon="1.41625">
        <ele>162.670182</ele>
        <time>2023-07-30T15:10:20.000Z</time>
      </trkpt>
      <trkpt lat="43.74108" lon="1.41627">
        <ele>162.747233</ele>
        <time>2023-07-30T15:10:21.000Z</time>
      </trkpt>
      <trkpt lat="43.74106" lon="1.41629">
        <ele>162.815059</ele>
        <time>2023-07-30T15:10:22.000Z</time>
      </trkpt>
      <trkpt lat="43.74104" lon="1.41631">
        <ele>162.924688</ele>
        <time>2023-07-30T15:10:23.000Z</time>
      </trkpt>
      <trkpt lat="43.74102" lon="1.41634">
        <ele>162.997579</ele>
        <time>2023-07-30T15:10:25.000Z</time>
      </trkpt>
      <trkpt lat="43.741" lon="1.41636">
        <ele>163.08546</ele>
        <time>2023-07-30T15:10:26.000Z</time>
      </trkpt>
      <trkpt lat="43.74098" lon="1.41638">
        <ele>163.183868</ele>
        <time>2023-07-30T15:10:27.000Z</time>
      </trkpt>
      <trkpt lat="43.74096" lon="1.4164">
        <ele>163.275378</ele>
        <time>2023-07-30T15:10:29.000Z</time>
      </trkpt>
      <trkpt lat="43.74096" lon="1.4164">
        <ele>163.275378</ele>
        <time>2023-07-30T15:10:29.000Z</time>
      </trkpt>
      <trkpt lat="43.74093" lon="1.41642">
        <ele>163.383541</ele>
        <time>2023-07-30T15:10:30.000Z</time>
      </trkpt>
      <trkpt lat="43.74086" lon="1.41642">
        <ele>163.679512</ele>
        <time>2023-07-30T15:10:32.000Z</time>
      </trkpt>
      <trkpt lat="43.74086" lon="1.41642">
        <ele>163.679512</ele>
        <time>2023-07-30T15:10:32.000Z</time>
      </trkpt>
      <trkpt lat="43.74083" lon="1.41641">
        <ele>163.83811</ele>
        <time>2023-07-30T15:10:33.000Z</time>
      </trkpt>
      <trkpt lat="43.7408" lon="1.41641">
        <ele>163.958952</ele>
        <time>2023-07-30T15:10:34.000Z</time>
      </trkpt>
      <trkpt lat="43.7408" lon="1.41641">
        <ele>163.958952</ele>
        <time>2023-07-30T15:10:34.000Z</time>
      </trkpt>
      <trkpt lat="43.74077" lon="1.4164">
        <ele>164.149955</ele>
        <time>2023-07-30T15:10:35.000Z</time>
      </trkpt>
      <trkpt lat="43.74077" lon="1.4164">
        <ele>164.149955</ele>
        <time>2023-07-30T15:10:35.000Z</time>
      </trkpt>
      <trkpt lat="43.74073" lon="1.41638">
        <ele>164.339722</ele>
        <time>2023-07-30T15:10:36.000Z</time>
      </trkpt>
      <trkpt lat="43.74073" lon="1.41638">
        <ele>164.339722</ele>
        <time>2023-07-30T15:10:36.000Z</time>
      </trkpt>
      <trkpt lat="43.7407" lon="1.41636">
        <ele>164.533811</ele>
        <time>2023-07-30T15:10:37.000Z</time>
      </trkpt>
      <trkpt lat="43.7407" lon="1.41636">
        <ele>164.533811</ele>
        <time>2023-07-30T15:10:37.000Z</time>
      </trkpt>
      <trkpt lat="43.74067" lon="1.41634">
        <ele>164.713733</ele>
        <time>2023-07-30T15:10:38.000Z</time>
      </trkpt>
      <trkpt lat="43.74067" lon="1.41634">
        <ele>164.713733</ele>
        <time>2023-07-30T15:10:38.000Z</time>
      </trkpt>
      <trkpt lat="43.74064" lon="1.41631">
        <ele>164.892512</ele>
        <time>2023-07-30T15:10:39.000Z</time>
      </trkpt>
      <trkpt lat="43.74064" lon="1.41631">
        <ele>164.892512</ele>
        <time>2023-07-30T15:10:39.000Z</time>
      </trkpt>
      <trkpt lat="43.74061" lon="1.41629">
        <ele>165.061855</ele>
        <time>2023-07-30T15:10:40.000Z</time>
      </trkpt>
      <trkpt lat="43.74061" lon="1.41629">
        <ele>165.061855</ele>
        <time>2023-07-30T15:10:40.000Z</time>
      </trkpt>
      <trkpt lat="43.7406" lon="1.41627">
        <ele>165.158323</ele>
        <time>2023-07-30T15:10:41.000Z</time>
      </trkpt>
      <trkpt lat="43.7406" lon="1.41627">
        <ele>165.158323</ele>
        <time>2023-07-30T15:10:41.000Z</time>
      </trkpt>
      <trkpt lat="43.74058" lon="1.41625">
        <ele>165.289845</ele>
        <time>2023-07-30T15:10:42.000Z</time>
      </trkpt>
      <trkpt lat="43.74058" lon="1.41625">
        <ele>165.289845</ele>
        <time>2023-07-30T15:10:42.000Z</time>
      </trkpt>
      <trkpt lat="43.74057" lon="1.41622">
        <ele>165.409366</ele>
        <time>2023-07-30T15:10:43.000Z</time>
      </trkpt>
      <trkpt lat="43.74057" lon="1.41622">
        <ele>165.409366</ele>
        <time>2023-07-30T15:10:43.000Z</time>
      </trkpt>
      <trkpt lat="43.74056" lon="1.41619">
        <ele>165.549674</ele>
        <time>2023-07-30T15:10:46.000Z</time>
      </trkpt>
      <trkpt lat="43.74056" lon="1.41619">
        <ele>165.549674</ele>
        <time>2023-07-30T15:10:46.000Z</time>
      </trkpt>
      <trkpt lat="43.74055" lon="1.41616">
        <ele>165.659584</ele>
        <time>2023-07-30T15:10:47.000Z</time>
      </trkpt>
      <trkpt lat="43.74055" lon="1.41616">
        <ele>165.659584</ele>
        <time>2023-07-30T15:10:47.000Z</time>
      </trkpt>
      <trkpt lat="43.74054" lon="1.41612">
        <ele>165.810274</ele>
        <time>2023-07-30T15:10:48.000Z</time>
      </trkpt>
      <trkpt lat="43.74054" lon="1.41612">
        <ele>165.810274</ele>
        <time>2023-07-30T15:10:48.000Z</time>
      </trkpt>
      <trkpt lat="43.74053" lon="1.41608">
        <ele>165.992137</ele>
        <time>2023-07-30T15:10:49.000Z</time>
      </trkpt>
      <trkpt lat="43.74053" lon="1.41608">
        <ele>165.992137</ele>
        <time>2023-07-30T15:10:49.000Z</time>
      </trkpt>
      <trkpt lat="43.74052" lon="1.41605">
        <ele>166.116118</ele>
        <time>2023-07-30T15:10:49.000Z</time>
      </trkpt>
      <trkpt lat="43.74052" lon="1.41605">
        <ele>166.116118</ele>
        <time>2023-07-30T15:10:49.000Z</time>
      </trkpt>
      <trkpt lat="43.74051" lon="1.41598">
        <ele>166.371086</ele>
        <time>2023-07-30T15:10:50.000Z</time>
      </trkpt>
      <trkpt lat="43.74051" lon="1.41598">
        <ele>166.371086</ele>
        <time>2023-07-30T15:10:50.000Z</time>
      </trkpt>
      <trkpt lat="43.74051" lon="1.41592">
        <ele>166.586083</ele>
        <time>2023-07-30T15:10:52.000Z</time>
      </trkpt>
      <trkpt lat="43.74051" lon="1.41592">
        <ele>166.586083</ele>
        <time>2023-07-30T15:10:52.000Z</time>
      </trkpt>
      <trkpt lat="43.74049" lon="1.41586">
        <ele>166.815575</ele>
        <time>2023-07-30T15:10:53.000Z</time>
      </trkpt>
      <trkpt lat="43.74049" lon="1.41586">
        <ele>166.815575</ele>
        <time>2023-07-30T15:10:53.000Z</time>
      </trkpt>
      <trkpt lat="43.74048" lon="1.41581">
        <ele>167.024763</ele>
        <time>2023-07-30T15:10:55.000Z</time>
      </trkpt>
      <trkpt lat="43.74048" lon="1.41581">
        <ele>167.024763</ele>
        <time>2023-07-30T15:10:55.000Z</time>
      </trkpt>
      <trkpt lat="43.74047" lon="1.41576">
        <ele>167.225222</ele>
        <time>2023-07-30T15:10:55.000Z</time>
      </trkpt>
      <trkpt lat="43.74047" lon="1.41576">
        <ele>167.225222</ele>
        <time>2023-07-30T15:10:55.000Z</time>
      </trkpt>
      <trkpt lat="43.74045" lon="1.41569">
        <ele>167.496308</ele>
        <time>2023-07-30T15:10:57.000Z</time>
      </trkpt>
      <trkpt lat="43.74045" lon="1.41569">
        <ele>167.496308</ele>
        <time>2023-07-30T15:10:57.000Z</time>
      </trkpt>
      <trkpt lat="43.74044" lon="1.41565">
        <ele>167.669397</ele>
        <time>2023-07-30T15:10:58.000Z</time>
      </trkpt>
      <trkpt lat="43.74044" lon="1.41565">
        <ele>167.669397</ele>
        <time>2023-07-30T15:10:58.000Z</time>
      </trkpt>
      <trkpt lat="43.74041" lon="1.41556">
        <ele>168.065435</ele>
        <time>2023-07-30T15:11:00.000Z</time>
      </trkpt>
      <trkpt lat="43.74041" lon="1.41556">
        <ele>168.065435</ele>
        <time>2023-07-30T15:11:00.000Z</time>
      </trkpt>
      <trkpt lat="43.74041" lon="1.41556">
        <ele>168.065435</ele>
        <time>2023-07-30T15:11:02.000Z</time>
      </trkpt>
      <trkpt lat="43.74038" lon="1.41547">
        <ele>168.411704</ele>
        <time>2023-07-30T15:11:06.000Z</time>
      </trkpt>
      <trkpt lat="43.74038" lon="1.41547">
        <ele>168.411704</ele>
        <time>2023-07-30T15:11:06.000Z</time>
      </trkpt>
      <trkpt lat="43.74038" lon="1.41547">
        <ele>168.411704</ele>
        <time>2023-07-30T15:11:08.000Z</time>
      </trkpt>
      <trkpt lat="43.74038" lon="1.41547">
        <ele>168.411704</ele>
        <time>2023-07-30T15:11:09.000Z</time>
      </trkpt>
      <trkpt lat="43.74038" lon="1.41547">
        <ele>168.411704</ele>
        <time>2023-07-30T15:11:56.000Z</time>
      </trkpt>
      <trkpt lat="43.74036" lon="1.41539">
        <ele>168.746514</ele>
        <time>2023-07-30T15:11:57.000Z</time>
      </trkpt>
      <trkpt lat="43.74036" lon="1.41539">
        <ele>168.746514</ele>
        <time>2023-07-30T15:12:00.000Z</time>
      </trkpt>
      <trkpt lat="43.74035" lon="1.41533">
        <ele>168.983308</ele>
        <time>2023-07-30T15:19:48.000Z</time>
      </trkpt>
      <trkpt lat="43.74035" lon="1.41533">
        <ele>168.983308</ele>
        <time>2023-07-30T15:21:19.000Z</time>
      </trkpt>
      <trkpt lat="43.74035" lon="1.41533">
        <ele>168.983308</ele>
        <time>2023-07-30T15:21:23.000Z</time>
      </trkpt>
      <trkpt lat="43.74036" lon="1.4153">
        <ele>169.114593</ele>
        <time>2023-07-30T15:21:23.000Z</time>
      </trkpt>
      <trkpt lat="43.74036" lon="1.4153">
        <ele>169.114593</ele>
        <time>2023-07-30T15:21:25.000Z</time>
      </trkpt>
      <trkpt lat="43.74035" lon="1.4153">
        <ele>169.193151</ele>
        <time>2023-07-30T15:21:26.000Z</time>
      </trkpt>
      <trkpt lat="43.74033" lon="1.41531">
        <ele>169.254786</ele>
        <time>2023-07-30T15:21:27.000Z</time>
      </trkpt>
      <trkpt lat="43.74033" lon="1.41531">
        <ele>169.254786</ele>
        <time>2023-07-30T15:21:27.000Z</time>
      </trkpt>
      <trkpt lat="43.74031" lon="1.41531">
        <ele>169.361468</ele>
        <time>2023-07-30T15:21:29.000Z</time>
      </trkpt>
      <trkpt lat="43.7403" lon="1.41532">
        <ele>169.443989</ele>
        <time>2023-07-30T15:21:30.000Z</time>
      </trkpt>
      <trkpt lat="43.74026" lon="1.41534">
        <ele>169.652175</ele>
        <time>2023-07-30T15:21:31.000Z</time>
      </trkpt>
      <trkpt lat="43.74021" lon="1.41536">
        <ele>169.920717</ele>
        <time>2023-07-30T15:21:33.000Z</time>
      </trkpt>
      <trkpt lat="43.74016" lon="1.41538">
        <ele>170.195387</ele>
        <time>2023-07-30T15:21:34.000Z</time>
      </trkpt>
      <trkpt lat="43.7401" lon="1.41541">
        <ele>170.550267</ele>
        <time>2023-07-30T15:21:35.000Z</time>
      </trkpt>
      <trkpt lat="43.73998" lon="1.41546">
        <ele>171.178393</ele>
        <time>2023-07-30T15:21:36.000Z</time>
      </trkpt>
      <trkpt lat="43.73998" lon="1.41546">
        <ele>171.178393</ele>
        <time>2023-07-30T15:21:36.000Z</time>
      </trkpt>
      <trkpt lat="43.73993" lon="1.41549">
        <ele>171.471839</ele>
        <time>2023-07-30T15:21:36.000Z</time>
      </trkpt>
      <trkpt lat="43.73986" lon="1.41551">
        <ele>171.86071</ele>
        <time>2023-07-30T15:21:38.000Z</time>
      </trkpt>
      <trkpt lat="43.73986" lon="1.41551">
        <ele>171.86071</ele>
        <time>2023-07-30T15:21:38.000Z</time>
      </trkpt>
      <trkpt lat="43.7398" lon="1.41554">
        <ele>172.190294</ele>
        <time>2023-07-30T15:21:39.000Z</time>
      </trkpt>
      <trkpt lat="43.7398" lon="1.41554">
        <ele>172.190294</ele>
        <time>2023-07-30T15:21:39.000Z</time>
      </trkpt>
      <trkpt lat="43.73973" lon="1.41557">
        <ele>172.566212</ele>
        <time>2023-07-30T15:21:40.000Z</time>
      </trkpt>
      <trkpt lat="43.73967" lon="1.41559">
        <ele>172.855765</ele>
        <time>2023-07-30T15:21:41.000Z</time>
      </trkpt>
      <trkpt lat="43.73967" lon="1.41559">
        <ele>172.855765</ele>
        <time>2023-07-30T15:21:41.000Z</time>
      </trkpt>
      <trkpt lat="43.73963" lon="1.41561">
        <ele>172.694393</ele>
        <time>2023-07-30T15:21:41.000Z</time>
      </trkpt>
      <trkpt lat="43.73963" lon="1.41561">
        <ele>172.694393</ele>
        <time>2023-07-30T15:21:41.000Z</time>
      </trkpt>
      <trkpt lat="43.73958" lon="1.41563">
        <ele>172.471671</ele>
        <time>2023-07-30T15:21:43.000Z</time>
      </trkpt>
      <trkpt lat="43.73958" lon="1.41563">
        <ele>172.471671</ele>
        <time>2023-07-30T15:21:43.000Z</time>
      </trkpt>
      <trkpt lat="43.73953" lon="1.41564">
        <ele>172.271442</ele>
        <time>2023-07-30T15:21:44.000Z</time>
      </trkpt>
      <trkpt lat="43.73953" lon="1.41564">
        <ele>172.271442</ele>
        <time>2023-07-30T15:21:44.000Z</time>
      </trkpt>
      <trkpt lat="43.73949" lon="1.41565">
        <ele>172.099266</ele>
        <time>2023-07-30T15:21:45.000Z</time>
      </trkpt>
      <trkpt lat="43.73949" lon="1.41565">
        <ele>172.099266</ele>
        <time>2023-07-30T15:21:45.000Z</time>
      </trkpt>
      <trkpt lat="43.73945" lon="1.41566">
        <ele>171.885008</ele>
        <time>2023-07-30T15:21:46.000Z</time>
      </trkpt>
      <trkpt lat="43.73945" lon="1.41566">
        <ele>171.885008</ele>
        <time>2023-07-30T15:21:46.000Z</time>
      </trkpt>
      <trkpt lat="43.73944" lon="1.41567">
        <ele>171.848212</ele>
        <time>2023-07-30T15:21:47.000Z</time>
      </trkpt>
      <trkpt lat="43.7394" lon="1.41567">
        <ele>171.665214</ele>
        <time>2023-07-30T15:21:49.000Z</time>
      </trkpt>
      <trkpt lat="43.7394" lon="1.41567">
        <ele>171.665214</ele>
        <time>2023-07-30T15:21:49.000Z</time>
      </trkpt>
      <trkpt lat="43.73936" lon="1.41568">
        <ele>171.498941</ele>
        <time>2023-07-30T15:21:50.000Z</time>
      </trkpt>
      <trkpt lat="43.73936" lon="1.41568">
        <ele>171.498941</ele>
        <time>2023-07-30T15:21:50.000Z</time>
      </trkpt>
      <trkpt lat="43.73931" lon="1.41569">
        <ele>171.278866</ele>
        <time>2023-07-30T15:21:51.000Z</time>
      </trkpt>
      <trkpt lat="43.73931" lon="1.41569">
        <ele>171.278866</ele>
        <time>2023-07-30T15:21:51.000Z</time>
      </trkpt>
      <trkpt lat="43.73926" lon="1.41571">
        <ele>171.076237</ele>
        <time>2023-07-30T15:21:52.000Z</time>
      </trkpt>
      <trkpt lat="43.73926" lon="1.41571">
        <ele>171.076237</ele>
        <time>2023-07-30T15:21:52.000Z</time>
      </trkpt>
      <trkpt lat="43.73923" lon="1.41574">
        <ele>170.899776</ele>
        <time>2023-07-30T15:21:53.000Z</time>
      </trkpt>
      <trkpt lat="43.73923" lon="1.41574">
        <ele>170.899776</ele>
        <time>2023-07-30T15:21:53.000Z</time>
      </trkpt>
      <trkpt lat="43.7392" lon="1.41577">
        <ele>170.734008</ele>
        <time>2023-07-30T15:21:54.000Z</time>
      </trkpt>
      <trkpt lat="43.73916" lon="1.41582">
        <ele>170.500368</ele>
        <time>2023-07-30T15:21:55.000Z</time>
      </trkpt>
      <trkpt lat="43.73916" lon="1.41582">
        <ele>170.500368</ele>
        <time>2023-07-30T15:21:55.000Z</time>
      </trkpt>
      <trkpt lat="43.73911" lon="1.41587">
        <ele>170.260722</ele>
        <time>2023-07-30T15:21:57.000Z</time>
      </trkpt>
      <trkpt lat="43.73911" lon="1.41587">
        <ele>170.260722</ele>
        <time>2023-07-30T15:21:57.000Z</time>
      </trkpt>
      <trkpt lat="43.73909" lon="1.41593">
        <ele>170.067362</ele>
        <time>2023-07-30T15:21:58.000Z</time>
      </trkpt>
      <trkpt lat="43.73909" lon="1.41597">
        <ele>169.93922</ele>
        <time>2023-07-30T15:21:59.000Z</time>
      </trkpt>
      <trkpt lat="43.73909" lon="1.41597">
        <ele>169.93922</ele>
        <time>2023-07-30T15:21:59.000Z</time>
      </trkpt>
      <trkpt lat="43.73911" lon="1.416">
        <ele>169.817057</ele>
        <time>2023-07-30T15:22:00.000Z</time>
      </trkpt>
      <trkpt lat="43.73911" lon="1.416">
        <ele>169.817057</ele>
        <time>2023-07-30T15:22:00.000Z</time>
      </trkpt>
      <trkpt lat="43.73912" lon="1.41603">
        <ele>169.715308</ele>
        <time>2023-07-30T15:22:01.000Z</time>
      </trkpt>
      <trkpt lat="43.73912" lon="1.41603">
        <ele>169.715308</ele>
        <time>2023-07-30T15:22:01.000Z</time>
      </trkpt>
      <trkpt lat="43.73914" lon="1.41607">
        <ele>169.544808</ele>
        <time>2023-07-30T15:22:02.000Z</time>
      </trkpt>
      <trkpt lat="43.73914" lon="1.41607">
        <ele>169.544808</ele>
        <time>2023-07-30T15:22:02.000Z</time>
      </trkpt>
      <trkpt lat="43.73919" lon="1.41613">
        <ele>169.294691</ele>
        <time>2023-07-30T15:22:03.000Z</time>
      </trkpt>
      <trkpt lat="43.73919" lon="1.41613">
        <ele>169.294691</ele>
        <time>2023-07-30T15:22:03.000Z</time>
      </trkpt>
      <trkpt lat="43.73923" lon="1.41619">
        <ele>169.01981</ele>
        <time>2023-07-30T15:22:04.000Z</time>
      </trkpt>
      <trkpt lat="43.73923" lon="1.41619">
        <ele>169.01981</ele>
        <time>2023-07-30T15:22:04.000Z</time>
      </trkpt>
      <trkpt lat="43.73926" lon="1.41626">
        <ele>168.763204</ele>
        <time>2023-07-30T15:22:05.000Z</time>
      </trkpt>
      <trkpt lat="43.73926" lon="1.41626">
        <ele>168.763204</ele>
        <time>2023-07-30T15:22:05.000Z</time>
      </trkpt>
      <trkpt lat="43.7393" lon="1.41636">
        <ele>168.418342</ele>
        <time>2023-07-30T15:22:06.000Z</time>
      </trkpt>
      <trkpt lat="43.7393" lon="1.41636">
        <ele>168.418342</ele>
        <time>2023-07-30T15:22:06.000Z</time>
      </trkpt>
      <trkpt lat="43.73933" lon="1.41645">
        <ele>168.087134</ele>
        <time>2023-07-30T15:22:07.000Z</time>
      </trkpt>
      <trkpt lat="43.73933" lon="1.41645">
        <ele>168.087134</ele>
        <time>2023-07-30T15:22:07.000Z</time>
      </trkpt>
      <trkpt lat="43.73938" lon="1.41653">
        <ele>167.765133</ele>
        <time>2023-07-30T15:22:08.000Z</time>
      </trkpt>
      <trkpt lat="43.73938" lon="1.41653">
        <ele>167.765133</ele>
        <time>2023-07-30T15:22:08.000Z</time>
      </trkpt>
      <trkpt lat="43.73941" lon="1.41659">
        <ele>167.547246</ele>
        <time>2023-07-30T15:22:09.000Z</time>
      </trkpt>
      <trkpt lat="43.73941" lon="1.41659">
        <ele>167.547246</ele>
        <time>2023-07-30T15:22:09.000Z</time>
      </trkpt>
      <trkpt lat="43.73942" lon="1.41662">
        <ele>167.434565</ele>
        <time>2023-07-30T15:22:10.000Z</time>
      </trkpt>
      <trkpt lat="43.73944" lon="1.41667">
        <ele>167.271114</ele>
        <time>2023-07-30T15:22:11.000Z</time>
      </trkpt>
      <trkpt lat="43.73944" lon="1.41667">
        <ele>167.271114</ele>
        <time>2023-07-30T15:22:11.000Z</time>
      </trkpt>
      <trkpt lat="43.73945" lon="1.41672">
        <ele>167.099018</ele>
        <time>2023-07-30T15:22:12.000Z</time>
      </trkpt>
      <trkpt lat="43.73945" lon="1.41672">
        <ele>167.099018</ele>
        <time>2023-07-30T15:22:12.000Z</time>
      </trkpt>
      <trkpt lat="43.73947" lon="1.4168">
        <ele>166.839584</ele>
        <time>2023-07-30T15:22:14.000Z</time>
      </trkpt>
      <trkpt lat="43.73947" lon="1.4168">
        <ele>166.839584</ele>
        <time>2023-07-30T15:22:14.000Z</time>
      </trkpt>
      <trkpt lat="43.73947" lon="1.4168">
        <ele>166.839584</ele>
        <time>2023-07-30T15:22:15.000Z</time>
      </trkpt>
      <trkpt lat="43.73947" lon="1.4168">
        <ele>166.839584</ele>
        <time>2023-07-30T15:22:16.000Z</time>
      </trkpt>
      <trkpt lat="43.73947" lon="1.4168">
        <ele>166.839584</ele>
        <time>2023-07-30T15:22:18.000Z</time>
      </trkpt>
      <trkpt lat="43.73948" lon="1.41708">
        <ele>165.970199</ele>
        <time>2023-07-30T15:22:19.000Z</time>
      </trkpt>
      <trkpt lat="43.73948" lon="1.41708">
        <ele>165.970199</ele>
        <time>2023-07-30T15:22:19.000Z</time>
      </trkpt>
      <trkpt lat="43.73946" lon="1.41708">
        <ele>165.920115</ele>
        <time>2023-07-30T15:22:21.000Z</time>
      </trkpt>
      <trkpt lat="43.73946" lon="1.41708">
        <ele>165.920115</ele>
        <time>2023-07-30T15:22:21.000Z</time>
      </trkpt>
      <trkpt lat="43.73946" lon="1.41709">
        <ele>165.916989</ele>
        <time>2023-07-30T15:22:22.000Z</time>
      </trkpt>
      <trkpt lat="43.73945" lon="1.41709">
        <ele>165.863595</ele>
        <time>2023-07-30T15:22:23.000Z</time>
      </trkpt>
      <trkpt lat="43.73945" lon="1.41709">
        <ele>165.863595</ele>
        <time>2023-07-30T15:22:23.000Z</time>
      </trkpt>
      <trkpt lat="43.7394" lon="1.41712">
        <ele>165.634274</ele>
        <time>2023-07-30T15:22:24.000Z</time>
      </trkpt>
      <trkpt lat="43.73936" lon="1.41714">
        <ele>165.425698</ele>
        <time>2023-07-30T15:22:26.000Z</time>
      </trkpt>
      <trkpt lat="43.73932" lon="1.41715">
        <ele>165.273111</ele>
        <time>2023-07-30T15:22:27.000Z</time>
      </trkpt>
      <trkpt lat="43.73928" lon="1.41716">
        <ele>165.098349</ele>
        <time>2023-07-30T15:22:28.000Z</time>
      </trkpt>
      <trkpt lat="43.73924" lon="1.41718">
        <ele>165.06049</ele>
        <time>2023-07-30T15:22:29.000Z</time>
      </trkpt>
      <trkpt lat="43.7392" lon="1.41719">
        <ele>165.023142</ele>
        <time>2023-07-30T15:22:30.000Z</time>
      </trkpt>
      <trkpt lat="43.7392" lon="1.41719">
        <ele>165.023142</ele>
        <time>2023-07-30T15:22:30.000Z</time>
      </trkpt>
      <trkpt lat="43.73916" lon="1.4172">
        <ele>164.989547</ele>
        <time>2023-07-30T15:22:31.000Z</time>
      </trkpt>
      <trkpt lat="43.73911" lon="1.41721">
        <ele>164.941401</ele>
        <time>2023-07-30T15:22:31.000Z</time>
      </trkpt>
      <trkpt lat="43.73904" lon="1.41722">
        <ele>164.887406</ele>
        <time>2023-07-30T15:22:34.000Z</time>
      </trkpt>
      <trkpt lat="43.739" lon="1.41723">
        <ele>164.844089</ele>
        <time>2023-07-30T15:22:35.000Z</time>
      </trkpt>
      <trkpt lat="43.73892" lon="1.41727">
        <ele>164.77596</ele>
        <time>2023-07-30T15:22:36.000Z</time>
      </trkpt>
      <trkpt lat="43.7388" lon="1.41734">
        <ele>164.663701</ele>
        <time>2023-07-30T15:22:38.000Z</time>
      </trkpt>
      <trkpt lat="43.7388" lon="1.41734">
        <ele>164.663701</ele>
        <time>2023-07-30T15:22:38.000Z</time>
      </trkpt>
      <trkpt lat="43.73874" lon="1.41736">
        <ele>164.600862</ele>
        <time>2023-07-30T15:22:38.000Z</time>
      </trkpt>
      <trkpt lat="43.7387" lon="1.41739">
        <ele>164.567698</ele>
        <time>2023-07-30T15:22:40.000Z</time>
      </trkpt>
      <trkpt lat="43.73863" lon="1.41743">
        <ele>164.50164</ele>
        <time>2023-07-30T15:22:42.000Z</time>
      </trkpt>
      <trkpt lat="43.73863" lon="1.41743">
        <ele>164.50164</ele>
        <time>2023-07-30T15:22:42.000Z</time>
      </trkpt>
      <trkpt lat="43.73857" lon="1.41746">
        <ele>164.443526</ele>
        <time>2023-07-30T15:22:43.000Z</time>
      </trkpt>
      <trkpt lat="43.7385" lon="1.4175">
        <ele>164.378775</ele>
        <time>2023-07-30T15:22:44.000Z</time>
      </trkpt>
      <trkpt lat="43.73845" lon="1.41754">
        <ele>164.323069</ele>
        <time>2023-07-30T15:22:45.000Z</time>
      </trkpt>
      <trkpt lat="43.73845" lon="1.41754">
        <ele>164.323069</ele>
        <time>2023-07-30T15:22:45.000Z</time>
      </trkpt>
      <trkpt lat="43.73838" lon="1.41757">
        <ele>164.265673</ele>
        <time>2023-07-30T15:22:46.000Z</time>
      </trkpt>
      <trkpt lat="43.73832" lon="1.41761">
        <ele>164.203334</ele>
        <time>2023-07-30T15:22:47.000Z</time>
      </trkpt>
      <trkpt lat="43.73821" lon="1.41768">
        <ele>164.09576</ele>
        <time>2023-07-30T15:22:48.000Z</time>
      </trkpt>
      <trkpt lat="43.73814" lon="1.41771">
        <ele>164.034865</ele>
        <time>2023-07-30T15:22:50.000Z</time>
      </trkpt>
      <trkpt lat="43.73808" lon="1.41774">
        <ele>163.980719</ele>
        <time>2023-07-30T15:22:52.000Z</time>
      </trkpt>
      <trkpt lat="43.73808" lon="1.41774">
        <ele>163.980719</ele>
        <time>2023-07-30T15:22:52.000Z</time>
      </trkpt>
      <trkpt lat="43.73802" lon="1.41777">
        <ele>163.920469</ele>
        <time>2023-07-30T15:22:53.000Z</time>
      </trkpt>
      <trkpt lat="43.73796" lon="1.4178">
        <ele>163.867249</ele>
        <time>2023-07-30T15:22:54.000Z</time>
      </trkpt>
      <trkpt lat="43.73796" lon="1.4178">
        <ele>163.867249</ele>
        <time>2023-07-30T15:22:54.000Z</time>
      </trkpt>
      <trkpt lat="43.7379" lon="1.41782">
        <ele>163.816402</ele>
        <time>2023-07-30T15:22:55.000Z</time>
      </trkpt>
      <trkpt lat="43.73784" lon="1.41784">
        <ele>163.758048</ele>
        <time>2023-07-30T15:22:56.000Z</time>
      </trkpt>
      <trkpt lat="43.73779" lon="1.41786">
        <ele>163.712928</ele>
        <time>2023-07-30T15:22:57.000Z</time>
      </trkpt>
      <trkpt lat="43.73774" lon="1.41786">
        <ele>163.666326</ele>
        <time>2023-07-30T15:22:58.000Z</time>
      </trkpt>
      <trkpt lat="43.73774" lon="1.41786">
        <ele>163.666326</ele>
        <time>2023-07-30T15:22:58.000Z</time>
      </trkpt>
      <trkpt lat="43.7377" lon="1.41786">
        <ele>163.632928</ele>
        <time>2023-07-30T15:22:59.000Z</time>
      </trkpt>
      <trkpt lat="43.73765" lon="1.41784">
        <ele>163.588093</ele>
        <time>2023-07-30T15:23:01.000Z</time>
      </trkpt>
      <trkpt lat="43.73765" lon="1.41784">
        <ele>163.588093</ele>
        <time>2023-07-30T15:23:01.000Z</time>
      </trkpt>
      <trkpt lat="43.73761" lon="1.41783">
        <ele>163.557344</ele>
        <time>2023-07-30T15:23:02.000Z</time>
      </trkpt>
      <trkpt lat="43.73761" lon="1.41783">
        <ele>163.557344</ele>
        <time>2023-07-30T15:23:02.000Z</time>
      </trkpt>
      <trkpt lat="43.73757" lon="1.41779">
        <ele>163.59405</ele>
        <time>2023-07-30T15:23:03.000Z</time>
      </trkpt>
      <trkpt lat="43.73757" lon="1.41779">
        <ele>163.59405</ele>
        <time>2023-07-30T15:23:03.000Z</time>
      </trkpt>
      <trkpt lat="43.73755" lon="1.41778">
        <ele>163.702864</ele>
        <time>2023-07-30T15:23:04.000Z</time>
      </trkpt>
      <trkpt lat="43.73755" lon="1.41778">
        <ele>163.702864</ele>
        <time>2023-07-30T15:23:04.000Z</time>
      </trkpt>
      <trkpt lat="43.73755" lon="1.41778">
        <ele>163.702864</ele>
        <time>2023-07-30T15:23:05.000Z</time>
      </trkpt>
      <trkpt lat="43.73755" lon="1.41778">
        <ele>163.702864</ele>
        <time>2023-07-30T15:23:07.000Z</time>
      </trkpt>
      <trkpt lat="43.73749" lon="1.41773">
        <ele>163.973778</ele>
        <time>2023-07-30T15:23:08.000Z</time>
      </trkpt>
      <trkpt lat="43.73749" lon="1.41773">
        <ele>163.973778</ele>
        <time>2023-07-30T15:23:08.000Z</time>
      </trkpt>
      <trkpt lat="43.73748" lon="1.41772">
        <ele>164.043315</ele>
        <time>2023-07-30T15:23:10.000Z</time>
      </trkpt>
      <trkpt lat="43.73748" lon="1.41772">
        <ele>164.043315</ele>
        <time>2023-07-30T15:23:10.000Z</time>
      </trkpt>
      <trkpt lat="43.73747" lon="1.41771">
        <ele>164.098237</ele>
        <time>2023-07-30T15:23:10.000Z</time>
      </trkpt>
      <trkpt lat="43.73747" lon="1.41771">
        <ele>164.098237</ele>
        <time>2023-07-30T15:23:10.000Z</time>
      </trkpt>
      <trkpt lat="43.73744" lon="1.41769">
        <ele>164.214913</ele>
        <time>2023-07-30T15:23:13.000Z</time>
      </trkpt>
      <trkpt lat="43.73742" lon="1.41767">
        <ele>164.341318</ele>
        <time>2023-07-30T15:23:13.000Z</time>
      </trkpt>
      <trkpt lat="43.7374" lon="1.41765">
        <ele>164.432602</ele>
        <time>2023-07-30T15:23:15.000Z</time>
      </trkpt>
      <trkpt lat="43.7374" lon="1.41765">
        <ele>164.432602</ele>
        <time>2023-07-30T15:23:15.000Z</time>
      </trkpt>
      <trkpt lat="43.73737" lon="1.41763">
        <ele>164.552604</ele>
        <time>2023-07-30T15:23:16.000Z</time>
      </trkpt>
      <trkpt lat="43.73733" lon="1.41761">
        <ele>164.737964</ele>
        <time>2023-07-30T15:23:17.000Z</time>
      </trkpt>
      <trkpt lat="43.7373" lon="1.4176">
        <ele>164.874047</ele>
        <time>2023-07-30T15:23:18.000Z</time>
      </trkpt>
      <trkpt lat="43.73726" lon="1.41759">
        <ele>165.038953</ele>
        <time>2023-07-30T15:23:18.000Z</time>
      </trkpt>
      <trkpt lat="43.7372" lon="1.41757">
        <ele>165.283629</ele>
        <time>2023-07-30T15:23:20.000Z</time>
      </trkpt>
      <trkpt lat="43.7372" lon="1.41757">
        <ele>165.283629</ele>
        <time>2023-07-30T15:23:20.000Z</time>
      </trkpt>
      <trkpt lat="43.73715" lon="1.41755">
        <ele>165.514739</ele>
        <time>2023-07-30T15:23:22.000Z</time>
      </trkpt>
      <trkpt lat="43.73715" lon="1.41755">
        <ele>165.514739</ele>
        <time>2023-07-30T15:23:22.000Z</time>
      </trkpt>
      <trkpt lat="43.7371" lon="1.41754">
        <ele>165.705441</ele>
        <time>2023-07-30T15:23:23.000Z</time>
      </trkpt>
      <trkpt lat="43.7371" lon="1.41754">
        <ele>165.705441</ele>
        <time>2023-07-30T15:23:23.000Z</time>
      </trkpt>
      <trkpt lat="43.73705" lon="1.41752">
        <ele>165.921046</ele>
        <time>2023-07-30T15:23:23.000Z</time>
      </trkpt>
      <trkpt lat="43.73705" lon="1.41752">
        <ele>165.921046</ele>
        <time>2023-07-30T15:23:23.000Z</time>
      </trkpt>
      <trkpt lat="43.73699" lon="1.4175">
        <ele>166.185699</ele>
        <time>2023-07-30T15:23:24.000Z</time>
      </trkpt>
      <trkpt lat="43.73699" lon="1.4175">
        <ele>166.185699</ele>
        <time>2023-07-30T15:23:24.000Z</time>
      </trkpt>
      <trkpt lat="43.73696" lon="1.41748">
        <ele>166.341076</ele>
        <time>2023-07-30T15:23:25.000Z</time>
      </trkpt>
      <trkpt lat="43.73692" lon="1.41744">
        <ele>166.519526</ele>
        <time>2023-07-30T15:23:26.000Z</time>
      </trkpt>
      <trkpt lat="43.7369" lon="1.4174">
        <ele>166.680227</ele>
        <time>2023-07-30T15:23:27.000Z</time>
      </trkpt>
      <trkpt lat="43.73688" lon="1.41733">
        <ele>166.922716</ele>
        <time>2023-07-30T15:23:28.000Z</time>
      </trkpt>
      <trkpt lat="43.73687" lon="1.41724">
        <ele>167.194971</ele>
        <time>2023-07-30T15:23:30.000Z</time>
      </trkpt>
      <trkpt lat="43.73687" lon="1.41709">
        <ele>167.656607</ele>
        <time>2023-07-30T15:23:31.000Z</time>
      </trkpt>
      <trkpt lat="43.73687" lon="1.41709">
        <ele>167.656607</ele>
        <time>2023-07-30T15:23:31.000Z</time>
      </trkpt>
      <trkpt lat="43.73687" lon="1.41705">
        <ele>167.766432</ele>
        <time>2023-07-30T15:23:32.000Z</time>
      </trkpt>
      <trkpt lat="43.73687" lon="1.41705">
        <ele>167.766432</ele>
        <time>2023-07-30T15:23:32.000Z</time>
      </trkpt>
      <trkpt lat="43.7369" lon="1.41692">
        <ele>168.169023</ele>
        <time>2023-07-30T15:23:34.000Z</time>
      </trkpt>
      <trkpt lat="43.7369" lon="1.41692">
        <ele>168.169023</ele>
        <time>2023-07-30T15:23:34.000Z</time>
      </trkpt>
      <trkpt lat="43.73692" lon="1.41684">
        <ele>168.431442</ele>
        <time>2023-07-30T15:23:36.000Z</time>
      </trkpt>
      <trkpt lat="43.73692" lon="1.41684">
        <ele>168.431442</ele>
        <time>2023-07-30T15:23:36.000Z</time>
      </trkpt>
      <trkpt lat="43.73695" lon="1.41677">
        <ele>168.670703</ele>
        <time>2023-07-30T15:23:36.000Z</time>
      </trkpt>
      <trkpt lat="43.73695" lon="1.41677">
        <ele>168.670703</ele>
        <time>2023-07-30T15:23:36.000Z</time>
      </trkpt>
      <trkpt lat="43.737" lon="1.41668">
        <ele>169.01614</ele>
        <time>2023-07-30T15:23:38.000Z</time>
      </trkpt>
      <trkpt lat="43.737" lon="1.41668">
        <ele>169.01614</ele>
        <time>2023-07-30T15:23:38.000Z</time>
      </trkpt>
      <trkpt lat="43.73703" lon="1.41663">
        <ele>169.232642</ele>
        <time>2023-07-30T15:23:38.000Z</time>
      </trkpt>
      <trkpt lat="43.73703" lon="1.41663">
        <ele>169.232642</ele>
        <time>2023-07-30T15:23:38.000Z</time>
      </trkpt>
      <trkpt lat="43.73706" lon="1.41658">
        <ele>169.417263</ele>
        <time>2023-07-30T15:23:39.000Z</time>
      </trkpt>
      <trkpt lat="43.73706" lon="1.41658">
        <ele>169.417263</ele>
        <time>2023-07-30T15:23:39.000Z</time>
      </trkpt>
      <trkpt lat="43.7371" lon="1.41654">
        <ele>169.627242</ele>
        <time>2023-07-30T15:23:41.000Z</time>
      </trkpt>
      <trkpt lat="43.7371" lon="1.41654">
        <ele>169.627242</ele>
        <time>2023-07-30T15:23:41.000Z</time>
      </trkpt>
      <trkpt lat="43.73712" lon="1.41647">
        <ele>169.835872</ele>
        <time>2023-07-30T15:23:42.000Z</time>
      </trkpt>
      <trkpt lat="43.73712" lon="1.41647">
        <ele>169.835872</ele>
        <time>2023-07-30T15:23:42.000Z</time>
      </trkpt>
      <trkpt lat="43.73716" lon="1.41634">
        <ele>170.287384</ele>
        <time>2023-07-30T15:23:43.000Z</time>
      </trkpt>
      <trkpt lat="43.73716" lon="1.41634">
        <ele>170.287384</ele>
        <time>2023-07-30T15:23:43.000Z</time>
      </trkpt>
      <trkpt lat="43.73719" lon="1.41627">
        <ele>170.5302</ele>
        <time>2023-07-30T15:23:44.000Z</time>
      </trkpt>
      <trkpt lat="43.73719" lon="1.41627">
        <ele>170.5302</ele>
        <time>2023-07-30T15:23:44.000Z</time>
      </trkpt>
      <trkpt lat="43.73725" lon="1.41616">
        <ele>170.940812</ele>
        <time>2023-07-30T15:23:46.000Z</time>
      </trkpt>
      <trkpt lat="43.73725" lon="1.41616">
        <ele>170.940812</ele>
        <time>2023-07-30T15:23:46.000Z</time>
      </trkpt>
      <trkpt lat="43.7373" lon="1.41609">
        <ele>171.232815</ele>
        <time>2023-07-30T15:23:48.000Z</time>
      </trkpt>
      <trkpt lat="43.7373" lon="1.41609">
        <ele>171.232815</ele>
        <time>2023-07-30T15:23:48.000Z</time>
      </trkpt>
      <trkpt lat="43.73734" lon="1.41604">
        <ele>171.471446</ele>
        <time>2023-07-30T15:23:49.000Z</time>
      </trkpt>
      <trkpt lat="43.73734" lon="1.41604">
        <ele>171.471446</ele>
        <time>2023-07-30T15:23:49.000Z</time>
      </trkpt>
      <trkpt lat="43.73737" lon="1.41601">
        <ele>171.627611</ele>
        <time>2023-07-30T15:23:51.000Z</time>
      </trkpt>
      <trkpt lat="43.73737" lon="1.41601">
        <ele>171.627611</ele>
        <time>2023-07-30T15:23:51.000Z</time>
      </trkpt>
      <trkpt lat="43.73741" lon="1.41599">
        <ele>171.809902</ele>
        <time>2023-07-30T15:23:51.000Z</time>
      </trkpt>
      <trkpt lat="43.73741" lon="1.41599">
        <ele>171.809902</ele>
        <time>2023-07-30T15:23:51.000Z</time>
      </trkpt>
      <trkpt lat="43.73748" lon="1.41595">
        <ele>172.138606</ele>
        <time>2023-07-30T15:23:53.000Z</time>
      </trkpt>
      <trkpt lat="43.73748" lon="1.41595">
        <ele>172.138606</ele>
        <time>2023-07-30T15:23:53.000Z</time>
      </trkpt>
      <trkpt lat="43.73754" lon="1.41594">
        <ele>172.386814</ele>
        <time>2023-07-30T15:23:55.000Z</time>
      </trkpt>
      <trkpt lat="43.73754" lon="1.41594">
        <ele>172.386814</ele>
        <time>2023-07-30T15:23:55.000Z</time>
      </trkpt>
      <trkpt lat="43.73763" lon="1.41588">
        <ele>172.814497</ele>
        <time>2023-07-30T15:23:56.000Z</time>
      </trkpt>
      <trkpt lat="43.73763" lon="1.41588">
        <ele>172.814497</ele>
        <time>2023-07-30T15:23:56.000Z</time>
      </trkpt>
      <trkpt lat="43.73769" lon="1.41582">
        <ele>173.099058</ele>
        <time>2023-07-30T15:23:58.000Z</time>
      </trkpt>
      <trkpt lat="43.73769" lon="1.41582">
        <ele>173.099058</ele>
        <time>2023-07-30T15:23:58.000Z</time>
      </trkpt>
      <trkpt lat="43.73772" lon="1.4158">
        <ele>173.25375</ele>
        <time>2023-07-30T15:23:58.000Z</time>
      </trkpt>
      <trkpt lat="43.73772" lon="1.4158">
        <ele>173.25375</ele>
        <time>2023-07-30T15:23:58.000Z</time>
      </trkpt>
      <trkpt lat="43.73775" lon="1.41578">
        <ele>173.39864</ele>
        <time>2023-07-30T15:23:59.000Z</time>
      </trkpt>
      <trkpt lat="43.73775" lon="1.41578">
        <ele>173.39864</ele>
        <time>2023-07-30T15:23:59.000Z</time>
      </trkpt>
      <trkpt lat="43.73782" lon="1.41573">
        <ele>173.742235</ele>
        <time>2023-07-30T15:24:02.000Z</time>
      </trkpt>
      <trkpt lat="43.73782" lon="1.41573">
        <ele>173.742235</ele>
        <time>2023-07-30T15:24:02.000Z</time>
      </trkpt>
      <trkpt lat="43.73786" lon="1.41572">
        <ele>173.909285</ele>
        <time>2023-07-30T15:24:03.000Z</time>
      </trkpt>
      <trkpt lat="43.73786" lon="1.41572">
        <ele>173.909285</ele>
        <time>2023-07-30T15:24:03.000Z</time>
      </trkpt>
      <trkpt lat="43.73789" lon="1.4157">
        <ele>174.06067</ele>
        <time>2023-07-30T15:24:04.000Z</time>
      </trkpt>
      <trkpt lat="43.73789" lon="1.4157">
        <ele>174.06067</ele>
        <time>2023-07-30T15:24:04.000Z</time>
      </trkpt>
      <trkpt lat="43.73793" lon="1.41569">
        <ele>174.228487</ele>
        <time>2023-07-30T15:24:05.000Z</time>
      </trkpt>
      <trkpt lat="43.73793" lon="1.41569">
        <ele>174.228487</ele>
        <time>2023-07-30T15:24:05.000Z</time>
      </trkpt>
      <trkpt lat="43.73798" lon="1.41567">
        <ele>174.467048</ele>
        <time>2023-07-30T15:24:06.000Z</time>
      </trkpt>
      <trkpt lat="43.73798" lon="1.41567">
        <ele>174.467048</ele>
        <time>2023-07-30T15:24:06.000Z</time>
      </trkpt>
      <trkpt lat="43.73803" lon="1.41565">
        <ele>174.666951</ele>
        <time>2023-07-30T15:24:07.000Z</time>
      </trkpt>
      <trkpt lat="43.73803" lon="1.41565">
        <ele>174.666951</ele>
        <time>2023-07-30T15:24:07.000Z</time>
      </trkpt>
      <trkpt lat="43.73809" lon="1.41563">
        <ele>174.926199</ele>
        <time>2023-07-30T15:24:09.000Z</time>
      </trkpt>
      <trkpt lat="43.73809" lon="1.41563">
        <ele>174.926199</ele>
        <time>2023-07-30T15:24:09.000Z</time>
      </trkpt>
      <trkpt lat="43.73813" lon="1.4156">
        <ele>175.128865</ele>
        <time>2023-07-30T15:24:09.000Z</time>
      </trkpt>
      <trkpt lat="43.73821" lon="1.41556">
        <ele>175.500214</ele>
        <time>2023-07-30T15:24:11.000Z</time>
      </trkpt>
      <trkpt lat="43.73821" lon="1.41556">
        <ele>175.500214</ele>
        <time>2023-07-30T15:24:11.000Z</time>
      </trkpt>
      <trkpt lat="43.73824" lon="1.41554">
        <ele>175.639755</ele>
        <time>2023-07-30T15:24:11.000Z</time>
      </trkpt>
      <trkpt lat="43.73829" lon="1.41552">
        <ele>175.850659</ele>
        <time>2023-07-30T15:24:13.000Z</time>
      </trkpt>
      <trkpt lat="43.73829" lon="1.41552">
        <ele>175.850659</ele>
        <time>2023-07-30T15:24:13.000Z</time>
      </trkpt>
      <trkpt lat="43.73835" lon="1.41549">
        <ele>176.129056</ele>
        <time>2023-07-30T15:24:13.000Z</time>
      </trkpt>
      <trkpt lat="43.7384" lon="1.41546">
        <ele>176.359242</ele>
        <time>2023-07-30T15:24:15.000Z</time>
      </trkpt>
      <trkpt lat="43.7384" lon="1.41546">
        <ele>176.359242</ele>
        <time>2023-07-30T15:24:15.000Z</time>
      </trkpt>
      <trkpt lat="43.73845" lon="1.41544">
        <ele>176.578151</ele>
        <time>2023-07-30T15:24:16.000Z</time>
      </trkpt>
      <trkpt lat="43.73845" lon="1.41544">
        <ele>176.578151</ele>
        <time>2023-07-30T15:24:16.000Z</time>
      </trkpt>
      <trkpt lat="43.73849" lon="1.41543">
        <ele>176.759081</ele>
        <time>2023-07-30T15:24:16.000Z</time>
      </trkpt>
      <trkpt lat="43.73852" lon="1.41544">
        <ele>176.882128</ele>
        <time>2023-07-30T15:24:18.000Z</time>
      </trkpt>
      <trkpt lat="43.73859" lon="1.41557">
        <ele>177.364586</ele>
        <time>2023-07-30T15:24:19.000Z</time>
      </trkpt>
      <trkpt lat="43.73859" lon="1.41557">
        <ele>177.364586</ele>
        <time>2023-07-30T15:24:19.000Z</time>
      </trkpt>
      <trkpt lat="43.73859" lon="1.4156">
        <ele>177.4603</ele>
        <time>2023-07-30T15:24:21.000Z</time>
      </trkpt>
      <trkpt lat="43.73863" lon="1.4157">
        <ele>177.804341</ele>
        <time>2023-07-30T15:24:22.000Z</time>
      </trkpt>
      <trkpt lat="43.73863" lon="1.4157">
        <ele>177.804341</ele>
        <time>2023-07-30T15:24:22.000Z</time>
      </trkpt>
      <trkpt lat="43.73865" lon="1.41578">
        <ele>178.086111</ele>
        <time>2023-07-30T15:24:23.000Z</time>
      </trkpt>
      <trkpt lat="43.73869" lon="1.41587">
        <ele>178.391696</ele>
        <time>2023-07-30T15:24:24.000Z</time>
      </trkpt>
      <trkpt lat="43.73869" lon="1.41587">
        <ele>178.391696</ele>
        <time>2023-07-30T15:24:24.000Z</time>
      </trkpt>
      <trkpt lat="43.73874" lon="1.41593">
        <ele>178.683398</ele>
        <time>2023-07-30T15:24:25.000Z</time>
      </trkpt>
      <trkpt lat="43.73874" lon="1.41593">
        <ele>178.683398</ele>
        <time>2023-07-30T15:24:25.000Z</time>
      </trkpt>
      <trkpt lat="43.7388" lon="1.41596">
        <ele>178.725595</ele>
        <time>2023-07-30T15:24:26.000Z</time>
      </trkpt>
      <trkpt lat="43.7388" lon="1.41596">
        <ele>178.725595</ele>
        <time>2023-07-30T15:24:26.000Z</time>
      </trkpt>
      <trkpt lat="43.73887" lon="1.41597">
        <ele>178.747332</ele>
        <time>2023-07-30T15:24:26.000Z</time>
      </trkpt>
      <trkpt lat="43.73887" lon="1.41597">
        <ele>178.747332</ele>
        <time>2023-07-30T15:24:26.000Z</time>
      </trkpt>
      <trkpt lat="43.73893" lon="1.41596">
        <ele>178.765216</ele>
        <time>2023-07-30T15:24:28.000Z</time>
      </trkpt>
      <trkpt lat="43.73893" lon="1.41596">
        <ele>178.765216</ele>
        <time>2023-07-30T15:24:28.000Z</time>
      </trkpt>
      <trkpt lat="43.73899" lon="1.41594">
        <ele>178.784623</ele>
        <time>2023-07-30T15:24:29.000Z</time>
      </trkpt>
      <trkpt lat="43.73906" lon="1.41591">
        <ele>178.805835</ele>
        <time>2023-07-30T15:24:30.000Z</time>
      </trkpt>
      <trkpt lat="43.73906" lon="1.41591">
        <ele>178.805835</ele>
        <time>2023-07-30T15:24:30.000Z</time>
      </trkpt>
      <trkpt lat="43.73911" lon="1.41587">
        <ele>178.824212</ele>
        <time>2023-07-30T15:24:31.000Z</time>
      </trkpt>
      <trkpt lat="43.73916" lon="1.41582">
        <ele>178.843709</ele>
        <time>2023-07-30T15:24:32.000Z</time>
      </trkpt>
      <trkpt lat="43.73916" lon="1.41582">
        <ele>178.843709</ele>
        <time>2023-07-30T15:24:32.000Z</time>
      </trkpt>
      <trkpt lat="43.7392" lon="1.41576">
        <ele>178.863524</ele>
        <time>2023-07-30T15:24:32.000Z</time>
      </trkpt>
      <trkpt lat="43.7392" lon="1.41576">
        <ele>178.863524</ele>
        <time>2023-07-30T15:24:32.000Z</time>
      </trkpt>
      <trkpt lat="43.73926" lon="1.41571">
        <ele>178.883154</ele>
        <time>2023-07-30T15:24:34.000Z</time>
      </trkpt>
      <trkpt lat="43.73925" lon="1.41564">
        <ele>179.056125</ele>
        <time>2023-07-30T15:25:01.000Z</time>
      </trkpt>
      <trkpt lat="43.73925" lon="1.41564">
        <ele>179.056125</ele>
        <time>2023-07-30T15:25:01.000Z</time>
      </trkpt>
      <trkpt lat="43.73923" lon="1.41559">
        <ele>179.068234</ele>
        <time>2023-07-30T15:25:03.000Z</time>
      </trkpt>
      <trkpt lat="43.73923" lon="1.41559">
        <ele>179.068234</ele>
        <time>2023-07-30T15:25:03.000Z</time>
      </trkpt>
      <trkpt lat="43.73922" lon="1.41557">
        <ele>179.074974</ele>
        <time>2023-07-30T15:25:04.000Z</time>
      </trkpt>
      <trkpt lat="43.73921" lon="1.41553">
        <ele>179.083184</ele>
        <time>2023-07-30T15:25:05.000Z</time>
      </trkpt>
      <trkpt lat="43.7392" lon="1.41548">
        <ele>179.095733</ele>
        <time>2023-07-30T15:25:06.000Z</time>
      </trkpt>
      <trkpt lat="43.7392" lon="1.41548">
        <ele>179.095733</ele>
        <time>2023-07-30T15:25:06.000Z</time>
      </trkpt>
      <trkpt lat="43.73919" lon="1.41541">
        <ele>179.11067</ele>
        <time>2023-07-30T15:25:08.000Z</time>
      </trkpt>
      <trkpt lat="43.73916" lon="1.41531">
        <ele>179.134997</ele>
        <time>2023-07-30T15:25:09.000Z</time>
      </trkpt>
      <trkpt lat="43.73916" lon="1.41531">
        <ele>179.134997</ele>
        <time>2023-07-30T15:25:09.000Z</time>
      </trkpt>
      <trkpt lat="43.73915" lon="1.41525">
        <ele>179.149059</ele>
        <time>2023-07-30T15:25:10.000Z</time>
      </trkpt>
      <trkpt lat="43.73915" lon="1.41525">
        <ele>179.149059</ele>
        <time>2023-07-30T15:25:10.000Z</time>
      </trkpt>
      <trkpt lat="43.73914" lon="1.41518">
        <ele>179.163991</ele>
        <time>2023-07-30T15:25:11.000Z</time>
      </trkpt>
      <trkpt lat="43.73914" lon="1.41518">
        <ele>179.163991</ele>
        <time>2023-07-30T15:25:11.000Z</time>
      </trkpt>
      <trkpt lat="43.73912" lon="1.41511">
        <ele>179.182083</ele>
        <time>2023-07-30T15:25:12.000Z</time>
      </trkpt>
      <trkpt lat="43.73912" lon="1.41511">
        <ele>179.182083</ele>
        <time>2023-07-30T15:25:12.000Z</time>
      </trkpt>
      <trkpt lat="43.7391" lon="1.41503">
        <ele>179.201131</ele>
        <time>2023-07-30T15:25:13.000Z</time>
      </trkpt>
      <trkpt lat="43.7391" lon="1.41503">
        <ele>179.201131</ele>
        <time>2023-07-30T15:25:13.000Z</time>
      </trkpt>
      <trkpt lat="43.73908" lon="1.41496">
        <ele>179.217592</ele>
        <time>2023-07-30T15:25:14.000Z</time>
      </trkpt>
      <trkpt lat="43.73908" lon="1.41496">
        <ele>179.217592</ele>
        <time>2023-07-30T15:25:14.000Z</time>
      </trkpt>
      <trkpt lat="43.73906" lon="1.41489">
        <ele>179.234386</ele>
        <time>2023-07-30T15:25:15.000Z</time>
      </trkpt>
      <trkpt lat="43.73906" lon="1.41489">
        <ele>179.234386</ele>
        <time>2023-07-30T15:25:15.000Z</time>
      </trkpt>
      <trkpt lat="43.73903" lon="1.41482">
        <ele>179.251994</ele>
        <time>2023-07-30T15:25:16.000Z</time>
      </trkpt>
      <trkpt lat="43.73901" lon="1.41474">
        <ele>179.283884</ele>
        <time>2023-07-30T15:25:17.000Z</time>
      </trkpt>
      <trkpt lat="43.73901" lon="1.41474">
        <ele>179.283884</ele>
        <time>2023-07-30T15:25:17.000Z</time>
      </trkpt>
      <trkpt lat="43.739" lon="1.41467">
        <ele>179.339543</ele>
        <time>2023-07-30T15:25:18.000Z</time>
      </trkpt>
      <trkpt lat="43.739" lon="1.41467">
        <ele>179.339543</ele>
        <time>2023-07-30T15:25:18.000Z</time>
      </trkpt>
      <trkpt lat="43.73898" lon="1.4146">
        <ele>179.391334</ele>
        <time>2023-07-30T15:25:19.000Z</time>
      </trkpt>
      <trkpt lat="43.73898" lon="1.4146">
        <ele>179.391334</ele>
        <time>2023-07-30T15:25:19.000Z</time>
      </trkpt>
      <trkpt lat="43.73896" lon="1.41453">
        <ele>179.44839</ele>
        <time>2023-07-30T15:25:20.000Z</time>
      </trkpt>
      <trkpt lat="43.73895" lon="1.41445">
        <ele>179.503103</ele>
        <time>2023-07-30T15:25:21.000Z</time>
      </trkpt>
      <trkpt lat="43.73895" lon="1.41445">
        <ele>179.503103</ele>
        <time>2023-07-30T15:25:21.000Z</time>
      </trkpt>
      <trkpt lat="43.73894" lon="1.41438">
        <ele>179.553795</ele>
        <time>2023-07-30T15:25:22.000Z</time>
      </trkpt>
      <trkpt lat="43.73894" lon="1.41438">
        <ele>179.553795</ele>
        <time>2023-07-30T15:25:22.000Z</time>
      </trkpt>
      <trkpt lat="43.73893" lon="1.41431">
        <ele>179.608508</ele>
        <time>2023-07-30T15:25:23.000Z</time>
      </trkpt>
      <trkpt lat="43.73892" lon="1.41425">
        <ele>179.649848</ele>
        <time>2023-07-30T15:25:24.000Z</time>
      </trkpt>
      <trkpt lat="43.73892" lon="1.41425">
        <ele>179.649848</ele>
        <time>2023-07-30T15:25:24.000Z</time>
      </trkpt>
      <trkpt lat="43.73891" lon="1.4142">
        <ele>179.695144</ele>
        <time>2023-07-30T15:25:25.000Z</time>
      </trkpt>
      <trkpt lat="43.73891" lon="1.4142">
        <ele>179.695144</ele>
        <time>2023-07-30T15:25:25.000Z</time>
      </trkpt>
      <trkpt lat="43.7389" lon="1.41414">
        <ele>179.736751</ele>
        <time>2023-07-30T15:25:26.000Z</time>
      </trkpt>
      <trkpt lat="43.7389" lon="1.41414">
        <ele>179.736751</ele>
        <time>2023-07-30T15:25:26.000Z</time>
      </trkpt>
      <trkpt lat="43.73888" lon="1.41407">
        <ele>179.786857</ele>
        <time>2023-07-30T15:25:27.000Z</time>
      </trkpt>
      <trkpt lat="43.73888" lon="1.41407">
        <ele>179.786857</ele>
        <time>2023-07-30T15:25:27.000Z</time>
      </trkpt>
      <trkpt lat="43.73887" lon="1.414">
        <ele>179.842517</ele>
        <time>2023-07-30T15:25:28.000Z</time>
      </trkpt>
      <trkpt lat="43.73887" lon="1.414">
        <ele>179.842517</ele>
        <time>2023-07-30T15:25:28.000Z</time>
      </trkpt>
      <trkpt lat="43.73885" lon="1.41393">
        <ele>179.892623</ele>
        <time>2023-07-30T15:25:29.000Z</time>
      </trkpt>
      <trkpt lat="43.73883" lon="1.41387">
        <ele>179.943726</ele>
        <time>2023-07-30T15:25:30.000Z</time>
      </trkpt>
      <trkpt lat="43.73883" lon="1.41387">
        <ele>179.943726</ele>
        <time>2023-07-30T15:25:30.000Z</time>
      </trkpt>
      <trkpt lat="43.73881" lon="1.4138">
        <ele>179.998757</ele>
        <time>2023-07-30T15:25:31.000Z</time>
      </trkpt>
      <trkpt lat="43.73879" lon="1.41373">
        <ele>180.050084</ele>
        <time>2023-07-30T15:25:32.000Z</time>
      </trkpt>
      <trkpt lat="43.73879" lon="1.41373">
        <ele>180.050084</ele>
        <time>2023-07-30T15:25:32.000Z</time>
      </trkpt>
      <trkpt lat="43.73877" lon="1.41367">
        <ele>180.105115</ele>
        <time>2023-07-30T15:25:33.000Z</time>
      </trkpt>
      <trkpt lat="43.73875" lon="1.4136">
        <ele>180.15724</ele>
        <time>2023-07-30T15:25:34.000Z</time>
      </trkpt>
      <trkpt lat="43.73875" lon="1.4136">
        <ele>180.15724</ele>
        <time>2023-07-30T15:25:34.000Z</time>
      </trkpt>
      <trkpt lat="43.73874" lon="1.41353">
        <ele>180.209536</ele>
        <time>2023-07-30T15:25:35.000Z</time>
      </trkpt>
      <trkpt lat="43.73876" lon="1.41345">
        <ele>180.267991</ele>
        <time>2023-07-30T15:25:36.000Z</time>
      </trkpt>
      <trkpt lat="43.73876" lon="1.41345">
        <ele>180.267991</ele>
        <time>2023-07-30T15:25:36.000Z</time>
      </trkpt>
      <trkpt lat="43.73879" lon="1.4134">
        <ele>180.317374</ele>
        <time>2023-07-30T15:25:37.000Z</time>
      </trkpt>
      <trkpt lat="43.73879" lon="1.4134">
        <ele>180.317374</ele>
        <time>2023-07-30T15:25:37.000Z</time>
      </trkpt>
      <trkpt lat="43.73883" lon="1.41336">
        <ele>180.369472</ele>
        <time>2023-07-30T15:25:38.000Z</time>
      </trkpt>
      <trkpt lat="43.73889" lon="1.41333">
        <ele>180.426781</ele>
        <time>2023-07-30T15:25:39.000Z</time>
      </trkpt>
      <trkpt lat="43.73894" lon="1.4133">
        <ele>180.484454</ele>
        <time>2023-07-30T15:25:40.000Z</time>
      </trkpt>
      <trkpt lat="43.739" lon="1.41326">
        <ele>180.545507</ele>
        <time>2023-07-30T15:25:41.000Z</time>
      </trkpt>
      <trkpt lat="43.739" lon="1.41326">
        <ele>180.545507</ele>
        <time>2023-07-30T15:25:41.000Z</time>
      </trkpt>
      <trkpt lat="43.73905" lon="1.41322">
        <ele>180.60783</ele>
        <time>2023-07-30T15:25:42.000Z</time>
      </trkpt>
      <trkpt lat="43.7391" lon="1.41317">
        <ele>180.66966</ele>
        <time>2023-07-30T15:25:43.000Z</time>
      </trkpt>
      <trkpt lat="43.73915" lon="1.41312">
        <ele>180.73068</ele>
        <time>2023-07-30T15:25:44.000Z</time>
      </trkpt>
      <trkpt lat="43.7392" lon="1.41307">
        <ele>180.795802</ele>
        <time>2023-07-30T15:25:45.000Z</time>
      </trkpt>
      <trkpt lat="43.7392" lon="1.41307">
        <ele>180.795802</ele>
        <time>2023-07-30T15:25:45.000Z</time>
      </trkpt>
      <trkpt lat="43.73926" lon="1.41301">
        <ele>180.868774</ele>
        <time>2023-07-30T15:25:46.000Z</time>
      </trkpt>
      <trkpt lat="43.73931" lon="1.41298">
        <ele>180.922777</ele>
        <time>2023-07-30T15:25:47.000Z</time>
      </trkpt>
      <trkpt lat="43.73937" lon="1.41295">
        <ele>180.987426</ele>
        <time>2023-07-30T15:25:48.000Z</time>
      </trkpt>
      <trkpt lat="43.73937" lon="1.41295">
        <ele>180.987426</ele>
        <time>2023-07-30T15:25:48.000Z</time>
      </trkpt>
      <trkpt lat="43.73945" lon="1.41293">
        <ele>181.063355</ele>
        <time>2023-07-30T15:25:49.000Z</time>
      </trkpt>
      <trkpt lat="43.73945" lon="1.41293">
        <ele>181.063355</ele>
        <time>2023-07-30T15:25:49.000Z</time>
      </trkpt>
      <trkpt lat="43.73951" lon="1.41292">
        <ele>180.847354</ele>
        <time>2023-07-30T15:25:50.000Z</time>
      </trkpt>
      <trkpt lat="43.73959" lon="1.41292">
        <ele>180.586248</ele>
        <time>2023-07-30T15:25:51.000Z</time>
      </trkpt>
      <trkpt lat="43.73959" lon="1.41292">
        <ele>180.586248</ele>
        <time>2023-07-30T15:25:51.000Z</time>
      </trkpt>
      <trkpt lat="43.73966" lon="1.41294">
        <ele>180.355406</ele>
        <time>2023-07-30T15:25:52.000Z</time>
      </trkpt>
      <trkpt lat="43.73966" lon="1.41294">
        <ele>180.355406</ele>
        <time>2023-07-30T15:25:52.000Z</time>
      </trkpt>
      <trkpt lat="43.7397" lon="1.41298">
        <ele>180.169538</ele>
        <time>2023-07-30T15:25:53.000Z</time>
      </trkpt>
      <trkpt lat="43.7397" lon="1.41298">
        <ele>180.169538</ele>
        <time>2023-07-30T15:25:53.000Z</time>
      </trkpt>
      <trkpt lat="43.73976" lon="1.41303">
        <ele>179.935311</ele>
        <time>2023-07-30T15:25:54.000Z</time>
      </trkpt>
      <trkpt lat="43.73976" lon="1.41303">
        <ele>179.935311</ele>
        <time>2023-07-30T15:25:54.000Z</time>
      </trkpt>
      <trkpt lat="43.73981" lon="1.4131">
        <ele>179.694152</ele>
        <time>2023-07-30T15:25:55.000Z</time>
      </trkpt>
      <trkpt lat="43.73981" lon="1.4131">
        <ele>179.694152</ele>
        <time>2023-07-30T15:25:55.000Z</time>
      </trkpt>
      <trkpt lat="43.73985" lon="1.41317">
        <ele>179.479641</ele>
        <time>2023-07-30T15:25:56.000Z</time>
      </trkpt>
      <trkpt lat="43.73985" lon="1.41317">
        <ele>179.479641</ele>
        <time>2023-07-30T15:25:56.000Z</time>
      </trkpt>
      <trkpt lat="43.73989" lon="1.41325">
        <ele>179.238906</ele>
        <time>2023-07-30T15:25:57.000Z</time>
      </trkpt>
      <trkpt lat="43.73989" lon="1.41325">
        <ele>179.238906</ele>
        <time>2023-07-30T15:25:57.000Z</time>
      </trkpt>
      <trkpt lat="43.73995" lon="1.41327">
        <ele>176.111059</ele>
        <time>2023-07-30T15:26:30.000Z</time>
      </trkpt>
      <trkpt lat="43.73997" lon="1.41327">
        <ele>176.058113</ele>
        <time>2023-07-30T15:26:31.000Z</time>
      </trkpt>
      <trkpt lat="43.73997" lon="1.41327">
        <ele>176.058113</ele>
        <time>2023-07-30T15:26:31.000Z</time>
      </trkpt>
      <trkpt lat="43.74" lon="1.41328">
        <ele>175.938196</ele>
        <time>2023-07-30T15:26:32.000Z</time>
      </trkpt>
      <trkpt lat="43.74006" lon="1.41329">
        <ele>175.753711</ele>
        <time>2023-07-30T15:26:33.000Z</time>
      </trkpt>
      <trkpt lat="43.74006" lon="1.41329">
        <ele>175.753711</ele>
        <time>2023-07-30T15:26:33.000Z</time>
      </trkpt>
      <trkpt lat="43.74011" lon="1.41331">
        <ele>175.579689</ele>
        <time>2023-07-30T15:26:34.000Z</time>
      </trkpt>
      <trkpt lat="43.74011" lon="1.41331">
        <ele>175.579689</ele>
        <time>2023-07-30T15:26:34.000Z</time>
      </trkpt>
      <trkpt lat="43.74015" lon="1.41333">
        <ele>175.424657</ele>
        <time>2023-07-30T15:26:35.000Z</time>
      </trkpt>
      <trkpt lat="43.74015" lon="1.41333">
        <ele>175.424657</ele>
        <time>2023-07-30T15:26:35.000Z</time>
      </trkpt>
      <trkpt lat="43.74021" lon="1.41337">
        <ele>175.198816</ele>
        <time>2023-07-30T15:26:36.000Z</time>
      </trkpt>
      <trkpt lat="43.74021" lon="1.41337">
        <ele>175.198816</ele>
        <time>2023-07-30T15:26:36.000Z</time>
      </trkpt>
      <trkpt lat="43.74027" lon="1.41341">
        <ele>174.969927</ele>
        <time>2023-07-30T15:26:37.000Z</time>
      </trkpt>
      <trkpt lat="43.74027" lon="1.41341">
        <ele>174.969927</ele>
        <time>2023-07-30T15:26:37.000Z</time>
      </trkpt>
      <trkpt lat="43.74033" lon="1.41345">
        <ele>174.207768</ele>
        <time>2023-07-30T15:26:39.000Z</time>
      </trkpt>
      <trkpt lat="43.74033" lon="1.41345">
        <ele>174.207768</ele>
        <time>2023-07-30T15:26:39.000Z</time>
      </trkpt>
      <trkpt lat="43.74034" lon="1.41346">
        <ele>174.12053</ele>
        <time>2023-07-30T15:26:40.000Z</time>
      </trkpt>
      <trkpt lat="43.74034" lon="1.41346">
        <ele>174.12053</ele>
        <time>2023-07-30T15:26:40.000Z</time>
      </trkpt>
      <trkpt lat="43.74036" lon="1.41348">
        <ele>173.840576</ele>
        <time>2023-07-30T15:26:42.000Z</time>
      </trkpt>
      <trkpt lat="43.74036" lon="1.41348">
        <ele>173.840576</ele>
        <time>2023-07-30T15:26:42.000Z</time>
      </trkpt>
      <trkpt lat="43.74036" lon="1.41347">
        <ele>173.809955</ele>
        <time>2023-07-30T15:26:43.000Z</time>
      </trkpt>
      <trkpt lat="43.74042" lon="1.41348">
        <ele>173.204268</ele>
        <time>2023-07-30T15:26:48.000Z</time>
      </trkpt>
      <trkpt lat="43.74042" lon="1.41348">
        <ele>173.204268</ele>
        <time>2023-07-30T15:26:48.000Z</time>
      </trkpt>
      <trkpt lat="43.74043" lon="1.41348">
        <ele>173.077122</ele>
        <time>2023-07-30T15:26:49.000Z</time>
      </trkpt>
      <trkpt lat="43.74043" lon="1.41348">
        <ele>173.077122</ele>
        <time>2023-07-30T15:26:49.000Z</time>
      </trkpt>
      <trkpt lat="43.74046" lon="1.41349">
        <ele>172.794915</ele>
        <time>2023-07-30T15:26:50.000Z</time>
      </trkpt>
      <trkpt lat="43.74048" lon="1.4135">
        <ele>172.531682</ele>
        <time>2023-07-30T15:26:51.000Z</time>
      </trkpt>
      <trkpt lat="43.74048" lon="1.4135">
        <ele>172.531682</ele>
        <time>2023-07-30T15:26:51.000Z</time>
      </trkpt>
      <trkpt lat="43.7406" lon="1.4136">
        <ele>171.056633</ele>
        <time>2023-07-30T15:26:53.000Z</time>
      </trkpt>
      <trkpt lat="43.7406" lon="1.4136">
        <ele>171.056633</ele>
        <time>2023-07-30T15:26:53.000Z</time>
      </trkpt>
      <trkpt lat="43.74063" lon="1.41364">
        <ele>170.645807</ele>
        <time>2023-07-30T15:26:54.000Z</time>
      </trkpt>
      <trkpt lat="43.74063" lon="1.41364">
        <ele>170.645807</ele>
        <time>2023-07-30T15:26:54.000Z</time>
      </trkpt>
      <trkpt lat="43.74067" lon="1.41368">
        <ele>170.068705</ele>
        <time>2023-07-30T15:26:55.000Z</time>
      </trkpt>
      <trkpt lat="43.74067" lon="1.41368">
        <ele>170.068705</ele>
        <time>2023-07-30T15:26:55.000Z</time>
      </trkpt>
      <trkpt lat="43.74073" lon="1.41375">
        <ele>169.300321</ele>
        <time>2023-07-30T15:26:56.000Z</time>
      </trkpt>
      <trkpt lat="43.74073" lon="1.41375">
        <ele>169.300321</ele>
        <time>2023-07-30T15:26:56.000Z</time>
      </trkpt>
      <trkpt lat="43.74079" lon="1.41383">
        <ele>168.393996</ele>
        <time>2023-07-30T15:26:57.000Z</time>
      </trkpt>
      <trkpt lat="43.74079" lon="1.41383">
        <ele>168.393996</ele>
        <time>2023-07-30T15:26:57.000Z</time>
      </trkpt>
      <trkpt lat="43.74085" lon="1.4139">
        <ele>167.591665</ele>
        <time>2023-07-30T15:26:58.000Z</time>
      </trkpt>
      <trkpt lat="43.74085" lon="1.4139">
        <ele>167.591665</ele>
        <time>2023-07-30T15:26:58.000Z</time>
      </trkpt>
      <trkpt lat="43.74089" lon="1.41393">
        <ele>167.087336</ele>
        <time>2023-07-30T15:26:59.000Z</time>
      </trkpt>
      <trkpt lat="43.74089" lon="1.41393">
        <ele>167.087336</ele>
        <time>2023-07-30T15:26:59.000Z</time>
      </trkpt>
      <trkpt lat="43.74094" lon="1.41395">
        <ele>166.505279</ele>
        <time>2023-07-30T15:27:00.000Z</time>
      </trkpt>
      <trkpt lat="43.74094" lon="1.41395">
        <ele>166.505279</ele>
        <time>2023-07-30T15:27:00.000Z</time>
      </trkpt>
      <trkpt lat="43.741" lon="1.41398">
        <ele>165.837373</ele>
        <time>2023-07-30T15:27:01.000Z</time>
      </trkpt>
      <trkpt lat="43.741" lon="1.41398">
        <ele>165.837373</ele>
        <time>2023-07-30T15:27:01.000Z</time>
      </trkpt>
      <trkpt lat="43.74108" lon="1.41399">
        <ele>165.022854</ele>
        <time>2023-07-30T15:27:02.000Z</time>
      </trkpt>
      <trkpt lat="43.74108" lon="1.41399">
        <ele>165.022854</ele>
        <time>2023-07-30T15:27:02.000Z</time>
      </trkpt>
      <trkpt lat="43.74115" lon="1.414">
        <ele>164.287769</ele>
        <time>2023-07-30T15:27:03.000Z</time>
      </trkpt>
      <trkpt lat="43.74115" lon="1.414">
        <ele>164.287769</ele>
        <time>2023-07-30T15:27:03.000Z</time>
      </trkpt>
      <trkpt lat="43.74122" lon="1.41401">
        <ele>163.549938</ele>
        <time>2023-07-30T15:27:04.000Z</time>
      </trkpt>
      <trkpt lat="43.74122" lon="1.41401">
        <ele>163.549938</ele>
        <time>2023-07-30T15:27:04.000Z</time>
      </trkpt>
      <trkpt lat="43.74128" lon="1.41404">
        <ele>162.810024</ele>
        <time>2023-07-30T15:27:05.000Z</time>
      </trkpt>
      <trkpt lat="43.74128" lon="1.41404">
        <ele>162.810024</ele>
        <time>2023-07-30T15:27:05.000Z</time>
      </trkpt>
      <trkpt lat="43.74135" lon="1.41406">
        <ele>162.090972</ele>
        <time>2023-07-30T15:27:06.000Z</time>
      </trkpt>
      <trkpt lat="43.74135" lon="1.41406">
        <ele>162.090972</ele>
        <time>2023-07-30T15:27:06.000Z</time>
      </trkpt>
      <trkpt lat="43.74141" lon="1.41408">
        <ele>161.426762</ele>
        <time>2023-07-30T15:27:07.000Z</time>
      </trkpt>
      <trkpt lat="43.74141" lon="1.41408">
        <ele>161.426762</ele>
        <time>2023-07-30T15:27:07.000Z</time>
      </trkpt>
      <trkpt lat="43.74146" lon="1.41409">
        <ele>160.852765</ele>
        <time>2023-07-30T15:27:08.000Z</time>
      </trkpt>
      <trkpt lat="43.74146" lon="1.41409">
        <ele>160.852765</ele>
        <time>2023-07-30T15:27:08.000Z</time>
      </trkpt>
      <trkpt lat="43.74151" lon="1.41409">
        <ele>160.33336</ele>
        <time>2023-07-30T15:27:09.000Z</time>
      </trkpt>
      <trkpt lat="43.74151" lon="1.41409">
        <ele>160.33336</ele>
        <time>2023-07-30T15:27:09.000Z</time>
      </trkpt>
      <trkpt lat="43.74157" lon="1.41407">
        <ele>159.741074</ele>
        <time>2023-07-30T15:27:10.000Z</time>
      </trkpt>
      <trkpt lat="43.74157" lon="1.41407">
        <ele>159.741074</ele>
        <time>2023-07-30T15:27:10.000Z</time>
      </trkpt>
      <trkpt lat="43.74162" lon="1.41403">
        <ele>159.11213</ele>
        <time>2023-07-30T15:27:11.000Z</time>
      </trkpt>
      <trkpt lat="43.74162" lon="1.41403">
        <ele>159.11213</ele>
        <time>2023-07-30T15:27:11.000Z</time>
      </trkpt>
      <trkpt lat="43.74167" lon="1.41399">
        <ele>158.514968</ele>
        <time>2023-07-30T15:27:12.000Z</time>
      </trkpt>
      <trkpt lat="43.74167" lon="1.41399">
        <ele>158.514968</ele>
        <time>2023-07-30T15:27:12.000Z</time>
      </trkpt>
      <trkpt lat="43.74173" lon="1.41395">
        <ele>157.737949</ele>
        <time>2023-07-30T15:27:13.000Z</time>
      </trkpt>
      <trkpt lat="43.74173" lon="1.41395">
        <ele>157.737949</ele>
        <time>2023-07-30T15:27:13.000Z</time>
      </trkpt>
      <trkpt lat="43.7418" lon="1.4139">
        <ele>156.980797</ele>
        <time>2023-07-30T15:27:14.000Z</time>
      </trkpt>
      <trkpt lat="43.7418" lon="1.4139">
        <ele>156.980797</ele>
        <time>2023-07-30T15:27:14.000Z</time>
      </trkpt>
      <trkpt lat="43.74187" lon="1.41389">
        <ele>156.236837</ele>
        <time>2023-07-30T15:27:15.000Z</time>
      </trkpt>
      <trkpt lat="43.74187" lon="1.41389">
        <ele>156.236837</ele>
        <time>2023-07-30T15:27:15.000Z</time>
      </trkpt>
      <trkpt lat="43.74194" lon="1.41388">
        <ele>155.769315</ele>
        <time>2023-07-30T15:27:16.000Z</time>
      </trkpt>
      <trkpt lat="43.74194" lon="1.41388">
        <ele>155.769315</ele>
        <time>2023-07-30T15:27:16.000Z</time>
      </trkpt>
      <trkpt lat="43.742" lon="1.4139">
        <ele>155.525665</ele>
        <time>2023-07-30T15:27:17.000Z</time>
      </trkpt>
      <trkpt lat="43.742" lon="1.4139">
        <ele>155.525665</ele>
        <time>2023-07-30T15:27:17.000Z</time>
      </trkpt>
      <trkpt lat="43.74207" lon="1.41394">
        <ele>155.268102</ele>
        <time>2023-07-30T15:27:18.000Z</time>
      </trkpt>
      <trkpt lat="43.74207" lon="1.41394">
        <ele>155.268102</ele>
        <time>2023-07-30T15:27:18.000Z</time>
      </trkpt>
      <trkpt lat="43.74213" lon="1.414">
        <ele>154.969372</ele>
        <time>2023-07-30T15:27:19.000Z</time>
      </trkpt>
      <trkpt lat="43.74213" lon="1.414">
        <ele>154.969372</ele>
        <time>2023-07-30T15:27:19.000Z</time>
      </trkpt>
      <trkpt lat="43.7422" lon="1.41406">
        <ele>154.6771</ele>
        <time>2023-07-30T15:27:19.000Z</time>
      </trkpt>
      <trkpt lat="43.7422" lon="1.41406">
        <ele>154.6771</ele>
        <time>2023-07-30T15:27:19.000Z</time>
      </trkpt>
      <trkpt lat="43.74226" lon="1.41411">
        <ele>154.408956</ele>
        <time>2023-07-30T15:27:21.000Z</time>
      </trkpt>
      <trkpt lat="43.74226" lon="1.41411">
        <ele>154.408956</ele>
        <time>2023-07-30T15:27:21.000Z</time>
      </trkpt>
      <trkpt lat="43.74231" lon="1.41416">
        <ele>154.175669</ele>
        <time>2023-07-30T15:27:21.000Z</time>
      </trkpt>
      <trkpt lat="43.74231" lon="1.41416">
        <ele>154.175669</ele>
        <time>2023-07-30T15:27:21.000Z</time>
      </trkpt>
      <trkpt lat="43.74237" lon="1.41421">
        <ele>153.910392</ele>
        <time>2023-07-30T15:27:23.000Z</time>
      </trkpt>
      <trkpt lat="43.74237" lon="1.41421">
        <ele>153.910392</ele>
        <time>2023-07-30T15:27:23.000Z</time>
      </trkpt>
      <trkpt lat="43.74244" lon="1.41426">
        <ele>153.649273</ele>
        <time>2023-07-30T15:27:24.000Z</time>
      </trkpt>
      <trkpt lat="43.74244" lon="1.41426">
        <ele>153.649273</ele>
        <time>2023-07-30T15:27:24.000Z</time>
      </trkpt>
      <trkpt lat="43.7425" lon="1.41432">
        <ele>153.351933</ele>
        <time>2023-07-30T15:27:25.000Z</time>
      </trkpt>
      <trkpt lat="43.7425" lon="1.41432">
        <ele>153.351933</ele>
        <time>2023-07-30T15:27:25.000Z</time>
      </trkpt>
      <trkpt lat="43.74255" lon="1.41436">
        <ele>153.13651</ele>
        <time>2023-07-30T15:27:26.000Z</time>
      </trkpt>
      <trkpt lat="43.74255" lon="1.41436">
        <ele>153.13651</ele>
        <time>2023-07-30T15:27:26.000Z</time>
      </trkpt>
      <trkpt lat="43.74262" lon="1.41441">
        <ele>152.875391</ele>
        <time>2023-07-30T15:27:27.000Z</time>
      </trkpt>
      <trkpt lat="43.74262" lon="1.41441">
        <ele>152.875391</ele>
        <time>2023-07-30T15:27:27.000Z</time>
      </trkpt>
      <trkpt lat="43.74266" lon="1.41445">
        <ele>152.668514</ele>
        <time>2023-07-30T15:27:28.000Z</time>
      </trkpt>
      <trkpt lat="43.74266" lon="1.41445">
        <ele>152.668514</ele>
        <time>2023-07-30T15:27:28.000Z</time>
      </trkpt>
      <trkpt lat="43.74273" lon="1.4145">
        <ele>152.407394</ele>
        <time>2023-07-30T15:27:29.000Z</time>
      </trkpt>
      <trkpt lat="43.74273" lon="1.4145">
        <ele>152.407394</ele>
        <time>2023-07-30T15:27:29.000Z</time>
      </trkpt>
      <trkpt lat="43.74278" lon="1.41456">
        <ele>152.145395</ele>
        <time>2023-07-30T15:27:30.000Z</time>
      </trkpt>
      <trkpt lat="43.74283" lon="1.41463">
        <ele>151.884114</ele>
        <time>2023-07-30T15:27:31.000Z</time>
      </trkpt>
      <trkpt lat="43.74283" lon="1.41463">
        <ele>151.884114</ele>
        <time>2023-07-30T15:27:31.000Z</time>
      </trkpt>
      <trkpt lat="43.74288" lon="1.4147">
        <ele>151.624342</ele>
        <time>2023-07-30T15:27:32.000Z</time>
      </trkpt>
      <trkpt lat="43.74288" lon="1.4147">
        <ele>151.624342</ele>
        <time>2023-07-30T15:27:32.000Z</time>
      </trkpt>
      <trkpt lat="43.74292" lon="1.41479">
        <ele>151.352508</ele>
        <time>2023-07-30T15:27:33.000Z</time>
      </trkpt>
      <trkpt lat="43.74295" lon="1.41486">
        <ele>151.141354</ele>
        <time>2023-07-30T15:27:34.000Z</time>
      </trkpt>
      <trkpt lat="43.74297" lon="1.41491">
        <ele>150.966452</ele>
        <time>2023-07-30T15:27:35.000Z</time>
      </trkpt>
      <trkpt lat="43.74302" lon="1.41498">
        <ele>150.728103</ele>
        <time>2023-07-30T15:27:36.000Z</time>
      </trkpt>
      <trkpt lat="43.74302" lon="1.41498">
        <ele>150.728103</ele>
        <time>2023-07-30T15:27:36.000Z</time>
      </trkpt>
      <trkpt lat="43.74308" lon="1.41504">
        <ele>150.45094</ele>
        <time>2023-07-30T15:27:37.000Z</time>
      </trkpt>
      <trkpt lat="43.74308" lon="1.41504">
        <ele>150.45094</ele>
        <time>2023-07-30T15:27:37.000Z</time>
      </trkpt>
      <trkpt lat="43.74324" lon="1.41518">
        <ele>149.744023</ele>
        <time>2023-07-30T15:27:39.000Z</time>
      </trkpt>
      <trkpt lat="43.74324" lon="1.41518">
        <ele>149.744023</ele>
        <time>2023-07-30T15:27:39.000Z</time>
      </trkpt>
      <trkpt lat="43.74328" lon="1.41522">
        <ele>149.56614</ele>
        <time>2023-07-30T15:27:40.000Z</time>
      </trkpt>
      <trkpt lat="43.74328" lon="1.41522">
        <ele>149.56614</ele>
        <time>2023-07-30T15:27:40.000Z</time>
      </trkpt>
      <trkpt lat="43.74334" lon="1.41526">
        <ele>149.337994</ele>
        <time>2023-07-30T15:27:41.000Z</time>
      </trkpt>
      <trkpt lat="43.74334" lon="1.41526">
        <ele>149.337994</ele>
        <time>2023-07-30T15:27:41.000Z</time>
      </trkpt>
      <trkpt lat="43.74339" lon="1.41529">
        <ele>149.223319</ele>
        <time>2023-07-30T15:27:42.000Z</time>
      </trkpt>
      <trkpt lat="43.74339" lon="1.41529">
        <ele>149.223319</ele>
        <time>2023-07-30T15:27:42.000Z</time>
      </trkpt>
      <trkpt lat="43.74345" lon="1.41534">
        <ele>149.11519</ele>
        <time>2023-07-30T15:27:43.000Z</time>
      </trkpt>
      <trkpt lat="43.74345" lon="1.41534">
        <ele>149.11519</ele>
        <time>2023-07-30T15:27:43.000Z</time>
      </trkpt>
      <trkpt lat="43.74353" lon="1.41539">
        <ele>148.988498</ele>
        <time>2023-07-30T15:27:44.000Z</time>
      </trkpt>
      <trkpt lat="43.7436" lon="1.41544">
        <ele>148.867725</ele>
        <time>2023-07-30T15:27:45.000Z</time>
      </trkpt>
      <trkpt lat="43.7436" lon="1.41544">
        <ele>148.867725</ele>
        <time>2023-07-30T15:27:45.000Z</time>
      </trkpt>
      <trkpt lat="43.74367" lon="1.41549">
        <ele>148.748299</ele>
        <time>2023-07-30T15:27:46.000Z</time>
      </trkpt>
      <trkpt lat="43.74367" lon="1.41549">
        <ele>148.748299</ele>
        <time>2023-07-30T15:27:46.000Z</time>
      </trkpt>
      <trkpt lat="43.74375" lon="1.41554">
        <ele>148.614868</ele>
        <time>2023-07-30T15:27:47.000Z</time>
      </trkpt>
      <trkpt lat="43.74375" lon="1.41554">
        <ele>148.614868</ele>
        <time>2023-07-30T15:27:47.000Z</time>
      </trkpt>
      <trkpt lat="43.74382" lon="1.41559">
        <ele>148.49497</ele>
        <time>2023-07-30T15:27:48.000Z</time>
      </trkpt>
      <trkpt lat="43.74389" lon="1.41563">
        <ele>148.382327</ele>
        <time>2023-07-30T15:27:49.000Z</time>
      </trkpt>
      <trkpt lat="43.74389" lon="1.41563">
        <ele>148.382327</ele>
        <time>2023-07-30T15:27:49.000Z</time>
      </trkpt>
      <trkpt lat="43.74397" lon="1.41567">
        <ele>148.265566</ele>
        <time>2023-07-30T15:27:50.000Z</time>
      </trkpt>
      <trkpt lat="43.74404" lon="1.41572">
        <ele>148.140728</ele>
        <time>2023-07-30T15:27:51.000Z</time>
      </trkpt>
      <trkpt lat="43.74404" lon="1.41572">
        <ele>148.140728</ele>
        <time>2023-07-30T15:27:51.000Z</time>
      </trkpt>
      <trkpt lat="43.74411" lon="1.41576">
        <ele>148.028085</ele>
        <time>2023-07-30T15:27:52.000Z</time>
      </trkpt>
      <trkpt lat="43.74411" lon="1.41576">
        <ele>148.028085</ele>
        <time>2023-07-30T15:27:52.000Z</time>
      </trkpt>
      <trkpt lat="43.74418" lon="1.4158">
        <ele>147.921339</ele>
        <time>2023-07-30T15:27:53.000Z</time>
      </trkpt>
      <trkpt lat="43.74424" lon="1.41584">
        <ele>147.820002</ele>
        <time>2023-07-30T15:27:54.000Z</time>
      </trkpt>
      <trkpt lat="43.74424" lon="1.41584">
        <ele>147.820002</ele>
        <time>2023-07-30T15:27:54.000Z</time>
      </trkpt>
      <trkpt lat="43.7443" lon="1.41588">
        <ele>147.718666</ele>
        <time>2023-07-30T15:27:55.000Z</time>
      </trkpt>
      <trkpt lat="43.7443" lon="1.41588">
        <ele>147.718666</ele>
        <time>2023-07-30T15:27:55.000Z</time>
      </trkpt>
      <trkpt lat="43.74435" lon="1.41592">
        <ele>147.626335</ele>
        <time>2023-07-30T15:27:56.000Z</time>
      </trkpt>
      <trkpt lat="43.74442" lon="1.41595">
        <ele>147.523942</ele>
        <time>2023-07-30T15:27:57.000Z</time>
      </trkpt>
      <trkpt lat="43.74447" lon="1.41595">
        <ele>147.442891</ele>
        <time>2023-07-30T15:27:58.000Z</time>
      </trkpt>
      <trkpt lat="43.74447" lon="1.41595">
        <ele>147.442891</ele>
        <time>2023-07-30T15:27:58.000Z</time>
      </trkpt>
      <trkpt lat="43.74452" lon="1.41593">
        <ele>147.365217</ele>
        <time>2023-07-30T15:27:59.000Z</time>
      </trkpt>
      <trkpt lat="43.74456" lon="1.41588">
        <ele>147.283824</ele>
        <time>2023-07-30T15:28:00.000Z</time>
      </trkpt>
      <trkpt lat="43.7446" lon="1.41581">
        <ele>147.190538</ele>
        <time>2023-07-30T15:28:01.000Z</time>
      </trkpt>
      <trkpt lat="43.74463" lon="1.41572">
        <ele>147.083751</ele>
        <time>2023-07-30T15:28:02.000Z</time>
      </trkpt>
      <trkpt lat="43.74466" lon="1.41564">
        <ele>146.984475</ele>
        <time>2023-07-30T15:28:03.000Z</time>
      </trkpt>
      <trkpt lat="43.74471" lon="1.41558">
        <ele>146.891926</ele>
        <time>2023-07-30T15:28:04.000Z</time>
      </trkpt>
      <trkpt lat="43.74471" lon="1.41558">
        <ele>146.891926</ele>
        <time>2023-07-30T15:28:04.000Z</time>
      </trkpt>
      <trkpt lat="43.74476" lon="1.41555">
        <ele>146.801174</ele>
        <time>2023-07-30T15:28:05.000Z</time>
      </trkpt>
      <trkpt lat="43.74476" lon="1.41555">
        <ele>146.801174</ele>
        <time>2023-07-30T15:28:05.000Z</time>
      </trkpt>
      <trkpt lat="43.74482" lon="1.41554">
        <ele>146.713191</ele>
        <time>2023-07-30T15:28:06.000Z</time>
      </trkpt>
      <trkpt lat="43.74488" lon="1.41555">
        <ele>146.626276</ele>
        <time>2023-07-30T15:28:07.000Z</time>
      </trkpt>
      <trkpt lat="43.74495" lon="1.41557">
        <ele>146.542612</ele>
        <time>2023-07-30T15:28:08.000Z</time>
      </trkpt>
      <trkpt lat="43.74502" lon="1.4156">
        <ele>146.475206</ele>
        <time>2023-07-30T15:28:09.000Z</time>
      </trkpt>
      <trkpt lat="43.74502" lon="1.4156">
        <ele>146.475206</ele>
        <time>2023-07-30T15:28:09.000Z</time>
      </trkpt>
      <trkpt lat="43.74509" lon="1.41563">
        <ele>146.411411</ele>
        <time>2023-07-30T15:28:10.000Z</time>
      </trkpt>
      <trkpt lat="43.74516" lon="1.41566">
        <ele>146.344319</ele>
        <time>2023-07-30T15:28:11.000Z</time>
      </trkpt>
      <trkpt lat="43.74516" lon="1.41566">
        <ele>146.344319</ele>
        <time>2023-07-30T15:28:11.000Z</time>
      </trkpt>
      <trkpt lat="43.74522" lon="1.41569">
        <ele>146.279908</ele>
        <time>2023-07-30T15:28:12.000Z</time>
      </trkpt>
      <trkpt lat="43.74529" lon="1.41572">
        <ele>146.207503</ele>
        <time>2023-07-30T15:28:13.000Z</time>
      </trkpt>
      <trkpt lat="43.74529" lon="1.41572">
        <ele>146.207503</ele>
        <time>2023-07-30T15:28:13.000Z</time>
      </trkpt>
      <trkpt lat="43.74535" lon="1.41575">
        <ele>146.14618</ele>
        <time>2023-07-30T15:28:14.000Z</time>
      </trkpt>
      <trkpt lat="43.7454" lon="1.41578">
        <ele>146.095535</ele>
        <time>2023-07-30T15:28:15.000Z</time>
      </trkpt>
      <trkpt lat="43.7454" lon="1.41578">
        <ele>146.095535</ele>
        <time>2023-07-30T15:28:15.000Z</time>
      </trkpt>
      <trkpt lat="43.74547" lon="1.41582">
        <ele>146.028938</ele>
        <time>2023-07-30T15:28:16.000Z</time>
      </trkpt>
      <trkpt lat="43.74552" lon="1.41585">
        <ele>145.976022</ele>
        <time>2023-07-30T15:28:17.000Z</time>
      </trkpt>
      <trkpt lat="43.74552" lon="1.41585">
        <ele>145.976022</ele>
        <time>2023-07-30T15:28:17.000Z</time>
      </trkpt>
      <trkpt lat="43.74556" lon="1.41584">
        <ele>145.93633</ele>
        <time>2023-07-30T15:28:18.000Z</time>
      </trkpt>
      <trkpt lat="43.74559" lon="1.41583">
        <ele>145.913568</ele>
        <time>2023-07-30T15:28:19.000Z</time>
      </trkpt>
      <trkpt lat="43.74561" lon="1.4158">
        <ele>145.884321</ele>
        <time>2023-07-30T15:28:20.000Z</time>
      </trkpt>
      <trkpt lat="43.74561" lon="1.4158">
        <ele>145.884321</ele>
        <time>2023-07-30T15:28:20.000Z</time>
      </trkpt>
      <trkpt lat="43.74564" lon="1.41576">
        <ele>145.844942</ele>
        <time>2023-07-30T15:28:21.000Z</time>
      </trkpt>
      <trkpt lat="43.74564" lon="1.41576">
        <ele>145.844942</ele>
        <time>2023-07-30T15:28:21.000Z</time>
      </trkpt>
      <trkpt lat="43.74567" lon="1.41573">
        <ele>145.80667</ele>
        <time>2023-07-30T15:28:22.000Z</time>
      </trkpt>
      <trkpt lat="43.74571" lon="1.41571">
        <ele>145.774519</ele>
        <time>2023-07-30T15:28:23.000Z</time>
      </trkpt>
      <trkpt lat="43.74573" lon="1.4157">
        <ele>145.752517</ele>
        <time>2023-07-30T15:28:24.000Z</time>
      </trkpt>
      <trkpt lat="43.74573" lon="1.4157">
        <ele>145.752517</ele>
        <time>2023-07-30T15:28:24.000Z</time>
      </trkpt>
      <trkpt lat="43.74576" lon="1.4157">
        <ele>145.720439</ele>
        <time>2023-07-30T15:28:25.000Z</time>
      </trkpt>
      <trkpt lat="43.74579" lon="1.41572">
        <ele>145.689138</ele>
        <time>2023-07-30T15:28:26.000Z</time>
      </trkpt>
      <trkpt lat="43.74582" lon="1.41572">
        <ele>145.663756</ele>
        <time>2023-07-30T15:28:27.000Z</time>
      </trkpt>
      <trkpt lat="43.74585" lon="1.41572">
        <ele>145.634417</ele>
        <time>2023-07-30T15:28:28.000Z</time>
      </trkpt>
      <trkpt lat="43.74587" lon="1.4157">
        <ele>145.6085</ele>
        <time>2023-07-30T15:28:30.000Z</time>
      </trkpt>
      <trkpt lat="43.74589" lon="1.41568">
        <ele>145.586438</ele>
        <time>2023-07-30T15:28:31.000Z</time>
      </trkpt>
      <trkpt lat="43.74591" lon="1.41565">
        <ele>145.562765</ele>
        <time>2023-07-30T15:28:32.000Z</time>
      </trkpt>
      <trkpt lat="43.74592" lon="1.41562">
        <ele>145.53571</ele>
        <time>2023-07-30T15:28:33.000Z</time>
      </trkpt>
      <trkpt lat="43.74596" lon="1.41555">
        <ele>145.477862</ele>
        <time>2023-07-30T15:28:35.000Z</time>
      </trkpt>
      <trkpt lat="43.74596" lon="1.41555">
        <ele>145.477862</ele>
        <time>2023-07-30T15:28:35.000Z</time>
      </trkpt>
      <trkpt lat="43.74598" lon="1.41552">
        <ele>145.446722</ele>
        <time>2023-07-30T15:28:36.000Z</time>
      </trkpt>
      <trkpt lat="43.746" lon="1.41548">
        <ele>145.418064</ele>
        <time>2023-07-30T15:28:37.000Z</time>
      </trkpt>
      <trkpt lat="43.74603" lon="1.41544">
        <ele>145.375837</ele>
        <time>2023-07-30T15:28:38.000Z</time>
      </trkpt>
      <trkpt lat="43.74607" lon="1.41539">
        <ele>145.327701</ele>
        <time>2023-07-30T15:28:39.000Z</time>
      </trkpt>
      <trkpt lat="43.7461" lon="1.41534">
        <ele>145.283977</ele>
        <time>2023-07-30T15:28:40.000Z</time>
      </trkpt>
      <trkpt lat="43.74614" lon="1.41527">
        <ele>145.22613</ele>
        <time>2023-07-30T15:28:41.000Z</time>
      </trkpt>
      <trkpt lat="43.74617" lon="1.4152">
        <ele>145.165025</ele>
        <time>2023-07-30T15:28:42.000Z</time>
      </trkpt>
      <trkpt lat="43.74621" lon="1.41512">
        <ele>145.105469</ele>
        <time>2023-07-30T15:28:43.000Z</time>
      </trkpt>
      <trkpt lat="43.74621" lon="1.41512">
        <ele>145.105469</ele>
        <time>2023-07-30T15:28:43.000Z</time>
      </trkpt>
      <trkpt lat="43.74624" lon="1.41506">
        <ele>145.056305</ele>
        <time>2023-07-30T15:28:44.000Z</time>
      </trkpt>
      <trkpt lat="43.7463" lon="1.41493">
        <ele>144.947819</ele>
        <time>2023-07-30T15:28:46.000Z</time>
      </trkpt>
      <trkpt lat="43.7463" lon="1.41493">
        <ele>144.947819</ele>
        <time>2023-07-30T15:28:46.000Z</time>
      </trkpt>
      <trkpt lat="43.74633" lon="1.41489">
        <ele>144.913249</ele>
        <time>2023-07-30T15:28:47.000Z</time>
      </trkpt>
      <trkpt lat="43.74636" lon="1.41484">
        <ele>144.837559</ele>
        <time>2023-07-30T15:28:48.000Z</time>
      </trkpt>
      <trkpt lat="43.7464" lon="1.41479">
        <ele>144.750536</ele>
        <time>2023-07-30T15:28:49.000Z</time>
      </trkpt>
      <trkpt lat="43.7464" lon="1.41479">
        <ele>144.750536</ele>
        <time>2023-07-30T15:28:49.000Z</time>
      </trkpt>
      <trkpt lat="43.74643" lon="1.41473">
        <ele>144.661103</ele>
        <time>2023-07-30T15:28:50.000Z</time>
      </trkpt>
      <trkpt lat="43.74647" lon="1.41467">
        <ele>144.577451</ele>
        <time>2023-07-30T15:28:51.000Z</time>
      </trkpt>
      <trkpt lat="43.74647" lon="1.41467">
        <ele>144.577451</ele>
        <time>2023-07-30T15:28:51.000Z</time>
      </trkpt>
      <trkpt lat="43.74651" lon="1.41462">
        <ele>144.487167</ele>
        <time>2023-07-30T15:28:52.000Z</time>
      </trkpt>
      <trkpt lat="43.74654" lon="1.41456">
        <ele>144.400245</ele>
        <time>2023-07-30T15:28:53.000Z</time>
      </trkpt>
      <trkpt lat="43.74658" lon="1.4145">
        <ele>144.309961</ele>
        <time>2023-07-30T15:28:54.000Z</time>
      </trkpt>
      <trkpt lat="43.74658" lon="1.4145">
        <ele>144.309961</ele>
        <time>2023-07-30T15:28:54.000Z</time>
      </trkpt>
      <trkpt lat="43.74662" lon="1.41445">
        <ele>144.21608</ele>
        <time>2023-07-30T15:28:55.000Z</time>
      </trkpt>
      <trkpt lat="43.74667" lon="1.41438">
        <ele>144.115527</ele>
        <time>2023-07-30T15:28:56.000Z</time>
      </trkpt>
      <trkpt lat="43.74671" lon="1.41432">
        <ele>144.01668</ele>
        <time>2023-07-30T15:28:57.000Z</time>
      </trkpt>
      <trkpt lat="43.74671" lon="1.41432">
        <ele>144.01668</ele>
        <time>2023-07-30T15:28:57.000Z</time>
      </trkpt>
      <trkpt lat="43.74675" lon="1.41426">
        <ele>143.918677</ele>
        <time>2023-07-30T15:28:58.000Z</time>
      </trkpt>
      <trkpt lat="43.74679" lon="1.41419">
        <ele>143.821363</ele>
        <time>2023-07-30T15:28:59.000Z</time>
      </trkpt>
      <trkpt lat="43.74679" lon="1.41419">
        <ele>143.821363</ele>
        <time>2023-07-30T15:28:59.000Z</time>
      </trkpt>
      <trkpt lat="43.74683" lon="1.41412">
        <ele>143.718205</ele>
        <time>2023-07-30T15:29:00.000Z</time>
      </trkpt>
      <trkpt lat="43.74687" lon="1.41406">
        <ele>143.620203</ele>
        <time>2023-07-30T15:29:01.000Z</time>
      </trkpt>
      <trkpt lat="43.74687" lon="1.41406">
        <ele>143.620203</ele>
        <time>2023-07-30T15:29:01.000Z</time>
      </trkpt>
      <trkpt lat="43.74692" lon="1.414">
        <ele>143.517727</ele>
        <time>2023-07-30T15:29:02.000Z</time>
      </trkpt>
      <trkpt lat="43.74696" lon="1.41394">
        <ele>143.416389</ele>
        <time>2023-07-30T15:29:03.000Z</time>
      </trkpt>
      <trkpt lat="43.74701" lon="1.41388">
        <ele>143.314714</ele>
        <time>2023-07-30T15:29:04.000Z</time>
      </trkpt>
      <trkpt lat="43.74701" lon="1.41388">
        <ele>143.314714</ele>
        <time>2023-07-30T15:29:04.000Z</time>
      </trkpt>
      <trkpt lat="43.74706" lon="1.41382">
        <ele>143.21304</ele>
        <time>2023-07-30T15:29:05.000Z</time>
      </trkpt>
      <trkpt lat="43.74706" lon="1.41382">
        <ele>143.21304</ele>
        <time>2023-07-30T15:29:05.000Z</time>
      </trkpt>
      <trkpt lat="43.7471" lon="1.41376">
        <ele>143.113727</ele>
        <time>2023-07-30T15:29:06.000Z</time>
      </trkpt>
      <trkpt lat="43.7471" lon="1.41376">
        <ele>143.113727</ele>
        <time>2023-07-30T15:29:06.000Z</time>
      </trkpt>
      <trkpt lat="43.74715" lon="1.41369">
        <ele>143.006199</ele>
        <time>2023-07-30T15:29:07.000Z</time>
      </trkpt>
      <trkpt lat="43.74715" lon="1.41369">
        <ele>143.006199</ele>
        <time>2023-07-30T15:29:07.000Z</time>
      </trkpt>
      <trkpt lat="43.7472" lon="1.41364">
        <ele>142.902077</ele>
        <time>2023-07-30T15:29:08.000Z</time>
      </trkpt>
      <trkpt lat="43.7472" lon="1.41364">
        <ele>142.902077</ele>
        <time>2023-07-30T15:29:08.000Z</time>
      </trkpt>
      <trkpt lat="43.74725" lon="1.41358">
        <ele>142.807285</ele>
        <time>2023-07-30T15:29:09.000Z</time>
      </trkpt>
      <trkpt lat="43.7473" lon="1.41353">
        <ele>142.704382</ele>
        <time>2023-07-30T15:29:10.000Z</time>
      </trkpt>
      <trkpt lat="43.7473" lon="1.41353">
        <ele>142.704382</ele>
        <time>2023-07-30T15:29:10.000Z</time>
      </trkpt>
      <trkpt lat="43.74735" lon="1.41347">
        <ele>142.60026</ele>
        <time>2023-07-30T15:29:11.000Z</time>
      </trkpt>
      <trkpt lat="43.74739" lon="1.41341">
        <ele>142.500167</ele>
        <time>2023-07-30T15:29:12.000Z</time>
      </trkpt>
      <trkpt lat="43.74739" lon="1.41341">
        <ele>142.500167</ele>
        <time>2023-07-30T15:29:12.000Z</time>
      </trkpt>
      <trkpt lat="43.74744" lon="1.41335">
        <ele>142.395751</ele>
        <time>2023-07-30T15:29:13.000Z</time>
      </trkpt>
      <trkpt lat="43.74749" lon="1.41329">
        <ele>142.292468</ele>
        <time>2023-07-30T15:29:14.000Z</time>
      </trkpt>
      <trkpt lat="43.74749" lon="1.41329">
        <ele>142.292468</ele>
        <time>2023-07-30T15:29:14.000Z</time>
      </trkpt>
      <trkpt lat="43.74753" lon="1.41322">
        <ele>142.189185</ele>
        <time>2023-07-30T15:29:15.000Z</time>
      </trkpt>
      <trkpt lat="43.74753" lon="1.41322">
        <ele>142.189185</ele>
        <time>2023-07-30T15:29:15.000Z</time>
      </trkpt>
      <trkpt lat="43.74757" lon="1.41316">
        <ele>142.092021</ele>
        <time>2023-07-30T15:29:16.000Z</time>
      </trkpt>
      <trkpt lat="43.74762" lon="1.41309">
        <ele>142.003332</ele>
        <time>2023-07-30T15:29:17.000Z</time>
      </trkpt>
      <trkpt lat="43.74762" lon="1.41309">
        <ele>142.003332</ele>
        <time>2023-07-30T15:29:17.000Z</time>
      </trkpt>
      <trkpt lat="43.74766" lon="1.41303">
        <ele>141.952958</ele>
        <time>2023-07-30T15:29:18.000Z</time>
      </trkpt>
      <trkpt lat="43.74766" lon="1.41303">
        <ele>141.952958</ele>
        <time>2023-07-30T15:29:18.000Z</time>
      </trkpt>
      <trkpt lat="43.7477" lon="1.41297">
        <ele>141.897441</ele>
        <time>2023-07-30T15:29:19.000Z</time>
      </trkpt>
      <trkpt lat="43.7477" lon="1.41297">
        <ele>141.897441</ele>
        <time>2023-07-30T15:29:19.000Z</time>
      </trkpt>
      <trkpt lat="43.74775" lon="1.4129">
        <ele>141.839993</ele>
        <time>2023-07-30T15:29:20.000Z</time>
      </trkpt>
      <trkpt lat="43.74779" lon="1.41284">
        <ele>141.783998</ele>
        <time>2023-07-30T15:29:21.000Z</time>
      </trkpt>
      <trkpt lat="43.74783" lon="1.41278">
        <ele>141.730513</ele>
        <time>2023-07-30T15:29:22.000Z</time>
      </trkpt>
      <trkpt lat="43.74787" lon="1.41272">
        <ele>141.674518</ele>
        <time>2023-07-30T15:29:23.000Z</time>
      </trkpt>
      <trkpt lat="43.74789" lon="1.41269">
        <ele>141.654753</ele>
        <time>2023-07-30T15:29:24.000Z</time>
      </trkpt>
      <trkpt lat="43.74797" lon="1.41259">
        <ele>141.555478</ele>
        <time>2023-07-30T15:29:25.000Z</time>
      </trkpt>
      <trkpt lat="43.74801" lon="1.41253">
        <ele>141.502295</ele>
        <time>2023-07-30T15:29:26.000Z</time>
      </trkpt>
      <trkpt lat="43.74805" lon="1.41247">
        <ele>141.445379</ele>
        <time>2023-07-30T15:29:27.000Z</time>
      </trkpt>
      <trkpt lat="43.7481" lon="1.4124">
        <ele>141.384331</ele>
        <time>2023-07-30T15:29:28.000Z</time>
      </trkpt>
      <trkpt lat="43.7481" lon="1.4124">
        <ele>141.384331</ele>
        <time>2023-07-30T15:29:28.000Z</time>
      </trkpt>
      <trkpt lat="43.74812" lon="1.41237">
        <ele>141.357507</ele>
        <time>2023-07-30T15:29:29.000Z</time>
      </trkpt>
      <trkpt lat="43.74818" lon="1.41227">
        <ele>141.270752</ele>
        <time>2023-07-30T15:29:30.000Z</time>
      </trkpt>
      <trkpt lat="43.74818" lon="1.41227">
        <ele>141.270752</ele>
        <time>2023-07-30T15:29:30.000Z</time>
      </trkpt>
      <trkpt lat="43.74822" lon="1.41221">
        <ele>141.219284</ele>
        <time>2023-07-30T15:29:31.000Z</time>
      </trkpt>
      <trkpt lat="43.74826" lon="1.41213">
        <ele>141.157138</ele>
        <time>2023-07-30T15:29:32.000Z</time>
      </trkpt>
      <trkpt lat="43.74826" lon="1.41213">
        <ele>141.157138</ele>
        <time>2023-07-30T15:29:32.000Z</time>
      </trkpt>
      <trkpt lat="43.74831" lon="1.41207">
        <ele>141.098211</ele>
        <time>2023-07-30T15:29:33.000Z</time>
      </trkpt>
      <trkpt lat="43.74831" lon="1.41207">
        <ele>141.098211</ele>
        <time>2023-07-30T15:29:33.000Z</time>
      </trkpt>
      <trkpt lat="43.74835" lon="1.41201">
        <ele>141.048925</ele>
        <time>2023-07-30T15:29:34.000Z</time>
      </trkpt>
      <trkpt lat="43.7484" lon="1.41194">
        <ele>140.980351</ele>
        <time>2023-07-30T15:29:35.000Z</time>
      </trkpt>
      <trkpt lat="43.74844" lon="1.41188">
        <ele>140.927169</ele>
        <time>2023-07-30T15:29:36.000Z</time>
      </trkpt>
      <trkpt lat="43.74844" lon="1.41188">
        <ele>140.927169</ele>
        <time>2023-07-30T15:29:36.000Z</time>
      </trkpt>
      <trkpt lat="43.74849" lon="1.41181">
        <ele>140.868397</ele>
        <time>2023-07-30T15:29:37.000Z</time>
      </trkpt>
      <trkpt lat="43.74854" lon="1.41175">
        <ele>140.809006</ele>
        <time>2023-07-30T15:29:38.000Z</time>
      </trkpt>
      <trkpt lat="43.74854" lon="1.41175">
        <ele>140.809006</ele>
        <time>2023-07-30T15:29:38.000Z</time>
      </trkpt>
      <trkpt lat="43.74858" lon="1.41168">
        <ele>140.749147</ele>
        <time>2023-07-30T15:29:39.000Z</time>
      </trkpt>
      <trkpt lat="43.74862" lon="1.41161">
        <ele>140.692443</ele>
        <time>2023-07-30T15:29:40.000Z</time>
      </trkpt>
      <trkpt lat="43.74866" lon="1.41155">
        <ele>140.639293</ele>
        <time>2023-07-30T15:29:41.000Z</time>
      </trkpt>
      <trkpt lat="43.74866" lon="1.41155">
        <ele>140.639293</ele>
        <time>2023-07-30T15:29:41.000Z</time>
      </trkpt>
      <trkpt lat="43.7487" lon="1.41148">
        <ele>140.578964</ele>
        <time>2023-07-30T15:29:42.000Z</time>
      </trkpt>
      <trkpt lat="43.74875" lon="1.41141">
        <ele>140.519033</ele>
        <time>2023-07-30T15:29:43.000Z</time>
      </trkpt>
      <trkpt lat="43.74878" lon="1.41134">
        <ele>140.46181</ele>
        <time>2023-07-30T15:29:44.000Z</time>
      </trkpt>
      <trkpt lat="43.74881" lon="1.41126">
        <ele>140.429512</ele>
        <time>2023-07-30T15:29:45.000Z</time>
      </trkpt>
      <trkpt lat="43.74882" lon="1.41118">
        <ele>140.452199</ele>
        <time>2023-07-30T15:29:46.000Z</time>
      </trkpt>
      <trkpt lat="43.74883" lon="1.41109">
        <ele>140.476401</ele>
        <time>2023-07-30T15:29:47.000Z</time>
      </trkpt>
      <trkpt lat="43.74882" lon="1.41101">
        <ele>140.498841</ele>
        <time>2023-07-30T15:29:48.000Z</time>
      </trkpt>
      <trkpt lat="43.74881" lon="1.41093">
        <ele>140.522815</ele>
        <time>2023-07-30T15:29:49.000Z</time>
      </trkpt>
      <trkpt lat="43.74881" lon="1.41093">
        <ele>140.522815</ele>
        <time>2023-07-30T15:29:49.000Z</time>
      </trkpt>
      <trkpt lat="43.74879" lon="1.41084">
        <ele>140.548552</ele>
        <time>2023-07-30T15:29:50.000Z</time>
      </trkpt>
      <trkpt lat="43.74879" lon="1.41084">
        <ele>140.548552</ele>
        <time>2023-07-30T15:29:50.000Z</time>
      </trkpt>
      <trkpt lat="43.74878" lon="1.41076">
        <ele>140.568834</ele>
        <time>2023-07-30T15:29:51.000Z</time>
      </trkpt>
      <trkpt lat="43.74876" lon="1.41068">
        <ele>140.593257</ele>
        <time>2023-07-30T15:29:52.000Z</time>
      </trkpt>
      <trkpt lat="43.74874" lon="1.4106">
        <ele>140.617008</ele>
        <time>2023-07-30T15:29:53.000Z</time>
      </trkpt>
      <trkpt lat="43.74872" lon="1.41051">
        <ele>140.641956</ele>
        <time>2023-07-30T15:29:54.000Z</time>
      </trkpt>
      <trkpt lat="43.74872" lon="1.41051">
        <ele>140.641956</ele>
        <time>2023-07-30T15:29:54.000Z</time>
      </trkpt>
      <trkpt lat="43.74871" lon="1.41043">
        <ele>140.665174</ele>
        <time>2023-07-30T15:29:55.000Z</time>
      </trkpt>
      <trkpt lat="43.7487" lon="1.41034">
        <ele>140.688139</ele>
        <time>2023-07-30T15:29:56.000Z</time>
      </trkpt>
      <trkpt lat="43.7487" lon="1.41034">
        <ele>140.688139</ele>
        <time>2023-07-30T15:29:56.000Z</time>
      </trkpt>
      <trkpt lat="43.7487" lon="1.4103">
        <ele>140.700217</ele>
        <time>2023-07-30T15:29:57.000Z</time>
      </trkpt>
      <trkpt lat="43.74869" lon="1.41017">
        <ele>140.736273</ele>
        <time>2023-07-30T15:29:58.000Z</time>
      </trkpt>
      <trkpt lat="43.74867" lon="1.41009">
        <ele>140.759323</ele>
        <time>2023-07-30T15:29:59.000Z</time>
      </trkpt>
      <trkpt lat="43.74867" lon="1.41009">
        <ele>140.759323</ele>
        <time>2023-07-30T15:29:59.000Z</time>
      </trkpt>
      <trkpt lat="43.74867" lon="1.41006">
        <ele>140.76655</ele>
        <time>2023-07-30T15:30:00.000Z</time>
      </trkpt>
      <trkpt lat="43.74865" lon="1.40993">
        <ele>140.803495</ele>
        <time>2023-07-30T15:30:01.000Z</time>
      </trkpt>
      <trkpt lat="43.74863" lon="1.40985">
        <ele>140.825223</ele>
        <time>2023-07-30T15:30:02.000Z</time>
      </trkpt>
      <trkpt lat="43.74863" lon="1.40985">
        <ele>140.825223</ele>
        <time>2023-07-30T15:30:02.000Z</time>
      </trkpt>
      <trkpt lat="43.74862" lon="1.40978">
        <ele>140.847114</ele>
        <time>2023-07-30T15:30:03.000Z</time>
      </trkpt>
      <trkpt lat="43.7486" lon="1.4097">
        <ele>140.869535</ele>
        <time>2023-07-30T15:30:04.000Z</time>
      </trkpt>
      <trkpt lat="43.7486" lon="1.4097">
        <ele>140.869535</ele>
        <time>2023-07-30T15:30:04.000Z</time>
      </trkpt>
      <trkpt lat="43.74859" lon="1.40964">
        <ele>140.887419</ele>
        <time>2023-07-30T15:30:04.000Z</time>
      </trkpt>
      <trkpt lat="43.74858" lon="1.40956">
        <ele>140.909233</ele>
        <time>2023-07-30T15:30:06.000Z</time>
      </trkpt>
      <trkpt lat="43.74857" lon="1.40949">
        <ele>140.929802</ele>
        <time>2023-07-30T15:30:07.000Z</time>
      </trkpt>
      <trkpt lat="43.74855" lon="1.40943">
        <ele>140.944525</ele>
        <time>2023-07-30T15:30:08.000Z</time>
      </trkpt>
      <trkpt lat="43.74854" lon="1.40934">
        <ele>140.971318</ele>
        <time>2023-07-30T15:30:09.000Z</time>
      </trkpt>
      <trkpt lat="43.74854" lon="1.40934">
        <ele>140.971318</ele>
        <time>2023-07-30T15:30:09.000Z</time>
      </trkpt>
      <trkpt lat="43.74853" lon="1.40931">
        <ele>140.979422</ele>
        <time>2023-07-30T15:30:10.000Z</time>
      </trkpt>
      <trkpt lat="43.74853" lon="1.40931">
        <ele>140.979422</ele>
        <time>2023-07-30T15:30:10.000Z</time>
      </trkpt>
      <trkpt lat="43.74851" lon="1.4092">
        <ele>141.012498</ele>
        <time>2023-07-30T15:30:11.000Z</time>
      </trkpt>
      <trkpt lat="43.74849" lon="1.40913">
        <ele>141.032913</ele>
        <time>2023-07-30T15:30:12.000Z</time>
      </trkpt>
      <trkpt lat="43.74847" lon="1.40906">
        <ele>141.051643</ele>
        <time>2023-07-30T15:30:13.000Z</time>
      </trkpt>
      <trkpt lat="43.74846" lon="1.40899">
        <ele>141.071684</ele>
        <time>2023-07-30T15:30:14.000Z</time>
      </trkpt>
      <trkpt lat="43.74846" lon="1.40899">
        <ele>141.071684</ele>
        <time>2023-07-30T15:30:14.000Z</time>
      </trkpt>
      <trkpt lat="43.74844" lon="1.40892">
        <ele>141.092781</ele>
        <time>2023-07-30T15:30:15.000Z</time>
      </trkpt>
      <trkpt lat="43.74844" lon="1.40887">
        <ele>141.104704</ele>
        <time>2023-07-30T15:30:16.000Z</time>
      </trkpt>
      <trkpt lat="43.74841" lon="1.40878">
        <ele>141.050456</ele>
        <time>2023-07-30T15:30:17.000Z</time>
      </trkpt>
      <trkpt lat="43.7484" lon="1.40872">
        <ele>141.015469</ele>
        <time>2023-07-30T15:30:18.000Z</time>
      </trkpt>
      <trkpt lat="43.7484" lon="1.40872">
        <ele>141.015469</ele>
        <time>2023-07-30T15:30:18.000Z</time>
      </trkpt>
      <trkpt lat="43.74839" lon="1.40866">
        <ele>140.978573</ele>
        <time>2023-07-30T15:30:19.000Z</time>
      </trkpt>
      <trkpt lat="43.74839" lon="1.40866">
        <ele>140.978573</ele>
        <time>2023-07-30T15:30:19.000Z</time>
      </trkpt>
      <trkpt lat="43.74839" lon="1.40862">
        <ele>140.951965</ele>
        <time>2023-07-30T15:30:20.000Z</time>
      </trkpt>
      <trkpt lat="43.74839" lon="1.40862">
        <ele>140.951965</ele>
        <time>2023-07-30T15:30:20.000Z</time>
      </trkpt>
      <trkpt lat="43.7484" lon="1.40859">
        <ele>140.930915</ele>
        <time>2023-07-30T15:30:21.000Z</time>
      </trkpt>
      <trkpt lat="43.74843" lon="1.40856">
        <ele>140.904054</ele>
        <time>2023-07-30T15:30:22.000Z</time>
      </trkpt>
      <trkpt lat="43.74845" lon="1.40855">
        <ele>140.880235</ele>
        <time>2023-07-30T15:30:23.000Z</time>
      </trkpt>
      <trkpt lat="43.74848" lon="1.40853">
        <ele>140.85588</ele>
        <time>2023-07-30T15:30:24.000Z</time>
      </trkpt>
      <trkpt lat="43.74848" lon="1.40853">
        <ele>140.85588</ele>
        <time>2023-07-30T15:30:24.000Z</time>
      </trkpt>
      <trkpt lat="43.74852" lon="1.40851">
        <ele>140.815517</ele>
        <time>2023-07-30T15:30:25.000Z</time>
      </trkpt>
      <trkpt lat="43.74855" lon="1.4085">
        <ele>140.792376</ele>
        <time>2023-07-30T15:30:26.000Z</time>
      </trkpt>
      <trkpt lat="43.74855" lon="1.4085">
        <ele>140.792376</ele>
        <time>2023-07-30T15:30:26.000Z</time>
      </trkpt>
      <trkpt lat="43.74866" lon="1.40846">
        <ele>140.696938</ele>
        <time>2023-07-30T15:30:28.000Z</time>
      </trkpt>
      <trkpt lat="43.74866" lon="1.40846">
        <ele>140.696938</ele>
        <time>2023-07-30T15:30:28.000Z</time>
      </trkpt>
      <trkpt lat="43.7487" lon="1.40846">
        <ele>140.668163</ele>
        <time>2023-07-30T15:30:29.000Z</time>
      </trkpt>
      <trkpt lat="43.7487" lon="1.40846">
        <ele>140.668163</ele>
        <time>2023-07-30T15:30:29.000Z</time>
      </trkpt>
      <trkpt lat="43.74874" lon="1.40844">
        <ele>140.62886</ele>
        <time>2023-07-30T15:30:30.000Z</time>
      </trkpt>
      <trkpt lat="43.74879" lon="1.40843">
        <ele>140.589433</ele>
        <time>2023-07-30T15:30:31.000Z</time>
      </trkpt>
      <trkpt lat="43.74879" lon="1.40843">
        <ele>140.589433</ele>
        <time>2023-07-30T15:30:31.000Z</time>
      </trkpt>
      <trkpt lat="43.74886" lon="1.40841">
        <ele>140.530158</ele>
        <time>2023-07-30T15:30:32.000Z</time>
      </trkpt>
      <trkpt lat="43.7489" lon="1.40838">
        <ele>140.487808</ele>
        <time>2023-07-30T15:30:33.000Z</time>
      </trkpt>
      <trkpt lat="43.74894" lon="1.40833">
        <ele>140.444522</ele>
        <time>2023-07-30T15:30:34.000Z</time>
      </trkpt>
      <trkpt lat="43.74896" lon="1.40826">
        <ele>140.400566</ele>
        <time>2023-07-30T15:30:35.000Z</time>
      </trkpt>
      <trkpt lat="43.74896" lon="1.40826">
        <ele>140.400566</ele>
        <time>2023-07-30T15:30:35.000Z</time>
      </trkpt>
      <trkpt lat="43.74897" lon="1.4082">
        <ele>140.361719</ele>
        <time>2023-07-30T15:30:36.000Z</time>
      </trkpt>
      <trkpt lat="43.74896" lon="1.40813">
        <ele>140.319859</ele>
        <time>2023-07-30T15:30:37.000Z</time>
      </trkpt>
      <trkpt lat="43.74895" lon="1.40806">
        <ele>140.274172</ele>
        <time>2023-07-30T15:30:38.000Z</time>
      </trkpt>
      <trkpt lat="43.74894" lon="1.40799">
        <ele>140.231176</ele>
        <time>2023-07-30T15:30:39.000Z</time>
      </trkpt>
      <trkpt lat="43.74894" lon="1.40799">
        <ele>140.231176</ele>
        <time>2023-07-30T15:30:39.000Z</time>
      </trkpt>
      <trkpt lat="43.74892" lon="1.40792">
        <ele>140.185622</ele>
        <time>2023-07-30T15:30:40.000Z</time>
      </trkpt>
      <trkpt lat="43.74891" lon="1.40785">
        <ele>140.145839</ele>
        <time>2023-07-30T15:30:41.000Z</time>
      </trkpt>
      <trkpt lat="43.74891" lon="1.40785">
        <ele>140.145839</ele>
        <time>2023-07-30T15:30:41.000Z</time>
      </trkpt>
      <trkpt lat="43.74889" lon="1.40779">
        <ele>140.105726</ele>
        <time>2023-07-30T15:30:42.000Z</time>
      </trkpt>
      <trkpt lat="43.74889" lon="1.40772">
        <ele>140.064063</ele>
        <time>2023-07-30T15:30:43.000Z</time>
      </trkpt>
      <trkpt lat="43.74888" lon="1.40765">
        <ele>140.022513</ele>
        <time>2023-07-30T15:30:44.000Z</time>
      </trkpt>
      <trkpt lat="43.74887" lon="1.40759">
        <ele>139.98085</ele>
        <time>2023-07-30T15:30:45.000Z</time>
      </trkpt>
      <trkpt lat="43.74886" lon="1.40752">
        <ele>139.94283</ele>
        <time>2023-07-30T15:30:46.000Z</time>
      </trkpt>
      <trkpt lat="43.74886" lon="1.40752">
        <ele>139.94283</ele>
        <time>2023-07-30T15:30:46.000Z</time>
      </trkpt>
      <trkpt lat="43.74884" lon="1.40746">
        <ele>139.902446</ele>
        <time>2023-07-30T15:30:47.000Z</time>
      </trkpt>
      <trkpt lat="43.74883" lon="1.40739">
        <ele>139.860307</ele>
        <time>2023-07-30T15:30:48.000Z</time>
      </trkpt>
      <trkpt lat="43.74883" lon="1.40734">
        <ele>139.825233</ele>
        <time>2023-07-30T15:30:49.000Z</time>
      </trkpt>
      <trkpt lat="43.74884" lon="1.40727">
        <ele>139.786687</ele>
        <time>2023-07-30T15:30:50.000Z</time>
      </trkpt>
      <trkpt lat="43.74884" lon="1.40722">
        <ele>139.754536</ele>
        <time>2023-07-30T15:30:51.000Z</time>
      </trkpt>
      <trkpt lat="43.74884" lon="1.40722">
        <ele>139.754536</ele>
        <time>2023-07-30T15:30:51.000Z</time>
      </trkpt>
      <trkpt lat="43.74886" lon="1.40718">
        <ele>139.724054</ele>
        <time>2023-07-30T15:30:52.000Z</time>
      </trkpt>
      <trkpt lat="43.74889" lon="1.40715">
        <ele>139.698011</ele>
        <time>2023-07-30T15:30:53.000Z</time>
      </trkpt>
      <trkpt lat="43.74891" lon="1.40713">
        <ele>139.676978</ele>
        <time>2023-07-30T15:30:54.000Z</time>
      </trkpt>
      <trkpt lat="43.74891" lon="1.40713">
        <ele>139.676978</ele>
        <time>2023-07-30T15:30:54.000Z</time>
      </trkpt>
      <trkpt lat="43.74896" lon="1.40713">
        <ele>139.638299</ele>
        <time>2023-07-30T15:30:55.000Z</time>
      </trkpt>
      <trkpt lat="43.74896" lon="1.40713">
        <ele>139.638299</ele>
        <time>2023-07-30T15:30:55.000Z</time>
      </trkpt>
      <trkpt lat="43.74901" lon="1.40712">
        <ele>139.537105</ele>
        <time>2023-07-30T15:30:56.000Z</time>
      </trkpt>
      <trkpt lat="43.74901" lon="1.40712">
        <ele>139.537105</ele>
        <time>2023-07-30T15:30:56.000Z</time>
      </trkpt>
      <trkpt lat="43.74907" lon="1.40712">
        <ele>139.229661</ele>
        <time>2023-07-30T15:30:57.000Z</time>
      </trkpt>
      <trkpt lat="43.74907" lon="1.40712">
        <ele>139.229661</ele>
        <time>2023-07-30T15:30:57.000Z</time>
      </trkpt>
      <trkpt lat="43.74914" lon="1.40712">
        <ele>138.902067</ele>
        <time>2023-07-30T15:30:58.000Z</time>
      </trkpt>
      <trkpt lat="43.74914" lon="1.40712">
        <ele>138.902067</ele>
        <time>2023-07-30T15:30:58.000Z</time>
      </trkpt>
      <trkpt lat="43.7492" lon="1.40712">
        <ele>138.574372</ele>
        <time>2023-07-30T15:30:59.000Z</time>
      </trkpt>
      <trkpt lat="43.7492" lon="1.40712">
        <ele>138.574372</ele>
        <time>2023-07-30T15:30:59.000Z</time>
      </trkpt>
      <trkpt lat="43.74928" lon="1.40711">
        <ele>138.211133</ele>
        <time>2023-07-30T15:31:00.000Z</time>
      </trkpt>
      <trkpt lat="43.74928" lon="1.40711">
        <ele>138.211133</ele>
        <time>2023-07-30T15:31:00.000Z</time>
      </trkpt>
      <trkpt lat="43.74934" lon="1.40711">
        <ele>137.86299</ele>
        <time>2023-07-30T15:31:01.000Z</time>
      </trkpt>
      <trkpt lat="43.74934" lon="1.40711">
        <ele>137.86299</ele>
        <time>2023-07-30T15:31:01.000Z</time>
      </trkpt>
      <trkpt lat="43.74942" lon="1.4071">
        <ele>137.479775</ele>
        <time>2023-07-30T15:31:02.000Z</time>
      </trkpt>
      <trkpt lat="43.74942" lon="1.4071">
        <ele>137.479775</ele>
        <time>2023-07-30T15:31:02.000Z</time>
      </trkpt>
      <trkpt lat="43.7495" lon="1.4071">
        <ele>137.096405</ele>
        <time>2023-07-30T15:31:03.000Z</time>
      </trkpt>
      <trkpt lat="43.7495" lon="1.4071">
        <ele>137.096405</ele>
        <time>2023-07-30T15:31:03.000Z</time>
      </trkpt>
      <trkpt lat="43.74958" lon="1.4071">
        <ele>136.688128</ele>
        <time>2023-07-30T15:31:04.000Z</time>
      </trkpt>
      <trkpt lat="43.74958" lon="1.4071">
        <ele>136.688128</ele>
        <time>2023-07-30T15:31:04.000Z</time>
      </trkpt>
      <trkpt lat="43.74966" lon="1.40709">
        <ele>136.249387</ele>
        <time>2023-07-30T15:31:05.000Z</time>
      </trkpt>
      <trkpt lat="43.74966" lon="1.40709">
        <ele>136.249387</ele>
        <time>2023-07-30T15:31:05.000Z</time>
      </trkpt>
      <trkpt lat="43.74975" lon="1.40709">
        <ele>135.82589</ele>
        <time>2023-07-30T15:31:06.000Z</time>
      </trkpt>
      <trkpt lat="43.74975" lon="1.40709">
        <ele>135.82589</ele>
        <time>2023-07-30T15:31:06.000Z</time>
      </trkpt>
      <trkpt lat="43.74984" lon="1.40708">
        <ele>135.381757</ele>
        <time>2023-07-30T15:31:07.000Z</time>
      </trkpt>
      <trkpt lat="43.74984" lon="1.40708">
        <ele>135.381757</ele>
        <time>2023-07-30T15:31:07.000Z</time>
      </trkpt>
      <trkpt lat="43.74993" lon="1.40707">
        <ele>134.922531</ele>
        <time>2023-07-30T15:31:08.000Z</time>
      </trkpt>
      <trkpt lat="43.74993" lon="1.40707">
        <ele>134.922531</ele>
        <time>2023-07-30T15:31:08.000Z</time>
      </trkpt>
      <trkpt lat="43.75002" lon="1.40707">
        <ele>134.458461</ele>
        <time>2023-07-30T15:31:09.000Z</time>
      </trkpt>
      <trkpt lat="43.75002" lon="1.40707">
        <ele>134.458461</ele>
        <time>2023-07-30T15:31:09.000Z</time>
      </trkpt>
      <trkpt lat="43.7501" lon="1.40706">
        <ele>134.034213</ele>
        <time>2023-07-30T15:31:10.000Z</time>
      </trkpt>
      <trkpt lat="43.7501" lon="1.40706">
        <ele>134.034213</ele>
        <time>2023-07-30T15:31:10.000Z</time>
      </trkpt>
      <trkpt lat="43.7502" lon="1.40705">
        <ele>133.570143</ele>
        <time>2023-07-30T15:31:11.000Z</time>
      </trkpt>
      <trkpt lat="43.7502" lon="1.40705">
        <ele>133.570143</ele>
        <time>2023-07-30T15:31:11.000Z</time>
      </trkpt>
      <trkpt lat="43.75028" lon="1.40704">
        <ele>133.130814</ele>
        <time>2023-07-30T15:31:12.000Z</time>
      </trkpt>
      <trkpt lat="43.75028" lon="1.40704">
        <ele>133.130814</ele>
        <time>2023-07-30T15:31:12.000Z</time>
      </trkpt>
      <trkpt lat="43.75037" lon="1.40704">
        <ele>132.706566</ele>
        <time>2023-07-30T15:31:13.000Z</time>
      </trkpt>
      <trkpt lat="43.75037" lon="1.40704">
        <ele>132.706566</ele>
        <time>2023-07-30T15:31:13.000Z</time>
      </trkpt>
      <trkpt lat="43.75044" lon="1.40702">
        <ele>132.356166</ele>
        <time>2023-07-30T15:31:14.000Z</time>
      </trkpt>
      <trkpt lat="43.75044" lon="1.40702">
        <ele>132.356166</ele>
        <time>2023-07-30T15:31:14.000Z</time>
      </trkpt>
      <trkpt lat="43.7505" lon="1.40701">
        <ele>132.023516</ele>
        <time>2023-07-30T15:31:15.000Z</time>
      </trkpt>
      <trkpt lat="43.7505" lon="1.40701">
        <ele>132.023516</ele>
        <time>2023-07-30T15:31:15.000Z</time>
      </trkpt>
      <trkpt lat="43.75056" lon="1.407">
        <ele>131.714011</ele>
        <time>2023-07-30T15:31:16.000Z</time>
      </trkpt>
      <trkpt lat="43.75056" lon="1.407">
        <ele>131.714011</ele>
        <time>2023-07-30T15:31:16.000Z</time>
      </trkpt>
      <trkpt lat="43.75061" lon="1.40699">
        <ele>131.446071</ele>
        <time>2023-07-30T15:31:17.000Z</time>
      </trkpt>
      <trkpt lat="43.75061" lon="1.40699">
        <ele>131.446071</ele>
        <time>2023-07-30T15:31:17.000Z</time>
      </trkpt>
      <trkpt lat="43.75065" lon="1.40698">
        <ele>131.270933</ele>
        <time>2023-07-30T15:31:18.000Z</time>
      </trkpt>
      <trkpt lat="43.75065" lon="1.40698">
        <ele>131.270933</ele>
        <time>2023-07-30T15:31:18.000Z</time>
      </trkpt>
      <trkpt lat="43.75068" lon="1.40697">
        <ele>131.12805</ele>
        <time>2023-07-30T15:31:19.000Z</time>
      </trkpt>
      <trkpt lat="43.75068" lon="1.40697">
        <ele>131.12805</ele>
        <time>2023-07-30T15:31:19.000Z</time>
      </trkpt>
      <trkpt lat="43.75068" lon="1.40694">
        <ele>131.015063</ele>
        <time>2023-07-30T15:31:20.000Z</time>
      </trkpt>
      <trkpt lat="43.75068" lon="1.40694">
        <ele>131.015063</ele>
        <time>2023-07-30T15:31:20.000Z</time>
      </trkpt>
      <trkpt lat="43.75068" lon="1.40689">
        <ele>130.822159</ele>
        <time>2023-07-30T15:31:21.000Z</time>
      </trkpt>
      <trkpt lat="43.75068" lon="1.40689">
        <ele>130.822159</ele>
        <time>2023-07-30T15:31:21.000Z</time>
      </trkpt>
      <trkpt lat="43.75067" lon="1.40684">
        <ele>130.626935</ele>
        <time>2023-07-30T15:31:22.000Z</time>
      </trkpt>
      <trkpt lat="43.75067" lon="1.40684">
        <ele>130.626935</ele>
        <time>2023-07-30T15:31:22.000Z</time>
      </trkpt>
      <trkpt lat="43.75064" lon="1.40677">
        <ele>130.531734</ele>
        <time>2023-07-30T15:31:23.000Z</time>
      </trkpt>
      <trkpt lat="43.75064" lon="1.40677">
        <ele>130.531734</ele>
        <time>2023-07-30T15:31:23.000Z</time>
      </trkpt>
      <trkpt lat="43.75061" lon="1.40672">
        <ele>130.523042</ele>
        <time>2023-07-30T15:31:24.000Z</time>
      </trkpt>
      <trkpt lat="43.75057" lon="1.40666">
        <ele>130.512721</ele>
        <time>2023-07-30T15:31:25.000Z</time>
      </trkpt>
      <trkpt lat="43.75057" lon="1.40666">
        <ele>130.512721</ele>
        <time>2023-07-30T15:31:25.000Z</time>
      </trkpt>
      <trkpt lat="43.75053" lon="1.40661">
        <ele>130.503505</ele>
        <time>2023-07-30T15:31:26.000Z</time>
      </trkpt>
      <trkpt lat="43.75049" lon="1.40655">
        <ele>130.494022</ele>
        <time>2023-07-30T15:31:27.000Z</time>
      </trkpt>
      <trkpt lat="43.75046" lon="1.4065">
        <ele>130.485557</ele>
        <time>2023-07-30T15:31:28.000Z</time>
      </trkpt>
      <trkpt lat="43.75046" lon="1.4065">
        <ele>130.485557</ele>
        <time>2023-07-30T15:31:28.000Z</time>
      </trkpt>
      <trkpt lat="43.75042" lon="1.40644">
        <ele>130.475892</ele>
        <time>2023-07-30T15:31:28.000Z</time>
      </trkpt>
      <trkpt lat="43.75038" lon="1.40639">
        <ele>130.466378</ele>
        <time>2023-07-30T15:31:30.000Z</time>
      </trkpt>
      <trkpt lat="43.75034" lon="1.40633">
        <ele>130.456342</ele>
        <time>2023-07-30T15:31:31.000Z</time>
      </trkpt>
      <trkpt lat="43.75031" lon="1.40628">
        <ele>130.447385</ele>
        <time>2023-07-30T15:31:32.000Z</time>
      </trkpt>
      <trkpt lat="43.75027" lon="1.40623">
        <ele>130.438553</ele>
        <time>2023-07-30T15:31:33.000Z</time>
      </trkpt>
      <trkpt lat="43.75023" lon="1.40617">
        <ele>130.428666</ele>
        <time>2023-07-30T15:31:34.000Z</time>
      </trkpt>
      <trkpt lat="43.75019" lon="1.40612">
        <ele>130.419623</ele>
        <time>2023-07-30T15:31:35.000Z</time>
      </trkpt>
      <trkpt lat="43.75019" lon="1.40612">
        <ele>130.419623</ele>
        <time>2023-07-30T15:31:35.000Z</time>
      </trkpt>
      <trkpt lat="43.75015" lon="1.40608">
        <ele>130.410834</ele>
        <time>2023-07-30T15:31:36.000Z</time>
      </trkpt>
      <trkpt lat="43.75012" lon="1.40602">
        <ele>130.401978</ele>
        <time>2023-07-30T15:31:37.000Z</time>
      </trkpt>
      <trkpt lat="43.75012" lon="1.40602">
        <ele>130.401978</ele>
        <time>2023-07-30T15:31:37.000Z</time>
      </trkpt>
      <trkpt lat="43.75008" lon="1.40597">
        <ele>130.393053</ele>
        <time>2023-07-30T15:31:37.000Z</time>
      </trkpt>
      <trkpt lat="43.75005" lon="1.40591">
        <ele>130.383746</ele>
        <time>2023-07-30T15:31:39.000Z</time>
      </trkpt>
      <trkpt lat="43.75005" lon="1.40591">
        <ele>130.383746</ele>
        <time>2023-07-30T15:31:39.000Z</time>
      </trkpt>
      <trkpt lat="43.75001" lon="1.40585">
        <ele>130.373122</ele>
        <time>2023-07-30T15:31:39.000Z</time>
      </trkpt>
      <trkpt lat="43.74998" lon="1.40579">
        <ele>130.364008</ele>
        <time>2023-07-30T15:31:41.000Z</time>
      </trkpt>
      <trkpt lat="43.74998" lon="1.40579">
        <ele>130.364008</ele>
        <time>2023-07-30T15:31:41.000Z</time>
      </trkpt>
      <trkpt lat="43.74994" lon="1.40574">
        <ele>130.355082</ele>
        <time>2023-07-30T15:31:41.000Z</time>
      </trkpt>
      <trkpt lat="43.74994" lon="1.40574">
        <ele>130.355082</ele>
        <time>2023-07-30T15:31:41.000Z</time>
      </trkpt>
      <trkpt lat="43.74991" lon="1.40568">
        <ele>130.345326</ele>
        <time>2023-07-30T15:31:43.000Z</time>
      </trkpt>
      <trkpt lat="43.74987" lon="1.40563">
        <ele>130.33674</ele>
        <time>2023-07-30T15:31:43.000Z</time>
      </trkpt>
      <trkpt lat="43.74983" lon="1.40557">
        <ele>130.326768</ele>
        <time>2023-07-30T15:31:44.000Z</time>
      </trkpt>
      <trkpt lat="43.74983" lon="1.40557">
        <ele>130.326768</ele>
        <time>2023-07-30T15:31:44.000Z</time>
      </trkpt>
      <trkpt lat="43.74979" lon="1.40553">
        <ele>130.317811</ele>
        <time>2023-07-30T15:31:46.000Z</time>
      </trkpt>
      <trkpt lat="43.74979" lon="1.40553">
        <ele>130.317811</ele>
        <time>2023-07-30T15:31:46.000Z</time>
      </trkpt>
      <trkpt lat="43.74975" lon="1.40548">
        <ele>130.309104</ele>
        <time>2023-07-30T15:31:47.000Z</time>
      </trkpt>
      <trkpt lat="43.74971" lon="1.40543">
        <ele>130.299385</ele>
        <time>2023-07-30T15:31:48.000Z</time>
      </trkpt>
      <trkpt lat="43.74971" lon="1.40543">
        <ele>130.299385</ele>
        <time>2023-07-30T15:31:48.000Z</time>
      </trkpt>
      <trkpt lat="43.74967" lon="1.40538">
        <ele>130.290678</ele>
        <time>2023-07-30T15:31:49.000Z</time>
      </trkpt>
      <trkpt lat="43.74967" lon="1.40538">
        <ele>130.290678</ele>
        <time>2023-07-30T15:31:49.000Z</time>
      </trkpt>
      <trkpt lat="43.74963" lon="1.40533">
        <ele>130.280959</ele>
        <time>2023-07-30T15:31:49.000Z</time>
      </trkpt>
      <trkpt lat="43.74963" lon="1.40533">
        <ele>130.280959</ele>
        <time>2023-07-30T15:31:49.000Z</time>
      </trkpt>
      <trkpt lat="43.74959" lon="1.40528">
        <ele>130.272334</ele>
        <time>2023-07-30T15:31:50.000Z</time>
      </trkpt>
      <trkpt lat="43.74955" lon="1.40523">
        <ele>130.261931</ele>
        <time>2023-07-30T15:31:51.000Z</time>
      </trkpt>
      <trkpt lat="43.74955" lon="1.40523">
        <ele>130.261931</ele>
        <time>2023-07-30T15:31:51.000Z</time>
      </trkpt>
      <trkpt lat="43.7495" lon="1.40518">
        <ele>130.252376</ele>
        <time>2023-07-30T15:31:53.000Z</time>
      </trkpt>
      <trkpt lat="43.7495" lon="1.40518">
        <ele>130.252376</ele>
        <time>2023-07-30T15:31:53.000Z</time>
      </trkpt>
      <trkpt lat="43.74947" lon="1.40514">
        <ele>130.244217</ele>
        <time>2023-07-30T15:31:53.000Z</time>
      </trkpt>
      <trkpt lat="43.74942" lon="1.40511">
        <ele>130.235948</ele>
        <time>2023-07-30T15:31:55.000Z</time>
      </trkpt>
      <trkpt lat="43.74942" lon="1.40511">
        <ele>130.235948</ele>
        <time>2023-07-30T15:31:55.000Z</time>
      </trkpt>
      <trkpt lat="43.74937" lon="1.40508">
        <ele>130.248559</ele>
        <time>2023-07-30T15:31:56.000Z</time>
      </trkpt>
      <trkpt lat="43.74937" lon="1.40508">
        <ele>130.248559</ele>
        <time>2023-07-30T15:31:56.000Z</time>
      </trkpt>
      <trkpt lat="43.74933" lon="1.40508">
        <ele>130.353787</ele>
        <time>2023-07-30T15:31:57.000Z</time>
      </trkpt>
      <trkpt lat="43.74933" lon="1.40508">
        <ele>130.353787</ele>
        <time>2023-07-30T15:31:57.000Z</time>
      </trkpt>
      <trkpt lat="43.74928" lon="1.40509">
        <ele>130.487098</ele>
        <time>2023-07-30T15:31:58.000Z</time>
      </trkpt>
      <trkpt lat="43.74923" lon="1.4051">
        <ele>130.604655</ele>
        <time>2023-07-30T15:31:59.000Z</time>
      </trkpt>
      <trkpt lat="43.74923" lon="1.4051">
        <ele>130.604655</ele>
        <time>2023-07-30T15:31:59.000Z</time>
      </trkpt>
      <trkpt lat="43.74919" lon="1.40512">
        <ele>130.71373</ele>
        <time>2023-07-30T15:31:59.000Z</time>
      </trkpt>
      <trkpt lat="43.74919" lon="1.40512">
        <ele>130.71373</ele>
        <time>2023-07-30T15:31:59.000Z</time>
      </trkpt>
      <trkpt lat="43.74914" lon="1.40514">
        <ele>130.840218</ele>
        <time>2023-07-30T15:32:00.000Z</time>
      </trkpt>
      <trkpt lat="43.7491" lon="1.40515">
        <ele>130.950308</ele>
        <time>2023-07-30T15:32:01.000Z</time>
      </trkpt>
      <trkpt lat="43.7491" lon="1.40515">
        <ele>130.950308</ele>
        <time>2023-07-30T15:32:01.000Z</time>
      </trkpt>
      <trkpt lat="43.74905" lon="1.40517">
        <ele>131.068642</ele>
        <time>2023-07-30T15:32:03.000Z</time>
      </trkpt>
      <trkpt lat="43.74905" lon="1.40517">
        <ele>131.068642</ele>
        <time>2023-07-30T15:32:03.000Z</time>
      </trkpt>
      <trkpt lat="43.749" lon="1.40519">
        <ele>131.198961</ele>
        <time>2023-07-30T15:32:03.000Z</time>
      </trkpt>
      <trkpt lat="43.74896" lon="1.40521">
        <ele>131.309599</ele>
        <time>2023-07-30T15:32:05.000Z</time>
      </trkpt>
      <trkpt lat="43.74896" lon="1.40521">
        <ele>131.309599</ele>
        <time>2023-07-30T15:32:05.000Z</time>
      </trkpt>
      <trkpt lat="43.74892" lon="1.40523">
        <ele>131.419689</ele>
        <time>2023-07-30T15:32:05.000Z</time>
      </trkpt>
      <trkpt lat="43.74888" lon="1.40524">
        <ele>131.536024</ele>
        <time>2023-07-30T15:32:06.000Z</time>
      </trkpt>
      <trkpt lat="43.74883" lon="1.40526">
        <ele>131.645099</ele>
        <time>2023-07-30T15:32:07.000Z</time>
      </trkpt>
      <trkpt lat="43.74883" lon="1.40526">
        <ele>131.645099</ele>
        <time>2023-07-30T15:32:07.000Z</time>
      </trkpt>
      <trkpt lat="43.74879" lon="1.40527">
        <ele>131.753708</ele>
        <time>2023-07-30T15:32:08.000Z</time>
      </trkpt>
      <trkpt lat="43.74874" lon="1.40529">
        <ele>131.884027</ele>
        <time>2023-07-30T15:32:09.000Z</time>
      </trkpt>
      <trkpt lat="43.7487" lon="1.40531">
        <ele>132.005889</ele>
        <time>2023-07-30T15:32:10.000Z</time>
      </trkpt>
      <trkpt lat="43.74865" lon="1.40533">
        <ele>132.114498</ele>
        <time>2023-07-30T15:32:11.000Z</time>
      </trkpt>
      <trkpt lat="43.7486" lon="1.40535">
        <ele>132.240558</ele>
        <time>2023-07-30T15:32:12.000Z</time>
      </trkpt>
      <trkpt lat="43.74855" lon="1.40536">
        <ele>132.367944</ele>
        <time>2023-07-30T15:32:13.000Z</time>
      </trkpt>
      <trkpt lat="43.74851" lon="1.40537">
        <ele>132.486278</ele>
        <time>2023-07-30T15:32:14.000Z</time>
      </trkpt>
      <trkpt lat="43.74851" lon="1.40537">
        <ele>132.486278</ele>
        <time>2023-07-30T15:32:14.000Z</time>
      </trkpt>
      <trkpt lat="43.74846" lon="1.40539">
        <ele>132.611204</ele>
        <time>2023-07-30T15:32:16.000Z</time>
      </trkpt>
      <trkpt lat="43.74841" lon="1.4054">
        <ele>132.739307</ele>
        <time>2023-07-30T15:32:17.000Z</time>
      </trkpt>
      <trkpt lat="43.74841" lon="1.4054">
        <ele>132.739307</ele>
        <time>2023-07-30T15:32:17.000Z</time>
      </trkpt>
      <trkpt lat="43.74836" lon="1.40542">
        <ele>132.874762</ele>
        <time>2023-07-30T15:32:17.000Z</time>
      </trkpt>
      <trkpt lat="43.74831" lon="1.40543">
        <ele>132.992319</ele>
        <time>2023-07-30T15:32:19.000Z</time>
      </trkpt>
      <trkpt lat="43.74831" lon="1.40543">
        <ele>132.992319</ele>
        <time>2023-07-30T15:32:19.000Z</time>
      </trkpt>
      <trkpt lat="43.74827" lon="1.40544">
        <ele>133.100081</ele>
        <time>2023-07-30T15:32:20.000Z</time>
      </trkpt>
      <trkpt lat="43.74822" lon="1.40546">
        <ele>133.226141</ele>
        <time>2023-07-30T15:32:21.000Z</time>
      </trkpt>
      <trkpt lat="43.74822" lon="1.40546">
        <ele>133.226141</ele>
        <time>2023-07-30T15:32:21.000Z</time>
      </trkpt>
      <trkpt lat="43.74817" lon="1.40547">
        <ele>133.353874</ele>
        <time>2023-07-30T15:32:22.000Z</time>
      </trkpt>
      <trkpt lat="43.74817" lon="1.40547">
        <ele>133.353874</ele>
        <time>2023-07-30T15:32:22.000Z</time>
      </trkpt>
      <trkpt lat="43.74813" lon="1.40549">
        <ele>133.452336</ele>
        <time>2023-07-30T15:32:23.000Z</time>
      </trkpt>
      <trkpt lat="43.74809" lon="1.4055">
        <ele>133.54993</ele>
        <time>2023-07-30T15:32:24.000Z</time>
      </trkpt>
      <trkpt lat="43.74809" lon="1.4055">
        <ele>133.54993</ele>
        <time>2023-07-30T15:32:24.000Z</time>
      </trkpt>
      <trkpt lat="43.74805" lon="1.40551">
        <ele>133.666256</ele>
        <time>2023-07-30T15:32:25.000Z</time>
      </trkpt>
      <trkpt lat="43.74805" lon="1.40551">
        <ele>133.666256</ele>
        <time>2023-07-30T15:32:25.000Z</time>
      </trkpt>
      <trkpt lat="43.74797" lon="1.4055">
        <ele>133.867232</ele>
        <time>2023-07-30T15:32:26.000Z</time>
      </trkpt>
      <trkpt lat="43.74797" lon="1.4055">
        <ele>133.867232</ele>
        <time>2023-07-30T15:32:26.000Z</time>
      </trkpt>
      <trkpt lat="43.74793" lon="1.40548">
        <ele>133.970368</ele>
        <time>2023-07-30T15:32:27.000Z</time>
      </trkpt>
      <trkpt lat="43.74793" lon="1.40548">
        <ele>133.970368</ele>
        <time>2023-07-30T15:32:27.000Z</time>
      </trkpt>
      <trkpt lat="43.7479" lon="1.40545">
        <ele>134.060202</ele>
        <time>2023-07-30T15:32:28.000Z</time>
      </trkpt>
      <trkpt lat="43.7479" lon="1.40545">
        <ele>134.060202</ele>
        <time>2023-07-30T15:32:28.000Z</time>
      </trkpt>
      <trkpt lat="43.74787" lon="1.40542">
        <ele>134.150799</ele>
        <time>2023-07-30T15:32:29.000Z</time>
      </trkpt>
      <trkpt lat="43.74783" lon="1.40539">
        <ele>134.269185</ele>
        <time>2023-07-30T15:32:30.000Z</time>
      </trkpt>
      <trkpt lat="43.74783" lon="1.40539">
        <ele>134.269185</ele>
        <time>2023-07-30T15:32:30.000Z</time>
      </trkpt>
      <trkpt lat="43.7478" lon="1.40536">
        <ele>134.361854</ele>
        <time>2023-07-30T15:32:32.000Z</time>
      </trkpt>
      <trkpt lat="43.7478" lon="1.40536">
        <ele>134.361854</ele>
        <time>2023-07-30T15:32:32.000Z</time>
      </trkpt>
      <trkpt lat="43.74776" lon="1.40532">
        <ele>134.488488</ele>
        <time>2023-07-30T15:32:33.000Z</time>
      </trkpt>
      <trkpt lat="43.74776" lon="1.40532">
        <ele>134.488488</ele>
        <time>2023-07-30T15:32:33.000Z</time>
      </trkpt>
      <trkpt lat="43.74771" lon="1.40528">
        <ele>134.623556</ele>
        <time>2023-07-30T15:32:34.000Z</time>
      </trkpt>
      <trkpt lat="43.74767" lon="1.40524">
        <ele>134.778618</ele>
        <time>2023-07-30T15:32:35.000Z</time>
      </trkpt>
      <trkpt lat="43.74767" lon="1.40524">
        <ele>134.778618</ele>
        <time>2023-07-30T15:32:35.000Z</time>
      </trkpt>
      <trkpt lat="43.74763" lon="1.40521">
        <ele>134.985597</ele>
        <time>2023-07-30T15:32:36.000Z</time>
      </trkpt>
      <trkpt lat="43.74763" lon="1.40521">
        <ele>134.985597</ele>
        <time>2023-07-30T15:32:36.000Z</time>
      </trkpt>
      <trkpt lat="43.74755" lon="1.40514">
        <ele>135.401362</ele>
        <time>2023-07-30T15:32:38.000Z</time>
      </trkpt>
      <trkpt lat="43.74755" lon="1.40514">
        <ele>135.401362</ele>
        <time>2023-07-30T15:32:38.000Z</time>
      </trkpt>
      <trkpt lat="43.74751" lon="1.40512">
        <ele>135.575945</ele>
        <time>2023-07-30T15:32:39.000Z</time>
      </trkpt>
      <trkpt lat="43.74751" lon="1.40512">
        <ele>135.575945</ele>
        <time>2023-07-30T15:32:39.000Z</time>
      </trkpt>
      <trkpt lat="43.74748" lon="1.40509">
        <ele>135.777646</ele>
        <time>2023-07-30T15:32:40.000Z</time>
      </trkpt>
      <trkpt lat="43.7474" lon="1.40503">
        <ele>136.170566</ele>
        <time>2023-07-30T15:32:42.000Z</time>
      </trkpt>
      <trkpt lat="43.7474" lon="1.40503">
        <ele>136.170566</ele>
        <time>2023-07-30T15:32:42.000Z</time>
      </trkpt>
      <trkpt lat="43.74735" lon="1.40501">
        <ele>136.391691</ele>
        <time>2023-07-30T15:32:44.000Z</time>
      </trkpt>
      <trkpt lat="43.74731" lon="1.40499">
        <ele>136.572181</ele>
        <time>2023-07-30T15:32:45.000Z</time>
      </trkpt>
      <trkpt lat="43.74731" lon="1.40499">
        <ele>136.572181</ele>
        <time>2023-07-30T15:32:45.000Z</time>
      </trkpt>
      <trkpt lat="43.74726" lon="1.405">
        <ele>136.831987</ele>
        <time>2023-07-30T15:32:45.000Z</time>
      </trkpt>
      <trkpt lat="43.74726" lon="1.405">
        <ele>136.831987</ele>
        <time>2023-07-30T15:32:45.000Z</time>
      </trkpt>
      <trkpt lat="43.74717" lon="1.40503">
        <ele>137.236303</ele>
        <time>2023-07-30T15:32:46.000Z</time>
      </trkpt>
      <trkpt lat="43.74717" lon="1.40503">
        <ele>137.236303</ele>
        <time>2023-07-30T15:32:46.000Z</time>
      </trkpt>
      <trkpt lat="43.74709" lon="1.40501">
        <ele>137.60689</ele>
        <time>2023-07-30T15:32:48.000Z</time>
      </trkpt>
      <trkpt lat="43.74709" lon="1.40501">
        <ele>137.60689</ele>
        <time>2023-07-30T15:32:48.000Z</time>
      </trkpt>
      <trkpt lat="43.74706" lon="1.405">
        <ele>137.755162</ele>
        <time>2023-07-30T15:32:49.000Z</time>
      </trkpt>
      <trkpt lat="43.74706" lon="1.405">
        <ele>137.755162</ele>
        <time>2023-07-30T15:32:49.000Z</time>
      </trkpt>
      <trkpt lat="43.74702" lon="1.40498">
        <ele>137.92687</ele>
        <time>2023-07-30T15:32:51.000Z</time>
      </trkpt>
      <trkpt lat="43.74698" lon="1.40494">
        <ele>138.148815</ele>
        <time>2023-07-30T15:32:52.000Z</time>
      </trkpt>
      <trkpt lat="43.74698" lon="1.40494">
        <ele>138.148815</ele>
        <time>2023-07-30T15:32:52.000Z</time>
      </trkpt>
      <trkpt lat="43.74693" lon="1.4049">
        <ele>138.40907</ele>
        <time>2023-07-30T15:32:54.000Z</time>
      </trkpt>
      <trkpt lat="43.74693" lon="1.4049">
        <ele>138.40907</ele>
        <time>2023-07-30T15:32:54.000Z</time>
      </trkpt>
      <trkpt lat="43.7469" lon="1.40488">
        <ele>138.567045</ele>
        <time>2023-07-30T15:32:56.000Z</time>
      </trkpt>
      <trkpt lat="43.7469" lon="1.40488">
        <ele>138.567045</ele>
        <time>2023-07-30T15:32:56.000Z</time>
      </trkpt>
      <trkpt lat="43.7469" lon="1.40488">
        <ele>138.567045</ele>
        <time>2023-07-30T15:32:57.000Z</time>
      </trkpt>
      <trkpt lat="43.74687" lon="1.40485">
        <ele>138.744795</ele>
        <time>2023-07-30T15:32:59.000Z</time>
      </trkpt>
      <trkpt lat="43.74687" lon="1.40485">
        <ele>138.744795</ele>
        <time>2023-07-30T15:32:59.000Z</time>
      </trkpt>
      <trkpt lat="43.74687" lon="1.40484">
        <ele>138.787382</ele>
        <time>2023-07-30T15:32:59.000Z</time>
      </trkpt>
      <trkpt lat="43.74687" lon="1.40484">
        <ele>138.787382</ele>
        <time>2023-07-30T15:32:59.000Z</time>
      </trkpt>
      <trkpt lat="43.74686" lon="1.40485">
        <ele>138.840875</ele>
        <time>2023-07-30T15:33:02.000Z</time>
      </trkpt>
      <trkpt lat="43.74686" lon="1.40485">
        <ele>138.840875</ele>
        <time>2023-07-30T15:33:02.000Z</time>
      </trkpt>
      <trkpt lat="43.7469" lon="1.40487">
        <ele>139.008022</ele>
        <time>2023-07-30T15:33:05.000Z</time>
      </trkpt>
      <trkpt lat="43.7469" lon="1.40487">
        <ele>139.008022</ele>
        <time>2023-07-30T15:33:05.000Z</time>
      </trkpt>
      <trkpt lat="43.74692" lon="1.40487">
        <ele>139.112527</ele>
        <time>2023-07-30T15:33:06.000Z</time>
      </trkpt>
      <trkpt lat="43.74694" lon="1.40489">
        <ele>139.247185</ele>
        <time>2023-07-30T15:33:07.000Z</time>
      </trkpt>
      <trkpt lat="43.74694" lon="1.40489">
        <ele>139.247185</ele>
        <time>2023-07-30T15:33:07.000Z</time>
      </trkpt>
      <trkpt lat="43.74691" lon="1.40494">
        <ele>139.443889</ele>
        <time>2023-07-30T15:33:11.000Z</time>
      </trkpt>
      <trkpt lat="43.7469" lon="1.40493">
        <ele>139.49473</ele>
        <time>2023-07-30T15:33:12.000Z</time>
      </trkpt>
      <trkpt lat="43.74688" lon="1.40494">
        <ele>139.600308</ele>
        <time>2023-07-30T15:33:13.000Z</time>
      </trkpt>
      <trkpt lat="43.74685" lon="1.40494">
        <ele>139.705069</ele>
        <time>2023-07-30T15:33:14.000Z</time>
      </trkpt>
      <trkpt lat="43.74682" lon="1.40493">
        <ele>139.861462</ele>
        <time>2023-07-30T15:33:15.000Z</time>
      </trkpt>
      <trkpt lat="43.74678" lon="1.40492">
        <ele>140.021391</ele>
        <time>2023-07-30T15:33:16.000Z</time>
      </trkpt>
      <trkpt lat="43.74678" lon="1.40492">
        <ele>140.021391</ele>
        <time>2023-07-30T15:33:16.000Z</time>
      </trkpt>
      <trkpt lat="43.74674" lon="1.40491">
        <ele>140.21523</ele>
        <time>2023-07-30T15:33:17.000Z</time>
      </trkpt>
      <trkpt lat="43.74669" lon="1.40488">
        <ele>140.470217</ele>
        <time>2023-07-30T15:33:19.000Z</time>
      </trkpt>
      <trkpt lat="43.74665" lon="1.40486">
        <ele>140.676267</ele>
        <time>2023-07-30T15:33:20.000Z</time>
      </trkpt>
      <trkpt lat="43.74665" lon="1.40486">
        <ele>140.676267</ele>
        <time>2023-07-30T15:33:20.000Z</time>
      </trkpt>
      <trkpt lat="43.74661" lon="1.40483">
        <ele>140.85567</ele>
        <time>2023-07-30T15:33:20.000Z</time>
      </trkpt>
      <trkpt lat="43.74657" lon="1.4048">
        <ele>141.076307</ele>
        <time>2023-07-30T15:33:22.000Z</time>
      </trkpt>
      <trkpt lat="43.74657" lon="1.4048">
        <ele>141.076307</ele>
        <time>2023-07-30T15:33:22.000Z</time>
      </trkpt>
      <trkpt lat="43.74653" lon="1.40476">
        <ele>141.296944</ele>
        <time>2023-07-30T15:33:22.000Z</time>
      </trkpt>
      <trkpt lat="43.74646" lon="1.4047">
        <ele>141.67359</ele>
        <time>2023-07-30T15:33:24.000Z</time>
      </trkpt>
      <trkpt lat="43.74646" lon="1.4047">
        <ele>141.67359</ele>
        <time>2023-07-30T15:33:24.000Z</time>
      </trkpt>
      <trkpt lat="43.74644" lon="1.40468">
        <ele>141.791827</ele>
        <time>2023-07-30T15:33:26.000Z</time>
      </trkpt>
      <trkpt lat="43.74641" lon="1.40467">
        <ele>141.926335</ele>
        <time>2023-07-30T15:33:26.000Z</time>
      </trkpt>
      <trkpt lat="43.74641" lon="1.40467">
        <ele>141.926335</ele>
        <time>2023-07-30T15:33:26.000Z</time>
      </trkpt>
      <trkpt lat="43.74638" lon="1.40464">
        <ele>142.080289</ele>
        <time>2023-07-30T15:33:28.000Z</time>
      </trkpt>
      <trkpt lat="43.74638" lon="1.40464">
        <ele>142.080289</ele>
        <time>2023-07-30T15:33:28.000Z</time>
      </trkpt>
      <trkpt lat="43.74634" lon="1.40462">
        <ele>142.267074</ele>
        <time>2023-07-30T15:33:29.000Z</time>
      </trkpt>
      <trkpt lat="43.74634" lon="1.40462">
        <ele>142.267074</ele>
        <time>2023-07-30T15:33:29.000Z</time>
      </trkpt>
      <trkpt lat="43.7463" lon="1.4046">
        <ele>142.457866</ele>
        <time>2023-07-30T15:33:31.000Z</time>
      </trkpt>
      <trkpt lat="43.7463" lon="1.4046">
        <ele>142.457866</ele>
        <time>2023-07-30T15:33:31.000Z</time>
      </trkpt>
      <trkpt lat="43.74626" lon="1.40457">
        <ele>142.68708</ele>
        <time>2023-07-30T15:33:31.000Z</time>
      </trkpt>
      <trkpt lat="43.74626" lon="1.40457">
        <ele>142.68708</ele>
        <time>2023-07-30T15:33:31.000Z</time>
      </trkpt>
      <trkpt lat="43.74621" lon="1.40454">
        <ele>142.918232</ele>
        <time>2023-07-30T15:33:33.000Z</time>
      </trkpt>
      <trkpt lat="43.74621" lon="1.40454">
        <ele>142.918232</ele>
        <time>2023-07-30T15:33:33.000Z</time>
      </trkpt>
      <trkpt lat="43.74616" lon="1.40451">
        <ele>143.200283</ele>
        <time>2023-07-30T15:33:34.000Z</time>
      </trkpt>
      <trkpt lat="43.74616" lon="1.40451">
        <ele>143.200283</ele>
        <time>2023-07-30T15:33:34.000Z</time>
      </trkpt>
      <trkpt lat="43.74612" lon="1.40447">
        <ele>143.448026</ele>
        <time>2023-07-30T15:33:35.000Z</time>
      </trkpt>
      <trkpt lat="43.74612" lon="1.40447">
        <ele>143.448026</ele>
        <time>2023-07-30T15:33:35.000Z</time>
      </trkpt>
      <trkpt lat="43.74608" lon="1.40444">
        <ele>143.712673</ele>
        <time>2023-07-30T15:33:38.000Z</time>
      </trkpt>
      <trkpt lat="43.74608" lon="1.40444">
        <ele>143.712673</ele>
        <time>2023-07-30T15:33:38.000Z</time>
      </trkpt>
      <trkpt lat="43.74604" lon="1.40441">
        <ele>143.925352</ele>
        <time>2023-07-30T15:33:39.000Z</time>
      </trkpt>
      <trkpt lat="43.74604" lon="1.40441">
        <ele>143.925352</ele>
        <time>2023-07-30T15:33:39.000Z</time>
      </trkpt>
      <trkpt lat="43.74601" lon="1.40438">
        <ele>144.115865</ele>
        <time>2023-07-30T15:33:39.000Z</time>
      </trkpt>
      <trkpt lat="43.74601" lon="1.40438">
        <ele>144.115865</ele>
        <time>2023-07-30T15:33:39.000Z</time>
      </trkpt>
      <trkpt lat="43.74596" lon="1.40435">
        <ele>144.384932</ele>
        <time>2023-07-30T15:33:40.000Z</time>
      </trkpt>
      <trkpt lat="43.74596" lon="1.40435">
        <ele>144.384932</ele>
        <time>2023-07-30T15:33:40.000Z</time>
      </trkpt>
      <trkpt lat="43.74591" lon="1.40431">
        <ele>144.652209</ele>
        <time>2023-07-30T15:33:42.000Z</time>
      </trkpt>
      <trkpt lat="43.74591" lon="1.40431">
        <ele>144.652209</ele>
        <time>2023-07-30T15:33:42.000Z</time>
      </trkpt>
      <trkpt lat="43.74588" lon="1.4043">
        <ele>144.837561</ele>
        <time>2023-07-30T15:33:42.000Z</time>
      </trkpt>
      <trkpt lat="43.74588" lon="1.4043">
        <ele>144.837561</ele>
        <time>2023-07-30T15:33:42.000Z</time>
      </trkpt>
      <trkpt lat="43.74586" lon="1.40431">
        <ele>144.962716</ele>
        <time>2023-07-30T15:33:43.000Z</time>
      </trkpt>
      <trkpt lat="43.74586" lon="1.40431">
        <ele>144.962716</ele>
        <time>2023-07-30T15:33:43.000Z</time>
      </trkpt>
      <trkpt lat="43.74583" lon="1.40432">
        <ele>145.093786</ele>
        <time>2023-07-30T15:33:45.000Z</time>
      </trkpt>
      <trkpt lat="43.74583" lon="1.40432">
        <ele>145.093786</ele>
        <time>2023-07-30T15:33:45.000Z</time>
      </trkpt>
      <trkpt lat="43.7458" lon="1.40436">
        <ele>145.29356</ele>
        <time>2023-07-30T15:33:45.000Z</time>
      </trkpt>
      <trkpt lat="43.7458" lon="1.40436">
        <ele>145.29356</ele>
        <time>2023-07-30T15:33:45.000Z</time>
      </trkpt>
      <trkpt lat="43.74577" lon="1.40438">
        <ele>145.5019</ele>
        <time>2023-07-30T15:33:47.000Z</time>
      </trkpt>
      <trkpt lat="43.74577" lon="1.40438">
        <ele>145.5019</ele>
        <time>2023-07-30T15:33:47.000Z</time>
      </trkpt>
      <trkpt lat="43.74575" lon="1.40438">
        <ele>145.599273</ele>
        <time>2023-07-30T15:33:48.000Z</time>
      </trkpt>
      <trkpt lat="43.74572" lon="1.40439">
        <ele>145.758656</ele>
        <time>2023-07-30T15:33:49.000Z</time>
      </trkpt>
      <trkpt lat="43.74572" lon="1.40439">
        <ele>145.758656</ele>
        <time>2023-07-30T15:33:49.000Z</time>
      </trkpt>
      <trkpt lat="43.7457" lon="1.40439">
        <ele>145.857887</ele>
        <time>2023-07-30T15:33:50.000Z</time>
      </trkpt>
      <trkpt lat="43.7457" lon="1.40439">
        <ele>145.857887</ele>
        <time>2023-07-30T15:33:50.000Z</time>
      </trkpt>
      <trkpt lat="43.74569" lon="1.4044">
        <ele>145.918089</ele>
        <time>2023-07-30T15:33:51.000Z</time>
      </trkpt>
      <trkpt lat="43.74569" lon="1.4044">
        <ele>145.918089</ele>
        <time>2023-07-30T15:33:51.000Z</time>
      </trkpt>
      <trkpt lat="43.74567" lon="1.40441">
        <ele>145.993467</ele>
        <time>2023-07-30T15:33:53.000Z</time>
      </trkpt>
      <trkpt lat="43.74567" lon="1.40441">
        <ele>145.993467</ele>
        <time>2023-07-30T15:33:53.000Z</time>
      </trkpt>
      <trkpt lat="43.74565" lon="1.40444">
        <ele>146.149428</ele>
        <time>2023-07-30T15:33:54.000Z</time>
      </trkpt>
      <trkpt lat="43.74565" lon="1.40444">
        <ele>146.149428</ele>
        <time>2023-07-30T15:33:54.000Z</time>
      </trkpt>
      <trkpt lat="43.74564" lon="1.40447">
        <ele>146.271822</ele>
        <time>2023-07-30T15:33:55.000Z</time>
      </trkpt>
      <trkpt lat="43.74564" lon="1.40447">
        <ele>146.271822</ele>
        <time>2023-07-30T15:33:55.000Z</time>
      </trkpt>
      <trkpt lat="43.74561" lon="1.4045">
        <ele>146.451375</ele>
        <time>2023-07-30T15:33:56.000Z</time>
      </trkpt>
      <trkpt lat="43.74561" lon="1.4045">
        <ele>146.451375</ele>
        <time>2023-07-30T15:33:56.000Z</time>
      </trkpt>
      <trkpt lat="43.7456" lon="1.40454">
        <ele>146.601072</ele>
        <time>2023-07-30T15:33:57.000Z</time>
      </trkpt>
      <trkpt lat="43.74558" lon="1.40459">
        <ele>146.803624</ele>
        <time>2023-07-30T15:33:58.000Z</time>
      </trkpt>
      <trkpt lat="43.74558" lon="1.40459">
        <ele>146.803624</ele>
        <time>2023-07-30T15:33:58.000Z</time>
      </trkpt>
      <trkpt lat="43.74557" lon="1.40465">
        <ele>147.022017</ele>
        <time>2023-07-30T15:33:59.000Z</time>
      </trkpt>
      <trkpt lat="43.74557" lon="1.40465">
        <ele>147.022017</ele>
        <time>2023-07-30T15:33:59.000Z</time>
      </trkpt>
      <trkpt lat="43.74557" lon="1.4047">
        <ele>147.229015</ele>
        <time>2023-07-30T15:34:02.000Z</time>
      </trkpt>
      <trkpt lat="43.74556" lon="1.40475">
        <ele>147.417236</ele>
        <time>2023-07-30T15:34:02.000Z</time>
      </trkpt>
      <trkpt lat="43.74556" lon="1.40475">
        <ele>147.417236</ele>
        <time>2023-07-30T15:34:02.000Z</time>
      </trkpt>
      <trkpt lat="43.74555" lon="1.40482">
        <ele>147.6783</ele>
        <time>2023-07-30T15:34:03.000Z</time>
      </trkpt>
      <trkpt lat="43.74554" lon="1.40487">
        <ele>147.874084</ele>
        <time>2023-07-30T15:34:05.000Z</time>
      </trkpt>
      <trkpt lat="43.74554" lon="1.40487">
        <ele>147.874084</ele>
        <time>2023-07-30T15:34:05.000Z</time>
      </trkpt>
      <trkpt lat="43.74553" lon="1.40493">
        <ele>148.1059</ele>
        <time>2023-07-30T15:34:06.000Z</time>
      </trkpt>
      <trkpt lat="43.74551" lon="1.40499">
        <ele>148.350253</ele>
        <time>2023-07-30T15:34:08.000Z</time>
      </trkpt>
      <trkpt lat="43.74551" lon="1.40499">
        <ele>148.350253</ele>
        <time>2023-07-30T15:34:08.000Z</time>
      </trkpt>
      <trkpt lat="43.74547" lon="1.40507">
        <ele>148.678252</ele>
        <time>2023-07-30T15:34:09.000Z</time>
      </trkpt>
      <trkpt lat="43.74547" lon="1.40507">
        <ele>148.678252</ele>
        <time>2023-07-30T15:34:09.000Z</time>
      </trkpt>
      <trkpt lat="43.74543" lon="1.40513">
        <ele>149.001789</ele>
        <time>2023-07-30T15:34:11.000Z</time>
      </trkpt>
      <trkpt lat="43.74543" lon="1.40513">
        <ele>149.001789</ele>
        <time>2023-07-30T15:34:11.000Z</time>
      </trkpt>
      <trkpt lat="43.74541" lon="1.40517">
        <ele>149.154661</ele>
        <time>2023-07-30T15:34:12.000Z</time>
      </trkpt>
      <trkpt lat="43.74539" lon="1.40522">
        <ele>149.38209</ele>
        <time>2023-07-30T15:34:13.000Z</time>
      </trkpt>
      <trkpt lat="43.74539" lon="1.40522">
        <ele>149.38209</ele>
        <time>2023-07-30T15:34:13.000Z</time>
      </trkpt>
      <trkpt lat="43.74536" lon="1.4053">
        <ele>149.726777</ele>
        <time>2023-07-30T15:34:15.000Z</time>
      </trkpt>
      <trkpt lat="43.74535" lon="1.40534">
        <ele>149.87933</ele>
        <time>2023-07-30T15:34:15.000Z</time>
      </trkpt>
      <trkpt lat="43.74535" lon="1.40534">
        <ele>149.87933</ele>
        <time>2023-07-30T15:34:15.000Z</time>
      </trkpt>
      <trkpt lat="43.74534" lon="1.40539">
        <ele>150.074899</ele>
        <time>2023-07-30T15:34:17.000Z</time>
      </trkpt>
      <trkpt lat="43.74532" lon="1.40546">
        <ele>150.329409</ele>
        <time>2023-07-30T15:34:19.000Z</time>
      </trkpt>
      <trkpt lat="43.74531" lon="1.40552">
        <ele>150.562958</ele>
        <time>2023-07-30T15:34:19.000Z</time>
      </trkpt>
      <trkpt lat="43.7453" lon="1.40557">
        <ele>150.753278</ele>
        <time>2023-07-30T15:34:21.000Z</time>
      </trkpt>
      <trkpt lat="43.7453" lon="1.40557">
        <ele>150.753278</ele>
        <time>2023-07-30T15:34:21.000Z</time>
      </trkpt>
      <trkpt lat="43.74529" lon="1.4056">
        <ele>150.886966</ele>
        <time>2023-07-30T15:34:22.000Z</time>
      </trkpt>
      <trkpt lat="43.74529" lon="1.4056">
        <ele>150.886966</ele>
        <time>2023-07-30T15:34:22.000Z</time>
      </trkpt>
      <trkpt lat="43.74527" lon="1.40563">
        <ele>150.994642</ele>
        <time>2023-07-30T15:34:23.000Z</time>
      </trkpt>
      <trkpt lat="43.74527" lon="1.40563">
        <ele>150.994642</ele>
        <time>2023-07-30T15:34:23.000Z</time>
      </trkpt>
      <trkpt lat="43.74525" lon="1.40565">
        <ele>151.124718</ele>
        <time>2023-07-30T15:34:24.000Z</time>
      </trkpt>
      <trkpt lat="43.7452" lon="1.4057">
        <ele>151.443247</ele>
        <time>2023-07-30T15:34:25.000Z</time>
      </trkpt>
      <trkpt lat="43.7452" lon="1.4057">
        <ele>151.443247</ele>
        <time>2023-07-30T15:34:25.000Z</time>
      </trkpt>
      <trkpt lat="43.74517" lon="1.40571">
        <ele>151.624951</ele>
        <time>2023-07-30T15:34:27.000Z</time>
      </trkpt>
      <trkpt lat="43.74517" lon="1.40571">
        <ele>151.624951</ele>
        <time>2023-07-30T15:34:27.000Z</time>
      </trkpt>
      <trkpt lat="43.74513" lon="1.40572">
        <ele>151.821907</ele>
        <time>2023-07-30T15:34:28.000Z</time>
      </trkpt>
      <trkpt lat="43.74513" lon="1.40572">
        <ele>151.821907</ele>
        <time>2023-07-30T15:34:28.000Z</time>
      </trkpt>
      <trkpt lat="43.74509" lon="1.40573">
        <ele>152.02457</ele>
        <time>2023-07-30T15:34:28.000Z</time>
      </trkpt>
      <trkpt lat="43.74509" lon="1.40573">
        <ele>152.02457</ele>
        <time>2023-07-30T15:34:28.000Z</time>
      </trkpt>
      <trkpt lat="43.74506" lon="1.40574">
        <ele>152.24878</ele>
        <time>2023-07-30T15:34:29.000Z</time>
      </trkpt>
      <trkpt lat="43.74506" lon="1.40574">
        <ele>152.24878</ele>
        <time>2023-07-30T15:34:29.000Z</time>
      </trkpt>
      <trkpt lat="43.74502" lon="1.40574">
        <ele>152.507622</ele>
        <time>2023-07-30T15:34:32.000Z</time>
      </trkpt>
      <trkpt lat="43.74502" lon="1.40574">
        <ele>152.507622</ele>
        <time>2023-07-30T15:34:32.000Z</time>
      </trkpt>
      <trkpt lat="43.74498" lon="1.40575">
        <ele>152.791882</ele>
        <time>2023-07-30T15:34:33.000Z</time>
      </trkpt>
      <trkpt lat="43.74498" lon="1.40575">
        <ele>152.791882</ele>
        <time>2023-07-30T15:34:33.000Z</time>
      </trkpt>
      <trkpt lat="43.7449" lon="1.40576">
        <ele>153.306917</ele>
        <time>2023-07-30T15:34:34.000Z</time>
      </trkpt>
      <trkpt lat="43.7449" lon="1.40576">
        <ele>153.306917</ele>
        <time>2023-07-30T15:34:34.000Z</time>
      </trkpt>
      <trkpt lat="43.74486" lon="1.40574">
        <ele>153.571217</ele>
        <time>2023-07-30T15:34:35.000Z</time>
      </trkpt>
      <trkpt lat="43.74486" lon="1.40574">
        <ele>153.571217</ele>
        <time>2023-07-30T15:34:35.000Z</time>
      </trkpt>
      <trkpt lat="43.74482" lon="1.40573">
        <ele>153.864093</ele>
        <time>2023-07-30T15:34:36.000Z</time>
      </trkpt>
      <trkpt lat="43.74482" lon="1.40573">
        <ele>153.864093</ele>
        <time>2023-07-30T15:34:36.000Z</time>
      </trkpt>
      <trkpt lat="43.74479" lon="1.40571">
        <ele>154.060535</ele>
        <time>2023-07-30T15:34:38.000Z</time>
      </trkpt>
      <trkpt lat="43.74479" lon="1.40571">
        <ele>154.060535</ele>
        <time>2023-07-30T15:34:38.000Z</time>
      </trkpt>
      <trkpt lat="43.74476" lon="1.40568">
        <ele>154.379948</ele>
        <time>2023-07-30T15:34:39.000Z</time>
      </trkpt>
      <trkpt lat="43.74476" lon="1.40568">
        <ele>154.379948</ele>
        <time>2023-07-30T15:34:39.000Z</time>
      </trkpt>
      <trkpt lat="43.74472" lon="1.40564">
        <ele>154.665886</ele>
        <time>2023-07-30T15:34:40.000Z</time>
      </trkpt>
      <trkpt lat="43.74472" lon="1.40564">
        <ele>154.665886</ele>
        <time>2023-07-30T15:34:40.000Z</time>
      </trkpt>
      <trkpt lat="43.74469" lon="1.40562">
        <ele>154.862174</ele>
        <time>2023-07-30T15:34:41.000Z</time>
      </trkpt>
      <trkpt lat="43.74469" lon="1.40562">
        <ele>154.862174</ele>
        <time>2023-07-30T15:34:41.000Z</time>
      </trkpt>
      <trkpt lat="43.74466" lon="1.40561">
        <ele>155.109566</ele>
        <time>2023-07-30T15:34:41.000Z</time>
      </trkpt>
      <trkpt lat="43.74466" lon="1.40561">
        <ele>155.109566</ele>
        <time>2023-07-30T15:34:41.000Z</time>
      </trkpt>
      <trkpt lat="43.74462" lon="1.4056">
        <ele>155.369875</ele>
        <time>2023-07-30T15:34:44.000Z</time>
      </trkpt>
      <trkpt lat="43.74462" lon="1.4056">
        <ele>155.369875</ele>
        <time>2023-07-30T15:34:44.000Z</time>
      </trkpt>
      <trkpt lat="43.74459" lon="1.4056">
        <ele>155.573901</ele>
        <time>2023-07-30T15:34:45.000Z</time>
      </trkpt>
      <trkpt lat="43.74459" lon="1.4056">
        <ele>155.573901</ele>
        <time>2023-07-30T15:34:45.000Z</time>
      </trkpt>
      <trkpt lat="43.74455" lon="1.40559">
        <ele>155.858997</ele>
        <time>2023-07-30T15:34:45.000Z</time>
      </trkpt>
      <trkpt lat="43.74455" lon="1.40559">
        <ele>155.858997</ele>
        <time>2023-07-30T15:34:45.000Z</time>
      </trkpt>
      <trkpt lat="43.7445" lon="1.40558">
        <ele>156.171465</ele>
        <time>2023-07-30T15:34:47.000Z</time>
      </trkpt>
      <trkpt lat="43.7445" lon="1.40558">
        <ele>156.171465</ele>
        <time>2023-07-30T15:34:47.000Z</time>
      </trkpt>
      <trkpt lat="43.74445" lon="1.40557">
        <ele>156.532637</ele>
        <time>2023-07-30T15:34:48.000Z</time>
      </trkpt>
      <trkpt lat="43.74445" lon="1.40557">
        <ele>156.532637</ele>
        <time>2023-07-30T15:34:48.000Z</time>
      </trkpt>
      <trkpt lat="43.7444" lon="1.40556">
        <ele>156.873085</ele>
        <time>2023-07-30T15:34:49.000Z</time>
      </trkpt>
      <trkpt lat="43.7444" lon="1.40556">
        <ele>156.873085</ele>
        <time>2023-07-30T15:34:49.000Z</time>
      </trkpt>
      <trkpt lat="43.74435" lon="1.40555">
        <ele>157.235703</ele>
        <time>2023-07-30T15:34:50.000Z</time>
      </trkpt>
      <trkpt lat="43.74435" lon="1.40555">
        <ele>157.235703</ele>
        <time>2023-07-30T15:34:50.000Z</time>
      </trkpt>
      <trkpt lat="43.74428" lon="1.40553">
        <ele>157.685303</ele>
        <time>2023-07-30T15:34:52.000Z</time>
      </trkpt>
      <trkpt lat="43.74428" lon="1.40553">
        <ele>157.685303</ele>
        <time>2023-07-30T15:34:52.000Z</time>
      </trkpt>
      <trkpt lat="43.74419" lon="1.4055">
        <ele>158.352036</ele>
        <time>2023-07-30T15:34:53.000Z</time>
      </trkpt>
      <trkpt lat="43.74419" lon="1.4055">
        <ele>158.352036</ele>
        <time>2023-07-30T15:34:53.000Z</time>
      </trkpt>
      <trkpt lat="43.74414" lon="1.40548">
        <ele>158.69197</ele>
        <time>2023-07-30T15:34:55.000Z</time>
      </trkpt>
      <trkpt lat="43.74414" lon="1.40548">
        <ele>158.69197</ele>
        <time>2023-07-30T15:34:55.000Z</time>
      </trkpt>
      <trkpt lat="43.74409" lon="1.40546">
        <ele>159.04773</ele>
        <time>2023-07-30T15:34:56.000Z</time>
      </trkpt>
      <trkpt lat="43.74409" lon="1.40546">
        <ele>159.04773</ele>
        <time>2023-07-30T15:34:56.000Z</time>
      </trkpt>
      <trkpt lat="43.74404" lon="1.40544">
        <ele>159.38141</ele>
        <time>2023-07-30T15:34:57.000Z</time>
      </trkpt>
      <trkpt lat="43.74404" lon="1.40544">
        <ele>159.38141</ele>
        <time>2023-07-30T15:34:57.000Z</time>
      </trkpt>
      <trkpt lat="43.744" lon="1.40541">
        <ele>159.698323</ele>
        <time>2023-07-30T15:34:58.000Z</time>
      </trkpt>
      <trkpt lat="43.744" lon="1.40541">
        <ele>159.698323</ele>
        <time>2023-07-30T15:34:58.000Z</time>
      </trkpt>
      <trkpt lat="43.74397" lon="1.40538">
        <ele>159.956023</ele>
        <time>2023-07-30T15:34:59.000Z</time>
      </trkpt>
      <trkpt lat="43.74397" lon="1.40538">
        <ele>159.956023</ele>
        <time>2023-07-30T15:34:59.000Z</time>
      </trkpt>
      <trkpt lat="43.74392" lon="1.40535">
        <ele>160.275143</ele>
        <time>2023-07-30T15:35:00.000Z</time>
      </trkpt>
      <trkpt lat="43.74392" lon="1.40535">
        <ele>160.275143</ele>
        <time>2023-07-30T15:35:00.000Z</time>
      </trkpt>
      <trkpt lat="43.74388" lon="1.40532">
        <ele>160.616438</ele>
        <time>2023-07-30T15:35:01.000Z</time>
      </trkpt>
      <trkpt lat="43.74388" lon="1.40532">
        <ele>160.616438</ele>
        <time>2023-07-30T15:35:01.000Z</time>
      </trkpt>
      <trkpt lat="43.74384" lon="1.4053">
        <ele>160.917961</ele>
        <time>2023-07-30T15:35:02.000Z</time>
      </trkpt>
      <trkpt lat="43.74384" lon="1.4053">
        <ele>160.917961</ele>
        <time>2023-07-30T15:35:02.000Z</time>
      </trkpt>
      <trkpt lat="43.74379" lon="1.40529">
        <ele>161.232919</ele>
        <time>2023-07-30T15:35:04.000Z</time>
      </trkpt>
      <trkpt lat="43.74379" lon="1.40529">
        <ele>161.232919</ele>
        <time>2023-07-30T15:35:04.000Z</time>
      </trkpt>
      <trkpt lat="43.74374" lon="1.40527">
        <ele>161.576429</ele>
        <time>2023-07-30T15:35:05.000Z</time>
      </trkpt>
      <trkpt lat="43.74374" lon="1.40527">
        <ele>161.576429</ele>
        <time>2023-07-30T15:35:05.000Z</time>
      </trkpt>
      <trkpt lat="43.7437" lon="1.40526">
        <ele>161.870562</ele>
        <time>2023-07-30T15:35:06.000Z</time>
      </trkpt>
      <trkpt lat="43.7437" lon="1.40526">
        <ele>161.870562</ele>
        <time>2023-07-30T15:35:06.000Z</time>
      </trkpt>
      <trkpt lat="43.74368" lon="1.40524">
        <ele>162.04437</ele>
        <time>2023-07-30T15:35:07.000Z</time>
      </trkpt>
      <trkpt lat="43.74368" lon="1.40524">
        <ele>162.04437</ele>
        <time>2023-07-30T15:35:07.000Z</time>
      </trkpt>
      <trkpt lat="43.74364" lon="1.40521">
        <ele>162.316617</ele>
        <time>2023-07-30T15:35:08.000Z</time>
      </trkpt>
      <trkpt lat="43.74364" lon="1.40521">
        <ele>162.316617</ele>
        <time>2023-07-30T15:35:08.000Z</time>
      </trkpt>
      <trkpt lat="43.74364" lon="1.40521">
        <ele>162.316617</ele>
        <time>2023-07-30T15:35:08.000Z</time>
      </trkpt>
      <trkpt lat="43.74361" lon="1.40519">
        <ele>162.535952</ele>
        <time>2023-07-30T15:35:10.000Z</time>
      </trkpt>
      <trkpt lat="43.74361" lon="1.40519">
        <ele>162.535952</ele>
        <time>2023-07-30T15:35:10.000Z</time>
      </trkpt>
      <trkpt lat="43.74361" lon="1.40517">
        <ele>162.600418</ele>
        <time>2023-07-30T15:35:11.000Z</time>
      </trkpt>
      <trkpt lat="43.74361" lon="1.40517">
        <ele>162.600418</ele>
        <time>2023-07-30T15:35:11.000Z</time>
      </trkpt>
      <trkpt lat="43.7436" lon="1.40516">
        <ele>162.719915</ele>
        <time>2023-07-30T15:35:12.000Z</time>
      </trkpt>
      <trkpt lat="43.7436" lon="1.40516">
        <ele>162.719915</ele>
        <time>2023-07-30T15:35:12.000Z</time>
      </trkpt>
      <trkpt lat="43.74357" lon="1.40515">
        <ele>162.891587</ele>
        <time>2023-07-30T15:35:14.000Z</time>
      </trkpt>
      <trkpt lat="43.74357" lon="1.40515">
        <ele>162.891587</ele>
        <time>2023-07-30T15:35:14.000Z</time>
      </trkpt>
      <trkpt lat="43.74353" lon="1.40513">
        <ele>163.162776</ele>
        <time>2023-07-30T15:35:15.000Z</time>
      </trkpt>
      <trkpt lat="43.74353" lon="1.40513">
        <ele>163.162776</ele>
        <time>2023-07-30T15:35:15.000Z</time>
      </trkpt>
      <trkpt lat="43.7435" lon="1.40512">
        <ele>163.423952</ele>
        <time>2023-07-30T15:35:15.000Z</time>
      </trkpt>
      <trkpt lat="43.7435" lon="1.40512">
        <ele>163.423952</ele>
        <time>2023-07-30T15:35:15.000Z</time>
      </trkpt>
      <trkpt lat="43.74347" lon="1.40512">
        <ele>163.633267</ele>
        <time>2023-07-30T15:35:17.000Z</time>
      </trkpt>
      <trkpt lat="43.74347" lon="1.40512">
        <ele>163.633267</ele>
        <time>2023-07-30T15:35:17.000Z</time>
      </trkpt>
      <trkpt lat="43.74343" lon="1.40512">
        <ele>163.889894</ele>
        <time>2023-07-30T15:35:19.000Z</time>
      </trkpt>
      <trkpt lat="43.74343" lon="1.40512">
        <ele>163.889894</ele>
        <time>2023-07-30T15:35:19.000Z</time>
      </trkpt>
      <trkpt lat="43.74339" lon="1.40512">
        <ele>164.17453</ele>
        <time>2023-07-30T15:35:20.000Z</time>
      </trkpt>
      <trkpt lat="43.74339" lon="1.40512">
        <ele>164.17453</ele>
        <time>2023-07-30T15:35:20.000Z</time>
      </trkpt>
      <trkpt lat="43.74335" lon="1.40513">
        <ele>164.342913</ele>
        <time>2023-07-30T15:35:21.000Z</time>
      </trkpt>
      <trkpt lat="43.74331" lon="1.40514">
        <ele>164.506672</ele>
        <time>2023-07-30T15:35:22.000Z</time>
      </trkpt>
      <trkpt lat="43.74331" lon="1.40514">
        <ele>164.506672</ele>
        <time>2023-07-30T15:35:22.000Z</time>
      </trkpt>
      <trkpt lat="43.74331" lon="1.40514">
        <ele>164.506672</ele>
        <time>2023-07-30T15:35:23.000Z</time>
      </trkpt>
      <trkpt lat="43.74327" lon="1.40515">
        <ele>164.691708</ele>
        <time>2023-07-30T15:35:24.000Z</time>
      </trkpt>
      <trkpt lat="43.74327" lon="1.40515">
        <ele>164.691708</ele>
        <time>2023-07-30T15:35:26.000Z</time>
      </trkpt>
      <trkpt lat="43.74327" lon="1.40515">
        <ele>164.691708</ele>
        <time>2023-07-30T15:35:27.000Z</time>
      </trkpt>
      <trkpt lat="43.74325" lon="1.40515">
        <ele>164.772473</ele>
        <time>2023-07-30T15:35:29.000Z</time>
      </trkpt>
      <trkpt lat="43.74322" lon="1.40516">
        <ele>164.887202</ele>
        <time>2023-07-30T15:35:31.000Z</time>
      </trkpt>
      <trkpt lat="43.74322" lon="1.40516">
        <ele>164.887202</ele>
        <time>2023-07-30T15:35:31.000Z</time>
      </trkpt>
      <trkpt lat="43.7432" lon="1.40518">
        <ele>165.005956</ele>
        <time>2023-07-30T15:35:33.000Z</time>
      </trkpt>
      <trkpt lat="43.7432" lon="1.40519">
        <ele>165.033617</ele>
        <time>2023-07-30T15:35:33.000Z</time>
      </trkpt>
      <trkpt lat="43.74319" lon="1.4052">
        <ele>165.079404</ele>
        <time>2023-07-30T15:35:35.000Z</time>
      </trkpt>
      <trkpt lat="43.74319" lon="1.4052">
        <ele>165.079404</ele>
        <time>2023-07-30T15:35:35.000Z</time>
      </trkpt>
      <trkpt lat="43.74315" lon="1.40525">
        <ele>165.302107</ele>
        <time>2023-07-30T15:35:37.000Z</time>
      </trkpt>
      <trkpt lat="43.74315" lon="1.40525">
        <ele>165.302107</ele>
        <time>2023-07-30T15:35:37.000Z</time>
      </trkpt>
      <trkpt lat="43.74314" lon="1.40526">
        <ele>165.366835</ele>
        <time>2023-07-30T15:35:38.000Z</time>
      </trkpt>
      <trkpt lat="43.74312" lon="1.40527">
        <ele>165.440427</ele>
        <time>2023-07-30T15:35:39.000Z</time>
      </trkpt>
      <trkpt lat="43.74312" lon="1.40527">
        <ele>165.440427</ele>
        <time>2023-07-30T15:35:39.000Z</time>
      </trkpt>
      <trkpt lat="43.74312" lon="1.40528">
        <ele>165.483157</ele>
        <time>2023-07-30T15:35:41.000Z</time>
      </trkpt>
      <trkpt lat="43.74312" lon="1.40528">
        <ele>165.483157</ele>
        <time>2023-07-30T15:35:41.000Z</time>
      </trkpt>
      <trkpt lat="43.74309" lon="1.40529">
        <ele>165.586521</ele>
        <time>2023-07-30T15:35:43.000Z</time>
      </trkpt>
      <trkpt lat="43.74309" lon="1.40529">
        <ele>165.586521</ele>
        <time>2023-07-30T15:35:43.000Z</time>
      </trkpt>
      <trkpt lat="43.74307" lon="1.4053">
        <ele>165.707949</ele>
        <time>2023-07-30T15:35:44.000Z</time>
      </trkpt>
      <trkpt lat="43.74307" lon="1.4053">
        <ele>165.707949</ele>
        <time>2023-07-30T15:35:44.000Z</time>
      </trkpt>
      <trkpt lat="43.74304" lon="1.40531">
        <ele>165.810353</ele>
        <time>2023-07-30T15:35:45.000Z</time>
      </trkpt>
      <trkpt lat="43.74304" lon="1.40531">
        <ele>165.810353</ele>
        <time>2023-07-30T15:35:45.000Z</time>
      </trkpt>
      <trkpt lat="43.74303" lon="1.40532">
        <ele>165.859532</ele>
        <time>2023-07-30T15:35:45.000Z</time>
      </trkpt>
      <trkpt lat="43.743" lon="1.40533">
        <ele>165.994076</ele>
        <time>2023-07-30T15:35:47.000Z</time>
      </trkpt>
      <trkpt lat="43.743" lon="1.40533">
        <ele>165.994076</ele>
        <time>2023-07-30T15:35:47.000Z</time>
      </trkpt>
      <trkpt lat="43.74296" lon="1.40534">
        <ele>166.158981</ele>
        <time>2023-07-30T15:35:48.000Z</time>
      </trkpt>
      <trkpt lat="43.74296" lon="1.40534">
        <ele>166.158981</ele>
        <time>2023-07-30T15:35:48.000Z</time>
      </trkpt>
      <trkpt lat="43.74292" lon="1.40534">
        <ele>166.337411</ele>
        <time>2023-07-30T15:35:49.000Z</time>
      </trkpt>
      <trkpt lat="43.74288" lon="1.40533">
        <ele>166.52022</ele>
        <time>2023-07-30T15:35:50.000Z</time>
      </trkpt>
      <trkpt lat="43.74288" lon="1.40533">
        <ele>166.52022</ele>
        <time>2023-07-30T15:35:50.000Z</time>
      </trkpt>
      <trkpt lat="43.74283" lon="1.40531">
        <ele>166.725027</ele>
        <time>2023-07-30T15:35:52.000Z</time>
      </trkpt>
      <trkpt lat="43.74283" lon="1.40531">
        <ele>166.725027</ele>
        <time>2023-07-30T15:35:52.000Z</time>
      </trkpt>
      <trkpt lat="43.74278" lon="1.40527">
        <ele>166.96943</ele>
        <time>2023-07-30T15:35:52.000Z</time>
      </trkpt>
      <trkpt lat="43.74278" lon="1.40527">
        <ele>166.96943</ele>
        <time>2023-07-30T15:35:52.000Z</time>
      </trkpt>
      <trkpt lat="43.74273" lon="1.40524">
        <ele>167.202147</ele>
        <time>2023-07-30T15:35:54.000Z</time>
      </trkpt>
      <trkpt lat="43.74273" lon="1.40524">
        <ele>167.202147</ele>
        <time>2023-07-30T15:35:54.000Z</time>
      </trkpt>
      <trkpt lat="43.74267" lon="1.4052">
        <ele>167.479372</ele>
        <time>2023-07-30T15:35:55.000Z</time>
      </trkpt>
      <trkpt lat="43.74267" lon="1.4052">
        <ele>167.479372</ele>
        <time>2023-07-30T15:35:55.000Z</time>
      </trkpt>
      <trkpt lat="43.74263" lon="1.40517">
        <ele>167.700879</ele>
        <time>2023-07-30T15:35:57.000Z</time>
      </trkpt>
      <trkpt lat="43.74263" lon="1.40517">
        <ele>167.700879</ele>
        <time>2023-07-30T15:35:57.000Z</time>
      </trkpt>
      <trkpt lat="43.74254" lon="1.4051">
        <ele>168.131709</ele>
        <time>2023-07-30T15:35:57.000Z</time>
      </trkpt>
      <trkpt lat="43.74254" lon="1.4051">
        <ele>168.131709</ele>
        <time>2023-07-30T15:35:57.000Z</time>
      </trkpt>
      <trkpt lat="43.7425" lon="1.40508">
        <ele>168.310426</ele>
        <time>2023-07-30T15:35:59.000Z</time>
      </trkpt>
      <trkpt lat="43.7425" lon="1.40508">
        <ele>168.310426</ele>
        <time>2023-07-30T15:35:59.000Z</time>
      </trkpt>
      <trkpt lat="43.74246" lon="1.40505">
        <ele>168.4943</ele>
        <time>2023-07-30T15:36:00.000Z</time>
      </trkpt>
      <trkpt lat="43.74246" lon="1.40505">
        <ele>168.4943</ele>
        <time>2023-07-30T15:36:00.000Z</time>
      </trkpt>
      <trkpt lat="43.74241" lon="1.40502">
        <ele>168.703871</ele>
        <time>2023-07-30T15:36:01.000Z</time>
      </trkpt>
      <trkpt lat="43.74235" lon="1.40499">
        <ele>168.98436</ele>
        <time>2023-07-30T15:36:02.000Z</time>
      </trkpt>
      <trkpt lat="43.74235" lon="1.40499">
        <ele>168.98436</ele>
        <time>2023-07-30T15:36:02.000Z</time>
      </trkpt>
      <trkpt lat="43.7423" lon="1.40497">
        <ele>169.225271</ele>
        <time>2023-07-30T15:36:03.000Z</time>
      </trkpt>
      <trkpt lat="43.7423" lon="1.40497">
        <ele>169.225271</ele>
        <time>2023-07-30T15:36:03.000Z</time>
      </trkpt>
      <trkpt lat="43.74225" lon="1.40494">
        <ele>169.44505</ele>
        <time>2023-07-30T15:36:04.000Z</time>
      </trkpt>
      <trkpt lat="43.74225" lon="1.40494">
        <ele>169.44505</ele>
        <time>2023-07-30T15:36:04.000Z</time>
      </trkpt>
      <trkpt lat="43.7422" lon="1.40492">
        <ele>169.654966</ele>
        <time>2023-07-30T15:36:05.000Z</time>
      </trkpt>
      <trkpt lat="43.7422" lon="1.40492">
        <ele>169.654966</ele>
        <time>2023-07-30T15:36:05.000Z</time>
      </trkpt>
      <trkpt lat="43.74216" lon="1.40489">
        <ele>169.870963</ele>
        <time>2023-07-30T15:36:05.000Z</time>
      </trkpt>
      <trkpt lat="43.74216" lon="1.40489">
        <ele>169.870963</ele>
        <time>2023-07-30T15:36:05.000Z</time>
      </trkpt>
      <trkpt lat="43.74211" lon="1.40486">
        <ele>170.0832</ele>
        <time>2023-07-30T15:36:06.000Z</time>
      </trkpt>
      <trkpt lat="43.74211" lon="1.40486">
        <ele>170.0832</ele>
        <time>2023-07-30T15:36:06.000Z</time>
      </trkpt>
      <trkpt lat="43.74207" lon="1.40483">
        <ele>170.300522</ele>
        <time>2023-07-30T15:36:07.000Z</time>
      </trkpt>
      <trkpt lat="43.74207" lon="1.40483">
        <ele>170.300522</ele>
        <time>2023-07-30T15:36:07.000Z</time>
      </trkpt>
      <trkpt lat="43.74202" lon="1.4048">
        <ele>170.510094</ele>
        <time>2023-07-30T15:36:08.000Z</time>
      </trkpt>
      <trkpt lat="43.74202" lon="1.4048">
        <ele>170.510094</ele>
        <time>2023-07-30T15:36:08.000Z</time>
      </trkpt>
      <trkpt lat="43.742" lon="1.40479">
        <ele>170.601524</ele>
        <time>2023-07-30T15:36:10.000Z</time>
      </trkpt>
      <trkpt lat="43.742" lon="1.40479">
        <ele>170.601524</ele>
        <time>2023-07-30T15:36:10.000Z</time>
      </trkpt>
      <trkpt lat="43.74197" lon="1.40476">
        <ele>170.753922</ele>
        <time>2023-07-30T15:36:11.000Z</time>
      </trkpt>
      <trkpt lat="43.74194" lon="1.40473">
        <ele>170.91862</ele>
        <time>2023-07-30T15:36:11.000Z</time>
      </trkpt>
      <trkpt lat="43.74194" lon="1.40473">
        <ele>170.91862</ele>
        <time>2023-07-30T15:36:11.000Z</time>
      </trkpt>
      <trkpt lat="43.74191" lon="1.40469">
        <ele>171.086612</ele>
        <time>2023-07-30T15:36:13.000Z</time>
      </trkpt>
      <trkpt lat="43.74191" lon="1.40469">
        <ele>171.086612</ele>
        <time>2023-07-30T15:36:13.000Z</time>
      </trkpt>
      <trkpt lat="43.74189" lon="1.40465">
        <ele>171.261444</ele>
        <time>2023-07-30T15:36:13.000Z</time>
      </trkpt>
      <trkpt lat="43.74189" lon="1.40465">
        <ele>171.261444</ele>
        <time>2023-07-30T15:36:13.000Z</time>
      </trkpt>
      <trkpt lat="43.74187" lon="1.40461">
        <ele>171.39094</ele>
        <time>2023-07-30T15:36:15.000Z</time>
      </trkpt>
      <trkpt lat="43.74184" lon="1.40455">
        <ele>171.610476</ele>
        <time>2023-07-30T15:36:16.000Z</time>
      </trkpt>
      <trkpt lat="43.74184" lon="1.40455">
        <ele>171.610476</ele>
        <time>2023-07-30T15:36:16.000Z</time>
      </trkpt>
      <trkpt lat="43.7418" lon="1.40452">
        <ele>171.804359</ele>
        <time>2023-07-30T15:36:18.000Z</time>
      </trkpt>
      <trkpt lat="43.74176" lon="1.40447">
        <ele>171.913881</ele>
        <time>2023-07-30T15:36:19.000Z</time>
      </trkpt>
      <trkpt lat="43.74176" lon="1.40447">
        <ele>171.913881</ele>
        <time>2023-07-30T15:36:19.000Z</time>
      </trkpt>
      <trkpt lat="43.74173" lon="1.40443">
        <ele>171.99341</ele>
        <time>2023-07-30T15:36:19.000Z</time>
      </trkpt>
      <trkpt lat="43.74169" lon="1.40439">
        <ele>172.070483</ele>
        <time>2023-07-30T15:36:21.000Z</time>
      </trkpt>
      <trkpt lat="43.74169" lon="1.40439">
        <ele>172.070483</ele>
        <time>2023-07-30T15:36:21.000Z</time>
      </trkpt>
      <trkpt lat="43.74165" lon="1.40435">
        <ele>172.15609</ele>
        <time>2023-07-30T15:36:22.000Z</time>
      </trkpt>
      <trkpt lat="43.74158" lon="1.40427">
        <ele>172.328416</ele>
        <time>2023-07-30T15:36:24.000Z</time>
      </trkpt>
      <trkpt lat="43.74158" lon="1.40427">
        <ele>172.328416</ele>
        <time>2023-07-30T15:36:24.000Z</time>
      </trkpt>
      <trkpt lat="43.74154" lon="1.40423">
        <ele>172.404694</ele>
        <time>2023-07-30T15:36:25.000Z</time>
      </trkpt>
      <trkpt lat="43.74151" lon="1.40419">
        <ele>172.492894</ele>
        <time>2023-07-30T15:36:26.000Z</time>
      </trkpt>
      <trkpt lat="43.74147" lon="1.40415">
        <ele>172.572944</ele>
        <time>2023-07-30T15:36:27.000Z</time>
      </trkpt>
      <trkpt lat="43.74143" lon="1.40409">
        <ele>172.676683</ele>
        <time>2023-07-30T15:36:28.000Z</time>
      </trkpt>
      <trkpt lat="43.74143" lon="1.40409">
        <ele>172.676683</ele>
        <time>2023-07-30T15:36:28.000Z</time>
      </trkpt>
      <trkpt lat="43.74139" lon="1.40403">
        <ele>172.781319</ele>
        <time>2023-07-30T15:36:29.000Z</time>
      </trkpt>
      <trkpt lat="43.74136" lon="1.40399">
        <ele>172.848936</ele>
        <time>2023-07-30T15:36:29.000Z</time>
      </trkpt>
      <trkpt lat="43.74136" lon="1.40399">
        <ele>172.848936</ele>
        <time>2023-07-30T15:36:29.000Z</time>
      </trkpt>
      <trkpt lat="43.74135" lon="1.40397">
        <ele>172.881462</ele>
        <time>2023-07-30T15:36:32.000Z</time>
      </trkpt>
      <trkpt lat="43.74135" lon="1.40397">
        <ele>172.881462</ele>
        <time>2023-07-30T15:36:32.000Z</time>
      </trkpt>
      <trkpt lat="43.74133" lon="1.40396">
        <ele>172.923287</ele>
        <time>2023-07-30T15:36:32.000Z</time>
      </trkpt>
      <trkpt lat="43.74133" lon="1.40396">
        <ele>172.923287</ele>
        <time>2023-07-30T15:36:32.000Z</time>
      </trkpt>
      <trkpt lat="43.74132" lon="1.40397">
        <ele>172.947221</ele>
        <time>2023-07-30T15:36:33.000Z</time>
      </trkpt>
      <trkpt lat="43.7413" lon="1.40401">
        <ele>173.004028</ele>
        <time>2023-07-30T15:36:34.000Z</time>
      </trkpt>
      <trkpt lat="43.74128" lon="1.40405">
        <ele>173.073228</ele>
        <time>2023-07-30T15:36:35.000Z</time>
      </trkpt>
      <trkpt lat="43.74128" lon="1.40405">
        <ele>173.073228</ele>
        <time>2023-07-30T15:36:35.000Z</time>
      </trkpt>
      <trkpt lat="43.74126" lon="1.40411">
        <ele>173.1567</ele>
        <time>2023-07-30T15:36:36.000Z</time>
      </trkpt>
      <trkpt lat="43.74123" lon="1.40418">
        <ele>173.253526</ele>
        <time>2023-07-30T15:36:39.000Z</time>
      </trkpt>
      <trkpt lat="43.74123" lon="1.40418">
        <ele>173.253526</ele>
        <time>2023-07-30T15:36:39.000Z</time>
      </trkpt>
      <trkpt lat="43.74122" lon="1.40424">
        <ele>173.332357</ele>
        <time>2023-07-30T15:36:40.000Z</time>
      </trkpt>
      <trkpt lat="43.7412" lon="1.4043">
        <ele>173.416998</ele>
        <time>2023-07-30T15:36:40.000Z</time>
      </trkpt>
      <trkpt lat="43.74118" lon="1.40437">
        <ele>173.517066</ele>
        <time>2023-07-30T15:36:42.000Z</time>
      </trkpt>
      <trkpt lat="43.74115" lon="1.40444">
        <ele>173.611584</ele>
        <time>2023-07-30T15:36:43.000Z</time>
      </trkpt>
      <trkpt lat="43.74115" lon="1.40444">
        <ele>173.611584</ele>
        <time>2023-07-30T15:36:43.000Z</time>
      </trkpt>
      <trkpt lat="43.74114" lon="1.40451">
        <ele>173.705672</ele>
        <time>2023-07-30T15:36:44.000Z</time>
      </trkpt>
      <trkpt lat="43.74112" lon="1.40457">
        <ele>173.785971</ele>
        <time>2023-07-30T15:36:45.000Z</time>
      </trkpt>
      <trkpt lat="43.7411" lon="1.40464">
        <ele>173.890963</ele>
        <time>2023-07-30T15:36:46.000Z</time>
      </trkpt>
      <trkpt lat="43.74108" lon="1.40472">
        <ele>173.99464</ele>
        <time>2023-07-30T15:36:47.000Z</time>
      </trkpt>
      <trkpt lat="43.74105" lon="1.4048">
        <ele>174.110621</ele>
        <time>2023-07-30T15:36:48.000Z</time>
      </trkpt>
      <trkpt lat="43.74105" lon="1.4048">
        <ele>174.110621</ele>
        <time>2023-07-30T15:36:48.000Z</time>
      </trkpt>
      <trkpt lat="43.74102" lon="1.40486">
        <ele>174.205055</ele>
        <time>2023-07-30T15:36:49.000Z</time>
      </trkpt>
      <trkpt lat="43.74099" lon="1.4049">
        <ele>174.276776</ele>
        <time>2023-07-30T15:36:49.000Z</time>
      </trkpt>
      <trkpt lat="43.74099" lon="1.4049">
        <ele>174.276776</ele>
        <time>2023-07-30T15:36:49.000Z</time>
      </trkpt>
      <trkpt lat="43.74097" lon="1.40491">
        <ele>174.30887</ele>
        <time>2023-07-30T15:36:50.000Z</time>
      </trkpt>
      <trkpt lat="43.74097" lon="1.40491">
        <ele>174.30887</ele>
        <time>2023-07-30T15:36:50.000Z</time>
      </trkpt>
      <trkpt lat="43.74096" lon="1.40491">
        <ele>174.335325</ele>
        <time>2023-07-30T15:36:52.000Z</time>
      </trkpt>
      <trkpt lat="43.74094" lon="1.40491">
        <ele>174.375889</ele>
        <time>2023-07-30T15:36:53.000Z</time>
      </trkpt>
      <trkpt lat="43.74085" lon="1.40489">
        <ele>174.533421</ele>
        <time>2023-07-30T15:36:53.000Z</time>
      </trkpt>
      <trkpt lat="43.74085" lon="1.40489">
        <ele>174.533421</ele>
        <time>2023-07-30T15:36:53.000Z</time>
      </trkpt>
      <trkpt lat="43.74078" lon="1.40486">
        <ele>174.652067</ele>
        <time>2023-07-30T15:36:55.000Z</time>
      </trkpt>
      <trkpt lat="43.74073" lon="1.40483">
        <ele>174.759172</ele>
        <time>2023-07-30T15:36:55.000Z</time>
      </trkpt>
      <trkpt lat="43.74063" lon="1.40477">
        <ele>174.950892</ele>
        <time>2023-07-30T15:36:57.000Z</time>
      </trkpt>
      <trkpt lat="43.74063" lon="1.40477">
        <ele>174.950892</ele>
        <time>2023-07-30T15:36:57.000Z</time>
      </trkpt>
      <trkpt lat="43.74057" lon="1.40474">
        <ele>175.043136</ele>
        <time>2023-07-30T15:36:58.000Z</time>
      </trkpt>
      <trkpt lat="43.74052" lon="1.40471">
        <ele>175.114772</ele>
        <time>2023-07-30T15:36:59.000Z</time>
      </trkpt>
      <trkpt lat="43.74047" lon="1.40468">
        <ele>175.181264</ele>
        <time>2023-07-30T15:37:00.000Z</time>
      </trkpt>
      <trkpt lat="43.74042" lon="1.40466">
        <ele>175.246263</ele>
        <time>2023-07-30T15:37:01.000Z</time>
      </trkpt>
      <trkpt lat="43.74042" lon="1.40466">
        <ele>175.246263</ele>
        <time>2023-07-30T15:37:01.000Z</time>
      </trkpt>
      <trkpt lat="43.74037" lon="1.40464">
        <ele>175.305389</ele>
        <time>2023-07-30T15:37:02.000Z</time>
      </trkpt>
      <trkpt lat="43.74032" lon="1.40461">
        <ele>175.375653</ele>
        <time>2023-07-30T15:37:03.000Z</time>
      </trkpt>
      <trkpt lat="43.74026" lon="1.40459">
        <ele>175.45089</ele>
        <time>2023-07-30T15:37:03.000Z</time>
      </trkpt>
      <trkpt lat="43.74021" lon="1.40456">
        <ele>175.519702</ele>
        <time>2023-07-30T15:37:05.000Z</time>
      </trkpt>
      <trkpt lat="43.74021" lon="1.40456">
        <ele>175.519702</ele>
        <time>2023-07-30T15:37:05.000Z</time>
      </trkpt>
      <trkpt lat="43.74015" lon="1.40454">
        <ele>175.589967</ele>
        <time>2023-07-30T15:37:06.000Z</time>
      </trkpt>
      <trkpt lat="43.74011" lon="1.40451">
        <ele>175.650379</ele>
        <time>2023-07-30T15:37:07.000Z</time>
      </trkpt>
      <trkpt lat="43.74005" lon="1.40448">
        <ele>175.727406</ele>
        <time>2023-07-30T15:37:08.000Z</time>
      </trkpt>
      <trkpt lat="43.74001" lon="1.40446">
        <ele>175.787141</ele>
        <time>2023-07-30T15:37:09.000Z</time>
      </trkpt>
      <trkpt lat="43.74001" lon="1.40446">
        <ele>175.787141</ele>
        <time>2023-07-30T15:37:09.000Z</time>
      </trkpt>
      <trkpt lat="43.73996" lon="1.40445">
        <ele>175.843605</ele>
        <time>2023-07-30T15:37:09.000Z</time>
      </trkpt>
      <trkpt lat="43.73996" lon="1.40445">
        <ele>175.843605</ele>
        <time>2023-07-30T15:37:09.000Z</time>
      </trkpt>
      <trkpt lat="43.73992" lon="1.40445">
        <ele>175.895761</ele>
        <time>2023-07-30T15:37:11.000Z</time>
      </trkpt>
      <trkpt lat="43.73988" lon="1.40447">
        <ele>175.942019</ele>
        <time>2023-07-30T15:37:12.000Z</time>
      </trkpt>
      <trkpt lat="43.73986" lon="1.40449">
        <ele>175.98124</ele>
        <time>2023-07-30T15:37:13.000Z</time>
      </trkpt>
      <trkpt lat="43.73982" lon="1.40455">
        <ele>176.048881</ele>
        <time>2023-07-30T15:37:14.000Z</time>
      </trkpt>
      <trkpt lat="43.73979" lon="1.40461">
        <ele>176.118552</ele>
        <time>2023-07-30T15:37:15.000Z</time>
      </trkpt>
      <trkpt lat="43.73975" lon="1.40466">
        <ele>176.184128</ele>
        <time>2023-07-30T15:37:16.000Z</time>
      </trkpt>
      <trkpt lat="43.73971" lon="1.40468">
        <ele>176.240086</ele>
        <time>2023-07-30T15:37:17.000Z</time>
      </trkpt>
      <trkpt lat="43.73971" lon="1.40468">
        <ele>176.240086</ele>
        <time>2023-07-30T15:37:17.000Z</time>
      </trkpt>
      <trkpt lat="43.73966" lon="1.40469">
        <ele>176.302134</ele>
        <time>2023-07-30T15:37:18.000Z</time>
      </trkpt>
      <trkpt lat="43.73961" lon="1.40467">
        <ele>176.364941</ele>
        <time>2023-07-30T15:37:19.000Z</time>
      </trkpt>
      <trkpt lat="43.73956" lon="1.40464">
        <ele>176.431433</ele>
        <time>2023-07-30T15:37:20.000Z</time>
      </trkpt>
      <trkpt lat="43.73951" lon="1.40462">
        <ele>176.496447</ele>
        <time>2023-07-30T15:37:20.000Z</time>
      </trkpt>
      <trkpt lat="43.73947" lon="1.40459">
        <ele>176.55274</ele>
        <time>2023-07-30T15:37:22.000Z</time>
      </trkpt>
      <trkpt lat="43.73947" lon="1.40459">
        <ele>176.55274</ele>
        <time>2023-07-30T15:37:22.000Z</time>
      </trkpt>
      <trkpt lat="43.73942" lon="1.40456">
        <ele>176.620616</ele>
        <time>2023-07-30T15:37:23.000Z</time>
      </trkpt>
      <trkpt lat="43.73937" lon="1.40454">
        <ele>176.682173</ele>
        <time>2023-07-30T15:37:24.000Z</time>
      </trkpt>
      <trkpt lat="43.73932" lon="1.40451">
        <ele>176.747849</ele>
        <time>2023-07-30T15:37:25.000Z</time>
      </trkpt>
      <trkpt lat="43.73927" lon="1.40448">
        <ele>176.814672</ele>
        <time>2023-07-30T15:37:26.000Z</time>
      </trkpt>
      <trkpt lat="43.73923" lon="1.40445">
        <ele>176.876573</ele>
        <time>2023-07-30T15:37:27.000Z</time>
      </trkpt>
      <trkpt lat="43.73917" lon="1.40442">
        <ele>176.947857</ele>
        <time>2023-07-30T15:37:28.000Z</time>
      </trkpt>
      <trkpt lat="43.73917" lon="1.40442">
        <ele>176.947857</ele>
        <time>2023-07-30T15:37:28.000Z</time>
      </trkpt>
      <trkpt lat="43.73913" lon="1.40439">
        <ele>177.010479</ele>
        <time>2023-07-30T15:37:29.000Z</time>
      </trkpt>
      <trkpt lat="43.73908" lon="1.40436">
        <ele>177.08402</ele>
        <time>2023-07-30T15:37:29.000Z</time>
      </trkpt>
      <trkpt lat="43.73908" lon="1.40436">
        <ele>177.08402</ele>
        <time>2023-07-30T15:37:29.000Z</time>
      </trkpt>
      <trkpt lat="43.73897" lon="1.40429">
        <ele>177.225786</ele>
        <time>2023-07-30T15:37:31.000Z</time>
      </trkpt>
      <trkpt lat="43.73897" lon="1.40429">
        <ele>177.225786</ele>
        <time>2023-07-30T15:37:31.000Z</time>
      </trkpt>
      <trkpt lat="43.73896" lon="1.40428">
        <ele>177.199023</ele>
        <time>2023-07-30T15:37:32.000Z</time>
      </trkpt>
      <trkpt lat="43.73896" lon="1.40428">
        <ele>177.199023</ele>
        <time>2023-07-30T15:37:32.000Z</time>
      </trkpt>
      <trkpt lat="43.73892" lon="1.40425">
        <ele>177.035079</ele>
        <time>2023-07-30T15:37:33.000Z</time>
      </trkpt>
      <trkpt lat="43.73892" lon="1.40425">
        <ele>177.035079</ele>
        <time>2023-07-30T15:37:33.000Z</time>
      </trkpt>
      <trkpt lat="43.73887" lon="1.40421">
        <ele>176.822509</ele>
        <time>2023-07-30T15:37:34.000Z</time>
      </trkpt>
      <trkpt lat="43.73887" lon="1.40421">
        <ele>176.822509</ele>
        <time>2023-07-30T15:37:34.000Z</time>
      </trkpt>
      <trkpt lat="43.73883" lon="1.40418">
        <ele>176.621263</ele>
        <time>2023-07-30T15:37:35.000Z</time>
      </trkpt>
      <trkpt lat="43.73883" lon="1.40418">
        <ele>176.621263</ele>
        <time>2023-07-30T15:37:35.000Z</time>
      </trkpt>
      <trkpt lat="43.73879" lon="1.40414">
        <ele>176.435966</ele>
        <time>2023-07-30T15:37:36.000Z</time>
      </trkpt>
      <trkpt lat="43.73879" lon="1.40414">
        <ele>176.435966</ele>
        <time>2023-07-30T15:37:36.000Z</time>
      </trkpt>
      <trkpt lat="43.73876" lon="1.40413">
        <ele>176.336668</ele>
        <time>2023-07-30T15:37:37.000Z</time>
      </trkpt>
      <trkpt lat="43.73876" lon="1.40413">
        <ele>176.336668</ele>
        <time>2023-07-30T15:37:37.000Z</time>
      </trkpt>
      <trkpt lat="43.73872" lon="1.40409">
        <ele>176.164349</ele>
        <time>2023-07-30T15:37:39.000Z</time>
      </trkpt>
      <trkpt lat="43.73872" lon="1.40409">
        <ele>176.164349</ele>
        <time>2023-07-30T15:37:39.000Z</time>
      </trkpt>
      <trkpt lat="43.73869" lon="1.40406">
        <ele>175.996367</ele>
        <time>2023-07-30T15:37:40.000Z</time>
      </trkpt>
      <trkpt lat="43.73869" lon="1.40406">
        <ele>175.996367</ele>
        <time>2023-07-30T15:37:40.000Z</time>
      </trkpt>
      <trkpt lat="43.73864" lon="1.40402">
        <ele>175.806769</ele>
        <time>2023-07-30T15:37:41.000Z</time>
      </trkpt>
      <trkpt lat="43.73864" lon="1.40402">
        <ele>175.806769</ele>
        <time>2023-07-30T15:37:41.000Z</time>
      </trkpt>
      <trkpt lat="43.73861" lon="1.404">
        <ele>175.668728</ele>
        <time>2023-07-30T15:37:42.000Z</time>
      </trkpt>
      <trkpt lat="43.73861" lon="1.404">
        <ele>175.668728</ele>
        <time>2023-07-30T15:37:42.000Z</time>
      </trkpt>
      <trkpt lat="43.73858" lon="1.40397">
        <ele>175.53537</ele>
        <time>2023-07-30T15:37:43.000Z</time>
      </trkpt>
      <trkpt lat="43.73858" lon="1.40397">
        <ele>175.53537</ele>
        <time>2023-07-30T15:37:43.000Z</time>
      </trkpt>
      <trkpt lat="43.73854" lon="1.40394">
        <ele>175.351446</ele>
        <time>2023-07-30T15:37:44.000Z</time>
      </trkpt>
      <trkpt lat="43.73854" lon="1.40394">
        <ele>175.351446</ele>
        <time>2023-07-30T15:37:44.000Z</time>
      </trkpt>
      <trkpt lat="43.73851" lon="1.40392">
        <ele>175.239595</ele>
        <time>2023-07-30T15:37:45.000Z</time>
      </trkpt>
      <trkpt lat="43.73851" lon="1.40392">
        <ele>175.239595</ele>
        <time>2023-07-30T15:37:45.000Z</time>
      </trkpt>
      <trkpt lat="43.73848" lon="1.40391">
        <ele>175.090525</ele>
        <time>2023-07-30T15:37:47.000Z</time>
      </trkpt>
      <trkpt lat="43.73848" lon="1.40391">
        <ele>175.090525</ele>
        <time>2023-07-30T15:37:47.000Z</time>
      </trkpt>
      <trkpt lat="43.73845" lon="1.40391">
        <ele>174.98737</ele>
        <time>2023-07-30T15:37:49.000Z</time>
      </trkpt>
      <trkpt lat="43.73845" lon="1.40391">
        <ele>174.98737</ele>
        <time>2023-07-30T15:37:49.000Z</time>
      </trkpt>
      <trkpt lat="43.73842" lon="1.40393">
        <ele>174.876573</ele>
        <time>2023-07-30T15:37:50.000Z</time>
      </trkpt>
      <trkpt lat="43.7384" lon="1.40396">
        <ele>174.749407</ele>
        <time>2023-07-30T15:37:50.000Z</time>
      </trkpt>
      <trkpt lat="43.73837" lon="1.404">
        <ele>174.586336</ele>
        <time>2023-07-30T15:37:51.000Z</time>
      </trkpt>
      <trkpt lat="43.73834" lon="1.40405">
        <ele>174.418956</ele>
        <time>2023-07-30T15:37:52.000Z</time>
      </trkpt>
      <trkpt lat="43.73831" lon="1.40412">
        <ele>174.202591</ele>
        <time>2023-07-30T15:37:54.000Z</time>
      </trkpt>
      <trkpt lat="43.73831" lon="1.40412">
        <ele>174.202591</ele>
        <time>2023-07-30T15:37:54.000Z</time>
      </trkpt>
      <trkpt lat="43.73824" lon="1.40425">
        <ele>173.767595</ele>
        <time>2023-07-30T15:37:55.000Z</time>
      </trkpt>
      <trkpt lat="43.73824" lon="1.40425">
        <ele>173.767595</ele>
        <time>2023-07-30T15:37:55.000Z</time>
      </trkpt>
      <trkpt lat="43.73822" lon="1.4043">
        <ele>173.602176</ele>
        <time>2023-07-30T15:37:56.000Z</time>
      </trkpt>
      <trkpt lat="43.73819" lon="1.40435">
        <ele>173.421485</ele>
        <time>2023-07-30T15:37:58.000Z</time>
      </trkpt>
      <trkpt lat="43.73819" lon="1.40435">
        <ele>173.421485</ele>
        <time>2023-07-30T15:37:58.000Z</time>
      </trkpt>
      <trkpt lat="43.73816" lon="1.40442">
        <ele>173.206936</ele>
        <time>2023-07-30T15:37:59.000Z</time>
      </trkpt>
      <trkpt lat="43.73816" lon="1.40442">
        <ele>173.206936</ele>
        <time>2023-07-30T15:37:59.000Z</time>
      </trkpt>
      <trkpt lat="43.73814" lon="1.40448">
        <ele>173.022474</ele>
        <time>2023-07-30T15:37:59.000Z</time>
      </trkpt>
      <trkpt lat="43.73811" lon="1.40454">
        <ele>172.813785</ele>
        <time>2023-07-30T15:38:01.000Z</time>
      </trkpt>
      <trkpt lat="43.73811" lon="1.40454">
        <ele>172.813785</ele>
        <time>2023-07-30T15:38:01.000Z</time>
      </trkpt>
      <trkpt lat="43.73808" lon="1.40459">
        <ele>172.618767</ele>
        <time>2023-07-30T15:38:02.000Z</time>
      </trkpt>
      <trkpt lat="43.73808" lon="1.40459">
        <ele>172.618767</ele>
        <time>2023-07-30T15:38:02.000Z</time>
      </trkpt>
      <trkpt lat="43.73805" lon="1.40463">
        <ele>172.463896</ele>
        <time>2023-07-30T15:38:03.000Z</time>
      </trkpt>
      <trkpt lat="43.73805" lon="1.40463">
        <ele>172.463896</ele>
        <time>2023-07-30T15:38:03.000Z</time>
      </trkpt>
      <trkpt lat="43.73802" lon="1.40465">
        <ele>172.338833</ele>
        <time>2023-07-30T15:38:03.000Z</time>
      </trkpt>
      <trkpt lat="43.73794" lon="1.40462">
        <ele>172.023894</ele>
        <time>2023-07-30T15:38:05.000Z</time>
      </trkpt>
      <trkpt lat="43.73794" lon="1.40462">
        <ele>172.023894</ele>
        <time>2023-07-30T15:38:05.000Z</time>
      </trkpt>
      <trkpt lat="43.73789" lon="1.40456">
        <ele>171.794188</ele>
        <time>2023-07-30T15:38:07.000Z</time>
      </trkpt>
      <trkpt lat="43.73789" lon="1.40456">
        <ele>171.794188</ele>
        <time>2023-07-30T15:38:07.000Z</time>
      </trkpt>
      <trkpt lat="43.73782" lon="1.40448">
        <ele>171.426557</ele>
        <time>2023-07-30T15:38:08.000Z</time>
      </trkpt>
      <trkpt lat="43.73782" lon="1.40448">
        <ele>171.426557</ele>
        <time>2023-07-30T15:38:08.000Z</time>
      </trkpt>
      <trkpt lat="43.73777" lon="1.40441">
        <ele>171.166199</ele>
        <time>2023-07-30T15:38:09.000Z</time>
      </trkpt>
      <trkpt lat="43.73777" lon="1.40441">
        <ele>171.166199</ele>
        <time>2023-07-30T15:38:09.000Z</time>
      </trkpt>
      <trkpt lat="43.73772" lon="1.40433">
        <ele>170.87158</ele>
        <time>2023-07-30T15:38:11.000Z</time>
      </trkpt>
      <trkpt lat="43.73772" lon="1.40433">
        <ele>170.87158</ele>
        <time>2023-07-30T15:38:11.000Z</time>
      </trkpt>
      <trkpt lat="43.73765" lon="1.40423">
        <ele>170.487111</ele>
        <time>2023-07-30T15:38:12.000Z</time>
      </trkpt>
      <trkpt lat="43.73765" lon="1.40423">
        <ele>170.487111</ele>
        <time>2023-07-30T15:38:12.000Z</time>
      </trkpt>
      <trkpt lat="43.73757" lon="1.40411">
        <ele>168.736528</ele>
        <time>2023-07-30T15:38:13.000Z</time>
      </trkpt>
      <trkpt lat="43.73757" lon="1.40411">
        <ele>168.736528</ele>
        <time>2023-07-30T15:38:13.000Z</time>
      </trkpt>
      <trkpt lat="43.7375" lon="1.40401">
        <ele>167.094528</ele>
        <time>2023-07-30T15:38:14.000Z</time>
      </trkpt>
      <trkpt lat="43.7375" lon="1.40401">
        <ele>167.094528</ele>
        <time>2023-07-30T15:38:14.000Z</time>
      </trkpt>
      <trkpt lat="43.73743" lon="1.40391">
        <ele>165.206946</ele>
        <time>2023-07-30T15:38:14.000Z</time>
      </trkpt>
      <trkpt lat="43.73743" lon="1.40391">
        <ele>165.206946</ele>
        <time>2023-07-30T15:38:14.000Z</time>
      </trkpt>
      <trkpt lat="43.73736" lon="1.40383">
        <ele>163.636311</ele>
        <time>2023-07-30T15:38:15.000Z</time>
      </trkpt>
      <trkpt lat="43.73736" lon="1.40383">
        <ele>163.636311</ele>
        <time>2023-07-30T15:38:15.000Z</time>
      </trkpt>
      <trkpt lat="43.73731" lon="1.40376">
        <ele>162.315536</ele>
        <time>2023-07-30T15:38:17.000Z</time>
      </trkpt>
      <trkpt lat="43.73731" lon="1.40376">
        <ele>162.315536</ele>
        <time>2023-07-30T15:38:17.000Z</time>
      </trkpt>
      <trkpt lat="43.73723" lon="1.40369">
        <ele>160.702338</ele>
        <time>2023-07-30T15:38:18.000Z</time>
      </trkpt>
      <trkpt lat="43.73723" lon="1.40369">
        <ele>160.702338</ele>
        <time>2023-07-30T15:38:18.000Z</time>
      </trkpt>
      <trkpt lat="43.73715" lon="1.40362">
        <ele>159.016953</ele>
        <time>2023-07-30T15:38:19.000Z</time>
      </trkpt>
      <trkpt lat="43.73715" lon="1.40362">
        <ele>159.016953</ele>
        <time>2023-07-30T15:38:19.000Z</time>
      </trkpt>
      <trkpt lat="43.73707" lon="1.40354">
        <ele>157.345896</ele>
        <time>2023-07-30T15:38:19.000Z</time>
      </trkpt>
      <trkpt lat="43.73707" lon="1.40354">
        <ele>157.345896</ele>
        <time>2023-07-30T15:38:19.000Z</time>
      </trkpt>
      <trkpt lat="43.73699" lon="1.40345">
        <ele>155.446056</ele>
        <time>2023-07-30T15:38:21.000Z</time>
      </trkpt>
      <trkpt lat="43.73699" lon="1.40345">
        <ele>155.446056</ele>
        <time>2023-07-30T15:38:21.000Z</time>
      </trkpt>
      <trkpt lat="43.7369" lon="1.40335">
        <ele>153.489173</ele>
        <time>2023-07-30T15:38:22.000Z</time>
      </trkpt>
      <trkpt lat="43.7369" lon="1.40335">
        <ele>153.489173</ele>
        <time>2023-07-30T15:38:22.000Z</time>
      </trkpt>
      <trkpt lat="43.73681" lon="1.40323">
        <ele>151.260103</ele>
        <time>2023-07-30T15:38:23.000Z</time>
      </trkpt>
      <trkpt lat="43.73681" lon="1.40323">
        <ele>151.260103</ele>
        <time>2023-07-30T15:38:23.000Z</time>
      </trkpt>
      <trkpt lat="43.73672" lon="1.40312">
        <ele>149.053448</ele>
        <time>2023-07-30T15:38:24.000Z</time>
      </trkpt>
      <trkpt lat="43.73672" lon="1.40312">
        <ele>149.053448</ele>
        <time>2023-07-30T15:38:24.000Z</time>
      </trkpt>
      <trkpt lat="43.73663" lon="1.403">
        <ele>146.919858</ele>
        <time>2023-07-30T15:38:24.000Z</time>
      </trkpt>
      <trkpt lat="43.73663" lon="1.403">
        <ele>146.919858</ele>
        <time>2023-07-30T15:38:24.000Z</time>
      </trkpt>
      <trkpt lat="43.73654" lon="1.40288">
        <ele>144.695853</ele>
        <time>2023-07-30T15:38:26.000Z</time>
      </trkpt>
      <trkpt lat="43.73654" lon="1.40288">
        <ele>144.695853</ele>
        <time>2023-07-30T15:38:26.000Z</time>
      </trkpt>
      <trkpt lat="43.73646" lon="1.40276">
        <ele>142.649497</ele>
        <time>2023-07-30T15:38:27.000Z</time>
      </trkpt>
      <trkpt lat="43.73646" lon="1.40276">
        <ele>142.649497</ele>
        <time>2023-07-30T15:38:27.000Z</time>
      </trkpt>
      <trkpt lat="43.7364" lon="1.40267">
        <ele>141.0835</ele>
        <time>2023-07-30T15:38:27.000Z</time>
      </trkpt>
      <trkpt lat="43.7364" lon="1.40267">
        <ele>141.0835</ele>
        <time>2023-07-30T15:38:27.000Z</time>
      </trkpt>
      <trkpt lat="43.73634" lon="1.40257">
        <ele>139.364184</ele>
        <time>2023-07-30T15:38:28.000Z</time>
      </trkpt>
      <trkpt lat="43.73634" lon="1.40257">
        <ele>139.364184</ele>
        <time>2023-07-30T15:38:28.000Z</time>
      </trkpt>
      <trkpt lat="43.73628" lon="1.40246">
        <ele>138.262442</ele>
        <time>2023-07-30T15:38:29.000Z</time>
      </trkpt>
      <trkpt lat="43.73628" lon="1.40246">
        <ele>138.262442</ele>
        <time>2023-07-30T15:38:29.000Z</time>
      </trkpt>
      <trkpt lat="43.73622" lon="1.40236">
        <ele>137.745938</ele>
        <time>2023-07-30T15:38:31.000Z</time>
      </trkpt>
      <trkpt lat="43.73622" lon="1.40236">
        <ele>137.745938</ele>
        <time>2023-07-30T15:38:31.000Z</time>
      </trkpt>
      <trkpt lat="43.73617" lon="1.40229">
        <ele>137.340012</ele>
        <time>2023-07-30T15:38:32.000Z</time>
      </trkpt>
      <trkpt lat="43.73617" lon="1.40229">
        <ele>137.340012</ele>
        <time>2023-07-30T15:38:32.000Z</time>
      </trkpt>
      <trkpt lat="43.73614" lon="1.40224">
        <ele>137.044928</ele>
        <time>2023-07-30T15:38:33.000Z</time>
      </trkpt>
      <trkpt lat="43.73614" lon="1.40224">
        <ele>137.044928</ele>
        <time>2023-07-30T15:38:33.000Z</time>
      </trkpt>
      <trkpt lat="43.73611" lon="1.40218">
        <ele>136.75138</ele>
        <time>2023-07-30T15:38:34.000Z</time>
      </trkpt>
      <trkpt lat="43.73611" lon="1.40218">
        <ele>136.75138</ele>
        <time>2023-07-30T15:38:34.000Z</time>
      </trkpt>
      <trkpt lat="43.73608" lon="1.40213">
        <ele>136.46292</ele>
        <time>2023-07-30T15:38:34.000Z</time>
      </trkpt>
      <trkpt lat="43.73608" lon="1.40213">
        <ele>136.46292</ele>
        <time>2023-07-30T15:38:34.000Z</time>
      </trkpt>
      <trkpt lat="43.73604" lon="1.40207">
        <ele>136.122207</ele>
        <time>2023-07-30T15:38:36.000Z</time>
      </trkpt>
      <trkpt lat="43.73604" lon="1.40207">
        <ele>136.122207</ele>
        <time>2023-07-30T15:38:36.000Z</time>
      </trkpt>
      <trkpt lat="43.736" lon="1.40201">
        <ele>135.787855</ele>
        <time>2023-07-30T15:38:37.000Z</time>
      </trkpt>
      <trkpt lat="43.736" lon="1.40201">
        <ele>135.787855</ele>
        <time>2023-07-30T15:38:37.000Z</time>
      </trkpt>
      <trkpt lat="43.73596" lon="1.40195">
        <ele>135.422115</ele>
        <time>2023-07-30T15:38:38.000Z</time>
      </trkpt>
      <trkpt lat="43.73596" lon="1.40195">
        <ele>135.422115</ele>
        <time>2023-07-30T15:38:38.000Z</time>
      </trkpt>
      <trkpt lat="43.73591" lon="1.40189">
        <ele>135.066213</ele>
        <time>2023-07-30T15:38:39.000Z</time>
      </trkpt>
      <trkpt lat="43.73591" lon="1.40189">
        <ele>135.066213</ele>
        <time>2023-07-30T15:38:39.000Z</time>
      </trkpt>
      <trkpt lat="43.73587" lon="1.40184">
        <ele>134.72835</ele>
        <time>2023-07-30T15:38:40.000Z</time>
      </trkpt>
      <trkpt lat="43.73587" lon="1.40184">
        <ele>134.72835</ele>
        <time>2023-07-30T15:38:40.000Z</time>
      </trkpt>
      <trkpt lat="43.73583" lon="1.40181">
        <ele>134.441315</ele>
        <time>2023-07-30T15:38:41.000Z</time>
      </trkpt>
      <trkpt lat="43.73583" lon="1.40181">
        <ele>134.441315</ele>
        <time>2023-07-30T15:38:41.000Z</time>
      </trkpt>
      <trkpt lat="43.73578" lon="1.40179">
        <ele>134.16256</ele>
        <time>2023-07-30T15:38:42.000Z</time>
      </trkpt>
      <trkpt lat="43.73578" lon="1.40179">
        <ele>134.16256</ele>
        <time>2023-07-30T15:38:42.000Z</time>
      </trkpt>
      <trkpt lat="43.73573" lon="1.40178">
        <ele>133.867356</ele>
        <time>2023-07-30T15:38:43.000Z</time>
      </trkpt>
      <trkpt lat="43.73573" lon="1.40178">
        <ele>133.867356</ele>
        <time>2023-07-30T15:38:43.000Z</time>
      </trkpt>
      <trkpt lat="43.73567" lon="1.4018">
        <ele>133.527654</ele>
        <time>2023-07-30T15:38:44.000Z</time>
      </trkpt>
      <trkpt lat="43.73561" lon="1.40182">
        <ele>133.134853</ele>
        <time>2023-07-30T15:38:45.000Z</time>
      </trkpt>
      <trkpt lat="43.73561" lon="1.40182">
        <ele>133.134853</ele>
        <time>2023-07-30T15:38:45.000Z</time>
      </trkpt>
      <trkpt lat="43.73554" lon="1.40184">
        <ele>132.719322</ele>
        <time>2023-07-30T15:38:46.000Z</time>
      </trkpt>
      <trkpt lat="43.73547" lon="1.40187">
        <ele>132.33219</ele>
        <time>2023-07-30T15:38:47.000Z</time>
      </trkpt>
      <trkpt lat="43.73547" lon="1.40187">
        <ele>132.33219</ele>
        <time>2023-07-30T15:38:47.000Z</time>
      </trkpt>
      <trkpt lat="43.73541" lon="1.40189">
        <ele>131.937208</ele>
        <time>2023-07-30T15:38:47.000Z</time>
      </trkpt>
      <trkpt lat="43.73541" lon="1.40189">
        <ele>131.937208</ele>
        <time>2023-07-30T15:38:47.000Z</time>
      </trkpt>
      <trkpt lat="43.73534" lon="1.40191">
        <ele>131.543338</ele>
        <time>2023-07-30T15:38:49.000Z</time>
      </trkpt>
      <trkpt lat="43.73527" lon="1.40193">
        <ele>131.108447</ele>
        <time>2023-07-30T15:38:49.000Z</time>
      </trkpt>
      <trkpt lat="43.73527" lon="1.40193">
        <ele>131.108447</ele>
        <time>2023-07-30T15:38:49.000Z</time>
      </trkpt>
      <trkpt lat="43.73521" lon="1.40195">
        <ele>130.744949</ele>
        <time>2023-07-30T15:38:51.000Z</time>
      </trkpt>
      <trkpt lat="43.73521" lon="1.40195">
        <ele>130.744949</ele>
        <time>2023-07-30T15:38:51.000Z</time>
      </trkpt>
      <trkpt lat="43.73514" lon="1.40195">
        <ele>130.346263</ele>
        <time>2023-07-30T15:38:52.000Z</time>
      </trkpt>
      <trkpt lat="43.73514" lon="1.40195">
        <ele>130.346263</ele>
        <time>2023-07-30T15:38:52.000Z</time>
      </trkpt>
      <trkpt lat="43.73508" lon="1.40195">
        <ele>129.965679</ele>
        <time>2023-07-30T15:38:53.000Z</time>
      </trkpt>
      <trkpt lat="43.73508" lon="1.40195">
        <ele>129.965679</ele>
        <time>2023-07-30T15:38:53.000Z</time>
      </trkpt>
      <trkpt lat="43.73501" lon="1.40193">
        <ele>129.544693</ele>
        <time>2023-07-30T15:38:54.000Z</time>
      </trkpt>
      <trkpt lat="43.73501" lon="1.40193">
        <ele>129.544693</ele>
        <time>2023-07-30T15:38:54.000Z</time>
      </trkpt>
      <trkpt lat="43.73494" lon="1.40189">
        <ele>129.134791</ele>
        <time>2023-07-30T15:38:55.000Z</time>
      </trkpt>
      <trkpt lat="43.73494" lon="1.40189">
        <ele>129.134791</ele>
        <time>2023-07-30T15:38:55.000Z</time>
      </trkpt>
      <trkpt lat="43.73488" lon="1.40184">
        <ele>128.719714</ele>
        <time>2023-07-30T15:38:55.000Z</time>
      </trkpt>
      <trkpt lat="43.73488" lon="1.40184">
        <ele>128.719714</ele>
        <time>2023-07-30T15:38:55.000Z</time>
      </trkpt>
      <trkpt lat="43.73483" lon="1.4018">
        <ele>128.343611</ele>
        <time>2023-07-30T15:38:57.000Z</time>
      </trkpt>
      <trkpt lat="43.73483" lon="1.4018">
        <ele>128.343611</ele>
        <time>2023-07-30T15:38:57.000Z</time>
      </trkpt>
      <trkpt lat="43.73476" lon="1.40176">
        <ele>128.024781</ele>
        <time>2023-07-30T15:38:58.000Z</time>
      </trkpt>
      <trkpt lat="43.73476" lon="1.40176">
        <ele>128.024781</ele>
        <time>2023-07-30T15:38:58.000Z</time>
      </trkpt>
      <trkpt lat="43.73468" lon="1.40174">
        <ele>127.872899</ele>
        <time>2023-07-30T15:38:59.000Z</time>
      </trkpt>
      <trkpt lat="43.73468" lon="1.40174">
        <ele>127.872899</ele>
        <time>2023-07-30T15:38:59.000Z</time>
      </trkpt>
      <trkpt lat="43.73462" lon="1.40174">
        <ele>127.730091</ele>
        <time>2023-07-30T15:39:00.000Z</time>
      </trkpt>
      <trkpt lat="43.73462" lon="1.40174">
        <ele>127.730091</ele>
        <time>2023-07-30T15:39:00.000Z</time>
      </trkpt>
      <trkpt lat="43.73454" lon="1.40174">
        <ele>127.573152</ele>
        <time>2023-07-30T15:39:00.000Z</time>
      </trkpt>
      <trkpt lat="43.73454" lon="1.40174">
        <ele>127.573152</ele>
        <time>2023-07-30T15:39:00.000Z</time>
      </trkpt>
      <trkpt lat="43.73447" lon="1.40175">
        <ele>127.424056</ele>
        <time>2023-07-30T15:39:02.000Z</time>
      </trkpt>
      <trkpt lat="43.73447" lon="1.40175">
        <ele>127.424056</ele>
        <time>2023-07-30T15:39:02.000Z</time>
      </trkpt>
      <trkpt lat="43.73439" lon="1.40176">
        <ele>127.272314</ele>
        <time>2023-07-30T15:39:03.000Z</time>
      </trkpt>
      <trkpt lat="43.73431" lon="1.40178">
        <ele>127.104769</ele>
        <time>2023-07-30T15:39:03.000Z</time>
      </trkpt>
      <trkpt lat="43.73431" lon="1.40178">
        <ele>127.104769</ele>
        <time>2023-07-30T15:39:03.000Z</time>
      </trkpt>
      <trkpt lat="43.73425" lon="1.4018">
        <ele>126.96794</ele>
        <time>2023-07-30T15:39:04.000Z</time>
      </trkpt>
      <trkpt lat="43.73425" lon="1.4018">
        <ele>126.96794</ele>
        <time>2023-07-30T15:39:04.000Z</time>
      </trkpt>
      <trkpt lat="43.73417" lon="1.40182">
        <ele>126.807033</ele>
        <time>2023-07-30T15:39:06.000Z</time>
      </trkpt>
      <trkpt lat="43.7341" lon="1.40185">
        <ele>126.645073</ele>
        <time>2023-07-30T15:39:07.000Z</time>
      </trkpt>
      <trkpt lat="43.7341" lon="1.40185">
        <ele>126.645073</ele>
        <time>2023-07-30T15:39:07.000Z</time>
      </trkpt>
      <trkpt lat="43.73402" lon="1.40188">
        <ele>126.472741</ele>
        <time>2023-07-30T15:39:08.000Z</time>
      </trkpt>
      <trkpt lat="43.73394" lon="1.40191">
        <ele>126.30961</ele>
        <time>2023-07-30T15:39:09.000Z</time>
      </trkpt>
      <trkpt lat="43.73394" lon="1.40191">
        <ele>126.30961</ele>
        <time>2023-07-30T15:39:09.000Z</time>
      </trkpt>
      <trkpt lat="43.73388" lon="1.40194">
        <ele>126.168176</ele>
        <time>2023-07-30T15:39:10.000Z</time>
      </trkpt>
      <trkpt lat="43.73388" lon="1.40194">
        <ele>126.168176</ele>
        <time>2023-07-30T15:39:10.000Z</time>
      </trkpt>
      <trkpt lat="43.7338" lon="1.40197">
        <ele>126.004202</ele>
        <time>2023-07-30T15:39:11.000Z</time>
      </trkpt>
      <trkpt lat="43.73372" lon="1.402">
        <ele>125.839787</ele>
        <time>2023-07-30T15:39:12.000Z</time>
      </trkpt>
      <trkpt lat="43.73372" lon="1.402">
        <ele>125.839787</ele>
        <time>2023-07-30T15:39:12.000Z</time>
      </trkpt>
      <trkpt lat="43.73365" lon="1.40203">
        <ele>125.690499</ele>
        <time>2023-07-30T15:39:13.000Z</time>
      </trkpt>
      <trkpt lat="43.73359" lon="1.40207">
        <ele>125.537756</ele>
        <time>2023-07-30T15:39:14.000Z</time>
      </trkpt>
      <trkpt lat="43.73352" lon="1.40211">
        <ele>125.387736</ele>
        <time>2023-07-30T15:39:14.000Z</time>
      </trkpt>
      <trkpt lat="43.73346" lon="1.40216">
        <ele>125.251537</ele>
        <time>2023-07-30T15:39:16.000Z</time>
      </trkpt>
      <trkpt lat="43.73346" lon="1.40216">
        <ele>125.251537</ele>
        <time>2023-07-30T15:39:16.000Z</time>
      </trkpt>
      <trkpt lat="43.7334" lon="1.40221">
        <ele>125.098036</ele>
        <time>2023-07-30T15:39:17.000Z</time>
      </trkpt>
      <trkpt lat="43.73334" lon="1.40225">
        <ele>124.965438</ele>
        <time>2023-07-30T15:39:18.000Z</time>
      </trkpt>
      <trkpt lat="43.73328" lon="1.40227">
        <ele>124.827661</ele>
        <time>2023-07-30T15:39:19.000Z</time>
      </trkpt>
      <trkpt lat="43.73321" lon="1.40226">
        <ele>124.694876</ele>
        <time>2023-07-30T15:39:20.000Z</time>
      </trkpt>
      <trkpt lat="43.73321" lon="1.40226">
        <ele>124.694876</ele>
        <time>2023-07-30T15:39:20.000Z</time>
      </trkpt>
      <trkpt lat="43.73315" lon="1.40222">
        <ele>124.549227</ele>
        <time>2023-07-30T15:39:21.000Z</time>
      </trkpt>
      <trkpt lat="43.73309" lon="1.40217">
        <ele>124.409043</ele>
        <time>2023-07-30T15:39:22.000Z</time>
      </trkpt>
      <trkpt lat="43.73309" lon="1.40217">
        <ele>124.409043</ele>
        <time>2023-07-30T15:39:22.000Z</time>
      </trkpt>
      <trkpt lat="43.73304" lon="1.4021">
        <ele>124.315668</ele>
        <time>2023-07-30T15:39:23.000Z</time>
      </trkpt>
      <trkpt lat="43.73304" lon="1.4021">
        <ele>124.315668</ele>
        <time>2023-07-30T15:39:23.000Z</time>
      </trkpt>
      <trkpt lat="43.73299" lon="1.402">
        <ele>124.217852</ele>
        <time>2023-07-30T15:39:24.000Z</time>
      </trkpt>
      <trkpt lat="43.73299" lon="1.402">
        <ele>124.217852</ele>
        <time>2023-07-30T15:39:24.000Z</time>
      </trkpt>
      <trkpt lat="43.73294" lon="1.40192">
        <ele>124.134862</ele>
        <time>2023-07-30T15:39:25.000Z</time>
      </trkpt>
      <trkpt lat="43.73294" lon="1.40192">
        <ele>124.134862</ele>
        <time>2023-07-30T15:39:25.000Z</time>
      </trkpt>
      <trkpt lat="43.73288" lon="1.40185">
        <ele>124.050515</ele>
        <time>2023-07-30T15:39:26.000Z</time>
      </trkpt>
      <trkpt lat="43.73288" lon="1.40185">
        <ele>124.050515</ele>
        <time>2023-07-30T15:39:26.000Z</time>
      </trkpt>
      <trkpt lat="43.73283" lon="1.40178">
        <ele>123.967057</ele>
        <time>2023-07-30T15:39:27.000Z</time>
      </trkpt>
      <trkpt lat="43.73283" lon="1.40178">
        <ele>123.967057</ele>
        <time>2023-07-30T15:39:27.000Z</time>
      </trkpt>
      <trkpt lat="43.73277" lon="1.40171">
        <ele>123.884641</ele>
        <time>2023-07-30T15:39:28.000Z</time>
      </trkpt>
      <trkpt lat="43.73277" lon="1.40171">
        <ele>123.884641</ele>
        <time>2023-07-30T15:39:28.000Z</time>
      </trkpt>
      <trkpt lat="43.7327" lon="1.40165">
        <ele>123.797278</ele>
        <time>2023-07-30T15:39:29.000Z</time>
      </trkpt>
      <trkpt lat="43.73264" lon="1.40158">
        <ele>123.708988</ele>
        <time>2023-07-30T15:39:30.000Z</time>
      </trkpt>
      <trkpt lat="43.73264" lon="1.40158">
        <ele>123.708988</ele>
        <time>2023-07-30T15:39:30.000Z</time>
      </trkpt>
      <trkpt lat="43.73258" lon="1.40153">
        <ele>123.634654</ele>
        <time>2023-07-30T15:39:31.000Z</time>
      </trkpt>
      <trkpt lat="43.73258" lon="1.40153">
        <ele>123.634654</ele>
        <time>2023-07-30T15:39:31.000Z</time>
      </trkpt>
      <trkpt lat="43.73252" lon="1.40148">
        <ele>123.558951</ele>
        <time>2023-07-30T15:39:32.000Z</time>
      </trkpt>
      <trkpt lat="43.73246" lon="1.40145">
        <ele>123.482567</ele>
        <time>2023-07-30T15:39:32.000Z</time>
      </trkpt>
      <trkpt lat="43.73239" lon="1.40142">
        <ele>123.404403</ele>
        <time>2023-07-30T15:39:34.000Z</time>
      </trkpt>
      <trkpt lat="43.73232" lon="1.4014">
        <ele>123.327649</ele>
        <time>2023-07-30T15:39:35.000Z</time>
      </trkpt>
      <trkpt lat="43.73225" lon="1.40139">
        <ele>123.251748</ele>
        <time>2023-07-30T15:39:36.000Z</time>
      </trkpt>
      <trkpt lat="43.73225" lon="1.40139">
        <ele>123.251748</ele>
        <time>2023-07-30T15:39:36.000Z</time>
      </trkpt>
      <trkpt lat="43.73218" lon="1.40139">
        <ele>123.172892</ele>
        <time>2023-07-30T15:39:37.000Z</time>
      </trkpt>
      <trkpt lat="43.73211" lon="1.4014">
        <ele>123.097309</ele>
        <time>2023-07-30T15:39:38.000Z</time>
      </trkpt>
      <trkpt lat="43.73204" lon="1.4014">
        <ele>123.018422</ele>
        <time>2023-07-30T15:39:39.000Z</time>
      </trkpt>
      <trkpt lat="43.73196" lon="1.40141">
        <ele>122.933913</ele>
        <time>2023-07-30T15:39:40.000Z</time>
      </trkpt>
      <trkpt lat="43.73189" lon="1.40141">
        <ele>122.859236</ele>
        <time>2023-07-30T15:39:41.000Z</time>
      </trkpt>
      <trkpt lat="43.73182" lon="1.40142">
        <ele>122.778817</ele>
        <time>2023-07-30T15:39:42.000Z</time>
      </trkpt>
      <trkpt lat="43.73175" lon="1.40144">
        <ele>122.702324</ele>
        <time>2023-07-30T15:39:43.000Z</time>
      </trkpt>
      <trkpt lat="43.73175" lon="1.40144">
        <ele>122.702324</ele>
        <time>2023-07-30T15:39:43.000Z</time>
      </trkpt>
      <trkpt lat="43.73168" lon="1.40146">
        <ele>122.622051</ele>
        <time>2023-07-30T15:39:44.000Z</time>
      </trkpt>
      <trkpt lat="43.73161" lon="1.40148">
        <ele>122.544846</ele>
        <time>2023-07-30T15:39:45.000Z</time>
      </trkpt>
      <trkpt lat="43.73154" lon="1.4015">
        <ele>122.471746</ele>
        <time>2023-07-30T15:39:46.000Z</time>
      </trkpt>
      <trkpt lat="43.73147" lon="1.40152">
        <ele>122.395757</ele>
        <time>2023-07-30T15:39:47.000Z</time>
      </trkpt>
      <trkpt lat="43.7314" lon="1.40154">
        <ele>122.362148</ele>
        <time>2023-07-30T15:39:47.000Z</time>
      </trkpt>
      <trkpt lat="43.73132" lon="1.40155">
        <ele>122.326263</ele>
        <time>2023-07-30T15:39:49.000Z</time>
      </trkpt>
      <trkpt lat="43.73126" lon="1.40157">
        <ele>122.297649</ele>
        <time>2023-07-30T15:39:49.000Z</time>
      </trkpt>
      <trkpt lat="43.73118" lon="1.40159">
        <ele>122.261721</ele>
        <time>2023-07-30T15:39:51.000Z</time>
      </trkpt>
      <trkpt lat="43.73112" lon="1.40162">
        <ele>122.230716</ele>
        <time>2023-07-30T15:39:51.000Z</time>
      </trkpt>
      <trkpt lat="43.73105" lon="1.40164">
        <ele>122.198112</ele>
        <time>2023-07-30T15:39:53.000Z</time>
      </trkpt>
      <trkpt lat="43.73105" lon="1.40164">
        <ele>122.198112</ele>
        <time>2023-07-30T15:39:53.000Z</time>
      </trkpt>
      <trkpt lat="43.73098" lon="1.40167">
        <ele>122.164972</ele>
        <time>2023-07-30T15:39:53.000Z</time>
      </trkpt>
      <trkpt lat="43.73091" lon="1.4017">
        <ele>122.129969</ele>
        <time>2023-07-30T15:39:55.000Z</time>
      </trkpt>
      <trkpt lat="43.73085" lon="1.40173">
        <ele>122.100552</ele>
        <time>2023-07-30T15:39:56.000Z</time>
      </trkpt>
      <trkpt lat="43.73085" lon="1.40173">
        <ele>122.100552</ele>
        <time>2023-07-30T15:39:56.000Z</time>
      </trkpt>
      <trkpt lat="43.73077" lon="1.40175">
        <ele>122.066084</ele>
        <time>2023-07-30T15:39:57.000Z</time>
      </trkpt>
      <trkpt lat="43.73071" lon="1.40178">
        <ele>122.033211</ele>
        <time>2023-07-30T15:39:58.000Z</time>
      </trkpt>
      <trkpt lat="43.73064" lon="1.40181">
        <ele>122.000513</ele>
        <time>2023-07-30T15:39:59.000Z</time>
      </trkpt>
      <trkpt lat="43.73064" lon="1.40181">
        <ele>122.000513</ele>
        <time>2023-07-30T15:39:59.000Z</time>
      </trkpt>
      <trkpt lat="43.73057" lon="1.40183">
        <ele>121.96933</ele>
        <time>2023-07-30T15:40:00.000Z</time>
      </trkpt>
      <trkpt lat="43.73057" lon="1.40183">
        <ele>121.96933</ele>
        <time>2023-07-30T15:40:00.000Z</time>
      </trkpt>
      <trkpt lat="43.7305" lon="1.40186">
        <ele>121.934327</ele>
        <time>2023-07-30T15:40:01.000Z</time>
      </trkpt>
      <trkpt lat="43.73043" lon="1.40189">
        <ele>121.903143</ele>
        <time>2023-07-30T15:40:02.000Z</time>
      </trkpt>
      <trkpt lat="43.73037" lon="1.40192">
        <ele>121.870445</ele>
        <time>2023-07-30T15:40:03.000Z</time>
      </trkpt>
      <trkpt lat="43.7303" lon="1.40194">
        <ele>121.837487</ele>
        <time>2023-07-30T15:40:04.000Z</time>
      </trkpt>
      <trkpt lat="43.7303" lon="1.40194">
        <ele>121.837487</ele>
        <time>2023-07-30T15:40:04.000Z</time>
      </trkpt>
      <trkpt lat="43.73023" lon="1.40197">
        <ele>121.806303</ele>
        <time>2023-07-30T15:40:05.000Z</time>
      </trkpt>
      <trkpt lat="43.73016" lon="1.402">
        <ele>121.771923</ele>
        <time>2023-07-30T15:40:06.000Z</time>
      </trkpt>
      <trkpt lat="43.73009" lon="1.40202">
        <ele>121.737264</ele>
        <time>2023-07-30T15:40:07.000Z</time>
      </trkpt>
      <trkpt lat="43.73009" lon="1.40202">
        <ele>121.737264</ele>
        <time>2023-07-30T15:40:07.000Z</time>
      </trkpt>
      <trkpt lat="43.73002" lon="1.40205">
        <ele>121.706171</ele>
        <time>2023-07-30T15:40:08.000Z</time>
      </trkpt>
      <trkpt lat="43.72995" lon="1.40207">
        <ele>121.671791</ele>
        <time>2023-07-30T15:40:09.000Z</time>
      </trkpt>
      <trkpt lat="43.72988" lon="1.4021">
        <ele>121.638744</ele>
        <time>2023-07-30T15:40:10.000Z</time>
      </trkpt>
      <trkpt lat="43.72981" lon="1.40213">
        <ele>121.603991</ele>
        <time>2023-07-30T15:40:11.000Z</time>
      </trkpt>
      <trkpt lat="43.72981" lon="1.40213">
        <ele>121.603991</ele>
        <time>2023-07-30T15:40:11.000Z</time>
      </trkpt>
      <trkpt lat="43.72974" lon="1.40216">
        <ele>121.573692</ele>
        <time>2023-07-30T15:40:12.000Z</time>
      </trkpt>
      <trkpt lat="43.72967" lon="1.40219">
        <ele>121.576753</ele>
        <time>2023-07-30T15:40:13.000Z</time>
      </trkpt>
      <trkpt lat="43.72961" lon="1.40223">
        <ele>121.579783</ele>
        <time>2023-07-30T15:40:14.000Z</time>
      </trkpt>
      <trkpt lat="43.72954" lon="1.40226">
        <ele>121.583065</ele>
        <time>2023-07-30T15:40:15.000Z</time>
      </trkpt>
      <trkpt lat="43.72947" lon="1.4023">
        <ele>121.586159</ele>
        <time>2023-07-30T15:40:16.000Z</time>
      </trkpt>
      <trkpt lat="43.7294" lon="1.40234">
        <ele>121.589442</ele>
        <time>2023-07-30T15:40:17.000Z</time>
      </trkpt>
      <trkpt lat="43.72934" lon="1.40237">
        <ele>121.592384</ele>
        <time>2023-07-30T15:40:18.000Z</time>
      </trkpt>
      <trkpt lat="43.72934" lon="1.40237">
        <ele>121.592384</ele>
        <time>2023-07-30T15:40:18.000Z</time>
      </trkpt>
      <trkpt lat="43.72928" lon="1.40241">
        <ele>121.595378</ele>
        <time>2023-07-30T15:40:19.000Z</time>
      </trkpt>
      <trkpt lat="43.72922" lon="1.40246">
        <ele>121.59843</ele>
        <time>2023-07-30T15:40:20.000Z</time>
      </trkpt>
      <trkpt lat="43.72916" lon="1.40251">
        <ele>121.601406</ele>
        <time>2023-07-30T15:40:21.000Z</time>
      </trkpt>
      <trkpt lat="43.72911" lon="1.40256">
        <ele>121.604417</ele>
        <time>2023-07-30T15:40:22.000Z</time>
      </trkpt>
      <trkpt lat="43.72904" lon="1.40262">
        <ele>121.607866</ele>
        <time>2023-07-30T15:40:23.000Z</time>
      </trkpt>
      <trkpt lat="43.729" lon="1.40266">
        <ele>121.610441</ele>
        <time>2023-07-30T15:40:24.000Z</time>
      </trkpt>
      <trkpt lat="43.72894" lon="1.40273">
        <ele>121.613758</ele>
        <time>2023-07-30T15:40:25.000Z</time>
      </trkpt>
      <trkpt lat="43.72889" lon="1.4028">
        <ele>121.616846</ele>
        <time>2023-07-30T15:40:26.000Z</time>
      </trkpt>
      <trkpt lat="43.72884" lon="1.40286">
        <ele>121.61964</ele>
        <time>2023-07-30T15:40:27.000Z</time>
      </trkpt>
      <trkpt lat="43.72884" lon="1.40286">
        <ele>121.61964</ele>
        <time>2023-07-30T15:40:27.000Z</time>
      </trkpt>
      <trkpt lat="43.7288" lon="1.40293">
        <ele>121.62265</ele>
        <time>2023-07-30T15:40:28.000Z</time>
      </trkpt>
      <trkpt lat="43.72875" lon="1.403">
        <ele>121.625779</ele>
        <time>2023-07-30T15:40:29.000Z</time>
      </trkpt>
      <trkpt lat="43.72871" lon="1.40307">
        <ele>121.628788</ele>
        <time>2023-07-30T15:40:30.000Z</time>
      </trkpt>
      <trkpt lat="43.72866" lon="1.40314">
        <ele>121.631864</ele>
        <time>2023-07-30T15:40:31.000Z</time>
      </trkpt>
      <trkpt lat="43.72862" lon="1.40322">
        <ele>121.63488</ele>
        <time>2023-07-30T15:40:32.000Z</time>
      </trkpt>
      <trkpt lat="43.72858" lon="1.40329">
        <ele>121.637872</ele>
        <time>2023-07-30T15:40:33.000Z</time>
      </trkpt>
      <trkpt lat="43.72853" lon="1.40337">
        <ele>121.641174</ele>
        <time>2023-07-30T15:40:34.000Z</time>
      </trkpt>
      <trkpt lat="43.72849" lon="1.40345">
        <ele>121.644084</ele>
        <time>2023-07-30T15:40:35.000Z</time>
      </trkpt>
      <trkpt lat="43.72845" lon="1.40352">
        <ele>121.647262</ele>
        <time>2023-07-30T15:40:36.000Z</time>
      </trkpt>
      <trkpt lat="43.7284" lon="1.4036">
        <ele>121.650604</ele>
        <time>2023-07-30T15:40:37.000Z</time>
      </trkpt>
      <trkpt lat="43.72835" lon="1.40368">
        <ele>121.645331</ele>
        <time>2023-07-30T15:40:38.000Z</time>
      </trkpt>
      <trkpt lat="43.72835" lon="1.40368">
        <ele>121.645331</ele>
        <time>2023-07-30T15:40:38.000Z</time>
      </trkpt>
      <trkpt lat="43.72831" lon="1.40375">
        <ele>121.621578</ele>
        <time>2023-07-30T15:40:39.000Z</time>
      </trkpt>
      <trkpt lat="43.72826" lon="1.40383">
        <ele>121.593049</ele>
        <time>2023-07-30T15:40:40.000Z</time>
      </trkpt>
      <trkpt lat="43.72821" lon="1.4039">
        <ele>121.566757</ele>
        <time>2023-07-30T15:40:41.000Z</time>
      </trkpt>
      <trkpt lat="43.72815" lon="1.40397">
        <ele>121.538968</ele>
        <time>2023-07-30T15:40:42.000Z</time>
      </trkpt>
      <trkpt lat="43.7281" lon="1.40404">
        <ele>121.5129</ele>
        <time>2023-07-30T15:40:43.000Z</time>
      </trkpt>
      <trkpt lat="43.72804" lon="1.4041">
        <ele>121.485528</ele>
        <time>2023-07-30T15:40:44.000Z</time>
      </trkpt>
      <trkpt lat="43.72804" lon="1.4041">
        <ele>121.485528</ele>
        <time>2023-07-30T15:40:44.000Z</time>
      </trkpt>
      <trkpt lat="43.72799" lon="1.40416">
        <ele>121.458692</ele>
        <time>2023-07-30T15:40:45.000Z</time>
      </trkpt>
      <trkpt lat="43.72793" lon="1.40422">
        <ele>121.432472</ele>
        <time>2023-07-30T15:40:46.000Z</time>
      </trkpt>
      <trkpt lat="43.72787" lon="1.40427">
        <ele>121.406198</ele>
        <time>2023-07-30T15:40:47.000Z</time>
      </trkpt>
      <trkpt lat="43.72787" lon="1.40427">
        <ele>121.406198</ele>
        <time>2023-07-30T15:40:47.000Z</time>
      </trkpt>
      <trkpt lat="43.7278" lon="1.40431">
        <ele>121.379263</ele>
        <time>2023-07-30T15:40:48.000Z</time>
      </trkpt>
      <trkpt lat="43.72773" lon="1.40435">
        <ele>121.35041</ele>
        <time>2023-07-30T15:40:49.000Z</time>
      </trkpt>
      <trkpt lat="43.72773" lon="1.40435">
        <ele>121.35041</ele>
        <time>2023-07-30T15:40:49.000Z</time>
      </trkpt>
      <trkpt lat="43.72767" lon="1.40439">
        <ele>121.326327</ele>
        <time>2023-07-30T15:40:50.000Z</time>
      </trkpt>
      <trkpt lat="43.7276" lon="1.40442">
        <ele>121.299524</ele>
        <time>2023-07-30T15:40:51.000Z</time>
      </trkpt>
      <trkpt lat="43.72753" lon="1.40444">
        <ele>121.273022</ele>
        <time>2023-07-30T15:40:52.000Z</time>
      </trkpt>
      <trkpt lat="43.72753" lon="1.40444">
        <ele>121.273022</ele>
        <time>2023-07-30T15:40:52.000Z</time>
      </trkpt>
      <trkpt lat="43.72747" lon="1.40447">
        <ele>121.248449</ele>
        <time>2023-07-30T15:40:53.000Z</time>
      </trkpt>
      <trkpt lat="43.7274" lon="1.40449">
        <ele>121.222147</ele>
        <time>2023-07-30T15:40:54.000Z</time>
      </trkpt>
      <trkpt lat="43.7274" lon="1.40449">
        <ele>121.222147</ele>
        <time>2023-07-30T15:40:54.000Z</time>
      </trkpt>
      <trkpt lat="43.72734" lon="1.40451">
        <ele>121.200287</ele>
        <time>2023-07-30T15:40:55.000Z</time>
      </trkpt>
      <trkpt lat="43.72727" lon="1.40453">
        <ele>121.172542</ele>
        <time>2023-07-30T15:40:56.000Z</time>
      </trkpt>
      <trkpt lat="43.72721" lon="1.40455">
        <ele>121.14937</ele>
        <time>2023-07-30T15:40:57.000Z</time>
      </trkpt>
      <trkpt lat="43.72714" lon="1.40457">
        <ele>121.124571</ele>
        <time>2023-07-30T15:40:58.000Z</time>
      </trkpt>
      <trkpt lat="43.72708" lon="1.40459">
        <ele>121.099951</ele>
        <time>2023-07-30T15:40:59.000Z</time>
      </trkpt>
      <trkpt lat="43.72701" lon="1.40462">
        <ele>121.074009</ele>
        <time>2023-07-30T15:41:00.000Z</time>
      </trkpt>
      <trkpt lat="43.72694" lon="1.40464">
        <ele>121.049273</ele>
        <time>2023-07-30T15:41:01.000Z</time>
      </trkpt>
      <trkpt lat="43.72688" lon="1.40466">
        <ele>121.024537</ele>
        <time>2023-07-30T15:41:02.000Z</time>
      </trkpt>
      <trkpt lat="43.72681" lon="1.40468">
        <ele>120.999673</ele>
        <time>2023-07-30T15:41:03.000Z</time>
      </trkpt>
      <trkpt lat="43.72675" lon="1.40471">
        <ele>120.98635</ele>
        <time>2023-07-30T15:41:04.000Z</time>
      </trkpt>
      <trkpt lat="43.72675" lon="1.40471">
        <ele>120.98635</ele>
        <time>2023-07-30T15:41:04.000Z</time>
      </trkpt>
      <trkpt lat="43.72669" lon="1.40473">
        <ele>120.98611</ele>
        <time>2023-07-30T15:41:05.000Z</time>
      </trkpt>
      <trkpt lat="43.72669" lon="1.40473">
        <ele>120.98611</ele>
        <time>2023-07-30T15:41:05.000Z</time>
      </trkpt>
      <trkpt lat="43.72662" lon="1.40477">
        <ele>120.985835</ele>
        <time>2023-07-30T15:41:06.000Z</time>
      </trkpt>
      <trkpt lat="43.72655" lon="1.40481">
        <ele>120.985567</ele>
        <time>2023-07-30T15:41:07.000Z</time>
      </trkpt>
      <trkpt lat="43.72649" lon="1.40486">
        <ele>120.985312</ele>
        <time>2023-07-30T15:41:08.000Z</time>
      </trkpt>
      <trkpt lat="43.72649" lon="1.40486">
        <ele>120.985312</ele>
        <time>2023-07-30T15:41:08.000Z</time>
      </trkpt>
      <trkpt lat="43.72643" lon="1.4049">
        <ele>120.985063</ele>
        <time>2023-07-30T15:41:09.000Z</time>
      </trkpt>
      <trkpt lat="43.72637" lon="1.40495">
        <ele>120.984785</ele>
        <time>2023-07-30T15:41:10.000Z</time>
      </trkpt>
      <trkpt lat="43.72637" lon="1.40495">
        <ele>120.984785</ele>
        <time>2023-07-30T15:41:10.000Z</time>
      </trkpt>
      <trkpt lat="43.72631" lon="1.405">
        <ele>120.984534</ele>
        <time>2023-07-30T15:41:11.000Z</time>
      </trkpt>
      <trkpt lat="43.72625" lon="1.40506">
        <ele>120.984265</ele>
        <time>2023-07-30T15:41:12.000Z</time>
      </trkpt>
      <trkpt lat="43.72625" lon="1.40506">
        <ele>120.984265</ele>
        <time>2023-07-30T15:41:12.000Z</time>
      </trkpt>
      <trkpt lat="43.7262" lon="1.40511">
        <ele>120.984018</ele>
        <time>2023-07-30T15:41:13.000Z</time>
      </trkpt>
      <trkpt lat="43.72614" lon="1.40516">
        <ele>120.983759</ele>
        <time>2023-07-30T15:41:14.000Z</time>
      </trkpt>
      <trkpt lat="43.72608" lon="1.40522">
        <ele>120.983487</ele>
        <time>2023-07-30T15:41:15.000Z</time>
      </trkpt>
      <trkpt lat="43.72603" lon="1.40527">
        <ele>120.983246</ele>
        <time>2023-07-30T15:41:16.000Z</time>
      </trkpt>
      <trkpt lat="43.72596" lon="1.40533">
        <ele>120.982959</ele>
        <time>2023-07-30T15:41:17.000Z</time>
      </trkpt>
      <trkpt lat="43.72594" lon="1.40534">
        <ele>120.982879</ele>
        <time>2023-07-30T15:41:18.000Z</time>
      </trkpt>
      <trkpt lat="43.72584" lon="1.40543">
        <ele>120.982423</ele>
        <time>2023-07-30T15:41:19.000Z</time>
      </trkpt>
      <trkpt lat="43.72579" lon="1.40548">
        <ele>120.982203</ele>
        <time>2023-07-30T15:41:20.000Z</time>
      </trkpt>
      <trkpt lat="43.72573" lon="1.40552">
        <ele>120.981956</ele>
        <time>2023-07-30T15:41:21.000Z</time>
      </trkpt>
      <trkpt lat="43.72567" lon="1.40557">
        <ele>120.981685</ele>
        <time>2023-07-30T15:41:22.000Z</time>
      </trkpt>
      <trkpt lat="43.7256" lon="1.4056">
        <ele>120.981424</ele>
        <time>2023-07-30T15:41:23.000Z</time>
      </trkpt>
      <trkpt lat="43.7256" lon="1.4056">
        <ele>120.981424</ele>
        <time>2023-07-30T15:41:23.000Z</time>
      </trkpt>
      <trkpt lat="43.72554" lon="1.40563">
        <ele>120.981202</ele>
        <time>2023-07-30T15:41:24.000Z</time>
      </trkpt>
      <trkpt lat="43.72547" lon="1.40565">
        <ele>120.980911</ele>
        <time>2023-07-30T15:41:25.000Z</time>
      </trkpt>
      <trkpt lat="43.72541" lon="1.40567">
        <ele>120.98068</ele>
        <time>2023-07-30T15:41:26.000Z</time>
      </trkpt>
      <trkpt lat="43.72535" lon="1.40568">
        <ele>120.98045</ele>
        <time>2023-07-30T15:41:27.000Z</time>
      </trkpt>
      <trkpt lat="43.72527" lon="1.40569">
        <ele>120.980176</ele>
        <time>2023-07-30T15:41:28.000Z</time>
      </trkpt>
      <trkpt lat="43.72527" lon="1.40569">
        <ele>120.980176</ele>
        <time>2023-07-30T15:41:28.000Z</time>
      </trkpt>
      <trkpt lat="43.72521" lon="1.4057">
        <ele>120.979931</ele>
        <time>2023-07-30T15:41:29.000Z</time>
      </trkpt>
      <trkpt lat="43.72521" lon="1.4057">
        <ele>120.979931</ele>
        <time>2023-07-30T15:41:29.000Z</time>
      </trkpt>
      <trkpt lat="43.72514" lon="1.40572">
        <ele>120.98171</ele>
        <time>2023-07-30T15:41:30.000Z</time>
      </trkpt>
      <trkpt lat="43.72508" lon="1.40573">
        <ele>120.987576</ele>
        <time>2023-07-30T15:41:31.000Z</time>
      </trkpt>
      <trkpt lat="43.72501" lon="1.40574">
        <ele>120.99281</ele>
        <time>2023-07-30T15:41:32.000Z</time>
      </trkpt>
      <trkpt lat="43.72495" lon="1.40575">
        <ele>120.998433</ele>
        <time>2023-07-30T15:41:33.000Z</time>
      </trkpt>
      <trkpt lat="43.72488" lon="1.40578">
        <ele>121.004489</ele>
        <time>2023-07-30T15:41:34.000Z</time>
      </trkpt>
      <trkpt lat="43.72481" lon="1.4058">
        <ele>121.010421</ele>
        <time>2023-07-30T15:41:35.000Z</time>
      </trkpt>
      <trkpt lat="43.72475" lon="1.40581">
        <ele>121.015688</ele>
        <time>2023-07-30T15:41:36.000Z</time>
      </trkpt>
      <trkpt lat="43.72469" lon="1.40582">
        <ele>121.021256</ele>
        <time>2023-07-30T15:41:37.000Z</time>
      </trkpt>
      <trkpt lat="43.72469" lon="1.40582">
        <ele>121.021256</ele>
        <time>2023-07-30T15:41:37.000Z</time>
      </trkpt>
      <trkpt lat="43.72462" lon="1.40583">
        <ele>121.02683</ele>
        <time>2023-07-30T15:41:38.000Z</time>
      </trkpt>
      <trkpt lat="43.72456" lon="1.40584">
        <ele>121.032404</ele>
        <time>2023-07-30T15:41:38.000Z</time>
      </trkpt>
      <trkpt lat="43.72456" lon="1.40584">
        <ele>121.032404</ele>
        <time>2023-07-30T15:41:38.000Z</time>
      </trkpt>
      <trkpt lat="43.72448" lon="1.40585">
        <ele>121.038663</ele>
        <time>2023-07-30T15:41:40.000Z</time>
      </trkpt>
      <trkpt lat="43.72448" lon="1.40585">
        <ele>121.038663</ele>
        <time>2023-07-30T15:41:40.000Z</time>
      </trkpt>
      <trkpt lat="43.72442" lon="1.40586">
        <ele>121.04394</ele>
        <time>2023-07-30T15:41:40.000Z</time>
      </trkpt>
      <trkpt lat="43.72435" lon="1.40588">
        <ele>121.049847</ele>
        <time>2023-07-30T15:41:42.000Z</time>
      </trkpt>
      <trkpt lat="43.72429" lon="1.4059">
        <ele>121.055827</ele>
        <time>2023-07-30T15:41:43.000Z</time>
      </trkpt>
      <trkpt lat="43.72422" lon="1.40591">
        <ele>121.061125</ele>
        <time>2023-07-30T15:41:44.000Z</time>
      </trkpt>
      <trkpt lat="43.72422" lon="1.40591">
        <ele>121.061125</ele>
        <time>2023-07-30T15:41:44.000Z</time>
      </trkpt>
      <trkpt lat="43.72415" lon="1.40593">
        <ele>121.067357</ele>
        <time>2023-07-30T15:41:45.000Z</time>
      </trkpt>
      <trkpt lat="43.72409" lon="1.40594">
        <ele>121.072362</ele>
        <time>2023-07-30T15:41:46.000Z</time>
      </trkpt>
      <trkpt lat="43.72403" lon="1.40595">
        <ele>121.07818</ele>
        <time>2023-07-30T15:41:47.000Z</time>
      </trkpt>
      <trkpt lat="43.72396" lon="1.40595">
        <ele>121.084076</ele>
        <time>2023-07-30T15:41:48.000Z</time>
      </trkpt>
      <trkpt lat="43.72389" lon="1.40596">
        <ele>121.089644</ele>
        <time>2023-07-30T15:41:49.000Z</time>
      </trkpt>
      <trkpt lat="43.72389" lon="1.40596">
        <ele>121.089644</ele>
        <time>2023-07-30T15:41:49.000Z</time>
      </trkpt>
      <trkpt lat="43.72382" lon="1.40597">
        <ele>121.095825</ele>
        <time>2023-07-30T15:41:50.000Z</time>
      </trkpt>
      <trkpt lat="43.72376" lon="1.40598">
        <ele>121.10142</ele>
        <time>2023-07-30T15:41:51.000Z</time>
      </trkpt>
      <trkpt lat="43.7237" lon="1.406">
        <ele>121.10634</ele>
        <time>2023-07-30T15:41:52.000Z</time>
      </trkpt>
      <trkpt lat="43.72363" lon="1.40601">
        <ele>121.112291</ele>
        <time>2023-07-30T15:41:53.000Z</time>
      </trkpt>
      <trkpt lat="43.72356" lon="1.40603">
        <ele>121.117947</ele>
        <time>2023-07-30T15:41:54.000Z</time>
      </trkpt>
      <trkpt lat="43.72356" lon="1.40603">
        <ele>121.117947</ele>
        <time>2023-07-30T15:41:54.000Z</time>
      </trkpt>
      <trkpt lat="43.7235" lon="1.40605">
        <ele>121.123616</ele>
        <time>2023-07-30T15:41:55.000Z</time>
      </trkpt>
      <trkpt lat="43.72343" lon="1.40607">
        <ele>121.129652</ele>
        <time>2023-07-30T15:41:56.000Z</time>
      </trkpt>
      <trkpt lat="43.72337" lon="1.4061">
        <ele>121.135731</ele>
        <time>2023-07-30T15:41:57.000Z</time>
      </trkpt>
      <trkpt lat="43.72331" lon="1.40613">
        <ele>121.145408</ele>
        <time>2023-07-30T15:41:58.000Z</time>
      </trkpt>
      <trkpt lat="43.72324" lon="1.40617">
        <ele>121.154643</ele>
        <time>2023-07-30T15:41:59.000Z</time>
      </trkpt>
      <trkpt lat="43.72318" lon="1.4062">
        <ele>121.163982</ele>
        <time>2023-07-30T15:42:00.000Z</time>
      </trkpt>
      <trkpt lat="43.72313" lon="1.40623">
        <ele>121.171177</ele>
        <time>2023-07-30T15:42:01.000Z</time>
      </trkpt>
      <trkpt lat="43.72306" lon="1.40627">
        <ele>121.180504</ele>
        <time>2023-07-30T15:42:02.000Z</time>
      </trkpt>
      <trkpt lat="43.72306" lon="1.40627">
        <ele>121.180504</ele>
        <time>2023-07-30T15:42:02.000Z</time>
      </trkpt>
      <trkpt lat="43.723" lon="1.40631">
        <ele>121.189916</ele>
        <time>2023-07-30T15:42:03.000Z</time>
      </trkpt>
      <trkpt lat="43.723" lon="1.40631">
        <ele>121.189916</ele>
        <time>2023-07-30T15:42:03.000Z</time>
      </trkpt>
      <trkpt lat="43.72294" lon="1.40634">
        <ele>121.198121</ele>
        <time>2023-07-30T15:42:04.000Z</time>
      </trkpt>
      <trkpt lat="43.72294" lon="1.40634">
        <ele>121.198121</ele>
        <time>2023-07-30T15:42:04.000Z</time>
      </trkpt>
      <trkpt lat="43.72287" lon="1.40637">
        <ele>121.207923</ele>
        <time>2023-07-30T15:42:05.000Z</time>
      </trkpt>
      <trkpt lat="43.72287" lon="1.40637">
        <ele>121.207923</ele>
        <time>2023-07-30T15:42:05.000Z</time>
      </trkpt>
      <trkpt lat="43.72282" lon="1.4064">
        <ele>121.215405</ele>
        <time>2023-07-30T15:42:06.000Z</time>
      </trkpt>
      <trkpt lat="43.72275" lon="1.40641">
        <ele>121.224639</ele>
        <time>2023-07-30T15:42:07.000Z</time>
      </trkpt>
      <trkpt lat="43.72268" lon="1.40643">
        <ele>121.233386</ele>
        <time>2023-07-30T15:42:08.000Z</time>
      </trkpt>
      <trkpt lat="43.72262" lon="1.40643">
        <ele>121.24209</ele>
        <time>2023-07-30T15:42:09.000Z</time>
      </trkpt>
      <trkpt lat="43.72255" lon="1.40643">
        <ele>121.25076</ele>
        <time>2023-07-30T15:42:10.000Z</time>
      </trkpt>
      <trkpt lat="43.72249" lon="1.40643">
        <ele>121.258933</ele>
        <time>2023-07-30T15:42:11.000Z</time>
      </trkpt>
      <trkpt lat="43.72242" lon="1.40641">
        <ele>121.268089</ele>
        <time>2023-07-30T15:42:12.000Z</time>
      </trkpt>
      <trkpt lat="43.72242" lon="1.40641">
        <ele>121.268089</ele>
        <time>2023-07-30T15:42:12.000Z</time>
      </trkpt>
      <trkpt lat="43.72236" lon="1.40639">
        <ele>121.277454</ele>
        <time>2023-07-30T15:42:13.000Z</time>
      </trkpt>
      <trkpt lat="43.72229" lon="1.40638">
        <ele>121.286315</ele>
        <time>2023-07-30T15:42:14.000Z</time>
      </trkpt>
      <trkpt lat="43.72223" lon="1.40636">
        <ele>121.294655</ele>
        <time>2023-07-30T15:42:15.000Z</time>
      </trkpt>
      <trkpt lat="43.72216" lon="1.40634">
        <ele>121.303415</ele>
        <time>2023-07-30T15:42:16.000Z</time>
      </trkpt>
      <trkpt lat="43.72213" lon="1.40634">
        <ele>121.308507</ele>
        <time>2023-07-30T15:42:17.000Z</time>
      </trkpt>
      <trkpt lat="43.72213" lon="1.40634">
        <ele>121.308507</ele>
        <time>2023-07-30T15:42:17.000Z</time>
      </trkpt>
      <trkpt lat="43.72202" lon="1.40633">
        <ele>121.322272</ele>
        <time>2023-07-30T15:42:18.000Z</time>
      </trkpt>
      <trkpt lat="43.72196" lon="1.40633">
        <ele>121.330414</ele>
        <time>2023-07-30T15:42:19.000Z</time>
      </trkpt>
      <trkpt lat="43.7219" lon="1.40634">
        <ele>121.339137</ele>
        <time>2023-07-30T15:42:20.000Z</time>
      </trkpt>
      <trkpt lat="43.7219" lon="1.40634">
        <ele>121.339137</ele>
        <time>2023-07-30T15:42:20.000Z</time>
      </trkpt>
      <trkpt lat="43.72183" lon="1.40636">
        <ele>121.347897</ele>
        <time>2023-07-30T15:42:21.000Z</time>
      </trkpt>
      <trkpt lat="43.72176" lon="1.40637">
        <ele>121.357132</ele>
        <time>2023-07-30T15:42:22.000Z</time>
      </trkpt>
      <trkpt lat="43.7217" lon="1.40639">
        <ele>121.365973</ele>
        <time>2023-07-30T15:42:23.000Z</time>
      </trkpt>
      <trkpt lat="43.72163" lon="1.40641">
        <ele>121.383613</ele>
        <time>2023-07-30T15:42:24.000Z</time>
      </trkpt>
      <trkpt lat="43.72163" lon="1.40641">
        <ele>121.383613</ele>
        <time>2023-07-30T15:42:24.000Z</time>
      </trkpt>
      <trkpt lat="43.7216" lon="1.40642">
        <ele>121.402701</ele>
        <time>2023-07-30T15:42:25.000Z</time>
      </trkpt>
      <trkpt lat="43.72151" lon="1.40645">
        <ele>121.461798</ele>
        <time>2023-07-30T15:42:26.000Z</time>
      </trkpt>
      <trkpt lat="43.72145" lon="1.40648">
        <ele>121.501487</ele>
        <time>2023-07-30T15:42:27.000Z</time>
      </trkpt>
      <trkpt lat="43.72139" lon="1.4065">
        <ele>121.5408</ele>
        <time>2023-07-30T15:42:28.000Z</time>
      </trkpt>
      <trkpt lat="43.72132" lon="1.40653">
        <ele>121.585512</ele>
        <time>2023-07-30T15:42:29.000Z</time>
      </trkpt>
      <trkpt lat="43.72132" lon="1.40653">
        <ele>121.585512</ele>
        <time>2023-07-30T15:42:29.000Z</time>
      </trkpt>
      <trkpt lat="43.72126" lon="1.40656">
        <ele>121.624946</ele>
        <time>2023-07-30T15:42:30.000Z</time>
      </trkpt>
      <trkpt lat="43.72126" lon="1.40656">
        <ele>121.624946</ele>
        <time>2023-07-30T15:42:30.000Z</time>
      </trkpt>
      <trkpt lat="43.72123" lon="1.40656">
        <ele>121.644033</ele>
        <time>2023-07-30T15:42:31.000Z</time>
      </trkpt>
      <trkpt lat="43.72123" lon="1.40656">
        <ele>121.644033</ele>
        <time>2023-07-30T15:42:31.000Z</time>
      </trkpt>
      <trkpt lat="43.72112" lon="1.4066">
        <ele>121.710202</ele>
        <time>2023-07-30T15:42:32.000Z</time>
      </trkpt>
      <trkpt lat="43.72107" lon="1.40663">
        <ele>121.74311</ele>
        <time>2023-07-30T15:42:33.000Z</time>
      </trkpt>
      <trkpt lat="43.721" lon="1.40666">
        <ele>121.788964</ele>
        <time>2023-07-30T15:42:34.000Z</time>
      </trkpt>
      <trkpt lat="43.72095" lon="1.40669">
        <ele>121.824743</ele>
        <time>2023-07-30T15:42:35.000Z</time>
      </trkpt>
      <trkpt lat="43.72089" lon="1.40674">
        <ele>121.869542</ele>
        <time>2023-07-30T15:42:36.000Z</time>
      </trkpt>
      <trkpt lat="43.72082" lon="1.40678">
        <ele>121.913961</ele>
        <time>2023-07-30T15:42:37.000Z</time>
      </trkpt>
      <trkpt lat="43.72082" lon="1.40678">
        <ele>121.913961</ele>
        <time>2023-07-30T15:42:37.000Z</time>
      </trkpt>
      <trkpt lat="43.72076" lon="1.40681">
        <ele>121.953303</ele>
        <time>2023-07-30T15:42:38.000Z</time>
      </trkpt>
      <trkpt lat="43.72071" lon="1.40684">
        <ele>121.990623</ele>
        <time>2023-07-30T15:42:39.000Z</time>
      </trkpt>
      <trkpt lat="43.72067" lon="1.40686">
        <ele>122.012953</ele>
        <time>2023-07-30T15:42:40.000Z</time>
      </trkpt>
      <trkpt lat="43.72059" lon="1.40691">
        <ele>122.069637</ele>
        <time>2023-07-30T15:42:41.000Z</time>
      </trkpt>
      <trkpt lat="43.72054" lon="1.40696">
        <ele>122.108033</ele>
        <time>2023-07-30T15:42:42.000Z</time>
      </trkpt>
      <trkpt lat="43.72054" lon="1.40696">
        <ele>122.108033</ele>
        <time>2023-07-30T15:42:42.000Z</time>
      </trkpt>
      <trkpt lat="43.72052" lon="1.40701">
        <ele>122.135367</ele>
        <time>2023-07-30T15:42:43.000Z</time>
      </trkpt>
      <trkpt lat="43.72049" lon="1.40709">
        <ele>122.173828</ele>
        <time>2023-07-30T15:42:44.000Z</time>
      </trkpt>
      <trkpt lat="43.72047" lon="1.40715">
        <ele>122.202784</ele>
        <time>2023-07-30T15:42:45.000Z</time>
      </trkpt>
      <trkpt lat="43.72046" lon="1.40717">
        <ele>122.215131</ele>
        <time>2023-07-30T15:42:46.000Z</time>
      </trkpt>
      <trkpt lat="43.72046" lon="1.40717">
        <ele>122.215131</ele>
        <time>2023-07-30T15:42:46.000Z</time>
      </trkpt>
      <trkpt lat="43.72045" lon="1.40717">
        <ele>122.221268</ele>
        <time>2023-07-30T15:42:47.000Z</time>
      </trkpt>
      <trkpt lat="43.72045" lon="1.40716">
        <ele>122.229132</ele>
        <time>2023-07-30T15:42:48.000Z</time>
      </trkpt>
      <trkpt lat="43.72043" lon="1.40712">
        <ele>122.249286</ele>
        <time>2023-07-30T15:42:49.000Z</time>
      </trkpt>
      <trkpt lat="43.72043" lon="1.40712">
        <ele>122.249286</ele>
        <time>2023-07-30T15:42:49.000Z</time>
      </trkpt>
      <trkpt lat="43.72041" lon="1.40708">
        <ele>122.271217</ele>
        <time>2023-07-30T15:42:50.000Z</time>
      </trkpt>
      <trkpt lat="43.72038" lon="1.40705">
        <ele>122.296053</ele>
        <time>2023-07-30T15:42:51.000Z</time>
      </trkpt>
      <trkpt lat="43.72031" lon="1.40702">
        <ele>122.337115</ele>
        <time>2023-07-30T15:42:52.000Z</time>
      </trkpt>
      <trkpt lat="43.72026" lon="1.40699">
        <ele>122.374577</ele>
        <time>2023-07-30T15:42:53.000Z</time>
      </trkpt>
      <trkpt lat="43.7202" lon="1.40696">
        <ele>122.41454</ele>
        <time>2023-07-30T15:42:54.000Z</time>
      </trkpt>
      <trkpt lat="43.72014" lon="1.40694">
        <ele>122.451336</ele>
        <time>2023-07-30T15:42:55.000Z</time>
      </trkpt>
      <trkpt lat="43.72007" lon="1.40692">
        <ele>122.497144</ele>
        <time>2023-07-30T15:42:56.000Z</time>
      </trkpt>
      <trkpt lat="43.72007" lon="1.40692">
        <ele>122.497144</ele>
        <time>2023-07-30T15:42:56.000Z</time>
      </trkpt>
      <trkpt lat="43.72001" lon="1.40689">
        <ele>122.551814</ele>
        <time>2023-07-30T15:42:57.000Z</time>
      </trkpt>
      <trkpt lat="43.71995" lon="1.40687">
        <ele>122.606484</ele>
        <time>2023-07-30T15:42:58.000Z</time>
      </trkpt>
      <trkpt lat="43.71989" lon="1.40685">
        <ele>122.660992</ele>
        <time>2023-07-30T15:42:59.000Z</time>
      </trkpt>
      <trkpt lat="43.71989" lon="1.40685">
        <ele>122.660992</ele>
        <time>2023-07-30T15:42:59.000Z</time>
      </trkpt>
      <trkpt lat="43.71981" lon="1.40682">
        <ele>122.726173</ele>
        <time>2023-07-30T15:43:00.000Z</time>
      </trkpt>
      <trkpt lat="43.71976" lon="1.40681">
        <ele>122.77308</ele>
        <time>2023-07-30T15:43:01.000Z</time>
      </trkpt>
      <trkpt lat="43.71971" lon="1.40679">
        <ele>122.817456</ele>
        <time>2023-07-30T15:43:02.000Z</time>
      </trkpt>
      <trkpt lat="43.71964" lon="1.40677">
        <ele>122.884595</ele>
        <time>2023-07-30T15:43:03.000Z</time>
      </trkpt>
      <trkpt lat="43.71956" lon="1.40675">
        <ele>122.947975</ele>
        <time>2023-07-30T15:43:04.000Z</time>
      </trkpt>
      <trkpt lat="43.71956" lon="1.40675">
        <ele>122.947975</ele>
        <time>2023-07-30T15:43:04.000Z</time>
      </trkpt>
      <trkpt lat="43.71951" lon="1.40673">
        <ele>122.999115</ele>
        <time>2023-07-30T15:43:05.000Z</time>
      </trkpt>
      <trkpt lat="43.71944" lon="1.40672">
        <ele>123.056315</ele>
        <time>2023-07-30T15:43:06.000Z</time>
      </trkpt>
      <trkpt lat="43.71937" lon="1.4067">
        <ele>123.116301</ele>
        <time>2023-07-30T15:43:07.000Z</time>
      </trkpt>
      <trkpt lat="43.7193" lon="1.40668">
        <ele>123.180418</ele>
        <time>2023-07-30T15:43:08.000Z</time>
      </trkpt>
      <trkpt lat="43.7193" lon="1.40668">
        <ele>123.180418</ele>
        <time>2023-07-30T15:43:08.000Z</time>
      </trkpt>
      <trkpt lat="43.71924" lon="1.40667">
        <ele>123.230477</ele>
        <time>2023-07-30T15:43:09.000Z</time>
      </trkpt>
      <trkpt lat="43.71918" lon="1.40665">
        <ele>123.283944</ele>
        <time>2023-07-30T15:43:10.000Z</time>
      </trkpt>
      <trkpt lat="43.71912" lon="1.40664">
        <ele>123.334002</ele>
        <time>2023-07-30T15:43:11.000Z</time>
      </trkpt>
      <trkpt lat="43.71906" lon="1.40662">
        <ele>123.387469</ele>
        <time>2023-07-30T15:43:12.000Z</time>
      </trkpt>
      <trkpt lat="43.71906" lon="1.40662">
        <ele>123.387469</ele>
        <time>2023-07-30T15:43:12.000Z</time>
      </trkpt>
      <trkpt lat="43.719" lon="1.40661">
        <ele>123.44445</ele>
        <time>2023-07-30T15:43:13.000Z</time>
      </trkpt>
      <trkpt lat="43.719" lon="1.40661">
        <ele>123.44445</ele>
        <time>2023-07-30T15:43:13.000Z</time>
      </trkpt>
      <trkpt lat="43.71893" lon="1.40659">
        <ele>123.501332</ele>
        <time>2023-07-30T15:43:14.000Z</time>
      </trkpt>
      <trkpt lat="43.71893" lon="1.40659">
        <ele>123.501332</ele>
        <time>2023-07-30T15:43:14.000Z</time>
      </trkpt>
      <trkpt lat="43.71887" lon="1.40658">
        <ele>123.558122</ele>
        <time>2023-07-30T15:43:15.000Z</time>
      </trkpt>
      <trkpt lat="43.71887" lon="1.40658">
        <ele>123.558122</ele>
        <time>2023-07-30T15:43:15.000Z</time>
      </trkpt>
      <trkpt lat="43.7188" lon="1.40657">
        <ele>123.614911</ele>
        <time>2023-07-30T15:43:16.000Z</time>
      </trkpt>
      <trkpt lat="43.71874" lon="1.40656">
        <ele>123.668279</ele>
        <time>2023-07-30T15:43:17.000Z</time>
      </trkpt>
      <trkpt lat="43.71874" lon="1.40656">
        <ele>123.668279</ele>
        <time>2023-07-30T15:43:17.000Z</time>
      </trkpt>
      <trkpt lat="43.71867" lon="1.40654">
        <ele>123.727637</ele>
        <time>2023-07-30T15:43:18.000Z</time>
      </trkpt>
      <trkpt lat="43.71862" lon="1.40653">
        <ele>123.778347</ele>
        <time>2023-07-30T15:43:19.000Z</time>
      </trkpt>
      <trkpt lat="43.71862" lon="1.40653">
        <ele>123.778347</ele>
        <time>2023-07-30T15:43:19.000Z</time>
      </trkpt>
      <trkpt lat="43.71855" lon="1.40652">
        <ele>123.834193</ele>
        <time>2023-07-30T15:43:20.000Z</time>
      </trkpt>
      <trkpt lat="43.71855" lon="1.40652">
        <ele>123.834193</ele>
        <time>2023-07-30T15:43:20.000Z</time>
      </trkpt>
      <trkpt lat="43.71849" lon="1.40651">
        <ele>123.887386</ele>
        <time>2023-07-30T15:43:20.000Z</time>
      </trkpt>
      <trkpt lat="43.71843" lon="1.4065">
        <ele>123.940501</ele>
        <time>2023-07-30T15:43:22.000Z</time>
      </trkpt>
      <trkpt lat="43.71843" lon="1.4065">
        <ele>123.940501</ele>
        <time>2023-07-30T15:43:22.000Z</time>
      </trkpt>
      <trkpt lat="43.71837" lon="1.4065">
        <ele>123.990657</ele>
        <time>2023-07-30T15:43:23.000Z</time>
      </trkpt>
      <trkpt lat="43.71833" lon="1.40651">
        <ele>124.030682</ele>
        <time>2023-07-30T15:43:24.000Z</time>
      </trkpt>
      <trkpt lat="43.71833" lon="1.40651">
        <ele>124.030682</ele>
        <time>2023-07-30T15:43:24.000Z</time>
      </trkpt>
      <trkpt lat="43.71829" lon="1.40655">
        <ele>124.015791</ele>
        <time>2023-07-30T15:43:25.000Z</time>
      </trkpt>
      <trkpt lat="43.71825" lon="1.4066">
        <ele>123.957599</ele>
        <time>2023-07-30T15:43:26.000Z</time>
      </trkpt>
      <trkpt lat="43.71822" lon="1.40667">
        <ele>123.89108</ele>
        <time>2023-07-30T15:43:27.000Z</time>
      </trkpt>
      <trkpt lat="43.71818" lon="1.40673">
        <ele>123.828201</ele>
        <time>2023-07-30T15:43:28.000Z</time>
      </trkpt>
      <trkpt lat="43.71818" lon="1.40673">
        <ele>123.828201</ele>
        <time>2023-07-30T15:43:28.000Z</time>
      </trkpt>
      <trkpt lat="43.71812" lon="1.40677">
        <ele>123.76077</ele>
        <time>2023-07-30T15:43:29.000Z</time>
      </trkpt>
      <trkpt lat="43.71812" lon="1.40677">
        <ele>123.76077</ele>
        <time>2023-07-30T15:43:29.000Z</time>
      </trkpt>
      <trkpt lat="43.71807" lon="1.40677">
        <ele>123.697773</ele>
        <time>2023-07-30T15:43:30.000Z</time>
      </trkpt>
      <trkpt lat="43.71801" lon="1.40677">
        <ele>123.634977</ele>
        <time>2023-07-30T15:43:31.000Z</time>
      </trkpt>
      <trkpt lat="43.71801" lon="1.40677">
        <ele>123.634977</ele>
        <time>2023-07-30T15:43:31.000Z</time>
      </trkpt>
      <trkpt lat="43.71795" lon="1.40677">
        <ele>123.567747</ele>
        <time>2023-07-30T15:43:32.000Z</time>
      </trkpt>
      <trkpt lat="43.71795" lon="1.40677">
        <ele>123.567747</ele>
        <time>2023-07-30T15:43:32.000Z</time>
      </trkpt>
      <trkpt lat="43.71788" lon="1.40678">
        <ele>123.49152</ele>
        <time>2023-07-30T15:43:33.000Z</time>
      </trkpt>
      <trkpt lat="43.71788" lon="1.40678">
        <ele>123.49152</ele>
        <time>2023-07-30T15:43:33.000Z</time>
      </trkpt>
      <trkpt lat="43.71782" lon="1.4068">
        <ele>123.416334</ele>
        <time>2023-07-30T15:43:34.000Z</time>
      </trkpt>
      <trkpt lat="43.71782" lon="1.4068">
        <ele>123.416334</ele>
        <time>2023-07-30T15:43:34.000Z</time>
      </trkpt>
      <trkpt lat="43.71777" lon="1.40686">
        <ele>123.350443</ele>
        <time>2023-07-30T15:43:35.000Z</time>
      </trkpt>
      <trkpt lat="43.71777" lon="1.40686">
        <ele>123.350443</ele>
        <time>2023-07-30T15:43:35.000Z</time>
      </trkpt>
      <trkpt lat="43.71774" lon="1.40693">
        <ele>123.286374</ele>
        <time>2023-07-30T15:43:36.000Z</time>
      </trkpt>
      <trkpt lat="43.71774" lon="1.40693">
        <ele>123.286374</ele>
        <time>2023-07-30T15:43:36.000Z</time>
      </trkpt>
      <trkpt lat="43.71772" lon="1.40702">
        <ele>123.212499</ele>
        <time>2023-07-30T15:43:37.000Z</time>
      </trkpt>
      <trkpt lat="43.7177" lon="1.4071">
        <ele>123.146252</ele>
        <time>2023-07-30T15:43:38.000Z</time>
      </trkpt>
      <trkpt lat="43.7177" lon="1.4071">
        <ele>123.146252</ele>
        <time>2023-07-30T15:43:38.000Z</time>
      </trkpt>
      <trkpt lat="43.71768" lon="1.40718">
        <ele>123.073176</ele>
        <time>2023-07-30T15:43:39.000Z</time>
      </trkpt>
      <trkpt lat="43.71766" lon="1.40727">
        <ele>123.001623</ele>
        <time>2023-07-30T15:43:40.000Z</time>
      </trkpt>
      <trkpt lat="43.71766" lon="1.40727">
        <ele>123.001623</ele>
        <time>2023-07-30T15:43:40.000Z</time>
      </trkpt>
      <trkpt lat="43.71765" lon="1.40736">
        <ele>122.932132</ele>
        <time>2023-07-30T15:43:41.000Z</time>
      </trkpt>
      <trkpt lat="43.71765" lon="1.40736">
        <ele>122.932132</ele>
        <time>2023-07-30T15:43:41.000Z</time>
      </trkpt>
      <trkpt lat="43.71763" lon="1.40745">
        <ele>122.851873</ele>
        <time>2023-07-30T15:43:42.000Z</time>
      </trkpt>
      <trkpt lat="43.71761" lon="1.40753">
        <ele>122.785342</ele>
        <time>2023-07-30T15:43:43.000Z</time>
      </trkpt>
      <trkpt lat="43.7176" lon="1.40761">
        <ele>122.722657</ele>
        <time>2023-07-30T15:43:44.000Z</time>
      </trkpt>
      <trkpt lat="43.71758" lon="1.40769">
        <ele>122.659204</ele>
        <time>2023-07-30T15:43:45.000Z</time>
      </trkpt>
      <trkpt lat="43.71758" lon="1.40769">
        <ele>122.659204</ele>
        <time>2023-07-30T15:43:45.000Z</time>
      </trkpt>
      <trkpt lat="43.71756" lon="1.40778">
        <ele>122.586127</ele>
        <time>2023-07-30T15:43:46.000Z</time>
      </trkpt>
      <trkpt lat="43.71755" lon="1.40786">
        <ele>122.513051</ele>
        <time>2023-07-30T15:43:47.000Z</time>
      </trkpt>
      <trkpt lat="43.71753" lon="1.40795">
        <ele>122.441168</ele>
        <time>2023-07-30T15:43:48.000Z</time>
      </trkpt>
      <trkpt lat="43.7175" lon="1.40803">
        <ele>122.373806</ele>
        <time>2023-07-30T15:43:49.000Z</time>
      </trkpt>
      <trkpt lat="43.71748" lon="1.40811">
        <ele>122.30382</ele>
        <time>2023-07-30T15:43:50.000Z</time>
      </trkpt>
      <trkpt lat="43.71746" lon="1.40819">
        <ele>122.236791</ele>
        <time>2023-07-30T15:43:51.000Z</time>
      </trkpt>
      <trkpt lat="43.71744" lon="1.40827">
        <ele>122.169789</ele>
        <time>2023-07-30T15:43:52.000Z</time>
      </trkpt>
      <trkpt lat="43.71742" lon="1.40835">
        <ele>122.09906</ele>
        <time>2023-07-30T15:43:53.000Z</time>
      </trkpt>
      <trkpt lat="43.71739" lon="1.40843">
        <ele>122.060294</ele>
        <time>2023-07-30T15:43:54.000Z</time>
      </trkpt>
      <trkpt lat="43.71739" lon="1.40843">
        <ele>122.060294</ele>
        <time>2023-07-30T15:43:54.000Z</time>
      </trkpt>
      <trkpt lat="43.71737" lon="1.40851">
        <ele>122.049089</ele>
        <time>2023-07-30T15:43:55.000Z</time>
      </trkpt>
      <trkpt lat="43.71735" lon="1.40859">
        <ele>122.037625</ele>
        <time>2023-07-30T15:43:56.000Z</time>
      </trkpt>
      <trkpt lat="43.71733" lon="1.40867">
        <ele>122.025904</ele>
        <time>2023-07-30T15:43:57.000Z</time>
      </trkpt>
      <trkpt lat="43.71731" lon="1.40875">
        <ele>122.013929</ele>
        <time>2023-07-30T15:43:58.000Z</time>
      </trkpt>
      <trkpt lat="43.71731" lon="1.40875">
        <ele>122.013929</ele>
        <time>2023-07-30T15:43:58.000Z</time>
      </trkpt>
      <trkpt lat="43.71729" lon="1.40883">
        <ele>122.002838</ele>
        <time>2023-07-30T15:43:59.000Z</time>
      </trkpt>
      <trkpt lat="43.71726" lon="1.40891">
        <ele>121.990447</ele>
        <time>2023-07-30T15:44:00.000Z</time>
      </trkpt>
      <trkpt lat="43.71726" lon="1.40891">
        <ele>121.990447</ele>
        <time>2023-07-30T15:44:00.000Z</time>
      </trkpt>
      <trkpt lat="43.71723" lon="1.40899">
        <ele>121.979</ele>
        <time>2023-07-30T15:44:01.000Z</time>
      </trkpt>
      <trkpt lat="43.71721" lon="1.40906">
        <ele>121.968078</ele>
        <time>2023-07-30T15:44:02.000Z</time>
      </trkpt>
      <trkpt lat="43.71718" lon="1.40914">
        <ele>121.956169</ele>
        <time>2023-07-30T15:44:03.000Z</time>
      </trkpt>
      <trkpt lat="43.71715" lon="1.40921">
        <ele>121.945452</ele>
        <time>2023-07-30T15:44:04.000Z</time>
      </trkpt>
      <trkpt lat="43.71715" lon="1.40921">
        <ele>121.945452</ele>
        <time>2023-07-30T15:44:04.000Z</time>
      </trkpt>
      <trkpt lat="43.71713" lon="1.40928">
        <ele>121.933924</ele>
        <time>2023-07-30T15:44:05.000Z</time>
      </trkpt>
      <trkpt lat="43.7171" lon="1.40936">
        <ele>121.923082</ele>
        <time>2023-07-30T15:44:06.000Z</time>
      </trkpt>
      <trkpt lat="43.71708" lon="1.40943">
        <ele>121.911309</ele>
        <time>2023-07-30T15:44:07.000Z</time>
      </trkpt>
      <trkpt lat="43.71705" lon="1.40951">
        <ele>121.900716</ele>
        <time>2023-07-30T15:44:08.000Z</time>
      </trkpt>
      <trkpt lat="43.71703" lon="1.40958">
        <ele>121.889392</ele>
        <time>2023-07-30T15:44:09.000Z</time>
      </trkpt>
      <trkpt lat="43.71698" lon="1.40964">
        <ele>121.877724</ele>
        <time>2023-07-30T15:44:10.000Z</time>
      </trkpt>
      <trkpt lat="43.71695" lon="1.4097">
        <ele>121.867657</ele>
        <time>2023-07-30T15:44:11.000Z</time>
      </trkpt>
      <trkpt lat="43.71695" lon="1.4097">
        <ele>121.867657</ele>
        <time>2023-07-30T15:44:11.000Z</time>
      </trkpt>
      <trkpt lat="43.7169" lon="1.40975">
        <ele>121.855793</ele>
        <time>2023-07-30T15:44:12.000Z</time>
      </trkpt>
      <trkpt lat="43.71684" lon="1.4098">
        <ele>121.843314</ele>
        <time>2023-07-30T15:44:13.000Z</time>
      </trkpt>
      <trkpt lat="43.71679" lon="1.40985">
        <ele>121.831075</ele>
        <time>2023-07-30T15:44:14.000Z</time>
      </trkpt>
      <trkpt lat="43.71674" lon="1.4099">
        <ele>121.819766</ele>
        <time>2023-07-30T15:44:15.000Z</time>
      </trkpt>
      <trkpt lat="43.71668" lon="1.40995">
        <ele>121.806966</ele>
        <time>2023-07-30T15:44:16.000Z</time>
      </trkpt>
      <trkpt lat="43.71663" lon="1.40999">
        <ele>121.795048</ele>
        <time>2023-07-30T15:44:17.000Z</time>
      </trkpt>
      <trkpt lat="43.71657" lon="1.41002">
        <ele>121.783512</ele>
        <time>2023-07-30T15:44:18.000Z</time>
      </trkpt>
      <trkpt lat="43.71657" lon="1.41002">
        <ele>121.783512</ele>
        <time>2023-07-30T15:44:18.000Z</time>
      </trkpt>
      <trkpt lat="43.71651" lon="1.41005">
        <ele>121.771489</ele>
        <time>2023-07-30T15:44:19.000Z</time>
      </trkpt>
      <trkpt lat="43.71645" lon="1.41007">
        <ele>121.760185</ele>
        <time>2023-07-30T15:44:20.000Z</time>
      </trkpt>
      <trkpt lat="43.71639" lon="1.4101">
        <ele>121.748701</ele>
        <time>2023-07-30T15:44:21.000Z</time>
      </trkpt>
      <trkpt lat="43.71633" lon="1.41013">
        <ele>121.735973</ele>
        <time>2023-07-30T15:44:22.000Z</time>
      </trkpt>
      <trkpt lat="43.71633" lon="1.41013">
        <ele>121.735973</ele>
        <time>2023-07-30T15:44:22.000Z</time>
      </trkpt>
      <trkpt lat="43.71626" lon="1.41016">
        <ele>121.736639</ele>
        <time>2023-07-30T15:44:23.000Z</time>
      </trkpt>
      <trkpt lat="43.71626" lon="1.41016">
        <ele>121.736639</ele>
        <time>2023-07-30T15:44:23.000Z</time>
      </trkpt>
      <trkpt lat="43.7162" lon="1.41019">
        <ele>121.757914</ele>
        <time>2023-07-30T15:44:24.000Z</time>
      </trkpt>
      <trkpt lat="43.71614" lon="1.41021">
        <ele>121.780391</ele>
        <time>2023-07-30T15:44:25.000Z</time>
      </trkpt>
      <trkpt lat="43.71607" lon="1.41024">
        <ele>121.80274</ele>
        <time>2023-07-30T15:44:26.000Z</time>
      </trkpt>
      <trkpt lat="43.71607" lon="1.41024">
        <ele>121.80274</ele>
        <time>2023-07-30T15:44:26.000Z</time>
      </trkpt>
      <trkpt lat="43.71601" lon="1.41026">
        <ele>121.82486</ele>
        <time>2023-07-30T15:44:27.000Z</time>
      </trkpt>
      <trkpt lat="43.71594" lon="1.41027">
        <ele>121.846752</ele>
        <time>2023-07-30T15:44:28.000Z</time>
      </trkpt>
      <trkpt lat="43.71594" lon="1.41027">
        <ele>121.846752</ele>
        <time>2023-07-30T15:44:28.000Z</time>
      </trkpt>
      <trkpt lat="43.71589" lon="1.41028">
        <ele>121.865838</ele>
        <time>2023-07-30T15:44:29.000Z</time>
      </trkpt>
      <trkpt lat="43.71582" lon="1.41029">
        <ele>121.888805</ele>
        <time>2023-07-30T15:44:30.000Z</time>
      </trkpt>
      <trkpt lat="43.71575" lon="1.41029">
        <ele>121.910088</ele>
        <time>2023-07-30T15:44:31.000Z</time>
      </trkpt>
      <trkpt lat="43.71568" lon="1.4103">
        <ele>121.933054</ele>
        <time>2023-07-30T15:44:32.000Z</time>
      </trkpt>
      <trkpt lat="43.71563" lon="1.4103">
        <ele>121.952044</ele>
        <time>2023-07-30T15:44:33.000Z</time>
      </trkpt>
      <trkpt lat="43.71556" lon="1.41031">
        <ele>121.973703</ele>
        <time>2023-07-30T15:44:34.000Z</time>
      </trkpt>
      <trkpt lat="43.7155" lon="1.41031">
        <ele>121.995317</ele>
        <time>2023-07-30T15:44:35.000Z</time>
      </trkpt>
      <trkpt lat="43.71543" lon="1.41032">
        <ele>122.016915</ele>
        <time>2023-07-30T15:44:36.000Z</time>
      </trkpt>
      <trkpt lat="43.71537" lon="1.41032">
        <ele>122.038541</ele>
        <time>2023-07-30T15:44:37.000Z</time>
      </trkpt>
      <trkpt lat="43.7153" lon="1.41033">
        <ele>122.059836</ele>
        <time>2023-07-30T15:44:38.000Z</time>
      </trkpt>
      <trkpt lat="43.71524" lon="1.41033">
        <ele>122.08145</ele>
        <time>2023-07-30T15:44:39.000Z</time>
      </trkpt>
      <trkpt lat="43.71517" lon="1.41033">
        <ele>122.103076</ele>
        <time>2023-07-30T15:44:40.000Z</time>
      </trkpt>
      <trkpt lat="43.71517" lon="1.41033">
        <ele>122.103076</ele>
        <time>2023-07-30T15:44:40.000Z</time>
      </trkpt>
      <trkpt lat="43.71511" lon="1.41034">
        <ele>122.124702</ele>
        <time>2023-07-30T15:44:41.000Z</time>
      </trkpt>
      <trkpt lat="43.71504" lon="1.41034">
        <ele>122.146317</ele>
        <time>2023-07-30T15:44:42.000Z</time>
      </trkpt>
      <trkpt lat="43.71498" lon="1.41035">
        <ele>122.166593</ele>
        <time>2023-07-30T15:44:43.000Z</time>
      </trkpt>
      <trkpt lat="43.71492" lon="1.41035">
        <ele>122.186863</ele>
        <time>2023-07-30T15:44:44.000Z</time>
      </trkpt>
      <trkpt lat="43.71486" lon="1.41035">
        <ele>122.208489</ele>
        <time>2023-07-30T15:44:45.000Z</time>
      </trkpt>
      <trkpt lat="43.71486" lon="1.41035">
        <ele>122.208489</ele>
        <time>2023-07-30T15:44:45.000Z</time>
      </trkpt>
      <trkpt lat="43.71479" lon="1.41036">
        <ele>122.230167</ele>
        <time>2023-07-30T15:44:46.000Z</time>
      </trkpt>
      <trkpt lat="43.71473" lon="1.41036">
        <ele>122.25144</ele>
        <time>2023-07-30T15:44:47.000Z</time>
      </trkpt>
      <trkpt lat="43.71466" lon="1.41037">
        <ele>122.273038</ele>
        <time>2023-07-30T15:44:48.000Z</time>
      </trkpt>
      <trkpt lat="43.7146" lon="1.41037">
        <ele>122.293304</ele>
        <time>2023-07-30T15:44:49.000Z</time>
      </trkpt>
      <trkpt lat="43.7146" lon="1.41037">
        <ele>122.293304</ele>
        <time>2023-07-30T15:44:49.000Z</time>
      </trkpt>
      <trkpt lat="43.71454" lon="1.41036">
        <ele>122.31493</ele>
        <time>2023-07-30T15:44:50.000Z</time>
      </trkpt>
      <trkpt lat="43.71454" lon="1.41036">
        <ele>122.31493</ele>
        <time>2023-07-30T15:44:50.000Z</time>
      </trkpt>
      <trkpt lat="43.71448" lon="1.41035">
        <ele>122.327445</ele>
        <time>2023-07-30T15:44:51.000Z</time>
      </trkpt>
      <trkpt lat="43.71442" lon="1.41035">
        <ele>122.332293</ele>
        <time>2023-07-30T15:44:51.000Z</time>
      </trkpt>
      <trkpt lat="43.71435" lon="1.41035">
        <ele>122.33761</ele>
        <time>2023-07-30T15:44:52.000Z</time>
      </trkpt>
      <trkpt lat="43.71429" lon="1.41034">
        <ele>122.342377</ele>
        <time>2023-07-30T15:44:54.000Z</time>
      </trkpt>
      <trkpt lat="43.71422" lon="1.41034">
        <ele>122.347457</ele>
        <time>2023-07-30T15:44:54.000Z</time>
      </trkpt>
      <trkpt lat="43.71416" lon="1.41034">
        <ele>122.35254</ele>
        <time>2023-07-30T15:44:56.000Z</time>
      </trkpt>
      <trkpt lat="43.71409" lon="1.41033">
        <ele>122.357618</ele>
        <time>2023-07-30T15:44:56.000Z</time>
      </trkpt>
      <trkpt lat="43.71403" lon="1.41033">
        <ele>122.362701</ele>
        <time>2023-07-30T15:44:57.000Z</time>
      </trkpt>
      <trkpt lat="43.71396" lon="1.41033">
        <ele>122.367701</ele>
        <time>2023-07-30T15:44:59.000Z</time>
      </trkpt>
      <trkpt lat="43.7139" lon="1.41033">
        <ele>122.37278</ele>
        <time>2023-07-30T15:44:59.000Z</time>
      </trkpt>
      <trkpt lat="43.71383" lon="1.41033">
        <ele>122.377857</ele>
        <time>2023-07-30T15:45:00.000Z</time>
      </trkpt>
      <trkpt lat="43.71377" lon="1.41033">
        <ele>122.382942</ele>
        <time>2023-07-30T15:45:02.000Z</time>
      </trkpt>
      <trkpt lat="43.7137" lon="1.41034">
        <ele>122.388346</ele>
        <time>2023-07-30T15:45:02.000Z</time>
      </trkpt>
      <trkpt lat="43.71363" lon="1.41035">
        <ele>122.394004</ele>
        <time>2023-07-30T15:45:04.000Z</time>
      </trkpt>
      <trkpt lat="43.71363" lon="1.41035">
        <ele>122.394004</ele>
        <time>2023-07-30T15:45:04.000Z</time>
      </trkpt>
      <trkpt lat="43.71357" lon="1.41036">
        <ele>122.39881</ele>
        <time>2023-07-30T15:45:04.000Z</time>
      </trkpt>
      <trkpt lat="43.7135" lon="1.41037">
        <ele>122.403925</ele>
        <time>2023-07-30T15:45:05.000Z</time>
      </trkpt>
      <trkpt lat="43.71343" lon="1.41038">
        <ele>122.40935</ele>
        <time>2023-07-30T15:45:06.000Z</time>
      </trkpt>
      <trkpt lat="43.71337" lon="1.41039">
        <ele>122.414163</ele>
        <time>2023-07-30T15:45:07.000Z</time>
      </trkpt>
      <trkpt lat="43.7133" lon="1.41041">
        <ele>122.419533</ele>
        <time>2023-07-30T15:45:08.000Z</time>
      </trkpt>
      <trkpt lat="43.71324" lon="1.41042">
        <ele>122.424663</ele>
        <time>2023-07-30T15:45:09.000Z</time>
      </trkpt>
      <trkpt lat="43.71317" lon="1.41043">
        <ele>122.429771</ele>
        <time>2023-07-30T15:45:11.000Z</time>
      </trkpt>
      <trkpt lat="43.71311" lon="1.41043">
        <ele>122.434849</ele>
        <time>2023-07-30T15:45:12.000Z</time>
      </trkpt>
      <trkpt lat="43.71304" lon="1.41042">
        <ele>122.439964</ele>
        <time>2023-07-30T15:45:12.000Z</time>
      </trkpt>
      <trkpt lat="43.71298" lon="1.41041">
        <ele>122.445102</ele>
        <time>2023-07-30T15:45:13.000Z</time>
      </trkpt>
      <trkpt lat="43.71291" lon="1.4104">
        <ele>122.45014</ele>
        <time>2023-07-30T15:45:14.000Z</time>
      </trkpt>
      <trkpt lat="43.71286" lon="1.41039">
        <ele>122.454376</ele>
        <time>2023-07-30T15:45:15.000Z</time>
      </trkpt>
      <trkpt lat="43.7128" lon="1.41039">
        <ele>122.459144</ele>
        <time>2023-07-30T15:45:16.000Z</time>
      </trkpt>
      <trkpt lat="43.71273" lon="1.41038">
        <ele>122.464222</ele>
        <time>2023-07-30T15:45:18.000Z</time>
      </trkpt>
      <trkpt lat="43.71267" lon="1.41039">
        <ele>122.473263</ele>
        <time>2023-07-30T15:45:19.000Z</time>
      </trkpt>
      <trkpt lat="43.71267" lon="1.41039">
        <ele>122.473263</ele>
        <time>2023-07-30T15:45:19.000Z</time>
      </trkpt>
      <trkpt lat="43.71261" lon="1.41039">
        <ele>122.483675</ele>
        <time>2023-07-30T15:45:19.000Z</time>
      </trkpt>
      <trkpt lat="43.71254" lon="1.4104">
        <ele>122.495301</ele>
        <time>2023-07-30T15:45:21.000Z</time>
      </trkpt>
      <trkpt lat="43.71248" lon="1.41041">
        <ele>122.505251</ele>
        <time>2023-07-30T15:45:22.000Z</time>
      </trkpt>
      <trkpt lat="43.71242" lon="1.41042">
        <ele>122.516247</ele>
        <time>2023-07-30T15:45:22.000Z</time>
      </trkpt>
      <trkpt lat="43.71235" lon="1.41043">
        <ele>122.528103</ele>
        <time>2023-07-30T15:45:23.000Z</time>
      </trkpt>
      <trkpt lat="43.71228" lon="1.41044">
        <ele>122.539284</ele>
        <time>2023-07-30T15:45:24.000Z</time>
      </trkpt>
      <trkpt lat="43.71222" lon="1.41045">
        <ele>122.550448</ele>
        <time>2023-07-30T15:45:25.000Z</time>
      </trkpt>
      <trkpt lat="43.71215" lon="1.41046">
        <ele>122.561586</ele>
        <time>2023-07-30T15:45:26.000Z</time>
      </trkpt>
      <trkpt lat="43.71215" lon="1.41046">
        <ele>122.561586</ele>
        <time>2023-07-30T15:45:26.000Z</time>
      </trkpt>
      <trkpt lat="43.71202" lon="1.41047">
        <ele>122.58499</ele>
        <time>2023-07-30T15:45:27.000Z</time>
      </trkpt>
      <trkpt lat="43.71189" lon="1.41047">
        <ele>122.606482</ele>
        <time>2023-07-30T15:45:30.000Z</time>
      </trkpt>
      <trkpt lat="43.71189" lon="1.41047">
        <ele>122.606482</ele>
        <time>2023-07-30T15:45:30.000Z</time>
      </trkpt>
      <trkpt lat="43.71183" lon="1.41046">
        <ele>122.617588</ele>
        <time>2023-07-30T15:45:31.000Z</time>
      </trkpt>
      <trkpt lat="43.71177" lon="1.41045">
        <ele>122.628047</ele>
        <time>2023-07-30T15:45:32.000Z</time>
      </trkpt>
      <trkpt lat="43.7117" lon="1.41044">
        <ele>122.639706</ele>
        <time>2023-07-30T15:45:34.000Z</time>
      </trkpt>
      <trkpt lat="43.71163" lon="1.41043">
        <ele>122.650871</ele>
        <time>2023-07-30T15:45:34.000Z</time>
      </trkpt>
      <trkpt lat="43.71151" lon="1.41041">
        <ele>122.672468</ele>
        <time>2023-07-30T15:45:36.000Z</time>
      </trkpt>
      <trkpt lat="43.71144" lon="1.41041">
        <ele>122.684263</ele>
        <time>2023-07-30T15:45:37.000Z</time>
      </trkpt>
      <trkpt lat="43.71137" lon="1.41041">
        <ele>122.695348</ele>
        <time>2023-07-30T15:45:38.000Z</time>
      </trkpt>
      <trkpt lat="43.71131" lon="1.41041">
        <ele>122.70626</ele>
        <time>2023-07-30T15:45:39.000Z</time>
      </trkpt>
      <trkpt lat="43.71125" lon="1.41041">
        <ele>122.716663</ele>
        <time>2023-07-30T15:45:40.000Z</time>
      </trkpt>
      <trkpt lat="43.71118" lon="1.41041">
        <ele>122.727748</ele>
        <time>2023-07-30T15:45:41.000Z</time>
      </trkpt>
      <trkpt lat="43.71118" lon="1.41041">
        <ele>122.727748</ele>
        <time>2023-07-30T15:45:41.000Z</time>
      </trkpt>
      <trkpt lat="43.71112" lon="1.41041">
        <ele>122.73883</ele>
        <time>2023-07-30T15:45:42.000Z</time>
      </trkpt>
      <trkpt lat="43.71105" lon="1.41041">
        <ele>122.749913</ele>
        <time>2023-07-30T15:45:43.000Z</time>
      </trkpt>
      <trkpt lat="43.711" lon="1.41041">
        <ele>122.759631</ele>
        <time>2023-07-30T15:45:44.000Z</time>
      </trkpt>
      <trkpt lat="43.71093" lon="1.41041">
        <ele>122.771401</ele>
        <time>2023-07-30T15:45:45.000Z</time>
      </trkpt>
      <trkpt lat="43.71086" lon="1.41042">
        <ele>122.790097</ele>
        <time>2023-07-30T15:45:46.000Z</time>
      </trkpt>
      <trkpt lat="43.7108" lon="1.41042">
        <ele>122.809734</ele>
        <time>2023-07-30T15:45:47.000Z</time>
      </trkpt>
      <trkpt lat="43.71073" lon="1.41043">
        <ele>122.830272</ele>
        <time>2023-07-30T15:45:48.000Z</time>
      </trkpt>
      <trkpt lat="43.71067" lon="1.41044">
        <ele>122.848708</ele>
        <time>2023-07-30T15:45:49.000Z</time>
      </trkpt>
      <trkpt lat="43.71061" lon="1.41044">
        <ele>122.867128</ele>
        <time>2023-07-30T15:45:50.000Z</time>
      </trkpt>
      <trkpt lat="43.71054" lon="1.41045">
        <ele>122.887966</ele>
        <time>2023-07-30T15:45:51.000Z</time>
      </trkpt>
      <trkpt lat="43.71041" lon="1.41047">
        <ele>122.926057</ele>
        <time>2023-07-30T15:45:53.000Z</time>
      </trkpt>
      <trkpt lat="43.71041" lon="1.41047">
        <ele>122.926057</ele>
        <time>2023-07-30T15:45:53.000Z</time>
      </trkpt>
      <trkpt lat="43.71034" lon="1.41048">
        <ele>122.946932</ele>
        <time>2023-07-30T15:45:54.000Z</time>
      </trkpt>
      <trkpt lat="43.71029" lon="1.41048">
        <ele>122.964168</ele>
        <time>2023-07-30T15:45:55.000Z</time>
      </trkpt>
      <trkpt lat="43.71022" lon="1.41049">
        <ele>122.984724</ele>
        <time>2023-07-30T15:45:56.000Z</time>
      </trkpt>
      <trkpt lat="43.71008" lon="1.41051">
        <ele>123.026435</ele>
        <time>2023-07-30T15:45:58.000Z</time>
      </trkpt>
      <trkpt lat="43.71002" lon="1.41051">
        <ele>123.044871</ele>
        <time>2023-07-30T15:45:59.000Z</time>
      </trkpt>
      <trkpt lat="43.70996" lon="1.41052">
        <ele>123.063348</ele>
        <time>2023-07-30T15:46:00.000Z</time>
      </trkpt>
      <trkpt lat="43.70996" lon="1.41052">
        <ele>123.063348</ele>
        <time>2023-07-30T15:46:00.000Z</time>
      </trkpt>
      <trkpt lat="43.70989" lon="1.41053">
        <ele>123.084268</ele>
        <time>2023-07-30T15:46:01.000Z</time>
      </trkpt>
      <trkpt lat="43.70982" lon="1.41055">
        <ele>123.103721</ele>
        <time>2023-07-30T15:46:02.000Z</time>
      </trkpt>
      <trkpt lat="43.70976" lon="1.41056">
        <ele>123.123473</ele>
        <time>2023-07-30T15:46:03.000Z</time>
      </trkpt>
      <trkpt lat="43.70969" lon="1.41057">
        <ele>123.144478</ele>
        <time>2023-07-30T15:46:04.000Z</time>
      </trkpt>
      <trkpt lat="43.70963" lon="1.41058">
        <ele>123.164229</ele>
        <time>2023-07-30T15:46:05.000Z</time>
      </trkpt>
      <trkpt lat="43.70955" lon="1.4106">
        <ele>123.186349</ele>
        <time>2023-07-30T15:46:06.000Z</time>
      </trkpt>
      <trkpt lat="43.70943" lon="1.41064">
        <ele>123.225191</ele>
        <time>2023-07-30T15:46:08.000Z</time>
      </trkpt>
      <trkpt lat="43.70936" lon="1.41066">
        <ele>123.245201</ele>
        <time>2023-07-30T15:46:09.000Z</time>
      </trkpt>
      <trkpt lat="43.70929" lon="1.41068">
        <ele>123.266239</ele>
        <time>2023-07-30T15:46:10.000Z</time>
      </trkpt>
      <trkpt lat="43.70929" lon="1.41068">
        <ele>123.266239</ele>
        <time>2023-07-30T15:46:10.000Z</time>
      </trkpt>
      <trkpt lat="43.70924" lon="1.41069">
        <ele>123.283545</ele>
        <time>2023-07-30T15:46:11.000Z</time>
      </trkpt>
      <trkpt lat="43.70918" lon="1.4107">
        <ele>123.302103</ele>
        <time>2023-07-30T15:46:12.000Z</time>
      </trkpt>
      <trkpt lat="43.70918" lon="1.4107">
        <ele>123.302103</ele>
        <time>2023-07-30T15:46:12.000Z</time>
      </trkpt>
      <trkpt lat="43.7091" lon="1.41071">
        <ele>123.313562</ele>
        <time>2023-07-30T15:46:13.000Z</time>
      </trkpt>
      <trkpt lat="43.70903" lon="1.41072">
        <ele>123.311837</ele>
        <time>2023-07-30T15:46:14.000Z</time>
      </trkpt>
      <trkpt lat="43.70897" lon="1.41073">
        <ele>123.310223</ele>
        <time>2023-07-30T15:46:15.000Z</time>
      </trkpt>
      <trkpt lat="43.7089" lon="1.41073">
        <ele>123.308608</ele>
        <time>2023-07-30T15:46:16.000Z</time>
      </trkpt>
      <trkpt lat="43.7089" lon="1.41073">
        <ele>123.308608</ele>
        <time>2023-07-30T15:46:16.000Z</time>
      </trkpt>
      <trkpt lat="43.70884" lon="1.41073">
        <ele>123.306994</ele>
        <time>2023-07-30T15:46:17.000Z</time>
      </trkpt>
      <trkpt lat="43.70878" lon="1.41072">
        <ele>123.305577</ele>
        <time>2023-07-30T15:46:18.000Z</time>
      </trkpt>
      <trkpt lat="43.70878" lon="1.41072">
        <ele>123.305577</ele>
        <time>2023-07-30T15:46:18.000Z</time>
      </trkpt>
      <trkpt lat="43.70872" lon="1.41072">
        <ele>123.303957</ele>
        <time>2023-07-30T15:46:19.000Z</time>
      </trkpt>
      <trkpt lat="43.70865" lon="1.4107">
        <ele>123.302326</ele>
        <time>2023-07-30T15:46:20.000Z</time>
      </trkpt>
      <trkpt lat="43.70859" lon="1.41069">
        <ele>123.300708</ele>
        <time>2023-07-30T15:46:21.000Z</time>
      </trkpt>
      <trkpt lat="43.70853" lon="1.41067">
        <ele>123.29916</ele>
        <time>2023-07-30T15:46:22.000Z</time>
      </trkpt>
      <trkpt lat="43.70846" lon="1.41065">
        <ele>123.297419</ele>
        <time>2023-07-30T15:46:23.000Z</time>
      </trkpt>
      <trkpt lat="43.7084" lon="1.41064">
        <ele>123.295887</ele>
        <time>2023-07-30T15:46:24.000Z</time>
      </trkpt>
      <trkpt lat="43.70834" lon="1.41063">
        <ele>123.294369</ele>
        <time>2023-07-30T15:46:25.000Z</time>
      </trkpt>
      <trkpt lat="43.70828" lon="1.41063">
        <ele>123.292853</ele>
        <time>2023-07-30T15:46:26.000Z</time>
      </trkpt>
      <trkpt lat="43.70821" lon="1.41063">
        <ele>123.291339</ele>
        <time>2023-07-30T15:46:27.000Z</time>
      </trkpt>
      <trkpt lat="43.70815" lon="1.41063">
        <ele>123.289724</ele>
        <time>2023-07-30T15:46:28.000Z</time>
      </trkpt>
      <trkpt lat="43.70808" lon="1.41064">
        <ele>123.288107</ele>
        <time>2023-07-30T15:46:29.000Z</time>
      </trkpt>
      <trkpt lat="43.70808" lon="1.41064">
        <ele>123.288107</ele>
        <time>2023-07-30T15:46:29.000Z</time>
      </trkpt>
      <trkpt lat="43.70803" lon="1.41065">
        <ele>123.286683</ele>
        <time>2023-07-30T15:46:30.000Z</time>
      </trkpt>
      <trkpt lat="43.70796" lon="1.41066">
        <ele>123.285055</ele>
        <time>2023-07-30T15:46:31.000Z</time>
      </trkpt>
      <trkpt lat="43.70784" lon="1.41069">
        <ele>123.281883</ele>
        <time>2023-07-30T15:46:33.000Z</time>
      </trkpt>
      <trkpt lat="43.7078" lon="1.4107">
        <ele>123.281027</ele>
        <time>2023-07-30T15:46:34.000Z</time>
      </trkpt>
      <trkpt lat="43.7078" lon="1.4107">
        <ele>123.281027</ele>
        <time>2023-07-30T15:46:34.000Z</time>
      </trkpt>
      <trkpt lat="43.7077" lon="1.41072">
        <ele>123.278532</ele>
        <time>2023-07-30T15:46:35.000Z</time>
      </trkpt>
      <trkpt lat="43.70765" lon="1.41073">
        <ele>123.277073</ele>
        <time>2023-07-30T15:46:36.000Z</time>
      </trkpt>
      <trkpt lat="43.70758" lon="1.41075">
        <ele>123.275467</ele>
        <time>2023-07-30T15:46:37.000Z</time>
      </trkpt>
      <trkpt lat="43.70758" lon="1.41075">
        <ele>123.275467</ele>
        <time>2023-07-30T15:46:37.000Z</time>
      </trkpt>
      <trkpt lat="43.70751" lon="1.41075">
        <ele>123.273746</ele>
        <time>2023-07-30T15:46:38.000Z</time>
      </trkpt>
      <trkpt lat="43.70751" lon="1.41075">
        <ele>123.273746</ele>
        <time>2023-07-30T15:46:38.000Z</time>
      </trkpt>
      <trkpt lat="43.70739" lon="1.41077">
        <ele>123.270711</ele>
        <time>2023-07-30T15:46:40.000Z</time>
      </trkpt>
      <trkpt lat="43.70732" lon="1.41077">
        <ele>123.272813</ele>
        <time>2023-07-30T15:46:41.000Z</time>
      </trkpt>
      <trkpt lat="43.70732" lon="1.41077">
        <ele>123.272813</ele>
        <time>2023-07-30T15:46:41.000Z</time>
      </trkpt>
      <trkpt lat="43.70725" lon="1.41077">
        <ele>123.280722</ele>
        <time>2023-07-30T15:46:42.000Z</time>
      </trkpt>
      <trkpt lat="43.70718" lon="1.41078">
        <ele>123.287856</ele>
        <time>2023-07-30T15:46:43.000Z</time>
      </trkpt>
      <trkpt lat="43.70712" lon="1.41078">
        <ele>123.294988</ele>
        <time>2023-07-30T15:46:44.000Z</time>
      </trkpt>
      <trkpt lat="43.70704" lon="1.41078">
        <ele>123.303327</ele>
        <time>2023-07-30T15:46:45.000Z</time>
      </trkpt>
      <trkpt lat="43.70699" lon="1.41078">
        <ele>123.309254</ele>
        <time>2023-07-30T15:46:46.000Z</time>
      </trkpt>
      <trkpt lat="43.70692" lon="1.41078">
        <ele>123.316716</ele>
        <time>2023-07-30T15:46:47.000Z</time>
      </trkpt>
      <trkpt lat="43.70686" lon="1.41078">
        <ele>123.323409</ele>
        <time>2023-07-30T15:46:48.000Z</time>
      </trkpt>
      <trkpt lat="43.70679" lon="1.41078">
        <ele>123.331419</ele>
        <time>2023-07-30T15:46:49.000Z</time>
      </trkpt>
      <trkpt lat="43.70672" lon="1.41078">
        <ele>123.338555</ele>
        <time>2023-07-30T15:46:50.000Z</time>
      </trkpt>
      <trkpt lat="43.70672" lon="1.41078">
        <ele>123.338555</ele>
        <time>2023-07-30T15:46:50.000Z</time>
      </trkpt>
      <trkpt lat="43.70666" lon="1.41077">
        <ele>123.345708</ele>
        <time>2023-07-30T15:46:51.000Z</time>
      </trkpt>
      <trkpt lat="43.7066" lon="1.41076">
        <ele>123.352424</ele>
        <time>2023-07-30T15:46:52.000Z</time>
      </trkpt>
      <trkpt lat="43.70653" lon="1.41075">
        <ele>123.359491</ele>
        <time>2023-07-30T15:46:53.000Z</time>
      </trkpt>
      <trkpt lat="43.70653" lon="1.41075">
        <ele>123.359491</ele>
        <time>2023-07-30T15:46:53.000Z</time>
      </trkpt>
      <trkpt lat="43.70647" lon="1.41074">
        <ele>123.365925</ele>
        <time>2023-07-30T15:46:54.000Z</time>
      </trkpt>
      <trkpt lat="43.70641" lon="1.41073">
        <ele>123.373101</ele>
        <time>2023-07-30T15:46:55.000Z</time>
      </trkpt>
      <trkpt lat="43.70634" lon="1.41072">
        <ele>123.380596</ele>
        <time>2023-07-30T15:46:56.000Z</time>
      </trkpt>
      <trkpt lat="43.70628" lon="1.41072">
        <ele>123.3873</ele>
        <time>2023-07-30T15:46:57.000Z</time>
      </trkpt>
      <trkpt lat="43.70622" lon="1.41071">
        <ele>123.394434</ele>
        <time>2023-07-30T15:46:58.000Z</time>
      </trkpt>
      <trkpt lat="43.70616" lon="1.41072">
        <ele>123.40072</ele>
        <time>2023-07-30T15:46:59.000Z</time>
      </trkpt>
      <trkpt lat="43.7061" lon="1.41074">
        <ele>123.407505</ele>
        <time>2023-07-30T15:47:00.000Z</time>
      </trkpt>
      <trkpt lat="43.7061" lon="1.41074">
        <ele>123.407505</ele>
        <time>2023-07-30T15:47:00.000Z</time>
      </trkpt>
      <trkpt lat="43.70603" lon="1.41075">
        <ele>123.415145</ele>
        <time>2023-07-30T15:47:01.000Z</time>
      </trkpt>
      <trkpt lat="43.70597" lon="1.41076">
        <ele>123.421861</ele>
        <time>2023-07-30T15:47:02.000Z</time>
      </trkpt>
      <trkpt lat="43.70591" lon="1.41076">
        <ele>123.428554</ele>
        <time>2023-07-30T15:47:03.000Z</time>
      </trkpt>
      <trkpt lat="43.70584" lon="1.41076">
        <ele>123.435697</ele>
        <time>2023-07-30T15:47:04.000Z</time>
      </trkpt>
      <trkpt lat="43.70584" lon="1.41076">
        <ele>123.435697</ele>
        <time>2023-07-30T15:47:04.000Z</time>
      </trkpt>
      <trkpt lat="43.70578" lon="1.41077">
        <ele>123.441964</ele>
        <time>2023-07-30T15:47:05.000Z</time>
      </trkpt>
      <trkpt lat="43.70578" lon="1.41077">
        <ele>123.441964</ele>
        <time>2023-07-30T15:47:05.000Z</time>
      </trkpt>
      <trkpt lat="43.70572" lon="1.41077">
        <ele>123.44868</ele>
        <time>2023-07-30T15:47:06.000Z</time>
      </trkpt>
      <trkpt lat="43.70572" lon="1.41077">
        <ele>123.44868</ele>
        <time>2023-07-30T15:47:06.000Z</time>
      </trkpt>
      <trkpt lat="43.70566" lon="1.41078">
        <ele>123.45584</ele>
        <time>2023-07-30T15:47:07.000Z</time>
      </trkpt>
      <trkpt lat="43.70559" lon="1.41079">
        <ele>123.462993</ele>
        <time>2023-07-30T15:47:08.000Z</time>
      </trkpt>
      <trkpt lat="43.70553" lon="1.4108">
        <ele>123.474603</ele>
        <time>2023-07-30T15:47:09.000Z</time>
      </trkpt>
      <trkpt lat="43.70547" lon="1.4108">
        <ele>123.491005</ele>
        <time>2023-07-30T15:47:10.000Z</time>
      </trkpt>
      <trkpt lat="43.70547" lon="1.4108">
        <ele>123.491005</ele>
        <time>2023-07-30T15:47:10.000Z</time>
      </trkpt>
      <trkpt lat="43.7054" lon="1.41081">
        <ele>123.508553</ele>
        <time>2023-07-30T15:47:11.000Z</time>
      </trkpt>
      <trkpt lat="43.70535" lon="1.41082">
        <ele>123.523927</ele>
        <time>2023-07-30T15:47:12.000Z</time>
      </trkpt>
      <trkpt lat="43.70528" lon="1.41084">
        <ele>123.540466</ele>
        <time>2023-07-30T15:47:13.000Z</time>
      </trkpt>
      <trkpt lat="43.70528" lon="1.41084">
        <ele>123.540466</ele>
        <time>2023-07-30T15:47:13.000Z</time>
      </trkpt>
      <trkpt lat="43.70522" lon="1.41085">
        <ele>123.558124</ele>
        <time>2023-07-30T15:47:14.000Z</time>
      </trkpt>
      <trkpt lat="43.70516" lon="1.41087">
        <ele>123.574727</ele>
        <time>2023-07-30T15:47:15.000Z</time>
      </trkpt>
      <trkpt lat="43.70516" lon="1.41087">
        <ele>123.574727</ele>
        <time>2023-07-30T15:47:15.000Z</time>
      </trkpt>
      <trkpt lat="43.70509" lon="1.41088">
        <ele>123.593122</ele>
        <time>2023-07-30T15:47:17.000Z</time>
      </trkpt>
      <trkpt lat="43.70503" lon="1.41089">
        <ele>123.609524</ele>
        <time>2023-07-30T15:47:17.000Z</time>
      </trkpt>
      <trkpt lat="43.70496" lon="1.41089">
        <ele>123.628096</ele>
        <time>2023-07-30T15:47:19.000Z</time>
      </trkpt>
      <trkpt lat="43.70496" lon="1.41089">
        <ele>123.628096</ele>
        <time>2023-07-30T15:47:19.000Z</time>
      </trkpt>
      <trkpt lat="43.70489" lon="1.4109">
        <ele>123.646688</ele>
        <time>2023-07-30T15:47:19.000Z</time>
      </trkpt>
      <trkpt lat="43.70483" lon="1.41092">
        <ele>123.664287</ele>
        <time>2023-07-30T15:47:20.000Z</time>
      </trkpt>
      <trkpt lat="43.70476" lon="1.41093">
        <ele>123.682739</ele>
        <time>2023-07-30T15:47:21.000Z</time>
      </trkpt>
      <trkpt lat="43.7047" lon="1.41094">
        <ele>123.6992</ele>
        <time>2023-07-30T15:47:22.000Z</time>
      </trkpt>
      <trkpt lat="43.70463" lon="1.41096">
        <ele>123.716799</ele>
        <time>2023-07-30T15:47:23.000Z</time>
      </trkpt>
      <trkpt lat="43.70463" lon="1.41096">
        <ele>123.716799</ele>
        <time>2023-07-30T15:47:23.000Z</time>
      </trkpt>
      <trkpt lat="43.70458" lon="1.41097">
        <ele>123.732195</ele>
        <time>2023-07-30T15:47:24.000Z</time>
      </trkpt>
      <trkpt lat="43.70451" lon="1.41098">
        <ele>123.749854</ele>
        <time>2023-07-30T15:47:25.000Z</time>
      </trkpt>
      <trkpt lat="43.70445" lon="1.41099">
        <ele>123.765631</ele>
        <time>2023-07-30T15:47:26.000Z</time>
      </trkpt>
      <trkpt lat="43.70438" lon="1.41101">
        <ele>123.784261</ele>
        <time>2023-07-30T15:47:28.000Z</time>
      </trkpt>
      <trkpt lat="43.70433" lon="1.41103">
        <ele>123.799059</ele>
        <time>2023-07-30T15:47:29.000Z</time>
      </trkpt>
      <trkpt lat="43.70427" lon="1.41105">
        <ele>123.815904</ele>
        <time>2023-07-30T15:47:29.000Z</time>
      </trkpt>
      <trkpt lat="43.7042" lon="1.41107">
        <ele>123.834663</ele>
        <time>2023-07-30T15:47:31.000Z</time>
      </trkpt>
      <trkpt lat="43.70416" lon="1.41109">
        <ele>123.845252</ele>
        <time>2023-07-30T15:47:32.000Z</time>
      </trkpt>
      <trkpt lat="43.70407" lon="1.41113">
        <ele>123.870981</ele>
        <time>2023-07-30T15:47:33.000Z</time>
      </trkpt>
      <trkpt lat="43.70402" lon="1.41115">
        <ele>123.885987</ele>
        <time>2023-07-30T15:47:34.000Z</time>
      </trkpt>
      <trkpt lat="43.70396" lon="1.41118">
        <ele>123.901309</ele>
        <time>2023-07-30T15:47:35.000Z</time>
      </trkpt>
      <trkpt lat="43.70389" lon="1.41122">
        <ele>123.923099</ele>
        <time>2023-07-30T15:47:36.000Z</time>
      </trkpt>
      <trkpt lat="43.70384" lon="1.41125">
        <ele>123.938302</ele>
        <time>2023-07-30T15:47:37.000Z</time>
      </trkpt>
      <trkpt lat="43.70377" lon="1.41129">
        <ele>123.944856</ele>
        <time>2023-07-30T15:47:38.000Z</time>
      </trkpt>
      <trkpt lat="43.70371" lon="1.41133">
        <ele>123.937702</ele>
        <time>2023-07-30T15:47:38.000Z</time>
      </trkpt>
      <trkpt lat="43.70371" lon="1.41133">
        <ele>123.937702</ele>
        <time>2023-07-30T15:47:38.000Z</time>
      </trkpt>
      <trkpt lat="43.70369" lon="1.41134">
        <ele>123.934767</ele>
        <time>2023-07-30T15:47:40.000Z</time>
      </trkpt>
      <trkpt lat="43.70369" lon="1.41134">
        <ele>123.934767</ele>
        <time>2023-07-30T15:47:40.000Z</time>
      </trkpt>
      <trkpt lat="43.70359" lon="1.41142">
        <ele>123.921414</ele>
        <time>2023-07-30T15:47:41.000Z</time>
      </trkpt>
      <trkpt lat="43.70354" lon="1.41145">
        <ele>123.914325</ele>
        <time>2023-07-30T15:47:42.000Z</time>
      </trkpt>
      <trkpt lat="43.70348" lon="1.4115">
        <ele>123.906162</ele>
        <time>2023-07-30T15:47:43.000Z</time>
      </trkpt>
      <trkpt lat="43.70342" lon="1.41155">
        <ele>123.898369</ele>
        <time>2023-07-30T15:47:44.000Z</time>
      </trkpt>
      <trkpt lat="43.7034" lon="1.41157">
        <ele>123.895018</ele>
        <time>2023-07-30T15:47:45.000Z</time>
      </trkpt>
      <trkpt lat="43.7033" lon="1.41165">
        <ele>123.882186</ele>
        <time>2023-07-30T15:47:46.000Z</time>
      </trkpt>
      <trkpt lat="43.7033" lon="1.41165">
        <ele>123.882186</ele>
        <time>2023-07-30T15:47:46.000Z</time>
      </trkpt>
      <trkpt lat="43.70326" lon="1.4117">
        <ele>123.875046</ele>
        <time>2023-07-30T15:47:47.000Z</time>
      </trkpt>
      <trkpt lat="43.70321" lon="1.41175">
        <ele>123.868137</ele>
        <time>2023-07-30T15:47:48.000Z</time>
      </trkpt>
      <trkpt lat="43.70314" lon="1.41182">
        <ele>123.858514</ele>
        <time>2023-07-30T15:47:49.000Z</time>
      </trkpt>
      <trkpt lat="43.70314" lon="1.41182">
        <ele>123.858514</ele>
        <time>2023-07-30T15:47:49.000Z</time>
      </trkpt>
      <trkpt lat="43.70309" lon="1.41187">
        <ele>123.850533</ele>
        <time>2023-07-30T15:47:50.000Z</time>
      </trkpt>
      <trkpt lat="43.70309" lon="1.41187">
        <ele>123.850533</ele>
        <time>2023-07-30T15:47:50.000Z</time>
      </trkpt>
      <trkpt lat="43.70305" lon="1.41193">
        <ele>123.843067</ele>
        <time>2023-07-30T15:47:51.000Z</time>
      </trkpt>
      <trkpt lat="43.70293" lon="1.41209">
        <ele>123.824226</ele>
        <time>2023-07-30T15:47:53.000Z</time>
      </trkpt>
      <trkpt lat="43.7029" lon="1.41213">
        <ele>123.819062</ele>
        <time>2023-07-30T15:47:54.000Z</time>
      </trkpt>
      <trkpt lat="43.70286" lon="1.41218">
        <ele>123.81275</ele>
        <time>2023-07-30T15:47:55.000Z</time>
      </trkpt>
      <trkpt lat="43.70286" lon="1.41218">
        <ele>123.81275</ele>
        <time>2023-07-30T15:47:55.000Z</time>
      </trkpt>
      <trkpt lat="43.70281" lon="1.41225">
        <ele>123.804589</ele>
        <time>2023-07-30T15:47:56.000Z</time>
      </trkpt>
      <trkpt lat="43.70277" lon="1.41231">
        <ele>123.796885</ele>
        <time>2023-07-30T15:47:57.000Z</time>
      </trkpt>
      <trkpt lat="43.70272" lon="1.41238">
        <ele>123.788749</ele>
        <time>2023-07-30T15:47:58.000Z</time>
      </trkpt>
      <trkpt lat="43.70267" lon="1.41244">
        <ele>123.781164</ele>
        <time>2023-07-30T15:47:59.000Z</time>
      </trkpt>
      <trkpt lat="43.70263" lon="1.41251">
        <ele>123.77346</ele>
        <time>2023-07-30T15:48:00.000Z</time>
      </trkpt>
      <trkpt lat="43.70258" lon="1.41256">
        <ele>123.766224</ele>
        <time>2023-07-30T15:48:01.000Z</time>
      </trkpt>
      <trkpt lat="43.70253" lon="1.41263">
        <ele>123.758028</ele>
        <time>2023-07-30T15:48:02.000Z</time>
      </trkpt>
      <trkpt lat="43.70249" lon="1.41268">
        <ele>123.751256</ele>
        <time>2023-07-30T15:48:03.000Z</time>
      </trkpt>
      <trkpt lat="43.70245" lon="1.41273">
        <ele>123.745458</ele>
        <time>2023-07-30T15:48:04.000Z</time>
      </trkpt>
      <trkpt lat="43.70245" lon="1.41273">
        <ele>123.745458</ele>
        <time>2023-07-30T15:48:04.000Z</time>
      </trkpt>
      <trkpt lat="43.70242" lon="1.41278">
        <ele>123.739146</ele>
        <time>2023-07-30T15:48:05.000Z</time>
      </trkpt>
      <trkpt lat="43.70238" lon="1.41283">
        <ele>123.743328</ele>
        <time>2023-07-30T15:48:06.000Z</time>
      </trkpt>
      <trkpt lat="43.70235" lon="1.41288">
        <ele>123.75481</ele>
        <time>2023-07-30T15:48:07.000Z</time>
      </trkpt>
      <trkpt lat="43.7023" lon="1.41294">
        <ele>123.769795</ele>
        <time>2023-07-30T15:48:08.000Z</time>
      </trkpt>
      <trkpt lat="43.70226" lon="1.41299">
        <ele>123.783729</ele>
        <time>2023-07-30T15:48:09.000Z</time>
      </trkpt>
      <trkpt lat="43.70221" lon="1.41306">
        <ele>123.800996</ele>
        <time>2023-07-30T15:48:10.000Z</time>
      </trkpt>
      <trkpt lat="43.70216" lon="1.41312">
        <ele>123.815172</ele>
        <time>2023-07-30T15:48:11.000Z</time>
      </trkpt>
      <trkpt lat="43.70211" lon="1.41319">
        <ele>123.832385</ele>
        <time>2023-07-30T15:48:12.000Z</time>
      </trkpt>
      <trkpt lat="43.70206" lon="1.41325">
        <ele>123.848247</ele>
        <time>2023-07-30T15:48:13.000Z</time>
      </trkpt>
      <trkpt lat="43.70201" lon="1.41331">
        <ele>123.863834</ele>
        <time>2023-07-30T15:48:14.000Z</time>
      </trkpt>
      <trkpt lat="43.702" lon="1.41333">
        <ele>123.868811</ele>
        <time>2023-07-30T15:48:15.000Z</time>
      </trkpt>
      <trkpt lat="43.70191" lon="1.41343">
        <ele>123.896346</ele>
        <time>2023-07-30T15:48:16.000Z</time>
      </trkpt>
      <trkpt lat="43.70187" lon="1.41348">
        <ele>123.910043</ele>
        <time>2023-07-30T15:48:17.000Z</time>
      </trkpt>
      <trkpt lat="43.70181" lon="1.41355">
        <ele>123.927077</ele>
        <time>2023-07-30T15:48:18.000Z</time>
      </trkpt>
      <trkpt lat="43.70176" lon="1.41361">
        <ele>123.942776</ele>
        <time>2023-07-30T15:48:19.000Z</time>
      </trkpt>
      <trkpt lat="43.70172" lon="1.41366">
        <ele>123.957413</ele>
        <time>2023-07-30T15:48:20.000Z</time>
      </trkpt>
      <trkpt lat="43.7017" lon="1.41369">
        <ele>123.963332</ele>
        <time>2023-07-30T15:48:21.000Z</time>
      </trkpt>
      <trkpt lat="43.70161" lon="1.41378">
        <ele>123.989701</ele>
        <time>2023-07-30T15:48:22.000Z</time>
      </trkpt>
      <trkpt lat="43.70157" lon="1.41383">
        <ele>124.003159</ele>
        <time>2023-07-30T15:48:23.000Z</time>
      </trkpt>
      <trkpt lat="43.70151" lon="1.41388">
        <ele>124.01996</ele>
        <time>2023-07-30T15:48:24.000Z</time>
      </trkpt>
      <trkpt lat="43.70151" lon="1.41388">
        <ele>124.01996</ele>
        <time>2023-07-30T15:48:24.000Z</time>
      </trkpt>
      <trkpt lat="43.70145" lon="1.41394">
        <ele>124.035776</ele>
        <time>2023-07-30T15:48:25.000Z</time>
      </trkpt>
      <trkpt lat="43.70141" lon="1.41399">
        <ele>124.050634</ele>
        <time>2023-07-30T15:48:25.000Z</time>
      </trkpt>
      <trkpt lat="43.70136" lon="1.41404">
        <ele>124.065786</ele>
        <time>2023-07-30T15:48:27.000Z</time>
      </trkpt>
      <trkpt lat="43.70136" lon="1.41404">
        <ele>124.065786</ele>
        <time>2023-07-30T15:48:27.000Z</time>
      </trkpt>
      <trkpt lat="43.7013" lon="1.41409">
        <ele>124.081307</ele>
        <time>2023-07-30T15:48:28.000Z</time>
      </trkpt>
      <trkpt lat="43.70125" lon="1.41415">
        <ele>124.096567</ele>
        <time>2023-07-30T15:48:29.000Z</time>
      </trkpt>
      <trkpt lat="43.7012" lon="1.41421">
        <ele>124.112265</ele>
        <time>2023-07-30T15:48:30.000Z</time>
      </trkpt>
      <trkpt lat="43.70116" lon="1.41427">
        <ele>124.127932</ele>
        <time>2023-07-30T15:48:31.000Z</time>
      </trkpt>
      <trkpt lat="43.70112" lon="1.41434">
        <ele>124.142858</ele>
        <time>2023-07-30T15:48:32.000Z</time>
      </trkpt>
      <trkpt lat="43.70107" lon="1.4144">
        <ele>124.158199</ele>
        <time>2023-07-30T15:48:33.000Z</time>
      </trkpt>
      <trkpt lat="43.70107" lon="1.4144">
        <ele>124.158199</ele>
        <time>2023-07-30T15:48:33.000Z</time>
      </trkpt>
      <trkpt lat="43.70102" lon="1.41447">
        <ele>124.15813</ele>
        <time>2023-07-30T15:48:34.000Z</time>
      </trkpt>
      <trkpt lat="43.70098" lon="1.41453">
        <ele>124.14423</ele>
        <time>2023-07-30T15:48:34.000Z</time>
      </trkpt>
      <trkpt lat="43.70093" lon="1.41459">
        <ele>124.129371</ele>
        <time>2023-07-30T15:48:36.000Z</time>
      </trkpt>
      <trkpt lat="43.70089" lon="1.41466">
        <ele>124.114113</ele>
        <time>2023-07-30T15:48:36.000Z</time>
      </trkpt>
      <trkpt lat="43.70084" lon="1.41472">
        <ele>124.099443</ele>
        <time>2023-07-30T15:48:38.000Z</time>
      </trkpt>
      <trkpt lat="43.70079" lon="1.41478">
        <ele>124.083532</ele>
        <time>2023-07-30T15:48:38.000Z</time>
      </trkpt>
      <trkpt lat="43.70079" lon="1.41478">
        <ele>124.083532</ele>
        <time>2023-07-30T15:48:38.000Z</time>
      </trkpt>
      <trkpt lat="43.70074" lon="1.41485">
        <ele>124.067114</ele>
        <time>2023-07-30T15:48:40.000Z</time>
      </trkpt>
      <trkpt lat="43.70074" lon="1.41485">
        <ele>124.067114</ele>
        <time>2023-07-30T15:48:40.000Z</time>
      </trkpt>
      <trkpt lat="43.70068" lon="1.41491">
        <ele>124.051241</ele>
        <time>2023-07-30T15:48:40.000Z</time>
      </trkpt>
      <trkpt lat="43.70068" lon="1.41491">
        <ele>124.051241</ele>
        <time>2023-07-30T15:48:40.000Z</time>
      </trkpt>
      <trkpt lat="43.70063" lon="1.41496">
        <ele>124.035998</ele>
        <time>2023-07-30T15:48:42.000Z</time>
      </trkpt>
      <trkpt lat="43.70059" lon="1.41501">
        <ele>124.023241</ele>
        <time>2023-07-30T15:48:42.000Z</time>
      </trkpt>
      <trkpt lat="43.70053" lon="1.41508">
        <ele>124.006444</ele>
        <time>2023-07-30T15:48:44.000Z</time>
      </trkpt>
      <trkpt lat="43.70048" lon="1.41513">
        <ele>123.99184</ele>
        <time>2023-07-30T15:48:45.000Z</time>
      </trkpt>
      <trkpt lat="43.70043" lon="1.41519">
        <ele>123.977101</ele>
        <time>2023-07-30T15:48:46.000Z</time>
      </trkpt>
      <trkpt lat="43.70038" lon="1.41524">
        <ele>123.961463</ele>
        <time>2023-07-30T15:48:47.000Z</time>
      </trkpt>
      <trkpt lat="43.70033" lon="1.4153">
        <ele>123.947748</ele>
        <time>2023-07-30T15:48:48.000Z</time>
      </trkpt>
      <trkpt lat="43.70028" lon="1.41535">
        <ele>123.932601</ele>
        <time>2023-07-30T15:48:49.000Z</time>
      </trkpt>
      <trkpt lat="43.70023" lon="1.41541">
        <ele>123.917145</ele>
        <time>2023-07-30T15:48:50.000Z</time>
      </trkpt>
      <trkpt lat="43.70017" lon="1.41547">
        <ele>123.901406</ele>
        <time>2023-07-30T15:48:51.000Z</time>
      </trkpt>
      <trkpt lat="43.70017" lon="1.41547">
        <ele>123.901406</ele>
        <time>2023-07-30T15:48:51.000Z</time>
      </trkpt>
      <trkpt lat="43.70012" lon="1.41553">
        <ele>123.88634</ele>
        <time>2023-07-30T15:48:52.000Z</time>
      </trkpt>
      <trkpt lat="43.70008" lon="1.41559">
        <ele>123.871784</ele>
        <time>2023-07-30T15:48:53.000Z</time>
      </trkpt>
      <trkpt lat="43.70003" lon="1.41565">
        <ele>123.855805</ele>
        <time>2023-07-30T15:48:54.000Z</time>
      </trkpt>
      <trkpt lat="43.70003" lon="1.41565">
        <ele>123.855805</ele>
        <time>2023-07-30T15:48:54.000Z</time>
      </trkpt>
      <trkpt lat="43.69998" lon="1.41572">
        <ele>123.840902</ele>
        <time>2023-07-30T15:48:55.000Z</time>
      </trkpt>
      <trkpt lat="43.69994" lon="1.41578">
        <ele>123.825882</ele>
        <time>2023-07-30T15:48:55.000Z</time>
      </trkpt>
      <trkpt lat="43.69989" lon="1.41585">
        <ele>123.811372</ele>
        <time>2023-07-30T15:48:57.000Z</time>
      </trkpt>
      <trkpt lat="43.69989" lon="1.41585">
        <ele>123.811372</ele>
        <time>2023-07-30T15:48:57.000Z</time>
      </trkpt>
      <trkpt lat="43.69985" lon="1.41591">
        <ele>123.79647</ele>
        <time>2023-07-30T15:48:57.000Z</time>
      </trkpt>
      <trkpt lat="43.69984" lon="1.41592">
        <ele>123.792914</ele>
        <time>2023-07-30T15:48:59.000Z</time>
      </trkpt>
      <trkpt lat="43.69975" lon="1.41604">
        <ele>123.765588</ele>
        <time>2023-07-30T15:48:59.000Z</time>
      </trkpt>
      <trkpt lat="43.6997" lon="1.4161">
        <ele>123.754018</ele>
        <time>2023-07-30T15:49:01.000Z</time>
      </trkpt>
      <trkpt lat="43.69966" lon="1.41616">
        <ele>123.765071</ele>
        <time>2023-07-30T15:49:02.000Z</time>
      </trkpt>
      <trkpt lat="43.69966" lon="1.41616">
        <ele>123.765071</ele>
        <time>2023-07-30T15:49:02.000Z</time>
      </trkpt>
      <trkpt lat="43.69961" lon="1.41622">
        <ele>123.775998</ele>
        <time>2023-07-30T15:49:03.000Z</time>
      </trkpt>
      <trkpt lat="43.69956" lon="1.41629">
        <ele>123.788512</ele>
        <time>2023-07-30T15:49:03.000Z</time>
      </trkpt>
      <trkpt lat="43.69951" lon="1.41634">
        <ele>123.798294</ele>
        <time>2023-07-30T15:49:05.000Z</time>
      </trkpt>
      <trkpt lat="43.69946" lon="1.41639">
        <ele>123.810324</ele>
        <time>2023-07-30T15:49:06.000Z</time>
      </trkpt>
      <trkpt lat="43.69946" lon="1.41639">
        <ele>123.810324</ele>
        <time>2023-07-30T15:49:06.000Z</time>
      </trkpt>
      <trkpt lat="43.6994" lon="1.41646">
        <ele>123.822923</ele>
        <time>2023-07-30T15:49:07.000Z</time>
      </trkpt>
      <trkpt lat="43.69935" lon="1.41651">
        <ele>123.833935</ele>
        <time>2023-07-30T15:49:08.000Z</time>
      </trkpt>
      <trkpt lat="43.6993" lon="1.41656">
        <ele>123.845047</ele>
        <time>2023-07-30T15:49:09.000Z</time>
      </trkpt>
      <trkpt lat="43.69925" lon="1.41662">
        <ele>123.856137</ele>
        <time>2023-07-30T15:49:10.000Z</time>
      </trkpt>
      <trkpt lat="43.6992" lon="1.41667">
        <ele>123.867305</ele>
        <time>2023-07-30T15:49:11.000Z</time>
      </trkpt>
      <trkpt lat="43.6992" lon="1.41667">
        <ele>123.867305</ele>
        <time>2023-07-30T15:49:11.000Z</time>
      </trkpt>
      <trkpt lat="43.69915" lon="1.41673">
        <ele>123.878102</ele>
        <time>2023-07-30T15:49:12.000Z</time>
      </trkpt>
      <trkpt lat="43.6991" lon="1.41678">
        <ele>123.890132</ele>
        <time>2023-07-30T15:49:13.000Z</time>
      </trkpt>
      <trkpt lat="43.69905" lon="1.41684">
        <ele>123.901715</ele>
        <time>2023-07-30T15:49:14.000Z</time>
      </trkpt>
      <trkpt lat="43.69905" lon="1.41684">
        <ele>123.901715</ele>
        <time>2023-07-30T15:49:14.000Z</time>
      </trkpt>
      <trkpt lat="43.699" lon="1.41689">
        <ele>123.912181</ele>
        <time>2023-07-30T15:49:14.000Z</time>
      </trkpt>
      <trkpt lat="43.69895" lon="1.41695">
        <ele>123.92384</ele>
        <time>2023-07-30T15:49:16.000Z</time>
      </trkpt>
      <trkpt lat="43.69895" lon="1.41695">
        <ele>123.92384</ele>
        <time>2023-07-30T15:49:16.000Z</time>
      </trkpt>
      <trkpt lat="43.69891" lon="1.417">
        <ele>123.933694</ele>
        <time>2023-07-30T15:49:17.000Z</time>
      </trkpt>
      <trkpt lat="43.69885" lon="1.41707">
        <ele>123.94747</ele>
        <time>2023-07-30T15:49:18.000Z</time>
      </trkpt>
      <trkpt lat="43.6988" lon="1.41713">
        <ele>123.95896</ele>
        <time>2023-07-30T15:49:18.000Z</time>
      </trkpt>
      <trkpt lat="43.6988" lon="1.41713">
        <ele>123.95896</ele>
        <time>2023-07-30T15:49:18.000Z</time>
      </trkpt>
      <trkpt lat="43.69875" lon="1.41719">
        <ele>123.970063</ele>
        <time>2023-07-30T15:49:20.000Z</time>
      </trkpt>
      <trkpt lat="43.6987" lon="1.41725">
        <ele>123.981718</ele>
        <time>2023-07-30T15:49:21.000Z</time>
      </trkpt>
      <trkpt lat="43.69866" lon="1.41731">
        <ele>123.992094</ele>
        <time>2023-07-30T15:49:22.000Z</time>
      </trkpt>
      <trkpt lat="43.69861" lon="1.41737">
        <ele>124.004003</ele>
        <time>2023-07-30T15:49:23.000Z</time>
      </trkpt>
      <trkpt lat="43.69856" lon="1.41743">
        <ele>124.014843</ele>
        <time>2023-07-30T15:49:24.000Z</time>
      </trkpt>
      <trkpt lat="43.69854" lon="1.41746">
        <ele>124.019427</ele>
        <time>2023-07-30T15:49:25.000Z</time>
      </trkpt>
      <trkpt lat="43.69846" lon="1.41756">
        <ele>124.039008</ele>
        <time>2023-07-30T15:49:26.000Z</time>
      </trkpt>
      <trkpt lat="43.69846" lon="1.41756">
        <ele>124.039008</ele>
        <time>2023-07-30T15:49:26.000Z</time>
      </trkpt>
      <trkpt lat="43.69842" lon="1.41763">
        <ele>124.050022</ele>
        <time>2023-07-30T15:49:27.000Z</time>
      </trkpt>
      <trkpt lat="43.69837" lon="1.41769">
        <ele>124.061163</ele>
        <time>2023-07-30T15:49:28.000Z</time>
      </trkpt>
      <trkpt lat="43.69837" lon="1.41769">
        <ele>124.061163</ele>
        <time>2023-07-30T15:49:28.000Z</time>
      </trkpt>
      <trkpt lat="43.69832" lon="1.41775">
        <ele>124.083415</ele>
        <time>2023-07-30T15:49:29.000Z</time>
      </trkpt>
      <trkpt lat="43.69828" lon="1.41781">
        <ele>124.112182</ele>
        <time>2023-07-30T15:49:30.000Z</time>
      </trkpt>
      <trkpt lat="43.69823" lon="1.41787">
        <ele>124.14314</ele>
        <time>2023-07-30T15:49:31.000Z</time>
      </trkpt>
      <trkpt lat="43.69818" lon="1.41793">
        <ele>124.174322</ele>
        <time>2023-07-30T15:49:32.000Z</time>
      </trkpt>
      <trkpt lat="43.69813" lon="1.41798">
        <ele>124.202184</ele>
        <time>2023-07-30T15:49:33.000Z</time>
      </trkpt>
      <trkpt lat="43.69808" lon="1.41804">
        <ele>124.23359</ele>
        <time>2023-07-30T15:49:33.000Z</time>
      </trkpt>
      <trkpt lat="43.69807" lon="1.41806">
        <ele>124.240719</ele>
        <time>2023-07-30T15:49:35.000Z</time>
      </trkpt>
      <trkpt lat="43.69798" lon="1.41816">
        <ele>124.296579</ele>
        <time>2023-07-30T15:49:35.000Z</time>
      </trkpt>
      <trkpt lat="43.69793" lon="1.41822">
        <ele>124.327538</ele>
        <time>2023-07-30T15:49:37.000Z</time>
      </trkpt>
      <trkpt lat="43.69788" lon="1.41829">
        <ele>124.360222</ele>
        <time>2023-07-30T15:49:38.000Z</time>
      </trkpt>
      <trkpt lat="43.69788" lon="1.41829">
        <ele>124.360222</ele>
        <time>2023-07-30T15:49:38.000Z</time>
      </trkpt>
      <trkpt lat="43.69783" lon="1.41835">
        <ele>124.391628</ele>
        <time>2023-07-30T15:49:39.000Z</time>
      </trkpt>
      <trkpt lat="43.69778" lon="1.41841">
        <ele>124.422916</ele>
        <time>2023-07-30T15:49:40.000Z</time>
      </trkpt>
      <trkpt lat="43.69773" lon="1.41847">
        <ele>124.452256</ele>
        <time>2023-07-30T15:49:41.000Z</time>
      </trkpt>
      <trkpt lat="43.69768" lon="1.41853">
        <ele>124.483215</ele>
        <time>2023-07-30T15:49:42.000Z</time>
      </trkpt>
      <trkpt lat="43.69763" lon="1.41859">
        <ele>124.514614</ele>
        <time>2023-07-30T15:49:43.000Z</time>
      </trkpt>
      <trkpt lat="43.69758" lon="1.41864">
        <ele>124.544492</ele>
        <time>2023-07-30T15:49:44.000Z</time>
      </trkpt>
      <trkpt lat="43.69753" lon="1.4187">
        <ele>124.575685</ele>
        <time>2023-07-30T15:49:45.000Z</time>
      </trkpt>
      <trkpt lat="43.69747" lon="1.41875">
        <ele>124.606877</ele>
        <time>2023-07-30T15:49:46.000Z</time>
      </trkpt>
      <trkpt lat="43.69747" lon="1.41875">
        <ele>124.606877</ele>
        <time>2023-07-30T15:49:46.000Z</time>
      </trkpt>
      <trkpt lat="43.69742" lon="1.41881">
        <ele>124.636967</ele>
        <time>2023-07-30T15:49:47.000Z</time>
      </trkpt>
      <trkpt lat="43.69742" lon="1.41881">
        <ele>124.636967</ele>
        <time>2023-07-30T15:49:47.000Z</time>
      </trkpt>
      <trkpt lat="43.69737" lon="1.41886">
        <ele>124.666636</ele>
        <time>2023-07-30T15:49:48.000Z</time>
      </trkpt>
      <trkpt lat="43.69732" lon="1.41892">
        <ele>124.698668</ele>
        <time>2023-07-30T15:49:49.000Z</time>
      </trkpt>
      <trkpt lat="43.69729" lon="1.41896">
        <ele>124.719543</ele>
        <time>2023-07-30T15:49:50.000Z</time>
      </trkpt>
      <trkpt lat="43.69723" lon="1.41903">
        <ele>124.754244</ele>
        <time>2023-07-30T15:49:50.000Z</time>
      </trkpt>
      <trkpt lat="43.69723" lon="1.41903">
        <ele>124.754244</ele>
        <time>2023-07-30T15:49:50.000Z</time>
      </trkpt>
      <trkpt lat="43.6972" lon="1.41906">
        <ele>124.7726</ele>
        <time>2023-07-30T15:49:51.000Z</time>
      </trkpt>
      <trkpt lat="43.69717" lon="1.41909">
        <ele>124.788797</ele>
        <time>2023-07-30T15:49:52.000Z</time>
      </trkpt>
      <trkpt lat="43.69717" lon="1.41909">
        <ele>124.788797</ele>
        <time>2023-07-30T15:49:52.000Z</time>
      </trkpt>
      <trkpt lat="43.69715" lon="1.41912">
        <ele>124.802478</ele>
        <time>2023-07-30T15:49:53.000Z</time>
      </trkpt>
      <trkpt lat="43.69713" lon="1.41914">
        <ele>124.812223</ele>
        <time>2023-07-30T15:49:54.000Z</time>
      </trkpt>
      <trkpt lat="43.69713" lon="1.41914">
        <ele>124.812223</ele>
        <time>2023-07-30T15:49:56.000Z</time>
      </trkpt>
      <trkpt lat="43.69711" lon="1.41917">
        <ele>124.828211</ele>
        <time>2023-07-30T15:49:56.000Z</time>
      </trkpt>
      <trkpt lat="43.69711" lon="1.41917">
        <ele>124.828211</ele>
        <time>2023-07-30T15:49:56.000Z</time>
      </trkpt>
      <trkpt lat="43.6971" lon="1.41918">
        <ele>124.832457</ele>
        <time>2023-07-30T15:49:58.000Z</time>
      </trkpt>
      <trkpt lat="43.6971" lon="1.41918">
        <ele>124.832457</ele>
        <time>2023-07-30T15:49:59.000Z</time>
      </trkpt>
      <trkpt lat="43.69707" lon="1.4192">
        <ele>124.847468</ele>
        <time>2023-07-30T15:50:00.000Z</time>
      </trkpt>
      <trkpt lat="43.69706" lon="1.41922">
        <ele>124.855182</ele>
        <time>2023-07-30T15:50:02.000Z</time>
      </trkpt>
      <trkpt lat="43.69705" lon="1.41923">
        <ele>124.861734</ele>
        <time>2023-07-30T15:50:03.000Z</time>
      </trkpt>
      <trkpt lat="43.69705" lon="1.41923">
        <ele>124.861734</ele>
        <time>2023-07-30T15:50:03.000Z</time>
      </trkpt>
      <trkpt lat="43.69703" lon="1.41925">
        <ele>124.874813</ele>
        <time>2023-07-30T15:50:03.000Z</time>
      </trkpt>
      <trkpt lat="43.697" lon="1.41928">
        <ele>124.889369</ele>
        <time>2023-07-30T15:50:04.000Z</time>
      </trkpt>
      <trkpt lat="43.69696" lon="1.41933">
        <ele>124.905189</ele>
        <time>2023-07-30T15:50:05.000Z</time>
      </trkpt>
      <trkpt lat="43.69692" lon="1.41937">
        <ele>124.897858</ele>
        <time>2023-07-30T15:50:07.000Z</time>
      </trkpt>
      <trkpt lat="43.69688" lon="1.41943">
        <ele>124.888537</ele>
        <time>2023-07-30T15:50:07.000Z</time>
      </trkpt>
      <trkpt lat="43.69683" lon="1.41948">
        <ele>124.878939</ele>
        <time>2023-07-30T15:50:09.000Z</time>
      </trkpt>
      <trkpt lat="43.69675" lon="1.41956">
        <ele>124.864345</ele>
        <time>2023-07-30T15:50:09.000Z</time>
      </trkpt>
      <trkpt lat="43.69669" lon="1.41962">
        <ele>124.853394</ele>
        <time>2023-07-30T15:50:10.000Z</time>
      </trkpt>
      <trkpt lat="43.69664" lon="1.41968">
        <ele>124.842976</ele>
        <time>2023-07-30T15:50:11.000Z</time>
      </trkpt>
      <trkpt lat="43.69659" lon="1.41974">
        <ele>124.832835</ele>
        <time>2023-07-30T15:50:12.000Z</time>
      </trkpt>
      <trkpt lat="43.69654" lon="1.4198">
        <ele>124.822881</ele>
        <time>2023-07-30T15:50:13.000Z</time>
      </trkpt>
      <trkpt lat="43.6965" lon="1.41987">
        <ele>124.812956</ele>
        <time>2023-07-30T15:50:14.000Z</time>
      </trkpt>
      <trkpt lat="43.69644" lon="1.41994">
        <ele>124.801435</ele>
        <time>2023-07-30T15:50:15.000Z</time>
      </trkpt>
      <trkpt lat="43.69638" lon="1.42">
        <ele>124.790474</ele>
        <time>2023-07-30T15:50:16.000Z</time>
      </trkpt>
      <trkpt lat="43.69638" lon="1.42">
        <ele>124.790474</ele>
        <time>2023-07-30T15:50:16.000Z</time>
      </trkpt>
      <trkpt lat="43.69633" lon="1.42007">
        <ele>124.779478</ele>
        <time>2023-07-30T15:50:17.000Z</time>
      </trkpt>
      <trkpt lat="43.69633" lon="1.42007">
        <ele>124.779478</ele>
        <time>2023-07-30T15:50:17.000Z</time>
      </trkpt>
      <trkpt lat="43.69627" lon="1.42014">
        <ele>124.767736</ele>
        <time>2023-07-30T15:50:18.000Z</time>
      </trkpt>
      <trkpt lat="43.69622" lon="1.42021">
        <ele>124.756403</ele>
        <time>2023-07-30T15:50:19.000Z</time>
      </trkpt>
      <trkpt lat="43.69616" lon="1.42029">
        <ele>124.744207</ele>
        <time>2023-07-30T15:50:20.000Z</time>
      </trkpt>
      <trkpt lat="43.69616" lon="1.42029">
        <ele>124.744207</ele>
        <time>2023-07-30T15:50:20.000Z</time>
      </trkpt>
      <trkpt lat="43.69611" lon="1.42036">
        <ele>124.73306</ele>
        <time>2023-07-30T15:50:22.000Z</time>
      </trkpt>
      <trkpt lat="43.69606" lon="1.42043">
        <ele>124.722002</ele>
        <time>2023-07-30T15:50:22.000Z</time>
      </trkpt>
      <trkpt lat="43.69606" lon="1.42043">
        <ele>124.722002</ele>
        <time>2023-07-30T15:50:22.000Z</time>
      </trkpt>
      <trkpt lat="43.69601" lon="1.42051">
        <ele>124.710555</ele>
        <time>2023-07-30T15:50:24.000Z</time>
      </trkpt>
      <trkpt lat="43.69601" lon="1.42051">
        <ele>124.710555</ele>
        <time>2023-07-30T15:50:24.000Z</time>
      </trkpt>
      <trkpt lat="43.69597" lon="1.42058">
        <ele>124.700152</ele>
        <time>2023-07-30T15:50:25.000Z</time>
      </trkpt>
      <trkpt lat="43.69592" lon="1.42066">
        <ele>124.688852</ele>
        <time>2023-07-30T15:50:26.000Z</time>
      </trkpt>
      <trkpt lat="43.69587" lon="1.42073">
        <ele>124.679017</ele>
        <time>2023-07-30T15:50:27.000Z</time>
      </trkpt>
      <trkpt lat="43.69583" lon="1.4208">
        <ele>124.668776</ele>
        <time>2023-07-30T15:50:27.000Z</time>
      </trkpt>
      <trkpt lat="43.69578" lon="1.42086">
        <ele>124.658674</ele>
        <time>2023-07-30T15:50:29.000Z</time>
      </trkpt>
      <trkpt lat="43.69573" lon="1.42091">
        <ele>124.649497</ele>
        <time>2023-07-30T15:50:30.000Z</time>
      </trkpt>
      <trkpt lat="43.69573" lon="1.42091">
        <ele>124.649497</ele>
        <time>2023-07-30T15:50:30.000Z</time>
      </trkpt>
      <trkpt lat="43.69568" lon="1.42097">
        <ele>124.638867</ele>
        <time>2023-07-30T15:50:30.000Z</time>
      </trkpt>
      <trkpt lat="43.69568" lon="1.42097">
        <ele>124.638867</ele>
        <time>2023-07-30T15:50:30.000Z</time>
      </trkpt>
      <trkpt lat="43.69563" lon="1.42104">
        <ele>124.651302</ele>
        <time>2023-07-30T15:50:32.000Z</time>
      </trkpt>
      <trkpt lat="43.69563" lon="1.42104">
        <ele>124.651302</ele>
        <time>2023-07-30T15:50:32.000Z</time>
      </trkpt>
      <trkpt lat="43.69558" lon="1.42109">
        <ele>124.674955</ele>
        <time>2023-07-30T15:50:32.000Z</time>
      </trkpt>
      <trkpt lat="43.69553" lon="1.42115">
        <ele>124.702052</ele>
        <time>2023-07-30T15:50:34.000Z</time>
      </trkpt>
      <trkpt lat="43.69548" lon="1.4212">
        <ele>124.729867</ele>
        <time>2023-07-30T15:50:35.000Z</time>
      </trkpt>
      <trkpt lat="43.69544" lon="1.42126">
        <ele>124.756768</ele>
        <time>2023-07-30T15:50:35.000Z</time>
      </trkpt>
      <trkpt lat="43.69538" lon="1.42132">
        <ele>124.785703</ele>
        <time>2023-07-30T15:50:37.000Z</time>
      </trkpt>
      <trkpt lat="43.69533" lon="1.42138">
        <ele>124.813197</ele>
        <time>2023-07-30T15:50:38.000Z</time>
      </trkpt>
      <trkpt lat="43.69528" lon="1.42143">
        <ele>124.840234</ele>
        <time>2023-07-30T15:50:38.000Z</time>
      </trkpt>
      <trkpt lat="43.69523" lon="1.42149">
        <ele>124.86845</ele>
        <time>2023-07-30T15:50:40.000Z</time>
      </trkpt>
      <trkpt lat="43.69523" lon="1.42149">
        <ele>124.86845</ele>
        <time>2023-07-30T15:50:40.000Z</time>
      </trkpt>
      <trkpt lat="43.69519" lon="1.42155">
        <ele>124.894069</ele>
        <time>2023-07-30T15:50:40.000Z</time>
      </trkpt>
      <trkpt lat="43.69514" lon="1.42161">
        <ele>124.920619</ele>
        <time>2023-07-30T15:50:41.000Z</time>
      </trkpt>
      <trkpt lat="43.69509" lon="1.42168">
        <ele>124.950082</ele>
        <time>2023-07-30T15:50:43.000Z</time>
      </trkpt>
      <trkpt lat="43.69505" lon="1.42174">
        <ele>124.976138</ele>
        <time>2023-07-30T15:50:44.000Z</time>
      </trkpt>
      <trkpt lat="43.69505" lon="1.42174">
        <ele>124.976138</ele>
        <time>2023-07-30T15:50:44.000Z</time>
      </trkpt>
      <trkpt lat="43.69501" lon="1.42181">
        <ele>125.003504</ele>
        <time>2023-07-30T15:50:45.000Z</time>
      </trkpt>
      <trkpt lat="43.69501" lon="1.42181">
        <ele>125.003504</ele>
        <time>2023-07-30T15:50:45.000Z</time>
      </trkpt>
      <trkpt lat="43.69498" lon="1.42188">
        <ele>125.028551</ele>
        <time>2023-07-30T15:50:46.000Z</time>
      </trkpt>
      <trkpt lat="43.69498" lon="1.42188">
        <ele>125.028551</ele>
        <time>2023-07-30T15:50:46.000Z</time>
      </trkpt>
      <trkpt lat="43.69494" lon="1.42194">
        <ele>125.053189</ele>
        <time>2023-07-30T15:50:47.000Z</time>
      </trkpt>
      <trkpt lat="43.6949" lon="1.422">
        <ele>125.078092</ele>
        <time>2023-07-30T15:50:48.000Z</time>
      </trkpt>
      <trkpt lat="43.6949" lon="1.422">
        <ele>125.078092</ele>
        <time>2023-07-30T15:50:48.000Z</time>
      </trkpt>
      <trkpt lat="43.69486" lon="1.42205">
        <ele>125.101745</ele>
        <time>2023-07-30T15:50:49.000Z</time>
      </trkpt>
      <trkpt lat="43.69486" lon="1.42205">
        <ele>125.101745</ele>
        <time>2023-07-30T15:50:49.000Z</time>
      </trkpt>
      <trkpt lat="43.69481" lon="1.42211">
        <ele>125.12976</ele>
        <time>2023-07-30T15:50:50.000Z</time>
      </trkpt>
      <trkpt lat="43.69481" lon="1.42211">
        <ele>125.12976</ele>
        <time>2023-07-30T15:50:50.000Z</time>
      </trkpt>
      <trkpt lat="43.69476" lon="1.42216">
        <ele>125.155695</ele>
        <time>2023-07-30T15:50:50.000Z</time>
      </trkpt>
      <trkpt lat="43.69471" lon="1.42222">
        <ele>125.183391</ele>
        <time>2023-07-30T15:50:51.000Z</time>
      </trkpt>
      <trkpt lat="43.69466" lon="1.42228">
        <ele>125.209941</ele>
        <time>2023-07-30T15:50:53.000Z</time>
      </trkpt>
      <trkpt lat="43.69462" lon="1.42235">
        <ele>125.237775</ele>
        <time>2023-07-30T15:50:54.000Z</time>
      </trkpt>
      <trkpt lat="43.69458" lon="1.42243">
        <ele>125.266555</ele>
        <time>2023-07-30T15:50:54.000Z</time>
      </trkpt>
      <trkpt lat="43.69454" lon="1.42251">
        <ele>125.296807</ele>
        <time>2023-07-30T15:50:56.000Z</time>
      </trkpt>
      <trkpt lat="43.6945" lon="1.42257">
        <ele>125.322582</ele>
        <time>2023-07-30T15:50:56.000Z</time>
      </trkpt>
      <trkpt lat="43.69445" lon="1.42264">
        <ele>125.351301</ele>
        <time>2023-07-30T15:50:58.000Z</time>
      </trkpt>
      <trkpt lat="43.69442" lon="1.4227">
        <ele>125.376642</ele>
        <time>2023-07-30T15:50:58.000Z</time>
      </trkpt>
      <trkpt lat="43.69437" lon="1.42277">
        <ele>125.393166</ele>
        <time>2023-07-30T15:51:00.000Z</time>
      </trkpt>
      <trkpt lat="43.69437" lon="1.42277">
        <ele>125.393166</ele>
        <time>2023-07-30T15:51:00.000Z</time>
      </trkpt>
      <trkpt lat="43.69432" lon="1.42284">
        <ele>125.387494</ele>
        <time>2023-07-30T15:51:01.000Z</time>
      </trkpt>
      <trkpt lat="43.69432" lon="1.42284">
        <ele>125.387494</ele>
        <time>2023-07-30T15:51:01.000Z</time>
      </trkpt>
      <trkpt lat="43.69427" lon="1.4229">
        <ele>125.381425</ele>
        <time>2023-07-30T15:51:01.000Z</time>
      </trkpt>
      <trkpt lat="43.69427" lon="1.4229">
        <ele>125.381425</ele>
        <time>2023-07-30T15:51:01.000Z</time>
      </trkpt>
      <trkpt lat="43.69423" lon="1.42297">
        <ele>125.375826</ele>
        <time>2023-07-30T15:51:03.000Z</time>
      </trkpt>
      <trkpt lat="43.69418" lon="1.42303">
        <ele>125.370107</ele>
        <time>2023-07-30T15:51:04.000Z</time>
      </trkpt>
      <trkpt lat="43.69414" lon="1.4231">
        <ele>125.364613</ele>
        <time>2023-07-30T15:51:04.000Z</time>
      </trkpt>
      <trkpt lat="43.6941" lon="1.42316">
        <ele>125.359433</ele>
        <time>2023-07-30T15:51:06.000Z</time>
      </trkpt>
      <trkpt lat="43.69406" lon="1.42322">
        <ele>125.353938</ele>
        <time>2023-07-30T15:51:07.000Z</time>
      </trkpt>
      <trkpt lat="43.69401" lon="1.42329">
        <ele>125.348174</ele>
        <time>2023-07-30T15:51:08.000Z</time>
      </trkpt>
      <trkpt lat="43.69397" lon="1.42336">
        <ele>125.342165</ele>
        <time>2023-07-30T15:51:09.000Z</time>
      </trkpt>
      <trkpt lat="43.69397" lon="1.42336">
        <ele>125.342165</ele>
        <time>2023-07-30T15:51:09.000Z</time>
      </trkpt>
      <trkpt lat="43.69392" lon="1.42343">
        <ele>125.336576</ele>
        <time>2023-07-30T15:51:10.000Z</time>
      </trkpt>
      <trkpt lat="43.69388" lon="1.4235">
        <ele>125.330613</ele>
        <time>2023-07-30T15:51:11.000Z</time>
      </trkpt>
      <trkpt lat="43.69383" lon="1.42357">
        <ele>125.324835</ele>
        <time>2023-07-30T15:51:12.000Z</time>
      </trkpt>
      <trkpt lat="43.69383" lon="1.42357">
        <ele>125.324835</ele>
        <time>2023-07-30T15:51:12.000Z</time>
      </trkpt>
      <trkpt lat="43.69379" lon="1.42363">
        <ele>125.319387</ele>
        <time>2023-07-30T15:51:13.000Z</time>
      </trkpt>
      <trkpt lat="43.69375" lon="1.4237">
        <ele>125.313798</ele>
        <time>2023-07-30T15:51:14.000Z</time>
      </trkpt>
      <trkpt lat="43.69371" lon="1.42376">
        <ele>125.308587</ele>
        <time>2023-07-30T15:51:15.000Z</time>
      </trkpt>
      <trkpt lat="43.69367" lon="1.42385">
        <ele>125.301793</ele>
        <time>2023-07-30T15:51:16.000Z</time>
      </trkpt>
      <trkpt lat="43.69364" lon="1.42391">
        <ele>125.297038</ele>
        <time>2023-07-30T15:51:17.000Z</time>
      </trkpt>
      <trkpt lat="43.6936" lon="1.42399">
        <ele>125.291405</ele>
        <time>2023-07-30T15:51:18.000Z</time>
      </trkpt>
      <trkpt lat="43.69356" lon="1.42407">
        <ele>125.285275</ele>
        <time>2023-07-30T15:51:19.000Z</time>
      </trkpt>
      <trkpt lat="43.69352" lon="1.42414">
        <ele>125.279655</ele>
        <time>2023-07-30T15:51:19.000Z</time>
      </trkpt>
      <trkpt lat="43.69348" lon="1.42421">
        <ele>125.273675</ele>
        <time>2023-07-30T15:51:21.000Z</time>
      </trkpt>
      <trkpt lat="43.69344" lon="1.42429">
        <ele>125.267596</ele>
        <time>2023-07-30T15:51:22.000Z</time>
      </trkpt>
      <trkpt lat="43.69344" lon="1.42429">
        <ele>125.267596</ele>
        <time>2023-07-30T15:51:22.000Z</time>
      </trkpt>
      <trkpt lat="43.69341" lon="1.42437">
        <ele>125.262016</ele>
        <time>2023-07-30T15:51:23.000Z</time>
      </trkpt>
      <trkpt lat="43.69337" lon="1.42445">
        <ele>125.256058</ele>
        <time>2023-07-30T15:51:24.000Z</time>
      </trkpt>
      <trkpt lat="43.69333" lon="1.42454">
        <ele>125.249651</ele>
        <time>2023-07-30T15:51:25.000Z</time>
      </trkpt>
      <trkpt lat="43.6933" lon="1.42462">
        <ele>125.243649</ele>
        <time>2023-07-30T15:51:26.000Z</time>
      </trkpt>
      <trkpt lat="43.69326" lon="1.4247">
        <ele>125.241301</ele>
        <time>2023-07-30T15:51:27.000Z</time>
      </trkpt>
      <trkpt lat="43.69322" lon="1.42478">
        <ele>125.261835</ele>
        <time>2023-07-30T15:51:27.000Z</time>
      </trkpt>
      <trkpt lat="43.69319" lon="1.42486">
        <ele>125.279379</ele>
        <time>2023-07-30T15:51:29.000Z</time>
      </trkpt>
      <trkpt lat="43.69315" lon="1.42495">
        <ele>125.29975</ele>
        <time>2023-07-30T15:51:30.000Z</time>
      </trkpt>
      <trkpt lat="43.69315" lon="1.42495">
        <ele>125.29975</ele>
        <time>2023-07-30T15:51:30.000Z</time>
      </trkpt>
      <trkpt lat="43.6931" lon="1.42503">
        <ele>125.320656</ele>
        <time>2023-07-30T15:51:31.000Z</time>
      </trkpt>
      <trkpt lat="43.69305" lon="1.4251">
        <ele>125.33937</ele>
        <time>2023-07-30T15:51:31.000Z</time>
      </trkpt>
      <trkpt lat="43.69299" lon="1.42517">
        <ele>125.361528</ele>
        <time>2023-07-30T15:51:32.000Z</time>
      </trkpt>
      <trkpt lat="43.69294" lon="1.42523">
        <ele>125.379038</ele>
        <time>2023-07-30T15:51:33.000Z</time>
      </trkpt>
      <trkpt lat="43.69288" lon="1.42529">
        <ele>125.398604</ele>
        <time>2023-07-30T15:51:34.000Z</time>
      </trkpt>
      <trkpt lat="43.69283" lon="1.42535">
        <ele>125.417477</ele>
        <time>2023-07-30T15:51:35.000Z</time>
      </trkpt>
      <trkpt lat="43.69283" lon="1.42535">
        <ele>125.417477</ele>
        <time>2023-07-30T15:51:35.000Z</time>
      </trkpt>
      <trkpt lat="43.69276" lon="1.4254">
        <ele>125.438963</ele>
        <time>2023-07-30T15:51:36.000Z</time>
      </trkpt>
      <trkpt lat="43.6927" lon="1.42545">
        <ele>125.458016</ele>
        <time>2023-07-30T15:51:37.000Z</time>
      </trkpt>
      <trkpt lat="43.69262" lon="1.4255">
        <ele>125.480585</ele>
        <time>2023-07-30T15:51:38.000Z</time>
      </trkpt>
      <trkpt lat="43.69257" lon="1.42554">
        <ele>125.495557</ele>
        <time>2023-07-30T15:51:40.000Z</time>
      </trkpt>
      <trkpt lat="43.69252" lon="1.42558">
        <ele>125.511918</ele>
        <time>2023-07-30T15:51:41.000Z</time>
      </trkpt>
      <trkpt lat="43.69245" lon="1.42562">
        <ele>125.532628</ele>
        <time>2023-07-30T15:51:42.000Z</time>
      </trkpt>
      <trkpt lat="43.69239" lon="1.42566">
        <ele>125.551945</ele>
        <time>2023-07-30T15:51:43.000Z</time>
      </trkpt>
      <trkpt lat="43.69231" lon="1.42571">
        <ele>125.573889</ele>
        <time>2023-07-30T15:51:43.000Z</time>
      </trkpt>
      <trkpt lat="43.69231" lon="1.42571">
        <ele>125.573889</ele>
        <time>2023-07-30T15:51:43.000Z</time>
      </trkpt>
      <trkpt lat="43.69223" lon="1.42576">
        <ele>125.598874</ele>
        <time>2023-07-30T15:51:45.000Z</time>
      </trkpt>
      <trkpt lat="43.69217" lon="1.42581">
        <ele>125.618352</ele>
        <time>2023-07-30T15:51:45.000Z</time>
      </trkpt>
      <trkpt lat="43.69217" lon="1.42581">
        <ele>125.618352</ele>
        <time>2023-07-30T15:51:45.000Z</time>
      </trkpt>
      <trkpt lat="43.6921" lon="1.42584">
        <ele>125.636357</ele>
        <time>2023-07-30T15:51:46.000Z</time>
      </trkpt>
      <trkpt lat="43.69204" lon="1.42587">
        <ele>125.655676</ele>
        <time>2023-07-30T15:51:47.000Z</time>
      </trkpt>
      <trkpt lat="43.69197" lon="1.42589">
        <ele>125.673754</ele>
        <time>2023-07-30T15:51:48.000Z</time>
      </trkpt>
      <trkpt lat="43.6919" lon="1.42591">
        <ele>125.692687</ele>
        <time>2023-07-30T15:51:49.000Z</time>
      </trkpt>
      <trkpt lat="43.69185" lon="1.42592">
        <ele>125.708311</ele>
        <time>2023-07-30T15:51:51.000Z</time>
      </trkpt>
      <trkpt lat="43.69185" lon="1.42592">
        <ele>125.708311</ele>
        <time>2023-07-30T15:51:51.000Z</time>
      </trkpt>
      <trkpt lat="43.69178" lon="1.42593">
        <ele>125.726046</ele>
        <time>2023-07-30T15:51:51.000Z</time>
      </trkpt>
      <trkpt lat="43.69171" lon="1.42593">
        <ele>125.786708</ele>
        <time>2023-07-30T15:51:53.000Z</time>
      </trkpt>
      <trkpt lat="43.69164" lon="1.42594">
        <ele>125.85243</ele>
        <time>2023-07-30T15:51:54.000Z</time>
      </trkpt>
      <trkpt lat="43.69164" lon="1.42594">
        <ele>125.85243</ele>
        <time>2023-07-30T15:51:54.000Z</time>
      </trkpt>
      <trkpt lat="43.69157" lon="1.42595">
        <ele>125.918994</ele>
        <time>2023-07-30T15:51:54.000Z</time>
      </trkpt>
      <trkpt lat="43.6915" lon="1.42596">
        <ele>125.977421</ele>
        <time>2023-07-30T15:51:55.000Z</time>
      </trkpt>
      <trkpt lat="43.6915" lon="1.42596">
        <ele>125.977421</ele>
        <time>2023-07-30T15:51:55.000Z</time>
      </trkpt>
      <trkpt lat="43.69144" lon="1.42597">
        <ele>126.036751</ele>
        <time>2023-07-30T15:51:56.000Z</time>
      </trkpt>
      <trkpt lat="43.69136" lon="1.42598">
        <ele>126.10378</ele>
        <time>2023-07-30T15:51:57.000Z</time>
      </trkpt>
      <trkpt lat="43.69136" lon="1.42598">
        <ele>126.10378</ele>
        <time>2023-07-30T15:51:57.000Z</time>
      </trkpt>
      <trkpt lat="43.6913" lon="1.426">
        <ele>126.166127</ele>
        <time>2023-07-30T15:51:58.000Z</time>
      </trkpt>
      <trkpt lat="43.6913" lon="1.426">
        <ele>126.166127</ele>
        <time>2023-07-30T15:51:58.000Z</time>
      </trkpt>
      <trkpt lat="43.69123" lon="1.42601">
        <ele>126.229782</ele>
        <time>2023-07-30T15:51:59.000Z</time>
      </trkpt>
      <trkpt lat="43.69123" lon="1.42601">
        <ele>126.229782</ele>
        <time>2023-07-30T15:51:59.000Z</time>
      </trkpt>
      <trkpt lat="43.69117" lon="1.42604">
        <ele>126.285411</ele>
        <time>2023-07-30T15:52:00.000Z</time>
      </trkpt>
      <trkpt lat="43.69112" lon="1.42609">
        <ele>126.336967</ele>
        <time>2023-07-30T15:52:01.000Z</time>
      </trkpt>
      <trkpt lat="43.69112" lon="1.42609">
        <ele>126.336967</ele>
        <time>2023-07-30T15:52:01.000Z</time>
      </trkpt>
      <trkpt lat="43.69108" lon="1.42613">
        <ele>126.387029</ele>
        <time>2023-07-30T15:52:02.000Z</time>
      </trkpt>
      <trkpt lat="43.69108" lon="1.42613">
        <ele>126.387029</ele>
        <time>2023-07-30T15:52:02.000Z</time>
      </trkpt>
      <trkpt lat="43.69104" lon="1.42617">
        <ele>126.430402</ele>
        <time>2023-07-30T15:52:04.000Z</time>
      </trkpt>
      <trkpt lat="43.691" lon="1.42621">
        <ele>126.476349</ele>
        <time>2023-07-30T15:52:04.000Z</time>
      </trkpt>
      <trkpt lat="43.691" lon="1.42621">
        <ele>126.476349</ele>
        <time>2023-07-30T15:52:04.000Z</time>
      </trkpt>
      <trkpt lat="43.69097" lon="1.42624">
        <ele>126.510361</ele>
        <time>2023-07-30T15:52:06.000Z</time>
      </trkpt>
      <trkpt lat="43.69092" lon="1.42629">
        <ele>126.565642</ele>
        <time>2023-07-30T15:52:06.000Z</time>
      </trkpt>
      <trkpt lat="43.69092" lon="1.42629">
        <ele>126.565642</ele>
        <time>2023-07-30T15:52:06.000Z</time>
      </trkpt>
      <trkpt lat="43.69087" lon="1.42634">
        <ele>126.620184</ele>
        <time>2023-07-30T15:52:07.000Z</time>
      </trkpt>
      <trkpt lat="43.69087" lon="1.42634">
        <ele>126.620184</ele>
        <time>2023-07-30T15:52:07.000Z</time>
      </trkpt>
      <trkpt lat="43.69081" lon="1.42638">
        <ele>126.682368</ele>
        <time>2023-07-30T15:52:09.000Z</time>
      </trkpt>
      <trkpt lat="43.69074" lon="1.42643">
        <ele>126.754679</ele>
        <time>2023-07-30T15:52:10.000Z</time>
      </trkpt>
      <trkpt lat="43.69074" lon="1.42643">
        <ele>126.754679</ele>
        <time>2023-07-30T15:52:10.000Z</time>
      </trkpt>
      <trkpt lat="43.69065" lon="1.42647">
        <ele>126.838607</ele>
        <time>2023-07-30T15:52:11.000Z</time>
      </trkpt>
      <trkpt lat="43.69065" lon="1.42647">
        <ele>126.838607</ele>
        <time>2023-07-30T15:52:11.000Z</time>
      </trkpt>
      <trkpt lat="43.69057" lon="1.42649">
        <ele>126.91282</ele>
        <time>2023-07-30T15:52:12.000Z</time>
      </trkpt>
      <trkpt lat="43.69048" lon="1.42651">
        <ele>126.993614</ele>
        <time>2023-07-30T15:52:13.000Z</time>
      </trkpt>
      <trkpt lat="43.69038" lon="1.42653">
        <ele>127.084789</ele>
        <time>2023-07-30T15:52:14.000Z</time>
      </trkpt>
      <trkpt lat="43.69038" lon="1.42653">
        <ele>127.084789</ele>
        <time>2023-07-30T15:52:14.000Z</time>
      </trkpt>
      <trkpt lat="43.69031" lon="1.42655">
        <ele>127.151021</ele>
        <time>2023-07-30T15:52:15.000Z</time>
      </trkpt>
      <trkpt lat="43.69024" lon="1.42656">
        <ele>127.21067</ele>
        <time>2023-07-30T15:52:16.000Z</time>
      </trkpt>
      <trkpt lat="43.69019" lon="1.42657">
        <ele>127.256554</ele>
        <time>2023-07-30T15:52:17.000Z</time>
      </trkpt>
      <trkpt lat="43.69019" lon="1.42657">
        <ele>127.256554</ele>
        <time>2023-07-30T15:52:17.000Z</time>
      </trkpt>
      <trkpt lat="43.69014" lon="1.42658">
        <ele>127.301367</ele>
        <time>2023-07-30T15:52:18.000Z</time>
      </trkpt>
      <trkpt lat="43.69009" lon="1.42659">
        <ele>127.354732</ele>
        <time>2023-07-30T15:52:18.000Z</time>
      </trkpt>
      <trkpt lat="43.69001" lon="1.42661">
        <ele>127.387796</ele>
        <time>2023-07-30T15:52:20.000Z</time>
      </trkpt>
      <trkpt lat="43.68994" lon="1.42663">
        <ele>127.418362</ele>
        <time>2023-07-30T15:52:20.000Z</time>
      </trkpt>
      <trkpt lat="43.68987" lon="1.42666">
        <ele>127.448751</ele>
        <time>2023-07-30T15:52:22.000Z</time>
      </trkpt>
      <trkpt lat="43.68981" lon="1.42668">
        <ele>127.474507</ele>
        <time>2023-07-30T15:52:23.000Z</time>
      </trkpt>
      <trkpt lat="43.68972" lon="1.42672">
        <ele>127.510419</ele>
        <time>2023-07-30T15:52:24.000Z</time>
      </trkpt>
      <trkpt lat="43.68971" lon="1.42673">
        <ele>127.51678</ele>
        <time>2023-07-30T15:52:25.000Z</time>
      </trkpt>
      <trkpt lat="43.68959" lon="1.42678">
        <ele>127.566544</ele>
        <time>2023-07-30T15:52:26.000Z</time>
      </trkpt>
      <trkpt lat="43.68953" lon="1.42682">
        <ele>127.593678</ele>
        <time>2023-07-30T15:52:27.000Z</time>
      </trkpt>
      <trkpt lat="43.68946" lon="1.42687">
        <ele>127.626111</ele>
        <time>2023-07-30T15:52:28.000Z</time>
      </trkpt>
      <trkpt lat="43.6894" lon="1.42691">
        <ele>127.652702</ele>
        <time>2023-07-30T15:52:29.000Z</time>
      </trkpt>
      <trkpt lat="43.68935" lon="1.42695">
        <ele>127.677519</ele>
        <time>2023-07-30T15:52:30.000Z</time>
      </trkpt>
      <trkpt lat="43.68935" lon="1.42695">
        <ele>127.677519</ele>
        <time>2023-07-30T15:52:30.000Z</time>
      </trkpt>
      <trkpt lat="43.68929" lon="1.42699">
        <ele>127.704255</ele>
        <time>2023-07-30T15:52:31.000Z</time>
      </trkpt>
      <trkpt lat="43.68923" lon="1.42704">
        <ele>127.732558</ele>
        <time>2023-07-30T15:52:32.000Z</time>
      </trkpt>
      <trkpt lat="43.68917" lon="1.42708">
        <ele>127.760316</ele>
        <time>2023-07-30T15:52:33.000Z</time>
      </trkpt>
      <trkpt lat="43.68917" lon="1.42708">
        <ele>127.760316</ele>
        <time>2023-07-30T15:52:33.000Z</time>
      </trkpt>
      <trkpt lat="43.68911" lon="1.42713">
        <ele>127.789927</ele>
        <time>2023-07-30T15:52:34.000Z</time>
      </trkpt>
      <trkpt lat="43.68906" lon="1.42717">
        <ele>127.813311</ele>
        <time>2023-07-30T15:52:35.000Z</time>
      </trkpt>
      <trkpt lat="43.689" lon="1.42721">
        <ele>127.84107</ele>
        <time>2023-07-30T15:52:36.000Z</time>
      </trkpt>
      <trkpt lat="43.68893" lon="1.42725">
        <ele>127.870055</ele>
        <time>2023-07-30T15:52:37.000Z</time>
      </trkpt>
      <trkpt lat="43.68887" lon="1.42729">
        <ele>127.89743</ele>
        <time>2023-07-30T15:52:38.000Z</time>
      </trkpt>
      <trkpt lat="43.68887" lon="1.42729">
        <ele>127.89743</ele>
        <time>2023-07-30T15:52:38.000Z</time>
      </trkpt>
      <trkpt lat="43.68881" lon="1.42732">
        <ele>127.9246</ele>
        <time>2023-07-30T15:52:39.000Z</time>
      </trkpt>
      <trkpt lat="43.68874" lon="1.42735">
        <ele>127.951691</ele>
        <time>2023-07-30T15:52:40.000Z</time>
      </trkpt>
      <trkpt lat="43.68872" lon="1.42734">
        <ele>127.962939</ele>
        <time>2023-07-30T15:52:41.000Z</time>
      </trkpt>
      <trkpt lat="43.68863" lon="1.42732">
        <ele>128.000972</ele>
        <time>2023-07-30T15:52:42.000Z</time>
      </trkpt>
      <trkpt lat="43.68857" lon="1.42729">
        <ele>128.023784</ele>
        <time>2023-07-30T15:52:43.000Z</time>
      </trkpt>
      <trkpt lat="43.68851" lon="1.42726">
        <ele>128.052647</ele>
        <time>2023-07-30T15:52:44.000Z</time>
      </trkpt>
      <trkpt lat="43.68851" lon="1.42726">
        <ele>128.052647</ele>
        <time>2023-07-30T15:52:44.000Z</time>
      </trkpt>
      <trkpt lat="43.68845" lon="1.42722">
        <ele>128.079329</ele>
        <time>2023-07-30T15:52:45.000Z</time>
      </trkpt>
      <trkpt lat="43.68839" lon="1.42719">
        <ele>128.09376</ele>
        <time>2023-07-30T15:52:46.000Z</time>
      </trkpt>
      <trkpt lat="43.68833" lon="1.42715">
        <ele>128.095388</ele>
        <time>2023-07-30T15:52:46.000Z</time>
      </trkpt>
      <trkpt lat="43.68827" lon="1.42711">
        <ele>128.096851</ele>
        <time>2023-07-30T15:52:48.000Z</time>
      </trkpt>
      <trkpt lat="43.68822" lon="1.42708">
        <ele>128.098118</ele>
        <time>2023-07-30T15:52:49.000Z</time>
      </trkpt>
      <trkpt lat="43.68817" lon="1.42704">
        <ele>128.09947</ele>
        <time>2023-07-30T15:52:50.000Z</time>
      </trkpt>
      <trkpt lat="43.68811" lon="1.42701">
        <ele>128.100975</ele>
        <time>2023-07-30T15:52:51.000Z</time>
      </trkpt>
      <trkpt lat="43.68806" lon="1.42698">
        <ele>128.102209</ele>
        <time>2023-07-30T15:52:52.000Z</time>
      </trkpt>
      <trkpt lat="43.688" lon="1.42695">
        <ele>128.103617</ele>
        <time>2023-07-30T15:52:53.000Z</time>
      </trkpt>
      <trkpt lat="43.68798" lon="1.42689">
        <ele>128.104641</ele>
        <time>2023-07-30T15:52:54.000Z</time>
      </trkpt>
      <trkpt lat="43.68798" lon="1.42689">
        <ele>128.104641</ele>
        <time>2023-07-30T15:52:54.000Z</time>
      </trkpt>
      <trkpt lat="43.688" lon="1.42683">
        <ele>128.105764</ele>
        <time>2023-07-30T15:52:55.000Z</time>
      </trkpt>
      <trkpt lat="43.68805" lon="1.42679">
        <ele>128.107055</ele>
        <time>2023-07-30T15:52:56.000Z</time>
      </trkpt>
      <trkpt lat="43.6881" lon="1.42675">
        <ele>128.108413</ele>
        <time>2023-07-30T15:52:57.000Z</time>
      </trkpt>
      <trkpt lat="43.68816" lon="1.42672">
        <ele>128.109814</ele>
        <time>2023-07-30T15:52:58.000Z</time>
      </trkpt>
      <trkpt lat="43.68821" lon="1.4267">
        <ele>128.111031</ele>
        <time>2023-07-30T15:52:58.000Z</time>
      </trkpt>
      <trkpt lat="43.68827" lon="1.42667">
        <ele>128.112427</ele>
        <time>2023-07-30T15:53:00.000Z</time>
      </trkpt>
      <trkpt lat="43.68827" lon="1.42667">
        <ele>128.112427</ele>
        <time>2023-07-30T15:53:00.000Z</time>
      </trkpt>
      <trkpt lat="43.68832" lon="1.42663">
        <ele>128.113704</ele>
        <time>2023-07-30T15:53:01.000Z</time>
      </trkpt>
      <trkpt lat="43.68834" lon="1.42658">
        <ele>128.114711</ele>
        <time>2023-07-30T15:53:02.000Z</time>
      </trkpt>
      <trkpt lat="43.68834" lon="1.42658">
        <ele>128.114711</ele>
        <time>2023-07-30T15:53:02.000Z</time>
      </trkpt>
      <trkpt lat="43.68834" lon="1.42654">
        <ele>128.115439</ele>
        <time>2023-07-30T15:53:03.000Z</time>
      </trkpt>
      <trkpt lat="43.68834" lon="1.42654">
        <ele>128.115439</ele>
        <time>2023-07-30T15:53:03.000Z</time>
      </trkpt>
      <trkpt lat="43.68834" lon="1.42648">
        <ele>128.116448</ele>
        <time>2023-07-30T15:53:04.000Z</time>
      </trkpt>
      <trkpt lat="43.68833" lon="1.4264">
        <ele>128.117675</ele>
        <time>2023-07-30T15:53:05.000Z</time>
      </trkpt>
      <trkpt lat="43.68833" lon="1.4264">
        <ele>128.117675</ele>
        <time>2023-07-30T15:53:05.000Z</time>
      </trkpt>
      <trkpt lat="43.68832" lon="1.42629">
        <ele>128.119537</ele>
        <time>2023-07-30T15:53:06.000Z</time>
      </trkpt>
      <trkpt lat="43.68832" lon="1.42629">
        <ele>128.119537</ele>
        <time>2023-07-30T15:53:06.000Z</time>
      </trkpt>
      <trkpt lat="43.68831" lon="1.4262">
        <ele>128.121048</ele>
        <time>2023-07-30T15:53:07.000Z</time>
      </trkpt>
      <trkpt lat="43.68831" lon="1.42619">
        <ele>128.121295</ele>
        <time>2023-07-30T15:53:08.000Z</time>
      </trkpt>
      <trkpt lat="43.68827" lon="1.42603">
        <ele>128.124129</ele>
        <time>2023-07-30T15:53:09.000Z</time>
      </trkpt>
      <trkpt lat="43.68824" lon="1.42597">
        <ele>128.125403</ele>
        <time>2023-07-30T15:53:10.000Z</time>
      </trkpt>
      <trkpt lat="43.68823" lon="1.42594">
        <ele>128.125873</ele>
        <time>2023-07-30T15:53:11.000Z</time>
      </trkpt>
      <trkpt lat="43.68823" lon="1.42594">
        <ele>128.125873</ele>
        <time>2023-07-30T15:53:11.000Z</time>
      </trkpt>
      <trkpt lat="43.68816" lon="1.42582">
        <ele>128.128463</ele>
        <time>2023-07-30T15:53:12.000Z</time>
      </trkpt>
      <trkpt lat="43.68811" lon="1.42575">
        <ele>128.129955</ele>
        <time>2023-07-30T15:53:13.000Z</time>
      </trkpt>
      <trkpt lat="43.68807" lon="1.4257">
        <ele>128.131301</ele>
        <time>2023-07-30T15:53:14.000Z</time>
      </trkpt>
      <trkpt lat="43.688" lon="1.42566">
        <ele>128.132965</ele>
        <time>2023-07-30T15:53:15.000Z</time>
      </trkpt>
      <trkpt lat="43.68794" lon="1.42564">
        <ele>128.134428</ele>
        <time>2023-07-30T15:53:16.000Z</time>
      </trkpt>
      <trkpt lat="43.68788" lon="1.42562">
        <ele>128.141691</ele>
        <time>2023-07-30T15:53:17.000Z</time>
      </trkpt>
      <trkpt lat="43.68782" lon="1.42562">
        <ele>128.149621</ele>
        <time>2023-07-30T15:53:18.000Z</time>
      </trkpt>
      <trkpt lat="43.68782" lon="1.42562">
        <ele>128.149621</ele>
        <time>2023-07-30T15:53:18.000Z</time>
      </trkpt>
      <trkpt lat="43.68776" lon="1.42561">
        <ele>128.156318</ele>
        <time>2023-07-30T15:53:19.000Z</time>
      </trkpt>
      <trkpt lat="43.6877" lon="1.42561">
        <ele>128.163871</ele>
        <time>2023-07-30T15:53:20.000Z</time>
      </trkpt>
      <trkpt lat="43.68763" lon="1.4256">
        <ele>128.1728</ele>
        <time>2023-07-30T15:53:21.000Z</time>
      </trkpt>
      <trkpt lat="43.68763" lon="1.4256">
        <ele>128.1728</ele>
        <time>2023-07-30T15:53:21.000Z</time>
      </trkpt>
      <trkpt lat="43.68759" lon="1.4256">
        <ele>128.177499</ele>
        <time>2023-07-30T15:53:22.000Z</time>
      </trkpt>
      <trkpt lat="43.68749" lon="1.42559">
        <ele>128.190736</ele>
        <time>2023-07-30T15:53:23.000Z</time>
      </trkpt>
      <trkpt lat="43.68744" lon="1.4256">
        <ele>128.196434</ele>
        <time>2023-07-30T15:53:24.000Z</time>
      </trkpt>
      <trkpt lat="43.68744" lon="1.4256">
        <ele>128.196434</ele>
        <time>2023-07-30T15:53:24.000Z</time>
      </trkpt>
      <trkpt lat="43.68738" lon="1.42561">
        <ele>128.204063</ele>
        <time>2023-07-30T15:53:25.000Z</time>
      </trkpt>
      <trkpt lat="43.68731" lon="1.42563">
        <ele>128.21238</ele>
        <time>2023-07-30T15:53:26.000Z</time>
      </trkpt>
      <trkpt lat="43.68731" lon="1.42563">
        <ele>128.21238</ele>
        <time>2023-07-30T15:53:26.000Z</time>
      </trkpt>
      <trkpt lat="43.68726" lon="1.42566">
        <ele>128.219772</ele>
        <time>2023-07-30T15:53:27.000Z</time>
      </trkpt>
      <trkpt lat="43.68726" lon="1.42566">
        <ele>128.219772</ele>
        <time>2023-07-30T15:53:27.000Z</time>
      </trkpt>
      <trkpt lat="43.6872" lon="1.4257">
        <ele>128.227302</ele>
        <time>2023-07-30T15:53:28.000Z</time>
      </trkpt>
      <trkpt lat="43.68715" lon="1.42574">
        <ele>128.234623</ele>
        <time>2023-07-30T15:53:29.000Z</time>
      </trkpt>
      <trkpt lat="43.68712" lon="1.42576">
        <ele>128.239226</ele>
        <time>2023-07-30T15:53:30.000Z</time>
      </trkpt>
      <trkpt lat="43.68703" lon="1.42583">
        <ele>128.251476</ele>
        <time>2023-07-30T15:53:31.000Z</time>
      </trkpt>
      <trkpt lat="43.68697" lon="1.42585">
        <ele>128.259366</ele>
        <time>2023-07-30T15:53:32.000Z</time>
      </trkpt>
      <trkpt lat="43.68692" lon="1.42588">
        <ele>128.266495</ele>
        <time>2023-07-30T15:53:33.000Z</time>
      </trkpt>
      <trkpt lat="43.68685" lon="1.42592">
        <ele>128.275086</ele>
        <time>2023-07-30T15:53:34.000Z</time>
      </trkpt>
      <trkpt lat="43.68679" lon="1.42595">
        <ele>128.282908</ele>
        <time>2023-07-30T15:53:35.000Z</time>
      </trkpt>
      <trkpt lat="43.68679" lon="1.42595">
        <ele>128.282908</ele>
        <time>2023-07-30T15:53:35.000Z</time>
      </trkpt>
      <trkpt lat="43.68674" lon="1.426">
        <ele>128.290739</ele>
        <time>2023-07-30T15:53:36.000Z</time>
      </trkpt>
      <trkpt lat="43.68674" lon="1.426">
        <ele>128.290739</ele>
        <time>2023-07-30T15:53:36.000Z</time>
      </trkpt>
      <trkpt lat="43.68669" lon="1.42606">
        <ele>128.299191</ele>
        <time>2023-07-30T15:53:37.000Z</time>
      </trkpt>
      <trkpt lat="43.68665" lon="1.42612">
        <ele>128.306442</ele>
        <time>2023-07-30T15:53:38.000Z</time>
      </trkpt>
      <trkpt lat="43.6866" lon="1.42618">
        <ele>128.314197</ele>
        <time>2023-07-30T15:53:39.000Z</time>
      </trkpt>
      <trkpt lat="43.68656" lon="1.42623">
        <ele>128.321534</ele>
        <time>2023-07-30T15:53:40.000Z</time>
      </trkpt>
      <trkpt lat="43.68651" lon="1.42629">
        <ele>128.328936</ele>
        <time>2023-07-30T15:53:41.000Z</time>
      </trkpt>
      <trkpt lat="43.68647" lon="1.42635">
        <ele>128.336814</ele>
        <time>2023-07-30T15:53:42.000Z</time>
      </trkpt>
      <trkpt lat="43.68642" lon="1.42641">
        <ele>128.344754</ele>
        <time>2023-07-30T15:53:43.000Z</time>
      </trkpt>
      <trkpt lat="43.68642" lon="1.42641">
        <ele>128.344754</ele>
        <time>2023-07-30T15:53:43.000Z</time>
      </trkpt>
      <trkpt lat="43.68637" lon="1.42647">
        <ele>128.353452</ele>
        <time>2023-07-30T15:53:44.000Z</time>
      </trkpt>
      <trkpt lat="43.68632" lon="1.42653">
        <ele>128.362785</ele>
        <time>2023-07-30T15:53:45.000Z</time>
      </trkpt>
      <trkpt lat="43.6863" lon="1.42656">
        <ele>128.368284</ele>
        <time>2023-07-30T15:53:46.000Z</time>
      </trkpt>
      <trkpt lat="43.68622" lon="1.42664">
        <ele>128.38547</ele>
        <time>2023-07-30T15:53:47.000Z</time>
      </trkpt>
      <trkpt lat="43.68622" lon="1.42664">
        <ele>128.38547</ele>
        <time>2023-07-30T15:53:47.000Z</time>
      </trkpt>
      <trkpt lat="43.68618" lon="1.42669">
        <ele>128.394226</ele>
        <time>2023-07-30T15:53:48.000Z</time>
      </trkpt>
      <trkpt lat="43.68612" lon="1.42677">
        <ele>128.409682</ele>
        <time>2023-07-30T15:53:49.000Z</time>
      </trkpt>
      <trkpt lat="43.68612" lon="1.42677">
        <ele>128.409682</ele>
        <time>2023-07-30T15:53:49.000Z</time>
      </trkpt>
      <trkpt lat="43.68607" lon="1.42682">
        <ele>128.420259</ele>
        <time>2023-07-30T15:53:50.000Z</time>
      </trkpt>
      <trkpt lat="43.68603" lon="1.42688">
        <ele>128.431481</ele>
        <time>2023-07-30T15:53:51.000Z</time>
      </trkpt>
      <trkpt lat="43.68598" lon="1.42695">
        <ele>128.443691</ele>
        <time>2023-07-30T15:53:52.000Z</time>
      </trkpt>
      <trkpt lat="43.68593" lon="1.42701">
        <ele>128.455727</ele>
        <time>2023-07-30T15:53:53.000Z</time>
      </trkpt>
      <trkpt lat="43.68593" lon="1.42701">
        <ele>128.455727</ele>
        <time>2023-07-30T15:53:53.000Z</time>
      </trkpt>
      <trkpt lat="43.68588" lon="1.42708">
        <ele>128.467222</ele>
        <time>2023-07-30T15:53:54.000Z</time>
      </trkpt>
      <trkpt lat="43.68584" lon="1.42713">
        <ele>128.47718</ele>
        <time>2023-07-30T15:53:55.000Z</time>
      </trkpt>
      <trkpt lat="43.68579" lon="1.42719">
        <ele>128.489827</ele>
        <time>2023-07-30T15:53:56.000Z</time>
      </trkpt>
      <trkpt lat="43.68579" lon="1.42719">
        <ele>128.489827</ele>
        <time>2023-07-30T15:53:56.000Z</time>
      </trkpt>
      <trkpt lat="43.68575" lon="1.42725">
        <ele>128.500313</ele>
        <time>2023-07-30T15:53:57.000Z</time>
      </trkpt>
      <trkpt lat="43.68575" lon="1.42725">
        <ele>128.500313</ele>
        <time>2023-07-30T15:53:57.000Z</time>
      </trkpt>
      <trkpt lat="43.68573" lon="1.42727">
        <ele>128.503821</ele>
        <time>2023-07-30T15:53:58.000Z</time>
      </trkpt>
      <trkpt lat="43.68573" lon="1.42727">
        <ele>128.503821</ele>
        <time>2023-07-30T15:53:58.000Z</time>
      </trkpt>
      <trkpt lat="43.68565" lon="1.42737">
        <ele>128.522786</ele>
        <time>2023-07-30T15:53:59.000Z</time>
      </trkpt>
      <trkpt lat="43.68565" lon="1.42737">
        <ele>128.522786</ele>
        <time>2023-07-30T15:53:59.000Z</time>
      </trkpt>
      <trkpt lat="43.6856" lon="1.42743">
        <ele>128.533697</ele>
        <time>2023-07-30T15:54:00.000Z</time>
      </trkpt>
      <trkpt lat="43.68556" lon="1.42749">
        <ele>128.54478</ele>
        <time>2023-07-30T15:54:01.000Z</time>
      </trkpt>
      <trkpt lat="43.68551" lon="1.42754">
        <ele>128.555928</ele>
        <time>2023-07-30T15:54:02.000Z</time>
      </trkpt>
      <trkpt lat="43.68546" lon="1.42759">
        <ele>128.566505</ele>
        <time>2023-07-30T15:54:03.000Z</time>
      </trkpt>
      <trkpt lat="43.68541" lon="1.42766">
        <ele>128.579557</ele>
        <time>2023-07-30T15:54:03.000Z</time>
      </trkpt>
      <trkpt lat="43.68535" lon="1.42772">
        <ele>128.591983</ele>
        <time>2023-07-30T15:54:05.000Z</time>
      </trkpt>
      <trkpt lat="43.68535" lon="1.42772">
        <ele>128.591983</ele>
        <time>2023-07-30T15:54:05.000Z</time>
      </trkpt>
      <trkpt lat="43.6853" lon="1.42777">
        <ele>128.603112</ele>
        <time>2023-07-30T15:54:06.000Z</time>
      </trkpt>
      <trkpt lat="43.6853" lon="1.42777">
        <ele>128.603112</ele>
        <time>2023-07-30T15:54:06.000Z</time>
      </trkpt>
      <trkpt lat="43.68525" lon="1.42782">
        <ele>128.614012</ele>
        <time>2023-07-30T15:54:07.000Z</time>
      </trkpt>
      <trkpt lat="43.6852" lon="1.42787">
        <ele>128.625641</ele>
        <time>2023-07-30T15:54:07.000Z</time>
      </trkpt>
      <trkpt lat="43.68517" lon="1.4279">
        <ele>128.630655</ele>
        <time>2023-07-30T15:54:09.000Z</time>
      </trkpt>
      <trkpt lat="43.68509" lon="1.42799">
        <ele>128.64999</ele>
        <time>2023-07-30T15:54:10.000Z</time>
      </trkpt>
      <trkpt lat="43.68508" lon="1.428">
        <ele>128.652061</ele>
        <time>2023-07-30T15:54:11.000Z</time>
      </trkpt>
      <trkpt lat="43.68499" lon="1.4281">
        <ele>128.672101</ele>
        <time>2023-07-30T15:54:11.000Z</time>
      </trkpt>
      <trkpt lat="43.68494" lon="1.42815">
        <ele>128.679849</ele>
        <time>2023-07-30T15:54:13.000Z</time>
      </trkpt>
      <trkpt lat="43.6849" lon="1.42821">
        <ele>128.687351</ele>
        <time>2023-07-30T15:54:14.000Z</time>
      </trkpt>
      <trkpt lat="43.68485" lon="1.42826">
        <ele>128.693809</ele>
        <time>2023-07-30T15:54:14.000Z</time>
      </trkpt>
      <trkpt lat="43.68485" lon="1.42826">
        <ele>128.693809</ele>
        <time>2023-07-30T15:54:14.000Z</time>
      </trkpt>
      <trkpt lat="43.6848" lon="1.4283">
        <ele>128.700389</ele>
        <time>2023-07-30T15:54:16.000Z</time>
      </trkpt>
      <trkpt lat="43.68474" lon="1.42834">
        <ele>128.708199</ele>
        <time>2023-07-30T15:54:17.000Z</time>
      </trkpt>
      <trkpt lat="43.68468" lon="1.42838">
        <ele>128.71601</ele>
        <time>2023-07-30T15:54:18.000Z</time>
      </trkpt>
      <trkpt lat="43.68462" lon="1.42842">
        <ele>128.723053</ele>
        <time>2023-07-30T15:54:18.000Z</time>
      </trkpt>
      <trkpt lat="43.68462" lon="1.42842">
        <ele>128.723053</ele>
        <time>2023-07-30T15:54:18.000Z</time>
      </trkpt>
      <trkpt lat="43.68457" lon="1.42847">
        <ele>128.730887</ele>
        <time>2023-07-30T15:54:20.000Z</time>
      </trkpt>
      <trkpt lat="43.68457" lon="1.42847">
        <ele>128.730887</ele>
        <time>2023-07-30T15:54:20.000Z</time>
      </trkpt>
      <trkpt lat="43.68456" lon="1.42848">
        <ele>128.732493</ele>
        <time>2023-07-30T15:54:21.000Z</time>
      </trkpt>
      <trkpt lat="43.68447" lon="1.42859">
        <ele>128.745815</ele>
        <time>2023-07-30T15:54:21.000Z</time>
      </trkpt>
      <trkpt lat="43.68442" lon="1.42865">
        <ele>128.753262</ele>
        <time>2023-07-30T15:54:23.000Z</time>
      </trkpt>
      <trkpt lat="43.68437" lon="1.4287">
        <ele>128.760178</ele>
        <time>2023-07-30T15:54:24.000Z</time>
      </trkpt>
      <trkpt lat="43.68437" lon="1.4287">
        <ele>128.760178</ele>
        <time>2023-07-30T15:54:24.000Z</time>
      </trkpt>
      <trkpt lat="43.68435" lon="1.42873">
        <ele>128.763636</ele>
        <time>2023-07-30T15:54:25.000Z</time>
      </trkpt>
      <trkpt lat="43.68427" lon="1.42882">
        <ele>128.775669</ele>
        <time>2023-07-30T15:54:25.000Z</time>
      </trkpt>
      <trkpt lat="43.68422" lon="1.42888">
        <ele>128.782693</ele>
        <time>2023-07-30T15:54:27.000Z</time>
      </trkpt>
      <trkpt lat="43.68417" lon="1.42894">
        <ele>128.79044</ele>
        <time>2023-07-30T15:54:28.000Z</time>
      </trkpt>
      <trkpt lat="43.68412" lon="1.42899">
        <ele>128.797815</ele>
        <time>2023-07-30T15:54:28.000Z</time>
      </trkpt>
      <trkpt lat="43.68407" lon="1.42905">
        <ele>128.804785</ele>
        <time>2023-07-30T15:54:30.000Z</time>
      </trkpt>
      <trkpt lat="43.68403" lon="1.4291">
        <ele>128.811246</ele>
        <time>2023-07-30T15:54:31.000Z</time>
      </trkpt>
      <trkpt lat="43.68399" lon="1.42915">
        <ele>128.817492</ele>
        <time>2023-07-30T15:54:32.000Z</time>
      </trkpt>
      <trkpt lat="43.68399" lon="1.42915">
        <ele>128.817492</ele>
        <time>2023-07-30T15:54:32.000Z</time>
      </trkpt>
      <trkpt lat="43.68396" lon="1.42919">
        <ele>128.822155</ele>
        <time>2023-07-30T15:54:33.000Z</time>
      </trkpt>
      <trkpt lat="43.68394" lon="1.42921">
        <ele>128.825049</ele>
        <time>2023-07-30T15:54:34.000Z</time>
      </trkpt>
      <trkpt lat="43.68394" lon="1.42921">
        <ele>128.825049</ele>
        <time>2023-07-30T15:54:34.000Z</time>
      </trkpt>
      <trkpt lat="43.68393" lon="1.42923">
        <ele>128.827437</ele>
        <time>2023-07-30T15:54:35.000Z</time>
      </trkpt>
      <trkpt lat="43.6839" lon="1.42926">
        <ele>128.831306</ele>
        <time>2023-07-30T15:54:36.000Z</time>
      </trkpt>
      <trkpt lat="43.68388" lon="1.42928">
        <ele>128.834255</ele>
        <time>2023-07-30T15:54:37.000Z</time>
      </trkpt>
      <trkpt lat="43.68388" lon="1.42928">
        <ele>128.834255</ele>
        <time>2023-07-30T15:54:37.000Z</time>
      </trkpt>
      <trkpt lat="43.68386" lon="1.42931">
        <ele>128.837608</ele>
        <time>2023-07-30T15:54:40.000Z</time>
      </trkpt>
      <trkpt lat="43.68386" lon="1.42931">
        <ele>128.837608</ele>
        <time>2023-07-30T15:54:40.000Z</time>
      </trkpt>
      <trkpt lat="43.68383" lon="1.42934">
        <ele>128.84129</ele>
        <time>2023-07-30T15:54:42.000Z</time>
      </trkpt>
      <trkpt lat="43.68382" lon="1.42936">
        <ele>128.843919</ele>
        <time>2023-07-30T15:54:44.000Z</time>
      </trkpt>
      <trkpt lat="43.68382" lon="1.42936">
        <ele>128.843919</ele>
        <time>2023-07-30T15:54:44.000Z</time>
      </trkpt>
      <trkpt lat="43.68381" lon="1.42938">
        <ele>128.845829</ele>
        <time>2023-07-30T15:54:46.000Z</time>
      </trkpt>
      <trkpt lat="43.68379" lon="1.42939">
        <ele>128.847951</ele>
        <time>2023-07-30T15:54:48.000Z</time>
      </trkpt>
      <trkpt lat="43.68378" lon="1.42941">
        <ele>128.84961</ele>
        <time>2023-07-30T15:54:50.000Z</time>
      </trkpt>
      <trkpt lat="43.68376" lon="1.42944">
        <ele>128.853234</ele>
        <time>2023-07-30T15:54:53.000Z</time>
      </trkpt>
      <trkpt lat="43.68375" lon="1.42945">
        <ele>128.854981</ele>
        <time>2023-07-30T15:54:54.000Z</time>
      </trkpt>
      <trkpt lat="43.68373" lon="1.42947">
        <ele>128.857427</ele>
        <time>2023-07-30T15:54:55.000Z</time>
      </trkpt>
      <trkpt lat="43.68371" lon="1.42949">
        <ele>128.860067</ele>
        <time>2023-07-30T15:54:55.000Z</time>
      </trkpt>
      <trkpt lat="43.68371" lon="1.42949">
        <ele>128.860067</ele>
        <time>2023-07-30T15:54:55.000Z</time>
      </trkpt>
      <trkpt lat="43.68368" lon="1.42952">
        <ele>128.864602</ele>
        <time>2023-07-30T15:54:56.000Z</time>
      </trkpt>
      <trkpt lat="43.68364" lon="1.42956">
        <ele>128.869977</ele>
        <time>2023-07-30T15:54:58.000Z</time>
      </trkpt>
      <trkpt lat="43.68364" lon="1.42956">
        <ele>128.869977</ele>
        <time>2023-07-30T15:54:58.000Z</time>
      </trkpt>
      <trkpt lat="43.68356" lon="1.42966">
        <ele>128.882091</ele>
        <time>2023-07-30T15:55:00.000Z</time>
      </trkpt>
      <trkpt lat="43.68356" lon="1.42966">
        <ele>128.882091</ele>
        <time>2023-07-30T15:55:00.000Z</time>
      </trkpt>
      <trkpt lat="43.68353" lon="1.4297">
        <ele>128.887721</ele>
        <time>2023-07-30T15:55:00.000Z</time>
      </trkpt>
      <trkpt lat="43.68348" lon="1.42975">
        <ele>128.893802</ele>
        <time>2023-07-30T15:55:01.000Z</time>
      </trkpt>
      <trkpt lat="43.68348" lon="1.42975">
        <ele>128.893802</ele>
        <time>2023-07-30T15:55:01.000Z</time>
      </trkpt>
      <trkpt lat="43.68344" lon="1.42979">
        <ele>128.900143</ele>
        <time>2023-07-30T15:55:02.000Z</time>
      </trkpt>
      <trkpt lat="43.6834" lon="1.42984">
        <ele>128.906327</ele>
        <time>2023-07-30T15:55:04.000Z</time>
      </trkpt>
      <trkpt lat="43.68335" lon="1.42989">
        <ele>128.912306</ele>
        <time>2023-07-30T15:55:04.000Z</time>
      </trkpt>
      <trkpt lat="43.68333" lon="1.42992">
        <ele>128.915783</ele>
        <time>2023-07-30T15:55:06.000Z</time>
      </trkpt>
      <trkpt lat="43.68327" lon="1.42999">
        <ele>128.925</ele>
        <time>2023-07-30T15:55:07.000Z</time>
      </trkpt>
      <trkpt lat="43.68327" lon="1.42999">
        <ele>128.925</ele>
        <time>2023-07-30T15:55:07.000Z</time>
      </trkpt>
      <trkpt lat="43.68322" lon="1.43003">
        <ele>128.931202</ele>
        <time>2023-07-30T15:55:08.000Z</time>
      </trkpt>
      <trkpt lat="43.68318" lon="1.43008">
        <ele>128.937035</ele>
        <time>2023-07-30T15:55:09.000Z</time>
      </trkpt>
      <trkpt lat="43.68314" lon="1.43012">
        <ele>128.943423</ele>
        <time>2023-07-30T15:55:10.000Z</time>
      </trkpt>
      <trkpt lat="43.68311" lon="1.43016">
        <ele>128.948195</ele>
        <time>2023-07-30T15:55:11.000Z</time>
      </trkpt>
      <trkpt lat="43.68306" lon="1.43021">
        <ele>128.954188</ele>
        <time>2023-07-30T15:55:12.000Z</time>
      </trkpt>
      <trkpt lat="43.68302" lon="1.43026">
        <ele>128.960723</ele>
        <time>2023-07-30T15:55:13.000Z</time>
      </trkpt>
      <trkpt lat="43.68298" lon="1.4303">
        <ele>128.966555</ele>
        <time>2023-07-30T15:55:14.000Z</time>
      </trkpt>
      <trkpt lat="43.68298" lon="1.4303">
        <ele>128.966555</ele>
        <time>2023-07-30T15:55:14.000Z</time>
      </trkpt>
      <trkpt lat="43.68294" lon="1.43034">
        <ele>128.971718</ele>
        <time>2023-07-30T15:55:15.000Z</time>
      </trkpt>
      <trkpt lat="43.6829" lon="1.4304">
        <ele>128.978332</ele>
        <time>2023-07-30T15:55:16.000Z</time>
      </trkpt>
      <trkpt lat="43.68286" lon="1.43046">
        <ele>128.98531</ele>
        <time>2023-07-30T15:55:17.000Z</time>
      </trkpt>
      <trkpt lat="43.68282" lon="1.43051">
        <ele>128.991494</ele>
        <time>2023-07-30T15:55:18.000Z</time>
      </trkpt>
      <trkpt lat="43.68276" lon="1.43057">
        <ele>128.999189</ele>
        <time>2023-07-30T15:55:19.000Z</time>
      </trkpt>
      <trkpt lat="43.68276" lon="1.43057">
        <ele>128.999189</ele>
        <time>2023-07-30T15:55:19.000Z</time>
      </trkpt>
      <trkpt lat="43.68271" lon="1.43062">
        <ele>129.006455</ele>
        <time>2023-07-30T15:55:20.000Z</time>
      </trkpt>
      <trkpt lat="43.68267" lon="1.43067">
        <ele>129.012086</ele>
        <time>2023-07-30T15:55:21.000Z</time>
      </trkpt>
      <trkpt lat="43.68267" lon="1.43067">
        <ele>129.012086</ele>
        <time>2023-07-30T15:55:21.000Z</time>
      </trkpt>
      <trkpt lat="43.68265" lon="1.43069">
        <ele>129.015588</ele>
        <time>2023-07-30T15:55:22.000Z</time>
      </trkpt>
      <trkpt lat="43.68263" lon="1.43072">
        <ele>129.018367</ele>
        <time>2023-07-30T15:55:23.000Z</time>
      </trkpt>
      <trkpt lat="43.68262" lon="1.43075">
        <ele>129.020748</ele>
        <time>2023-07-30T15:55:24.000Z</time>
      </trkpt>
      <trkpt lat="43.68262" lon="1.43075">
        <ele>129.020748</ele>
        <time>2023-07-30T15:55:24.000Z</time>
      </trkpt>
      <trkpt lat="43.68261" lon="1.43078">
        <ele>129.023854</ele>
        <time>2023-07-30T15:55:25.000Z</time>
      </trkpt>
      <trkpt lat="43.6826" lon="1.43081">
        <ele>129.026364</ele>
        <time>2023-07-30T15:55:26.000Z</time>
      </trkpt>
      <trkpt lat="43.6826" lon="1.43081">
        <ele>129.026364</ele>
        <time>2023-07-30T15:55:26.000Z</time>
      </trkpt>
      <trkpt lat="43.68259" lon="1.43083">
        <ele>129.028958</ele>
        <time>2023-07-30T15:55:27.000Z</time>
      </trkpt>
      <trkpt lat="43.68259" lon="1.43084">
        <ele>129.029202</ele>
        <time>2023-07-30T15:55:28.000Z</time>
      </trkpt>
      <trkpt lat="43.68256" lon="1.43088">
        <ele>129.033537</ele>
        <time>2023-07-30T15:55:30.000Z</time>
      </trkpt>
      <trkpt lat="43.68255" lon="1.4309">
        <ele>129.035781</ele>
        <time>2023-07-30T15:55:31.000Z</time>
      </trkpt>
      <trkpt lat="43.68255" lon="1.4309">
        <ele>129.035781</ele>
        <time>2023-07-30T15:55:31.000Z</time>
      </trkpt>
      <trkpt lat="43.68254" lon="1.43092">
        <ele>129.037715</ele>
        <time>2023-07-30T15:55:32.000Z</time>
      </trkpt>
      <trkpt lat="43.68251" lon="1.43096">
        <ele>129.042133</ele>
        <time>2023-07-30T15:55:33.000Z</time>
      </trkpt>
      <trkpt lat="43.68251" lon="1.43096">
        <ele>129.042133</ele>
        <time>2023-07-30T15:55:33.000Z</time>
      </trkpt>
      <trkpt lat="43.6825" lon="1.43099">
        <ele>129.044904</ele>
        <time>2023-07-30T15:55:34.000Z</time>
      </trkpt>
      <trkpt lat="43.68248" lon="1.43102">
        <ele>129.048462</ele>
        <time>2023-07-30T15:55:35.000Z</time>
      </trkpt>
      <trkpt lat="43.68246" lon="1.43105">
        <ele>129.051959</ele>
        <time>2023-07-30T15:55:37.000Z</time>
      </trkpt>
      <trkpt lat="43.68243" lon="1.43109">
        <ele>129.056843</ele>
        <time>2023-07-30T15:55:38.000Z</time>
      </trkpt>
      <trkpt lat="43.68243" lon="1.43109">
        <ele>129.056843</ele>
        <time>2023-07-30T15:55:38.000Z</time>
      </trkpt>
      <trkpt lat="43.68239" lon="1.43114">
        <ele>129.063104</ele>
        <time>2023-07-30T15:55:39.000Z</time>
      </trkpt>
      <trkpt lat="43.68226" lon="1.43129">
        <ele>129.081084</ele>
        <time>2023-07-30T15:55:41.000Z</time>
      </trkpt>
      <trkpt lat="43.68222" lon="1.43133">
        <ele>129.064246</ele>
        <time>2023-07-30T15:55:42.000Z</time>
      </trkpt>
      <trkpt lat="43.68222" lon="1.43133">
        <ele>129.064246</ele>
        <time>2023-07-30T15:55:42.000Z</time>
      </trkpt>
      <trkpt lat="43.68218" lon="1.4314">
        <ele>129.027614</ele>
        <time>2023-07-30T15:55:43.000Z</time>
      </trkpt>
      <trkpt lat="43.68212" lon="1.43146">
        <ele>128.99021</ele>
        <time>2023-07-30T15:55:44.000Z</time>
      </trkpt>
      <trkpt lat="43.68207" lon="1.43151">
        <ele>128.95591</ele>
        <time>2023-07-30T15:55:45.000Z</time>
      </trkpt>
      <trkpt lat="43.68201" lon="1.43158">
        <ele>128.914835</ele>
        <time>2023-07-30T15:55:46.000Z</time>
      </trkpt>
      <trkpt lat="43.68201" lon="1.43158">
        <ele>128.914835</ele>
        <time>2023-07-30T15:55:46.000Z</time>
      </trkpt>
      <trkpt lat="43.68196" lon="1.43164">
        <ele>128.876851</ele>
        <time>2023-07-30T15:55:47.000Z</time>
      </trkpt>
      <trkpt lat="43.68196" lon="1.43164">
        <ele>128.876851</ele>
        <time>2023-07-30T15:55:47.000Z</time>
      </trkpt>
      <trkpt lat="43.68191" lon="1.43171">
        <ele>128.838349</ele>
        <time>2023-07-30T15:55:48.000Z</time>
      </trkpt>
      <trkpt lat="43.68185" lon="1.43178">
        <ele>128.79758</ele>
        <time>2023-07-30T15:55:49.000Z</time>
      </trkpt>
      <trkpt lat="43.68185" lon="1.43178">
        <ele>128.79758</ele>
        <time>2023-07-30T15:55:49.000Z</time>
      </trkpt>
      <trkpt lat="43.68181" lon="1.43185">
        <ele>128.761553</ele>
        <time>2023-07-30T15:55:50.000Z</time>
      </trkpt>
      <trkpt lat="43.68176" lon="1.43191">
        <ele>128.724101</ele>
        <time>2023-07-30T15:55:51.000Z</time>
      </trkpt>
      <trkpt lat="43.68171" lon="1.43197">
        <ele>128.689462</ele>
        <time>2023-07-30T15:55:52.000Z</time>
      </trkpt>
      <trkpt lat="43.68171" lon="1.43197">
        <ele>128.689462</ele>
        <time>2023-07-30T15:55:52.000Z</time>
      </trkpt>
      <trkpt lat="43.68167" lon="1.43203">
        <ele>128.656668</ele>
        <time>2023-07-30T15:55:53.000Z</time>
      </trkpt>
      <trkpt lat="43.68167" lon="1.43203">
        <ele>128.656668</ele>
        <time>2023-07-30T15:55:53.000Z</time>
      </trkpt>
      <trkpt lat="43.68163" lon="1.43208">
        <ele>128.62629</ele>
        <time>2023-07-30T15:55:54.000Z</time>
      </trkpt>
      <trkpt lat="43.6816" lon="1.43212">
        <ele>128.601944</ele>
        <time>2023-07-30T15:55:55.000Z</time>
      </trkpt>
      <trkpt lat="43.68158" lon="1.43215">
        <ele>128.588475</ele>
        <time>2023-07-30T15:55:56.000Z</time>
      </trkpt>
      <trkpt lat="43.68158" lon="1.43215">
        <ele>128.588475</ele>
        <time>2023-07-30T15:55:56.000Z</time>
      </trkpt>
      <trkpt lat="43.68154" lon="1.4322">
        <ele>128.560841</ele>
        <time>2023-07-30T15:55:57.000Z</time>
      </trkpt>
      <trkpt lat="43.68154" lon="1.4322">
        <ele>128.560841</ele>
        <time>2023-07-30T15:55:57.000Z</time>
      </trkpt>
      <trkpt lat="43.68154" lon="1.4322">
        <ele>128.560841</ele>
        <time>2023-07-30T15:55:59.000Z</time>
      </trkpt>
      <trkpt lat="43.68153" lon="1.43221">
        <ele>128.550781</ele>
        <time>2023-07-30T15:56:00.000Z</time>
      </trkpt>
      <trkpt lat="43.68152" lon="1.43223">
        <ele>128.54441</ele>
        <time>2023-07-30T15:56:01.000Z</time>
      </trkpt>
      <trkpt lat="43.68151" lon="1.43224">
        <ele>128.535073</ele>
        <time>2023-07-30T15:56:02.000Z</time>
      </trkpt>
      <trkpt lat="43.68148" lon="1.43227">
        <ele>128.518928</ele>
        <time>2023-07-30T15:56:03.000Z</time>
      </trkpt>
      <trkpt lat="43.68147" lon="1.43229">
        <ele>128.50646</ele>
        <time>2023-07-30T15:56:05.000Z</time>
      </trkpt>
      <trkpt lat="43.68147" lon="1.43229">
        <ele>128.50646</ele>
        <time>2023-07-30T15:56:05.000Z</time>
      </trkpt>
      <trkpt lat="43.68145" lon="1.43232">
        <ele>128.489276</ele>
        <time>2023-07-30T15:56:06.000Z</time>
      </trkpt>
      <trkpt lat="43.68141" lon="1.43237">
        <ele>128.463967</ele>
        <time>2023-07-30T15:56:07.000Z</time>
      </trkpt>
      <trkpt lat="43.68141" lon="1.43237">
        <ele>128.463967</ele>
        <time>2023-07-30T15:56:07.000Z</time>
      </trkpt>
      <trkpt lat="43.68139" lon="1.4324">
        <ele>128.444383</ele>
        <time>2023-07-30T15:56:08.000Z</time>
      </trkpt>
      <trkpt lat="43.68134" lon="1.43244">
        <ele>128.415506</ele>
        <time>2023-07-30T15:56:09.000Z</time>
      </trkpt>
      <trkpt lat="43.6813" lon="1.43249">
        <ele>128.385385</ele>
        <time>2023-07-30T15:56:10.000Z</time>
      </trkpt>
      <trkpt lat="43.6813" lon="1.43249">
        <ele>128.385385</ele>
        <time>2023-07-30T15:56:10.000Z</time>
      </trkpt>
      <trkpt lat="43.68125" lon="1.43255">
        <ele>128.35033</ele>
        <time>2023-07-30T15:56:11.000Z</time>
      </trkpt>
      <trkpt lat="43.68119" lon="1.43263">
        <ele>128.306632</ele>
        <time>2023-07-30T15:56:12.000Z</time>
      </trkpt>
      <trkpt lat="43.68119" lon="1.43263">
        <ele>128.306632</ele>
        <time>2023-07-30T15:56:12.000Z</time>
      </trkpt>
      <trkpt lat="43.68113" lon="1.43271">
        <ele>128.258279</ele>
        <time>2023-07-30T15:56:13.000Z</time>
      </trkpt>
      <trkpt lat="43.68113" lon="1.43271">
        <ele>128.258279</ele>
        <time>2023-07-30T15:56:13.000Z</time>
      </trkpt>
      <trkpt lat="43.68109" lon="1.43278">
        <ele>128.224379</ele>
        <time>2023-07-30T15:56:14.000Z</time>
      </trkpt>
      <trkpt lat="43.68105" lon="1.43284">
        <ele>128.189825</ele>
        <time>2023-07-30T15:56:15.000Z</time>
      </trkpt>
      <trkpt lat="43.681" lon="1.43292">
        <ele>128.150872</ele>
        <time>2023-07-30T15:56:15.000Z</time>
      </trkpt>
      <trkpt lat="43.68096" lon="1.43298">
        <ele>128.117194</ele>
        <time>2023-07-30T15:56:17.000Z</time>
      </trkpt>
      <trkpt lat="43.68091" lon="1.43305">
        <ele>128.1031</ele>
        <time>2023-07-30T15:56:17.000Z</time>
      </trkpt>
      <trkpt lat="43.68091" lon="1.43305">
        <ele>128.1031</ele>
        <time>2023-07-30T15:56:17.000Z</time>
      </trkpt>
      <trkpt lat="43.68086" lon="1.43312">
        <ele>128.099489</ele>
        <time>2023-07-30T15:56:19.000Z</time>
      </trkpt>
      <trkpt lat="43.68082" lon="1.43319">
        <ele>128.096236</ele>
        <time>2023-07-30T15:56:20.000Z</time>
      </trkpt>
      <trkpt lat="43.68078" lon="1.43326">
        <ele>128.092982</ele>
        <time>2023-07-30T15:56:21.000Z</time>
      </trkpt>
      <trkpt lat="43.68074" lon="1.43332">
        <ele>128.089914</ele>
        <time>2023-07-30T15:56:22.000Z</time>
      </trkpt>
      <trkpt lat="43.6807" lon="1.43339">
        <ele>128.086819</ele>
        <time>2023-07-30T15:56:23.000Z</time>
      </trkpt>
      <trkpt lat="43.6807" lon="1.43339">
        <ele>128.086819</ele>
        <time>2023-07-30T15:56:23.000Z</time>
      </trkpt>
      <trkpt lat="43.68066" lon="1.43346">
        <ele>128.083723</ele>
        <time>2023-07-30T15:56:24.000Z</time>
      </trkpt>
      <trkpt lat="43.68066" lon="1.43346">
        <ele>128.083723</ele>
        <time>2023-07-30T15:56:24.000Z</time>
      </trkpt>
      <trkpt lat="43.68064" lon="1.43353">
        <ele>128.080801</ele>
        <time>2023-07-30T15:56:25.000Z</time>
      </trkpt>
      <trkpt lat="43.68063" lon="1.43361">
        <ele>128.077843</ele>
        <time>2023-07-30T15:56:26.000Z</time>
      </trkpt>
      <trkpt lat="43.68064" lon="1.43369">
        <ele>128.074684</ele>
        <time>2023-07-30T15:56:27.000Z</time>
      </trkpt>
      <trkpt lat="43.68064" lon="1.43377">
        <ele>128.071851</ele>
        <time>2023-07-30T15:56:28.000Z</time>
      </trkpt>
      <trkpt lat="43.68064" lon="1.43377">
        <ele>128.071851</ele>
        <time>2023-07-30T15:56:28.000Z</time>
      </trkpt>
      <trkpt lat="43.68063" lon="1.43384">
        <ele>128.069475</ele>
        <time>2023-07-30T15:56:29.000Z</time>
      </trkpt>
      <trkpt lat="43.68062" lon="1.43388">
        <ele>128.067784</ele>
        <time>2023-07-30T15:56:30.000Z</time>
      </trkpt>
      <trkpt lat="43.68062" lon="1.43388">
        <ele>128.067784</ele>
        <time>2023-07-30T15:56:30.000Z</time>
      </trkpt>
      <trkpt lat="43.68061" lon="1.4339">
        <ele>128.066679</ele>
        <time>2023-07-30T15:56:31.000Z</time>
      </trkpt>
      <trkpt lat="43.6806" lon="1.43392">
        <ele>128.065807</ele>
        <time>2023-07-30T15:56:32.000Z</time>
      </trkpt>
      <trkpt lat="43.68058" lon="1.43394">
        <ele>128.064678</ele>
        <time>2023-07-30T15:56:33.000Z</time>
      </trkpt>
      <trkpt lat="43.68055" lon="1.43396">
        <ele>128.063157</ele>
        <time>2023-07-30T15:56:34.000Z</time>
      </trkpt>
      <trkpt lat="43.68053" lon="1.43397">
        <ele>128.061665</ele>
        <time>2023-07-30T15:56:35.000Z</time>
      </trkpt>
      <trkpt lat="43.6805" lon="1.434">
        <ele>128.060266</ele>
        <time>2023-07-30T15:56:36.000Z</time>
      </trkpt>
      <trkpt lat="43.6805" lon="1.434">
        <ele>128.060266</ele>
        <time>2023-07-30T15:56:36.000Z</time>
      </trkpt>
      <trkpt lat="43.68044" lon="1.43404">
        <ele>128.05633</ele>
        <time>2023-07-30T15:56:37.000Z</time>
      </trkpt>
      <trkpt lat="43.68036" lon="1.4341">
        <ele>128.052156</ele>
        <time>2023-07-30T15:56:38.000Z</time>
      </trkpt>
      <trkpt lat="43.6803" lon="1.43416">
        <ele>128.04827</ele>
        <time>2023-07-30T15:56:39.000Z</time>
      </trkpt>
      <trkpt lat="43.6803" lon="1.43416">
        <ele>128.04827</ele>
        <time>2023-07-30T15:56:39.000Z</time>
      </trkpt>
      <trkpt lat="43.68019" lon="1.43425">
        <ele>128.041857</ele>
        <time>2023-07-30T15:56:40.000Z</time>
      </trkpt>
      <trkpt lat="43.68019" lon="1.43425">
        <ele>128.041857</ele>
        <time>2023-07-30T15:56:40.000Z</time>
      </trkpt>
      <trkpt lat="43.68011" lon="1.43433">
        <ele>128.036847</ele>
        <time>2023-07-30T15:56:41.000Z</time>
      </trkpt>
      <trkpt lat="43.68007" lon="1.4344">
        <ele>128.033321</ele>
        <time>2023-07-30T15:56:42.000Z</time>
      </trkpt>
      <trkpt lat="43.68007" lon="1.4344">
        <ele>128.033321</ele>
        <time>2023-07-30T15:56:42.000Z</time>
      </trkpt>
      <trkpt lat="43.68002" lon="1.43448">
        <ele>128.029693</ele>
        <time>2023-07-30T15:56:43.000Z</time>
      </trkpt>
      <trkpt lat="43.67998" lon="1.43456">
        <ele>128.026057</ele>
        <time>2023-07-30T15:56:44.000Z</time>
      </trkpt>
      <trkpt lat="43.67993" lon="1.43462">
        <ele>128.022728</ele>
        <time>2023-07-30T15:56:45.000Z</time>
      </trkpt>
      <trkpt lat="43.67989" lon="1.43468">
        <ele>128.019468</ele>
        <time>2023-07-30T15:56:46.000Z</time>
      </trkpt>
      <trkpt lat="43.67983" lon="1.43475">
        <ele>128.015835</ele>
        <time>2023-07-30T15:56:47.000Z</time>
      </trkpt>
      <trkpt lat="43.67978" lon="1.43481">
        <ele>128.035067</ele>
        <time>2023-07-30T15:56:48.000Z</time>
      </trkpt>
      <trkpt lat="43.67973" lon="1.43488">
        <ele>128.080154</ele>
        <time>2023-07-30T15:56:49.000Z</time>
      </trkpt>
      <trkpt lat="43.67969" lon="1.43493">
        <ele>128.115625</ele>
        <time>2023-07-30T15:56:50.000Z</time>
      </trkpt>
      <trkpt lat="43.67965" lon="1.43499">
        <ele>128.151911</ele>
        <time>2023-07-30T15:56:51.000Z</time>
      </trkpt>
      <trkpt lat="43.6796" lon="1.43506">
        <ele>128.195542</ele>
        <time>2023-07-30T15:56:52.000Z</time>
      </trkpt>
      <trkpt lat="43.67956" lon="1.43512">
        <ele>128.229597</ele>
        <time>2023-07-30T15:56:53.000Z</time>
      </trkpt>
      <trkpt lat="43.67951" lon="1.43519">
        <ele>128.271214</ele>
        <time>2023-07-30T15:56:54.000Z</time>
      </trkpt>
      <trkpt lat="43.67947" lon="1.43525">
        <ele>128.311863</ele>
        <time>2023-07-30T15:56:55.000Z</time>
      </trkpt>
      <trkpt lat="43.67947" lon="1.43525">
        <ele>128.311863</ele>
        <time>2023-07-30T15:56:55.000Z</time>
      </trkpt>
      <trkpt lat="43.67943" lon="1.43532">
        <ele>128.349972</ele>
        <time>2023-07-30T15:56:56.000Z</time>
      </trkpt>
      <trkpt lat="43.67938" lon="1.4354">
        <ele>128.393922</ele>
        <time>2023-07-30T15:56:57.000Z</time>
      </trkpt>
      <trkpt lat="43.67934" lon="1.43547">
        <ele>128.433918</ele>
        <time>2023-07-30T15:56:58.000Z</time>
      </trkpt>
      <trkpt lat="43.6793" lon="1.43553">
        <ele>128.474144</ele>
        <time>2023-07-30T15:56:59.000Z</time>
      </trkpt>
      <trkpt lat="43.67925" lon="1.4356">
        <ele>128.513465</ele>
        <time>2023-07-30T15:57:00.000Z</time>
      </trkpt>
      <trkpt lat="43.67925" lon="1.4356">
        <ele>128.513465</ele>
        <time>2023-07-30T15:57:00.000Z</time>
      </trkpt>
      <trkpt lat="43.67921" lon="1.43566">
        <ele>128.549905</ele>
        <time>2023-07-30T15:57:01.000Z</time>
      </trkpt>
      <trkpt lat="43.67921" lon="1.43566">
        <ele>128.549905</ele>
        <time>2023-07-30T15:57:01.000Z</time>
      </trkpt>
      <trkpt lat="43.67917" lon="1.43573">
        <ele>128.590583</ele>
        <time>2023-07-30T15:57:02.000Z</time>
      </trkpt>
      <trkpt lat="43.67913" lon="1.4358">
        <ele>128.627649</ele>
        <time>2023-07-30T15:57:03.000Z</time>
      </trkpt>
      <trkpt lat="43.67913" lon="1.4358">
        <ele>128.627649</ele>
        <time>2023-07-30T15:57:03.000Z</time>
      </trkpt>
      <trkpt lat="43.67909" lon="1.43586">
        <ele>128.66697</ele>
        <time>2023-07-30T15:57:04.000Z</time>
      </trkpt>
      <trkpt lat="43.67909" lon="1.43586">
        <ele>128.66697</ele>
        <time>2023-07-30T15:57:04.000Z</time>
      </trkpt>
      <trkpt lat="43.67905" lon="1.43593">
        <ele>128.705296</ele>
        <time>2023-07-30T15:57:05.000Z</time>
      </trkpt>
      <trkpt lat="43.67905" lon="1.43593">
        <ele>128.705296</ele>
        <time>2023-07-30T15:57:05.000Z</time>
      </trkpt>
      <trkpt lat="43.67901" lon="1.43599">
        <ele>128.74201</ele>
        <time>2023-07-30T15:57:06.000Z</time>
      </trkpt>
      <trkpt lat="43.67897" lon="1.43605">
        <ele>128.780259</ele>
        <time>2023-07-30T15:57:07.000Z</time>
      </trkpt>
      <trkpt lat="43.67892" lon="1.43611">
        <ele>128.818892</ele>
        <time>2023-07-30T15:57:08.000Z</time>
      </trkpt>
      <trkpt lat="43.67886" lon="1.43615">
        <ele>128.861287</ele>
        <time>2023-07-30T15:57:09.000Z</time>
      </trkpt>
      <trkpt lat="43.67886" lon="1.43615">
        <ele>128.861287</ele>
        <time>2023-07-30T15:57:09.000Z</time>
      </trkpt>
      <trkpt lat="43.6788" lon="1.43619">
        <ele>128.898746</ele>
        <time>2023-07-30T15:57:10.000Z</time>
      </trkpt>
      <trkpt lat="43.67876" lon="1.43624">
        <ele>128.933557</ele>
        <time>2023-07-30T15:57:11.000Z</time>
      </trkpt>
      <trkpt lat="43.67876" lon="1.43624">
        <ele>128.933557</ele>
        <time>2023-07-30T15:57:11.000Z</time>
      </trkpt>
      <trkpt lat="43.67871" lon="1.43629">
        <ele>128.970273</ele>
        <time>2023-07-30T15:57:11.000Z</time>
      </trkpt>
      <trkpt lat="43.67871" lon="1.43629">
        <ele>128.970273</ele>
        <time>2023-07-30T15:57:11.000Z</time>
      </trkpt>
      <trkpt lat="43.67867" lon="1.43635">
        <ele>129.007275</ele>
        <time>2023-07-30T15:57:13.000Z</time>
      </trkpt>
      <trkpt lat="43.67862" lon="1.4364">
        <ele>129.042143</ele>
        <time>2023-07-30T15:57:14.000Z</time>
      </trkpt>
      <trkpt lat="43.67858" lon="1.43645">
        <ele>129.077311</ele>
        <time>2023-07-30T15:57:15.000Z</time>
      </trkpt>
      <trkpt lat="43.67858" lon="1.43645">
        <ele>129.077311</ele>
        <time>2023-07-30T15:57:15.000Z</time>
      </trkpt>
      <trkpt lat="43.67854" lon="1.43651">
        <ele>129.114342</ele>
        <time>2023-07-30T15:57:16.000Z</time>
      </trkpt>
      <trkpt lat="43.6785" lon="1.43657">
        <ele>129.130713</ele>
        <time>2023-07-30T15:57:17.000Z</time>
      </trkpt>
      <trkpt lat="43.67846" lon="1.43663">
        <ele>129.147754</ele>
        <time>2023-07-30T15:57:18.000Z</time>
      </trkpt>
      <trkpt lat="43.67841" lon="1.43668">
        <ele>129.163739</ele>
        <time>2023-07-30T15:57:19.000Z</time>
      </trkpt>
      <trkpt lat="43.67841" lon="1.43668">
        <ele>129.163739</ele>
        <time>2023-07-30T15:57:19.000Z</time>
      </trkpt>
      <trkpt lat="43.67837" lon="1.43674">
        <ele>129.180718</ele>
        <time>2023-07-30T15:57:20.000Z</time>
      </trkpt>
      <trkpt lat="43.67832" lon="1.4368">
        <ele>129.1987</ele>
        <time>2023-07-30T15:57:21.000Z</time>
      </trkpt>
      <trkpt lat="43.67828" lon="1.43686">
        <ele>129.215387</ele>
        <time>2023-07-30T15:57:22.000Z</time>
      </trkpt>
      <trkpt lat="43.67828" lon="1.43686">
        <ele>129.215387</ele>
        <time>2023-07-30T15:57:22.000Z</time>
      </trkpt>
      <trkpt lat="43.67823" lon="1.43692">
        <ele>129.231234</ele>
        <time>2023-07-30T15:57:23.000Z</time>
      </trkpt>
      <trkpt lat="43.67819" lon="1.43698">
        <ele>129.248682</ele>
        <time>2023-07-30T15:57:24.000Z</time>
      </trkpt>
      <trkpt lat="43.67815" lon="1.43704">
        <ele>129.264259</ele>
        <time>2023-07-30T15:57:25.000Z</time>
      </trkpt>
      <trkpt lat="43.6781" lon="1.43708">
        <ele>129.279059</ele>
        <time>2023-07-30T15:57:26.000Z</time>
      </trkpt>
      <trkpt lat="43.67808" lon="1.43712">
        <ele>129.288779</ele>
        <time>2023-07-30T15:57:27.000Z</time>
      </trkpt>
      <trkpt lat="43.67806" lon="1.43715">
        <ele>129.296973</ele>
        <time>2023-07-30T15:57:28.000Z</time>
      </trkpt>
      <trkpt lat="43.67806" lon="1.43715">
        <ele>129.296973</ele>
        <time>2023-07-30T15:57:28.000Z</time>
      </trkpt>
      <trkpt lat="43.67804" lon="1.43716">
        <ele>129.301501</ele>
        <time>2023-07-30T15:57:29.000Z</time>
      </trkpt>
      <trkpt lat="43.67804" lon="1.43716">
        <ele>129.301501</ele>
        <time>2023-07-30T15:57:30.000Z</time>
      </trkpt>
      <trkpt lat="43.67802" lon="1.43719">
        <ele>129.308762</ele>
        <time>2023-07-30T15:57:31.000Z</time>
      </trkpt>
      <trkpt lat="43.67802" lon="1.4372">
        <ele>129.311495</ele>
        <time>2023-07-30T15:57:32.000Z</time>
      </trkpt>
      <trkpt lat="43.67801" lon="1.43722">
        <ele>129.316304</ele>
        <time>2023-07-30T15:57:32.000Z</time>
      </trkpt>
      <trkpt lat="43.67799" lon="1.43723">
        <ele>129.321572</ele>
        <time>2023-07-30T15:57:34.000Z</time>
      </trkpt>
      <trkpt lat="43.67799" lon="1.43723">
        <ele>129.321572</ele>
        <time>2023-07-30T15:57:34.000Z</time>
      </trkpt>
      <trkpt lat="43.67798" lon="1.43724">
        <ele>129.324637</ele>
        <time>2023-07-30T15:57:35.000Z</time>
      </trkpt>
      <trkpt lat="43.67795" lon="1.43728">
        <ele>129.335687</ele>
        <time>2023-07-30T15:57:36.000Z</time>
      </trkpt>
      <trkpt lat="43.67788" lon="1.43738">
        <ele>129.363186</ele>
        <time>2023-07-30T15:57:38.000Z</time>
      </trkpt>
      <trkpt lat="43.67785" lon="1.43742">
        <ele>129.374782</ele>
        <time>2023-07-30T15:57:39.000Z</time>
      </trkpt>
      <trkpt lat="43.6778" lon="1.43747">
        <ele>129.390796</ele>
        <time>2023-07-30T15:57:40.000Z</time>
      </trkpt>
      <trkpt lat="43.67774" lon="1.43754">
        <ele>129.4127</ele>
        <time>2023-07-30T15:57:41.000Z</time>
      </trkpt>
      <trkpt lat="43.67768" lon="1.43759">
        <ele>129.432587</ele>
        <time>2023-07-30T15:57:42.000Z</time>
      </trkpt>
      <trkpt lat="43.67762" lon="1.43765">
        <ele>129.451244</ele>
        <time>2023-07-30T15:57:43.000Z</time>
      </trkpt>
      <trkpt lat="43.67762" lon="1.43765">
        <ele>129.451244</ele>
        <time>2023-07-30T15:57:43.000Z</time>
      </trkpt>
      <trkpt lat="43.67757" lon="1.43768">
        <ele>129.467282</ele>
        <time>2023-07-30T15:57:44.000Z</time>
      </trkpt>
      <trkpt lat="43.67751" lon="1.43771">
        <ele>129.483089</ele>
        <time>2023-07-30T15:57:44.000Z</time>
      </trkpt>
      <trkpt lat="43.67746" lon="1.43775">
        <ele>129.499041</ele>
        <time>2023-07-30T15:57:45.000Z</time>
      </trkpt>
      <trkpt lat="43.67746" lon="1.43775">
        <ele>129.499041</ele>
        <time>2023-07-30T15:57:45.000Z</time>
      </trkpt>
      <trkpt lat="43.6774" lon="1.43778">
        <ele>129.51639</ele>
        <time>2023-07-30T15:57:46.000Z</time>
      </trkpt>
      <trkpt lat="43.6774" lon="1.43778">
        <ele>129.51639</ele>
        <time>2023-07-30T15:57:46.000Z</time>
      </trkpt>
      <trkpt lat="43.67734" lon="1.43782">
        <ele>129.534644</ele>
        <time>2023-07-30T15:57:48.000Z</time>
      </trkpt>
      <trkpt lat="43.6773" lon="1.43785">
        <ele>129.548213</ele>
        <time>2023-07-30T15:57:48.000Z</time>
      </trkpt>
      <trkpt lat="43.67725" lon="1.43789">
        <ele>129.562767</ele>
        <time>2023-07-30T15:57:49.000Z</time>
      </trkpt>
      <trkpt lat="43.6772" lon="1.43793">
        <ele>129.579457</ele>
        <time>2023-07-30T15:57:50.000Z</time>
      </trkpt>
      <trkpt lat="43.67716" lon="1.43797">
        <ele>129.59309</ele>
        <time>2023-07-30T15:57:51.000Z</time>
      </trkpt>
      <trkpt lat="43.67716" lon="1.43797">
        <ele>129.59309</ele>
        <time>2023-07-30T15:57:51.000Z</time>
      </trkpt>
      <trkpt lat="43.67712" lon="1.43801">
        <ele>129.606247</ele>
        <time>2023-07-30T15:57:53.000Z</time>
      </trkpt>
      <trkpt lat="43.67712" lon="1.43801">
        <ele>129.606247</ele>
        <time>2023-07-30T15:57:53.000Z</time>
      </trkpt>
      <trkpt lat="43.67707" lon="1.43806">
        <ele>129.615835</ele>
        <time>2023-07-30T15:57:53.000Z</time>
      </trkpt>
      <trkpt lat="43.67704" lon="1.43809">
        <ele>129.624139</ele>
        <time>2023-07-30T15:57:55.000Z</time>
      </trkpt>
      <trkpt lat="43.677" lon="1.43812">
        <ele>129.632372</ele>
        <time>2023-07-30T15:57:55.000Z</time>
      </trkpt>
      <trkpt lat="43.67696" lon="1.43815">
        <ele>129.639632</ele>
        <time>2023-07-30T15:57:56.000Z</time>
      </trkpt>
      <trkpt lat="43.67693" lon="1.43819">
        <ele>129.647404</ele>
        <time>2023-07-30T15:57:58.000Z</time>
      </trkpt>
      <trkpt lat="43.67693" lon="1.43819">
        <ele>129.647404</ele>
        <time>2023-07-30T15:57:58.000Z</time>
      </trkpt>
      <trkpt lat="43.67689" lon="1.43822">
        <ele>129.655637</ele>
        <time>2023-07-30T15:57:58.000Z</time>
      </trkpt>
      <trkpt lat="43.67685" lon="1.43826">
        <ele>129.664164</ele>
        <time>2023-07-30T15:57:59.000Z</time>
      </trkpt>
      <trkpt lat="43.67681" lon="1.43829">
        <ele>129.673446</ele>
        <time>2023-07-30T15:58:00.000Z</time>
      </trkpt>
      <trkpt lat="43.67676" lon="1.43833">
        <ele>129.68411</ele>
        <time>2023-07-30T15:58:01.000Z</time>
      </trkpt>
      <trkpt lat="43.67666" lon="1.43839">
        <ele>129.70416</ele>
        <time>2023-07-30T15:58:03.000Z</time>
      </trkpt>
      <trkpt lat="43.67663" lon="1.43841">
        <ele>129.710553</ele>
        <time>2023-07-30T15:58:04.000Z</time>
      </trkpt>
      <trkpt lat="43.67659" lon="1.43845">
        <ele>129.719482</ele>
        <time>2023-07-30T15:58:06.000Z</time>
      </trkpt>
      <trkpt lat="43.67659" lon="1.43845">
        <ele>129.719482</ele>
        <time>2023-07-30T15:58:06.000Z</time>
      </trkpt>
      <trkpt lat="43.67656" lon="1.43848">
        <ele>129.72592</ele>
        <time>2023-07-30T15:58:07.000Z</time>
      </trkpt>
      <trkpt lat="43.67654" lon="1.43851">
        <ele>129.730919</ele>
        <time>2023-07-30T15:58:08.000Z</time>
      </trkpt>
      <trkpt lat="43.67651" lon="1.43854">
        <ele>129.738465</ele>
        <time>2023-07-30T15:58:09.000Z</time>
      </trkpt>
      <trkpt lat="43.67648" lon="1.43856">
        <ele>129.744961</ele>
        <time>2023-07-30T15:58:10.000Z</time>
      </trkpt>
      <trkpt lat="43.67647" lon="1.43857">
        <ele>129.746697</ele>
        <time>2023-07-30T15:58:12.000Z</time>
      </trkpt>
      <trkpt lat="43.67637" lon="1.43864">
        <ele>129.766804</ele>
        <time>2023-07-30T15:58:13.000Z</time>
      </trkpt>
      <trkpt lat="43.67631" lon="1.43868">
        <ele>129.779006</ele>
        <time>2023-07-30T15:58:14.000Z</time>
      </trkpt>
      <trkpt lat="43.67625" lon="1.43873">
        <ele>129.792153</ele>
        <time>2023-07-30T15:58:14.000Z</time>
      </trkpt>
      <trkpt lat="43.6762" lon="1.43878">
        <ele>129.803495</ele>
        <time>2023-07-30T15:58:16.000Z</time>
      </trkpt>
      <trkpt lat="43.6762" lon="1.43878">
        <ele>129.803495</ele>
        <time>2023-07-30T15:58:16.000Z</time>
      </trkpt>
      <trkpt lat="43.67615" lon="1.43881">
        <ele>129.813899</ele>
        <time>2023-07-30T15:58:17.000Z</time>
      </trkpt>
      <trkpt lat="43.67609" lon="1.43884">
        <ele>129.824091</ele>
        <time>2023-07-30T15:58:18.000Z</time>
      </trkpt>
      <trkpt lat="43.67605" lon="1.43886">
        <ele>129.832379</ele>
        <time>2023-07-30T15:58:19.000Z</time>
      </trkpt>
      <trkpt lat="43.67605" lon="1.43886">
        <ele>129.832379</ele>
        <time>2023-07-30T15:58:19.000Z</time>
      </trkpt>
      <trkpt lat="43.67601" lon="1.43889">
        <ele>129.841886</ele>
        <time>2023-07-30T15:58:21.000Z</time>
      </trkpt>
      <trkpt lat="43.67598" lon="1.43891">
        <ele>129.847997</ele>
        <time>2023-07-30T15:58:21.000Z</time>
      </trkpt>
      <trkpt lat="43.67598" lon="1.43891">
        <ele>129.847997</ele>
        <time>2023-07-30T15:58:21.000Z</time>
      </trkpt>
      <trkpt lat="43.67594" lon="1.43895">
        <ele>129.856373</ele>
        <time>2023-07-30T15:58:23.000Z</time>
      </trkpt>
      <trkpt lat="43.67591" lon="1.43899">
        <ele>129.864524</ele>
        <time>2023-07-30T15:58:24.000Z</time>
      </trkpt>
      <trkpt lat="43.67587" lon="1.43905">
        <ele>129.874431</ele>
        <time>2023-07-30T15:58:25.000Z</time>
      </trkpt>
      <trkpt lat="43.67587" lon="1.43905">
        <ele>129.874431</ele>
        <time>2023-07-30T15:58:25.000Z</time>
      </trkpt>
      <trkpt lat="43.67585" lon="1.4391">
        <ele>129.882395</ele>
        <time>2023-07-30T15:58:26.000Z</time>
      </trkpt>
      <trkpt lat="43.67582" lon="1.43914">
        <ele>129.890359</ele>
        <time>2023-07-30T15:58:27.000Z</time>
      </trkpt>
      <trkpt lat="43.67578" lon="1.43922">
        <ele>129.903263</ele>
        <time>2023-07-30T15:58:28.000Z</time>
      </trkpt>
      <trkpt lat="43.67578" lon="1.43922">
        <ele>129.903263</ele>
        <time>2023-07-30T15:58:28.000Z</time>
      </trkpt>
      <trkpt lat="43.67571" lon="1.43934">
        <ele>129.923369</ele>
        <time>2023-07-30T15:58:30.000Z</time>
      </trkpt>
      <trkpt lat="43.67567" lon="1.43942">
        <ele>129.935563</ele>
        <time>2023-07-30T15:58:31.000Z</time>
      </trkpt>
      <trkpt lat="43.67563" lon="1.43952">
        <ele>129.925988</ele>
        <time>2023-07-30T15:58:33.000Z</time>
      </trkpt>
      <trkpt lat="43.6756" lon="1.43958">
        <ele>129.919335</ele>
        <time>2023-07-30T15:58:34.000Z</time>
      </trkpt>
      <trkpt lat="43.6756" lon="1.43958">
        <ele>129.919335</ele>
        <time>2023-07-30T15:58:34.000Z</time>
      </trkpt>
      <trkpt lat="43.67557" lon="1.43965">
        <ele>129.91269</ele>
        <time>2023-07-30T15:58:35.000Z</time>
      </trkpt>
      <trkpt lat="43.67557" lon="1.43965">
        <ele>129.91269</ele>
        <time>2023-07-30T15:58:35.000Z</time>
      </trkpt>
      <trkpt lat="43.67551" lon="1.43979">
        <ele>129.898595</ele>
        <time>2023-07-30T15:58:36.000Z</time>
      </trkpt>
      <trkpt lat="43.67545" lon="1.43994">
        <ele>129.883879</ele>
        <time>2023-07-30T15:58:38.000Z</time>
      </trkpt>
      <trkpt lat="43.67538" lon="1.4401">
        <ele>129.868292</ele>
        <time>2023-07-30T15:58:40.000Z</time>
      </trkpt>
      <trkpt lat="43.67538" lon="1.4401">
        <ele>129.868292</ele>
        <time>2023-07-30T15:58:40.000Z</time>
      </trkpt>
      <trkpt lat="43.67535" lon="1.44018">
        <ele>129.860525</ele>
        <time>2023-07-30T15:58:41.000Z</time>
      </trkpt>
      <trkpt lat="43.67535" lon="1.44018">
        <ele>129.860525</ele>
        <time>2023-07-30T15:58:41.000Z</time>
      </trkpt>
      <trkpt lat="43.67533" lon="1.44026">
        <ele>129.852991</ele>
        <time>2023-07-30T15:58:43.000Z</time>
      </trkpt>
      <trkpt lat="43.67533" lon="1.44026">
        <ele>129.852991</ele>
        <time>2023-07-30T15:58:43.000Z</time>
      </trkpt>
      <trkpt lat="43.6753" lon="1.44034">
        <ele>129.845148</ele>
        <time>2023-07-30T15:58:44.000Z</time>
      </trkpt>
      <trkpt lat="43.6753" lon="1.44034">
        <ele>129.845148</ele>
        <time>2023-07-30T15:58:44.000Z</time>
      </trkpt>
      <trkpt lat="43.67527" lon="1.44042">
        <ele>129.837553</ele>
        <time>2023-07-30T15:58:45.000Z</time>
      </trkpt>
      <trkpt lat="43.67521" lon="1.44058">
        <ele>129.822484</ele>
        <time>2023-07-30T15:58:46.000Z</time>
      </trkpt>
      <trkpt lat="43.67521" lon="1.44058">
        <ele>129.822484</ele>
        <time>2023-07-30T15:58:46.000Z</time>
      </trkpt>
      <trkpt lat="43.67518" lon="1.44066">
        <ele>129.814872</ele>
        <time>2023-07-30T15:58:47.000Z</time>
      </trkpt>
      <trkpt lat="43.67516" lon="1.44074">
        <ele>129.80762</ele>
        <time>2023-07-30T15:58:48.000Z</time>
      </trkpt>
      <trkpt lat="43.67516" lon="1.44074">
        <ele>129.80762</ele>
        <time>2023-07-30T15:58:48.000Z</time>
      </trkpt>
      <trkpt lat="43.67513" lon="1.44082">
        <ele>129.799853</ele>
        <time>2023-07-30T15:58:49.000Z</time>
      </trkpt>
      <trkpt lat="43.67513" lon="1.44082">
        <ele>129.799853</ele>
        <time>2023-07-30T15:58:49.000Z</time>
      </trkpt>
      <trkpt lat="43.6751" lon="1.4409">
        <ele>129.792257</ele>
        <time>2023-07-30T15:58:50.000Z</time>
      </trkpt>
      <trkpt lat="43.6751" lon="1.4409">
        <ele>129.792257</ele>
        <time>2023-07-30T15:58:50.000Z</time>
      </trkpt>
      <trkpt lat="43.67507" lon="1.44098">
        <ele>129.784262</ele>
        <time>2023-07-30T15:58:51.000Z</time>
      </trkpt>
      <trkpt lat="43.67505" lon="1.44107">
        <ele>129.776517</ele>
        <time>2023-07-30T15:58:52.000Z</time>
      </trkpt>
      <trkpt lat="43.67502" lon="1.44115">
        <ele>129.768594</ele>
        <time>2023-07-30T15:58:53.000Z</time>
      </trkpt>
      <trkpt lat="43.67499" lon="1.44123">
        <ele>129.761264</ele>
        <time>2023-07-30T15:58:54.000Z</time>
      </trkpt>
      <trkpt lat="43.67497" lon="1.44132">
        <ele>129.753028</ele>
        <time>2023-07-30T15:58:55.000Z</time>
      </trkpt>
      <trkpt lat="43.67494" lon="1.44141">
        <ele>129.745042</ele>
        <time>2023-07-30T15:58:56.000Z</time>
      </trkpt>
      <trkpt lat="43.67494" lon="1.44141">
        <ele>129.745042</ele>
        <time>2023-07-30T15:58:56.000Z</time>
      </trkpt>
      <trkpt lat="43.67492" lon="1.44148">
        <ele>129.738247</ele>
        <time>2023-07-30T15:58:57.000Z</time>
      </trkpt>
      <trkpt lat="43.6749" lon="1.44156">
        <ele>129.730581</ele>
        <time>2023-07-30T15:58:58.000Z</time>
      </trkpt>
      <trkpt lat="43.67488" lon="1.44164">
        <ele>129.72388</ele>
        <time>2023-07-30T15:58:59.000Z</time>
      </trkpt>
      <trkpt lat="43.67485" lon="1.44172">
        <ele>129.758366</ele>
        <time>2023-07-30T15:59:00.000Z</time>
      </trkpt>
      <trkpt lat="43.67484" lon="1.44181">
        <ele>129.797088</ele>
        <time>2023-07-30T15:59:01.000Z</time>
      </trkpt>
      <trkpt lat="43.67484" lon="1.44181">
        <ele>129.797088</ele>
        <time>2023-07-30T15:59:01.000Z</time>
      </trkpt>
      <trkpt lat="43.67481" lon="1.4419">
        <ele>129.83692</ele>
        <time>2023-07-30T15:59:02.000Z</time>
      </trkpt>
      <trkpt lat="43.6748" lon="1.44198">
        <ele>129.873429</ele>
        <time>2023-07-30T15:59:03.000Z</time>
      </trkpt>
      <trkpt lat="43.67478" lon="1.44207">
        <ele>129.909939</ele>
        <time>2023-07-30T15:59:04.000Z</time>
      </trkpt>
      <trkpt lat="43.67478" lon="1.44207">
        <ele>129.909939</ele>
        <time>2023-07-30T15:59:04.000Z</time>
      </trkpt>
      <trkpt lat="43.67476" lon="1.44215">
        <ele>129.947064</ele>
        <time>2023-07-30T15:59:05.000Z</time>
      </trkpt>
      <trkpt lat="43.67475" lon="1.44224">
        <ele>129.984928</ele>
        <time>2023-07-30T15:59:06.000Z</time>
      </trkpt>
      <trkpt lat="43.67474" lon="1.44232">
        <ele>130.018089</ele>
        <time>2023-07-30T15:59:07.000Z</time>
      </trkpt>
      <trkpt lat="43.67474" lon="1.44232">
        <ele>130.018089</ele>
        <time>2023-07-30T15:59:07.000Z</time>
      </trkpt>
      <trkpt lat="43.67472" lon="1.44241">
        <ele>130.055214</ele>
        <time>2023-07-30T15:59:08.000Z</time>
      </trkpt>
      <trkpt lat="43.6747" lon="1.44249">
        <ele>130.091543</ele>
        <time>2023-07-30T15:59:09.000Z</time>
      </trkpt>
      <trkpt lat="43.67468" lon="1.44257">
        <ele>130.128053</ele>
        <time>2023-07-30T15:59:10.000Z</time>
      </trkpt>
      <trkpt lat="43.67467" lon="1.44265">
        <ele>130.162688</ele>
        <time>2023-07-30T15:59:11.000Z</time>
      </trkpt>
      <trkpt lat="43.67465" lon="1.44273">
        <ele>130.197579</ele>
        <time>2023-07-30T15:59:12.000Z</time>
      </trkpt>
      <trkpt lat="43.67465" lon="1.44282">
        <ele>130.234937</ele>
        <time>2023-07-30T15:59:13.000Z</time>
      </trkpt>
      <trkpt lat="43.67463" lon="1.44291">
        <ele>130.269848</ele>
        <time>2023-07-30T15:59:14.000Z</time>
      </trkpt>
      <trkpt lat="43.67463" lon="1.44291">
        <ele>130.269848</ele>
        <time>2023-07-30T15:59:14.000Z</time>
      </trkpt>
      <trkpt lat="43.67463" lon="1.44299">
        <ele>130.305616</ele>
        <time>2023-07-30T15:59:15.000Z</time>
      </trkpt>
      <trkpt lat="43.67461" lon="1.44308">
        <ele>130.341649</ele>
        <time>2023-07-30T15:59:16.000Z</time>
      </trkpt>
      <trkpt lat="43.67461" lon="1.44308">
        <ele>130.341649</ele>
        <time>2023-07-30T15:59:16.000Z</time>
      </trkpt>
      <trkpt lat="43.67461" lon="1.44316">
        <ele>130.378246</ele>
        <time>2023-07-30T15:59:17.000Z</time>
      </trkpt>
      <trkpt lat="43.6746" lon="1.44325">
        <ele>130.414774</ele>
        <time>2023-07-30T15:59:18.000Z</time>
      </trkpt>
      <trkpt lat="43.6746" lon="1.44325">
        <ele>130.414774</ele>
        <time>2023-07-30T15:59:18.000Z</time>
      </trkpt>
      <trkpt lat="43.67459" lon="1.44334">
        <ele>130.452612</ele>
        <time>2023-07-30T15:59:19.000Z</time>
      </trkpt>
      <trkpt lat="43.67459" lon="1.44334">
        <ele>130.452612</ele>
        <time>2023-07-30T15:59:19.000Z</time>
      </trkpt>
      <trkpt lat="43.67458" lon="1.44342">
        <ele>130.48714</ele>
        <time>2023-07-30T15:59:20.000Z</time>
      </trkpt>
      <trkpt lat="43.67458" lon="1.44351">
        <ele>130.522235</ele>
        <time>2023-07-30T15:59:21.000Z</time>
      </trkpt>
      <trkpt lat="43.67457" lon="1.44359">
        <ele>130.558417</ele>
        <time>2023-07-30T15:59:22.000Z</time>
      </trkpt>
      <trkpt lat="43.67457" lon="1.44368">
        <ele>130.595211</ele>
        <time>2023-07-30T15:59:23.000Z</time>
      </trkpt>
      <trkpt lat="43.67457" lon="1.44368">
        <ele>130.595211</ele>
        <time>2023-07-30T15:59:23.000Z</time>
      </trkpt>
      <trkpt lat="43.67456" lon="1.44377">
        <ele>130.632005</ele>
        <time>2023-07-30T15:59:24.000Z</time>
      </trkpt>
      <trkpt lat="43.67456" lon="1.44385">
        <ele>130.667517</ele>
        <time>2023-07-30T15:59:25.000Z</time>
      </trkpt>
      <trkpt lat="43.67456" lon="1.44395">
        <ele>130.706325</ele>
        <time>2023-07-30T15:59:26.000Z</time>
      </trkpt>
      <trkpt lat="43.67456" lon="1.44395">
        <ele>130.706325</ele>
        <time>2023-07-30T15:59:26.000Z</time>
      </trkpt>
      <trkpt lat="43.67456" lon="1.44404">
        <ele>130.744368</ele>
        <time>2023-07-30T15:59:27.000Z</time>
      </trkpt>
      <trkpt lat="43.67455" lon="1.44413">
        <ele>130.790493</ele>
        <time>2023-07-30T15:59:28.000Z</time>
      </trkpt>
      <trkpt lat="43.67455" lon="1.44421">
        <ele>130.844252</ele>
        <time>2023-07-30T15:59:29.000Z</time>
      </trkpt>
      <trkpt lat="43.67455" lon="1.44421">
        <ele>130.844252</ele>
        <time>2023-07-30T15:59:29.000Z</time>
      </trkpt>
      <trkpt lat="43.67454" lon="1.44431">
        <ele>130.901893</ele>
        <time>2023-07-30T15:59:30.000Z</time>
      </trkpt>
      <trkpt lat="43.67454" lon="1.44431">
        <ele>130.901893</ele>
        <time>2023-07-30T15:59:30.000Z</time>
      </trkpt>
      <trkpt lat="43.67454" lon="1.4444">
        <ele>130.956497</ele>
        <time>2023-07-30T15:59:31.000Z</time>
      </trkpt>
      <trkpt lat="43.67454" lon="1.4444">
        <ele>130.956497</ele>
        <time>2023-07-30T15:59:31.000Z</time>
      </trkpt>
      <trkpt lat="43.67453" lon="1.44449">
        <ele>131.009351</ele>
        <time>2023-07-30T15:59:32.000Z</time>
      </trkpt>
      <trkpt lat="43.67453" lon="1.44449">
        <ele>131.009351</ele>
        <time>2023-07-30T15:59:32.000Z</time>
      </trkpt>
      <trkpt lat="43.67453" lon="1.44458">
        <ele>131.062803</ele>
        <time>2023-07-30T15:59:33.000Z</time>
      </trkpt>
      <trkpt lat="43.67453" lon="1.44466">
        <ele>131.112666</ele>
        <time>2023-07-30T15:59:34.000Z</time>
      </trkpt>
      <trkpt lat="43.67453" lon="1.44475">
        <ele>131.166615</ele>
        <time>2023-07-30T15:59:35.000Z</time>
      </trkpt>
      <trkpt lat="43.67452" lon="1.44484">
        <ele>131.218272</ele>
        <time>2023-07-30T15:59:36.000Z</time>
      </trkpt>
      <trkpt lat="43.67452" lon="1.44492">
        <ele>131.270481</ele>
        <time>2023-07-30T15:59:37.000Z</time>
      </trkpt>
      <trkpt lat="43.67452" lon="1.44492">
        <ele>131.270481</ele>
        <time>2023-07-30T15:59:37.000Z</time>
      </trkpt>
      <trkpt lat="43.67452" lon="1.44501">
        <ele>131.319148</ele>
        <time>2023-07-30T15:59:38.000Z</time>
      </trkpt>
      <trkpt lat="43.67451" lon="1.44509">
        <ele>131.367815</ele>
        <time>2023-07-30T15:59:39.000Z</time>
      </trkpt>
      <trkpt lat="43.6745" lon="1.44517">
        <ele>131.42098</ele>
        <time>2023-07-30T15:59:40.000Z</time>
      </trkpt>
      <trkpt lat="43.6745" lon="1.44526">
        <ele>131.473235</ele>
        <time>2023-07-30T15:59:41.000Z</time>
      </trkpt>
      <trkpt lat="43.6745" lon="1.44535">
        <ele>131.524187</ele>
        <time>2023-07-30T15:59:42.000Z</time>
      </trkpt>
      <trkpt lat="43.67449" lon="1.44543">
        <ele>131.576659</ele>
        <time>2023-07-30T15:59:43.000Z</time>
      </trkpt>
      <trkpt lat="43.67449" lon="1.44552">
        <ele>131.626411</ele>
        <time>2023-07-30T15:59:44.000Z</time>
      </trkpt>
      <trkpt lat="43.67449" lon="1.4456">
        <ele>131.678667</ele>
        <time>2023-07-30T15:59:45.000Z</time>
      </trkpt>
      <trkpt lat="43.67448" lon="1.44569">
        <ele>131.729726</ele>
        <time>2023-07-30T15:59:46.000Z</time>
      </trkpt>
      <trkpt lat="43.67448" lon="1.44577">
        <ele>131.781007</ele>
        <time>2023-07-30T15:59:47.000Z</time>
      </trkpt>
      <trkpt lat="43.67447" lon="1.44585">
        <ele>131.828477</ele>
        <time>2023-07-30T15:59:48.000Z</time>
      </trkpt>
      <trkpt lat="43.67447" lon="1.44585">
        <ele>131.828477</ele>
        <time>2023-07-30T15:59:48.000Z</time>
      </trkpt>
      <trkpt lat="43.67447" lon="1.44593">
        <ele>131.876888</ele>
        <time>2023-07-30T15:59:49.000Z</time>
      </trkpt>
      <trkpt lat="43.67447" lon="1.44593">
        <ele>131.876888</ele>
        <time>2023-07-30T15:59:49.000Z</time>
      </trkpt>
      <trkpt lat="43.67446" lon="1.44599">
        <ele>131.910023</ele>
        <time>2023-07-30T15:59:50.000Z</time>
      </trkpt>
      <trkpt lat="43.67445" lon="1.44608">
        <ele>131.968286</ele>
        <time>2023-07-30T15:59:51.000Z</time>
      </trkpt>
      <trkpt lat="43.67445" lon="1.44608">
        <ele>131.968286</ele>
        <time>2023-07-30T15:59:51.000Z</time>
      </trkpt>
      <trkpt lat="43.67444" lon="1.44615">
        <ele>132.006627</ele>
        <time>2023-07-30T15:59:52.000Z</time>
      </trkpt>
      <trkpt lat="43.67444" lon="1.44621">
        <ele>132.046613</ele>
        <time>2023-07-30T15:59:53.000Z</time>
      </trkpt>
      <trkpt lat="43.67444" lon="1.44621">
        <ele>132.046613</ele>
        <time>2023-07-30T15:59:53.000Z</time>
      </trkpt>
      <trkpt lat="43.67442" lon="1.44632">
        <ele>132.110334</ele>
        <time>2023-07-30T15:59:55.000Z</time>
      </trkpt>
      <trkpt lat="43.67442" lon="1.44632">
        <ele>132.110334</ele>
        <time>2023-07-30T15:59:55.000Z</time>
      </trkpt>
      <trkpt lat="43.67442" lon="1.44637">
        <ele>132.140488</ele>
        <time>2023-07-30T15:59:56.000Z</time>
      </trkpt>
      <trkpt lat="43.67442" lon="1.44637">
        <ele>132.140488</ele>
        <time>2023-07-30T15:59:56.000Z</time>
      </trkpt>
      <trkpt lat="43.67441" lon="1.44641">
        <ele>132.16953</ele>
        <time>2023-07-30T15:59:57.000Z</time>
      </trkpt>
      <trkpt lat="43.6744" lon="1.44645">
        <ele>132.195487</ele>
        <time>2023-07-30T15:59:58.000Z</time>
      </trkpt>
      <trkpt lat="43.67439" lon="1.44648">
        <ele>132.216186</ele>
        <time>2023-07-30T15:59:59.000Z</time>
      </trkpt>
      <trkpt lat="43.67439" lon="1.44648">
        <ele>132.216186</ele>
        <time>2023-07-30T15:59:59.000Z</time>
      </trkpt>
      <trkpt lat="43.67436" lon="1.44652">
        <ele>132.244091</ele>
        <time>2023-07-30T16:00:01.000Z</time>
      </trkpt>
      <trkpt lat="43.67436" lon="1.44652">
        <ele>132.244091</ele>
        <time>2023-07-30T16:00:01.000Z</time>
      </trkpt>
      <trkpt lat="43.67436" lon="1.44652">
        <ele>132.244091</ele>
        <time>2023-07-30T16:00:03.000Z</time>
      </trkpt>
      <trkpt lat="43.67436" lon="1.44652">
        <ele>132.244091</ele>
        <time>2023-07-30T16:00:06.000Z</time>
      </trkpt>
      <trkpt lat="43.67436" lon="1.44652">
        <ele>132.244091</ele>
        <time>2023-07-30T16:00:07.000Z</time>
      </trkpt>
      <trkpt lat="43.67435" lon="1.44651">
        <ele>132.252001</ele>
        <time>2023-07-30T16:00:09.000Z</time>
      </trkpt>
      <trkpt lat="43.67432" lon="1.44657">
        <ele>132.255796</ele>
        <time>2023-07-30T16:00:10.000Z</time>
      </trkpt>
      <trkpt lat="43.67432" lon="1.4466">
        <ele>132.257611</ele>
        <time>2023-07-30T16:00:11.000Z</time>
      </trkpt>
      <trkpt lat="43.67436" lon="1.44664">
        <ele>132.261263</ele>
        <time>2023-07-30T16:00:14.000Z</time>
      </trkpt>
      <trkpt lat="43.67437" lon="1.44664">
        <ele>132.262237</ele>
        <time>2023-07-30T16:00:14.000Z</time>
      </trkpt>
      <trkpt lat="43.67441" lon="1.44669">
        <ele>132.2668</ele>
        <time>2023-07-30T16:00:16.000Z</time>
      </trkpt>
      <trkpt lat="43.67441" lon="1.44669">
        <ele>132.2668</ele>
        <time>2023-07-30T16:00:16.000Z</time>
      </trkpt>
      <trkpt lat="43.67443" lon="1.44671">
        <ele>132.268334</ele>
        <time>2023-07-30T16:00:17.000Z</time>
      </trkpt>
      <trkpt lat="43.67445" lon="1.44678">
        <ele>132.273212</ele>
        <time>2023-07-30T16:00:20.000Z</time>
      </trkpt>
      <trkpt lat="43.67445" lon="1.44682">
        <ele>132.275202</ele>
        <time>2023-07-30T16:00:20.000Z</time>
      </trkpt>
      <trkpt lat="43.67445" lon="1.44691">
        <ele>132.280774</ele>
        <time>2023-07-30T16:00:23.000Z</time>
      </trkpt>
      <trkpt lat="43.67446" lon="1.44696">
        <ele>132.283544</ele>
        <time>2023-07-30T16:00:23.000Z</time>
      </trkpt>
      <trkpt lat="43.67446" lon="1.44706">
        <ele>132.28917</ele>
        <time>2023-07-30T16:00:25.000Z</time>
      </trkpt>
      <trkpt lat="43.67447" lon="1.4471">
        <ele>132.291709</ele>
        <time>2023-07-30T16:00:26.000Z</time>
      </trkpt>
      <trkpt lat="43.67447" lon="1.44716">
        <ele>132.295003</ele>
        <time>2023-07-30T16:00:28.000Z</time>
      </trkpt>
      <trkpt lat="43.67448" lon="1.44724">
        <ele>132.30008</ele>
        <time>2023-07-30T16:00:29.000Z</time>
      </trkpt>
      <trkpt lat="43.67448" lon="1.44724">
        <ele>132.30008</ele>
        <time>2023-07-30T16:00:29.000Z</time>
      </trkpt>
      <trkpt lat="43.67448" lon="1.44728">
        <ele>132.302609</ele>
        <time>2023-07-30T16:00:30.000Z</time>
      </trkpt>
      <trkpt lat="43.67448" lon="1.44737">
        <ele>132.307586</ele>
        <time>2023-07-30T16:00:32.000Z</time>
      </trkpt>
      <trkpt lat="43.67449" lon="1.4474">
        <ele>132.309403</ele>
        <time>2023-07-30T16:00:33.000Z</time>
      </trkpt>
      <trkpt lat="43.6745" lon="1.44743">
        <ele>132.311111</ele>
        <time>2023-07-30T16:00:34.000Z</time>
      </trkpt>
      <trkpt lat="43.67451" lon="1.4475">
        <ele>132.31578</ele>
        <time>2023-07-30T16:00:37.000Z</time>
      </trkpt>
      <trkpt lat="43.67452" lon="1.44754">
        <ele>132.318202</ele>
        <time>2023-07-30T16:00:37.000Z</time>
      </trkpt>
      <trkpt lat="43.67452" lon="1.44754">
        <ele>132.318202</ele>
        <time>2023-07-30T16:00:37.000Z</time>
      </trkpt>
      <trkpt lat="43.67452" lon="1.44765">
        <ele>132.324592</ele>
        <time>2023-07-30T16:00:40.000Z</time>
      </trkpt>
      <trkpt lat="43.67452" lon="1.4477">
        <ele>132.32753</ele>
        <time>2023-07-30T16:00:40.000Z</time>
      </trkpt>
      <trkpt lat="43.67453" lon="1.44777">
        <ele>132.331582</ele>
        <time>2023-07-30T16:00:42.000Z</time>
      </trkpt>
      <trkpt lat="43.67453" lon="1.44777">
        <ele>132.331582</ele>
        <time>2023-07-30T16:00:42.000Z</time>
      </trkpt>
      <trkpt lat="43.67453" lon="1.44784">
        <ele>132.335674</ele>
        <time>2023-07-30T16:00:43.000Z</time>
      </trkpt>
      <trkpt lat="43.67454" lon="1.44792">
        <ele>132.34045</ele>
        <time>2023-07-30T16:00:43.000Z</time>
      </trkpt>
      <trkpt lat="43.67455" lon="1.44799">
        <ele>132.344368</ele>
        <time>2023-07-30T16:00:45.000Z</time>
      </trkpt>
      <trkpt lat="43.67456" lon="1.4481">
        <ele>132.351094</ele>
        <time>2023-07-30T16:00:45.000Z</time>
      </trkpt>
      <trkpt lat="43.67457" lon="1.44818">
        <ele>132.355765</ele>
        <time>2023-07-30T16:00:46.000Z</time>
      </trkpt>
      <trkpt lat="43.67458" lon="1.44826">
        <ele>132.360377</ele>
        <time>2023-07-30T16:00:47.000Z</time>
      </trkpt>
      <trkpt lat="43.67459" lon="1.44834">
        <ele>132.365087</ele>
        <time>2023-07-30T16:00:48.000Z</time>
      </trkpt>
      <trkpt lat="43.6746" lon="1.44842">
        <ele>132.369932</ele>
        <time>2023-07-30T16:00:50.000Z</time>
      </trkpt>
      <trkpt lat="43.67461" lon="1.4485">
        <ele>132.374585</ele>
        <time>2023-07-30T16:00:51.000Z</time>
      </trkpt>
      <trkpt lat="43.67463" lon="1.44858">
        <ele>132.379423</ele>
        <time>2023-07-30T16:00:52.000Z</time>
      </trkpt>
      <trkpt lat="43.67463" lon="1.44858">
        <ele>132.379423</ele>
        <time>2023-07-30T16:00:52.000Z</time>
      </trkpt>
      <trkpt lat="43.67465" lon="1.44865">
        <ele>132.384269</ele>
        <time>2023-07-30T16:00:53.000Z</time>
      </trkpt>
      <trkpt lat="43.67466" lon="1.44872">
        <ele>132.388375</ele>
        <time>2023-07-30T16:00:54.000Z</time>
      </trkpt>
      <trkpt lat="43.67468" lon="1.44881">
        <ele>132.39392</ele>
        <time>2023-07-30T16:00:55.000Z</time>
      </trkpt>
      <trkpt lat="43.6747" lon="1.44889">
        <ele>132.397989</ele>
        <time>2023-07-30T16:00:56.000Z</time>
      </trkpt>
      <trkpt lat="43.67472" lon="1.44896">
        <ele>132.400504</ele>
        <time>2023-07-30T16:00:57.000Z</time>
      </trkpt>
      <trkpt lat="43.67472" lon="1.44896">
        <ele>132.400504</ele>
        <time>2023-07-30T16:00:57.000Z</time>
      </trkpt>
      <trkpt lat="43.67474" lon="1.44904">
        <ele>132.403201</ele>
        <time>2023-07-30T16:00:58.000Z</time>
      </trkpt>
      <trkpt lat="43.67476" lon="1.44912">
        <ele>132.405777</ele>
        <time>2023-07-30T16:00:59.000Z</time>
      </trkpt>
      <trkpt lat="43.67477" lon="1.44919">
        <ele>132.408383</ele>
        <time>2023-07-30T16:01:00.000Z</time>
      </trkpt>
      <trkpt lat="43.67479" lon="1.44927">
        <ele>132.410989</ele>
        <time>2023-07-30T16:01:01.000Z</time>
      </trkpt>
      <trkpt lat="43.67482" lon="1.44935">
        <ele>132.413717</ele>
        <time>2023-07-30T16:01:02.000Z</time>
      </trkpt>
      <trkpt lat="43.67484" lon="1.44943">
        <ele>132.416415</ele>
        <time>2023-07-30T16:01:03.000Z</time>
      </trkpt>
      <trkpt lat="43.67486" lon="1.4495">
        <ele>132.419054</ele>
        <time>2023-07-30T16:01:04.000Z</time>
      </trkpt>
      <trkpt lat="43.67489" lon="1.44958">
        <ele>132.421811</ele>
        <time>2023-07-30T16:01:05.000Z</time>
      </trkpt>
      <trkpt lat="43.67491" lon="1.44966">
        <ele>132.424446</ele>
        <time>2023-07-30T16:01:06.000Z</time>
      </trkpt>
      <trkpt lat="43.67494" lon="1.44973">
        <ele>132.427159</ele>
        <time>2023-07-30T16:01:06.000Z</time>
      </trkpt>
      <trkpt lat="43.67497" lon="1.44981">
        <ele>132.429929</ele>
        <time>2023-07-30T16:01:08.000Z</time>
      </trkpt>
      <trkpt lat="43.67499" lon="1.44988">
        <ele>132.432555</ele>
        <time>2023-07-30T16:01:09.000Z</time>
      </trkpt>
      <trkpt lat="43.67502" lon="1.44996">
        <ele>132.435328</ele>
        <time>2023-07-30T16:01:09.000Z</time>
      </trkpt>
      <trkpt lat="43.67502" lon="1.44996">
        <ele>132.435328</ele>
        <time>2023-07-30T16:01:09.000Z</time>
      </trkpt>
      <trkpt lat="43.67504" lon="1.45003">
        <ele>132.437783</ele>
        <time>2023-07-30T16:01:11.000Z</time>
      </trkpt>
      <trkpt lat="43.67504" lon="1.4501">
        <ele>132.439961</ele>
        <time>2023-07-30T16:01:12.000Z</time>
      </trkpt>
      <trkpt lat="43.67501" lon="1.45015">
        <ele>132.442231</ele>
        <time>2023-07-30T16:01:13.000Z</time>
      </trkpt>
      <trkpt lat="43.67501" lon="1.45015">
        <ele>132.442231</ele>
        <time>2023-07-30T16:01:13.000Z</time>
      </trkpt>
      <trkpt lat="43.67497" lon="1.45019">
        <ele>132.444526</ele>
        <time>2023-07-30T16:01:14.000Z</time>
      </trkpt>
      <trkpt lat="43.67492" lon="1.45023">
        <ele>132.447023</ele>
        <time>2023-07-30T16:01:15.000Z</time>
      </trkpt>
      <trkpt lat="43.67492" lon="1.45023">
        <ele>132.447023</ele>
        <time>2023-07-30T16:01:15.000Z</time>
      </trkpt>
      <trkpt lat="43.67486" lon="1.45027">
        <ele>132.449825</ele>
        <time>2023-07-30T16:01:16.000Z</time>
      </trkpt>
      <trkpt lat="43.6748" lon="1.45031">
        <ele>132.452671</ele>
        <time>2023-07-30T16:01:17.000Z</time>
      </trkpt>
      <trkpt lat="43.67475" lon="1.45035">
        <ele>132.455447</ele>
        <time>2023-07-30T16:01:18.000Z</time>
      </trkpt>
      <trkpt lat="43.67475" lon="1.45035">
        <ele>132.455447</ele>
        <time>2023-07-30T16:01:18.000Z</time>
      </trkpt>
      <trkpt lat="43.67469" lon="1.4504">
        <ele>132.458338</ele>
        <time>2023-07-30T16:01:19.000Z</time>
      </trkpt>
      <trkpt lat="43.67469" lon="1.4504">
        <ele>132.458338</ele>
        <time>2023-07-30T16:01:19.000Z</time>
      </trkpt>
      <trkpt lat="43.67464" lon="1.45045">
        <ele>132.461235</ele>
        <time>2023-07-30T16:01:20.000Z</time>
      </trkpt>
      <trkpt lat="43.6746" lon="1.45051">
        <ele>132.463979</ele>
        <time>2023-07-30T16:01:21.000Z</time>
      </trkpt>
      <trkpt lat="43.6746" lon="1.45051">
        <ele>132.463979</ele>
        <time>2023-07-30T16:01:21.000Z</time>
      </trkpt>
      <trkpt lat="43.67456" lon="1.45059">
        <ele>132.466886</ele>
        <time>2023-07-30T16:01:22.000Z</time>
      </trkpt>
      <trkpt lat="43.67454" lon="1.45068">
        <ele>132.469813</ele>
        <time>2023-07-30T16:01:23.000Z</time>
      </trkpt>
      <trkpt lat="43.67452" lon="1.45077">
        <ele>132.472878</ele>
        <time>2023-07-30T16:01:24.000Z</time>
      </trkpt>
      <trkpt lat="43.67452" lon="1.45077">
        <ele>132.472878</ele>
        <time>2023-07-30T16:01:24.000Z</time>
      </trkpt>
      <trkpt lat="43.6745" lon="1.45085">
        <ele>132.475741</ele>
        <time>2023-07-30T16:01:25.000Z</time>
      </trkpt>
      <trkpt lat="43.67448" lon="1.45094">
        <ele>132.49502</ele>
        <time>2023-07-30T16:01:26.000Z</time>
      </trkpt>
      <trkpt lat="43.67446" lon="1.45103">
        <ele>132.530205</ele>
        <time>2023-07-30T16:01:27.000Z</time>
      </trkpt>
      <trkpt lat="43.67446" lon="1.45113">
        <ele>132.563337</ele>
        <time>2023-07-30T16:01:28.000Z</time>
      </trkpt>
      <trkpt lat="43.67448" lon="1.45121">
        <ele>132.595359</ele>
        <time>2023-07-30T16:01:29.000Z</time>
      </trkpt>
      <trkpt lat="43.67452" lon="1.45128">
        <ele>132.625554</ele>
        <time>2023-07-30T16:01:30.000Z</time>
      </trkpt>
      <trkpt lat="43.67455" lon="1.45136">
        <ele>132.658363</ele>
        <time>2023-07-30T16:01:31.000Z</time>
      </trkpt>
      <trkpt lat="43.67458" lon="1.45144">
        <ele>132.692716</ele>
        <time>2023-07-30T16:01:32.000Z</time>
      </trkpt>
      <trkpt lat="43.67461" lon="1.45152">
        <ele>132.726499</ele>
        <time>2023-07-30T16:01:33.000Z</time>
      </trkpt>
      <trkpt lat="43.67465" lon="1.4516">
        <ele>132.760597</ele>
        <time>2023-07-30T16:01:33.000Z</time>
      </trkpt>
      <trkpt lat="43.67468" lon="1.45168">
        <ele>132.792409</ele>
        <time>2023-07-30T16:01:35.000Z</time>
      </trkpt>
      <trkpt lat="43.67471" lon="1.45177">
        <ele>132.828047</ele>
        <time>2023-07-30T16:01:36.000Z</time>
      </trkpt>
      <trkpt lat="43.67471" lon="1.45177">
        <ele>132.828047</ele>
        <time>2023-07-30T16:01:36.000Z</time>
      </trkpt>
      <trkpt lat="43.67473" lon="1.45185">
        <ele>132.859548</ele>
        <time>2023-07-30T16:01:36.000Z</time>
      </trkpt>
      <trkpt lat="43.67476" lon="1.45192">
        <ele>132.890376</ele>
        <time>2023-07-30T16:01:38.000Z</time>
      </trkpt>
      <trkpt lat="43.67476" lon="1.45192">
        <ele>132.890376</ele>
        <time>2023-07-30T16:01:38.000Z</time>
      </trkpt>
      <trkpt lat="43.67479" lon="1.45201">
        <ele>132.925361</ele>
        <time>2023-07-30T16:01:39.000Z</time>
      </trkpt>
      <trkpt lat="43.67482" lon="1.4521">
        <ele>132.959796</ele>
        <time>2023-07-30T16:01:40.000Z</time>
      </trkpt>
      <trkpt lat="43.67485" lon="1.45217">
        <ele>132.991408</ele>
        <time>2023-07-30T16:01:40.000Z</time>
      </trkpt>
      <trkpt lat="43.67487" lon="1.45225">
        <ele>133.022752</ele>
        <time>2023-07-30T16:01:41.000Z</time>
      </trkpt>
      <trkpt lat="43.67487" lon="1.45232">
        <ele>133.050058</ele>
        <time>2023-07-30T16:01:42.000Z</time>
      </trkpt>
      <trkpt lat="43.67484" lon="1.45238">
        <ele>133.078097</ele>
        <time>2023-07-30T16:01:43.000Z</time>
      </trkpt>
      <trkpt lat="43.6748" lon="1.45243">
        <ele>133.105527</ele>
        <time>2023-07-30T16:01:45.000Z</time>
      </trkpt>
      <trkpt lat="43.6748" lon="1.45243">
        <ele>133.105527</ele>
        <time>2023-07-30T16:01:45.000Z</time>
      </trkpt>
      <trkpt lat="43.67474" lon="1.45247">
        <ele>133.136098</ele>
        <time>2023-07-30T16:01:45.000Z</time>
      </trkpt>
      <trkpt lat="43.67474" lon="1.45247">
        <ele>133.136098</ele>
        <time>2023-07-30T16:01:45.000Z</time>
      </trkpt>
      <trkpt lat="43.67468" lon="1.45252">
        <ele>133.172691</ele>
        <time>2023-07-30T16:01:46.000Z</time>
      </trkpt>
      <trkpt lat="43.67462" lon="1.45256">
        <ele>133.206371</ele>
        <time>2023-07-30T16:01:47.000Z</time>
      </trkpt>
      <trkpt lat="43.67455" lon="1.45259">
        <ele>133.240983</ele>
        <time>2023-07-30T16:01:49.000Z</time>
      </trkpt>
      <trkpt lat="43.67449" lon="1.45261">
        <ele>133.275045</ele>
        <time>2023-07-30T16:01:50.000Z</time>
      </trkpt>
      <trkpt lat="43.67443" lon="1.45264">
        <ele>133.307516</ele>
        <time>2023-07-30T16:01:51.000Z</time>
      </trkpt>
      <trkpt lat="43.67443" lon="1.45264">
        <ele>133.307516</ele>
        <time>2023-07-30T16:01:51.000Z</time>
      </trkpt>
      <trkpt lat="43.67436" lon="1.45268">
        <ele>133.34464</ele>
        <time>2023-07-30T16:01:52.000Z</time>
      </trkpt>
      <trkpt lat="43.6743" lon="1.45271">
        <ele>133.377355</ele>
        <time>2023-07-30T16:01:53.000Z</time>
      </trkpt>
      <trkpt lat="43.67424" lon="1.45275">
        <ele>133.407637</ele>
        <time>2023-07-30T16:01:54.000Z</time>
      </trkpt>
      <trkpt lat="43.67418" lon="1.45279">
        <ele>133.437715</ele>
        <time>2023-07-30T16:01:55.000Z</time>
      </trkpt>
      <trkpt lat="43.67418" lon="1.45279">
        <ele>133.437715</ele>
        <time>2023-07-30T16:01:55.000Z</time>
      </trkpt>
      <trkpt lat="43.67411" lon="1.45283">
        <ele>133.467655</ele>
        <time>2023-07-30T16:01:56.000Z</time>
      </trkpt>
      <trkpt lat="43.67405" lon="1.45287">
        <ele>133.497459</ele>
        <time>2023-07-30T16:01:57.000Z</time>
      </trkpt>
      <trkpt lat="43.674" lon="1.4529">
        <ele>133.525384</ele>
        <time>2023-07-30T16:01:58.000Z</time>
      </trkpt>
      <trkpt lat="43.674" lon="1.4529">
        <ele>133.525384</ele>
        <time>2023-07-30T16:01:58.000Z</time>
      </trkpt>
      <trkpt lat="43.67394" lon="1.45294">
        <ele>133.555055</ele>
        <time>2023-07-30T16:01:59.000Z</time>
      </trkpt>
      <trkpt lat="43.67387" lon="1.45298">
        <ele>133.586351</ele>
        <time>2023-07-30T16:01:59.000Z</time>
      </trkpt>
      <trkpt lat="43.67381" lon="1.45301">
        <ele>133.615518</ele>
        <time>2023-07-30T16:02:01.000Z</time>
      </trkpt>
      <trkpt lat="43.67375" lon="1.45304">
        <ele>133.641942</ele>
        <time>2023-07-30T16:02:02.000Z</time>
      </trkpt>
      <trkpt lat="43.67369" lon="1.45305">
        <ele>133.671023</ele>
        <time>2023-07-30T16:02:03.000Z</time>
      </trkpt>
      <trkpt lat="43.67362" lon="1.45305">
        <ele>133.701629</ele>
        <time>2023-07-30T16:02:04.000Z</time>
      </trkpt>
      <trkpt lat="43.67355" lon="1.45304">
        <ele>133.730632</ele>
        <time>2023-07-30T16:02:04.000Z</time>
      </trkpt>
      <trkpt lat="43.67349" lon="1.45302">
        <ele>133.758054</ele>
        <time>2023-07-30T16:02:06.000Z</time>
      </trkpt>
      <trkpt lat="43.67344" lon="1.45301">
        <ele>133.782112</ele>
        <time>2023-07-30T16:02:07.000Z</time>
      </trkpt>
      <trkpt lat="43.67337" lon="1.45299">
        <ele>133.813312</ele>
        <time>2023-07-30T16:02:08.000Z</time>
      </trkpt>
      <trkpt lat="43.67337" lon="1.45299">
        <ele>133.813312</ele>
        <time>2023-07-30T16:02:08.000Z</time>
      </trkpt>
      <trkpt lat="43.67331" lon="1.45298">
        <ele>133.840683</ele>
        <time>2023-07-30T16:02:09.000Z</time>
      </trkpt>
      <trkpt lat="43.67331" lon="1.45298">
        <ele>133.840683</ele>
        <time>2023-07-30T16:02:09.000Z</time>
      </trkpt>
      <trkpt lat="43.67325" lon="1.45297">
        <ele>133.867827</ele>
        <time>2023-07-30T16:02:10.000Z</time>
      </trkpt>
      <trkpt lat="43.67319" lon="1.45298">
        <ele>133.895033</ele>
        <time>2023-07-30T16:02:11.000Z</time>
      </trkpt>
      <trkpt lat="43.67319" lon="1.45298">
        <ele>133.895033</ele>
        <time>2023-07-30T16:02:11.000Z</time>
      </trkpt>
      <trkpt lat="43.67313" lon="1.453">
        <ele>133.922693</ele>
        <time>2023-07-30T16:02:12.000Z</time>
      </trkpt>
      <trkpt lat="43.67307" lon="1.45302">
        <ele>133.951001</ele>
        <time>2023-07-30T16:02:13.000Z</time>
      </trkpt>
      <trkpt lat="43.67301" lon="1.45305">
        <ele>133.977721</ele>
        <time>2023-07-30T16:02:14.000Z</time>
      </trkpt>
      <trkpt lat="43.67296" lon="1.45308">
        <ele>133.99976</ele>
        <time>2023-07-30T16:02:15.000Z</time>
      </trkpt>
      <trkpt lat="43.67291" lon="1.4531">
        <ele>134.024808</ele>
        <time>2023-07-30T16:02:16.000Z</time>
      </trkpt>
      <trkpt lat="43.67291" lon="1.4531">
        <ele>134.024808</ele>
        <time>2023-07-30T16:02:16.000Z</time>
      </trkpt>
      <trkpt lat="43.67286" lon="1.45313">
        <ele>134.048854</ele>
        <time>2023-07-30T16:02:17.000Z</time>
      </trkpt>
      <trkpt lat="43.67281" lon="1.45316">
        <ele>134.070658</ele>
        <time>2023-07-30T16:02:18.000Z</time>
      </trkpt>
      <trkpt lat="43.67281" lon="1.45316">
        <ele>134.070658</ele>
        <time>2023-07-30T16:02:18.000Z</time>
      </trkpt>
      <trkpt lat="43.67276" lon="1.45317">
        <ele>134.094649</ele>
        <time>2023-07-30T16:02:19.000Z</time>
      </trkpt>
      <trkpt lat="43.67272" lon="1.45318">
        <ele>134.113409</ele>
        <time>2023-07-30T16:02:20.000Z</time>
      </trkpt>
      <trkpt lat="43.67267" lon="1.4532">
        <ele>134.13461</ele>
        <time>2023-07-30T16:02:21.000Z</time>
      </trkpt>
      <trkpt lat="43.67263" lon="1.45323">
        <ele>134.156033</ele>
        <time>2023-07-30T16:02:22.000Z</time>
      </trkpt>
      <trkpt lat="43.67263" lon="1.45323">
        <ele>134.156033</ele>
        <time>2023-07-30T16:02:22.000Z</time>
      </trkpt>
      <trkpt lat="43.6726" lon="1.45327">
        <ele>134.176253</ele>
        <time>2023-07-30T16:02:23.000Z</time>
      </trkpt>
      <trkpt lat="43.67257" lon="1.45332">
        <ele>134.138716</ele>
        <time>2023-07-30T16:02:24.000Z</time>
      </trkpt>
      <trkpt lat="43.67257" lon="1.45332">
        <ele>134.138716</ele>
        <time>2023-07-30T16:02:24.000Z</time>
      </trkpt>
      <trkpt lat="43.67253" lon="1.45337">
        <ele>134.090315</ele>
        <time>2023-07-30T16:02:24.000Z</time>
      </trkpt>
      <trkpt lat="43.6725" lon="1.45341">
        <ele>134.044416</ele>
        <time>2023-07-30T16:02:26.000Z</time>
      </trkpt>
      <trkpt lat="43.67246" lon="1.45346">
        <ele>133.992235</ele>
        <time>2023-07-30T16:02:27.000Z</time>
      </trkpt>
      <trkpt lat="43.67241" lon="1.4535">
        <ele>133.934219</ele>
        <time>2023-07-30T16:02:28.000Z</time>
      </trkpt>
      <trkpt lat="43.67241" lon="1.4535">
        <ele>133.934219</ele>
        <time>2023-07-30T16:02:28.000Z</time>
      </trkpt>
      <trkpt lat="43.67236" lon="1.45355">
        <ele>133.872098</ele>
        <time>2023-07-30T16:02:29.000Z</time>
      </trkpt>
      <trkpt lat="43.67231" lon="1.45359">
        <ele>133.817845</ele>
        <time>2023-07-30T16:02:30.000Z</time>
      </trkpt>
      <trkpt lat="43.67231" lon="1.45359">
        <ele>133.817845</ele>
        <time>2023-07-30T16:02:30.000Z</time>
      </trkpt>
      <trkpt lat="43.67226" lon="1.45364">
        <ele>133.755725</ele>
        <time>2023-07-30T16:02:31.000Z</time>
      </trkpt>
      <trkpt lat="43.67222" lon="1.45369">
        <ele>133.699415</ele>
        <time>2023-07-30T16:02:32.000Z</time>
      </trkpt>
      <trkpt lat="43.67218" lon="1.45372">
        <ele>133.650047</ele>
        <time>2023-07-30T16:02:33.000Z</time>
      </trkpt>
      <trkpt lat="43.67218" lon="1.45372">
        <ele>133.650047</ele>
        <time>2023-07-30T16:02:33.000Z</time>
      </trkpt>
      <trkpt lat="43.67214" lon="1.45375">
        <ele>133.610576</ele>
        <time>2023-07-30T16:02:34.000Z</time>
      </trkpt>
      <trkpt lat="43.67212" lon="1.45376">
        <ele>133.590781</ele>
        <time>2023-07-30T16:02:35.000Z</time>
      </trkpt>
      <trkpt lat="43.6721" lon="1.45376">
        <ele>133.563513</ele>
        <time>2023-07-30T16:02:36.000Z</time>
      </trkpt>
      <trkpt lat="43.67208" lon="1.45377">
        <ele>133.543719</ele>
        <time>2023-07-30T16:02:37.000Z</time>
      </trkpt>
      <trkpt lat="43.67206" lon="1.45378">
        <ele>133.523501</ele>
        <time>2023-07-30T16:02:38.000Z</time>
      </trkpt>
      <trkpt lat="43.67206" lon="1.45378">
        <ele>133.523501</ele>
        <time>2023-07-30T16:02:38.000Z</time>
      </trkpt>
      <trkpt lat="43.67204" lon="1.45379">
        <ele>133.506408</ele>
        <time>2023-07-30T16:02:39.000Z</time>
      </trkpt>
      <trkpt lat="43.67204" lon="1.45379">
        <ele>133.497245</ele>
        <time>2023-07-30T16:02:40.000Z</time>
      </trkpt>
      <trkpt lat="43.67201" lon="1.4538">
        <ele>133.473683</ele>
        <time>2023-07-30T16:02:43.000Z</time>
      </trkpt>
      <trkpt lat="43.67201" lon="1.4538">
        <ele>133.473683</ele>
        <time>2023-07-30T16:02:43.000Z</time>
      </trkpt>
      <trkpt lat="43.67201" lon="1.4538">
        <ele>133.465752</ele>
        <time>2023-07-30T16:02:43.000Z</time>
      </trkpt>
      <trkpt lat="43.67201" lon="1.4538">
        <ele>133.465752</ele>
        <time>2023-07-30T16:02:43.000Z</time>
      </trkpt>
      <trkpt lat="43.67199" lon="1.45381">
        <ele>133.449238</ele>
        <time>2023-07-30T16:02:44.000Z</time>
      </trkpt>
      <trkpt lat="43.67194" lon="1.4538">
        <ele>133.399011</ele>
        <time>2023-07-30T16:02:47.000Z</time>
      </trkpt>
      <trkpt lat="43.67194" lon="1.4538">
        <ele>133.399011</ele>
        <time>2023-07-30T16:02:47.000Z</time>
      </trkpt>
      <trkpt lat="43.67191" lon="1.45377">
        <ele>133.365466</ele>
        <time>2023-07-30T16:02:48.000Z</time>
      </trkpt>
      <trkpt lat="43.67189" lon="1.45374">
        <ele>133.332097</ele>
        <time>2023-07-30T16:02:49.000Z</time>
      </trkpt>
      <trkpt lat="43.67189" lon="1.45374">
        <ele>133.332097</ele>
        <time>2023-07-30T16:02:49.000Z</time>
      </trkpt>
      <trkpt lat="43.67186" lon="1.45369">
        <ele>133.285906</ele>
        <time>2023-07-30T16:02:50.000Z</time>
      </trkpt>
      <trkpt lat="43.67186" lon="1.45369">
        <ele>133.285906</ele>
        <time>2023-07-30T16:02:50.000Z</time>
      </trkpt>
      <trkpt lat="43.67181" lon="1.45359">
        <ele>133.196779</ele>
        <time>2023-07-30T16:02:51.000Z</time>
      </trkpt>
      <trkpt lat="43.67181" lon="1.45359">
        <ele>133.196779</ele>
        <time>2023-07-30T16:02:51.000Z</time>
      </trkpt>
      <trkpt lat="43.67178" lon="1.45354">
        <ele>133.15075</ele>
        <time>2023-07-30T16:02:51.000Z</time>
      </trkpt>
      <trkpt lat="43.67175" lon="1.45349">
        <ele>133.101119</ele>
        <time>2023-07-30T16:02:53.000Z</time>
      </trkpt>
      <trkpt lat="43.67175" lon="1.45349">
        <ele>133.101119</ele>
        <time>2023-07-30T16:02:53.000Z</time>
      </trkpt>
      <trkpt lat="43.67172" lon="1.45341">
        <ele>133.040617</ele>
        <time>2023-07-30T16:02:54.000Z</time>
      </trkpt>
      <trkpt lat="43.67169" lon="1.45335">
        <ele>132.983494</ele>
        <time>2023-07-30T16:02:55.000Z</time>
      </trkpt>
      <trkpt lat="43.67169" lon="1.45335">
        <ele>132.983494</ele>
        <time>2023-07-30T16:02:55.000Z</time>
      </trkpt>
      <trkpt lat="43.67167" lon="1.45329">
        <ele>132.936603</ele>
        <time>2023-07-30T16:02:56.000Z</time>
      </trkpt>
      <trkpt lat="43.67165" lon="1.45323">
        <ele>132.889712</ele>
        <time>2023-07-30T16:02:57.000Z</time>
      </trkpt>
      <trkpt lat="43.67164" lon="1.45321">
        <ele>132.869023</ele>
        <time>2023-07-30T16:02:58.000Z</time>
      </trkpt>
      <trkpt lat="43.67161" lon="1.45315">
        <ele>132.818287</ele>
        <time>2023-07-30T16:03:00.000Z</time>
      </trkpt>
      <trkpt lat="43.67161" lon="1.45315">
        <ele>132.818287</ele>
        <time>2023-07-30T16:03:00.000Z</time>
      </trkpt>
      <trkpt lat="43.67159" lon="1.45309">
        <ele>132.772657</ele>
        <time>2023-07-30T16:03:01.000Z</time>
      </trkpt>
      <trkpt lat="43.67159" lon="1.45309">
        <ele>132.772657</ele>
        <time>2023-07-30T16:03:01.000Z</time>
      </trkpt>
      <trkpt lat="43.67156" lon="1.45304">
        <ele>132.723045</ele>
        <time>2023-07-30T16:03:01.000Z</time>
      </trkpt>
      <trkpt lat="43.67153" lon="1.45297">
        <ele>132.664636</ele>
        <time>2023-07-30T16:03:02.000Z</time>
      </trkpt>
      <trkpt lat="43.67153" lon="1.45297">
        <ele>132.664636</ele>
        <time>2023-07-30T16:03:02.000Z</time>
      </trkpt>
      <trkpt lat="43.6715" lon="1.45291">
        <ele>132.609755</ele>
        <time>2023-07-30T16:03:03.000Z</time>
      </trkpt>
      <trkpt lat="43.67146" lon="1.45283">
        <ele>132.536593</ele>
        <time>2023-07-30T16:03:05.000Z</time>
      </trkpt>
      <trkpt lat="43.67146" lon="1.45283">
        <ele>132.536593</ele>
        <time>2023-07-30T16:03:05.000Z</time>
      </trkpt>
      <trkpt lat="43.67137" lon="1.45266">
        <ele>132.387915</ele>
        <time>2023-07-30T16:03:07.000Z</time>
      </trkpt>
      <trkpt lat="43.67137" lon="1.45266">
        <ele>132.387915</ele>
        <time>2023-07-30T16:03:07.000Z</time>
      </trkpt>
      <trkpt lat="43.67135" lon="1.45261">
        <ele>132.359741</ele>
        <time>2023-07-30T16:03:08.000Z</time>
      </trkpt>
      <trkpt lat="43.67132" lon="1.45256">
        <ele>132.33919</ele>
        <time>2023-07-30T16:03:09.000Z</time>
      </trkpt>
      <trkpt lat="43.67129" lon="1.45249">
        <ele>132.314907</ele>
        <time>2023-07-30T16:03:09.000Z</time>
      </trkpt>
      <trkpt lat="43.67129" lon="1.45249">
        <ele>132.314907</ele>
        <time>2023-07-30T16:03:09.000Z</time>
      </trkpt>
      <trkpt lat="43.67125" lon="1.45243">
        <ele>132.291423</ele>
        <time>2023-07-30T16:03:11.000Z</time>
      </trkpt>
      <trkpt lat="43.67122" lon="1.45236">
        <ele>132.266737</ele>
        <time>2023-07-30T16:03:11.000Z</time>
      </trkpt>
      <trkpt lat="43.67119" lon="1.4523">
        <ele>132.244985</ele>
        <time>2023-07-30T16:03:13.000Z</time>
      </trkpt>
      <trkpt lat="43.67116" lon="1.45224">
        <ele>132.223478</ele>
        <time>2023-07-30T16:03:14.000Z</time>
      </trkpt>
      <trkpt lat="43.67114" lon="1.4522">
        <ele>132.206362</ele>
        <time>2023-07-30T16:03:15.000Z</time>
      </trkpt>
      <trkpt lat="43.67112" lon="1.45217">
        <ele>132.195214</ele>
        <time>2023-07-30T16:03:16.000Z</time>
      </trkpt>
      <trkpt lat="43.6711" lon="1.45214">
        <ele>132.181773</ele>
        <time>2023-07-30T16:03:17.000Z</time>
      </trkpt>
      <trkpt lat="43.67107" lon="1.45209">
        <ele>132.162587</ele>
        <time>2023-07-30T16:03:18.000Z</time>
      </trkpt>
      <trkpt lat="43.67107" lon="1.45209">
        <ele>132.162587</ele>
        <time>2023-07-30T16:03:18.000Z</time>
      </trkpt>
      <trkpt lat="43.67102" lon="1.45202">
        <ele>132.13501</ele>
        <time>2023-07-30T16:03:19.000Z</time>
      </trkpt>
      <trkpt lat="43.67102" lon="1.45202">
        <ele>132.13501</ele>
        <time>2023-07-30T16:03:19.000Z</time>
      </trkpt>
      <trkpt lat="43.67098" lon="1.45196">
        <ele>132.109769</ele>
        <time>2023-07-30T16:03:20.000Z</time>
      </trkpt>
      <trkpt lat="43.67094" lon="1.45189">
        <ele>132.08385</ele>
        <time>2023-07-30T16:03:21.000Z</time>
      </trkpt>
      <trkpt lat="43.67091" lon="1.45183">
        <ele>132.060142</ele>
        <time>2023-07-30T16:03:22.000Z</time>
      </trkpt>
      <trkpt lat="43.67087" lon="1.45176">
        <ele>132.033743</ele>
        <time>2023-07-30T16:03:23.000Z</time>
      </trkpt>
      <trkpt lat="43.67084" lon="1.4517">
        <ele>132.011257</ele>
        <time>2023-07-30T16:03:24.000Z</time>
      </trkpt>
      <trkpt lat="43.6708" lon="1.45163">
        <ele>131.985577</ele>
        <time>2023-07-30T16:03:25.000Z</time>
      </trkpt>
      <trkpt lat="43.67077" lon="1.45156">
        <ele>131.961625</ele>
        <time>2023-07-30T16:03:26.000Z</time>
      </trkpt>
      <trkpt lat="43.67077" lon="1.45156">
        <ele>131.961625</ele>
        <time>2023-07-30T16:03:26.000Z</time>
      </trkpt>
      <trkpt lat="43.67073" lon="1.45149">
        <ele>131.934193</ele>
        <time>2023-07-30T16:03:27.000Z</time>
      </trkpt>
      <trkpt lat="43.67069" lon="1.45143">
        <ele>131.910139</ele>
        <time>2023-07-30T16:03:28.000Z</time>
      </trkpt>
      <trkpt lat="43.67069" lon="1.45143">
        <ele>131.910139</ele>
        <time>2023-07-30T16:03:28.000Z</time>
      </trkpt>
      <trkpt lat="43.67064" lon="1.4514">
        <ele>131.885871</ele>
        <time>2023-07-30T16:03:29.000Z</time>
      </trkpt>
      <trkpt lat="43.67059" lon="1.45141">
        <ele>131.865436</ele>
        <time>2023-07-30T16:03:30.000Z</time>
      </trkpt>
      <trkpt lat="43.67053" lon="1.45143">
        <ele>131.840274</ele>
        <time>2023-07-30T16:03:31.000Z</time>
      </trkpt>
      <trkpt lat="43.67047" lon="1.45147">
        <ele>131.814016</ele>
        <time>2023-07-30T16:03:32.000Z</time>
      </trkpt>
      <trkpt lat="43.67041" lon="1.45151">
        <ele>131.785184</ele>
        <time>2023-07-30T16:03:33.000Z</time>
      </trkpt>
      <trkpt lat="43.67036" lon="1.45155">
        <ele>131.760005</ele>
        <time>2023-07-30T16:03:34.000Z</time>
      </trkpt>
      <trkpt lat="43.6703" lon="1.45158">
        <ele>131.733851</ele>
        <time>2023-07-30T16:03:35.000Z</time>
      </trkpt>
      <trkpt lat="43.6703" lon="1.45158">
        <ele>131.733851</ele>
        <time>2023-07-30T16:03:35.000Z</time>
      </trkpt>
      <trkpt lat="43.67024" lon="1.4516">
        <ele>131.706918</ele>
        <time>2023-07-30T16:03:35.000Z</time>
      </trkpt>
      <trkpt lat="43.67018" lon="1.45159">
        <ele>131.68273</ele>
        <time>2023-07-30T16:03:37.000Z</time>
      </trkpt>
      <trkpt lat="43.67014" lon="1.45155">
        <ele>131.661669</ele>
        <time>2023-07-30T16:03:38.000Z</time>
      </trkpt>
      <trkpt lat="43.67011" lon="1.45149">
        <ele>131.638918</ele>
        <time>2023-07-30T16:03:39.000Z</time>
      </trkpt>
      <trkpt lat="43.67009" lon="1.45141">
        <ele>131.61622</ele>
        <time>2023-07-30T16:03:40.000Z</time>
      </trkpt>
      <trkpt lat="43.67005" lon="1.45133">
        <ele>131.600287</ele>
        <time>2023-07-30T16:03:41.000Z</time>
      </trkpt>
      <trkpt lat="43.67005" lon="1.45133">
        <ele>131.600287</ele>
        <time>2023-07-30T16:03:41.000Z</time>
      </trkpt>
      <trkpt lat="43.67002" lon="1.45125">
        <ele>131.584853</ele>
        <time>2023-07-30T16:03:42.000Z</time>
      </trkpt>
      <trkpt lat="43.66999" lon="1.45117">
        <ele>131.569362</ele>
        <time>2023-07-30T16:03:43.000Z</time>
      </trkpt>
      <trkpt lat="43.66995" lon="1.4511">
        <ele>131.55475</ele>
        <time>2023-07-30T16:03:44.000Z</time>
      </trkpt>
      <trkpt lat="43.66991" lon="1.45103">
        <ele>131.539025</ele>
        <time>2023-07-30T16:03:45.000Z</time>
      </trkpt>
      <trkpt lat="43.66988" lon="1.45095">
        <ele>131.523092</ele>
        <time>2023-07-30T16:03:46.000Z</time>
      </trkpt>
      <trkpt lat="43.66984" lon="1.45087">
        <ele>131.507508</ele>
        <time>2023-07-30T16:03:47.000Z</time>
      </trkpt>
      <trkpt lat="43.66984" lon="1.45087">
        <ele>131.507508</ele>
        <time>2023-07-30T16:03:47.000Z</time>
      </trkpt>
      <trkpt lat="43.6698" lon="1.4508">
        <ele>131.490811</ele>
        <time>2023-07-30T16:03:47.000Z</time>
      </trkpt>
      <trkpt lat="43.66977" lon="1.45073">
        <ele>131.476339</ele>
        <time>2023-07-30T16:03:49.000Z</time>
      </trkpt>
      <trkpt lat="43.66973" lon="1.45066">
        <ele>131.461447</ele>
        <time>2023-07-30T16:03:50.000Z</time>
      </trkpt>
      <trkpt lat="43.66969" lon="1.45059">
        <ele>131.44628</ele>
        <time>2023-07-30T16:03:51.000Z</time>
      </trkpt>
      <trkpt lat="43.66965" lon="1.45051">
        <ele>131.430274</ele>
        <time>2023-07-30T16:03:52.000Z</time>
      </trkpt>
      <trkpt lat="43.66961" lon="1.45043">
        <ele>131.413839</ele>
        <time>2023-07-30T16:03:53.000Z</time>
      </trkpt>
      <trkpt lat="43.66961" lon="1.45043">
        <ele>131.413839</ele>
        <time>2023-07-30T16:03:53.000Z</time>
      </trkpt>
      <trkpt lat="43.66958" lon="1.45035">
        <ele>131.398706</ele>
        <time>2023-07-30T16:03:54.000Z</time>
      </trkpt>
      <trkpt lat="43.66955" lon="1.45027">
        <ele>131.38308</ele>
        <time>2023-07-30T16:03:55.000Z</time>
      </trkpt>
      <trkpt lat="43.66952" lon="1.45019">
        <ele>131.367495</ele>
        <time>2023-07-30T16:03:56.000Z</time>
      </trkpt>
      <trkpt lat="43.66952" lon="1.45019">
        <ele>131.367495</ele>
        <time>2023-07-30T16:03:56.000Z</time>
      </trkpt>
      <trkpt lat="43.66949" lon="1.45012">
        <ele>131.352778</ele>
        <time>2023-07-30T16:03:57.000Z</time>
      </trkpt>
      <trkpt lat="43.66946" lon="1.45004">
        <ele>131.337945</ele>
        <time>2023-07-30T16:03:58.000Z</time>
      </trkpt>
      <trkpt lat="43.66943" lon="1.44996">
        <ele>131.322012</ele>
        <time>2023-07-30T16:03:59.000Z</time>
      </trkpt>
      <trkpt lat="43.6694" lon="1.44987">
        <ele>131.305665</ele>
        <time>2023-07-30T16:04:00.000Z</time>
      </trkpt>
      <trkpt lat="43.66937" lon="1.44979">
        <ele>131.290605</ele>
        <time>2023-07-30T16:04:01.000Z</time>
      </trkpt>
      <trkpt lat="43.66937" lon="1.44979">
        <ele>131.290605</ele>
        <time>2023-07-30T16:04:01.000Z</time>
      </trkpt>
      <trkpt lat="43.66935" lon="1.44971">
        <ele>131.275601</ele>
        <time>2023-07-30T16:04:02.000Z</time>
      </trkpt>
      <trkpt lat="43.66931" lon="1.44963">
        <ele>131.259519</ele>
        <time>2023-07-30T16:04:03.000Z</time>
      </trkpt>
      <trkpt lat="43.66928" lon="1.44957">
        <ele>131.246435</ele>
        <time>2023-07-30T16:04:04.000Z</time>
      </trkpt>
      <trkpt lat="43.66924" lon="1.4495">
        <ele>131.231814</ele>
        <time>2023-07-30T16:04:05.000Z</time>
      </trkpt>
      <trkpt lat="43.66919" lon="1.44945">
        <ele>131.217265</ele>
        <time>2023-07-30T16:04:06.000Z</time>
      </trkpt>
      <trkpt lat="43.66914" lon="1.44941">
        <ele>131.20293</ele>
        <time>2023-07-30T16:04:07.000Z</time>
      </trkpt>
      <trkpt lat="43.66909" lon="1.4494">
        <ele>131.191758</ele>
        <time>2023-07-30T16:04:08.000Z</time>
      </trkpt>
      <trkpt lat="43.66902" lon="1.44938">
        <ele>131.187833</ele>
        <time>2023-07-30T16:04:09.000Z</time>
      </trkpt>
      <trkpt lat="43.66902" lon="1.44938">
        <ele>131.187833</ele>
        <time>2023-07-30T16:04:09.000Z</time>
      </trkpt>
      <trkpt lat="43.66896" lon="1.44937">
        <ele>131.184093</ele>
        <time>2023-07-30T16:04:10.000Z</time>
      </trkpt>
      <trkpt lat="43.6689" lon="1.44935">
        <ele>131.180346</ele>
        <time>2023-07-30T16:04:11.000Z</time>
      </trkpt>
      <trkpt lat="43.66884" lon="1.44934">
        <ele>131.176606</ele>
        <time>2023-07-30T16:04:12.000Z</time>
      </trkpt>
      <trkpt lat="43.66877" lon="1.44932">
        <ele>131.172359</ele>
        <time>2023-07-30T16:04:13.000Z</time>
      </trkpt>
      <trkpt lat="43.66877" lon="1.44932">
        <ele>131.172359</ele>
        <time>2023-07-30T16:04:13.000Z</time>
      </trkpt>
      <trkpt lat="43.6687" lon="1.4493">
        <ele>131.168113</ele>
        <time>2023-07-30T16:04:14.000Z</time>
      </trkpt>
      <trkpt lat="43.66864" lon="1.44929">
        <ele>131.16438</ele>
        <time>2023-07-30T16:04:15.000Z</time>
      </trkpt>
      <trkpt lat="43.66858" lon="1.44928">
        <ele>131.160633</ele>
        <time>2023-07-30T16:04:16.000Z</time>
      </trkpt>
      <trkpt lat="43.66852" lon="1.44926">
        <ele>131.156886</ele>
        <time>2023-07-30T16:04:17.000Z</time>
      </trkpt>
      <trkpt lat="43.66845" lon="1.44924">
        <ele>131.152876</ele>
        <time>2023-07-30T16:04:18.000Z</time>
      </trkpt>
      <trkpt lat="43.66839" lon="1.44922">
        <ele>131.148858</ele>
        <time>2023-07-30T16:04:19.000Z</time>
      </trkpt>
      <trkpt lat="43.66832" lon="1.4492">
        <ele>131.14489</ele>
        <time>2023-07-30T16:04:20.000Z</time>
      </trkpt>
      <trkpt lat="43.66826" lon="1.44918">
        <ele>131.141099</ele>
        <time>2023-07-30T16:04:21.000Z</time>
      </trkpt>
      <trkpt lat="43.6682" lon="1.44916">
        <ele>131.13703</ele>
        <time>2023-07-30T16:04:22.000Z</time>
      </trkpt>
      <trkpt lat="43.66814" lon="1.44914">
        <ele>131.13338</ele>
        <time>2023-07-30T16:04:23.000Z</time>
      </trkpt>
      <trkpt lat="43.66808" lon="1.44911">
        <ele>131.129736</ele>
        <time>2023-07-30T16:04:24.000Z</time>
      </trkpt>
      <trkpt lat="43.66802" lon="1.44908">
        <ele>131.125378</ele>
        <time>2023-07-30T16:04:25.000Z</time>
      </trkpt>
      <trkpt lat="43.66795" lon="1.44904">
        <ele>131.121344</ele>
        <time>2023-07-30T16:04:26.000Z</time>
      </trkpt>
      <trkpt lat="43.66789" lon="1.449">
        <ele>131.117297</ele>
        <time>2023-07-30T16:04:27.000Z</time>
      </trkpt>
      <trkpt lat="43.66784" lon="1.44896">
        <ele>131.113513</ele>
        <time>2023-07-30T16:04:28.000Z</time>
      </trkpt>
      <trkpt lat="43.66779" lon="1.44891">
        <ele>131.109632</ele>
        <time>2023-07-30T16:04:29.000Z</time>
      </trkpt>
      <trkpt lat="43.66779" lon="1.44891">
        <ele>131.109632</ele>
        <time>2023-07-30T16:04:29.000Z</time>
      </trkpt>
      <trkpt lat="43.66774" lon="1.44886">
        <ele>131.105874</ele>
        <time>2023-07-30T16:04:30.000Z</time>
      </trkpt>
      <trkpt lat="43.66769" lon="1.4488">
        <ele>131.10187</ele>
        <time>2023-07-30T16:04:31.000Z</time>
      </trkpt>
      <trkpt lat="43.66764" lon="1.44873">
        <ele>131.097806</ele>
        <time>2023-07-30T16:04:32.000Z</time>
      </trkpt>
      <trkpt lat="43.66761" lon="1.44865">
        <ele>131.093827</ele>
        <time>2023-07-30T16:04:33.000Z</time>
      </trkpt>
      <trkpt lat="43.66758" lon="1.44857">
        <ele>131.09003</ele>
        <time>2023-07-30T16:04:34.000Z</time>
      </trkpt>
      <trkpt lat="43.66757" lon="1.44849">
        <ele>131.086499</ele>
        <time>2023-07-30T16:04:35.000Z</time>
      </trkpt>
      <trkpt lat="43.66757" lon="1.44849">
        <ele>131.086499</ele>
        <time>2023-07-30T16:04:35.000Z</time>
      </trkpt>
      <trkpt lat="43.66756" lon="1.44843">
        <ele>131.083692</ele>
        <time>2023-07-30T16:04:35.000Z</time>
      </trkpt>
      <trkpt lat="43.66756" lon="1.44843">
        <ele>131.083692</ele>
        <time>2023-07-30T16:04:35.000Z</time>
      </trkpt>
      <trkpt lat="43.66755" lon="1.44838">
        <ele>131.084694</ele>
        <time>2023-07-30T16:04:37.000Z</time>
      </trkpt>
      <trkpt lat="43.66755" lon="1.44836">
        <ele>131.085184</ele>
        <time>2023-07-30T16:04:37.000Z</time>
      </trkpt>
      <trkpt lat="43.66754" lon="1.44833">
        <ele>131.085874</ele>
        <time>2023-07-30T16:04:38.000Z</time>
      </trkpt>
      <trkpt lat="43.66753" lon="1.44831">
        <ele>131.086589</ele>
        <time>2023-07-30T16:04:39.000Z</time>
      </trkpt>
      <trkpt lat="43.66753" lon="1.44831">
        <ele>131.086589</ele>
        <time>2023-07-30T16:04:39.000Z</time>
      </trkpt>
      <trkpt lat="43.66751" lon="1.44825">
        <ele>131.088023</ele>
        <time>2023-07-30T16:04:42.000Z</time>
      </trkpt>
      <trkpt lat="43.6675" lon="1.44824">
        <ele>131.088426</ele>
        <time>2023-07-30T16:04:43.000Z</time>
      </trkpt>
      <trkpt lat="43.66748" lon="1.44823">
        <ele>131.088965</ele>
        <time>2023-07-30T16:04:43.000Z</time>
      </trkpt>
      <trkpt lat="43.66747" lon="1.44822">
        <ele>131.089458</ele>
        <time>2023-07-30T16:04:44.000Z</time>
      </trkpt>
      <trkpt lat="43.66745" lon="1.44822">
        <ele>131.090062</ele>
        <time>2023-07-30T16:04:45.000Z</time>
      </trkpt>
      <trkpt lat="43.66743" lon="1.44821">
        <ele>131.090665</ele>
        <time>2023-07-30T16:04:46.000Z</time>
      </trkpt>
      <trkpt lat="43.66739" lon="1.44821">
        <ele>131.092103</ele>
        <time>2023-07-30T16:04:47.000Z</time>
      </trkpt>
      <trkpt lat="43.66733" lon="1.44822">
        <ele>131.093909</ele>
        <time>2023-07-30T16:04:48.000Z</time>
      </trkpt>
      <trkpt lat="43.66727" lon="1.44825">
        <ele>131.095716</ele>
        <time>2023-07-30T16:04:49.000Z</time>
      </trkpt>
      <trkpt lat="43.66722" lon="1.44828">
        <ele>131.097644</ele>
        <time>2023-07-30T16:04:50.000Z</time>
      </trkpt>
      <trkpt lat="43.66722" lon="1.44828">
        <ele>131.097644</ele>
        <time>2023-07-30T16:04:50.000Z</time>
      </trkpt>
      <trkpt lat="43.66715" lon="1.44834">
        <ele>131.100243</ele>
        <time>2023-07-30T16:04:51.000Z</time>
      </trkpt>
      <trkpt lat="43.66707" lon="1.44841">
        <ele>131.103209</ele>
        <time>2023-07-30T16:04:52.000Z</time>
      </trkpt>
      <trkpt lat="43.66699" lon="1.44847">
        <ele>131.105858</ele>
        <time>2023-07-30T16:04:53.000Z</time>
      </trkpt>
      <trkpt lat="43.66684" lon="1.44856">
        <ele>131.110973</ele>
        <time>2023-07-30T16:04:55.000Z</time>
      </trkpt>
      <trkpt lat="43.66684" lon="1.44856">
        <ele>131.110973</ele>
        <time>2023-07-30T16:04:55.000Z</time>
      </trkpt>
      <trkpt lat="43.66679" lon="1.44857">
        <ele>131.112426</ele>
        <time>2023-07-30T16:04:57.000Z</time>
      </trkpt>
      <trkpt lat="43.66674" lon="1.44858">
        <ele>131.114216</ele>
        <time>2023-07-30T16:04:57.000Z</time>
      </trkpt>
      <trkpt lat="43.66666" lon="1.44858">
        <ele>131.116621</ele>
        <time>2023-07-30T16:04:58.000Z</time>
      </trkpt>
      <trkpt lat="43.66659" lon="1.44859">
        <ele>131.118744</ele>
        <time>2023-07-30T16:04:59.000Z</time>
      </trkpt>
      <trkpt lat="43.66653" lon="1.44858">
        <ele>131.12065</ele>
        <time>2023-07-30T16:05:01.000Z</time>
      </trkpt>
      <trkpt lat="43.66647" lon="1.44857">
        <ele>131.122696</ele>
        <time>2023-07-30T16:05:01.000Z</time>
      </trkpt>
      <trkpt lat="43.6664" lon="1.44854">
        <ele>131.124807</ele>
        <time>2023-07-30T16:05:02.000Z</time>
      </trkpt>
      <trkpt lat="43.66634" lon="1.4485">
        <ele>131.126781</ele>
        <time>2023-07-30T16:05:03.000Z</time>
      </trkpt>
      <trkpt lat="43.66629" lon="1.44846">
        <ele>131.128889</ele>
        <time>2023-07-30T16:05:04.000Z</time>
      </trkpt>
      <trkpt lat="43.66629" lon="1.44846">
        <ele>131.128889</ele>
        <time>2023-07-30T16:05:04.000Z</time>
      </trkpt>
      <trkpt lat="43.66624" lon="1.4484">
        <ele>131.130902</ele>
        <time>2023-07-30T16:05:06.000Z</time>
      </trkpt>
      <trkpt lat="43.6662" lon="1.44833">
        <ele>131.13277</ele>
        <time>2023-07-30T16:05:06.000Z</time>
      </trkpt>
      <trkpt lat="43.66616" lon="1.44828">
        <ele>131.134457</ele>
        <time>2023-07-30T16:05:07.000Z</time>
      </trkpt>
      <trkpt lat="43.66613" lon="1.44823">
        <ele>131.136006</ele>
        <time>2023-07-30T16:05:08.000Z</time>
      </trkpt>
      <trkpt lat="43.66611" lon="1.4482">
        <ele>131.136872</ele>
        <time>2023-07-30T16:05:09.000Z</time>
      </trkpt>
      <trkpt lat="43.66611" lon="1.4482">
        <ele>131.136872</ele>
        <time>2023-07-30T16:05:09.000Z</time>
      </trkpt>
      <trkpt lat="43.66609" lon="1.44816">
        <ele>131.13799</ele>
        <time>2023-07-30T16:05:10.000Z</time>
      </trkpt>
      <trkpt lat="43.66607" lon="1.44812">
        <ele>131.139143</ele>
        <time>2023-07-30T16:05:11.000Z</time>
      </trkpt>
      <trkpt lat="43.66604" lon="1.44808">
        <ele>131.157938</ele>
        <time>2023-07-30T16:05:12.000Z</time>
      </trkpt>
      <trkpt lat="43.66602" lon="1.44805">
        <ele>131.186584</ele>
        <time>2023-07-30T16:05:13.000Z</time>
      </trkpt>
      <trkpt lat="43.66599" lon="1.44799">
        <ele>131.233874</ele>
        <time>2023-07-30T16:05:14.000Z</time>
      </trkpt>
      <trkpt lat="43.66594" lon="1.44793">
        <ele>131.289398</ele>
        <time>2023-07-30T16:05:15.000Z</time>
      </trkpt>
      <trkpt lat="43.6659" lon="1.44786">
        <ele>131.349306</ele>
        <time>2023-07-30T16:05:16.000Z</time>
      </trkpt>
      <trkpt lat="43.66585" lon="1.4478">
        <ele>131.407646</ele>
        <time>2023-07-30T16:05:17.000Z</time>
      </trkpt>
      <trkpt lat="43.66581" lon="1.44773">
        <ele>131.464131</ele>
        <time>2023-07-30T16:05:19.000Z</time>
      </trkpt>
      <trkpt lat="43.66576" lon="1.44767">
        <ele>131.52357</ele>
        <time>2023-07-30T16:05:20.000Z</time>
      </trkpt>
      <trkpt lat="43.66572" lon="1.44761">
        <ele>131.581624</ele>
        <time>2023-07-30T16:05:21.000Z</time>
      </trkpt>
      <trkpt lat="43.66568" lon="1.44755">
        <ele>131.635733</ele>
        <time>2023-07-30T16:05:22.000Z</time>
      </trkpt>
      <trkpt lat="43.66568" lon="1.44755">
        <ele>131.635733</ele>
        <time>2023-07-30T16:05:22.000Z</time>
      </trkpt>
      <trkpt lat="43.66563" lon="1.44749">
        <ele>131.689841</ele>
        <time>2023-07-30T16:05:22.000Z</time>
      </trkpt>
      <trkpt lat="43.66559" lon="1.44743">
        <ele>131.74395</ele>
        <time>2023-07-30T16:05:24.000Z</time>
      </trkpt>
      <trkpt lat="43.66559" lon="1.44743">
        <ele>131.74395</ele>
        <time>2023-07-30T16:05:24.000Z</time>
      </trkpt>
      <trkpt lat="43.66555" lon="1.44738">
        <ele>131.795337</ele>
        <time>2023-07-30T16:05:25.000Z</time>
      </trkpt>
      <trkpt lat="43.66551" lon="1.44733">
        <ele>131.840551</ele>
        <time>2023-07-30T16:05:26.000Z</time>
      </trkpt>
      <trkpt lat="43.66551" lon="1.44733">
        <ele>131.840551</ele>
        <time>2023-07-30T16:05:26.000Z</time>
      </trkpt>
      <trkpt lat="43.66548" lon="1.44729">
        <ele>131.881321</ele>
        <time>2023-07-30T16:05:27.000Z</time>
      </trkpt>
      <trkpt lat="43.66548" lon="1.44729">
        <ele>131.881321</ele>
        <time>2023-07-30T16:05:27.000Z</time>
      </trkpt>
      <trkpt lat="43.66544" lon="1.44726">
        <ele>131.923456</ele>
        <time>2023-07-30T16:05:28.000Z</time>
      </trkpt>
      <trkpt lat="43.66544" lon="1.44726">
        <ele>131.923456</ele>
        <time>2023-07-30T16:05:28.000Z</time>
      </trkpt>
      <trkpt lat="43.6654" lon="1.44724">
        <ele>131.959055</ele>
        <time>2023-07-30T16:05:29.000Z</time>
      </trkpt>
      <trkpt lat="43.6654" lon="1.44724">
        <ele>131.959055</ele>
        <time>2023-07-30T16:05:29.000Z</time>
      </trkpt>
      <trkpt lat="43.66537" lon="1.44722">
        <ele>131.988607</ele>
        <time>2023-07-30T16:05:30.000Z</time>
      </trkpt>
      <trkpt lat="43.66537" lon="1.44722">
        <ele>131.988607</ele>
        <time>2023-07-30T16:05:30.000Z</time>
      </trkpt>
      <trkpt lat="43.66533" lon="1.4472">
        <ele>132.033036</ele>
        <time>2023-07-30T16:05:31.000Z</time>
      </trkpt>
      <trkpt lat="43.6653" lon="1.44718">
        <ele>132.062854</ele>
        <time>2023-07-30T16:05:32.000Z</time>
      </trkpt>
      <trkpt lat="43.6653" lon="1.44718">
        <ele>132.062854</ele>
        <time>2023-07-30T16:05:32.000Z</time>
      </trkpt>
      <trkpt lat="43.66526" lon="1.44716">
        <ele>132.099834</ele>
        <time>2023-07-30T16:05:33.000Z</time>
      </trkpt>
      <trkpt lat="43.66526" lon="1.44716">
        <ele>132.099834</ele>
        <time>2023-07-30T16:05:33.000Z</time>
      </trkpt>
      <trkpt lat="43.66523" lon="1.44714">
        <ele>132.130476</ele>
        <time>2023-07-30T16:05:34.000Z</time>
      </trkpt>
      <trkpt lat="43.66516" lon="1.4471">
        <ele>132.198343</ele>
        <time>2023-07-30T16:05:36.000Z</time>
      </trkpt>
      <trkpt lat="43.66516" lon="1.4471">
        <ele>132.198343</ele>
        <time>2023-07-30T16:05:36.000Z</time>
      </trkpt>
      <trkpt lat="43.66515" lon="1.4471">
        <ele>132.208621</ele>
        <time>2023-07-30T16:05:36.000Z</time>
      </trkpt>
      <trkpt lat="43.66515" lon="1.4471">
        <ele>132.208621</ele>
        <time>2023-07-30T16:05:36.000Z</time>
      </trkpt>
      <trkpt lat="43.66514" lon="1.4471">
        <ele>132.212464</ele>
        <time>2023-07-30T16:05:38.000Z</time>
      </trkpt>
      <trkpt lat="43.66511" lon="1.44715">
        <ele>132.252949</ele>
        <time>2023-07-30T16:05:40.000Z</time>
      </trkpt>
      <trkpt lat="43.6651" lon="1.44718">
        <ele>132.272628</ele>
        <time>2023-07-30T16:05:41.000Z</time>
      </trkpt>
      <trkpt lat="43.66509" lon="1.44723">
        <ele>132.313652</ele>
        <time>2023-07-30T16:05:42.000Z</time>
      </trkpt>
      <trkpt lat="43.66509" lon="1.44723">
        <ele>132.313652</ele>
        <time>2023-07-30T16:05:42.000Z</time>
      </trkpt>
      <trkpt lat="43.66507" lon="1.44729">
        <ele>132.350246</ele>
        <time>2023-07-30T16:05:44.000Z</time>
      </trkpt>
      <trkpt lat="43.66505" lon="1.44734">
        <ele>132.388743</ele>
        <time>2023-07-30T16:05:44.000Z</time>
      </trkpt>
      <trkpt lat="43.66502" lon="1.44743">
        <ele>132.456857</ele>
        <time>2023-07-30T16:05:45.000Z</time>
      </trkpt>
      <trkpt lat="43.66502" lon="1.44743">
        <ele>132.456857</ele>
        <time>2023-07-30T16:05:45.000Z</time>
      </trkpt>
      <trkpt lat="43.66499" lon="1.44749">
        <ele>132.501244</ele>
        <time>2023-07-30T16:05:46.000Z</time>
      </trkpt>
      <trkpt lat="43.66497" lon="1.44755">
        <ele>132.545631</ele>
        <time>2023-07-30T16:05:48.000Z</time>
      </trkpt>
      <trkpt lat="43.66494" lon="1.44764">
        <ele>132.609814</ele>
        <time>2023-07-30T16:05:49.000Z</time>
      </trkpt>
      <trkpt lat="43.66491" lon="1.44771">
        <ele>132.661093</ele>
        <time>2023-07-30T16:05:50.000Z</time>
      </trkpt>
      <trkpt lat="43.66491" lon="1.44771">
        <ele>132.661093</ele>
        <time>2023-07-30T16:05:50.000Z</time>
      </trkpt>
      <trkpt lat="43.66489" lon="1.44778">
        <ele>132.712372</ele>
        <time>2023-07-30T16:05:51.000Z</time>
      </trkpt>
      <trkpt lat="43.66485" lon="1.44785">
        <ele>132.763553</ele>
        <time>2023-07-30T16:05:52.000Z</time>
      </trkpt>
      <trkpt lat="43.66482" lon="1.44792">
        <ele>132.746323</ele>
        <time>2023-07-30T16:05:53.000Z</time>
      </trkpt>
      <trkpt lat="43.66479" lon="1.44799">
        <ele>132.728756</ele>
        <time>2023-07-30T16:05:54.000Z</time>
      </trkpt>
      <trkpt lat="43.66476" lon="1.44807">
        <ele>132.708897</ele>
        <time>2023-07-30T16:05:55.000Z</time>
      </trkpt>
      <trkpt lat="43.66476" lon="1.44807">
        <ele>132.708897</ele>
        <time>2023-07-30T16:05:55.000Z</time>
      </trkpt>
      <trkpt lat="43.66472" lon="1.44815">
        <ele>132.688233</ele>
        <time>2023-07-30T16:05:56.000Z</time>
      </trkpt>
      <trkpt lat="43.66468" lon="1.44823">
        <ele>132.668769</ele>
        <time>2023-07-30T16:05:57.000Z</time>
      </trkpt>
      <trkpt lat="43.66466" lon="1.44831">
        <ele>132.649607</ele>
        <time>2023-07-30T16:05:58.000Z</time>
      </trkpt>
      <trkpt lat="43.66463" lon="1.4484">
        <ele>132.628272</ele>
        <time>2023-07-30T16:05:59.000Z</time>
      </trkpt>
      <trkpt lat="43.6646" lon="1.44848">
        <ele>132.608793</ele>
        <time>2023-07-30T16:06:00.000Z</time>
      </trkpt>
      <trkpt lat="43.6646" lon="1.44848">
        <ele>132.608793</ele>
        <time>2023-07-30T16:06:00.000Z</time>
      </trkpt>
      <trkpt lat="43.66457" lon="1.44858">
        <ele>132.586853</ele>
        <time>2023-07-30T16:06:01.000Z</time>
      </trkpt>
      <trkpt lat="43.66456" lon="1.44867">
        <ele>132.566787</ele>
        <time>2023-07-30T16:06:02.000Z</time>
      </trkpt>
      <trkpt lat="43.66453" lon="1.44876">
        <ele>132.547162</ele>
        <time>2023-07-30T16:06:03.000Z</time>
      </trkpt>
      <trkpt lat="43.66451" lon="1.44886">
        <ele>132.524826</ele>
        <time>2023-07-30T16:06:04.000Z</time>
      </trkpt>
      <trkpt lat="43.66451" lon="1.44886">
        <ele>132.524826</ele>
        <time>2023-07-30T16:06:04.000Z</time>
      </trkpt>
      <trkpt lat="43.66449" lon="1.44895">
        <ele>132.503576</ele>
        <time>2023-07-30T16:06:05.000Z</time>
      </trkpt>
      <trkpt lat="43.66446" lon="1.44902">
        <ele>132.484902</ele>
        <time>2023-07-30T16:06:06.000Z</time>
      </trkpt>
      <trkpt lat="43.66446" lon="1.44902">
        <ele>132.484902</ele>
        <time>2023-07-30T16:06:06.000Z</time>
      </trkpt>
      <trkpt lat="43.66441" lon="1.4491">
        <ele>132.463745</ele>
        <time>2023-07-30T16:06:06.000Z</time>
      </trkpt>
      <trkpt lat="43.66438" lon="1.44918">
        <ele>132.44344</ele>
        <time>2023-07-30T16:06:08.000Z</time>
      </trkpt>
      <trkpt lat="43.66435" lon="1.44926">
        <ele>132.425213</ele>
        <time>2023-07-30T16:06:08.000Z</time>
      </trkpt>
      <trkpt lat="43.66433" lon="1.44935">
        <ele>132.405967</ele>
        <time>2023-07-30T16:06:10.000Z</time>
      </trkpt>
      <trkpt lat="43.66433" lon="1.44935">
        <ele>132.405967</ele>
        <time>2023-07-30T16:06:10.000Z</time>
      </trkpt>
      <trkpt lat="43.66431" lon="1.44944">
        <ele>132.385621</ele>
        <time>2023-07-30T16:06:10.000Z</time>
      </trkpt>
      <trkpt lat="43.66431" lon="1.44944">
        <ele>132.385621</ele>
        <time>2023-07-30T16:06:10.000Z</time>
      </trkpt>
      <trkpt lat="43.66428" lon="1.44952">
        <ele>132.366197</ele>
        <time>2023-07-30T16:06:12.000Z</time>
      </trkpt>
      <trkpt lat="43.66425" lon="1.4496">
        <ele>132.346338</ele>
        <time>2023-07-30T16:06:12.000Z</time>
      </trkpt>
      <trkpt lat="43.66422" lon="1.44968">
        <ele>132.326859</ele>
        <time>2023-07-30T16:06:14.000Z</time>
      </trkpt>
      <trkpt lat="43.66422" lon="1.44968">
        <ele>132.326859</ele>
        <time>2023-07-30T16:06:14.000Z</time>
      </trkpt>
      <trkpt lat="43.6642" lon="1.44977">
        <ele>132.307636</ele>
        <time>2023-07-30T16:06:14.000Z</time>
      </trkpt>
      <trkpt lat="43.66417" lon="1.44985">
        <ele>132.287609</ele>
        <time>2023-07-30T16:06:16.000Z</time>
      </trkpt>
      <trkpt lat="43.66415" lon="1.44994">
        <ele>132.267935</ele>
        <time>2023-07-30T16:06:16.000Z</time>
      </trkpt>
      <trkpt lat="43.66412" lon="1.45002">
        <ele>132.248076</ele>
        <time>2023-07-30T16:06:18.000Z</time>
      </trkpt>
      <trkpt lat="43.66408" lon="1.4501">
        <ele>132.231998</ele>
        <time>2023-07-30T16:06:19.000Z</time>
      </trkpt>
      <trkpt lat="43.66405" lon="1.45018">
        <ele>132.227155</ele>
        <time>2023-07-30T16:06:20.000Z</time>
      </trkpt>
      <trkpt lat="43.66403" lon="1.45026">
        <ele>132.222869</ele>
        <time>2023-07-30T16:06:21.000Z</time>
      </trkpt>
      <trkpt lat="43.66401" lon="1.45034">
        <ele>132.218631</ele>
        <time>2023-07-30T16:06:22.000Z</time>
      </trkpt>
      <trkpt lat="43.66398" lon="1.45042">
        <ele>132.214203</ele>
        <time>2023-07-30T16:06:23.000Z</time>
      </trkpt>
      <trkpt lat="43.66398" lon="1.45042">
        <ele>132.214203</ele>
        <time>2023-07-30T16:06:23.000Z</time>
      </trkpt>
      <trkpt lat="43.66396" lon="1.4505">
        <ele>132.20961</ele>
        <time>2023-07-30T16:06:24.000Z</time>
      </trkpt>
      <trkpt lat="43.66394" lon="1.45058">
        <ele>132.2054</ele>
        <time>2023-07-30T16:06:25.000Z</time>
      </trkpt>
      <trkpt lat="43.66393" lon="1.45066">
        <ele>132.201146</ele>
        <time>2023-07-30T16:06:26.000Z</time>
      </trkpt>
      <trkpt lat="43.6639" lon="1.45074">
        <ele>132.196623</ele>
        <time>2023-07-30T16:06:27.000Z</time>
      </trkpt>
      <trkpt lat="43.66388" lon="1.45082">
        <ele>132.192572</ele>
        <time>2023-07-30T16:06:28.000Z</time>
      </trkpt>
      <trkpt lat="43.66386" lon="1.4509">
        <ele>132.188287</ele>
        <time>2023-07-30T16:06:29.000Z</time>
      </trkpt>
      <trkpt lat="43.66386" lon="1.4509">
        <ele>132.188287</ele>
        <time>2023-07-30T16:06:29.000Z</time>
      </trkpt>
      <trkpt lat="43.66383" lon="1.45096">
        <ele>132.184328</ele>
        <time>2023-07-30T16:06:30.000Z</time>
      </trkpt>
      <trkpt lat="43.66379" lon="1.45104">
        <ele>132.179711</ele>
        <time>2023-07-30T16:06:31.000Z</time>
      </trkpt>
      <trkpt lat="43.66375" lon="1.4511">
        <ele>132.175314</ele>
        <time>2023-07-30T16:06:32.000Z</time>
      </trkpt>
      <trkpt lat="43.6637" lon="1.45117">
        <ele>132.170688</ele>
        <time>2023-07-30T16:06:33.000Z</time>
      </trkpt>
      <trkpt lat="43.66366" lon="1.45124">
        <ele>132.165762</ele>
        <time>2023-07-30T16:06:34.000Z</time>
      </trkpt>
      <trkpt lat="43.66362" lon="1.45131">
        <ele>132.161227</ele>
        <time>2023-07-30T16:06:35.000Z</time>
      </trkpt>
      <trkpt lat="43.66362" lon="1.45131">
        <ele>132.161227</ele>
        <time>2023-07-30T16:06:35.000Z</time>
      </trkpt>
      <trkpt lat="43.6636" lon="1.45138">
        <ele>132.157637</ele>
        <time>2023-07-30T16:06:36.000Z</time>
      </trkpt>
      <trkpt lat="43.66358" lon="1.45142">
        <ele>132.154976</ele>
        <time>2023-07-30T16:06:37.000Z</time>
      </trkpt>
      <trkpt lat="43.66358" lon="1.45142">
        <ele>132.154976</ele>
        <time>2023-07-30T16:06:37.000Z</time>
      </trkpt>
      <trkpt lat="43.66359" lon="1.45145">
        <ele>132.153822</ele>
        <time>2023-07-30T16:06:38.000Z</time>
      </trkpt>
      <trkpt lat="43.6636" lon="1.45147">
        <ele>132.152544</ele>
        <time>2023-07-30T16:06:39.000Z</time>
      </trkpt>
      <trkpt lat="43.66362" lon="1.45148">
        <ele>132.150848</ele>
        <time>2023-07-30T16:06:40.000Z</time>
      </trkpt>
      <trkpt lat="43.66362" lon="1.45148">
        <ele>132.150848</ele>
        <time>2023-07-30T16:06:40.000Z</time>
      </trkpt>
      <trkpt lat="43.66363" lon="1.45148">
        <ele>132.149974</ele>
        <time>2023-07-30T16:06:41.000Z</time>
      </trkpt>
      <trkpt lat="43.66364" lon="1.4515">
        <ele>132.149161</ele>
        <time>2023-07-30T16:06:42.000Z</time>
      </trkpt>
      <trkpt lat="43.66363" lon="1.45154">
        <ele>132.146955</ele>
        <time>2023-07-30T16:06:43.000Z</time>
      </trkpt>
      <trkpt lat="43.66363" lon="1.45158">
        <ele>132.145225</ele>
        <time>2023-07-30T16:06:44.000Z</time>
      </trkpt>
      <trkpt lat="43.66363" lon="1.45158">
        <ele>132.145225</ele>
        <time>2023-07-30T16:06:44.000Z</time>
      </trkpt>
      <trkpt lat="43.66364" lon="1.45157">
        <ele>132.144607</ele>
        <time>2023-07-30T16:06:45.000Z</time>
      </trkpt>
      <trkpt lat="43.66364" lon="1.45157">
        <ele>132.144607</ele>
        <time>2023-07-30T16:06:45.000Z</time>
      </trkpt>
      <trkpt lat="43.66365" lon="1.45168">
        <ele>132.138847</ele>
        <time>2023-07-30T16:06:46.000Z</time>
      </trkpt>
      <trkpt lat="43.66365" lon="1.45168">
        <ele>132.138847</ele>
        <time>2023-07-30T16:06:46.000Z</time>
      </trkpt>
      <trkpt lat="43.66365" lon="1.45175">
        <ele>132.135438</ele>
        <time>2023-07-30T16:06:47.000Z</time>
      </trkpt>
      <trkpt lat="43.66365" lon="1.45175">
        <ele>132.135438</ele>
        <time>2023-07-30T16:06:47.000Z</time>
      </trkpt>
      <trkpt lat="43.66364" lon="1.45182">
        <ele>132.131932</ele>
        <time>2023-07-30T16:06:48.000Z</time>
      </trkpt>
      <trkpt lat="43.66362" lon="1.45193">
        <ele>132.125764</ele>
        <time>2023-07-30T16:06:50.000Z</time>
      </trkpt>
      <trkpt lat="43.66357" lon="1.45207">
        <ele>132.117986</ele>
        <time>2023-07-30T16:06:51.000Z</time>
      </trkpt>
      <trkpt lat="43.66357" lon="1.45207">
        <ele>132.117986</ele>
        <time>2023-07-30T16:06:51.000Z</time>
      </trkpt>
      <trkpt lat="43.66355" lon="1.45213">
        <ele>132.11471</ele>
        <time>2023-07-30T16:06:52.000Z</time>
      </trkpt>
      <trkpt lat="43.66351" lon="1.45221">
        <ele>132.109967</ele>
        <time>2023-07-30T16:06:53.000Z</time>
      </trkpt>
      <trkpt lat="43.66351" lon="1.45221">
        <ele>132.109967</ele>
        <time>2023-07-30T16:06:53.000Z</time>
      </trkpt>
      <trkpt lat="43.66347" lon="1.45228">
        <ele>132.104991</ele>
        <time>2023-07-30T16:06:54.000Z</time>
      </trkpt>
      <trkpt lat="43.66343" lon="1.45234">
        <ele>132.099531</ele>
        <time>2023-07-30T16:06:55.000Z</time>
      </trkpt>
      <trkpt lat="43.66339" lon="1.45239">
        <ele>132.094152</ele>
        <time>2023-07-30T16:06:56.000Z</time>
      </trkpt>
      <trkpt lat="43.66335" lon="1.45245">
        <ele>132.088314</ele>
        <time>2023-07-30T16:06:57.000Z</time>
      </trkpt>
      <trkpt lat="43.6633" lon="1.45251">
        <ele>132.082131</ele>
        <time>2023-07-30T16:06:58.000Z</time>
      </trkpt>
      <trkpt lat="43.6633" lon="1.45251">
        <ele>132.082131</ele>
        <time>2023-07-30T16:06:58.000Z</time>
      </trkpt>
      <trkpt lat="43.66324" lon="1.45258">
        <ele>132.075189</ele>
        <time>2023-07-30T16:06:59.000Z</time>
      </trkpt>
      <trkpt lat="43.66323" lon="1.4526">
        <ele>132.073138</ele>
        <time>2023-07-30T16:07:00.000Z</time>
      </trkpt>
      <trkpt lat="43.66314" lon="1.45273">
        <ele>132.061157</ele>
        <time>2023-07-30T16:07:01.000Z</time>
      </trkpt>
      <trkpt lat="43.66314" lon="1.45273">
        <ele>132.061157</ele>
        <time>2023-07-30T16:07:01.000Z</time>
      </trkpt>
      <trkpt lat="43.66307" lon="1.4528">
        <ele>132.052884</ele>
        <time>2023-07-30T16:07:02.000Z</time>
      </trkpt>
      <trkpt lat="43.66306" lon="1.45282">
        <ele>132.051274</ele>
        <time>2023-07-30T16:07:03.000Z</time>
      </trkpt>
      <trkpt lat="43.66306" lon="1.45282">
        <ele>132.051274</ele>
        <time>2023-07-30T16:07:03.000Z</time>
      </trkpt>
      <trkpt lat="43.66298" lon="1.45295">
        <ele>132.039651</ele>
        <time>2023-07-30T16:07:04.000Z</time>
      </trkpt>
      <trkpt lat="43.66293" lon="1.45304">
        <ele>132.032443</ele>
        <time>2023-07-30T16:07:05.000Z</time>
      </trkpt>
      <trkpt lat="43.66291" lon="1.45312">
        <ele>132.026245</ele>
        <time>2023-07-30T16:07:06.000Z</time>
      </trkpt>
      <trkpt lat="43.66289" lon="1.4532">
        <ele>132.020469</ele>
        <time>2023-07-30T16:07:07.000Z</time>
      </trkpt>
      <trkpt lat="43.66288" lon="1.45325">
        <ele>132.017528</ele>
        <time>2023-07-30T16:07:08.000Z</time>
      </trkpt>
      <trkpt lat="43.66287" lon="1.45339">
        <ele>132.007525</ele>
        <time>2023-07-30T16:07:08.000Z</time>
      </trkpt>
      <trkpt lat="43.66287" lon="1.45339">
        <ele>132.007525</ele>
        <time>2023-07-30T16:07:08.000Z</time>
      </trkpt>
      <trkpt lat="43.66286" lon="1.45349">
        <ele>132.00097</ele>
        <time>2023-07-30T16:07:10.000Z</time>
      </trkpt>
      <trkpt lat="43.66286" lon="1.45349">
        <ele>132.000834</ele>
        <time>2023-07-30T16:07:11.000Z</time>
      </trkpt>
      <trkpt lat="43.66284" lon="1.45366">
        <ele>131.989236</ele>
        <time>2023-07-30T16:07:12.000Z</time>
      </trkpt>
      <trkpt lat="43.66283" lon="1.45373">
        <ele>131.984045</ele>
        <time>2023-07-30T16:07:13.000Z</time>
      </trkpt>
      <trkpt lat="43.66281" lon="1.45383">
        <ele>131.977007</ele>
        <time>2023-07-30T16:07:14.000Z</time>
      </trkpt>
      <trkpt lat="43.66279" lon="1.45391">
        <ele>131.971488</ele>
        <time>2023-07-30T16:07:15.000Z</time>
      </trkpt>
      <trkpt lat="43.66278" lon="1.45393">
        <ele>131.97022</ele>
        <time>2023-07-30T16:07:16.000Z</time>
      </trkpt>
      <trkpt lat="43.66278" lon="1.45393">
        <ele>131.97022</ele>
        <time>2023-07-30T16:07:16.000Z</time>
      </trkpt>
      <trkpt lat="43.66274" lon="1.45408">
        <ele>131.958918</ele>
        <time>2023-07-30T16:07:17.000Z</time>
      </trkpt>
      <trkpt lat="43.66271" lon="1.45417">
        <ele>131.952496</ele>
        <time>2023-07-30T16:07:18.000Z</time>
      </trkpt>
      <trkpt lat="43.66269" lon="1.45425">
        <ele>131.946657</ele>
        <time>2023-07-30T16:07:19.000Z</time>
      </trkpt>
      <trkpt lat="43.66266" lon="1.45433">
        <ele>131.940437</ele>
        <time>2023-07-30T16:07:20.000Z</time>
      </trkpt>
      <trkpt lat="43.66266" lon="1.45435">
        <ele>131.938985</ele>
        <time>2023-07-30T16:07:21.000Z</time>
      </trkpt>
      <trkpt lat="43.66266" lon="1.45435">
        <ele>131.938985</ele>
        <time>2023-07-30T16:07:21.000Z</time>
      </trkpt>
      <trkpt lat="43.66262" lon="1.4545">
        <ele>131.962283</ele>
        <time>2023-07-30T16:07:22.000Z</time>
      </trkpt>
      <trkpt lat="43.6626" lon="1.45459">
        <ele>131.978314</ele>
        <time>2023-07-30T16:07:23.000Z</time>
      </trkpt>
      <trkpt lat="43.66258" lon="1.45468">
        <ele>131.995378</ele>
        <time>2023-07-30T16:07:24.000Z</time>
      </trkpt>
      <trkpt lat="43.66258" lon="1.45468">
        <ele>131.995378</ele>
        <time>2023-07-30T16:07:24.000Z</time>
      </trkpt>
      <trkpt lat="43.66256" lon="1.45477">
        <ele>132.010918</ele>
        <time>2023-07-30T16:07:25.000Z</time>
      </trkpt>
      <trkpt lat="43.66253" lon="1.45483">
        <ele>132.023569</ele>
        <time>2023-07-30T16:07:26.000Z</time>
      </trkpt>
      <trkpt lat="43.6625" lon="1.45494">
        <ele>132.043623</ele>
        <time>2023-07-30T16:07:27.000Z</time>
      </trkpt>
      <trkpt lat="43.66247" lon="1.45502">
        <ele>132.059919</ele>
        <time>2023-07-30T16:07:28.000Z</time>
      </trkpt>
      <trkpt lat="43.66247" lon="1.45502">
        <ele>132.059919</ele>
        <time>2023-07-30T16:07:28.000Z</time>
      </trkpt>
      <trkpt lat="43.66245" lon="1.45511">
        <ele>132.07514</ele>
        <time>2023-07-30T16:07:29.000Z</time>
      </trkpt>
      <trkpt lat="43.66245" lon="1.45511">
        <ele>132.07514</ele>
        <time>2023-07-30T16:07:29.000Z</time>
      </trkpt>
      <trkpt lat="43.66243" lon="1.45519">
        <ele>132.09068</ele>
        <time>2023-07-30T16:07:30.000Z</time>
      </trkpt>
      <trkpt lat="43.6624" lon="1.45527">
        <ele>132.106911</ele>
        <time>2023-07-30T16:07:31.000Z</time>
      </trkpt>
      <trkpt lat="43.66238" lon="1.45535">
        <ele>132.121799</ele>
        <time>2023-07-30T16:07:31.000Z</time>
      </trkpt>
      <trkpt lat="43.66236" lon="1.45544">
        <ele>132.137666</ele>
        <time>2023-07-30T16:07:33.000Z</time>
      </trkpt>
      <trkpt lat="43.66235" lon="1.45544">
        <ele>132.139089</ele>
        <time>2023-07-30T16:07:33.000Z</time>
      </trkpt>
      <trkpt lat="43.66231" lon="1.45561">
        <ele>132.170005</ele>
        <time>2023-07-30T16:07:35.000Z</time>
      </trkpt>
      <trkpt lat="43.66229" lon="1.4557">
        <ele>132.1862</ele>
        <time>2023-07-30T16:07:35.000Z</time>
      </trkpt>
      <trkpt lat="43.66226" lon="1.45578">
        <ele>132.202912</ele>
        <time>2023-07-30T16:07:37.000Z</time>
      </trkpt>
      <trkpt lat="43.66224" lon="1.45586">
        <ele>132.217964</ele>
        <time>2023-07-30T16:07:37.000Z</time>
      </trkpt>
      <trkpt lat="43.66221" lon="1.45595">
        <ele>132.233994</ele>
        <time>2023-07-30T16:07:39.000Z</time>
      </trkpt>
      <trkpt lat="43.66219" lon="1.45604">
        <ele>132.250353</ele>
        <time>2023-07-30T16:07:39.000Z</time>
      </trkpt>
      <trkpt lat="43.66217" lon="1.45611">
        <ele>132.264247</ele>
        <time>2023-07-30T16:07:41.000Z</time>
      </trkpt>
      <trkpt lat="43.66217" lon="1.45611">
        <ele>132.264247</ele>
        <time>2023-07-30T16:07:41.000Z</time>
      </trkpt>
      <trkpt lat="43.66215" lon="1.45617">
        <ele>132.274433</ele>
        <time>2023-07-30T16:07:42.000Z</time>
      </trkpt>
      <trkpt lat="43.66211" lon="1.45628">
        <ele>132.297446</ele>
        <time>2023-07-30T16:07:43.000Z</time>
      </trkpt>
      <trkpt lat="43.66206" lon="1.45631">
        <ele>132.309971</ele>
        <time>2023-07-30T16:07:44.000Z</time>
      </trkpt>
      <trkpt lat="43.66206" lon="1.45631">
        <ele>132.309971</ele>
        <time>2023-07-30T16:07:44.000Z</time>
      </trkpt>
      <trkpt lat="43.662" lon="1.45634">
        <ele>132.324228</ele>
        <time>2023-07-30T16:07:45.000Z</time>
      </trkpt>
      <trkpt lat="43.662" lon="1.45634">
        <ele>132.324228</ele>
        <time>2023-07-30T16:07:45.000Z</time>
      </trkpt>
      <trkpt lat="43.66195" lon="1.4563">
        <ele>132.33836</ele>
        <time>2023-07-30T16:07:46.000Z</time>
      </trkpt>
      <trkpt lat="43.66189" lon="1.45625">
        <ele>132.354865</ele>
        <time>2023-07-30T16:07:47.000Z</time>
      </trkpt>
      <trkpt lat="43.66184" lon="1.45619">
        <ele>132.370868</ele>
        <time>2023-07-30T16:07:48.000Z</time>
      </trkpt>
      <trkpt lat="43.6618" lon="1.45613">
        <ele>132.38833</ele>
        <time>2023-07-30T16:07:49.000Z</time>
      </trkpt>
      <trkpt lat="43.66175" lon="1.45606">
        <ele>132.40572</ele>
        <time>2023-07-30T16:07:50.000Z</time>
      </trkpt>
      <trkpt lat="43.66171" lon="1.456">
        <ele>132.421676</ele>
        <time>2023-07-30T16:07:51.000Z</time>
      </trkpt>
      <trkpt lat="43.66167" lon="1.45595">
        <ele>132.43606</ele>
        <time>2023-07-30T16:07:52.000Z</time>
      </trkpt>
      <trkpt lat="43.66164" lon="1.45591">
        <ele>132.447228</ele>
        <time>2023-07-30T16:07:53.000Z</time>
      </trkpt>
      <trkpt lat="43.66161" lon="1.45589">
        <ele>132.455679</ele>
        <time>2023-07-30T16:07:54.000Z</time>
      </trkpt>
      <trkpt lat="43.66161" lon="1.45589">
        <ele>132.455679</ele>
        <time>2023-07-30T16:07:54.000Z</time>
      </trkpt>
      <trkpt lat="43.66157" lon="1.45585">
        <ele>132.468648</ele>
        <time>2023-07-30T16:07:55.000Z</time>
      </trkpt>
      <trkpt lat="43.66153" lon="1.45581">
        <ele>132.482131</ele>
        <time>2023-07-30T16:07:56.000Z</time>
      </trkpt>
      <trkpt lat="43.66149" lon="1.45577">
        <ele>132.495187</ele>
        <time>2023-07-30T16:07:57.000Z</time>
      </trkpt>
      <trkpt lat="43.66145" lon="1.45573">
        <ele>132.508777</ele>
        <time>2023-07-30T16:07:58.000Z</time>
      </trkpt>
      <trkpt lat="43.66145" lon="1.45573">
        <ele>132.508777</ele>
        <time>2023-07-30T16:07:58.000Z</time>
      </trkpt>
      <trkpt lat="43.66141" lon="1.45569">
        <ele>132.522367</ele>
        <time>2023-07-30T16:07:59.000Z</time>
      </trkpt>
      <trkpt lat="43.66137" lon="1.45565">
        <ele>132.536179</ele>
        <time>2023-07-30T16:08:00.000Z</time>
      </trkpt>
      <trkpt lat="43.66132" lon="1.45561">
        <ele>132.549551</ele>
        <time>2023-07-30T16:08:01.000Z</time>
      </trkpt>
      <trkpt lat="43.66128" lon="1.45556">
        <ele>132.564566</ele>
        <time>2023-07-30T16:08:02.000Z</time>
      </trkpt>
      <trkpt lat="43.66123" lon="1.45552">
        <ele>132.579255</ele>
        <time>2023-07-30T16:08:03.000Z</time>
      </trkpt>
      <trkpt lat="43.66118" lon="1.45549">
        <ele>132.594277</ele>
        <time>2023-07-30T16:08:04.000Z</time>
      </trkpt>
      <trkpt lat="43.66118" lon="1.45549">
        <ele>132.594277</ele>
        <time>2023-07-30T16:08:04.000Z</time>
      </trkpt>
      <trkpt lat="43.66113" lon="1.45545">
        <ele>132.6088</ele>
        <time>2023-07-30T16:08:05.000Z</time>
      </trkpt>
      <trkpt lat="43.66113" lon="1.45545">
        <ele>132.6088</ele>
        <time>2023-07-30T16:08:05.000Z</time>
      </trkpt>
      <trkpt lat="43.66108" lon="1.45542">
        <ele>132.623402</ele>
        <time>2023-07-30T16:08:06.000Z</time>
      </trkpt>
      <trkpt lat="43.66108" lon="1.45542">
        <ele>132.623402</ele>
        <time>2023-07-30T16:08:06.000Z</time>
      </trkpt>
      <trkpt lat="43.66103" lon="1.45539">
        <ele>132.639794</ele>
        <time>2023-07-30T16:08:07.000Z</time>
      </trkpt>
      <trkpt lat="43.66098" lon="1.45536">
        <ele>132.654097</ele>
        <time>2023-07-30T16:08:08.000Z</time>
      </trkpt>
      <trkpt lat="43.66098" lon="1.45536">
        <ele>132.654097</ele>
        <time>2023-07-30T16:08:08.000Z</time>
      </trkpt>
      <trkpt lat="43.66092" lon="1.45533">
        <ele>132.671482</ele>
        <time>2023-07-30T16:08:09.000Z</time>
      </trkpt>
      <trkpt lat="43.66086" lon="1.45533">
        <ele>132.685616</ele>
        <time>2023-07-30T16:08:10.000Z</time>
      </trkpt>
      <trkpt lat="43.66081" lon="1.45534">
        <ele>132.699869</ele>
        <time>2023-07-30T16:08:11.000Z</time>
      </trkpt>
      <trkpt lat="43.66076" lon="1.45535">
        <ele>132.713304</ele>
        <time>2023-07-30T16:08:12.000Z</time>
      </trkpt>
      <trkpt lat="43.66071" lon="1.45535">
        <ele>132.725562</ele>
        <time>2023-07-30T16:08:13.000Z</time>
      </trkpt>
      <trkpt lat="43.66071" lon="1.45535">
        <ele>132.725562</ele>
        <time>2023-07-30T16:08:13.000Z</time>
      </trkpt>
      <trkpt lat="43.66068" lon="1.45534">
        <ele>132.735869</ele>
        <time>2023-07-30T16:08:14.000Z</time>
      </trkpt>
      <trkpt lat="43.66063" lon="1.45532">
        <ele>132.748608</ele>
        <time>2023-07-30T16:08:15.000Z</time>
      </trkpt>
      <trkpt lat="43.66059" lon="1.45529">
        <ele>132.76095</ele>
        <time>2023-07-30T16:08:16.000Z</time>
      </trkpt>
      <trkpt lat="43.66053" lon="1.45526">
        <ele>132.777491</ele>
        <time>2023-07-30T16:08:17.000Z</time>
      </trkpt>
      <trkpt lat="43.66048" lon="1.45522">
        <ele>132.79298</ele>
        <time>2023-07-30T16:08:18.000Z</time>
      </trkpt>
      <trkpt lat="43.66048" lon="1.45522">
        <ele>132.79298</ele>
        <time>2023-07-30T16:08:18.000Z</time>
      </trkpt>
      <trkpt lat="43.66042" lon="1.45519">
        <ele>132.808871</ele>
        <time>2023-07-30T16:08:19.000Z</time>
      </trkpt>
      <trkpt lat="43.66037" lon="1.45515">
        <ele>132.826174</ele>
        <time>2023-07-30T16:08:20.000Z</time>
      </trkpt>
      <trkpt lat="43.66037" lon="1.45515">
        <ele>132.826174</ele>
        <time>2023-07-30T16:08:20.000Z</time>
      </trkpt>
      <trkpt lat="43.66031" lon="1.4551">
        <ele>132.843476</ele>
        <time>2023-07-30T16:08:21.000Z</time>
      </trkpt>
      <trkpt lat="43.66026" lon="1.45505">
        <ele>132.905797</ele>
        <time>2023-07-30T16:08:22.000Z</time>
      </trkpt>
      <trkpt lat="43.66026" lon="1.45505">
        <ele>132.905797</ele>
        <time>2023-07-30T16:08:22.000Z</time>
      </trkpt>
      <trkpt lat="43.66021" lon="1.45501">
        <ele>133.000181</ele>
        <time>2023-07-30T16:08:23.000Z</time>
      </trkpt>
      <trkpt lat="43.66015" lon="1.45496">
        <ele>133.107634</ele>
        <time>2023-07-30T16:08:24.000Z</time>
      </trkpt>
      <trkpt lat="43.66015" lon="1.45496">
        <ele>133.107634</ele>
        <time>2023-07-30T16:08:24.000Z</time>
      </trkpt>
      <trkpt lat="43.6601" lon="1.45491">
        <ele>133.200225</ele>
        <time>2023-07-30T16:08:25.000Z</time>
      </trkpt>
      <trkpt lat="43.6601" lon="1.45491">
        <ele>133.200225</ele>
        <time>2023-07-30T16:08:25.000Z</time>
      </trkpt>
      <trkpt lat="43.66004" lon="1.45488">
        <ele>133.306109</ele>
        <time>2023-07-30T16:08:26.000Z</time>
      </trkpt>
      <trkpt lat="43.65998" lon="1.45484">
        <ele>133.405283</ele>
        <time>2023-07-30T16:08:27.000Z</time>
      </trkpt>
      <trkpt lat="43.65998" lon="1.45484">
        <ele>133.405283</ele>
        <time>2023-07-30T16:08:27.000Z</time>
      </trkpt>
      <trkpt lat="43.65992" lon="1.45481">
        <ele>133.505971</ele>
        <time>2023-07-30T16:08:28.000Z</time>
      </trkpt>
      <trkpt lat="43.65992" lon="1.45481">
        <ele>133.505971</ele>
        <time>2023-07-30T16:08:28.000Z</time>
      </trkpt>
      <trkpt lat="43.65987" lon="1.45478">
        <ele>133.598072</ele>
        <time>2023-07-30T16:08:29.000Z</time>
      </trkpt>
      <trkpt lat="43.65987" lon="1.45478">
        <ele>133.598072</ele>
        <time>2023-07-30T16:08:29.000Z</time>
      </trkpt>
      <trkpt lat="43.65981" lon="1.45474">
        <ele>133.700835</ele>
        <time>2023-07-30T16:08:30.000Z</time>
      </trkpt>
      <trkpt lat="43.65981" lon="1.45474">
        <ele>133.700835</ele>
        <time>2023-07-30T16:08:30.000Z</time>
      </trkpt>
      <trkpt lat="43.65976" lon="1.45468">
        <ele>133.807134</ele>
        <time>2023-07-30T16:08:31.000Z</time>
      </trkpt>
      <trkpt lat="43.65976" lon="1.45468">
        <ele>133.807134</ele>
        <time>2023-07-30T16:08:31.000Z</time>
      </trkpt>
      <trkpt lat="43.65972" lon="1.45462">
        <ele>133.901925</ele>
        <time>2023-07-30T16:08:32.000Z</time>
      </trkpt>
      <trkpt lat="43.65972" lon="1.45462">
        <ele>133.901925</ele>
        <time>2023-07-30T16:08:32.000Z</time>
      </trkpt>
      <trkpt lat="43.65967" lon="1.45457">
        <ele>134.001576</ele>
        <time>2023-07-30T16:08:33.000Z</time>
      </trkpt>
      <trkpt lat="43.65967" lon="1.45457">
        <ele>134.001576</ele>
        <time>2023-07-30T16:08:33.000Z</time>
      </trkpt>
      <trkpt lat="43.65962" lon="1.45454">
        <ele>134.093102</ele>
        <time>2023-07-30T16:08:34.000Z</time>
      </trkpt>
      <trkpt lat="43.65962" lon="1.45454">
        <ele>134.093102</ele>
        <time>2023-07-30T16:08:34.000Z</time>
      </trkpt>
      <trkpt lat="43.65955" lon="1.45453">
        <ele>134.19007</ele>
        <time>2023-07-30T16:08:35.000Z</time>
      </trkpt>
      <trkpt lat="43.65949" lon="1.45454">
        <ele>134.299749</ele>
        <time>2023-07-30T16:08:36.000Z</time>
      </trkpt>
      <trkpt lat="43.65941" lon="1.45456">
        <ele>134.428614</ele>
        <time>2023-07-30T16:08:37.000Z</time>
      </trkpt>
      <trkpt lat="43.65941" lon="1.45456">
        <ele>134.428614</ele>
        <time>2023-07-30T16:08:37.000Z</time>
      </trkpt>
      <trkpt lat="43.65934" lon="1.45461">
        <ele>134.545238</ele>
        <time>2023-07-30T16:08:38.000Z</time>
      </trkpt>
      <trkpt lat="43.65934" lon="1.45461">
        <ele>134.545238</ele>
        <time>2023-07-30T16:08:38.000Z</time>
      </trkpt>
      <trkpt lat="43.65928" lon="1.45465">
        <ele>134.659775</ele>
        <time>2023-07-30T16:08:39.000Z</time>
      </trkpt>
      <trkpt lat="43.6592" lon="1.45469">
        <ele>134.786546</ele>
        <time>2023-07-30T16:08:40.000Z</time>
      </trkpt>
      <trkpt lat="43.6592" lon="1.45469">
        <ele>134.786546</ele>
        <time>2023-07-30T16:08:40.000Z</time>
      </trkpt>
      <trkpt lat="43.65913" lon="1.4547">
        <ele>134.890834</ele>
        <time>2023-07-30T16:08:41.000Z</time>
      </trkpt>
      <trkpt lat="43.65906" lon="1.45471">
        <ele>135.006925</ele>
        <time>2023-07-30T16:08:42.000Z</time>
      </trkpt>
      <trkpt lat="43.65906" lon="1.45471">
        <ele>135.006925</ele>
        <time>2023-07-30T16:08:42.000Z</time>
      </trkpt>
      <trkpt lat="43.659" lon="1.45472">
        <ele>135.108439</ele>
        <time>2023-07-30T16:08:43.000Z</time>
      </trkpt>
      <trkpt lat="43.65892" lon="1.45473">
        <ele>135.237037</ele>
        <time>2023-07-30T16:08:44.000Z</time>
      </trkpt>
      <trkpt lat="43.65885" lon="1.45474">
        <ele>135.345256</ele>
        <time>2023-07-30T16:08:45.000Z</time>
      </trkpt>
      <trkpt lat="43.65885" lon="1.45474">
        <ele>135.345256</ele>
        <time>2023-07-30T16:08:45.000Z</time>
      </trkpt>
      <trkpt lat="43.65878" lon="1.45475">
        <ele>135.461465</ele>
        <time>2023-07-30T16:08:46.000Z</time>
      </trkpt>
      <trkpt lat="43.6587" lon="1.45476">
        <ele>135.589078</ele>
        <time>2023-07-30T16:08:47.000Z</time>
      </trkpt>
      <trkpt lat="43.65863" lon="1.45478">
        <ele>135.693561</ele>
        <time>2023-07-30T16:08:48.000Z</time>
      </trkpt>
      <trkpt lat="43.65856" lon="1.4548">
        <ele>135.657394</ele>
        <time>2023-07-30T16:08:49.000Z</time>
      </trkpt>
      <trkpt lat="43.65849" lon="1.45482">
        <ele>135.61441</ele>
        <time>2023-07-30T16:08:50.000Z</time>
      </trkpt>
      <trkpt lat="43.65842" lon="1.45484">
        <ele>135.574231</ele>
        <time>2023-07-30T16:08:51.000Z</time>
      </trkpt>
      <trkpt lat="43.65835" lon="1.45486">
        <ele>135.533492</ele>
        <time>2023-07-30T16:08:52.000Z</time>
      </trkpt>
      <trkpt lat="43.65835" lon="1.45486">
        <ele>135.533492</ele>
        <time>2023-07-30T16:08:52.000Z</time>
      </trkpt>
      <trkpt lat="43.65828" lon="1.45489">
        <ele>135.492558</ele>
        <time>2023-07-30T16:08:53.000Z</time>
      </trkpt>
      <trkpt lat="43.65821" lon="1.45491">
        <ele>135.452282</ele>
        <time>2023-07-30T16:08:54.000Z</time>
      </trkpt>
      <trkpt lat="43.65814" lon="1.45493">
        <ele>135.411722</ele>
        <time>2023-07-30T16:08:55.000Z</time>
      </trkpt>
      <trkpt lat="43.65814" lon="1.45493">
        <ele>135.411722</ele>
        <time>2023-07-30T16:08:55.000Z</time>
      </trkpt>
      <trkpt lat="43.65807" lon="1.45494">
        <ele>135.371849</ele>
        <time>2023-07-30T16:08:56.000Z</time>
      </trkpt>
      <trkpt lat="43.65801" lon="1.45493">
        <ele>135.334795</ele>
        <time>2023-07-30T16:08:57.000Z</time>
      </trkpt>
      <trkpt lat="43.65794" lon="1.45491">
        <ele>135.296392</ele>
        <time>2023-07-30T16:08:58.000Z</time>
      </trkpt>
      <trkpt lat="43.65794" lon="1.45491">
        <ele>135.296392</ele>
        <time>2023-07-30T16:08:58.000Z</time>
      </trkpt>
      <trkpt lat="43.65788" lon="1.45489">
        <ele>135.260122</ele>
        <time>2023-07-30T16:08:59.000Z</time>
      </trkpt>
      <trkpt lat="43.65782" lon="1.45486">
        <ele>135.221521</ele>
        <time>2023-07-30T16:09:00.000Z</time>
      </trkpt>
      <trkpt lat="43.65776" lon="1.45485">
        <ele>135.185947</ele>
        <time>2023-07-30T16:09:01.000Z</time>
      </trkpt>
      <trkpt lat="43.65769" lon="1.45484">
        <ele>135.145937</ele>
        <time>2023-07-30T16:09:02.000Z</time>
      </trkpt>
      <trkpt lat="43.65763" lon="1.45483">
        <ele>135.110545</ele>
        <time>2023-07-30T16:09:03.000Z</time>
      </trkpt>
      <trkpt lat="43.65756" lon="1.45482">
        <ele>135.068871</ele>
        <time>2023-07-30T16:09:04.000Z</time>
      </trkpt>
      <trkpt lat="43.65756" lon="1.45482">
        <ele>135.068871</ele>
        <time>2023-07-30T16:09:04.000Z</time>
      </trkpt>
      <trkpt lat="43.65749" lon="1.4548">
        <ele>135.028861</ele>
        <time>2023-07-30T16:09:05.000Z</time>
      </trkpt>
      <trkpt lat="43.65742" lon="1.45479">
        <ele>134.988852</ele>
        <time>2023-07-30T16:09:06.000Z</time>
      </trkpt>
      <trkpt lat="43.65735" lon="1.45477">
        <ele>134.950793</ele>
        <time>2023-07-30T16:09:07.000Z</time>
      </trkpt>
      <trkpt lat="43.65735" lon="1.45477">
        <ele>134.950793</ele>
        <time>2023-07-30T16:09:07.000Z</time>
      </trkpt>
      <trkpt lat="43.65728" lon="1.45475">
        <ele>134.905542</ele>
        <time>2023-07-30T16:09:08.000Z</time>
      </trkpt>
      <trkpt lat="43.65728" lon="1.45475">
        <ele>134.905542</ele>
        <time>2023-07-30T16:09:08.000Z</time>
      </trkpt>
      <trkpt lat="43.65722" lon="1.45472">
        <ele>134.868817</ele>
        <time>2023-07-30T16:09:09.000Z</time>
      </trkpt>
      <trkpt lat="43.65722" lon="1.45472">
        <ele>134.868817</ele>
        <time>2023-07-30T16:09:09.000Z</time>
      </trkpt>
      <trkpt lat="43.65714" lon="1.45469">
        <ele>134.823346</ele>
        <time>2023-07-30T16:09:10.000Z</time>
      </trkpt>
      <trkpt lat="43.65714" lon="1.45469">
        <ele>134.823346</ele>
        <time>2023-07-30T16:09:10.000Z</time>
      </trkpt>
      <trkpt lat="43.65707" lon="1.45466">
        <ele>134.781974</ele>
        <time>2023-07-30T16:09:11.000Z</time>
      </trkpt>
      <trkpt lat="43.65707" lon="1.45466">
        <ele>134.781974</ele>
        <time>2023-07-30T16:09:11.000Z</time>
      </trkpt>
      <trkpt lat="43.657" lon="1.45463">
        <ele>134.741153</ele>
        <time>2023-07-30T16:09:12.000Z</time>
      </trkpt>
      <trkpt lat="43.657" lon="1.45463">
        <ele>134.741153</ele>
        <time>2023-07-30T16:09:12.000Z</time>
      </trkpt>
      <trkpt lat="43.65692" lon="1.4546">
        <ele>134.692909</ele>
        <time>2023-07-30T16:09:13.000Z</time>
      </trkpt>
      <trkpt lat="43.65685" lon="1.45458">
        <ele>134.655349</ele>
        <time>2023-07-30T16:09:14.000Z</time>
      </trkpt>
      <trkpt lat="43.65685" lon="1.45458">
        <ele>134.655349</ele>
        <time>2023-07-30T16:09:14.000Z</time>
      </trkpt>
      <trkpt lat="43.65678" lon="1.45455">
        <ele>134.624276</ele>
        <time>2023-07-30T16:09:15.000Z</time>
      </trkpt>
      <trkpt lat="43.6567" lon="1.45452">
        <ele>134.591946</ele>
        <time>2023-07-30T16:09:16.000Z</time>
      </trkpt>
      <trkpt lat="43.6567" lon="1.45452">
        <ele>134.591946</ele>
        <time>2023-07-30T16:09:16.000Z</time>
      </trkpt>
      <trkpt lat="43.65664" lon="1.45449">
        <ele>134.564167</ele>
        <time>2023-07-30T16:09:17.000Z</time>
      </trkpt>
      <trkpt lat="43.65657" lon="1.45446">
        <ele>134.533309</ele>
        <time>2023-07-30T16:09:18.000Z</time>
      </trkpt>
      <trkpt lat="43.65657" lon="1.45446">
        <ele>134.533309</ele>
        <time>2023-07-30T16:09:18.000Z</time>
      </trkpt>
      <trkpt lat="43.65649" lon="1.45443">
        <ele>134.502319</ele>
        <time>2023-07-30T16:09:19.000Z</time>
      </trkpt>
      <trkpt lat="43.65643" lon="1.4544">
        <ele>134.474627</ele>
        <time>2023-07-30T16:09:20.000Z</time>
      </trkpt>
      <trkpt lat="43.65643" lon="1.4544">
        <ele>134.474627</ele>
        <time>2023-07-30T16:09:20.000Z</time>
      </trkpt>
      <trkpt lat="43.65636" lon="1.45437">
        <ele>134.444028</ele>
        <time>2023-07-30T16:09:21.000Z</time>
      </trkpt>
      <trkpt lat="43.65636" lon="1.45437">
        <ele>134.444028</ele>
        <time>2023-07-30T16:09:21.000Z</time>
      </trkpt>
      <trkpt lat="43.65629" lon="1.45434">
        <ele>134.41616</ele>
        <time>2023-07-30T16:09:22.000Z</time>
      </trkpt>
      <trkpt lat="43.65622" lon="1.45431">
        <ele>134.386558</ele>
        <time>2023-07-30T16:09:23.000Z</time>
      </trkpt>
      <trkpt lat="43.65622" lon="1.45431">
        <ele>134.386558</ele>
        <time>2023-07-30T16:09:23.000Z</time>
      </trkpt>
      <trkpt lat="43.65616" lon="1.45428">
        <ele>134.357523</ele>
        <time>2023-07-30T16:09:24.000Z</time>
      </trkpt>
      <trkpt lat="43.65609" lon="1.45425">
        <ele>134.329655</ele>
        <time>2023-07-30T16:09:25.000Z</time>
      </trkpt>
      <trkpt lat="43.65609" lon="1.45425">
        <ele>134.329655</ele>
        <time>2023-07-30T16:09:25.000Z</time>
      </trkpt>
      <trkpt lat="43.65603" lon="1.45423">
        <ele>134.302205</ele>
        <time>2023-07-30T16:09:26.000Z</time>
      </trkpt>
      <trkpt lat="43.65596" lon="1.4542">
        <ele>134.274754</ele>
        <time>2023-07-30T16:09:27.000Z</time>
      </trkpt>
      <trkpt lat="43.6559" lon="1.45418">
        <ele>134.247226</ele>
        <time>2023-07-30T16:09:28.000Z</time>
      </trkpt>
      <trkpt lat="43.65583" lon="1.45416">
        <ele>134.218591</ele>
        <time>2023-07-30T16:09:29.000Z</time>
      </trkpt>
      <trkpt lat="43.65577" lon="1.45413">
        <ele>134.192943</ele>
        <time>2023-07-30T16:09:30.000Z</time>
      </trkpt>
      <trkpt lat="43.65577" lon="1.45413">
        <ele>134.192943</ele>
        <time>2023-07-30T16:09:30.000Z</time>
      </trkpt>
      <trkpt lat="43.6557" lon="1.45411">
        <ele>134.165639</ele>
        <time>2023-07-30T16:09:31.000Z</time>
      </trkpt>
      <trkpt lat="43.65563" lon="1.45409">
        <ele>134.136679</ele>
        <time>2023-07-30T16:09:32.000Z</time>
      </trkpt>
      <trkpt lat="43.65557" lon="1.45407">
        <ele>134.11103</ele>
        <time>2023-07-30T16:09:33.000Z</time>
      </trkpt>
      <trkpt lat="43.6555" lon="1.45404">
        <ele>134.080273</ele>
        <time>2023-07-30T16:09:34.000Z</time>
      </trkpt>
      <trkpt lat="43.65543" lon="1.45402">
        <ele>134.053365</ele>
        <time>2023-07-30T16:09:35.000Z</time>
      </trkpt>
      <trkpt lat="43.65543" lon="1.45402">
        <ele>134.053365</ele>
        <time>2023-07-30T16:09:35.000Z</time>
      </trkpt>
      <trkpt lat="43.65537" lon="1.454">
        <ele>134.027716</ele>
        <time>2023-07-30T16:09:36.000Z</time>
      </trkpt>
      <trkpt lat="43.65531" lon="1.45398">
        <ele>134.001994</ele>
        <time>2023-07-30T16:09:37.000Z</time>
      </trkpt>
      <trkpt lat="43.65524" lon="1.45395">
        <ele>133.973034</ele>
        <time>2023-07-30T16:09:38.000Z</time>
      </trkpt>
      <trkpt lat="43.65518" lon="1.45393">
        <ele>133.945659</ele>
        <time>2023-07-30T16:09:39.000Z</time>
      </trkpt>
      <trkpt lat="43.65518" lon="1.45393">
        <ele>133.945659</ele>
        <time>2023-07-30T16:09:39.000Z</time>
      </trkpt>
      <trkpt lat="43.65511" lon="1.45391">
        <ele>133.93329</ele>
        <time>2023-07-30T16:09:40.000Z</time>
      </trkpt>
      <trkpt lat="43.65505" lon="1.45389">
        <ele>133.942185</ele>
        <time>2023-07-30T16:09:41.000Z</time>
      </trkpt>
      <trkpt lat="43.65498" lon="1.45386">
        <ele>133.952653</ele>
        <time>2023-07-30T16:09:42.000Z</time>
      </trkpt>
      <trkpt lat="43.65492" lon="1.45384">
        <ele>133.961547</ele>
        <time>2023-07-30T16:09:43.000Z</time>
      </trkpt>
      <trkpt lat="43.65486" lon="1.45382">
        <ele>133.970281</ele>
        <time>2023-07-30T16:09:44.000Z</time>
      </trkpt>
      <trkpt lat="43.6548" lon="1.45381">
        <ele>133.978504</ele>
        <time>2023-07-30T16:09:45.000Z</time>
      </trkpt>
      <trkpt lat="43.6548" lon="1.45381">
        <ele>133.978504</ele>
        <time>2023-07-30T16:09:45.000Z</time>
      </trkpt>
      <trkpt lat="43.65474" lon="1.4538">
        <ele>133.987635</ele>
        <time>2023-07-30T16:09:46.000Z</time>
      </trkpt>
      <trkpt lat="43.65468" lon="1.45378">
        <ele>133.996351</ele>
        <time>2023-07-30T16:09:47.000Z</time>
      </trkpt>
      <trkpt lat="43.65461" lon="1.45376">
        <ele>134.005125</ele>
        <time>2023-07-30T16:09:48.000Z</time>
      </trkpt>
      <trkpt lat="43.65461" lon="1.45376">
        <ele>134.005125</ele>
        <time>2023-07-30T16:09:48.000Z</time>
      </trkpt>
      <trkpt lat="43.65456" lon="1.45374">
        <ele>134.012964</ele>
        <time>2023-07-30T16:09:49.000Z</time>
      </trkpt>
      <trkpt lat="43.6545" lon="1.45372">
        <ele>134.021944</ele>
        <time>2023-07-30T16:09:50.000Z</time>
      </trkpt>
      <trkpt lat="43.6545" lon="1.45372">
        <ele>134.021944</ele>
        <time>2023-07-30T16:09:50.000Z</time>
      </trkpt>
      <trkpt lat="43.65445" lon="1.45369">
        <ele>134.029695</ele>
        <time>2023-07-30T16:09:51.000Z</time>
      </trkpt>
      <trkpt lat="43.6544" lon="1.45364">
        <ele>134.038445</ele>
        <time>2023-07-30T16:09:52.000Z</time>
      </trkpt>
      <trkpt lat="43.65435" lon="1.45359">
        <ele>134.045983</ele>
        <time>2023-07-30T16:09:53.000Z</time>
      </trkpt>
      <trkpt lat="43.6543" lon="1.45357">
        <ele>134.053965</ele>
        <time>2023-07-30T16:09:54.000Z</time>
      </trkpt>
      <trkpt lat="43.65425" lon="1.45354">
        <ele>134.061944</ele>
        <time>2023-07-30T16:09:55.000Z</time>
      </trkpt>
      <trkpt lat="43.65425" lon="1.45354">
        <ele>134.061944</ele>
        <time>2023-07-30T16:09:55.000Z</time>
      </trkpt>
      <trkpt lat="43.6542" lon="1.45353">
        <ele>134.068983</ele>
        <time>2023-07-30T16:09:56.000Z</time>
      </trkpt>
      <trkpt lat="43.65414" lon="1.45352">
        <ele>134.077205</ele>
        <time>2023-07-30T16:09:56.000Z</time>
      </trkpt>
      <trkpt lat="43.6541" lon="1.45348">
        <ele>134.084731</ele>
        <time>2023-07-30T16:09:58.000Z</time>
      </trkpt>
      <trkpt lat="43.65405" lon="1.45343">
        <ele>134.093595</ele>
        <time>2023-07-30T16:09:59.000Z</time>
      </trkpt>
      <trkpt lat="43.654" lon="1.45336">
        <ele>134.102563</ele>
        <time>2023-07-30T16:10:00.000Z</time>
      </trkpt>
      <trkpt lat="43.65396" lon="1.4533">
        <ele>134.111357</ele>
        <time>2023-07-30T16:10:01.000Z</time>
      </trkpt>
      <trkpt lat="43.65392" lon="1.45324">
        <ele>134.119854</ele>
        <time>2023-07-30T16:10:02.000Z</time>
      </trkpt>
      <trkpt lat="43.65392" lon="1.45324">
        <ele>134.119854</ele>
        <time>2023-07-30T16:10:02.000Z</time>
      </trkpt>
      <trkpt lat="43.65387" lon="1.45318">
        <ele>134.128792</ele>
        <time>2023-07-30T16:10:03.000Z</time>
      </trkpt>
      <trkpt lat="43.65383" lon="1.45312">
        <ele>134.136861</ele>
        <time>2023-07-30T16:10:04.000Z</time>
      </trkpt>
      <trkpt lat="43.65379" lon="1.45307">
        <ele>134.144555</ele>
        <time>2023-07-30T16:10:05.000Z</time>
      </trkpt>
      <trkpt lat="43.65379" lon="1.45307">
        <ele>134.144555</ele>
        <time>2023-07-30T16:10:05.000Z</time>
      </trkpt>
      <trkpt lat="43.65376" lon="1.45303">
        <ele>134.150349</ele>
        <time>2023-07-30T16:10:06.000Z</time>
      </trkpt>
      <trkpt lat="43.65375" lon="1.45301">
        <ele>134.152747</ele>
        <time>2023-07-30T16:10:07.000Z</time>
      </trkpt>
      <trkpt lat="43.65373" lon="1.45299">
        <ele>134.155922</ele>
        <time>2023-07-30T16:10:07.000Z</time>
      </trkpt>
      <trkpt lat="43.65373" lon="1.45299">
        <ele>134.155922</ele>
        <time>2023-07-30T16:10:07.000Z</time>
      </trkpt>
      <trkpt lat="43.65372" lon="1.45297">
        <ele>134.159073</ele>
        <time>2023-07-30T16:10:09.000Z</time>
      </trkpt>
      <trkpt lat="43.65371" lon="1.45296">
        <ele>134.160661</ele>
        <time>2023-07-30T16:10:10.000Z</time>
      </trkpt>
      <trkpt lat="43.65371" lon="1.45295">
        <ele>134.162099</ele>
        <time>2023-07-30T16:10:11.000Z</time>
      </trkpt>
      <trkpt lat="43.65373" lon="1.45291">
        <ele>134.166504</ele>
        <time>2023-07-30T16:10:11.000Z</time>
      </trkpt>
      <trkpt lat="43.65374" lon="1.45288">
        <ele>134.17038</ele>
        <time>2023-07-30T16:10:12.000Z</time>
      </trkpt>
      <trkpt lat="43.65377" lon="1.45284">
        <ele>134.176174</ele>
        <time>2023-07-30T16:10:14.000Z</time>
      </trkpt>
      <trkpt lat="43.65377" lon="1.45284">
        <ele>134.176174</ele>
        <time>2023-07-30T16:10:14.000Z</time>
      </trkpt>
      <trkpt lat="43.65382" lon="1.45277">
        <ele>134.182503</ele>
        <time>2023-07-30T16:10:15.000Z</time>
      </trkpt>
      <trkpt lat="43.65382" lon="1.45277">
        <ele>134.182503</ele>
        <time>2023-07-30T16:10:15.000Z</time>
      </trkpt>
      <trkpt lat="43.65385" lon="1.45271">
        <ele>134.18265</ele>
        <time>2023-07-30T16:10:16.000Z</time>
      </trkpt>
      <trkpt lat="43.6539" lon="1.45265">
        <ele>134.182802</ele>
        <time>2023-07-30T16:10:17.000Z</time>
      </trkpt>
      <trkpt lat="43.6539" lon="1.45265">
        <ele>134.182802</ele>
        <time>2023-07-30T16:10:17.000Z</time>
      </trkpt>
      <trkpt lat="43.65394" lon="1.45258">
        <ele>134.182973</ele>
        <time>2023-07-30T16:10:18.000Z</time>
      </trkpt>
      <trkpt lat="43.65394" lon="1.45258">
        <ele>134.182973</ele>
        <time>2023-07-30T16:10:18.000Z</time>
      </trkpt>
      <trkpt lat="43.654" lon="1.45249">
        <ele>134.183188</ele>
        <time>2023-07-30T16:10:19.000Z</time>
      </trkpt>
      <trkpt lat="43.65406" lon="1.45244">
        <ele>134.183353</ele>
        <time>2023-07-30T16:10:20.000Z</time>
      </trkpt>
      <trkpt lat="43.65406" lon="1.45244">
        <ele>134.183353</ele>
        <time>2023-07-30T16:10:20.000Z</time>
      </trkpt>
      <trkpt lat="43.65412" lon="1.45241">
        <ele>134.183513</ele>
        <time>2023-07-30T16:10:21.000Z</time>
      </trkpt>
      <trkpt lat="43.65418" lon="1.45239">
        <ele>134.183674</ele>
        <time>2023-07-30T16:10:21.000Z</time>
      </trkpt>
      <trkpt lat="43.65424" lon="1.45237">
        <ele>134.183825</ele>
        <time>2023-07-30T16:10:23.000Z</time>
      </trkpt>
      <trkpt lat="43.65424" lon="1.45237">
        <ele>134.183825</ele>
        <time>2023-07-30T16:10:23.000Z</time>
      </trkpt>
      <trkpt lat="43.65429" lon="1.45235">
        <ele>134.183952</ele>
        <time>2023-07-30T16:10:24.000Z</time>
      </trkpt>
      <trkpt lat="43.65435" lon="1.45232">
        <ele>134.184122</ele>
        <time>2023-07-30T16:10:25.000Z</time>
      </trkpt>
      <trkpt lat="43.65435" lon="1.45232">
        <ele>134.184122</ele>
        <time>2023-07-30T16:10:25.000Z</time>
      </trkpt>
      <trkpt lat="43.65442" lon="1.45228">
        <ele>134.184294</ele>
        <time>2023-07-30T16:10:26.000Z</time>
      </trkpt>
      <trkpt lat="43.6545" lon="1.45223">
        <ele>134.184503</ele>
        <time>2023-07-30T16:10:27.000Z</time>
      </trkpt>
      <trkpt lat="43.6545" lon="1.45223">
        <ele>134.184503</ele>
        <time>2023-07-30T16:10:27.000Z</time>
      </trkpt>
      <trkpt lat="43.65455" lon="1.4522">
        <ele>134.18464</ele>
        <time>2023-07-30T16:10:28.000Z</time>
      </trkpt>
      <trkpt lat="43.65462" lon="1.45215">
        <ele>134.18484</ele>
        <time>2023-07-30T16:10:29.000Z</time>
      </trkpt>
      <trkpt lat="43.65462" lon="1.45215">
        <ele>134.18484</ele>
        <time>2023-07-30T16:10:29.000Z</time>
      </trkpt>
      <trkpt lat="43.65467" lon="1.45211">
        <ele>134.184992</ele>
        <time>2023-07-30T16:10:30.000Z</time>
      </trkpt>
      <trkpt lat="43.65473" lon="1.45206">
        <ele>134.185161</ele>
        <time>2023-07-30T16:10:31.000Z</time>
      </trkpt>
      <trkpt lat="43.65478" lon="1.452">
        <ele>134.185326</ele>
        <time>2023-07-30T16:10:32.000Z</time>
      </trkpt>
      <trkpt lat="43.65484" lon="1.45196">
        <ele>134.18549</ele>
        <time>2023-07-30T16:10:33.000Z</time>
      </trkpt>
      <trkpt lat="43.6549" lon="1.45192">
        <ele>134.185647</ele>
        <time>2023-07-30T16:10:33.000Z</time>
      </trkpt>
      <trkpt lat="43.65496" lon="1.45188">
        <ele>134.185813</ele>
        <time>2023-07-30T16:10:35.000Z</time>
      </trkpt>
      <trkpt lat="43.65502" lon="1.45185">
        <ele>134.185976</ele>
        <time>2023-07-30T16:10:36.000Z</time>
      </trkpt>
      <trkpt lat="43.65508" lon="1.45181">
        <ele>134.186144</ele>
        <time>2023-07-30T16:10:36.000Z</time>
      </trkpt>
      <trkpt lat="43.65514" lon="1.45177">
        <ele>134.186303</ele>
        <time>2023-07-30T16:10:38.000Z</time>
      </trkpt>
      <trkpt lat="43.65519" lon="1.45173">
        <ele>134.186459</ele>
        <time>2023-07-30T16:10:39.000Z</time>
      </trkpt>
      <trkpt lat="43.65525" lon="1.45169">
        <ele>134.18662</ele>
        <time>2023-07-30T16:10:39.000Z</time>
      </trkpt>
      <trkpt lat="43.65525" lon="1.45169">
        <ele>134.18662</ele>
        <time>2023-07-30T16:10:39.000Z</time>
      </trkpt>
      <trkpt lat="43.65531" lon="1.45165">
        <ele>134.186788</ele>
        <time>2023-07-30T16:10:41.000Z</time>
      </trkpt>
      <trkpt lat="43.65537" lon="1.45161">
        <ele>134.198597</ele>
        <time>2023-07-30T16:10:41.000Z</time>
      </trkpt>
      <trkpt lat="43.65543" lon="1.45157">
        <ele>134.242105</ele>
        <time>2023-07-30T16:10:43.000Z</time>
      </trkpt>
      <trkpt lat="43.65548" lon="1.45153">
        <ele>134.288946</ele>
        <time>2023-07-30T16:10:44.000Z</time>
      </trkpt>
      <trkpt lat="43.65548" lon="1.45153">
        <ele>134.288946</ele>
        <time>2023-07-30T16:10:44.000Z</time>
      </trkpt>
      <trkpt lat="43.65554" lon="1.45149">
        <ele>134.336785</ele>
        <time>2023-07-30T16:10:44.000Z</time>
      </trkpt>
      <trkpt lat="43.65554" lon="1.45149">
        <ele>134.336785</ele>
        <time>2023-07-30T16:10:44.000Z</time>
      </trkpt>
      <trkpt lat="43.65559" lon="1.45145">
        <ele>134.380265</ele>
        <time>2023-07-30T16:10:46.000Z</time>
      </trkpt>
      <trkpt lat="43.65565" lon="1.45142">
        <ele>134.42308</ele>
        <time>2023-07-30T16:10:47.000Z</time>
      </trkpt>
      <trkpt lat="43.65565" lon="1.45142">
        <ele>134.42308</ele>
        <time>2023-07-30T16:10:47.000Z</time>
      </trkpt>
      <trkpt lat="43.65571" lon="1.45138">
        <ele>134.470112</ele>
        <time>2023-07-30T16:10:48.000Z</time>
      </trkpt>
      <trkpt lat="43.65571" lon="1.45138">
        <ele>134.470112</ele>
        <time>2023-07-30T16:10:48.000Z</time>
      </trkpt>
      <trkpt lat="43.65576" lon="1.45134">
        <ele>134.517694</ele>
        <time>2023-07-30T16:10:49.000Z</time>
      </trkpt>
      <trkpt lat="43.65581" lon="1.4513">
        <ele>134.55617</ele>
        <time>2023-07-30T16:10:50.000Z</time>
      </trkpt>
      <trkpt lat="43.65581" lon="1.4513">
        <ele>134.55617</ele>
        <time>2023-07-30T16:10:50.000Z</time>
      </trkpt>
      <trkpt lat="43.65585" lon="1.45127">
        <ele>134.592117</ele>
        <time>2023-07-30T16:10:51.000Z</time>
      </trkpt>
      <trkpt lat="43.65585" lon="1.45127">
        <ele>134.592117</ele>
        <time>2023-07-30T16:10:51.000Z</time>
      </trkpt>
      <trkpt lat="43.6559" lon="1.45126">
        <ele>134.627007</ele>
        <time>2023-07-30T16:10:52.000Z</time>
      </trkpt>
      <trkpt lat="43.65594" lon="1.45124">
        <ele>134.656441</ele>
        <time>2023-07-30T16:10:53.000Z</time>
      </trkpt>
      <trkpt lat="43.65594" lon="1.45124">
        <ele>134.656441</ele>
        <time>2023-07-30T16:10:53.000Z</time>
      </trkpt>
      <trkpt lat="43.65595" lon="1.45122">
        <ele>134.672085</ele>
        <time>2023-07-30T16:10:54.000Z</time>
      </trkpt>
      <trkpt lat="43.65596" lon="1.45118">
        <ele>134.693066</ele>
        <time>2023-07-30T16:10:55.000Z</time>
      </trkpt>
      <trkpt lat="43.65596" lon="1.45118">
        <ele>134.693066</ele>
        <time>2023-07-30T16:10:55.000Z</time>
      </trkpt>
      <trkpt lat="43.65596" lon="1.45114">
        <ele>134.713742</ele>
        <time>2023-07-30T16:10:56.000Z</time>
      </trkpt>
      <trkpt lat="43.65595" lon="1.45111">
        <ele>134.732524</ele>
        <time>2023-07-30T16:10:57.000Z</time>
      </trkpt>
      <trkpt lat="43.65595" lon="1.45111">
        <ele>134.732524</ele>
        <time>2023-07-30T16:10:57.000Z</time>
      </trkpt>
      <trkpt lat="43.65593" lon="1.45108">
        <ele>134.755299</ele>
        <time>2023-07-30T16:10:58.000Z</time>
      </trkpt>
      <trkpt lat="43.6559" lon="1.45102">
        <ele>134.792951</ele>
        <time>2023-07-30T16:10:59.000Z</time>
      </trkpt>
      <trkpt lat="43.65588" lon="1.451">
        <ele>134.808223</ele>
        <time>2023-07-30T16:11:00.000Z</time>
      </trkpt>
      <trkpt lat="43.65588" lon="1.451">
        <ele>134.808223</ele>
        <time>2023-07-30T16:11:00.000Z</time>
      </trkpt>
      <trkpt lat="43.65586" lon="1.45097">
        <ele>134.830998</ele>
        <time>2023-07-30T16:11:01.000Z</time>
      </trkpt>
      <trkpt lat="43.6558" lon="1.45089">
        <ele>134.889772</ele>
        <time>2023-07-30T16:11:02.000Z</time>
      </trkpt>
      <trkpt lat="43.65577" lon="1.45085">
        <ele>134.925161</ele>
        <time>2023-07-30T16:11:02.000Z</time>
      </trkpt>
      <trkpt lat="43.65574" lon="1.45081">
        <ele>134.950671</ele>
        <time>2023-07-30T16:11:04.000Z</time>
      </trkpt>
      <trkpt lat="43.65574" lon="1.45081">
        <ele>134.950671</ele>
        <time>2023-07-30T16:11:04.000Z</time>
      </trkpt>
      <trkpt lat="43.65571" lon="1.45077">
        <ele>134.983612</ele>
        <time>2023-07-30T16:11:05.000Z</time>
      </trkpt>
      <trkpt lat="43.65571" lon="1.45077">
        <ele>134.983612</ele>
        <time>2023-07-30T16:11:05.000Z</time>
      </trkpt>
      <trkpt lat="43.65564" lon="1.45067">
        <ele>135.054975</ele>
        <time>2023-07-30T16:11:06.000Z</time>
      </trkpt>
      <trkpt lat="43.6556" lon="1.45061">
        <ele>135.098855</ele>
        <time>2023-07-30T16:11:07.000Z</time>
      </trkpt>
      <trkpt lat="43.65557" lon="1.45057">
        <ele>135.131295</ele>
        <time>2023-07-30T16:11:08.000Z</time>
      </trkpt>
      <trkpt lat="43.65553" lon="1.45051">
        <ele>135.175937</ele>
        <time>2023-07-30T16:11:09.000Z</time>
      </trkpt>
      <trkpt lat="43.65548" lon="1.45044">
        <ele>135.225872</ele>
        <time>2023-07-30T16:11:10.000Z</time>
      </trkpt>
      <trkpt lat="43.65543" lon="1.45037">
        <ele>135.277508</ele>
        <time>2023-07-30T16:11:11.000Z</time>
      </trkpt>
      <trkpt lat="43.65539" lon="1.45031">
        <ele>135.323315</ele>
        <time>2023-07-30T16:11:13.000Z</time>
      </trkpt>
      <trkpt lat="43.65531" lon="1.4502">
        <ele>135.40452</ele>
        <time>2023-07-30T16:11:15.000Z</time>
      </trkpt>
      <trkpt lat="43.65531" lon="1.4502">
        <ele>135.40452</ele>
        <time>2023-07-30T16:11:15.000Z</time>
      </trkpt>
      <trkpt lat="43.65528" lon="1.45019">
        <ele>135.42626</ele>
        <time>2023-07-30T16:11:16.000Z</time>
      </trkpt>
      <trkpt lat="43.65526" lon="1.45016">
        <ele>135.445851</ele>
        <time>2023-07-30T16:11:17.000Z</time>
      </trkpt>
      <trkpt lat="43.65524" lon="1.45011">
        <ele>135.478928</ele>
        <time>2023-07-30T16:11:17.000Z</time>
      </trkpt>
      <trkpt lat="43.65524" lon="1.45011">
        <ele>135.478928</ele>
        <time>2023-07-30T16:11:17.000Z</time>
      </trkpt>
      <trkpt lat="43.6552" lon="1.45005">
        <ele>135.503113</ele>
        <time>2023-07-30T16:11:18.000Z</time>
      </trkpt>
      <trkpt lat="43.65516" lon="1.44999">
        <ele>135.498875</ele>
        <time>2023-07-30T16:11:19.000Z</time>
      </trkpt>
      <trkpt lat="43.65516" lon="1.44999">
        <ele>135.498875</ele>
        <time>2023-07-30T16:11:19.000Z</time>
      </trkpt>
      <trkpt lat="43.65512" lon="1.44993">
        <ele>135.49491</ele>
        <time>2023-07-30T16:11:20.000Z</time>
      </trkpt>
      <trkpt lat="43.65507" lon="1.44986">
        <ele>135.489866</ele>
        <time>2023-07-30T16:11:21.000Z</time>
      </trkpt>
      <trkpt lat="43.65502" lon="1.4498">
        <ele>135.485019</ele>
        <time>2023-07-30T16:11:23.000Z</time>
      </trkpt>
      <trkpt lat="43.65498" lon="1.44974">
        <ele>135.480744</ele>
        <time>2023-07-30T16:11:24.000Z</time>
      </trkpt>
      <trkpt lat="43.65488" lon="1.4496">
        <ele>135.471091</ele>
        <time>2023-07-30T16:11:25.000Z</time>
      </trkpt>
      <trkpt lat="43.65484" lon="1.44953">
        <ele>135.466152</ele>
        <time>2023-07-30T16:11:26.000Z</time>
      </trkpt>
      <trkpt lat="43.65484" lon="1.44953">
        <ele>135.466152</ele>
        <time>2023-07-30T16:11:26.000Z</time>
      </trkpt>
      <trkpt lat="43.6548" lon="1.44945">
        <ele>135.46121</ele>
        <time>2023-07-30T16:11:27.000Z</time>
      </trkpt>
      <trkpt lat="43.65477" lon="1.44936">
        <ele>135.456104</ele>
        <time>2023-07-30T16:11:29.000Z</time>
      </trkpt>
      <trkpt lat="43.65477" lon="1.44928">
        <ele>135.451705</ele>
        <time>2023-07-30T16:11:30.000Z</time>
      </trkpt>
      <trkpt lat="43.65478" lon="1.4492">
        <ele>135.447586</ele>
        <time>2023-07-30T16:11:30.000Z</time>
      </trkpt>
      <trkpt lat="43.6548" lon="1.44911">
        <ele>135.442821</ele>
        <time>2023-07-30T16:11:31.000Z</time>
      </trkpt>
      <trkpt lat="43.65484" lon="1.44903">
        <ele>135.438088</ele>
        <time>2023-07-30T16:11:32.000Z</time>
      </trkpt>
      <trkpt lat="43.65488" lon="1.44895">
        <ele>135.432773</ele>
        <time>2023-07-30T16:11:33.000Z</time>
      </trkpt>
      <trkpt lat="43.65488" lon="1.44895">
        <ele>135.432773</ele>
        <time>2023-07-30T16:11:33.000Z</time>
      </trkpt>
      <trkpt lat="43.65492" lon="1.44887">
        <ele>135.427787</ele>
        <time>2023-07-30T16:11:35.000Z</time>
      </trkpt>
      <trkpt lat="43.65496" lon="1.44879">
        <ele>135.422889</ele>
        <time>2023-07-30T16:11:35.000Z</time>
      </trkpt>
      <trkpt lat="43.655" lon="1.44871">
        <ele>135.417658</ele>
        <time>2023-07-30T16:11:37.000Z</time>
      </trkpt>
      <trkpt lat="43.655" lon="1.44871">
        <ele>135.417658</ele>
        <time>2023-07-30T16:11:37.000Z</time>
      </trkpt>
      <trkpt lat="43.65503" lon="1.44864">
        <ele>135.413558</ele>
        <time>2023-07-30T16:11:38.000Z</time>
      </trkpt>
      <trkpt lat="43.65503" lon="1.44864">
        <ele>135.413558</ele>
        <time>2023-07-30T16:11:38.000Z</time>
      </trkpt>
      <trkpt lat="43.65509" lon="1.44849">
        <ele>135.404627</ele>
        <time>2023-07-30T16:11:38.000Z</time>
      </trkpt>
      <trkpt lat="43.65515" lon="1.44834">
        <ele>135.395742</ele>
        <time>2023-07-30T16:11:41.000Z</time>
      </trkpt>
      <trkpt lat="43.65515" lon="1.44834">
        <ele>135.395742</ele>
        <time>2023-07-30T16:11:41.000Z</time>
      </trkpt>
      <trkpt lat="43.65519" lon="1.44826">
        <ele>135.390886</ele>
        <time>2023-07-30T16:11:42.000Z</time>
      </trkpt>
      <trkpt lat="43.65523" lon="1.44819">
        <ele>135.385964</ele>
        <time>2023-07-30T16:11:44.000Z</time>
      </trkpt>
      <trkpt lat="43.65532" lon="1.44807">
        <ele>135.377198</ele>
        <time>2023-07-30T16:11:45.000Z</time>
      </trkpt>
      <trkpt lat="43.65537" lon="1.44801">
        <ele>135.376477</ele>
        <time>2023-07-30T16:11:46.000Z</time>
      </trkpt>
      <trkpt lat="43.65537" lon="1.44801">
        <ele>135.376477</ele>
        <time>2023-07-30T16:11:46.000Z</time>
      </trkpt>
      <trkpt lat="43.65545" lon="1.44787">
        <ele>135.376477</ele>
        <time>2023-07-30T16:11:48.000Z</time>
      </trkpt>
      <trkpt lat="43.65545" lon="1.44787">
        <ele>135.376477</ele>
        <time>2023-07-30T16:11:48.000Z</time>
      </trkpt>
      <trkpt lat="43.65548" lon="1.4478">
        <ele>135.376477</ele>
        <time>2023-07-30T16:11:49.000Z</time>
      </trkpt>
      <trkpt lat="43.65551" lon="1.44772">
        <ele>135.376477</ele>
        <time>2023-07-30T16:11:50.000Z</time>
      </trkpt>
      <trkpt lat="43.65555" lon="1.44765">
        <ele>135.376477</ele>
        <time>2023-07-30T16:11:51.000Z</time>
      </trkpt>
      <trkpt lat="43.65559" lon="1.44757">
        <ele>135.376477</ele>
        <time>2023-07-30T16:11:52.000Z</time>
      </trkpt>
      <trkpt lat="43.65563" lon="1.4475">
        <ele>135.376477</ele>
        <time>2023-07-30T16:11:53.000Z</time>
      </trkpt>
      <trkpt lat="43.65563" lon="1.4475">
        <ele>135.376477</ele>
        <time>2023-07-30T16:11:53.000Z</time>
      </trkpt>
      <trkpt lat="43.65567" lon="1.44743">
        <ele>135.376477</ele>
        <time>2023-07-30T16:11:54.000Z</time>
      </trkpt>
      <trkpt lat="43.65574" lon="1.44728">
        <ele>135.376477</ele>
        <time>2023-07-30T16:11:56.000Z</time>
      </trkpt>
      <trkpt lat="43.65574" lon="1.44728">
        <ele>135.376477</ele>
        <time>2023-07-30T16:11:56.000Z</time>
      </trkpt>
      <trkpt lat="43.65578" lon="1.44721">
        <ele>135.376477</ele>
        <time>2023-07-30T16:11:57.000Z</time>
      </trkpt>
      <trkpt lat="43.65582" lon="1.44713">
        <ele>135.376477</ele>
        <time>2023-07-30T16:11:58.000Z</time>
      </trkpt>
      <trkpt lat="43.65582" lon="1.44713">
        <ele>135.376477</ele>
        <time>2023-07-30T16:11:58.000Z</time>
      </trkpt>
      <trkpt lat="43.65585" lon="1.44706">
        <ele>135.376477</ele>
        <time>2023-07-30T16:11:59.000Z</time>
      </trkpt>
      <trkpt lat="43.65589" lon="1.44699">
        <ele>135.376477</ele>
        <time>2023-07-30T16:12:00.000Z</time>
      </trkpt>
      <trkpt lat="43.65593" lon="1.44692">
        <ele>135.376477</ele>
        <time>2023-07-30T16:12:01.000Z</time>
      </trkpt>
      <trkpt lat="43.65596" lon="1.44685">
        <ele>135.376477</ele>
        <time>2023-07-30T16:12:02.000Z</time>
      </trkpt>
      <trkpt lat="43.65599" lon="1.44678">
        <ele>135.376477</ele>
        <time>2023-07-30T16:12:03.000Z</time>
      </trkpt>
      <trkpt lat="43.65603" lon="1.44671">
        <ele>135.376477</ele>
        <time>2023-07-30T16:12:04.000Z</time>
      </trkpt>
      <trkpt lat="43.65603" lon="1.44671">
        <ele>135.376477</ele>
        <time>2023-07-30T16:12:04.000Z</time>
      </trkpt>
      <trkpt lat="43.65605" lon="1.44666">
        <ele>135.376477</ele>
        <time>2023-07-30T16:12:05.000Z</time>
      </trkpt>
      <trkpt lat="43.65608" lon="1.4466">
        <ele>135.376477</ele>
        <time>2023-07-30T16:12:06.000Z</time>
      </trkpt>
      <trkpt lat="43.65608" lon="1.44656">
        <ele>135.376477</ele>
        <time>2023-07-30T16:12:07.000Z</time>
      </trkpt>
      <trkpt lat="43.65608" lon="1.44656">
        <ele>135.376477</ele>
        <time>2023-07-30T16:12:07.000Z</time>
      </trkpt>
      <trkpt lat="43.65608" lon="1.44653">
        <ele>135.376477</ele>
        <time>2023-07-30T16:12:08.000Z</time>
      </trkpt>
      <trkpt lat="43.65608" lon="1.44653">
        <ele>135.376477</ele>
        <time>2023-07-30T16:12:08.000Z</time>
      </trkpt>
      <trkpt lat="43.65606" lon="1.44649">
        <ele>135.376477</ele>
        <time>2023-07-30T16:12:09.000Z</time>
      </trkpt>
      <trkpt lat="43.65605" lon="1.44646">
        <ele>135.376477</ele>
        <time>2023-07-30T16:12:10.000Z</time>
      </trkpt>
      <trkpt lat="43.65605" lon="1.44646">
        <ele>135.376477</ele>
        <time>2023-07-30T16:12:10.000Z</time>
      </trkpt>
      <trkpt lat="43.65599" lon="1.44642">
        <ele>135.376477</ele>
        <time>2023-07-30T16:12:12.000Z</time>
      </trkpt>
      <trkpt lat="43.65599" lon="1.44642">
        <ele>135.376477</ele>
        <time>2023-07-30T16:12:12.000Z</time>
      </trkpt>
      <trkpt lat="43.65596" lon="1.4464">
        <ele>135.376477</ele>
        <time>2023-07-30T16:12:13.000Z</time>
      </trkpt>
      <trkpt lat="43.65593" lon="1.44639">
        <ele>135.376477</ele>
        <time>2023-07-30T16:12:15.000Z</time>
      </trkpt>
      <trkpt lat="43.65593" lon="1.44639">
        <ele>135.376477</ele>
        <time>2023-07-30T16:12:15.000Z</time>
      </trkpt>
      <trkpt lat="43.65587" lon="1.44636">
        <ele>135.376477</ele>
        <time>2023-07-30T16:12:16.000Z</time>
      </trkpt>
      <trkpt lat="43.65584" lon="1.44634">
        <ele>135.376477</ele>
        <time>2023-07-30T16:12:17.000Z</time>
      </trkpt>
      <trkpt lat="43.65581" lon="1.44632">
        <ele>135.376477</ele>
        <time>2023-07-30T16:12:18.000Z</time>
      </trkpt>
      <trkpt lat="43.65577" lon="1.44631">
        <ele>135.376477</ele>
        <time>2023-07-30T16:12:19.000Z</time>
      </trkpt>
      <trkpt lat="43.65573" lon="1.44628">
        <ele>135.376477</ele>
        <time>2023-07-30T16:12:21.000Z</time>
      </trkpt>
      <trkpt lat="43.6557" lon="1.44626">
        <ele>135.376477</ele>
        <time>2023-07-30T16:12:22.000Z</time>
      </trkpt>
      <trkpt lat="43.6557" lon="1.44626">
        <ele>135.376477</ele>
        <time>2023-07-30T16:12:22.000Z</time>
      </trkpt>
      <trkpt lat="43.65566" lon="1.44623">
        <ele>135.376477</ele>
        <time>2023-07-30T16:12:23.000Z</time>
      </trkpt>
      <trkpt lat="43.65563" lon="1.44619">
        <ele>135.376477</ele>
        <time>2023-07-30T16:12:24.000Z</time>
      </trkpt>
      <trkpt lat="43.65563" lon="1.44612">
        <ele>135.376477</ele>
        <time>2023-07-30T16:12:26.000Z</time>
      </trkpt>
      <trkpt lat="43.65563" lon="1.44612">
        <ele>135.376477</ele>
        <time>2023-07-30T16:12:30.000Z</time>
      </trkpt>
    </trkseg>
  </trk>
</gpx>